<?xml version='1.0' encoding='UTF-8'?><gpx version="1.1" creator="JPX - https://github.com/jenetics/jpx" xmlns="http://www.topografix.com/GPX/1/1"><trk><trkseg><trkpt lat="44.20552246553344" lon="9.970053639065984"><ele>78.16666666666667</ele><time>2026-05-02T08:36:14.999Z</time></trkpt><trkpt lat="44.20556253364798" lon="9.969962795800521"><ele>76.33333333333334</ele><time>2026-05-02T08:36:17.999Z</time></trkpt><trkpt lat="44.20568996371335" lon="9.96998082307695"><ele>74.5</ele><time>2026-05-02T08:36:19.999Z</time></trkpt><trkpt lat="44.205750408973444" lon="9.970025164410053"><ele>72.66666666666667</ele><time>2026-05-02T08:36:20.999Z</time></trkpt><trkpt lat="44.20581113766918" lon="9.970052900615702"><ele>70.83333333333333</ele><time>2026-05-02T08:36:21.999Z</time></trkpt><trkpt lat="44.20588463662637" lon="9.970071897718515"><ele>69.0</ele><time>2026-05-02T08:36:22.999Z</time></trkpt><trkpt lat="44.20596212631307" lon="9.97008456452385"><ele>69.0</ele><time>2026-05-02T08:36:23.999Z</time></trkpt><trkpt lat="44.20605040362756" lon="9.970097189662127"><ele>69.0</ele><time>2026-05-02T08:36:24.999Z</time></trkpt><trkpt lat="44.20616016604253" lon="9.970110189381524"><ele>69.0</ele><time>2026-05-02T08:36:25.999Z</time></trkpt><trkpt lat="44.206278381626376" lon="9.970133476749044"><ele>69.0</ele><time>2026-05-02T08:36:26.999Z</time></trkpt><trkpt lat="44.20639053910629" lon="9.97016102036952"><ele>69.0</ele><time>2026-05-02T08:36:27.999Z</time></trkpt><trkpt lat="44.20650688260508" lon="9.970187273741699"><ele>65.0</ele><time>2026-05-02T08:36:28.999Z</time></trkpt><trkpt lat="44.20662901171942" lon="9.970215549649886"><ele>61.0</ele><time>2026-05-02T08:36:29.999Z</time></trkpt><trkpt lat="44.206748868125395" lon="9.970242909838053"><ele>57.0</ele><time>2026-05-02T08:36:30.999Z</time></trkpt><trkpt lat="44.206870482621156" lon="9.970269551448375"><ele>53.0</ele><time>2026-05-02T08:36:31.999Z</time></trkpt><trkpt lat="44.206987092617545" lon="9.970292609843996"><ele>53.0</ele><time>2026-05-02T08:36:32.999Z</time></trkpt><trkpt lat="44.20710461569461" lon="9.970316376893807"><ele>53.0</ele><time>2026-05-02T08:36:33.999Z</time></trkpt><trkpt lat="44.20722118460779" lon="9.970339254972178"><ele>53.0</ele><time>2026-05-02T08:36:34.999Z</time></trkpt><trkpt lat="44.207345508946155" lon="9.970360722455498"><ele>53.0</ele><time>2026-05-02T08:36:35.999Z</time></trkpt><trkpt lat="44.207470219307154" lon="9.97038264165005"><ele>54.2</ele><time>2026-05-02T08:36:36.999Z</time></trkpt><trkpt lat="44.20758842409398" lon="9.970405147422433"><ele>55.4</ele><time>2026-05-02T08:36:37.999Z</time></trkpt><trkpt lat="44.20769178575759" lon="9.970425942285562"><ele>56.60000000000001</ele><time>2026-05-02T08:36:38.999Z</time></trkpt><trkpt lat="44.20778899340704" lon="9.970446163874032"><ele>57.800000000000004</ele><time>2026-05-02T08:36:39.999Z</time></trkpt><trkpt lat="44.2078765914232" lon="9.970460542596943"><ele>59.0</ele><time>2026-05-02T08:36:40.999Z</time></trkpt><trkpt lat="44.207953776467946" lon="9.970471247344637"><ele>59.0</ele><time>2026-05-02T08:36:41.999Z</time></trkpt><trkpt lat="44.20802379735885" lon="9.970469503806907"><ele>59.00000000000001</ele><time>2026-05-02T08:36:42.999Z</time></trkpt><trkpt lat="44.2081085689427" lon="9.9705267609849"><ele>59.00000000000001</ele><time>2026-05-02T08:36:44.999Z</time></trkpt><trkpt lat="44.20808490083088" lon="9.970688573930468"><ele>59.0</ele><time>2026-05-02T08:36:46.999Z</time></trkpt><trkpt lat="44.208058919991956" lon="9.970785100882251"><ele>59.0</ele><time>2026-05-02T08:36:47.999Z</time></trkpt><trkpt lat="44.20802273226427" lon="9.970941355532783"><ele>59.800000000000004</ele><time>2026-05-02T08:36:49.999Z</time></trkpt><trkpt lat="44.20797706463811" lon="9.971078869456754"><ele>60.60000000000001</ele><time>2026-05-02T08:36:51.999Z</time></trkpt><trkpt lat="44.207932412569725" lon="9.971208024124277"><ele>61.4</ele><time>2026-05-02T08:36:53.999Z</time></trkpt><trkpt lat="44.20787731765424" lon="9.971363616300032"><ele>62.2</ele><time>2026-05-02T08:36:55.999Z</time></trkpt><trkpt lat="44.20784114134811" lon="9.971451102485762"><ele>63.0</ele><time>2026-05-02T08:36:56.999Z</time></trkpt><trkpt lat="44.20780623086201" lon="9.971558111998243"><ele>63.0</ele><time>2026-05-02T08:36:57.999Z</time></trkpt><trkpt lat="44.207769541940934" lon="9.971682225901572"><ele>63.0</ele><time>2026-05-02T08:36:58.999Z</time></trkpt><trkpt lat="44.20771416972752" lon="9.971808789600308"><ele>63.0</ele><time>2026-05-02T08:36:59.999Z</time></trkpt><trkpt lat="44.20766883578099" lon="9.971953871765132"><ele>63.0</ele><time>2026-05-02T08:37:00.999Z</time></trkpt><trkpt lat="44.20763317046578" lon="9.972072143853206"><ele>63.0</ele><time>2026-05-02T08:37:01.999Z</time></trkpt><trkpt lat="44.20760238189093" lon="9.97217966187324"><ele>63.5</ele><time>2026-05-02T08:37:02.999Z</time></trkpt><trkpt lat="44.207592259606606" lon="9.97229605451522"><ele>64.0</ele><time>2026-05-02T08:37:03.999Z</time></trkpt><trkpt lat="44.20757432502452" lon="9.972411909196287"><ele>64.5</ele><time>2026-05-02T08:37:04.999Z</time></trkpt><trkpt lat="44.20756992620701" lon="9.972551161447026"><ele>65.0</ele><time>2026-05-02T08:37:05.999Z</time></trkpt><trkpt lat="44.20756999939343" lon="9.972677237671677"><ele>65.5</ele><time>2026-05-02T08:37:06.999Z</time></trkpt><trkpt lat="44.20758190788217" lon="9.972786657635245"><ele>66.0</ele><time>2026-05-02T08:37:07.999Z</time></trkpt><trkpt lat="44.20760645965701" lon="9.972901459541522"><ele>66.0</ele><time>2026-05-02T08:37:08.999Z</time></trkpt><trkpt lat="44.207629176542895" lon="9.973026818753052"><ele>66.0</ele><time>2026-05-02T08:37:09.999Z</time></trkpt><trkpt lat="44.20765231955513" lon="9.97315133258176"><ele>66.0</ele><time>2026-05-02T08:37:10.999Z</time></trkpt><trkpt lat="44.20765052152592" lon="9.973278982077783"><ele>66.0</ele><time>2026-05-02T08:37:11.999Z</time></trkpt><trkpt lat="44.207655682543155" lon="9.973400855692182"><ele>66.0</ele><time>2026-05-02T08:37:12.999Z</time></trkpt><trkpt lat="44.20768452914278" lon="9.973519330074101"><ele>64.39999999999999</ele><time>2026-05-02T08:37:13.999Z</time></trkpt><trkpt lat="44.2077211879932" lon="9.973627444477872"><ele>62.8</ele><time>2026-05-02T08:37:14.999Z</time></trkpt><trkpt lat="44.20777603740722" lon="9.97373230701655"><ele>61.199999999999996</ele><time>2026-05-02T08:37:15.999Z</time></trkpt><trkpt lat="44.207835280717724" lon="9.973834779127346"><ele>59.599999999999994</ele><time>2026-05-02T08:37:16.999Z</time></trkpt><trkpt lat="44.207894797123394" lon="9.973946448201247"><ele>58.0</ele><time>2026-05-02T08:37:17.999Z</time></trkpt><trkpt lat="44.20794478472814" lon="9.974047428363336"><ele>58.0</ele><time>2026-05-02T08:37:18.999Z</time></trkpt><trkpt lat="44.208003231734395" lon="9.974139454272125"><ele>58.0</ele><time>2026-05-02T08:37:19.999Z</time></trkpt><trkpt lat="44.20808215117977" lon="9.974233189510349"><ele>58.0</ele><time>2026-05-02T08:37:20.999Z</time></trkpt><trkpt lat="44.20817076106297" lon="9.974327172284118"><ele>58.0</ele><time>2026-05-02T08:37:21.999Z</time></trkpt><trkpt lat="44.20826064079956" lon="9.974428258273438"><ele>58.0</ele><time>2026-05-02T08:37:22.999Z</time></trkpt><trkpt lat="44.20834099409764" lon="9.974538884854061"><ele>58.8</ele><time>2026-05-02T08:37:23.999Z</time></trkpt><trkpt lat="44.20840516397071" lon="9.974662274418176"><ele>59.599999999999994</ele><time>2026-05-02T08:37:24.999Z</time></trkpt><trkpt lat="44.20846470131449" lon="9.974787306700232"><ele>60.400000000000006</ele><time>2026-05-02T08:37:26Z</time></trkpt><trkpt lat="44.20850522769454" lon="9.974913339682619"><ele>61.2</ele><time>2026-05-02T08:37:27Z</time></trkpt><trkpt lat="44.208544233721184" lon="9.975025504394965"><ele>62.0</ele><time>2026-05-02T08:37:28Z</time></trkpt><trkpt lat="44.20856338595202" lon="9.9751452524426"><ele>62.0</ele><time>2026-05-02T08:37:29Z</time></trkpt><trkpt lat="44.20855155281248" lon="9.975260942224423"><ele>62.0</ele><time>2026-05-02T08:37:30Z</time></trkpt><trkpt lat="44.20853228548345" lon="9.97538701924845"><ele>62.0</ele><time>2026-05-02T08:37:31Z</time></trkpt><trkpt lat="44.20852324713381" lon="9.975526522065541"><ele>62.0</ele><time>2026-05-02T08:37:32Z</time></trkpt><trkpt lat="44.20850365981792" lon="9.975661422384164"><ele>62.0</ele><time>2026-05-02T08:37:33Z</time></trkpt><trkpt lat="44.20846726482463" lon="9.975784282442705"><ele>62.16666666666667</ele><time>2026-05-02T08:37:34Z</time></trkpt><trkpt lat="44.20846228967598" lon="9.975909484556393"><ele>62.333333333333336</ele><time>2026-05-02T08:37:35Z</time></trkpt><trkpt lat="44.20843979014879" lon="9.976020132883525"><ele>62.5</ele><time>2026-05-02T08:37:36Z</time></trkpt><trkpt lat="44.20842496473826" lon="9.97613346700348"><ele>62.66666666666667</ele><time>2026-05-02T08:37:37Z</time></trkpt><trkpt lat="44.208399819149975" lon="9.976243459233302"><ele>62.833333333333336</ele><time>2026-05-02T08:37:38Z</time></trkpt><trkpt lat="44.20842230682752" lon="9.976358734128986"><ele>63.0</ele><time>2026-05-02T08:37:39Z</time></trkpt><trkpt lat="44.20843964846918" lon="9.976461337725048"><ele>63.0</ele><time>2026-05-02T08:37:40Z</time></trkpt><trkpt lat="44.208456735915895" lon="9.976550292985864"><ele>63.0</ele><time>2026-05-02T08:37:41Z</time></trkpt><trkpt lat="44.208455454419536" lon="9.976703877104821"><ele>63.0</ele><time>2026-05-02T08:37:43Z</time></trkpt><trkpt lat="44.20843893923002" lon="9.976802852528646"><ele>63.0</ele><time>2026-05-02T08:37:44Z</time></trkpt><trkpt lat="44.208398378991895" lon="9.976913476709273"><ele>63.0</ele><time>2026-05-02T08:37:45Z</time></trkpt><trkpt lat="44.208341690514715" lon="9.977005857823386"><ele>63.0</ele><time>2026-05-02T08:37:46Z</time></trkpt><trkpt lat="44.208257245482834" lon="9.977059888416282"><ele>62.599999999999994</ele><time>2026-05-02T08:37:47Z</time></trkpt><trkpt lat="44.20816704062673" lon="9.977111449184832"><ele>62.199999999999996</ele><time>2026-05-02T08:37:48Z</time></trkpt><trkpt lat="44.20806446941355" lon="9.97716958023881"><ele>61.8</ele><time>2026-05-02T08:37:49Z</time></trkpt><trkpt lat="44.20796308424277" lon="9.977221414999836"><ele>61.4</ele><time>2026-05-02T08:37:50Z</time></trkpt><trkpt lat="44.20787332384369" lon="9.977261853333054"><ele>61.0</ele><time>2026-05-02T08:37:51Z</time></trkpt><trkpt lat="44.20778603999439" lon="9.977302596216619"><ele>61.0</ele><time>2026-05-02T08:37:52Z</time></trkpt><trkpt lat="44.207705598909456" lon="9.97736939740987"><ele>60.99999999999999</ele><time>2026-05-02T08:37:53Z</time></trkpt><trkpt lat="44.207614904133806" lon="9.977417229997949"><ele>60.99999999999999</ele><time>2026-05-02T08:37:54Z</time></trkpt><trkpt lat="44.20752807348101" lon="9.977481357839043"><ele>61.0</ele><time>2026-05-02T08:37:55Z</time></trkpt><trkpt lat="44.207447119007895" lon="9.977574139555657"><ele>61.0</ele><time>2026-05-02T08:37:56Z</time></trkpt><trkpt lat="44.207374721331966" lon="9.977672072107765"><ele>60.8</ele><time>2026-05-02T08:37:57Z</time></trkpt><trkpt lat="44.20730694147067" lon="9.977778980643977"><ele>60.599999999999994</ele><time>2026-05-02T08:37:58Z</time></trkpt><trkpt lat="44.20723889635653" lon="9.977891215429413"><ele>60.4</ele><time>2026-05-02T08:37:59Z</time></trkpt><trkpt lat="44.20717747440464" lon="9.977998215291267"><ele>60.2</ele><time>2026-05-02T08:38:00Z</time></trkpt><trkpt lat="44.20711850484702" lon="9.978094726275069"><ele>60.0</ele><time>2026-05-02T08:38:01Z</time></trkpt><trkpt lat="44.20705085722619" lon="9.978226737210827"><ele>60.0</ele><time>2026-05-02T08:38:02Z</time></trkpt><trkpt lat="44.20699014808793" lon="9.97833337847597"><ele>60.0</ele><time>2026-05-02T08:38:03Z</time></trkpt><trkpt lat="44.206934979894385" lon="9.978444459287363"><ele>60.0</ele><time>2026-05-02T08:38:04Z</time></trkpt><trkpt lat="44.206861012365785" lon="9.978550776798802"><ele>60.0</ele><time>2026-05-02T08:38:05Z</time></trkpt><trkpt lat="44.20681426921241" lon="9.978677983438851"><ele>60.0</ele><time>2026-05-02T08:38:06Z</time></trkpt><trkpt lat="44.20676773942508" lon="9.978810020412489"><ele>60.4</ele><time>2026-05-02T08:38:07Z</time></trkpt><trkpt lat="44.20672744155083" lon="9.97894636811734"><ele>60.8</ele><time>2026-05-02T08:38:08Z</time></trkpt><trkpt lat="44.20668730128521" lon="9.979088958557423"><ele>61.2</ele><time>2026-05-02T08:38:09Z</time></trkpt><trkpt lat="44.206630366476354" lon="9.979206064988679"><ele>61.6</ele><time>2026-05-02T08:38:10Z</time></trkpt><trkpt lat="44.20658169179179" lon="9.979330787745138"><ele>62.0</ele><time>2026-05-02T08:38:11Z</time></trkpt><trkpt lat="44.20654608600147" lon="9.979451714556596"><ele>62.0</ele><time>2026-05-02T08:38:12Z</time></trkpt><trkpt lat="44.20647156179049" lon="9.97951760056224"><ele>62.0</ele><time>2026-05-02T08:38:13Z</time></trkpt><trkpt lat="44.206369280569916" lon="9.979507210318088"><ele>62.0</ele><time>2026-05-02T08:38:14Z</time></trkpt><trkpt lat="44.20627187733311" lon="9.9795183612141"><ele>62.0</ele><time>2026-05-02T08:38:15Z</time></trkpt><trkpt lat="44.20616406138025" lon="9.979533259763727"><ele>62.0</ele><time>2026-05-02T08:38:16Z</time></trkpt><trkpt lat="44.20606599247223" lon="9.97956726032734"><ele>62.0</ele><time>2026-05-02T08:38:17Z</time></trkpt><trkpt lat="44.20596510939479" lon="9.979581742723266"><ele>62.0</ele><time>2026-05-02T08:38:18Z</time></trkpt><trkpt lat="44.20586037967253" lon="9.979601238172902"><ele>62.0</ele><time>2026-05-02T08:38:19Z</time></trkpt><trkpt lat="44.205773538208646" lon="9.979627804504222"><ele>62.0</ele><time>2026-05-02T08:38:20Z</time></trkpt><trkpt lat="44.20568941191456" lon="9.979674110298115"><ele>62.0</ele><time>2026-05-02T08:38:21Z</time></trkpt><trkpt lat="44.2056025574367" lon="9.97972897842638"><ele>62.2</ele><time>2026-05-02T08:38:22Z</time></trkpt><trkpt lat="44.20550929082824" lon="9.9797971955013"><ele>62.400000000000006</ele><time>2026-05-02T08:38:22.998Z</time></trkpt><trkpt lat="44.205417877261254" lon="9.979869497505952"><ele>62.599999999999994</ele><time>2026-05-02T08:38:23.998Z</time></trkpt><trkpt lat="44.205334107114716" lon="9.979946908245791"><ele>62.8</ele><time>2026-05-02T08:38:24.998Z</time></trkpt><trkpt lat="44.20525091262937" lon="9.980007410338708"><ele>63.0</ele><time>2026-05-02T08:38:25.998Z</time></trkpt><trkpt lat="44.20515995558753" lon="9.980089193134866"><ele>63.0</ele><time>2026-05-02T08:38:26.998Z</time></trkpt><trkpt lat="44.20505187932762" lon="9.980170754013406"><ele>63.0</ele><time>2026-05-02T08:38:27.998Z</time></trkpt><trkpt lat="44.20494944677164" lon="9.98025359457311"><ele>63.0</ele><time>2026-05-02T08:38:28.998Z</time></trkpt><trkpt lat="44.204852368553325" lon="9.980325957802982"><ele>63.0</ele><time>2026-05-02T08:38:29.998Z</time></trkpt><trkpt lat="44.20474770844325" lon="9.980371113754098"><ele>63.0</ele><time>2026-05-02T08:38:30.998Z</time></trkpt><trkpt lat="44.20464882703155" lon="9.980420377292049"><ele>63.0</ele><time>2026-05-02T08:38:31.998Z</time></trkpt><trkpt lat="44.20454486709132" lon="9.980448640896748"><ele>63.0</ele><time>2026-05-02T08:38:32.998Z</time></trkpt><trkpt lat="44.20444644185852" lon="9.98050254547357"><ele>63.0</ele><time>2026-05-02T08:38:33.998Z</time></trkpt><trkpt lat="44.20434859006602" lon="9.9805453001101"><ele>63.0</ele><time>2026-05-02T08:38:34.998Z</time></trkpt><trkpt lat="44.20425120502349" lon="9.980613099497228"><ele>63.0</ele><time>2026-05-02T08:38:35.998Z</time></trkpt><trkpt lat="44.20415286267407" lon="9.980708178069047"><ele>63.0</ele><time>2026-05-02T08:38:36.998Z</time></trkpt><trkpt lat="44.2040836918109" lon="9.980826921205342"><ele>63.0</ele><time>2026-05-02T08:38:37.998Z</time></trkpt><trkpt lat="44.20400025515757" lon="9.980925157028715"><ele>63.0</ele><time>2026-05-02T08:38:38.999Z</time></trkpt><trkpt lat="44.203904655158425" lon="9.981002537599924"><ele>63.0</ele><time>2026-05-02T08:38:39.999Z</time></trkpt><trkpt lat="44.203818364564704" lon="9.981088244171211"><ele>65.6</ele><time>2026-05-02T08:38:40.999Z</time></trkpt><trkpt lat="44.20372181841232" lon="9.98115502494263"><ele>68.19999999999999</ele><time>2026-05-02T08:38:41.999Z</time></trkpt><trkpt lat="44.20362172417117" lon="9.981197802876245"><ele>70.8</ele><time>2026-05-02T08:38:42.999Z</time></trkpt><trkpt lat="44.203515874237425" lon="9.981222805514081"><ele>73.39999999999999</ele><time>2026-05-02T08:38:43.999Z</time></trkpt><trkpt lat="44.203411613184365" lon="9.981235332724925"><ele>76.0</ele><time>2026-05-02T08:38:44.999Z</time></trkpt><trkpt lat="44.20331733514011" lon="9.98124736665856"><ele>76.0</ele><time>2026-05-02T08:38:45.999Z</time></trkpt><trkpt lat="44.20323382680485" lon="9.981259865410088"><ele>76.0</ele><time>2026-05-02T08:38:46.999Z</time></trkpt><trkpt lat="44.20315178418848" lon="9.9812746678287"><ele>76.0</ele><time>2026-05-02T08:38:47.999Z</time></trkpt><trkpt lat="44.20306983843916" lon="9.981313733599809"><ele>76.0</ele><time>2026-05-02T08:38:48.999Z</time></trkpt><trkpt lat="44.20297877157077" lon="9.981342441632883"><ele>76.0</ele><time>2026-05-02T08:38:49.999Z</time></trkpt><trkpt lat="44.20288018666667" lon="9.98138874565859"><ele>74.2</ele><time>2026-05-02T08:38:50.999Z</time></trkpt><trkpt lat="44.202788926869644" lon="9.981450341266843"><ele>72.39999999999999</ele><time>2026-05-02T08:38:51.999Z</time></trkpt><trkpt lat="44.202703048228955" lon="9.981531792240286"><ele>70.6</ele><time>2026-05-02T08:38:52.999Z</time></trkpt><trkpt lat="44.20261219293065" lon="9.9816031377415"><ele>68.8</ele><time>2026-05-02T08:38:53.999Z</time></trkpt><trkpt lat="44.20252727915105" lon="9.981694196157624"><ele>67.0</ele><time>2026-05-02T08:38:54.999Z</time></trkpt><trkpt lat="44.20244312502201" lon="9.981779780591141"><ele>67.8</ele><time>2026-05-02T08:38:55.999Z</time></trkpt><trkpt lat="44.202359426163184" lon="9.981855450483092"><ele>68.6</ele><time>2026-05-02T08:38:56.999Z</time></trkpt><trkpt lat="44.202263489501355" lon="9.981918763706215"><ele>69.39999999999999</ele><time>2026-05-02T08:38:57.999Z</time></trkpt><trkpt lat="44.20216077468197" lon="9.981979572995042"><ele>70.2</ele><time>2026-05-02T08:38:58.999Z</time></trkpt><trkpt lat="44.202061821980266" lon="9.9820365826057"><ele>71.0</ele><time>2026-05-02T08:38:59.999Z</time></trkpt><trkpt lat="44.20195670288947" lon="9.982099752355214"><ele>71.0</ele><time>2026-05-02T08:39:00.999Z</time></trkpt><trkpt lat="44.20186055701393" lon="9.982192646215202"><ele>71.0</ele><time>2026-05-02T08:39:01.999Z</time></trkpt><trkpt lat="44.20176510389239" lon="9.982291599336726"><ele>71.0</ele><time>2026-05-02T08:39:02.999Z</time></trkpt><trkpt lat="44.20167262223875" lon="9.982401675487647"><ele>71.0</ele><time>2026-05-02T08:39:03.999Z</time></trkpt><trkpt lat="44.20156982748257" lon="9.982503916786712"><ele>69.25</ele><time>2026-05-02T08:39:04.999Z</time></trkpt><trkpt lat="44.2014856027219" lon="9.98263090886595"><ele>67.5</ele><time>2026-05-02T08:39:05.999Z</time></trkpt><trkpt lat="44.20142108005364" lon="9.982769897048867"><ele>65.75</ele><time>2026-05-02T08:39:06.999Z</time></trkpt><trkpt lat="44.2013460811835" lon="9.982892625382062"><ele>64.0</ele><time>2026-05-02T08:39:07.999Z</time></trkpt><trkpt lat="44.20127274438365" lon="9.983016653045238"><ele>64.0</ele><time>2026-05-02T08:39:08.999Z</time></trkpt><trkpt lat="44.201203691260176" lon="9.983149448562735"><ele>64.0</ele><time>2026-05-02T08:39:09.999Z</time></trkpt><trkpt lat="44.2011420187353" lon="9.983292619167287"><ele>64.0</ele><time>2026-05-02T08:39:10.999Z</time></trkpt><trkpt lat="44.2010890041301" lon="9.983443171951153"><ele>64.0</ele><time>2026-05-02T08:39:11.999Z</time></trkpt><trkpt lat="44.20105023509312" lon="9.9836057571522"><ele>64.5</ele><time>2026-05-02T08:39:12.999Z</time></trkpt><trkpt lat="44.201037849398006" lon="9.983778134562671"><ele>65.0</ele><time>2026-05-02T08:39:13.999Z</time></trkpt><trkpt lat="44.2010385332301" lon="9.983938019601846"><ele>65.5</ele><time>2026-05-02T08:39:14.999Z</time></trkpt><trkpt lat="44.2010592746098" lon="9.984105242368107"><ele>66.0</ele><time>2026-05-02T08:39:15.999Z</time></trkpt><trkpt lat="44.201092713432644" lon="9.984269717007205"><ele>66.0</ele><time>2026-05-02T08:39:16.999Z</time></trkpt><trkpt lat="44.201131604874824" lon="9.984432124643869"><ele>66.0</ele><time>2026-05-02T08:39:17.999Z</time></trkpt><trkpt lat="44.20117469607509" lon="9.984595873053589"><ele>66.0</ele><time>2026-05-02T08:39:18.999Z</time></trkpt><trkpt lat="44.201215906871795" lon="9.984753372402613"><ele>66.0</ele><time>2026-05-02T08:39:19.999Z</time></trkpt><trkpt lat="44.20125779614917" lon="9.984907923445643"><ele>65.8</ele><time>2026-05-02T08:39:20.999Z</time></trkpt><trkpt lat="44.201293473691855" lon="9.985050648584078"><ele>65.6</ele><time>2026-05-02T08:39:21.999Z</time></trkpt><trkpt lat="44.20132876554396" lon="9.985194004752348"><ele>65.4</ele><time>2026-05-02T08:39:22.999Z</time></trkpt><trkpt lat="44.201359873869826" lon="9.985341555186984"><ele>65.2</ele><time>2026-05-02T08:39:23.999Z</time></trkpt><trkpt lat="44.2013715753454" lon="9.98549738354176"><ele>65.0</ele><time>2026-05-02T08:39:24.999Z</time></trkpt><trkpt lat="44.20136893692902" lon="9.985662827779878"><ele>65.0</ele><time>2026-05-02T08:39:25.999Z</time></trkpt><trkpt lat="44.201342926517675" lon="9.985839689460283"><ele>65.0</ele><time>2026-05-02T08:39:26.999Z</time></trkpt><trkpt lat="44.20131787852871" lon="9.986019860549487"><ele>65.0</ele><time>2026-05-02T08:39:27.999Z</time></trkpt><trkpt lat="44.2013068841327" lon="9.986176678095278"><ele>65.0</ele><time>2026-05-02T08:39:28.999Z</time></trkpt><trkpt lat="44.20129130185865" lon="9.98632331167381"><ele>65.25</ele><time>2026-05-02T08:39:29.999Z</time></trkpt><trkpt lat="44.201284588149726" lon="9.98647933609694"><ele>65.5</ele><time>2026-05-02T08:39:30.999Z</time></trkpt><trkpt lat="44.201286292163246" lon="9.986645657854021"><ele>65.75</ele><time>2026-05-02T08:39:31.999Z</time></trkpt><trkpt lat="44.201290518261175" lon="9.986812594776364"><ele>66.0</ele><time>2026-05-02T08:39:32.999Z</time></trkpt><trkpt lat="44.201297501800994" lon="9.986979043545212"><ele>66.25</ele><time>2026-05-02T08:39:33.999Z</time></trkpt><trkpt lat="44.2013028708282" lon="9.987132813266719"><ele>66.5</ele><time>2026-05-02T08:39:34.999Z</time></trkpt><trkpt lat="44.20130306314419" lon="9.987287975159603"><ele>66.75</ele><time>2026-05-02T08:39:35.999Z</time></trkpt><trkpt lat="44.20129896888489" lon="9.987447733189738"><ele>67.0</ele><time>2026-05-02T08:39:36.999Z</time></trkpt><trkpt lat="44.20128675202492" lon="9.987610455154822"><ele>67.0</ele><time>2026-05-02T08:39:37.999Z</time></trkpt><trkpt lat="44.201273548564714" lon="9.98777725521506"><ele>67.0</ele><time>2026-05-02T08:39:38.999Z</time></trkpt><trkpt lat="44.201270118447376" lon="9.987945965575662"><ele>67.0</ele><time>2026-05-02T08:39:39.999Z</time></trkpt><trkpt lat="44.20127806480033" lon="9.98811677435948"><ele>67.0</ele><time>2026-05-02T08:39:40.999Z</time></trkpt><trkpt lat="44.20129488205548" lon="9.988291029567412"><ele>66.5</ele><time>2026-05-02T08:39:41.999Z</time></trkpt><trkpt lat="44.20131585516847" lon="9.988465010399146"><ele>66.0</ele><time>2026-05-02T08:39:42.999Z</time></trkpt><trkpt lat="44.20134023322968" lon="9.988638848189124"><ele>65.5</ele><time>2026-05-02T08:39:44Z</time></trkpt><trkpt lat="44.201366150442084" lon="9.98880805263041"><ele>65.0</ele><time>2026-05-02T08:39:45Z</time></trkpt><trkpt lat="44.201394556763695" lon="9.988972297596836"><ele>65.0</ele><time>2026-05-02T08:39:46Z</time></trkpt><trkpt lat="44.20142187930433" lon="9.989128144842494"><ele>65.0</ele><time>2026-05-02T08:39:47Z</time></trkpt><trkpt lat="44.201443641368044" lon="9.98925670722396"><ele>65.0</ele><time>2026-05-02T08:39:48Z</time></trkpt><trkpt lat="44.20146149235008" lon="9.98935592426211"><ele>65.0</ele><time>2026-05-02T08:39:50Z</time></trkpt><trkpt lat="44.201492524014256" lon="9.989492214483617"><ele>65.0</ele><time>2026-05-02T08:39:55Z</time></trkpt><trkpt lat="44.20153768029514" lon="9.989685009210685"><ele>65.0</ele><time>2026-05-02T08:39:57Z</time></trkpt><trkpt lat="44.20156196577751" lon="9.989773453756335"><ele>65.0</ele><time>2026-05-02T08:39:58Z</time></trkpt><trkpt lat="44.201600810810405" lon="9.989879625114394"><ele>65.0</ele><time>2026-05-02T08:39:59Z</time></trkpt><trkpt lat="44.201653267206204" lon="9.989983774855657"><ele>65.0</ele><time>2026-05-02T08:40:00Z</time></trkpt><trkpt lat="44.201731459757404" lon="9.990100041644059"><ele>65.0</ele><time>2026-05-02T08:40:01Z</time></trkpt><trkpt lat="44.201815162821575" lon="9.990205001550802"><ele>65.0</ele><time>2026-05-02T08:40:02Z</time></trkpt><trkpt lat="44.201897158830754" lon="9.990297068503455"><ele>65.0</ele><time>2026-05-02T08:40:03Z</time></trkpt><trkpt lat="44.20197946612327" lon="9.99038896162502"><ele>65.0</ele><time>2026-05-02T08:40:04Z</time></trkpt><trkpt lat="44.202069362921556" lon="9.990486800809196"><ele>65.0</ele><time>2026-05-02T08:40:05Z</time></trkpt><trkpt lat="44.202165308354026" lon="9.990585945457418"><ele>65.0</ele><time>2026-05-02T08:40:06Z</time></trkpt><trkpt lat="44.202256609184644" lon="9.990682980555096"><ele>65.2</ele><time>2026-05-02T08:40:07Z</time></trkpt><trkpt lat="44.20234748806256" lon="9.990774915487554"><ele>65.4</ele><time>2026-05-02T08:40:08Z</time></trkpt><trkpt lat="44.20243656943644" lon="9.990863275978095"><ele>65.6</ele><time>2026-05-02T08:40:09Z</time></trkpt><trkpt lat="44.20250749265408" lon="9.990983565797926"><ele>65.8</ele><time>2026-05-02T08:40:10Z</time></trkpt><trkpt lat="44.20253418408305" lon="9.991111214154312"><ele>66.0</ele><time>2026-05-02T08:40:11Z</time></trkpt><trkpt lat="44.20250980799019" lon="9.991251555928867"><ele>66.0</ele><time>2026-05-02T08:40:12Z</time></trkpt><trkpt lat="44.202505834154124" lon="9.991412647059576"><ele>66.0</ele><time>2026-05-02T08:40:13Z</time></trkpt><trkpt lat="44.20247931887118" lon="9.991584834154699"><ele>66.0</ele><time>2026-05-02T08:40:14Z</time></trkpt><trkpt lat="44.20245629927428" lon="9.991765551256192"><ele>66.0</ele><time>2026-05-02T08:40:15Z</time></trkpt><trkpt lat="44.20243550768734" lon="9.991945881555312"><ele>66.5</ele><time>2026-05-02T08:40:16Z</time></trkpt><trkpt lat="44.20241689142827" lon="9.992114033702297"><ele>67.0</ele><time>2026-05-02T08:40:17Z</time></trkpt><trkpt lat="44.202398770994265" lon="9.992274491709251"><ele>67.5</ele><time>2026-05-02T08:40:18Z</time></trkpt><trkpt lat="44.20237943093379" lon="9.99243199744768"><ele>68.0</ele><time>2026-05-02T08:40:19Z</time></trkpt><trkpt lat="44.2023594938109" lon="9.992591078577991"><ele>68.25</ele><time>2026-05-02T08:40:20Z</time></trkpt><trkpt lat="44.20234056671563" lon="9.992753559448728"><ele>68.5</ele><time>2026-05-02T08:40:21Z</time></trkpt><trkpt lat="44.202321467978166" lon="9.992914735178681"><ele>68.75</ele><time>2026-05-02T08:40:22Z</time></trkpt><trkpt lat="44.20230290591863" lon="9.993078772318157"><ele>69.0</ele><time>2026-05-02T08:40:23Z</time></trkpt><trkpt lat="44.20228830180854" lon="9.993236319550718"><ele>69.4</ele><time>2026-05-02T08:40:24Z</time></trkpt><trkpt lat="44.20227929948465" lon="9.993386772086478"><ele>69.80000000000001</ele><time>2026-05-02T08:40:25Z</time></trkpt><trkpt lat="44.202279477998" lon="9.993535041067183"><ele>70.19999999999999</ele><time>2026-05-02T08:40:26Z</time></trkpt><trkpt lat="44.20229765731068" lon="9.993690060990607"><ele>70.6</ele><time>2026-05-02T08:40:27Z</time></trkpt><trkpt lat="44.202317017695535" lon="9.993811579816526"><ele>71.0</ele><time>2026-05-02T08:40:27.999Z</time></trkpt><trkpt lat="44.202276147154045" lon="9.993946323067242"><ele>71.0</ele><time>2026-05-02T08:40:29.999Z</time></trkpt><trkpt lat="44.20219855861103" lon="9.993950286031431"><ele>71.0</ele><time>2026-05-02T08:40:30.999Z</time></trkpt><trkpt lat="44.20212578632336" lon="9.993972790174647"><ele>71.0</ele><time>2026-05-02T08:40:31.999Z</time></trkpt><trkpt lat="44.20200816578956" lon="9.994016070725177"><ele>71.0</ele><time>2026-05-02T08:40:33.999Z</time></trkpt><trkpt lat="44.2019228192076" lon="9.994047794600142"><ele>71.0</ele><time>2026-05-02T08:40:36Z</time></trkpt><trkpt lat="44.20195533969394" lon="9.994297300459772"><ele>71.39999999999999</ele><time>2026-05-02T08:40:37Z</time></trkpt><trkpt lat="44.201978769087596" lon="9.994416472603742"><ele>71.8</ele><time>2026-05-02T08:40:38Z</time></trkpt><trkpt lat="44.20201209708531" lon="9.994555334295885"><ele>72.19999999999999</ele><time>2026-05-02T08:40:39Z</time></trkpt><trkpt lat="44.20205033421567" lon="9.994711135029485"><ele>72.6</ele><time>2026-05-02T08:40:40Z</time></trkpt><trkpt lat="44.20209282538811" lon="9.994874416570427"><ele>73.0</ele><time>2026-05-02T08:40:41Z</time></trkpt><trkpt lat="44.2021247181482" lon="9.995022585443836"><ele>73.2</ele><time>2026-05-02T08:40:42Z</time></trkpt><trkpt lat="44.202150223280725" lon="9.995167375305627"><ele>73.4</ele><time>2026-05-02T08:40:43Z</time></trkpt><trkpt lat="44.20217703590518" lon="9.995303224109431"><ele>73.60000000000001</ele><time>2026-05-02T08:40:44Z</time></trkpt><trkpt lat="44.20220347565668" lon="9.995455422582936"><ele>73.8</ele><time>2026-05-02T08:40:45Z</time></trkpt><trkpt lat="44.20223468859025" lon="9.995624388385943"><ele>74.0</ele><time>2026-05-02T08:40:46Z</time></trkpt><trkpt lat="44.20226892751325" lon="9.995816098503864"><ele>74.0</ele><time>2026-05-02T08:40:47Z</time></trkpt><trkpt lat="44.20230831359374" lon="9.996040532277739"><ele>74.0</ele><time>2026-05-02T08:40:48Z</time></trkpt><trkpt lat="44.20235038399391" lon="9.99626487181568"><ele>74.0</ele><time>2026-05-02T08:40:49Z</time></trkpt><trkpt lat="44.202373357151856" lon="9.99647736142028"><ele>74.25</ele><time>2026-05-02T08:40:50Z</time></trkpt><trkpt lat="44.202428528882365" lon="9.996669916118684"><ele>74.5</ele><time>2026-05-02T08:40:51Z</time></trkpt><trkpt lat="44.20246330796601" lon="9.996850110035593"><ele>74.75</ele><time>2026-05-02T08:40:52Z</time></trkpt><trkpt lat="44.20247573849264" lon="9.997026375134743"><ele>75.0</ele><time>2026-05-02T08:40:53Z</time></trkpt><trkpt lat="44.20246940737289" lon="9.99715883984235"><ele>75.0</ele><time>2026-05-02T08:40:54Z</time></trkpt><trkpt lat="44.202445931843116" lon="9.99725354736032"><ele>75.0</ele><time>2026-05-02T08:40:55Z</time></trkpt><trkpt lat="44.20240909701647" lon="9.997409042573455"><ele>75.0</ele><time>2026-05-02T08:40:57Z</time></trkpt><trkpt lat="44.20240519328683" lon="9.99751649921376"><ele>75.0</ele><time>2026-05-02T08:41:00Z</time></trkpt><trkpt lat="44.20242906101636" lon="9.997613931939894"><ele>75.0</ele><time>2026-05-02T08:41:01Z</time></trkpt><trkpt lat="44.20244413043769" lon="9.997710400334695"><ele>75.0</ele><time>2026-05-02T08:41:04Z</time></trkpt><trkpt lat="44.20246237559015" lon="9.997800288017423"><ele>75.6</ele><time>2026-05-02T08:41:06Z</time></trkpt><trkpt lat="44.20251214266822" lon="9.997956639781405"><ele>76.2</ele><time>2026-05-02T08:41:08Z</time></trkpt><trkpt lat="44.202531484595426" lon="9.998045824934016"><ele>76.8</ele><time>2026-05-02T08:41:09Z</time></trkpt><trkpt lat="44.202566461136385" lon="9.998218916334707"><ele>77.4</ele><time>2026-05-02T08:41:11Z</time></trkpt><trkpt lat="44.20258459562523" lon="9.998312216553114"><ele>78.0</ele><time>2026-05-02T08:41:12Z</time></trkpt><trkpt lat="44.20262735782608" lon="9.998467890248175"><ele>78.16666666666667</ele><time>2026-05-02T08:41:14Z</time></trkpt><trkpt lat="44.20266628784913" lon="9.998627463347058"><ele>78.33333333333333</ele><time>2026-05-02T08:41:16Z</time></trkpt><trkpt lat="44.202682859360216" lon="9.998715553743473"><ele>78.5</ele><time>2026-05-02T08:41:17Z</time></trkpt><trkpt lat="44.20271832742169" lon="9.998825425441504"><ele>78.66666666666666</ele><time>2026-05-02T08:41:18Z</time></trkpt><trkpt lat="44.2027437695857" lon="9.998922183551295"><ele>78.83333333333333</ele><time>2026-05-02T08:41:19Z</time></trkpt><trkpt lat="44.20277361815296" lon="9.999012330596644"><ele>79.0</ele><time>2026-05-02T08:41:20Z</time></trkpt><trkpt lat="44.20280726325041" lon="9.999116237391663"><ele>78.83333333333333</ele><time>2026-05-02T08:41:21Z</time></trkpt><trkpt lat="44.2028452223931" lon="9.999222359548318"><ele>78.66666666666666</ele><time>2026-05-02T08:41:22Z</time></trkpt><trkpt lat="44.202872280145385" lon="9.999359576704038"><ele>78.5</ele><time>2026-05-02T08:41:23Z</time></trkpt><trkpt lat="44.20292007886981" lon="9.999461863747252"><ele>78.33333333333333</ele><time>2026-05-02T08:41:24Z</time></trkpt><trkpt lat="44.202960051627535" lon="9.999577897328814"><ele>78.16666666666667</ele><time>2026-05-02T08:41:25Z</time></trkpt><trkpt lat="44.202982444376374" lon="9.999685994550568"><ele>78.0</ele><time>2026-05-02T08:41:26Z</time></trkpt><trkpt lat="44.2030191707441" lon="9.999789274969514"><ele>78.0</ele><time>2026-05-02T08:41:27Z</time></trkpt><trkpt lat="44.203051549515905" lon="9.999880822804027"><ele>78.0</ele><time>2026-05-02T08:41:28Z</time></trkpt><trkpt lat="44.203081192610256" lon="9.999966168338089"><ele>78.0</ele><time>2026-05-02T08:41:29Z</time></trkpt><trkpt lat="44.20311475663098" lon="10.000070817339463"><ele>78.0</ele><time>2026-05-02T08:41:30Z</time></trkpt><trkpt lat="44.203140183569616" lon="10.000156394713667"><ele>78.0</ele><time>2026-05-02T08:41:31Z</time></trkpt><trkpt lat="44.203157709988474" lon="10.00030034052947"><ele>78.0</ele><time>2026-05-02T08:41:33Z</time></trkpt><trkpt lat="44.20319292372239" lon="10.000435524483104"><ele>78.0</ele><time>2026-05-02T08:41:35Z</time></trkpt><trkpt lat="44.20321777399213" lon="10.000566676088148"><ele>78.0</ele><time>2026-05-02T08:41:37Z</time></trkpt><trkpt lat="44.203147175708025" lon="10.000659630769865"><ele>78.0</ele><time>2026-05-02T08:41:38Z</time></trkpt><trkpt lat="44.20309214388023" lon="10.000804511450092"><ele>78.0</ele><time>2026-05-02T08:41:40Z</time></trkpt><trkpt lat="44.20305986089017" lon="10.000958108216631"><ele>78.0</ele><time>2026-05-02T08:41:42Z</time></trkpt><trkpt lat="44.203044550354115" lon="10.001062631642755"><ele>78.8</ele><time>2026-05-02T08:41:43Z</time></trkpt><trkpt lat="44.203026500208495" lon="10.001186392664058"><ele>79.6</ele><time>2026-05-02T08:41:44Z</time></trkpt><trkpt lat="44.202997543670214" lon="10.001318831843564"><ele>80.39999999999999</ele><time>2026-05-02T08:41:45Z</time></trkpt><trkpt lat="44.202971309987475" lon="10.00146391440052"><ele>81.19999999999999</ele><time>2026-05-02T08:41:46Z</time></trkpt><trkpt lat="44.202939997069635" lon="10.001627963362537"><ele>82.0</ele><time>2026-05-02T08:41:47Z</time></trkpt><trkpt lat="44.20291474708685" lon="10.001779841846739"><ele>82.25</ele><time>2026-05-02T08:41:48Z</time></trkpt><trkpt lat="44.20288269619835" lon="10.001944781361324"><ele>82.5</ele><time>2026-05-02T08:41:49Z</time></trkpt><trkpt lat="44.202853361991" lon="10.002111295227914"><ele>82.75</ele><time>2026-05-02T08:41:50Z</time></trkpt><trkpt lat="44.202829536839005" lon="10.002283407040187"><ele>83.0</ele><time>2026-05-02T08:41:51Z</time></trkpt><trkpt lat="44.202806176890476" lon="10.002453303121671"><ele>82.75</ele><time>2026-05-02T08:41:52Z</time></trkpt><trkpt lat="44.20277572225787" lon="10.002623595170165"><ele>82.5</ele><time>2026-05-02T08:41:53Z</time></trkpt><trkpt lat="44.2027701152115" lon="10.002804777532237"><ele>82.25</ele><time>2026-05-02T08:41:54Z</time></trkpt><trkpt lat="44.20276594167068" lon="10.002991633430158"><ele>82.0</ele><time>2026-05-02T08:41:55Z</time></trkpt><trkpt lat="44.20276956980192" lon="10.003168228504638"><ele>82.75</ele><time>2026-05-02T08:41:56Z</time></trkpt><trkpt lat="44.2027846096246" lon="10.00334837480813"><ele>83.5</ele><time>2026-05-02T08:41:57Z</time></trkpt><trkpt lat="44.202810273059534" lon="10.003542689417968"><ele>84.25</ele><time>2026-05-02T08:41:58Z</time></trkpt><trkpt lat="44.20283813289998" lon="10.00373178931844"><ele>85.0</ele><time>2026-05-02T08:41:59Z</time></trkpt><trkpt lat="44.20287104182191" lon="10.003912833298084"><ele>85.0</ele><time>2026-05-02T08:42:00Z</time></trkpt><trkpt lat="44.20290077555185" lon="10.004090976516013"><ele>85.0</ele><time>2026-05-02T08:42:01Z</time></trkpt><trkpt lat="44.20292897380157" lon="10.004261778697966"><ele>85.0</ele><time>2026-05-02T08:42:02Z</time></trkpt><trkpt lat="44.202960728906454" lon="10.004432043771804"><ele>85.0</ele><time>2026-05-02T08:42:03Z</time></trkpt><trkpt lat="44.20298812540474" lon="10.004596428167146"><ele>85.0</ele><time>2026-05-02T08:42:04Z</time></trkpt><trkpt lat="44.20301939803299" lon="10.004767902792313"><ele>85.0</ele><time>2026-05-02T08:42:05Z</time></trkpt><trkpt lat="44.20304799024288" lon="10.004934704131948"><ele>85.0</ele><time>2026-05-02T08:42:06Z</time></trkpt><trkpt lat="44.20307680184522" lon="10.005100461856246"><ele>85.0</ele><time>2026-05-02T08:42:07Z</time></trkpt><trkpt lat="44.203102011250756" lon="10.005256457717758"><ele>85.0</ele><time>2026-05-02T08:42:08Z</time></trkpt><trkpt lat="44.20313032260126" lon="10.005417432209732"><ele>85.0</ele><time>2026-05-02T08:42:09Z</time></trkpt><trkpt lat="44.20315894668274" lon="10.005582967635434"><ele>85.0</ele><time>2026-05-02T08:42:10Z</time></trkpt><trkpt lat="44.20318698871883" lon="10.0057462656614"><ele>85.0</ele><time>2026-05-02T08:42:11Z</time></trkpt><trkpt lat="44.20321652924392" lon="10.005909379763983"><ele>83.5</ele><time>2026-05-02T08:42:12Z</time></trkpt><trkpt lat="44.20324588794228" lon="10.006072987574173"><ele>82.0</ele><time>2026-05-02T08:42:13Z</time></trkpt><trkpt lat="44.203275478842585" lon="10.006230088736125"><ele>80.5</ele><time>2026-05-02T08:42:14Z</time></trkpt><trkpt lat="44.20330305166093" lon="10.006374826164658"><ele>79.0</ele><time>2026-05-02T08:42:15Z</time></trkpt><trkpt lat="44.20332772448416" lon="10.006535758316232"><ele>79.25</ele><time>2026-05-02T08:42:16Z</time></trkpt><trkpt lat="44.20335747988416" lon="10.006694269962916"><ele>79.5</ele><time>2026-05-02T08:42:17Z</time></trkpt><trkpt lat="44.2033816210344" lon="10.0068587434131"><ele>79.75</ele><time>2026-05-02T08:42:18Z</time></trkpt><trkpt lat="44.20341646212259" lon="10.007009578833808"><ele>80.0</ele><time>2026-05-02T08:42:19.001Z</time></trkpt><trkpt lat="44.203449006242806" lon="10.007170961533623"><ele>80.0</ele><time>2026-05-02T08:42:20.001Z</time></trkpt><trkpt lat="44.20347595883863" lon="10.007328398148973"><ele>80.0</ele><time>2026-05-02T08:42:21.001Z</time></trkpt><trkpt lat="44.2035022617278" lon="10.007491945617078"><ele>80.0</ele><time>2026-05-02T08:42:22.001Z</time></trkpt><trkpt lat="44.20353258938062" lon="10.007654039235614"><ele>80.0</ele><time>2026-05-02T08:42:23.001Z</time></trkpt><trkpt lat="44.20356068774805" lon="10.007823763690041"><ele>80.5</ele><time>2026-05-02T08:42:24.001Z</time></trkpt><trkpt lat="44.203590671175064" lon="10.007988227643386"><ele>81.0</ele><time>2026-05-02T08:42:25.001Z</time></trkpt><trkpt lat="44.203616772193655" lon="10.008147546635662"><ele>81.5</ele><time>2026-05-02T08:42:26.001Z</time></trkpt><trkpt lat="44.20364722724231" lon="10.008299831335163"><ele>82.0</ele><time>2026-05-02T08:42:27.001Z</time></trkpt><trkpt lat="44.20367364407485" lon="10.008440190632113"><ele>82.33333333333333</ele><time>2026-05-02T08:42:28.001Z</time></trkpt><trkpt lat="44.203695880910054" lon="10.00857063557855"><ele>82.66666666666666</ele><time>2026-05-02T08:42:29.001Z</time></trkpt><trkpt lat="44.203717129859" lon="10.00868243066763"><ele>83.0</ele><time>2026-05-02T08:42:30.001Z</time></trkpt><trkpt lat="44.203733154433145" lon="10.008784133032176"><ele>83.33333333333333</ele><time>2026-05-02T08:42:31.001Z</time></trkpt><trkpt lat="44.20375000970365" lon="10.008900705836322"><ele>83.66666666666667</ele><time>2026-05-02T08:42:32.001Z</time></trkpt><trkpt lat="44.203771445801515" lon="10.009010516505814"><ele>84.0</ele><time>2026-05-02T08:42:33.001Z</time></trkpt><trkpt lat="44.20379396927451" lon="10.009110754083443"><ele>83.80000000000001</ele><time>2026-05-02T08:42:34.001Z</time></trkpt><trkpt lat="44.203821851685284" lon="10.009262797008459"><ele>83.60000000000001</ele><time>2026-05-02T08:42:36.001Z</time></trkpt><trkpt lat="44.20384031311443" lon="10.009371471702794"><ele>83.4</ele><time>2026-05-02T08:42:38.001Z</time></trkpt><trkpt lat="44.20386024823664" lon="10.00945548152848"><ele>83.2</ele><time>2026-05-02T08:42:40.001Z</time></trkpt><trkpt lat="44.20388330301035" lon="10.009570079449244"><ele>83.0</ele><time>2026-05-02T08:42:42.001Z</time></trkpt><trkpt lat="44.20391487753762" lon="10.009724085227083"><ele>83.0</ele><time>2026-05-02T08:42:44.001Z</time></trkpt><trkpt lat="44.203930651898624" lon="10.009832998338348"><ele>83.0</ele><time>2026-05-02T08:42:45.001Z</time></trkpt><trkpt lat="44.20394578535735" lon="10.00995270455042"><ele>83.0</ele><time>2026-05-02T08:42:46.001Z</time></trkpt><trkpt lat="44.203961014445724" lon="10.010088094038935"><ele>83.0</ele><time>2026-05-02T08:42:47.001Z</time></trkpt><trkpt lat="44.20396877819956" lon="10.010231341594594"><ele>83.0</ele><time>2026-05-02T08:42:48.001Z</time></trkpt><trkpt lat="44.20398038506738" lon="10.010371002347386"><ele>82.75</ele><time>2026-05-02T08:42:49.001Z</time></trkpt><trkpt lat="44.203989263559436" lon="10.010522311685829"><ele>82.5</ele><time>2026-05-02T08:42:50.001Z</time></trkpt><trkpt lat="44.20399389787629" lon="10.010684664853683"><ele>82.25</ele><time>2026-05-02T08:42:51.001Z</time></trkpt><trkpt lat="44.20399220122132" lon="10.010844396204607"><ele>82.0</ele><time>2026-05-02T08:42:52.001Z</time></trkpt><trkpt lat="44.203986072411176" lon="10.010999810774182"><ele>82.39999999999999</ele><time>2026-05-02T08:42:53.001Z</time></trkpt><trkpt lat="44.2039751252168" lon="10.01114544611978"><ele>82.8</ele><time>2026-05-02T08:42:54.001Z</time></trkpt><trkpt lat="44.2039673878492" lon="10.011288436937843"><ele>83.2</ele><time>2026-05-02T08:42:55.001Z</time></trkpt><trkpt lat="44.2039523002832" lon="10.011420435956309"><ele>83.6</ele><time>2026-05-02T08:42:56.001Z</time></trkpt><trkpt lat="44.20393684386984" lon="10.011550840909239"><ele>84.0</ele><time>2026-05-02T08:42:57.001Z</time></trkpt><trkpt lat="44.203921455372345" lon="10.01169339453876"><ele>84.2</ele><time>2026-05-02T08:42:58.001Z</time></trkpt><trkpt lat="44.20390682188925" lon="10.011827106744331"><ele>84.4</ele><time>2026-05-02T08:42:59.001Z</time></trkpt><trkpt lat="44.20389465576427" lon="10.01197366678122"><ele>84.6</ele><time>2026-05-02T08:43:00.001Z</time></trkpt><trkpt lat="44.2038802126881" lon="10.012107495317034"><ele>84.8</ele><time>2026-05-02T08:43:01.001Z</time></trkpt><trkpt lat="44.20386687186975" lon="10.012243856237612"><ele>85.0</ele><time>2026-05-02T08:43:02.001Z</time></trkpt><trkpt lat="44.20385321387271" lon="10.012374716111838"><ele>84.8</ele><time>2026-05-02T08:43:03.001Z</time></trkpt><trkpt lat="44.20383934439807" lon="10.012500708421076"><ele>84.6</ele><time>2026-05-02T08:43:04.001Z</time></trkpt><trkpt lat="44.20382704957523" lon="10.012635434050706"><ele>84.4</ele><time>2026-05-02T08:43:05.001Z</time></trkpt><trkpt lat="44.20381167536371" lon="10.012777213826652"><ele>84.2</ele><time>2026-05-02T08:43:06.001Z</time></trkpt><trkpt lat="44.20379748649281" lon="10.01293044483625"><ele>84.0</ele><time>2026-05-02T08:43:07.001Z</time></trkpt><trkpt lat="44.2037834207657" lon="10.013075521529206"><ele>84.0</ele><time>2026-05-02T08:43:08.001Z</time></trkpt><trkpt lat="44.203768458025735" lon="10.013228215406288"><ele>84.0</ele><time>2026-05-02T08:43:09.001Z</time></trkpt><trkpt lat="44.203751441386245" lon="10.01338655315445"><ele>84.0</ele><time>2026-05-02T08:43:10.001Z</time></trkpt><trkpt lat="44.20373537595868" lon="10.01355819247135"><ele>84.0</ele><time>2026-05-02T08:43:11.001Z</time></trkpt><trkpt lat="44.20372064654582" lon="10.013747568112882"><ele>84.0</ele><time>2026-05-02T08:43:12.001Z</time></trkpt><trkpt lat="44.20370212997453" lon="10.013939633266556"><ele>84.0</ele><time>2026-05-02T08:43:13.001Z</time></trkpt><trkpt lat="44.20367950441166" lon="10.01414798774347"><ele>84.0</ele><time>2026-05-02T08:43:14.001Z</time></trkpt><trkpt lat="44.20366071268379" lon="10.014357276927106"><ele>84.0</ele><time>2026-05-02T08:43:15.001Z</time></trkpt><trkpt lat="44.203639606612384" lon="10.0145510149135"><ele>84.25</ele><time>2026-05-02T08:43:16.001Z</time></trkpt><trkpt lat="44.203618631159934" lon="10.014750349776765"><ele>84.5</ele><time>2026-05-02T08:43:17.001Z</time></trkpt><trkpt lat="44.20360208764036" lon="10.014955724881954"><ele>84.75</ele><time>2026-05-02T08:43:18.001Z</time></trkpt><trkpt lat="44.203582637244224" lon="10.01514889141662"><ele>85.0</ele><time>2026-05-02T08:43:19.001Z</time></trkpt><trkpt lat="44.203564527530425" lon="10.015341863577538"><ele>85.2</ele><time>2026-05-02T08:43:20.001Z</time></trkpt><trkpt lat="44.20354572147798" lon="10.015507417120554"><ele>85.4</ele><time>2026-05-02T08:43:21.001Z</time></trkpt><trkpt lat="44.203527069719094" lon="10.015663979286645"><ele>85.6</ele><time>2026-05-02T08:43:22.001Z</time></trkpt><trkpt lat="44.20351094360357" lon="10.015810721935853"><ele>85.8</ele><time>2026-05-02T08:43:23.001Z</time></trkpt><trkpt lat="44.203498055580255" lon="10.01594465386331"><ele>86.0</ele><time>2026-05-02T08:43:24.001Z</time></trkpt><trkpt lat="44.20348622444454" lon="10.016064458259804"><ele>86.16666666666667</ele><time>2026-05-02T08:43:25.001Z</time></trkpt><trkpt lat="44.20346837287083" lon="10.01617839039532"><ele>86.33333333333334</ele><time>2026-05-02T08:43:26.001Z</time></trkpt><trkpt lat="44.20344173011399" lon="10.016273819541741"><ele>86.5</ele><time>2026-05-02T08:43:27.001Z</time></trkpt><trkpt lat="44.20338567986938" lon="10.016379992927817"><ele>86.66666666666667</ele><time>2026-05-02T08:43:29.001Z</time></trkpt><trkpt lat="44.203298008550114" lon="10.016461280121373"><ele>86.83333333333333</ele><time>2026-05-02T08:43:31.001Z</time></trkpt><trkpt lat="44.203221835020095" lon="10.016500110855961"><ele>87.0</ele><time>2026-05-02T08:43:32.001Z</time></trkpt><trkpt lat="44.20313080613422" lon="10.016540130312427"><ele>87.39999999999999</ele><time>2026-05-02T08:43:33.001Z</time></trkpt><trkpt lat="44.20303219369763" lon="10.016586927267776"><ele>87.8</ele><time>2026-05-02T08:43:34.001Z</time></trkpt><trkpt lat="44.202939932244405" lon="10.016622835004743"><ele>88.2</ele><time>2026-05-02T08:43:35.001Z</time></trkpt><trkpt lat="44.202842385762274" lon="10.016663947638014"><ele>88.6</ele><time>2026-05-02T08:43:36.001Z</time></trkpt><trkpt lat="44.202738287937045" lon="10.016709729634032"><ele>89.0</ele><time>2026-05-02T08:43:37.001Z</time></trkpt><trkpt lat="44.20262610780566" lon="10.016752577037767"><ele>89.0</ele><time>2026-05-02T08:43:38.001Z</time></trkpt><trkpt lat="44.202512861690245" lon="10.016802801031188"><ele>89.0</ele><time>2026-05-02T08:43:39.001Z</time></trkpt><trkpt lat="44.202399846432535" lon="10.016851435996545"><ele>89.0</ele><time>2026-05-02T08:43:40.001Z</time></trkpt><trkpt lat="44.20228572887251" lon="10.016894431787431"><ele>89.0</ele><time>2026-05-02T08:43:41.001Z</time></trkpt><trkpt lat="44.20216954884173" lon="10.016941421473552"><ele>90.5</ele><time>2026-05-02T08:43:42.001Z</time></trkpt><trkpt lat="44.20205502158109" lon="10.016988545608273"><ele>92.0</ele><time>2026-05-02T08:43:43.001Z</time></trkpt><trkpt lat="44.20194462125425" lon="10.017041227316856"><ele>93.5</ele><time>2026-05-02T08:43:44.001Z</time></trkpt><trkpt lat="44.20184126340467" lon="10.017087149708932"><ele>95.0</ele><time>2026-05-02T08:43:45.001Z</time></trkpt><trkpt lat="44.20174183136636" lon="10.017134408655131"><ele>95.0</ele><time>2026-05-02T08:43:46.001Z</time></trkpt><trkpt lat="44.20164506926287" lon="10.017170505964218"><ele>95.0</ele><time>2026-05-02T08:43:47.001Z</time></trkpt><trkpt lat="44.20154939627135" lon="10.01721109222454"><ele>95.0</ele><time>2026-05-02T08:43:48.001Z</time></trkpt><trkpt lat="44.20146389529789" lon="10.01727148478149"><ele>95.0</ele><time>2026-05-02T08:43:49.001Z</time></trkpt><trkpt lat="44.20138121842316" lon="10.017348326283372"><ele>95.0</ele><time>2026-05-02T08:43:50.001Z</time></trkpt><trkpt lat="44.20134500268243" lon="10.01750287606907"><ele>95.0</ele><time>2026-05-02T08:43:51.001Z</time></trkpt><trkpt lat="44.20132604248961" lon="10.017668628792954"><ele>95.0</ele><time>2026-05-02T08:43:52.001Z</time></trkpt><trkpt lat="44.20133468031344" lon="10.017851037881886"><ele>95.0</ele><time>2026-05-02T08:43:53.001Z</time></trkpt><trkpt lat="44.201348815241346" lon="10.018038804094926"><ele>95.0</ele><time>2026-05-02T08:43:54.001Z</time></trkpt><trkpt lat="44.20135761637175" lon="10.018234323040128"><ele>96.5</ele><time>2026-05-02T08:43:55.001Z</time></trkpt><trkpt lat="44.20136339857114" lon="10.018437551085613"><ele>98.0</ele><time>2026-05-02T08:43:56.001Z</time></trkpt><trkpt lat="44.20137134170349" lon="10.01864324112098"><ele>99.5</ele><time>2026-05-02T08:43:57.001Z</time></trkpt><trkpt lat="44.201377186239554" lon="10.018837081674633"><ele>101.0</ele><time>2026-05-02T08:43:58.001Z</time></trkpt><trkpt lat="44.20138309494138" lon="10.019022903325109"><ele>102.5</ele><time>2026-05-02T08:43:59.001Z</time></trkpt><trkpt lat="44.20139375926644" lon="10.019210234061163"><ele>104.0</ele><time>2026-05-02T08:44:00.001Z</time></trkpt><trkpt lat="44.20140188508842" lon="10.019396835730698"><ele>105.5</ele><time>2026-05-02T08:44:01.001Z</time></trkpt><trkpt lat="44.20140837615788" lon="10.019590019003996"><ele>107.0</ele><time>2026-05-02T08:44:02.001Z</time></trkpt><trkpt lat="44.20141568981933" lon="10.019779085790335"><ele>107.0</ele><time>2026-05-02T08:44:03.001Z</time></trkpt><trkpt lat="44.201420884948206" lon="10.019972366268297"><ele>107.0</ele><time>2026-05-02T08:44:04.001Z</time></trkpt><trkpt lat="44.20143029120066" lon="10.020166398902656"><ele>107.0</ele><time>2026-05-02T08:44:05.001Z</time></trkpt><trkpt lat="44.20144166979265" lon="10.020351156226337"><ele>107.0</ele><time>2026-05-02T08:44:06.001Z</time></trkpt><trkpt lat="44.20144692172307" lon="10.020529960032569"><ele>106.25</ele><time>2026-05-02T08:44:07.001Z</time></trkpt><trkpt lat="44.20145136638921" lon="10.020709949800379"><ele>105.5</ele><time>2026-05-02T08:44:08.001Z</time></trkpt><trkpt lat="44.201459724101085" lon="10.020891361710971"><ele>104.75</ele><time>2026-05-02T08:44:09.001Z</time></trkpt><trkpt lat="44.201468761652244" lon="10.02107712563879"><ele>104.0</ele><time>2026-05-02T08:44:10.001Z</time></trkpt><trkpt lat="44.201476949768676" lon="10.021267422083092"><ele>106.0</ele><time>2026-05-02T08:44:11.001Z</time></trkpt><trkpt lat="44.20148400581671" lon="10.021459667620677"><ele>108.0</ele><time>2026-05-02T08:44:12.001Z</time></trkpt><trkpt lat="44.201494147632594" lon="10.021648923236581"><ele>110.0</ele><time>2026-05-02T08:44:13.001Z</time></trkpt><trkpt lat="44.201501920765075" lon="10.021835778654184"><ele>112.0</ele><time>2026-05-02T08:44:14.001Z</time></trkpt><trkpt lat="44.20151098342931" lon="10.022026036719916"><ele>108.0</ele><time>2026-05-02T08:44:15.001Z</time></trkpt><trkpt lat="44.201520747531056" lon="10.022216526373898"><ele>104.0</ele><time>2026-05-02T08:44:16.001Z</time></trkpt><trkpt lat="44.201530385305475" lon="10.022403793616494"><ele>100.0</ele><time>2026-05-02T08:44:17.001Z</time></trkpt><trkpt lat="44.20154097552889" lon="10.022596907611195"><ele>96.0</ele><time>2026-05-02T08:44:18.001Z</time></trkpt><trkpt lat="44.201556875876285" lon="10.022786299147652"><ele>96.0</ele><time>2026-05-02T08:44:19.001Z</time></trkpt><trkpt lat="44.20159138302838" lon="10.02298141900148"><ele>96.0</ele><time>2026-05-02T08:44:20.001Z</time></trkpt><trkpt lat="44.201635430642" lon="10.023176131251548"><ele>96.0</ele><time>2026-05-02T08:44:21.001Z</time></trkpt><trkpt lat="44.201676943615595" lon="10.023374812511227"><ele>96.0</ele><time>2026-05-02T08:44:22.001Z</time></trkpt><trkpt lat="44.20171559248639" lon="10.023573139179515"><ele>96.75</ele><time>2026-05-02T08:44:23.001Z</time></trkpt><trkpt lat="44.20175290406259" lon="10.023765186615597"><ele>97.5</ele><time>2026-05-02T08:44:24.001Z</time></trkpt><trkpt lat="44.201788724071484" lon="10.02394529912268"><ele>98.25</ele><time>2026-05-02T08:44:25.001Z</time></trkpt><trkpt lat="44.20182707365194" lon="10.02412628883229"><ele>99.0</ele><time>2026-05-02T08:44:26.001Z</time></trkpt><trkpt lat="44.201860512684625" lon="10.024303506446044"><ele>100.25</ele><time>2026-05-02T08:44:27.001Z</time></trkpt><trkpt lat="44.201893199666465" lon="10.02447837983614"><ele>101.5</ele><time>2026-05-02T08:44:28.001Z</time></trkpt><trkpt lat="44.20192958533626" lon="10.024656535133323"><ele>102.75</ele><time>2026-05-02T08:44:29.001Z</time></trkpt><trkpt lat="44.20196518895419" lon="10.02483459982372"><ele>104.0</ele><time>2026-05-02T08:44:30.001Z</time></trkpt><trkpt lat="44.20200252229845" lon="10.025018637682553"><ele>105.0</ele><time>2026-05-02T08:44:31.001Z</time></trkpt><trkpt lat="44.20203920158642" lon="10.02520698700076"><ele>106.0</ele><time>2026-05-02T08:44:32.001Z</time></trkpt><trkpt lat="44.202077937221524" lon="10.025398606062591"><ele>107.0</ele><time>2026-05-02T08:44:33.001Z</time></trkpt><trkpt lat="44.20212164667318" lon="10.025598964174623"><ele>108.0</ele><time>2026-05-02T08:44:34.001Z</time></trkpt><trkpt lat="44.20215812417902" lon="10.02579142953903"><ele>109.0</ele><time>2026-05-02T08:44:35.001Z</time></trkpt><trkpt lat="44.20219479276022" lon="10.025975331176209"><ele>110.0</ele><time>2026-05-02T08:44:36.001Z</time></trkpt><trkpt lat="44.202231853807525" lon="10.026176085278351"><ele>111.0</ele><time>2026-05-02T08:44:37.001Z</time></trkpt><trkpt lat="44.20225510682768" lon="10.026362129279843"><ele>112.0</ele><time>2026-05-02T08:44:38.001Z</time></trkpt><trkpt lat="44.20225525418173" lon="10.026561656232277"><ele>112.33333333333334</ele><time>2026-05-02T08:44:39.001Z</time></trkpt><trkpt lat="44.20223774849681" lon="10.026770603603062"><ele>112.66666666666666</ele><time>2026-05-02T08:44:40.001Z</time></trkpt><trkpt lat="44.20220285904008" lon="10.026982625053169"><ele>113.0</ele><time>2026-05-02T08:44:41.001Z</time></trkpt><trkpt lat="44.20214644892134" lon="10.027187264042986"><ele>113.0</ele><time>2026-05-02T08:44:42.001Z</time></trkpt><trkpt lat="44.20209834762255" lon="10.027365497098891"><ele>113.0</ele><time>2026-05-02T08:44:43.001Z</time></trkpt><trkpt lat="44.20205068284659" lon="10.027542711916118"><ele>113.0</ele><time>2026-05-02T08:44:44.001Z</time></trkpt><trkpt lat="44.202012230021744" lon="10.027705017258425"><ele>113.0</ele><time>2026-05-02T08:44:45.001Z</time></trkpt><trkpt lat="44.201992137202005" lon="10.027874902781122"><ele>110.5</ele><time>2026-05-02T08:44:46.001Z</time></trkpt><trkpt lat="44.202006802122135" lon="10.028057636332427"><ele>108.0</ele><time>2026-05-02T08:44:47.001Z</time></trkpt><trkpt lat="44.20205618853692" lon="10.02822618803553"><ele>105.5</ele><time>2026-05-02T08:44:48.001Z</time></trkpt><trkpt lat="44.20213729591788" lon="10.028364016351805"><ele>103.0</ele><time>2026-05-02T08:44:49.001Z</time></trkpt><trkpt lat="44.202247535953596" lon="10.028481612011698"><ele>99.25</ele><time>2026-05-02T08:44:50.001Z</time></trkpt><trkpt lat="44.202369696372784" lon="10.028577129465198"><ele>95.5</ele><time>2026-05-02T08:44:51.001Z</time></trkpt><trkpt lat="44.20246993200359" lon="10.028662064125026"><ele>91.75</ele><time>2026-05-02T08:44:52.001Z</time></trkpt><trkpt lat="44.20257161050392" lon="10.028749948016719"><ele>88.0</ele><time>2026-05-02T08:44:53.001Z</time></trkpt><trkpt lat="44.20266904181432" lon="10.028835824907812"><ele>88.0</ele><time>2026-05-02T08:44:54.001Z</time></trkpt><trkpt lat="44.20276797590199" lon="10.028918712054715"><ele>88.0</ele><time>2026-05-02T08:44:55.001Z</time></trkpt><trkpt lat="44.20286642388907" lon="10.028997683898803"><ele>88.0</ele><time>2026-05-02T08:44:56.001Z</time></trkpt><trkpt lat="44.202955420227156" lon="10.029074004683718"><ele>88.0</ele><time>2026-05-02T08:44:57.001Z</time></trkpt><trkpt lat="44.20303115998711" lon="10.0291414263483"><ele>88.0</ele><time>2026-05-02T08:44:58.001Z</time></trkpt><trkpt lat="44.20310732621872" lon="10.029211908733455"><ele>89.0</ele><time>2026-05-02T08:44:59.001Z</time></trkpt><trkpt lat="44.20317517323337" lon="10.029295248129834"><ele>90.0</ele><time>2026-05-02T08:45:00.001Z</time></trkpt><trkpt lat="44.203227153773916" lon="10.02940447572956"><ele>91.0</ele><time>2026-05-02T08:45:01.001Z</time></trkpt><trkpt lat="44.20325441977062" lon="10.02952919766876"><ele>92.0</ele><time>2026-05-02T08:45:02.001Z</time></trkpt><trkpt lat="44.20326252710817" lon="10.029670590717709"><ele>93.0</ele><time>2026-05-02T08:45:03.001Z</time></trkpt><trkpt lat="44.20324548093595" lon="10.029820044585607"><ele>93.0</ele><time>2026-05-02T08:45:04.001Z</time></trkpt><trkpt lat="44.20320506449481" lon="10.029973558956607"><ele>93.0</ele><time>2026-05-02T08:45:05.001Z</time></trkpt><trkpt lat="44.203156751706324" lon="10.03013210755789"><ele>93.0</ele><time>2026-05-02T08:45:06.001Z</time></trkpt><trkpt lat="44.203101408748445" lon="10.030297415775868"><ele>93.0</ele><time>2026-05-02T08:45:07.001Z</time></trkpt><trkpt lat="44.20304312906128" lon="10.03047157545712"><ele>92.75</ele><time>2026-05-02T08:45:08.001Z</time></trkpt><trkpt lat="44.20298473656807" lon="10.030648951212038"><ele>92.5</ele><time>2026-05-02T08:45:09.001Z</time></trkpt><trkpt lat="44.202932235618924" lon="10.030809585272625"><ele>92.25</ele><time>2026-05-02T08:45:10.001Z</time></trkpt><trkpt lat="44.20287531069117" lon="10.03097493218965"><ele>92.0</ele><time>2026-05-02T08:45:11.001Z</time></trkpt><trkpt lat="44.20281822674304" lon="10.031139354796899"><ele>92.5</ele><time>2026-05-02T08:45:12.001Z</time></trkpt><trkpt lat="44.2027627551701" lon="10.031306432107721"><ele>93.0</ele><time>2026-05-02T08:45:13.001Z</time></trkpt><trkpt lat="44.202705946306125" lon="10.031475019908711"><ele>93.5</ele><time>2026-05-02T08:45:14.001Z</time></trkpt><trkpt lat="44.202649325515125" lon="10.031640551206731"><ele>94.0</ele><time>2026-05-02T08:45:15.001Z</time></trkpt><trkpt lat="44.20259377294295" lon="10.031806183908031"><ele>94.5</ele><time>2026-05-02T08:45:16.001Z</time></trkpt><trkpt lat="44.20253949238953" lon="10.0319732521324"><ele>95.0</ele><time>2026-05-02T08:45:17.001Z</time></trkpt><trkpt lat="44.202482889490824" lon="10.032144699710777"><ele>95.5</ele><time>2026-05-02T08:45:18.001Z</time></trkpt><trkpt lat="44.20242714626324" lon="10.03231266950841"><ele>96.0</ele><time>2026-05-02T08:45:19.001Z</time></trkpt><trkpt lat="44.202370196274444" lon="10.032479502986408"><ele>95.5</ele><time>2026-05-02T08:45:20.001Z</time></trkpt><trkpt lat="44.20231284475375" lon="10.032646681750595"><ele>95.0</ele><time>2026-05-02T08:45:21.001Z</time></trkpt><trkpt lat="44.20225615190136" lon="10.032816014672095"><ele>94.5</ele><time>2026-05-02T08:45:22.001Z</time></trkpt><trkpt lat="44.20220143181156" lon="10.032981797691138"><ele>94.0</ele><time>2026-05-02T08:45:23.001Z</time></trkpt><trkpt lat="44.20214440421267" lon="10.033148863423149"><ele>94.5</ele><time>2026-05-02T08:45:24.001Z</time></trkpt><trkpt lat="44.20208820169732" lon="10.033314659155025"><ele>95.0</ele><time>2026-05-02T08:45:25.001Z</time></trkpt><trkpt lat="44.20203285720859" lon="10.033484375778023"><ele>95.5</ele><time>2026-05-02T08:45:26.001Z</time></trkpt><trkpt lat="44.20197749432472" lon="10.033649379569162"><ele>96.0</ele><time>2026-05-02T08:45:27.001Z</time></trkpt><trkpt lat="44.20192299186241" lon="10.03381485009429"><ele>96.0</ele><time>2026-05-02T08:45:28.001Z</time></trkpt><trkpt lat="44.20186769808257" lon="10.033978572803436"><ele>96.0</ele><time>2026-05-02T08:45:29.001Z</time></trkpt><trkpt lat="44.20181055881239" lon="10.034147793674284"><ele>96.0</ele><time>2026-05-02T08:45:30.001Z</time></trkpt><trkpt lat="44.20175596568065" lon="10.034313467661342"><ele>96.0</ele><time>2026-05-02T08:45:31.001Z</time></trkpt><trkpt lat="44.20170090177005" lon="10.034479715991832"><ele>96.25</ele><time>2026-05-02T08:45:32.001Z</time></trkpt><trkpt lat="44.201646153088525" lon="10.034647746785778"><ele>96.5</ele><time>2026-05-02T08:45:33.001Z</time></trkpt><trkpt lat="44.201589001779666" lon="10.034818177674602"><ele>96.75</ele><time>2026-05-02T08:45:34.001Z</time></trkpt><trkpt lat="44.20153084878644" lon="10.034993639123456"><ele>97.0</ele><time>2026-05-02T08:45:35.001Z</time></trkpt><trkpt lat="44.20147149002904" lon="10.035168662767065"><ele>97.5</ele><time>2026-05-02T08:45:36.001Z</time></trkpt><trkpt lat="44.20141747747245" lon="10.035347908541423"><ele>98.0</ele><time>2026-05-02T08:45:37.001Z</time></trkpt><trkpt lat="44.20134739139231" lon="10.035519008693134"><ele>98.5</ele><time>2026-05-02T08:45:38.001Z</time></trkpt><trkpt lat="44.20128678606764" lon="10.035699330971646"><ele>99.0</ele><time>2026-05-02T08:45:39.001Z</time></trkpt><trkpt lat="44.20122578451705" lon="10.03588056966265"><ele>99.0</ele><time>2026-05-02T08:45:40.001Z</time></trkpt><trkpt lat="44.20117661462523" lon="10.036024956324086"><ele>99.0</ele><time>2026-05-02T08:45:41.001Z</time></trkpt><trkpt lat="44.20112410625682" lon="10.036182138726975"><ele>99.0</ele><time>2026-05-02T08:45:42.001Z</time></trkpt><trkpt lat="44.20103775604441" lon="10.036336042419979"><ele>99.0</ele><time>2026-05-02T08:45:43.001Z</time></trkpt><trkpt lat="44.200950236493796" lon="10.036478297748628"><ele>99.66666666666666</ele><time>2026-05-02T08:45:44.001Z</time></trkpt><trkpt lat="44.20088611629422" lon="10.036693605590722"><ele>100.33333333333333</ele><time>2026-05-02T08:45:45.001Z</time></trkpt><trkpt lat="44.20079377007471" lon="10.036848042626275"><ele>101.0</ele><time>2026-05-02T08:45:46.001Z</time></trkpt><trkpt lat="44.20070680201454" lon="10.037007872715142"><ele>100.25</ele><time>2026-05-02T08:45:47.001Z</time></trkpt><trkpt lat="44.20062314676328" lon="10.037160398379791"><ele>99.5</ele><time>2026-05-02T08:45:48.001Z</time></trkpt><trkpt lat="44.200542065254915" lon="10.037308228130351"><ele>98.75</ele><time>2026-05-02T08:45:49.001Z</time></trkpt><trkpt lat="44.20046658672314" lon="10.037455297801776"><ele>98.0</ele><time>2026-05-02T08:45:50.001Z</time></trkpt><trkpt lat="44.2003888414743" lon="10.037604361764028"><ele>98.0</ele><time>2026-05-02T08:45:51.001Z</time></trkpt><trkpt lat="44.200311438779934" lon="10.037750347271068"><ele>98.0</ele><time>2026-05-02T08:45:52.001Z</time></trkpt><trkpt lat="44.200223289872206" lon="10.037884305548523"><ele>98.0</ele><time>2026-05-02T08:45:53.001Z</time></trkpt><trkpt lat="44.20013454560886" lon="10.038018184400173"><ele>98.0</ele><time>2026-05-02T08:45:54.001Z</time></trkpt><trkpt lat="44.200026101946335" lon="10.03813265401934"><ele>98.0</ele><time>2026-05-02T08:45:55.001Z</time></trkpt><trkpt lat="44.19991229627615" lon="10.038245605072946"><ele>98.0</ele><time>2026-05-02T08:45:56.001Z</time></trkpt><trkpt lat="44.19980694856736" lon="10.038363532178591"><ele>98.0</ele><time>2026-05-02T08:45:57.001Z</time></trkpt><trkpt lat="44.19971651614465" lon="10.038499724351132"><ele>98.0</ele><time>2026-05-02T08:45:58.001Z</time></trkpt><trkpt lat="44.19962511275337" lon="10.038631738768775"><ele>97.75</ele><time>2026-05-02T08:45:59.001Z</time></trkpt><trkpt lat="44.19954043098967" lon="10.038770175849297"><ele>97.5</ele><time>2026-05-02T08:46:00.001Z</time></trkpt><trkpt lat="44.19946092856316" lon="10.03891417605681"><ele>97.25</ele><time>2026-05-02T08:46:01.001Z</time></trkpt><trkpt lat="44.19938465440535" lon="10.039062655904813"><ele>97.0</ele><time>2026-05-02T08:46:02.001Z</time></trkpt><trkpt lat="44.19931674511292" lon="10.039210349392082"><ele>97.75</ele><time>2026-05-02T08:46:03.001Z</time></trkpt><trkpt lat="44.1992566269383" lon="10.039366631955014"><ele>98.5</ele><time>2026-05-02T08:46:04.001Z</time></trkpt><trkpt lat="44.19919737384227" lon="10.039533828849637"><ele>99.25</ele><time>2026-05-02T08:46:05.001Z</time></trkpt><trkpt lat="44.199143882984586" lon="10.039711144996764"><ele>100.0</ele><time>2026-05-02T08:46:06.001Z</time></trkpt><trkpt lat="44.19909592099149" lon="10.039894358979721"><ele>100.25</ele><time>2026-05-02T08:46:07.001Z</time></trkpt><trkpt lat="44.199045854748846" lon="10.040077614673212"><ele>100.5</ele><time>2026-05-02T08:46:08.001Z</time></trkpt><trkpt lat="44.19899728840522" lon="10.040259333140694"><ele>100.75</ele><time>2026-05-02T08:46:09.001Z</time></trkpt><trkpt lat="44.19895324134628" lon="10.040433608901367"><ele>101.0</ele><time>2026-05-02T08:46:10.001Z</time></trkpt><trkpt lat="44.19890634482933" lon="10.04061150682255"><ele>101.0</ele><time>2026-05-02T08:46:11.001Z</time></trkpt><trkpt lat="44.19886015366095" lon="10.040790878570048"><ele>101.0</ele><time>2026-05-02T08:46:12.001Z</time></trkpt><trkpt lat="44.198814151157656" lon="10.040967612396468"><ele>101.0</ele><time>2026-05-02T08:46:13.001Z</time></trkpt><trkpt lat="44.19876566904536" lon="10.04114457759425"><ele>101.0</ele><time>2026-05-02T08:46:14.001Z</time></trkpt><trkpt lat="44.19871767228252" lon="10.041311002506522"><ele>101.0</ele><time>2026-05-02T08:46:15.001Z</time></trkpt><trkpt lat="44.19867358294153" lon="10.041475448251145"><ele>101.0</ele><time>2026-05-02T08:46:16.001Z</time></trkpt><trkpt lat="44.1986288930375" lon="10.041641371553848"><ele>101.0</ele><time>2026-05-02T08:46:17.001Z</time></trkpt><trkpt lat="44.19858353824283" lon="10.041813109994632"><ele>101.0</ele><time>2026-05-02T08:46:18.001Z</time></trkpt><trkpt lat="44.19853138836585" lon="10.041989318423134"><ele>100.75</ele><time>2026-05-02T08:46:19.001Z</time></trkpt><trkpt lat="44.19848633519973" lon="10.04216584282225"><ele>100.5</ele><time>2026-05-02T08:46:20.001Z</time></trkpt><trkpt lat="44.198444062641435" lon="10.042337146273232"><ele>100.25</ele><time>2026-05-02T08:46:21.001Z</time></trkpt><trkpt lat="44.198393328945684" lon="10.042514294956003"><ele>100.0</ele><time>2026-05-02T08:46:22.001Z</time></trkpt><trkpt lat="44.19834641001039" lon="10.042689306774095"><ele>101.0</ele><time>2026-05-02T08:46:23.001Z</time></trkpt><trkpt lat="44.19830144070884" lon="10.042865089853112"><ele>102.0</ele><time>2026-05-02T08:46:24.001Z</time></trkpt><trkpt lat="44.198267671718476" lon="10.043039720385634"><ele>103.0</ele><time>2026-05-02T08:46:25.001Z</time></trkpt><trkpt lat="44.19824160535408" lon="10.043217370096258"><ele>104.0</ele><time>2026-05-02T08:46:26.001Z</time></trkpt><trkpt lat="44.198231513823686" lon="10.04339693996041"><ele>104.0</ele><time>2026-05-02T08:46:27.001Z</time></trkpt><trkpt lat="44.19823312576078" lon="10.043584146149293"><ele>104.0</ele><time>2026-05-02T08:46:28.001Z</time></trkpt><trkpt lat="44.19824868444563" lon="10.043768846125365"><ele>104.0</ele><time>2026-05-02T08:46:29.001Z</time></trkpt><trkpt lat="44.19827342943487" lon="10.043952262046162"><ele>104.0</ele><time>2026-05-02T08:46:30.001Z</time></trkpt><trkpt lat="44.198296429240955" lon="10.044133091285754"><ele>104.0</ele><time>2026-05-02T08:46:31.001Z</time></trkpt><trkpt lat="44.19831865687389" lon="10.044315252187054"><ele>104.0</ele><time>2026-05-02T08:46:32.001Z</time></trkpt><trkpt lat="44.19834248073039" lon="10.04448635227721"><ele>104.0</ele><time>2026-05-02T08:46:33.001Z</time></trkpt><trkpt lat="44.19836278814973" lon="10.04466257921624"><ele>104.0</ele><time>2026-05-02T08:46:34.001Z</time></trkpt><trkpt lat="44.198374326897465" lon="10.044844201134792"><ele>104.0</ele><time>2026-05-02T08:46:35.001Z</time></trkpt><trkpt lat="44.198368404477684" lon="10.045034129571032"><ele>104.0</ele><time>2026-05-02T08:46:36.001Z</time></trkpt><trkpt lat="44.19834967657576" lon="10.045224937039771"><ele>104.0</ele><time>2026-05-02T08:46:37.001Z</time></trkpt><trkpt lat="44.198329200372285" lon="10.045422305661608"><ele>104.0</ele><time>2026-05-02T08:46:38.001Z</time></trkpt><trkpt lat="44.19831198772226" lon="10.045609650330247"><ele>103.75</ele><time>2026-05-02T08:46:39.001Z</time></trkpt><trkpt lat="44.198301659353945" lon="10.045803140623256"><ele>103.5</ele><time>2026-05-02T08:46:40.001Z</time></trkpt><trkpt lat="44.1983001289764" lon="10.045984242538891"><ele>103.25</ele><time>2026-05-02T08:46:41.001Z</time></trkpt><trkpt lat="44.19831576387004" lon="10.046173355581368"><ele>103.0</ele><time>2026-05-02T08:46:42.001Z</time></trkpt><trkpt lat="44.19833871750359" lon="10.046362640914237"><ele>103.0</ele><time>2026-05-02T08:46:43.001Z</time></trkpt><trkpt lat="44.1983703276491" lon="10.04655105679615"><ele>103.0</ele><time>2026-05-02T08:46:44.001Z</time></trkpt><trkpt lat="44.19841621249743" lon="10.046741770901551"><ele>103.0</ele><time>2026-05-02T08:46:45.001Z</time></trkpt><trkpt lat="44.19846955455581" lon="10.046929156683568"><ele>103.0</ele><time>2026-05-02T08:46:46.002Z</time></trkpt><trkpt lat="44.198516711485894" lon="10.04711459053977"><ele>103.0</ele><time>2026-05-02T08:46:47.002Z</time></trkpt><trkpt lat="44.19856746942247" lon="10.047298267015757"><ele>103.0</ele><time>2026-05-02T08:46:48.002Z</time></trkpt><trkpt lat="44.19862058331286" lon="10.04748582496804"><ele>103.0</ele><time>2026-05-02T08:46:49.002Z</time></trkpt><trkpt lat="44.19867321831821" lon="10.047672279989326"><ele>103.0</ele><time>2026-05-02T08:46:50.002Z</time></trkpt><trkpt lat="44.19872531925938" lon="10.04786331088268"><ele>103.0</ele><time>2026-05-02T08:46:51.002Z</time></trkpt><trkpt lat="44.19877751612483" lon="10.048055836150029"><ele>103.0</ele><time>2026-05-02T08:46:52.002Z</time></trkpt><trkpt lat="44.1988283675173" lon="10.048248317021027"><ele>103.0</ele><time>2026-05-02T08:46:53.002Z</time></trkpt><trkpt lat="44.19888114566254" lon="10.048434811864208"><ele>103.0</ele><time>2026-05-02T08:46:54.002Z</time></trkpt><trkpt lat="44.19893443763719" lon="10.048628410057752"><ele>103.25</ele><time>2026-05-02T08:46:55.002Z</time></trkpt><trkpt lat="44.19898572010053" lon="10.048814963076076"><ele>103.5</ele><time>2026-05-02T08:46:56.002Z</time></trkpt><trkpt lat="44.19903577730651" lon="10.048991370825352"><ele>103.75</ele><time>2026-05-02T08:46:57.002Z</time></trkpt><trkpt lat="44.199087958681226" lon="10.049163587525221"><ele>104.0</ele><time>2026-05-02T08:46:58.001Z</time></trkpt><trkpt lat="44.19914431959205" lon="10.049323879859944"><ele>104.25</ele><time>2026-05-02T08:46:59.001Z</time></trkpt><trkpt lat="44.19921467858241" lon="10.049480672830079"><ele>104.5</ele><time>2026-05-02T08:47:00.001Z</time></trkpt><trkpt lat="44.19929924519632" lon="10.049630569887015"><ele>104.75</ele><time>2026-05-02T08:47:01.001Z</time></trkpt><trkpt lat="44.19939476246368" lon="10.049762881221225"><ele>105.0</ele><time>2026-05-02T08:47:02.001Z</time></trkpt><trkpt lat="44.19950044029302" lon="10.049871475032843"><ele>105.5</ele><time>2026-05-02T08:47:03.001Z</time></trkpt><trkpt lat="44.1996105088875" lon="10.04996164523697"><ele>106.0</ele><time>2026-05-02T08:47:04.001Z</time></trkpt><trkpt lat="44.19972320123298" lon="10.050038863422742"><ele>106.5</ele><time>2026-05-02T08:47:05.001Z</time></trkpt><trkpt lat="44.19983604465333" lon="10.050100238562326"><ele>107.0</ele><time>2026-05-02T08:47:06.001Z</time></trkpt><trkpt lat="44.199937526820094" lon="10.050156630289887"><ele>108.25</ele><time>2026-05-02T08:47:07.001Z</time></trkpt><trkpt lat="44.200032127328036" lon="10.05021654607821"><ele>109.5</ele><time>2026-05-02T08:47:08.001Z</time></trkpt><trkpt lat="44.20011954413916" lon="10.05032824917694"><ele>110.75</ele><time>2026-05-02T08:47:09.001Z</time></trkpt><trkpt lat="44.20017376788853" lon="10.050447881384796"><ele>112.0</ele><time>2026-05-02T08:47:10.001Z</time></trkpt><trkpt lat="44.2002120989314" lon="10.050617683291291"><ele>112.0</ele><time>2026-05-02T08:47:11.001Z</time></trkpt><trkpt lat="44.200263329678535" lon="10.050789080242673"><ele>112.0</ele><time>2026-05-02T08:47:12.001Z</time></trkpt><trkpt lat="44.20032248000841" lon="10.050961767279764"><ele>112.0</ele><time>2026-05-02T08:47:13.001Z</time></trkpt><trkpt lat="44.20038005804091" lon="10.051132619578736"><ele>112.0</ele><time>2026-05-02T08:47:14.001Z</time></trkpt><trkpt lat="44.20042930037477" lon="10.051290344760798"><ele>112.19999999999999</ele><time>2026-05-02T08:47:15.001Z</time></trkpt><trkpt lat="44.20047801625407" lon="10.05143683859556"><ele>112.39999999999999</ele><time>2026-05-02T08:47:16.001Z</time></trkpt><trkpt lat="44.20052054976087" lon="10.051569399805436"><ele>112.60000000000001</ele><time>2026-05-02T08:47:17.001Z</time></trkpt><trkpt lat="44.20055933848273" lon="10.051701299777653"><ele>112.80000000000001</ele><time>2026-05-02T08:47:18.001Z</time></trkpt><trkpt lat="44.20059795091738" lon="10.051840553404253"><ele>113.0</ele><time>2026-05-02T08:47:19.001Z</time></trkpt><trkpt lat="44.20062919327443" lon="10.051988553071315"><ele>113.5</ele><time>2026-05-02T08:47:20.001Z</time></trkpt><trkpt lat="44.20064446800616" lon="10.052141529264478"><ele>114.0</ele><time>2026-05-02T08:47:21.001Z</time></trkpt><trkpt lat="44.20064685125127" lon="10.052306043264386"><ele>114.5</ele><time>2026-05-02T08:47:22.001Z</time></trkpt><trkpt lat="44.2006416106776" lon="10.052480480350543"><ele>115.0</ele><time>2026-05-02T08:47:23.001Z</time></trkpt><trkpt lat="44.20062797775084" lon="10.052656171398949"><ele>115.0</ele><time>2026-05-02T08:47:24.001Z</time></trkpt><trkpt lat="44.20061031515275" lon="10.052842222216002"><ele>115.0</ele><time>2026-05-02T08:47:25.001Z</time></trkpt><trkpt lat="44.20059862436411" lon="10.053032383887713"><ele>115.0</ele><time>2026-05-02T08:47:26.001Z</time></trkpt><trkpt lat="44.20058715478687" lon="10.053211402108815"><ele>115.0</ele><time>2026-05-02T08:47:27.001Z</time></trkpt><trkpt lat="44.20057549175571" lon="10.053372836108895"><ele>114.75</ele><time>2026-05-02T08:47:28.001Z</time></trkpt><trkpt lat="44.200563516417425" lon="10.053527258565435"><ele>114.5</ele><time>2026-05-02T08:47:29.001Z</time></trkpt><trkpt lat="44.20055189801117" lon="10.053688861675584"><ele>114.25</ele><time>2026-05-02T08:47:30.001Z</time></trkpt><trkpt lat="44.20054038494327" lon="10.053858162915809"><ele>114.0</ele><time>2026-05-02T08:47:31.001Z</time></trkpt><trkpt lat="44.200528605202315" lon="10.054035964366365"><ele>114.0</ele><time>2026-05-02T08:47:32.001Z</time></trkpt><trkpt lat="44.20051632123964" lon="10.054212486242939"><ele>114.0</ele><time>2026-05-02T08:47:33.001Z</time></trkpt><trkpt lat="44.20050487287257" lon="10.054389266331437"><ele>114.0</ele><time>2026-05-02T08:47:34.001Z</time></trkpt><trkpt lat="44.20049585812268" lon="10.054555605317395"><ele>114.0</ele><time>2026-05-02T08:47:35.001Z</time></trkpt><trkpt lat="44.20048573496293" lon="10.054720905930163"><ele>114.0</ele><time>2026-05-02T08:47:36.001Z</time></trkpt><trkpt lat="44.20047624587924" lon="10.054885655146718"><ele>114.0</ele><time>2026-05-02T08:47:37.001Z</time></trkpt><trkpt lat="44.20046818334951" lon="10.055056015219222"><ele>114.0</ele><time>2026-05-02T08:47:38.001Z</time></trkpt><trkpt lat="44.200458823366084" lon="10.05522412962362"><ele>114.0</ele><time>2026-05-02T08:47:39.001Z</time></trkpt><trkpt lat="44.20044729171621" lon="10.055384513057138"><ele>114.4</ele><time>2026-05-02T08:47:40.001Z</time></trkpt><trkpt lat="44.20043541213516" lon="10.055540812334065"><ele>114.80000000000001</ele><time>2026-05-02T08:47:41.001Z</time></trkpt><trkpt lat="44.20042496319947" lon="10.055687337178712"><ele>115.19999999999999</ele><time>2026-05-02T08:47:42.001Z</time></trkpt><trkpt lat="44.20042003371679" lon="10.055825040897494"><ele>115.6</ele><time>2026-05-02T08:47:43.001Z</time></trkpt><trkpt lat="44.20042698345804" lon="10.055973060159387"><ele>116.0</ele><time>2026-05-02T08:47:44.001Z</time></trkpt><trkpt lat="44.20045458903225" lon="10.056124874625072"><ele>116.0</ele><time>2026-05-02T08:47:45.001Z</time></trkpt><trkpt lat="44.20049331507494" lon="10.056269551047055"><ele>116.0</ele><time>2026-05-02T08:47:46.001Z</time></trkpt><trkpt lat="44.20053662697822" lon="10.056417580178463"><ele>116.0</ele><time>2026-05-02T08:47:47.001Z</time></trkpt><trkpt lat="44.20057774070157" lon="10.056571115901125"><ele>116.0</ele><time>2026-05-02T08:47:48.001Z</time></trkpt><trkpt lat="44.20061897209699" lon="10.056719191284971"><ele>115.0</ele><time>2026-05-02T08:47:49.001Z</time></trkpt><trkpt lat="44.20065523033085" lon="10.05686248679698"><ele>114.0</ele><time>2026-05-02T08:47:50.001Z</time></trkpt><trkpt lat="44.200693380133124" lon="10.057003158937713"><ele>113.0</ele><time>2026-05-02T08:47:51.001Z</time></trkpt><trkpt lat="44.20073018732313" lon="10.05714263714436"><ele>112.0</ele><time>2026-05-02T08:47:52.001Z</time></trkpt><trkpt lat="44.20076728669948" lon="10.057287184534514"><ele>111.0</ele><time>2026-05-02T08:47:53.001Z</time></trkpt><trkpt lat="44.200802526491614" lon="10.057427388084529"><ele>114.5</ele><time>2026-05-02T08:47:54.001Z</time></trkpt><trkpt lat="44.20084267877162" lon="10.057574181928945"><ele>118.0</ele><time>2026-05-02T08:47:55.001Z</time></trkpt><trkpt lat="44.200888043976036" lon="10.057730047999968"><ele>121.5</ele><time>2026-05-02T08:47:56.001Z</time></trkpt><trkpt lat="44.20093236763416" lon="10.057891972433406"><ele>125.0</ele><time>2026-05-02T08:47:57.001Z</time></trkpt><trkpt lat="44.20097839820489" lon="10.058058205397057"><ele>125.0</ele><time>2026-05-02T08:47:58.001Z</time></trkpt><trkpt lat="44.20102266229613" lon="10.058219237386336"><ele>125.0</ele><time>2026-05-02T08:47:59.001Z</time></trkpt><trkpt lat="44.2010780173805" lon="10.05837793590913"><ele>125.0</ele><time>2026-05-02T08:48:00.001Z</time></trkpt><trkpt lat="44.20115172991051" lon="10.058519574920606"><ele>125.0</ele><time>2026-05-02T08:48:01.001Z</time></trkpt><trkpt lat="44.20124006882128" lon="10.058651198209745"><ele>123.0</ele><time>2026-05-02T08:48:02.001Z</time></trkpt><trkpt lat="44.20135064346639" lon="10.058769682626128"><ele>121.0</ele><time>2026-05-02T08:48:03.001Z</time></trkpt><trkpt lat="44.201473230747155" lon="10.058898240282767"><ele>119.0</ele><time>2026-05-02T08:48:04.001Z</time></trkpt><trkpt lat="44.20160542946873" lon="10.059043387221427"><ele>122.66666666666666</ele><time>2026-05-02T08:48:05.001Z</time></trkpt><trkpt lat="44.20172918306343" lon="10.059182561124901"><ele>126.33333333333334</ele><time>2026-05-02T08:48:06.001Z</time></trkpt><trkpt lat="44.20184694012157" lon="10.059329942923064"><ele>130.0</ele><time>2026-05-02T08:48:07.001Z</time></trkpt><trkpt lat="44.20194657936459" lon="10.059525439959437"><ele>130.0</ele><time>2026-05-02T08:48:08.001Z</time></trkpt><trkpt lat="44.202050247504424" lon="10.059735579792482"><ele>130.0</ele><time>2026-05-02T08:48:09.001Z</time></trkpt><trkpt lat="44.20216792443236" lon="10.059973589743137"><ele>130.0</ele><time>2026-05-02T08:48:10.001Z</time></trkpt><trkpt lat="44.20230424197033" lon="10.060199771718947"><ele>128.66666666666669</ele><time>2026-05-02T08:48:11.001Z</time></trkpt><trkpt lat="44.2023978160542" lon="10.060424235377637"><ele>127.33333333333334</ele><time>2026-05-02T08:48:12.001Z</time></trkpt><trkpt lat="44.202479267309876" lon="10.060612590062087"><ele>126.0</ele><time>2026-05-02T08:48:13.001Z</time></trkpt><trkpt lat="44.20254353506244" lon="10.060786593731267"><ele>126.0</ele><time>2026-05-02T08:48:14.001Z</time></trkpt><trkpt lat="44.20260403227652" lon="10.060963042162001"><ele>126.0</ele><time>2026-05-02T08:48:15.001Z</time></trkpt><trkpt lat="44.20266373150319" lon="10.061144720496241"><ele>126.0</ele><time>2026-05-02T08:48:16.001Z</time></trkpt><trkpt lat="44.20272784500918" lon="10.061332177727767"><ele>126.0</ele><time>2026-05-02T08:48:17.001Z</time></trkpt><trkpt lat="44.20279461064639" lon="10.061515023160414"><ele>123.75</ele><time>2026-05-02T08:48:18.001Z</time></trkpt><trkpt lat="44.20285614314054" lon="10.061685032339419"><ele>121.5</ele><time>2026-05-02T08:48:19.001Z</time></trkpt><trkpt lat="44.20291742389877" lon="10.061853877385442"><ele>119.25</ele><time>2026-05-02T08:48:20.001Z</time></trkpt><trkpt lat="44.202983227095444" lon="10.062021587701318"><ele>117.0</ele><time>2026-05-02T08:48:21.001Z</time></trkpt><trkpt lat="44.20304931604684" lon="10.062193115585165"><ele>117.0</ele><time>2026-05-02T08:48:22.001Z</time></trkpt><trkpt lat="44.203111946761084" lon="10.062363776803041"><ele>117.0</ele><time>2026-05-02T08:48:23.001Z</time></trkpt><trkpt lat="44.20317231882894" lon="10.062537212243953"><ele>117.0</ele><time>2026-05-02T08:48:24.001Z</time></trkpt><trkpt lat="44.20322685674637" lon="10.062722810937847"><ele>117.0</ele><time>2026-05-02T08:48:25.001Z</time></trkpt><trkpt lat="44.20327592371627" lon="10.062902759044855"><ele>118.25</ele><time>2026-05-02T08:48:26.001Z</time></trkpt><trkpt lat="44.20333301782972" lon="10.063077395857906"><ele>119.5</ele><time>2026-05-02T08:48:27.001Z</time></trkpt><trkpt lat="44.20340806432186" lon="10.063249698740696"><ele>120.75</ele><time>2026-05-02T08:48:28.001Z</time></trkpt><trkpt lat="44.20349291251716" lon="10.063416610401779"><ele>122.0</ele><time>2026-05-02T08:48:29.001Z</time></trkpt><trkpt lat="44.20357836544789" lon="10.063583993057003"><ele>122.0</ele><time>2026-05-02T08:48:30.001Z</time></trkpt><trkpt lat="44.20366242976616" lon="10.063753241442049"><ele>122.0</ele><time>2026-05-02T08:48:31.001Z</time></trkpt><trkpt lat="44.20374768936398" lon="10.063918219177037"><ele>122.0</ele><time>2026-05-02T08:48:32.001Z</time></trkpt><trkpt lat="44.20382964424367" lon="10.064067202450762"><ele>122.0</ele><time>2026-05-02T08:48:33.001Z</time></trkpt><trkpt lat="44.20391313943922" lon="10.064208828204993"><ele>126.0</ele><time>2026-05-02T08:48:34.001Z</time></trkpt><trkpt lat="44.20400993616536" lon="10.064342007401285"><ele>130.0</ele><time>2026-05-02T08:48:35.001Z</time></trkpt><trkpt lat="44.20410857673263" lon="10.064478328084881"><ele>134.0</ele><time>2026-05-02T08:48:36.001Z</time></trkpt><trkpt lat="44.20420042904708" lon="10.06461311983147"><ele>138.0</ele><time>2026-05-02T08:48:37.001Z</time></trkpt><trkpt lat="44.20428823270247" lon="10.064743784888314"><ele>138.0</ele><time>2026-05-02T08:48:38.001Z</time></trkpt><trkpt lat="44.2043748273164" lon="10.06486780217361"><ele>138.0</ele><time>2026-05-02T08:48:39.001Z</time></trkpt><trkpt lat="44.20445755190204" lon="10.064983148887181"><ele>138.0</ele><time>2026-05-02T08:48:40.001Z</time></trkpt><trkpt lat="44.204530282016925" lon="10.065095535607142"><ele>138.0</ele><time>2026-05-02T08:48:41.001Z</time></trkpt><trkpt lat="44.20458407951807" lon="10.06522705634906"><ele>135.0</ele><time>2026-05-02T08:48:42.001Z</time></trkpt><trkpt lat="44.2046071107056" lon="10.065395321474181"><ele>132.0</ele><time>2026-05-02T08:48:43.001Z</time></trkpt><trkpt lat="44.20461442314234" lon="10.065542588090178"><ele>129.0</ele><time>2026-05-02T08:48:44.001Z</time></trkpt><trkpt lat="44.20461926958727" lon="10.065667125496205"><ele>126.0</ele><time>2026-05-02T08:48:45.001Z</time></trkpt><trkpt lat="44.204613963260954" lon="10.065780154618919"><ele>123.0</ele><time>2026-05-02T08:48:46.001Z</time></trkpt><trkpt lat="44.20460525325194" lon="10.065874119377098"><ele>122.33333333333333</ele><time>2026-05-02T08:48:48.001Z</time></trkpt><trkpt lat="44.20457846356997" lon="10.065978552407305"><ele>121.66666666666666</ele><time>2026-05-02T08:48:53.002Z</time></trkpt><trkpt lat="44.20455677849301" lon="10.06606171875467"><ele>121.0</ele><time>2026-05-02T08:48:55.002Z</time></trkpt><trkpt lat="44.20451545127548" lon="10.066215103189656"><ele>120.33333333333333</ele><time>2026-05-02T08:48:57.002Z</time></trkpt><trkpt lat="44.20449086707304" lon="10.066306373424016"><ele>119.66666666666666</ele><time>2026-05-02T08:49:19.001Z</time></trkpt><trkpt lat="44.20444926193046" lon="10.066461432938668"><ele>119.0</ele><time>2026-05-02T08:49:21.001Z</time></trkpt><trkpt lat="44.20442993812987" lon="10.066596633490384"><ele>120.0</ele><time>2026-05-02T08:49:22.001Z</time></trkpt><trkpt lat="44.20439481031323" lon="10.066719092364687"><ele>121.0</ele><time>2026-05-02T08:49:23.001Z</time></trkpt><trkpt lat="44.20435713807064" lon="10.06685588375284"><ele>122.0</ele><time>2026-05-02T08:49:24.001Z</time></trkpt><trkpt lat="44.204319370671286" lon="10.06699276660127"><ele>123.0</ele><time>2026-05-02T08:49:25.001Z</time></trkpt><trkpt lat="44.20427782515616" lon="10.06714311888216"><ele>124.0</ele><time>2026-05-02T08:49:26.001Z</time></trkpt><trkpt lat="44.204235256114806" lon="10.06730336417002"><ele>124.5</ele><time>2026-05-02T08:49:27.001Z</time></trkpt><trkpt lat="44.20418373893143" lon="10.067447363289956"><ele>125.0</ele><time>2026-05-02T08:49:28.001Z</time></trkpt><trkpt lat="44.20414191047947" lon="10.067601995023768"><ele>125.5</ele><time>2026-05-02T08:49:29.001Z</time></trkpt><trkpt lat="44.20409979260808" lon="10.067757696721875"><ele>126.0</ele><time>2026-05-02T08:49:30.001Z</time></trkpt><trkpt lat="44.20405793559555" lon="10.067900464062504"><ele>126.0</ele><time>2026-05-02T08:49:31.001Z</time></trkpt><trkpt lat="44.20400801707348" lon="10.068046423456106"><ele>126.0</ele><time>2026-05-02T08:49:32.001Z</time></trkpt><trkpt lat="44.203948378006615" lon="10.06818677259781"><ele>126.0</ele><time>2026-05-02T08:49:33.001Z</time></trkpt><trkpt lat="44.20388473773622" lon="10.068320570596367"><ele>126.0</ele><time>2026-05-02T08:49:34.001Z</time></trkpt><trkpt lat="44.20382640466063" lon="10.068438766613895"><ele>125.4</ele><time>2026-05-02T08:49:35.001Z</time></trkpt><trkpt lat="44.20377698179355" lon="10.068537872827937"><ele>124.8</ele><time>2026-05-02T08:49:36.001Z</time></trkpt><trkpt lat="44.2037199386708" lon="10.068652259824942"><ele>124.20000000000002</ele><time>2026-05-02T08:49:38.001Z</time></trkpt><trkpt lat="44.20367221464906" lon="10.0687479593479"><ele>123.60000000000001</ele><time>2026-05-02T08:49:41.001Z</time></trkpt><trkpt lat="44.20374375219047" lon="10.06891061094329"><ele>123.0</ele><time>2026-05-02T08:49:43.001Z</time></trkpt><trkpt lat="44.203806875288244" lon="10.068981058920732"><ele>123.0</ele><time>2026-05-02T08:49:44.001Z</time></trkpt><trkpt lat="44.203874662420255" lon="10.069031391229304"><ele>123.0</ele><time>2026-05-02T08:49:45.001Z</time></trkpt><trkpt lat="44.20393762115837" lon="10.069074649766387"><ele>123.0</ele><time>2026-05-02T08:49:46.001Z</time></trkpt><trkpt lat="44.20400556801885" lon="10.069124052076415"><ele>123.0</ele><time>2026-05-02T08:49:47.001Z</time></trkpt><trkpt lat="44.20408882155374" lon="10.06919307511986"><ele>123.0</ele><time>2026-05-02T08:49:48.001Z</time></trkpt><trkpt lat="44.20418120657628" lon="10.069266794212961"><ele>123.0</ele><time>2026-05-02T08:49:49.001Z</time></trkpt><trkpt lat="44.20428204431119" lon="10.06934616497261"><ele>123.5</ele><time>2026-05-02T08:49:50.001Z</time></trkpt><trkpt lat="44.204394269882904" lon="10.069429935529282"><ele>124.0</ele><time>2026-05-02T08:49:51.001Z</time></trkpt><trkpt lat="44.20450817546557" lon="10.069498667446974"><ele>124.5</ele><time>2026-05-02T08:49:52.001Z</time></trkpt><trkpt lat="44.204623718670234" lon="10.069570456331325"><ele>125.0</ele><time>2026-05-02T08:49:53.001Z</time></trkpt><trkpt lat="44.204751978032185" lon="10.069651628380996"><ele>124.5</ele><time>2026-05-02T08:49:54.001Z</time></trkpt><trkpt lat="44.204888257787616" lon="10.06973567806484"><ele>124.0</ele><time>2026-05-02T08:49:55.001Z</time></trkpt><trkpt lat="44.20502044628012" lon="10.069815777132979"><ele>123.5</ele><time>2026-05-02T08:49:56.001Z</time></trkpt><trkpt lat="44.20514131305904" lon="10.069894635001843"><ele>123.0</ele><time>2026-05-02T08:49:57.001Z</time></trkpt><trkpt lat="44.20525366645011" lon="10.069974790309804"><ele>123.0</ele><time>2026-05-02T08:49:58.001Z</time></trkpt><trkpt lat="44.20536933068742" lon="10.070050517983162"><ele>123.0</ele><time>2026-05-02T08:49:59.001Z</time></trkpt><trkpt lat="44.20548181025435" lon="10.070118081041498"><ele>123.0</ele><time>2026-05-02T08:50:00.001Z</time></trkpt><trkpt lat="44.20558693524586" lon="10.070174905871873"><ele>123.0</ele><time>2026-05-02T08:50:01.001Z</time></trkpt><trkpt lat="44.205687165872824" lon="10.070212322917822"><ele>124.0</ele><time>2026-05-02T08:50:02.001Z</time></trkpt><trkpt lat="44.20578950589188" lon="10.070221718703204"><ele>125.0</ele><time>2026-05-02T08:50:03.001Z</time></trkpt><trkpt lat="44.205895311457496" lon="10.070184130576932"><ele>126.0</ele><time>2026-05-02T08:50:04.001Z</time></trkpt><trkpt lat="44.20600025186308" lon="10.070105254635347"><ele>127.0</ele><time>2026-05-02T08:50:05.001Z</time></trkpt><trkpt lat="44.20610620837614" lon="10.070019813426148"><ele>127.00000000000001</ele><time>2026-05-02T08:50:06.001Z</time></trkpt><trkpt lat="44.20620851173656" lon="10.069949537297282"><ele>127.0</ele><time>2026-05-02T08:50:07.001Z</time></trkpt><trkpt lat="44.20629822998605" lon="10.069894609874762"><ele>127.0</ele><time>2026-05-02T08:50:08.001Z</time></trkpt><trkpt lat="44.20638456705945" lon="10.069852453910006"><ele>127.0</ele><time>2026-05-02T08:50:09.001Z</time></trkpt><trkpt lat="44.20645817717524" lon="10.0698420993603"><ele>127.00000000000001</ele><time>2026-05-02T08:50:10.001Z</time></trkpt><trkpt lat="44.20652817105001" lon="10.069832613046165"><ele>127.0</ele><time>2026-05-02T08:50:11.001Z</time></trkpt><trkpt lat="44.20660589196459" lon="10.06993241288278"><ele>129.25</ele><time>2026-05-02T08:50:12.001Z</time></trkpt><trkpt lat="44.206683448925034" lon="10.070039002697936"><ele>131.5</ele><time>2026-05-02T08:50:13.001Z</time></trkpt><trkpt lat="44.20677226105724" lon="10.070168183805558"><ele>133.75</ele><time>2026-05-02T08:50:14.001Z</time></trkpt><trkpt lat="44.20687611323165" lon="10.070298404274649"><ele>136.0</ele><time>2026-05-02T08:50:15.001Z</time></trkpt><trkpt lat="44.20699092923912" lon="10.070438848482713"><ele>136.0</ele><time>2026-05-02T08:50:16.001Z</time></trkpt><trkpt lat="44.20711322993132" lon="10.070597964846286"><ele>136.0</ele><time>2026-05-02T08:50:17.001Z</time></trkpt><trkpt lat="44.20725093230652" lon="10.070767324377961"><ele>136.0</ele><time>2026-05-02T08:50:18.001Z</time></trkpt><trkpt lat="44.20737833777806" lon="10.070926354348247"><ele>137.33333333333334</ele><time>2026-05-02T08:50:19.001Z</time></trkpt><trkpt lat="44.207493953634774" lon="10.071071624722173"><ele>138.66666666666666</ele><time>2026-05-02T08:50:20.001Z</time></trkpt><trkpt lat="44.20760391240536" lon="10.071209782531433"><ele>140.0</ele><time>2026-05-02T08:50:21.001Z</time></trkpt><trkpt lat="44.20772417341694" lon="10.071354056382111"><ele>140.0</ele><time>2026-05-02T08:50:22.001Z</time></trkpt><trkpt lat="44.207842348059884" lon="10.071502037738352"><ele>140.0</ele><time>2026-05-02T08:50:23.001Z</time></trkpt><trkpt lat="44.20796243386215" lon="10.071652179407032"><ele>140.0</ele><time>2026-05-02T08:50:24.001Z</time></trkpt><trkpt lat="44.20807665798859" lon="10.071795836540018"><ele>141.25</ele><time>2026-05-02T08:50:25.001Z</time></trkpt><trkpt lat="44.20818998611434" lon="10.071941589446155"><ele>142.5</ele><time>2026-05-02T08:50:26.001Z</time></trkpt><trkpt lat="44.208300906055264" lon="10.07208683486122"><ele>143.75</ele><time>2026-05-02T08:50:27.001Z</time></trkpt><trkpt lat="44.2084049494609" lon="10.072221882557272"><ele>145.0</ele><time>2026-05-02T08:50:28.001Z</time></trkpt><trkpt lat="44.20850661253406" lon="10.072356662054638"><ele>144.5</ele><time>2026-05-02T08:50:29.001Z</time></trkpt><trkpt lat="44.20861000835397" lon="10.072498410244746"><ele>144.0</ele><time>2026-05-02T08:50:30.001Z</time></trkpt><trkpt lat="44.20871100397103" lon="10.072637986045317"><ele>143.5</ele><time>2026-05-02T08:50:31.001Z</time></trkpt><trkpt lat="44.20881826243961" lon="10.072780143217798"><ele>143.0</ele><time>2026-05-02T08:50:32.001Z</time></trkpt><trkpt lat="44.20892812554272" lon="10.072910702297602"><ele>143.75</ele><time>2026-05-02T08:50:33.001Z</time></trkpt><trkpt lat="44.209039010406904" lon="10.073028525156554"><ele>144.5</ele><time>2026-05-02T08:50:34.001Z</time></trkpt><trkpt lat="44.20915188982757" lon="10.073134275930252"><ele>145.25</ele><time>2026-05-02T08:50:35.001Z</time></trkpt><trkpt lat="44.20927062181434" lon="10.073232056621626"><ele>146.0</ele><time>2026-05-02T08:50:36.001Z</time></trkpt><trkpt lat="44.209394536883735" lon="10.073327685246069"><ele>146.0</ele><time>2026-05-02T08:50:37.001Z</time></trkpt><trkpt lat="44.20950650963596" lon="10.073417360794892"><ele>146.0</ele><time>2026-05-02T08:50:38.001Z</time></trkpt><trkpt lat="44.20961586898946" lon="10.073486993800797"><ele>146.0</ele><time>2026-05-02T08:50:39.001Z</time></trkpt><trkpt lat="44.209709851894615" lon="10.073573122417951"><ele>146.0</ele><time>2026-05-02T08:50:40.001Z</time></trkpt><trkpt lat="44.20979576942679" lon="10.073685188146042"><ele>147.5</ele><time>2026-05-02T08:50:41.001Z</time></trkpt><trkpt lat="44.20987403613376" lon="10.073816687066516"><ele>149.0</ele><time>2026-05-02T08:50:42.001Z</time></trkpt><trkpt lat="44.20994795820673" lon="10.073953218149226"><ele>150.5</ele><time>2026-05-02T08:50:43.001Z</time></trkpt><trkpt lat="44.2100314472081" lon="10.074096185778002"><ele>152.0</ele><time>2026-05-02T08:50:44.001Z</time></trkpt><trkpt lat="44.210101880151356" lon="10.07422317570413"><ele>152.0</ele><time>2026-05-02T08:50:45.001Z</time></trkpt><trkpt lat="44.21017356670687" lon="10.0743521129002"><ele>152.0</ele><time>2026-05-02T08:50:46.001Z</time></trkpt><trkpt lat="44.210247541725664" lon="10.074471124723441"><ele>152.0</ele><time>2026-05-02T08:50:47.001Z</time></trkpt><trkpt lat="44.210327004110745" lon="10.0745701840253"><ele>152.0</ele><time>2026-05-02T08:50:48.001Z</time></trkpt><trkpt lat="44.21043343482248" lon="10.074626909746156"><ele>152.0</ele><time>2026-05-02T08:50:49.001Z</time></trkpt><trkpt lat="44.21054720037475" lon="10.074646780645185"><ele>152.0</ele><time>2026-05-02T08:50:50.001Z</time></trkpt><trkpt lat="44.210668304605896" lon="10.0746433082272"><ele>152.0</ele><time>2026-05-02T08:50:51.001Z</time></trkpt><trkpt lat="44.210800252176355" lon="10.074634036517097"><ele>152.0</ele><time>2026-05-02T08:50:52.001Z</time></trkpt><trkpt lat="44.21094065451721" lon="10.074637672286851"><ele>154.66666666666666</ele><time>2026-05-02T08:50:53.001Z</time></trkpt><trkpt lat="44.211081657739754" lon="10.074645350878187"><ele>157.33333333333334</ele><time>2026-05-02T08:50:54.001Z</time></trkpt><trkpt lat="44.21123610220383" lon="10.074656904415065"><ele>160.0</ele><time>2026-05-02T08:50:55.001Z</time></trkpt><trkpt lat="44.21139116397525" lon="10.074676871484003"><ele>162.33333333333334</ele><time>2026-05-02T08:50:56.001Z</time></trkpt><trkpt lat="44.21154432955778" lon="10.074711930084742"><ele>164.66666666666666</ele><time>2026-05-02T08:50:57.001Z</time></trkpt><trkpt lat="44.21169031843081" lon="10.074762896133086"><ele>167.0</ele><time>2026-05-02T08:50:58.001Z</time></trkpt><trkpt lat="44.21182967012249" lon="10.074817700391467"><ele>167.0</ele><time>2026-05-02T08:50:59.001Z</time></trkpt><trkpt lat="44.21196600516439" lon="10.0748613996179"><ele>167.0</ele><time>2026-05-02T08:51:00.001Z</time></trkpt><trkpt lat="44.21209181014631" lon="10.07488827773285"><ele>167.0</ele><time>2026-05-02T08:51:01.001Z</time></trkpt><trkpt lat="44.21220626502455" lon="10.07490297146755"><ele>167.0</ele><time>2026-05-02T08:51:02.001Z</time></trkpt><trkpt lat="44.21231713787332" lon="10.074913448282615"><ele>169.0</ele><time>2026-05-02T08:51:03.001Z</time></trkpt><trkpt lat="44.21242890248384" lon="10.074926668589761"><ele>171.0</ele><time>2026-05-02T08:51:04.001Z</time></trkpt><trkpt lat="44.21253504033715" lon="10.07495625515306"><ele>173.0</ele><time>2026-05-02T08:51:05.001Z</time></trkpt><trkpt lat="44.21263692904944" lon="10.075018334233302"><ele>175.0</ele><time>2026-05-02T08:51:06.001Z</time></trkpt><trkpt lat="44.212745233261586" lon="10.07511544220896"><ele>175.0</ele><time>2026-05-02T08:51:07.001Z</time></trkpt><trkpt lat="44.21285777668978" lon="10.07522127934431"><ele>175.0</ele><time>2026-05-02T08:51:08.001Z</time></trkpt><trkpt lat="44.212978215053454" lon="10.075322623526837"><ele>175.0</ele><time>2026-05-02T08:51:09.001Z</time></trkpt><trkpt lat="44.21309529054908" lon="10.075420248042159"><ele>175.0</ele><time>2026-05-02T08:51:10.001Z</time></trkpt><trkpt lat="44.213205243005724" lon="10.075537820861706"><ele>176.75</ele><time>2026-05-02T08:51:11.001Z</time></trkpt><trkpt lat="44.213315999403775" lon="10.075668115431839"><ele>178.5</ele><time>2026-05-02T08:51:12.001Z</time></trkpt><trkpt lat="44.21342383150771" lon="10.075804612027879"><ele>180.25</ele><time>2026-05-02T08:51:13.001Z</time></trkpt><trkpt lat="44.213526334106554" lon="10.07594669833757"><ele>182.0</ele><time>2026-05-02T08:51:14.001Z</time></trkpt><trkpt lat="44.213628202416636" lon="10.076096725138461"><ele>182.0</ele><time>2026-05-02T08:51:15.001Z</time></trkpt><trkpt lat="44.213733751923726" lon="10.076252423666645"><ele>182.0</ele><time>2026-05-02T08:51:16.001Z</time></trkpt><trkpt lat="44.21383172283787" lon="10.076405694133259"><ele>182.0</ele><time>2026-05-02T08:51:17.001Z</time></trkpt><trkpt lat="44.21392939389764" lon="10.076558060650651"><ele>182.0</ele><time>2026-05-02T08:51:18.001Z</time></trkpt><trkpt lat="44.214021688835224" lon="10.076703991079473"><ele>185.0</ele><time>2026-05-02T08:51:19.001Z</time></trkpt><trkpt lat="44.21411604564911" lon="10.076856976828322"><ele>188.0</ele><time>2026-05-02T08:51:20.001Z</time></trkpt><trkpt lat="44.21421081555942" lon="10.077002419619125"><ele>191.0</ele><time>2026-05-02T08:51:21.001Z</time></trkpt><trkpt lat="44.21431066187005" lon="10.07715078590022"><ele>194.0</ele><time>2026-05-02T08:51:22.001Z</time></trkpt><trkpt lat="44.21440771421961" lon="10.077298791806921"><ele>192.75</ele><time>2026-05-02T08:51:23.001Z</time></trkpt><trkpt lat="44.214502654468" lon="10.077446267373887"><ele>191.5</ele><time>2026-05-02T08:51:24.001Z</time></trkpt><trkpt lat="44.21460460721174" lon="10.077579021053605"><ele>190.25</ele><time>2026-05-02T08:51:25.001Z</time></trkpt><trkpt lat="44.21472032785726" lon="10.077685278714041"><ele>189.0</ele><time>2026-05-02T08:51:26.001Z</time></trkpt><trkpt lat="44.21484587540895" lon="10.07776638885793"><ele>191.5</ele><time>2026-05-02T08:51:27.001Z</time></trkpt><trkpt lat="44.21496881333671" lon="10.077856729413066"><ele>194.0</ele><time>2026-05-02T08:51:28.001Z</time></trkpt><trkpt lat="44.21507229288087" lon="10.077975977467926"><ele>196.5</ele><time>2026-05-02T08:51:29.001Z</time></trkpt><trkpt lat="44.215147556098366" lon="10.078130143836079"><ele>199.0</ele><time>2026-05-02T08:51:30.001Z</time></trkpt><trkpt lat="44.21522612331735" lon="10.078302765369978"><ele>199.0</ele><time>2026-05-02T08:51:31.001Z</time></trkpt><trkpt lat="44.215314061928126" lon="10.078462955816214"><ele>199.0</ele><time>2026-05-02T08:51:32.001Z</time></trkpt><trkpt lat="44.21539440663036" lon="10.078625000875185"><ele>199.0</ele><time>2026-05-02T08:51:33.001Z</time></trkpt><trkpt lat="44.21548664355891" lon="10.078774944619624"><ele>199.0</ele><time>2026-05-02T08:51:34.001Z</time></trkpt><trkpt lat="44.21557981181121" lon="10.078926883034834"><ele>201.25</ele><time>2026-05-02T08:51:35.001Z</time></trkpt><trkpt lat="44.215678104476886" lon="10.079071746887406"><ele>203.5</ele><time>2026-05-02T08:51:36.001Z</time></trkpt><trkpt lat="44.21577351658918" lon="10.079209146791507"><ele>205.75</ele><time>2026-05-02T08:51:37.001Z</time></trkpt><trkpt lat="44.21586616643144" lon="10.079340356105067"><ele>208.0</ele><time>2026-05-02T08:51:38.001Z</time></trkpt><trkpt lat="44.21596069650604" lon="10.079472646020225"><ele>208.75</ele><time>2026-05-02T08:51:39.001Z</time></trkpt><trkpt lat="44.21605494420282" lon="10.079606074370261"><ele>209.5</ele><time>2026-05-02T08:51:40.001Z</time></trkpt><trkpt lat="44.216142904702416" lon="10.079755809935925"><ele>210.25</ele><time>2026-05-02T08:51:41.001Z</time></trkpt><trkpt lat="44.21622604437039" lon="10.079909858110135"><ele>211.0</ele><time>2026-05-02T08:51:42.001Z</time></trkpt><trkpt lat="44.21629217097212" lon="10.080082982652973"><ele>212.5</ele><time>2026-05-02T08:51:43.001Z</time></trkpt><trkpt lat="44.216365923353166" lon="10.080240330989636"><ele>214.0</ele><time>2026-05-02T08:51:44Z</time></trkpt><trkpt lat="44.2164349464361" lon="10.080406463975454"><ele>215.5</ele><time>2026-05-02T08:51:45Z</time></trkpt><trkpt lat="44.21650058452038" lon="10.080573255185707"><ele>217.0</ele><time>2026-05-02T08:51:46Z</time></trkpt><trkpt lat="44.216580315683444" lon="10.080724023308749"><ele>218.75</ele><time>2026-05-02T08:51:47Z</time></trkpt><trkpt lat="44.216649562174936" lon="10.080876967848559"><ele>220.5</ele><time>2026-05-02T08:51:48Z</time></trkpt><trkpt lat="44.21672951696751" lon="10.08102338735258"><ele>222.25</ele><time>2026-05-02T08:51:49Z</time></trkpt><trkpt lat="44.21682078552595" lon="10.081157229236792"><ele>224.0</ele><time>2026-05-02T08:51:50Z</time></trkpt><trkpt lat="44.21691904688992" lon="10.081286815972884"><ele>224.0</ele><time>2026-05-02T08:51:51Z</time></trkpt><trkpt lat="44.217020968066585" lon="10.081421596432987"><ele>224.0</ele><time>2026-05-02T08:51:52Z</time></trkpt><trkpt lat="44.217123229255364" lon="10.08154798365385"><ele>224.0</ele><time>2026-05-02T08:51:53Z</time></trkpt><trkpt lat="44.21721623761137" lon="10.081681135791975"><ele>224.0</ele><time>2026-05-02T08:51:54Z</time></trkpt><trkpt lat="44.2173119113993" lon="10.081805576763411"><ele>225.5</ele><time>2026-05-02T08:51:55Z</time></trkpt><trkpt lat="44.21741253069786" lon="10.081924824719868"><ele>227.0</ele><time>2026-05-02T08:51:56Z</time></trkpt><trkpt lat="44.21752102001467" lon="10.082044447779728"><ele>228.5</ele><time>2026-05-02T08:51:57Z</time></trkpt><trkpt lat="44.21763760830367" lon="10.082158979517926"><ele>230.0</ele><time>2026-05-02T08:51:58Z</time></trkpt><trkpt lat="44.217758465348176" lon="10.082258460584606"><ele>230.0</ele><time>2026-05-02T08:51:59Z</time></trkpt><trkpt lat="44.21787794844396" lon="10.082362193954332"><ele>230.0</ele><time>2026-05-02T08:52:00Z</time></trkpt><trkpt lat="44.21799526833395" lon="10.082466061611937"><ele>230.0</ele><time>2026-05-02T08:52:01Z</time></trkpt><trkpt lat="44.21811402314964" lon="10.082572975700376"><ele>230.0</ele><time>2026-05-02T08:52:02Z</time></trkpt><trkpt lat="44.21823016244032" lon="10.082684414208316"><ele>230.5</ele><time>2026-05-02T08:52:03Z</time></trkpt><trkpt lat="44.218334186047805" lon="10.082785255929373"><ele>231.0</ele><time>2026-05-02T08:52:04Z</time></trkpt><trkpt lat="44.21845619428165" lon="10.082888025764902"><ele>231.5</ele><time>2026-05-02T08:52:05Z</time></trkpt><trkpt lat="44.218580508863454" lon="10.082997946196162"><ele>232.0</ele><time>2026-05-02T08:52:06Z</time></trkpt><trkpt lat="44.21871058343698" lon="10.083122267414653"><ele>232.25</ele><time>2026-05-02T08:52:07Z</time></trkpt><trkpt lat="44.21885915448971" lon="10.083271045464013"><ele>232.5</ele><time>2026-05-02T08:52:08Z</time></trkpt><trkpt lat="44.21899851067369" lon="10.083410957414443"><ele>232.75</ele><time>2026-05-02T08:52:09Z</time></trkpt><trkpt lat="44.21907931406296" lon="10.083465552818929"><ele>233.0</ele><time>2026-05-02T08:52:10Z</time></trkpt><trkpt lat="44.21918735203505" lon="10.083560538192142"><ele>233.0</ele><time>2026-05-02T08:52:11Z</time></trkpt><trkpt lat="44.21930645390126" lon="10.083665711551786"><ele>233.0</ele><time>2026-05-02T08:52:12Z</time></trkpt><trkpt lat="44.2194183641981" lon="10.083782083349664"><ele>233.0</ele><time>2026-05-02T08:52:13Z</time></trkpt><trkpt lat="44.21953000279228" lon="10.083910059632137"><ele>233.0</ele><time>2026-05-02T08:52:14Z</time></trkpt><trkpt lat="44.219617048782005" lon="10.084021862838375"><ele>232.8</ele><time>2026-05-02T08:52:15Z</time></trkpt><trkpt lat="44.21970164210433" lon="10.084130244510236"><ele>232.60000000000002</ele><time>2026-05-02T08:52:16Z</time></trkpt><trkpt lat="44.219771180173986" lon="10.084238132095928"><ele>232.39999999999998</ele><time>2026-05-02T08:52:17Z</time></trkpt><trkpt lat="44.219816224634904" lon="10.084363904757028"><ele>232.2</ele><time>2026-05-02T08:52:18Z</time></trkpt><trkpt lat="44.219841818808696" lon="10.084501048472017"><ele>232.0</ele><time>2026-05-02T08:52:19Z</time></trkpt><trkpt lat="44.21983443286817" lon="10.084654696733718"><ele>231.75</ele><time>2026-05-02T08:52:20Z</time></trkpt><trkpt lat="44.21982735753537" lon="10.084796078660144"><ele>231.5</ele><time>2026-05-02T08:52:21Z</time></trkpt><trkpt lat="44.21981556086148" lon="10.084991621544896"><ele>231.25</ele><time>2026-05-02T08:52:22Z</time></trkpt><trkpt lat="44.219849634631075" lon="10.084805110458966"><ele>231.0</ele><time>2026-05-02T08:52:23Z</time></trkpt><trkpt lat="44.21994488483558" lon="10.084805254784625"><ele>231.0</ele><time>2026-05-02T08:52:24Z</time></trkpt><trkpt lat="44.220009171833155" lon="10.084691583140277"><ele>231.00000000000003</ele><time>2026-05-02T08:52:26Z</time></trkpt><trkpt lat="44.220033941171245" lon="10.084579953919341"><ele>231.00000000000003</ele><time>2026-05-02T08:52:27Z</time></trkpt><trkpt lat="44.220067874577545" lon="10.084443260823566"><ele>231.0</ele><time>2026-05-02T08:52:28Z</time></trkpt><trkpt lat="44.22012624836623" lon="10.084300420532669"><ele>231.0</ele><time>2026-05-02T08:52:29Z</time></trkpt><trkpt lat="44.220169447640366" lon="10.084179469601212"><ele>230.4</ele><time>2026-05-02T08:52:30Z</time></trkpt><trkpt lat="44.22020289553201" lon="10.084056353877749"><ele>229.8</ele><time>2026-05-02T08:52:31Z</time></trkpt><trkpt lat="44.22021598270846" lon="10.083925735867004"><ele>229.20000000000002</ele><time>2026-05-02T08:52:32Z</time></trkpt><trkpt lat="44.22019615765339" lon="10.083780324672308"><ele>228.60000000000002</ele><time>2026-05-02T08:52:33Z</time></trkpt><trkpt lat="44.2201706541084" lon="10.083622083965428"><ele>228.0</ele><time>2026-05-02T08:52:34Z</time></trkpt><trkpt lat="44.22015085170146" lon="10.083463017286512"><ele>228.0</ele><time>2026-05-02T08:52:35Z</time></trkpt><trkpt lat="44.22013523180847" lon="10.083296130648172"><ele>228.0</ele><time>2026-05-02T08:52:36Z</time></trkpt><trkpt lat="44.22012015192098" lon="10.083122346262249"><ele>228.0</ele><time>2026-05-02T08:52:37Z</time></trkpt><trkpt lat="44.22010716995076" lon="10.082955060381366"><ele>228.0</ele><time>2026-05-02T08:52:38Z</time></trkpt><trkpt lat="44.22009913038722" lon="10.082800975373825"><ele>226.5</ele><time>2026-05-02T08:52:39Z</time></trkpt><trkpt lat="44.22008952020325" lon="10.082641126975965"><ele>225.0</ele><time>2026-05-02T08:52:40Z</time></trkpt><trkpt lat="44.22007667050422" lon="10.082473649263564"><ele>223.5</ele><time>2026-05-02T08:52:41Z</time></trkpt><trkpt lat="44.220060532269585" lon="10.08230790548917"><ele>222.0</ele><time>2026-05-02T08:52:42Z</time></trkpt><trkpt lat="44.2200308762117" lon="10.082149345405952"><ele>220.0</ele><time>2026-05-02T08:52:43Z</time></trkpt><trkpt lat="44.21998823956917" lon="10.08200053024423"><ele>218.0</ele><time>2026-05-02T08:52:44Z</time></trkpt><trkpt lat="44.21994125783102" lon="10.081856408091104"><ele>216.0</ele><time>2026-05-02T08:52:45Z</time></trkpt><trkpt lat="44.21989850700723" lon="10.081713547417536"><ele>214.0</ele><time>2026-05-02T08:52:46Z</time></trkpt><trkpt lat="44.21985094350341" lon="10.081570999486647"><ele>212.79999999999998</ele><time>2026-05-02T08:52:47Z</time></trkpt><trkpt lat="44.21979846705635" lon="10.081432729498712"><ele>211.59999999999997</ele><time>2026-05-02T08:52:48Z</time></trkpt><trkpt lat="44.219743305843394" lon="10.081295836401821"><ele>210.4</ele><time>2026-05-02T08:52:49Z</time></trkpt><trkpt lat="44.21968143814643" lon="10.081163714181672"><ele>209.2</ele><time>2026-05-02T08:52:50Z</time></trkpt><trkpt lat="44.21962544775951" lon="10.081041303773148"><ele>208.0</ele><time>2026-05-02T08:52:51Z</time></trkpt><trkpt lat="44.21955876609793" lon="10.080937585778877"><ele>208.0</ele><time>2026-05-02T08:52:52Z</time></trkpt><trkpt lat="44.21947295034058" lon="10.080883361970956"><ele>208.0</ele><time>2026-05-02T08:52:53Z</time></trkpt><trkpt lat="44.219381429573254" lon="10.080844621777432"><ele>208.0</ele><time>2026-05-02T08:52:54Z</time></trkpt><trkpt lat="44.21928114572946" lon="10.080834677405157"><ele>208.0</ele><time>2026-05-02T08:52:55Z</time></trkpt><trkpt lat="44.21921989037852" lon="10.080799958926704"><ele>208.0</ele><time>2026-05-02T08:52:56Z</time></trkpt><trkpt lat="44.21917682862961" lon="10.080668155807098"><ele>208.0</ele><time>2026-05-02T08:52:58Z</time></trkpt><trkpt lat="44.21922917322625" lon="10.080587571453123"><ele>208.0</ele><time>2026-05-02T08:52:59Z</time></trkpt><trkpt lat="44.21931370391722" lon="10.080560803579123"><ele>208.0</ele><time>2026-05-02T08:53:00Z</time></trkpt><trkpt lat="44.21940513824905" lon="10.08059828374016"><ele>208.0</ele><time>2026-05-02T08:53:01Z</time></trkpt><trkpt lat="44.21950355096771" lon="10.080680095929209"><ele>208.0</ele><time>2026-05-02T08:53:02Z</time></trkpt><trkpt lat="44.21960932591764" lon="10.080780227627594"><ele>208.0</ele><time>2026-05-02T08:53:03Z</time></trkpt><trkpt lat="44.219704600205986" lon="10.080868085684468"><ele>208.0</ele><time>2026-05-02T08:53:04.001Z</time></trkpt><trkpt lat="44.219796081624196" lon="10.080951485422661"><ele>208.0</ele><time>2026-05-02T08:53:05.001Z</time></trkpt><trkpt lat="44.219888800569535" lon="10.081054702724114"><ele>208.0</ele><time>2026-05-02T08:53:06.001Z</time></trkpt><trkpt lat="44.21997682087472" lon="10.081187546217768"><ele>206.25</ele><time>2026-05-02T08:53:07.001Z</time></trkpt><trkpt lat="44.220072360549544" lon="10.081308671456863"><ele>204.5</ele><time>2026-05-02T08:53:08.001Z</time></trkpt><trkpt lat="44.2201729044606" lon="10.081401453587283"><ele>202.75</ele><time>2026-05-02T08:53:09.001Z</time></trkpt><trkpt lat="44.220268729415174" lon="10.081487567973499"><ele>201.0</ele><time>2026-05-02T08:53:10.001Z</time></trkpt><trkpt lat="44.220358539468066" lon="10.081587077016149"><ele>202.20000000000002</ele><time>2026-05-02T08:53:11.001Z</time></trkpt><trkpt lat="44.22043701957236" lon="10.081702192131054"><ele>203.4</ele><time>2026-05-02T08:53:12.001Z</time></trkpt><trkpt lat="44.22050864637428" lon="10.08182134902207"><ele>204.6</ele><time>2026-05-02T08:53:13.001Z</time></trkpt><trkpt lat="44.220578857434425" lon="10.081927144994486"><ele>205.8</ele><time>2026-05-02T08:53:14.001Z</time></trkpt><trkpt lat="44.22064693499692" lon="10.082000702702418"><ele>207.0</ele><time>2026-05-02T08:53:15.001Z</time></trkpt><trkpt lat="44.22071759689994" lon="10.082032803380363"><ele>207.0</ele><time>2026-05-02T08:53:16.001Z</time></trkpt><trkpt lat="44.22079786318124" lon="10.08202396456847"><ele>207.0</ele><time>2026-05-02T08:53:17.001Z</time></trkpt><trkpt lat="44.22086794358444" lon="10.081971920965286"><ele>207.0</ele><time>2026-05-02T08:53:18.001Z</time></trkpt><trkpt lat="44.220916729119416" lon="10.081887546359258"><ele>207.0</ele><time>2026-05-02T08:53:19.001Z</time></trkpt><trkpt lat="44.22093810086737" lon="10.081762935031048"><ele>207.0</ele><time>2026-05-02T08:53:20.001Z</time></trkpt><trkpt lat="44.220926003268495" lon="10.08162359206968"><ele>207.0</ele><time>2026-05-02T08:53:21.001Z</time></trkpt><trkpt lat="44.220881623789325" lon="10.081479742287804"><ele>207.0</ele><time>2026-05-02T08:53:22.001Z</time></trkpt><trkpt lat="44.22085012782791" lon="10.081315468966167"><ele>207.0</ele><time>2026-05-02T08:53:23.001Z</time></trkpt><trkpt lat="44.22082108865685" lon="10.08117222232233"><ele>207.0</ele><time>2026-05-02T08:53:24.001Z</time></trkpt><trkpt lat="44.22081994865888" lon="10.081055014347415"><ele>207.0</ele><time>2026-05-02T08:53:25.001Z</time></trkpt><trkpt lat="44.220857219339194" lon="10.08094139874778"><ele>207.0</ele><time>2026-05-02T08:53:26.001Z</time></trkpt><trkpt lat="44.220871399194785" lon="10.08081033643871"><ele>208.0</ele><time>2026-05-02T08:53:27.001Z</time></trkpt><trkpt lat="44.22090509879008" lon="10.080676684047948"><ele>209.0</ele><time>2026-05-02T08:53:28.001Z</time></trkpt><trkpt lat="44.2208566014826" lon="10.080527366971083"><ele>210.0</ele><time>2026-05-02T08:53:29Z</time></trkpt><trkpt lat="44.2207942563852" lon="10.080392191783767"><ele>211.0</ele><time>2026-05-02T08:53:30Z</time></trkpt><trkpt lat="44.22075001795201" lon="10.080265517664595"><ele>212.0</ele><time>2026-05-02T08:53:31Z</time></trkpt><trkpt lat="44.22077779602838" lon="10.080127823311152"><ele>212.0</ele><time>2026-05-02T08:53:32Z</time></trkpt><trkpt lat="44.22080051582996" lon="10.079972319566284"><ele>212.0</ele><time>2026-05-02T08:53:33Z</time></trkpt><trkpt lat="44.22079816602774" lon="10.079817174994378"><ele>212.0</ele><time>2026-05-02T08:53:34Z</time></trkpt><trkpt lat="44.22077830417766" lon="10.079684534516662"><ele>212.0</ele><time>2026-05-02T08:53:35Z</time></trkpt><trkpt lat="44.220722478772814" lon="10.079571657239134"><ele>212.0</ele><time>2026-05-02T08:53:36Z</time></trkpt><trkpt lat="44.22063610830464" lon="10.07947689258816"><ele>212.0</ele><time>2026-05-02T08:53:37Z</time></trkpt><trkpt lat="44.22055043945723" lon="10.079399780807154"><ele>212.0</ele><time>2026-05-02T08:53:38Z</time></trkpt><trkpt lat="44.2204981962778" lon="10.079294842622181"><ele>212.0</ele><time>2026-05-02T08:53:39Z</time></trkpt><trkpt lat="44.22048407737395" lon="10.079156397905606"><ele>212.0</ele><time>2026-05-02T08:53:40Z</time></trkpt><trkpt lat="44.22048680296932" lon="10.078989335880651"><ele>212.0</ele><time>2026-05-02T08:53:41Z</time></trkpt><trkpt lat="44.22050656781087" lon="10.078814408537626"><ele>212.0</ele><time>2026-05-02T08:53:42Z</time></trkpt><trkpt lat="44.220540921652265" lon="10.07863085628804"><ele>212.0</ele><time>2026-05-02T08:53:43Z</time></trkpt><trkpt lat="44.22057088519332" lon="10.0784398234634"><ele>212.0</ele><time>2026-05-02T08:53:44Z</time></trkpt><trkpt lat="44.22059024346983" lon="10.078244281688816"><ele>212.0</ele><time>2026-05-02T08:53:45Z</time></trkpt><trkpt lat="44.22061820732861" lon="10.078052986782598"><ele>214.0</ele><time>2026-05-02T08:53:46Z</time></trkpt><trkpt lat="44.220661405954004" lon="10.077887034060232"><ele>216.0</ele><time>2026-05-02T08:53:47Z</time></trkpt><trkpt lat="44.220705949515015" lon="10.07774403048896"><ele>218.0</ele><time>2026-05-02T08:53:48Z</time></trkpt><trkpt lat="44.22074040423557" lon="10.077633393275441"><ele>220.0</ele><time>2026-05-02T08:53:49Z</time></trkpt><trkpt lat="44.22079355424254" lon="10.077485712769576"><ele>222.0</ele><time>2026-05-02T08:53:51Z</time></trkpt><trkpt lat="44.220832620740424" lon="10.077409104763856"><ele>223.0</ele><time>2026-05-02T08:53:54Z</time></trkpt><trkpt lat="44.22073615854472" lon="10.077321764611774"><ele>224.0</ele><time>2026-05-02T08:54:35Z</time></trkpt><trkpt lat="44.220677579816154" lon="10.077275863999288"><ele>225.0</ele><time>2026-05-02T08:54:37Z</time></trkpt><trkpt lat="44.220617344434636" lon="10.077222520356925"><ele>226.0</ele><time>2026-05-02T08:54:39Z</time></trkpt><trkpt lat="44.22051174066452" lon="10.077126096225953"><ele>227.0</ele><time>2026-05-02T08:54:41Z</time></trkpt><trkpt lat="44.22046835280227" lon="10.07705867984862"><ele>228.0</ele><time>2026-05-02T08:54:42Z</time></trkpt><trkpt lat="44.22040192703701" lon="10.076930084115755"><ele>228.0</ele><time>2026-05-02T08:54:44Z</time></trkpt><trkpt lat="44.2203263909787" lon="10.0768382688443"><ele>228.0</ele><time>2026-05-02T08:54:46Z</time></trkpt><trkpt lat="44.22029430586451" lon="10.076758800809603"><ele>228.0</ele><time>2026-05-02T08:54:47Z</time></trkpt><trkpt lat="44.22023686173912" lon="10.076699663994614"><ele>228.0</ele><time>2026-05-02T08:54:48Z</time></trkpt><trkpt lat="44.220181194630825" lon="10.076610944936284"><ele>228.0</ele><time>2026-05-02T08:54:49Z</time></trkpt><trkpt lat="44.22013178836464" lon="10.0765304290219"><ele>228.0</ele><time>2026-05-02T08:54:50Z</time></trkpt><trkpt lat="44.2200664935674" lon="10.076485377287849"><ele>228.0</ele><time>2026-05-02T08:54:51Z</time></trkpt><trkpt lat="44.22000185478727" lon="10.076429450620417"><ele>228.0</ele><time>2026-05-02T08:54:52Z</time></trkpt><trkpt lat="44.219919078719755" lon="10.076397848544817"><ele>228.0</ele><time>2026-05-02T08:54:53Z</time></trkpt><trkpt lat="44.21985265359238" lon="10.076340055584875"><ele>228.0</ele><time>2026-05-02T08:54:54Z</time></trkpt><trkpt lat="44.21979303676488" lon="10.076267754876651"><ele>228.0</ele><time>2026-05-02T08:54:55Z</time></trkpt><trkpt lat="44.21971993179651" lon="10.076231927119858"><ele>228.0</ele><time>2026-05-02T08:54:56Z</time></trkpt><trkpt lat="44.21964144182459" lon="10.076167391372914"><ele>228.16666666666666</ele><time>2026-05-02T08:54:57Z</time></trkpt><trkpt lat="44.21956377351464" lon="10.07609037692912"><ele>228.33333333333331</ele><time>2026-05-02T08:54:58Z</time></trkpt><trkpt lat="44.219502777708904" lon="10.076011929293141"><ele>228.5</ele><time>2026-05-02T08:54:59Z</time></trkpt><trkpt lat="44.219451691677946" lon="10.075910794072879"><ele>228.66666666666666</ele><time>2026-05-02T08:55:00Z</time></trkpt><trkpt lat="44.21938878394854" lon="10.07581612412818"><ele>228.83333333333331</ele><time>2026-05-02T08:55:01Z</time></trkpt><trkpt lat="44.2193293094938" lon="10.075725797024726"><ele>229.0</ele><time>2026-05-02T08:55:02Z</time></trkpt><trkpt lat="44.21926869118363" lon="10.075630423288446"><ele>229.0</ele><time>2026-05-02T08:55:03Z</time></trkpt><trkpt lat="44.21920704885199" lon="10.075554600410713"><ele>228.99999999999997</ele><time>2026-05-02T08:55:04Z</time></trkpt><trkpt lat="44.21914484405765" lon="10.075451647185554"><ele>228.99999999999997</ele><time>2026-05-02T08:55:05Z</time></trkpt><trkpt lat="44.21909170844586" lon="10.075359400340966"><ele>229.0</ele><time>2026-05-02T08:55:06Z</time></trkpt><trkpt lat="44.219037457303514" lon="10.075265580678339"><ele>229.0</ele><time>2026-05-02T08:55:07Z</time></trkpt><trkpt lat="44.218961383888214" lon="10.075151818785432"><ele>228.6</ele><time>2026-05-02T08:55:08Z</time></trkpt><trkpt lat="44.218892074007954" lon="10.075044476026813"><ele>228.2</ele><time>2026-05-02T08:55:09Z</time></trkpt><trkpt lat="44.21882423801609" lon="10.074937843728375"><ele>227.79999999999998</ele><time>2026-05-02T08:55:10.001Z</time></trkpt><trkpt lat="44.21877142848491" lon="10.07482132815286"><ele>227.39999999999998</ele><time>2026-05-02T08:55:11.001Z</time></trkpt><trkpt lat="44.21872647212503" lon="10.07475060329898"><ele>227.0</ele><time>2026-05-02T08:55:12.001Z</time></trkpt><trkpt lat="44.21866830242025" lon="10.074659091370261"><ele>227.0</ele><time>2026-05-02T08:55:13.001Z</time></trkpt><trkpt lat="44.218598045538506" lon="10.074544396901286"><ele>227.0</ele><time>2026-05-02T08:55:14.001Z</time></trkpt><trkpt lat="44.2185528258369" lon="10.074468456762375"><ele>227.0</ele><time>2026-05-02T08:55:15.001Z</time></trkpt><trkpt lat="44.21851285893019" lon="10.074397917580425"><ele>227.0</ele><time>2026-05-02T08:55:16.001Z</time></trkpt><trkpt lat="44.21844679751315" lon="10.074260480772544"><ele>227.0</ele><time>2026-05-02T08:55:18.001Z</time></trkpt><trkpt lat="44.218420902083444" lon="10.074141100310168"><ele>226.66666666666669</ele><time>2026-05-02T08:55:19.001Z</time></trkpt><trkpt lat="44.218402214223" lon="10.074024157752518"><ele>226.33333333333334</ele><time>2026-05-02T08:55:20.001Z</time></trkpt><trkpt lat="44.21837849540771" lon="10.073895798896745"><ele>226.0</ele><time>2026-05-02T08:55:21.001Z</time></trkpt><trkpt lat="44.21836732529377" lon="10.073802147740196"><ele>225.66666666666669</ele><time>2026-05-02T08:55:22.001Z</time></trkpt><trkpt lat="44.21835390471998" lon="10.073692305451681"><ele>225.33333333333334</ele><time>2026-05-02T08:55:23.001Z</time></trkpt><trkpt lat="44.21833923161224" lon="10.073580010987596"><ele>225.0</ele><time>2026-05-02T08:55:24.001Z</time></trkpt><trkpt lat="44.21831695396956" lon="10.073400886046898"><ele>225.0</ele><time>2026-05-02T08:55:26Z</time></trkpt><trkpt lat="44.218304732043336" lon="10.073301395947604"><ele>225.0</ele><time>2026-05-02T08:55:27Z</time></trkpt><trkpt lat="44.21828395876416" lon="10.073130040248053"><ele>225.0</ele><time>2026-05-02T08:55:29Z</time></trkpt><trkpt lat="44.21827113497284" lon="10.0729513723137"><ele>225.0</ele><time>2026-05-02T08:55:31Z</time></trkpt><trkpt lat="44.21825653239317" lon="10.07285097685228"><ele>225.0</ele><time>2026-05-02T08:55:32Z</time></trkpt><trkpt lat="44.21824123149625" lon="10.072745780326251"><ele>224.0</ele><time>2026-05-02T08:55:33Z</time></trkpt><trkpt lat="44.218227180716674" lon="10.072647316880524"><ele>223.0</ele><time>2026-05-02T08:55:34Z</time></trkpt><trkpt lat="44.21821238279449" lon="10.072554779515945"><ele>222.0</ele><time>2026-05-02T08:55:35Z</time></trkpt><trkpt lat="44.21819742982244" lon="10.072463607162533"><ele>221.0</ele><time>2026-05-02T08:55:36Z</time></trkpt><trkpt lat="44.21817799406623" lon="10.072352439544568"><ele>220.0</ele><time>2026-05-02T08:55:37Z</time></trkpt><trkpt lat="44.21815185651084" lon="10.072217355554516"><ele>219.0</ele><time>2026-05-02T08:55:38Z</time></trkpt><trkpt lat="44.21812227996324" lon="10.07208376644962"><ele>215.0</ele><time>2026-05-02T08:55:39Z</time></trkpt><trkpt lat="44.218097918056436" lon="10.071980022980425"><ele>215.0</ele><time>2026-05-02T08:55:40Z</time></trkpt><trkpt lat="44.21806836276106" lon="10.071879119017781"><ele>215.0</ele><time>2026-05-02T08:55:41Z</time></trkpt><trkpt lat="44.218043311016004" lon="10.071793705564202"><ele>215.0</ele><time>2026-05-02T08:55:42Z</time></trkpt><trkpt lat="44.218010714179755" lon="10.071677088622913"><ele>215.0</ele><time>2026-05-02T08:55:44Z</time></trkpt></trkseg><trkseg><trkpt lat="44.22999480835679" lon="10.097071894286561"><ele>359.0</ele><time>2026-05-02T09:22:27.999Z</time></trkpt><trkpt lat="44.23002071381682" lon="10.097167188993767"><ele>359.0</ele><time>2026-05-02T09:23:37Z</time></trkpt><trkpt lat="44.23004263854824" lon="10.097285414923949"><ele>359.0</ele><time>2026-05-02T09:23:39Z</time></trkpt><trkpt lat="44.23005619870021" lon="10.097399154530791"><ele>359.0</ele><time>2026-05-02T09:23:41Z</time></trkpt><trkpt lat="44.2300691480157" lon="10.097511791632396"><ele>359.0</ele><time>2026-05-02T09:23:43Z</time></trkpt><trkpt lat="44.230079257988216" lon="10.097632801116683"><ele>359.0</ele><time>2026-05-02T09:23:45Z</time></trkpt><trkpt lat="44.2300933123165" lon="10.097764425842762"><ele>358.6</ele><time>2026-05-02T09:23:47Z</time></trkpt><trkpt lat="44.23007468676412" lon="10.097926881393828"><ele>358.2</ele><time>2026-05-02T09:23:49Z</time></trkpt><trkpt lat="44.22996632625177" lon="10.098041596072694"><ele>357.8</ele><time>2026-05-02T09:23:51Z</time></trkpt><trkpt lat="44.22987090717193" lon="10.098063905482826"><ele>357.40000000000003</ele><time>2026-05-02T09:23:51.999Z</time></trkpt><trkpt lat="44.22978266651097" lon="10.098069432151354"><ele>357.0</ele><time>2026-05-02T09:23:52.999Z</time></trkpt><trkpt lat="44.229704349414256" lon="10.098074911947826"><ele>356.0</ele><time>2026-05-02T09:23:53.999Z</time></trkpt><trkpt lat="44.22962437183938" lon="10.098087118015055"><ele>355.0</ele><time>2026-05-02T09:23:54.999Z</time></trkpt><trkpt lat="44.22954647141986" lon="10.098118474017722"><ele>354.0</ele><time>2026-05-02T09:23:55.999Z</time></trkpt><trkpt lat="44.22947013427797" lon="10.098157525167714"><ele>353.0</ele><time>2026-05-02T09:23:56.999Z</time></trkpt><trkpt lat="44.22939054651576" lon="10.098192857395805"><ele>352.0</ele><time>2026-05-02T09:23:57.999Z</time></trkpt><trkpt lat="44.22930991511325" lon="10.09822760754309"><ele>351.0</ele><time>2026-05-02T09:23:58.999Z</time></trkpt><trkpt lat="44.2292321704112" lon="10.098256115695072"><ele>351.0</ele><time>2026-05-02T09:23:59.999Z</time></trkpt><trkpt lat="44.22915434643218" lon="10.098277333343136"><ele>351.0</ele><time>2026-05-02T09:24:00.999Z</time></trkpt><trkpt lat="44.22907337839081" lon="10.098293776253602"><ele>351.0</ele><time>2026-05-02T09:24:01.999Z</time></trkpt><trkpt lat="44.22899309570894" lon="10.098283538619745"><ele>351.0</ele><time>2026-05-02T09:24:02.999Z</time></trkpt><trkpt lat="44.22891099980484" lon="10.09824397183973"><ele>351.0</ele><time>2026-05-02T09:24:03.999Z</time></trkpt><trkpt lat="44.22883421034538" lon="10.098176978550113"><ele>351.0</ele><time>2026-05-02T09:24:04.999Z</time></trkpt><trkpt lat="44.22875665989999" lon="10.098104373715056"><ele>346.0</ele><time>2026-05-02T09:24:05.999Z</time></trkpt><trkpt lat="44.228671791989385" lon="10.098033048754514"><ele>341.0</ele><time>2026-05-02T09:24:06.999Z</time></trkpt><trkpt lat="44.22858169434954" lon="10.097982883757538"><ele>336.0</ele><time>2026-05-02T09:24:07.999Z</time></trkpt><trkpt lat="44.22847147621098" lon="10.097959387399984"><ele>331.0</ele><time>2026-05-02T09:24:08.999Z</time></trkpt><trkpt lat="44.22835684119562" lon="10.097952297991649"><ele>326.0</ele><time>2026-05-02T09:24:09.999Z</time></trkpt><trkpt lat="44.228248839217144" lon="10.09795461809781"><ele>326.0</ele><time>2026-05-02T09:24:10.999Z</time></trkpt><trkpt lat="44.228148205053856" lon="10.097964434005862"><ele>326.0</ele><time>2026-05-02T09:24:11.999Z</time></trkpt><trkpt lat="44.22805927924046" lon="10.09798126094"><ele>326.0</ele><time>2026-05-02T09:24:12.999Z</time></trkpt><trkpt lat="44.2279794894902" lon="10.097995433336969"><ele>326.0</ele><time>2026-05-02T09:24:13.999Z</time></trkpt><trkpt lat="44.22790500588852" lon="10.098011569608545"><ele>326.0</ele><time>2026-05-02T09:24:14.999Z</time></trkpt><trkpt lat="44.22783523884283" lon="10.098048879535508"><ele>326.0</ele><time>2026-05-02T09:24:15.999Z</time></trkpt><trkpt lat="44.22779188571832" lon="10.09812866598594"><ele>325.6</ele><time>2026-05-02T09:24:16.999Z</time></trkpt><trkpt lat="44.22778347408048" lon="10.09822419753213"><ele>325.20000000000005</ele><time>2026-05-02T09:24:17.999Z</time></trkpt><trkpt lat="44.227811948352965" lon="10.098326047041304"><ele>324.79999999999995</ele><time>2026-05-02T09:24:18.999Z</time></trkpt><trkpt lat="44.22787345656471" lon="10.098436283381606"><ele>324.4</ele><time>2026-05-02T09:24:19.999Z</time></trkpt><trkpt lat="44.22794319143844" lon="10.098561646862258"><ele>324.0</ele><time>2026-05-02T09:24:20.999Z</time></trkpt><trkpt lat="44.228002194878336" lon="10.098686746482642"><ele>324.0</ele><time>2026-05-02T09:24:21.999Z</time></trkpt><trkpt lat="44.228048423981086" lon="10.098814241595218"><ele>324.0</ele><time>2026-05-02T09:24:22.999Z</time></trkpt><trkpt lat="44.228085281883125" lon="10.098949557417574"><ele>324.0</ele><time>2026-05-02T09:24:23.999Z</time></trkpt><trkpt lat="44.228104484708744" lon="10.09908450403857"><ele>324.0</ele><time>2026-05-02T09:24:24.999Z</time></trkpt><trkpt lat="44.22808550658804" lon="10.09922337765394"><ele>324.0</ele><time>2026-05-02T09:24:25.999Z</time></trkpt><trkpt lat="44.228032159650624" lon="10.099330011150204"><ele>322.3333333333333</ele><time>2026-05-02T09:24:26.999Z</time></trkpt><trkpt lat="44.227961486945425" lon="10.099434174582132"><ele>320.6666666666667</ele><time>2026-05-02T09:24:27.999Z</time></trkpt><trkpt lat="44.22789106974302" lon="10.099526002181003"><ele>319.0</ele><time>2026-05-02T09:24:28.999Z</time></trkpt><trkpt lat="44.2278286819574" lon="10.099606836357102"><ele>317.33333333333337</ele><time>2026-05-02T09:24:29.999Z</time></trkpt><trkpt lat="44.22777820600015" lon="10.09969221737977"><ele>315.6666666666667</ele><time>2026-05-02T09:24:30.999Z</time></trkpt><trkpt lat="44.22774488895277" lon="10.099796080472673"><ele>314.0</ele><time>2026-05-02T09:24:31.999Z</time></trkpt><trkpt lat="44.22773380306166" lon="10.099920056962347"><ele>314.0</ele><time>2026-05-02T09:24:33Z</time></trkpt><trkpt lat="44.227740644988266" lon="10.100045946498899"><ele>314.0</ele><time>2026-05-02T09:24:34Z</time></trkpt><trkpt lat="44.22775054594514" lon="10.10017868014616"><ele>314.0</ele><time>2026-05-02T09:24:35Z</time></trkpt><trkpt lat="44.227762029230874" lon="10.100306038525913"><ele>314.0</ele><time>2026-05-02T09:24:36Z</time></trkpt><trkpt lat="44.22778770180931" lon="10.10042413526955"><ele>314.0</ele><time>2026-05-02T09:24:37Z</time></trkpt><trkpt lat="44.22783932368841" lon="10.100527576919172"><ele>314.0</ele><time>2026-05-02T09:24:38Z</time></trkpt><trkpt lat="44.227906751178466" lon="10.10062656717721"><ele>314.0</ele><time>2026-05-02T09:24:39Z</time></trkpt><trkpt lat="44.22798538400046" lon="10.100721289044932"><ele>314.0</ele><time>2026-05-02T09:24:40Z</time></trkpt><trkpt lat="44.228066542149286" lon="10.100813479066963"><ele>314.0</ele><time>2026-05-02T09:24:41Z</time></trkpt><trkpt lat="44.22814894050755" lon="10.100904439099068"><ele>314.0</ele><time>2026-05-02T09:24:42Z</time></trkpt><trkpt lat="44.22823522101659" lon="10.100984118975537"><ele>315.75</ele><time>2026-05-02T09:24:43Z</time></trkpt><trkpt lat="44.22834374464771" lon="10.101048055665284"><ele>317.5</ele><time>2026-05-02T09:24:44Z</time></trkpt><trkpt lat="44.22846269737757" lon="10.101107498320685"><ele>319.25</ele><time>2026-05-02T09:24:45Z</time></trkpt><trkpt lat="44.22857365533723" lon="10.101161160864905"><ele>321.0</ele><time>2026-05-02T09:24:46Z</time></trkpt><trkpt lat="44.22868287055361" lon="10.101211657732696"><ele>321.0</ele><time>2026-05-02T09:24:47Z</time></trkpt><trkpt lat="44.228789116485494" lon="10.101263788691563"><ele>321.0</ele><time>2026-05-02T09:24:48Z</time></trkpt><trkpt lat="44.22889344901804" lon="10.101312897212772"><ele>321.0</ele><time>2026-05-02T09:24:49Z</time></trkpt><trkpt lat="44.22900160878972" lon="10.10134999579606"><ele>321.0</ele><time>2026-05-02T09:24:50Z</time></trkpt><trkpt lat="44.22911383602523" lon="10.101411484841249"><ele>325.75</ele><time>2026-05-02T09:24:51Z</time></trkpt><trkpt lat="44.22923487461758" lon="10.101467417042379"><ele>330.5</ele><time>2026-05-02T09:24:52Z</time></trkpt><trkpt lat="44.22938611485793" lon="10.10151472131056"><ele>335.25</ele><time>2026-05-02T09:24:53Z</time></trkpt><trkpt lat="44.229552377788536" lon="10.101515681133076"><ele>340.0</ele><time>2026-05-02T09:24:54Z</time></trkpt><trkpt lat="44.22972195623691" lon="10.101502359962828"><ele>340.0</ele><time>2026-05-02T09:24:55Z</time></trkpt><trkpt lat="44.22962673264284" lon="10.101506520682033"><ele>340.0</ele><time>2026-05-02T09:24:56Z</time></trkpt><trkpt lat="44.229730649647394" lon="10.101491271134474"><ele>340.0</ele><time>2026-05-02T09:24:57Z</time></trkpt><trkpt lat="44.22982482872268" lon="10.101502264518087"><ele>340.0</ele><time>2026-05-02T09:24:58Z</time></trkpt><trkpt lat="44.22990438772405" lon="10.101504935983321"><ele>340.0</ele><time>2026-05-02T09:24:59Z</time></trkpt><trkpt lat="44.22994973433231" lon="10.101593941845763"><ele>335.2</ele><time>2026-05-02T09:25:00Z</time></trkpt><trkpt lat="44.22991967692353" lon="10.101714203799546"><ele>330.4</ele><time>2026-05-02T09:25:01Z</time></trkpt><trkpt lat="44.22989137213125" lon="10.10181131188537"><ele>325.6</ele><time>2026-05-02T09:25:02Z</time></trkpt><trkpt lat="44.22981271928912" lon="10.10191633441492"><ele>320.8</ele><time>2026-05-02T09:25:03Z</time></trkpt><trkpt lat="44.22972884330603" lon="10.102069198515808"><ele>316.0</ele><time>2026-05-02T09:25:04Z</time></trkpt><trkpt lat="44.229637882470605" lon="10.102200295160248"><ele>313.0</ele><time>2026-05-02T09:25:05Z</time></trkpt><trkpt lat="44.22954493590676" lon="10.102298021915695"><ele>310.0</ele><time>2026-05-02T09:25:06Z</time></trkpt><trkpt lat="44.229446048246444" lon="10.10236826852648"><ele>307.0</ele><time>2026-05-02T09:25:07Z</time></trkpt><trkpt lat="44.22932420530332" lon="10.10241767463599"><ele>304.0</ele><time>2026-05-02T09:25:08Z</time></trkpt><trkpt lat="44.229192331345395" lon="10.102471350239064"><ele>303.0</ele><time>2026-05-02T09:25:09Z</time></trkpt><trkpt lat="44.22906812472089" lon="10.10254883957893"><ele>302.0</ele><time>2026-05-02T09:25:10Z</time></trkpt><trkpt lat="44.228945887414085" lon="10.102596250678275"><ele>301.0</ele><time>2026-05-02T09:25:11Z</time></trkpt><trkpt lat="44.22883640220122" lon="10.102648649485985"><ele>300.0</ele><time>2026-05-02T09:25:12Z</time></trkpt><trkpt lat="44.22873805067685" lon="10.102688610310388"><ele>296.4</ele><time>2026-05-02T09:25:13Z</time></trkpt><trkpt lat="44.228641844825255" lon="10.102725340380731"><ele>292.8</ele><time>2026-05-02T09:25:14Z</time></trkpt><trkpt lat="44.22855178496607" lon="10.102756126266407"><ele>289.2</ele><time>2026-05-02T09:25:15Z</time></trkpt><trkpt lat="44.22846550090346" lon="10.102782313140775"><ele>285.6</ele><time>2026-05-02T09:25:16Z</time></trkpt><trkpt lat="44.22837501346842" lon="10.102806877752084"><ele>282.0</ele><time>2026-05-02T09:25:17Z</time></trkpt><trkpt lat="44.22827342315741" lon="10.10284086368652"><ele>282.0</ele><time>2026-05-02T09:25:18Z</time></trkpt><trkpt lat="44.22816455730202" lon="10.10289321954108"><ele>282.0</ele><time>2026-05-02T09:25:19Z</time></trkpt><trkpt lat="44.228050736129035" lon="10.102939897931362"><ele>282.0</ele><time>2026-05-02T09:25:20Z</time></trkpt><trkpt lat="44.22792979107448" lon="10.102988142307117"><ele>282.0</ele><time>2026-05-02T09:25:21Z</time></trkpt><trkpt lat="44.22781072170814" lon="10.103029686023946"><ele>279.4</ele><time>2026-05-02T09:25:22Z</time></trkpt><trkpt lat="44.22770018015079" lon="10.103062468110215"><ele>276.79999999999995</ele><time>2026-05-02T09:25:23Z</time></trkpt><trkpt lat="44.2275892251693" lon="10.1030943990769"><ele>274.2</ele><time>2026-05-02T09:25:24Z</time></trkpt><trkpt lat="44.22748426312842" lon="10.103124349096728"><ele>271.59999999999997</ele><time>2026-05-02T09:25:25Z</time></trkpt><trkpt lat="44.22738641572603" lon="10.103164939015649"><ele>269.0</ele><time>2026-05-02T09:25:26Z</time></trkpt><trkpt lat="44.22729460497724" lon="10.103223578142574"><ele>266.8</ele><time>2026-05-02T09:25:27Z</time></trkpt><trkpt lat="44.22721974514391" lon="10.103305148506022"><ele>264.59999999999997</ele><time>2026-05-02T09:25:28Z</time></trkpt><trkpt lat="44.22716694931493" lon="10.103420410118586"><ele>262.4</ele><time>2026-05-02T09:25:29Z</time></trkpt><trkpt lat="44.22713104881229" lon="10.10355350006632"><ele>260.2</ele><time>2026-05-02T09:25:30Z</time></trkpt><trkpt lat="44.227086606774044" lon="10.103705058891045"><ele>258.0</ele><time>2026-05-02T09:25:31Z</time></trkpt><trkpt lat="44.22702582427372" lon="10.103843328113857"><ele>258.0</ele><time>2026-05-02T09:25:32Z</time></trkpt><trkpt lat="44.22695233436036" lon="10.103966570580607"><ele>258.0</ele><time>2026-05-02T09:25:33Z</time></trkpt><trkpt lat="44.22688689452442" lon="10.10409145701679"><ele>258.0</ele><time>2026-05-02T09:25:34Z</time></trkpt><trkpt lat="44.22683077903332" lon="10.10421777933485"><ele>258.0</ele><time>2026-05-02T09:25:35Z</time></trkpt><trkpt lat="44.22678853436649" lon="10.104348252512851"><ele>258.0</ele><time>2026-05-02T09:25:36Z</time></trkpt><trkpt lat="44.22674904588997" lon="10.104472757956573"><ele>257.8333333333333</ele><time>2026-05-02T09:25:37Z</time></trkpt><trkpt lat="44.22670910459877" lon="10.10458989881048"><ele>257.6666666666667</ele><time>2026-05-02T09:25:38Z</time></trkpt><trkpt lat="44.22666814730997" lon="10.10470136683535"><ele>257.5</ele><time>2026-05-02T09:25:39Z</time></trkpt><trkpt lat="44.226646529291" lon="10.10481192968449"><ele>257.33333333333337</ele><time>2026-05-02T09:25:40Z</time></trkpt><trkpt lat="44.226656191717794" lon="10.104937611379253"><ele>257.1666666666667</ele><time>2026-05-02T09:25:41Z</time></trkpt><trkpt lat="44.22670289722177" lon="10.105044905265391"><ele>257.0</ele><time>2026-05-02T09:25:42Z</time></trkpt><trkpt lat="44.22677519964918" lon="10.105152436500793"><ele>257.0</ele><time>2026-05-02T09:25:43Z</time></trkpt><trkpt lat="44.22686461659561" lon="10.105261225550606"><ele>257.0</ele><time>2026-05-02T09:25:43.999Z</time></trkpt><trkpt lat="44.22696183585217" lon="10.10536960948589"><ele>257.0</ele><time>2026-05-02T09:25:44.999Z</time></trkpt><trkpt lat="44.22706024798188" lon="10.10545831075247"><ele>257.0</ele><time>2026-05-02T09:25:45.999Z</time></trkpt><trkpt lat="44.22715336438965" lon="10.105544746436577"><ele>257.0</ele><time>2026-05-02T09:25:46.999Z</time></trkpt><trkpt lat="44.227227796935" lon="10.105653317224371"><ele>257.0</ele><time>2026-05-02T09:25:47.999Z</time></trkpt><trkpt lat="44.22727914223036" lon="10.10580800855642"><ele>257.0</ele><time>2026-05-02T09:25:48.999Z</time></trkpt><trkpt lat="44.227322905927025" lon="10.10596598736818"><ele>257.0</ele><time>2026-05-02T09:25:49.999Z</time></trkpt><trkpt lat="44.22737035029127" lon="10.106114635122168"><ele>257.8</ele><time>2026-05-02T09:25:50.999Z</time></trkpt><trkpt lat="44.227415427425775" lon="10.106244959608407"><ele>258.6</ele><time>2026-05-02T09:25:51.999Z</time></trkpt><trkpt lat="44.227421409851615" lon="10.106370264712561"><ele>259.40000000000003</ele><time>2026-05-02T09:25:52.999Z</time></trkpt><trkpt lat="44.227352094306205" lon="10.106494582269697"><ele>260.2</ele><time>2026-05-02T09:25:53.999Z</time></trkpt><trkpt lat="44.22734971222828" lon="10.106604253529019"><ele>261.0</ele><time>2026-05-02T09:25:54.999Z</time></trkpt><trkpt lat="44.22735754456006" lon="10.106717236288624"><ele>261.0</ele><time>2026-05-02T09:25:55.999Z</time></trkpt><trkpt lat="44.227400644817635" lon="10.106832356737243"><ele>261.0</ele><time>2026-05-02T09:25:56.999Z</time></trkpt><trkpt lat="44.22745321144647" lon="10.106954893258482"><ele>261.0</ele><time>2026-05-02T09:25:57.999Z</time></trkpt><trkpt lat="44.22749139447755" lon="10.107069678731076"><ele>261.0</ele><time>2026-05-02T09:25:58.999Z</time></trkpt><trkpt lat="44.22752119361245" lon="10.107188326277047"><ele>261.0</ele><time>2026-05-02T09:25:59.999Z</time></trkpt><trkpt lat="44.22755260339748" lon="10.107303109100405"><ele>261.0</ele><time>2026-05-02T09:26:00.999Z</time></trkpt><trkpt lat="44.22760025505934" lon="10.10739561483001"><ele>261.0</ele><time>2026-05-02T09:26:01.999Z</time></trkpt><trkpt lat="44.227660305837645" lon="10.107458084825193"><ele>261.0</ele><time>2026-05-02T09:26:02.999Z</time></trkpt><trkpt lat="44.22774097836119" lon="10.107509177762172"><ele>261.0</ele><time>2026-05-02T09:26:03.999Z</time></trkpt><trkpt lat="44.22783155776527" lon="10.107563063517436"><ele>261.0</ele><time>2026-05-02T09:26:04.999Z</time></trkpt><trkpt lat="44.22792601212803" lon="10.107606218592355"><ele>261.0</ele><time>2026-05-02T09:26:05.999Z</time></trkpt><trkpt lat="44.228038156152344" lon="10.107627898398995"><ele>262.0</ele><time>2026-05-02T09:26:06.999Z</time></trkpt><trkpt lat="44.228150396903736" lon="10.107695225211998"><ele>263.0</ele><time>2026-05-02T09:26:07.999Z</time></trkpt><trkpt lat="44.228252304973154" lon="10.107756585138452"><ele>264.0</ele><time>2026-05-02T09:26:08.999Z</time></trkpt><trkpt lat="44.22832445355821" lon="10.107805002348629"><ele>265.0</ele><time>2026-05-02T09:26:09.999Z</time></trkpt><trkpt lat="44.228354807093694" lon="10.10795965949662"><ele>266.0</ele><time>2026-05-02T09:26:11.999Z</time></trkpt><trkpt lat="44.228275114026275" lon="10.108042399946154"><ele>266.0</ele><time>2026-05-02T09:26:12.999Z</time></trkpt><trkpt lat="44.22824191390282" lon="10.108187192846097"><ele>266.0</ele><time>2026-05-02T09:26:13.999Z</time></trkpt><trkpt lat="44.228212445392224" lon="10.108328083700183"><ele>266.0</ele><time>2026-05-02T09:26:14.999Z</time></trkpt><trkpt lat="44.22821151520192" lon="10.108433208914718"><ele>266.0</ele><time>2026-05-02T09:26:15.999Z</time></trkpt><trkpt lat="44.22824297493119" lon="10.10853845170876"><ele>266.0</ele><time>2026-05-02T09:26:16.999Z</time></trkpt><trkpt lat="44.22830936572573" lon="10.108653577080801"><ele>262.25</ele><time>2026-05-02T09:26:17.999Z</time></trkpt><trkpt lat="44.22839581857941" lon="10.108778640561841"><ele>258.5</ele><time>2026-05-02T09:26:18.999Z</time></trkpt><trkpt lat="44.228474306675764" lon="10.108916087502548"><ele>254.75</ele><time>2026-05-02T09:26:19.999Z</time></trkpt><trkpt lat="44.228542687150885" lon="10.10905550321707"><ele>251.0</ele><time>2026-05-02T09:26:20.999Z</time></trkpt><trkpt lat="44.22860176424638" lon="10.109189795286936"><ele>255.4</ele><time>2026-05-02T09:26:21.999Z</time></trkpt><trkpt lat="44.22865508389371" lon="10.109309370159707"><ele>259.8</ele><time>2026-05-02T09:26:22.999Z</time></trkpt><trkpt lat="44.228705632083454" lon="10.109396565041708"><ele>264.20000000000005</ele><time>2026-05-02T09:26:23.999Z</time></trkpt><trkpt lat="44.22878039218559" lon="10.109484097752691"><ele>268.6</ele><time>2026-05-02T09:26:24.999Z</time></trkpt><trkpt lat="44.228878967567205" lon="10.109568332825814"><ele>273.0</ele><time>2026-05-02T09:26:25.999Z</time></trkpt><trkpt lat="44.22898055783825" lon="10.109652981170253"><ele>273.0</ele><time>2026-05-02T09:26:26.999Z</time></trkpt><trkpt lat="44.22907695083382" lon="10.109732083053158"><ele>273.0</ele><time>2026-05-02T09:26:27.999Z</time></trkpt><trkpt lat="44.22916646544603" lon="10.109839989764781"><ele>273.0</ele><time>2026-05-02T09:26:28.999Z</time></trkpt><trkpt lat="44.229268837972626" lon="10.109926168665323"><ele>273.0</ele><time>2026-05-02T09:26:29.999Z</time></trkpt><trkpt lat="44.22935832072641" lon="10.11002625945383"><ele>262.0</ele><time>2026-05-02T09:26:30.999Z</time></trkpt><trkpt lat="44.229446768607424" lon="10.110128146783442"><ele>251.0</ele><time>2026-05-02T09:26:31.999Z</time></trkpt><trkpt lat="44.2295365040455" lon="10.110224919397313"><ele>240.0</ele><time>2026-05-02T09:26:32.999Z</time></trkpt><trkpt lat="44.2296241472938" lon="10.11032270317001"><ele>229.0</ele><time>2026-05-02T09:26:33.999Z</time></trkpt><trkpt lat="44.22971687884638" lon="10.110423807389502"><ele>228.25</ele><time>2026-05-02T09:26:34.999Z</time></trkpt><trkpt lat="44.229821279611784" lon="10.110535345851192"><ele>227.5</ele><time>2026-05-02T09:26:35.999Z</time></trkpt><trkpt lat="44.22992339805704" lon="10.110661867025254"><ele>226.75</ele><time>2026-05-02T09:26:36.999Z</time></trkpt><trkpt lat="44.23002980392166" lon="10.110756969705097"><ele>226.0</ele><time>2026-05-02T09:26:37.999Z</time></trkpt><trkpt lat="44.230130932718176" lon="10.110851433193666"><ele>225.99999999999997</ele><time>2026-05-02T09:26:38.999Z</time></trkpt><trkpt lat="44.23023007011404" lon="10.1109457060547"><ele>226.0</ele><time>2026-05-02T09:26:39.999Z</time></trkpt><trkpt lat="44.230317352917105" lon="10.111027701358871"><ele>226.0</ele><time>2026-05-02T09:26:40.999Z</time></trkpt><trkpt lat="44.230391418513804" lon="10.11108489475088"><ele>226.0</ele><time>2026-05-02T09:26:41.999Z</time></trkpt><trkpt lat="44.23044370072282" lon="10.111143947668522"><ele>225.99999999999997</ele><time>2026-05-02T09:26:42.999Z</time></trkpt><trkpt lat="44.230473178888445" lon="10.111223610724723"><ele>226.0</ele><time>2026-05-02T09:26:43.999Z</time></trkpt><trkpt lat="44.23045575854663" lon="10.111313394013559"><ele>225.99999999999997</ele><time>2026-05-02T09:26:44.999Z</time></trkpt><trkpt lat="44.230401573514364" lon="10.11137830362856"><ele>226.0</ele><time>2026-05-02T09:26:45.999Z</time></trkpt><trkpt lat="44.230372276536514" lon="10.11147406981286"><ele>226.0</ele><time>2026-05-02T09:26:46.999Z</time></trkpt><trkpt lat="44.23035328680658" lon="10.111596163792377"><ele>226.0</ele><time>2026-05-02T09:26:47.999Z</time></trkpt><trkpt lat="44.23031708550158" lon="10.111733639221466"><ele>225.99999999999997</ele><time>2026-05-02T09:26:48.999Z</time></trkpt><trkpt lat="44.23027299759028" lon="10.111852172657557"><ele>226.0</ele><time>2026-05-02T09:26:49.999Z</time></trkpt><trkpt lat="44.230192874547456" lon="10.111942546097705"><ele>226.4</ele><time>2026-05-02T09:26:50.999Z</time></trkpt><trkpt lat="44.23011987486982" lon="10.112036255039138"><ele>226.8</ele><time>2026-05-02T09:26:52Z</time></trkpt><trkpt lat="44.23004567968862" lon="10.112141855296054"><ele>227.20000000000002</ele><time>2026-05-02T09:26:53Z</time></trkpt><trkpt lat="44.22995434620672" lon="10.112243605456172"><ele>227.60000000000002</ele><time>2026-05-02T09:26:54Z</time></trkpt><trkpt lat="44.229858700832416" lon="10.112351319321222"><ele>228.0</ele><time>2026-05-02T09:26:55Z</time></trkpt><trkpt lat="44.2297588879629" lon="10.112460100339879"><ele>228.0</ele><time>2026-05-02T09:26:56Z</time></trkpt><trkpt lat="44.229653986417254" lon="10.112569447072497"><ele>228.0</ele><time>2026-05-02T09:26:57Z</time></trkpt><trkpt lat="44.229559493692854" lon="10.112672082402666"><ele>228.0</ele><time>2026-05-02T09:26:58Z</time></trkpt><trkpt lat="44.229483588519855" lon="10.1127686864444"><ele>228.0</ele><time>2026-05-02T09:26:59Z</time></trkpt><trkpt lat="44.22942622540403" lon="10.112878394029234"><ele>228.0</ele><time>2026-05-02T09:27:00Z</time></trkpt><trkpt lat="44.2293867974834" lon="10.11300165613232"><ele>228.0</ele><time>2026-05-02T09:27:01Z</time></trkpt><trkpt lat="44.22935985245102" lon="10.113132632764941"><ele>228.0</ele><time>2026-05-02T09:27:02Z</time></trkpt><trkpt lat="44.229342810669344" lon="10.113284993856302"><ele>228.0</ele><time>2026-05-02T09:27:03Z</time></trkpt><trkpt lat="44.229332960447486" lon="10.113430523673781"><ele>228.0</ele><time>2026-05-02T09:27:04Z</time></trkpt><trkpt lat="44.22934262297391" lon="10.113564482448645"><ele>229.8</ele><time>2026-05-02T09:27:05Z</time></trkpt><trkpt lat="44.22939030213182" lon="10.113674418407138"><ele>231.60000000000002</ele><time>2026-05-02T09:27:06Z</time></trkpt><trkpt lat="44.22945863850868" lon="10.113780492997408"><ele>233.39999999999998</ele><time>2026-05-02T09:27:07Z</time></trkpt><trkpt lat="44.2295392061862" lon="10.113888546736305"><ele>235.2</ele><time>2026-05-02T09:27:08Z</time></trkpt><trkpt lat="44.22962390537295" lon="10.11399751712909"><ele>237.0</ele><time>2026-05-02T09:27:09Z</time></trkpt><trkpt lat="44.22971155574281" lon="10.114107204429772"><ele>236.6</ele><time>2026-05-02T09:27:10Z</time></trkpt><trkpt lat="44.22979752549321" lon="10.114217543510865"><ele>236.2</ele><time>2026-05-02T09:27:11Z</time></trkpt><trkpt lat="44.22987513361589" lon="10.114322168517209"><ele>235.8</ele><time>2026-05-02T09:27:12Z</time></trkpt><trkpt lat="44.22995620091181" lon="10.1144247103628"><ele>235.4</ele><time>2026-05-02T09:27:13Z</time></trkpt><trkpt lat="44.230040271028216" lon="10.114528363608501"><ele>235.0</ele><time>2026-05-02T09:27:14Z</time></trkpt><trkpt lat="44.23012908745129" lon="10.114635816000156"><ele>235.0</ele><time>2026-05-02T09:27:15Z</time></trkpt><trkpt lat="44.23021573079749" lon="10.114747653713355"><ele>235.0</ele><time>2026-05-02T09:27:16Z</time></trkpt><trkpt lat="44.23029725501795" lon="10.11485851607741"><ele>235.0</ele><time>2026-05-02T09:27:17Z</time></trkpt><trkpt lat="44.2303798897148" lon="10.114981734801695"><ele>235.0</ele><time>2026-05-02T09:27:18Z</time></trkpt><trkpt lat="44.23045797650605" lon="10.115121606094448"><ele>233.75</ele><time>2026-05-02T09:27:19Z</time></trkpt><trkpt lat="44.23053793586441" lon="10.11526590260188"><ele>232.5</ele><time>2026-05-02T09:27:20Z</time></trkpt><trkpt lat="44.23061896473182" lon="10.115411154439176"><ele>231.25</ele><time>2026-05-02T09:27:21Z</time></trkpt><trkpt lat="44.23070307539001" lon="10.11555746922081"><ele>230.0</ele><time>2026-05-02T09:27:22Z</time></trkpt><trkpt lat="44.23080100525515" lon="10.115707197723992"><ele>233.25</ele><time>2026-05-02T09:27:23Z</time></trkpt><trkpt lat="44.23090398868139" lon="10.11585641816957"><ele>236.5</ele><time>2026-05-02T09:27:24Z</time></trkpt><trkpt lat="44.230998772729585" lon="10.115992089573364"><ele>239.75</ele><time>2026-05-02T09:27:25Z</time></trkpt><trkpt lat="44.23109542993153" lon="10.11613028248157"><ele>243.0</ele><time>2026-05-02T09:27:26Z</time></trkpt><trkpt lat="44.23118742966865" lon="10.116264740839599"><ele>243.0</ele><time>2026-05-02T09:27:27Z</time></trkpt><trkpt lat="44.23128260873595" lon="10.116397933126319"><ele>243.0</ele><time>2026-05-02T09:27:28Z</time></trkpt><trkpt lat="44.23137156495464" lon="10.11649752619083"><ele>243.0</ele><time>2026-05-02T09:27:29Z</time></trkpt><trkpt lat="44.231478092148144" lon="10.116590168441132"><ele>243.0</ele><time>2026-05-02T09:27:30Z</time></trkpt><trkpt lat="44.23159388806614" lon="10.116655795108747"><ele>243.0</ele><time>2026-05-02T09:27:31Z</time></trkpt><trkpt lat="44.231717678243" lon="10.116704599336598"><ele>243.0</ele><time>2026-05-02T09:27:32Z</time></trkpt><trkpt lat="44.23183678714717" lon="10.116758009078659"><ele>243.0</ele><time>2026-05-02T09:27:33Z</time></trkpt><trkpt lat="44.23194772484789" lon="10.116817073981288"><ele>243.0</ele><time>2026-05-02T09:27:34Z</time></trkpt><trkpt lat="44.23204975027738" lon="10.116892682467233"><ele>243.0</ele><time>2026-05-02T09:27:34.999Z</time></trkpt><trkpt lat="44.232143493005616" lon="10.116998671836518"><ele>243.0</ele><time>2026-05-02T09:27:35.999Z</time></trkpt><trkpt lat="44.232240205598906" lon="10.117121078453566"><ele>243.0</ele><time>2026-05-02T09:27:36.999Z</time></trkpt><trkpt lat="44.23233445164921" lon="10.117241392035092"><ele>243.0</ele><time>2026-05-02T09:27:37.999Z</time></trkpt><trkpt lat="44.232422665914605" lon="10.117365540826949"><ele>244.25</ele><time>2026-05-02T09:27:38.999Z</time></trkpt><trkpt lat="44.23251034040211" lon="10.117490153395519"><ele>245.5</ele><time>2026-05-02T09:27:39.999Z</time></trkpt><trkpt lat="44.232593170897474" lon="10.117622071705023"><ele>246.75</ele><time>2026-05-02T09:27:40.999Z</time></trkpt><trkpt lat="44.23266680809455" lon="10.117762140913543"><ele>248.0</ele><time>2026-05-02T09:27:41.999Z</time></trkpt><trkpt lat="44.232735468317536" lon="10.117900233080515"><ele>248.0</ele><time>2026-05-02T09:27:42.999Z</time></trkpt><trkpt lat="44.23280660846185" lon="10.118036095924872"><ele>248.0</ele><time>2026-05-02T09:27:43.999Z</time></trkpt><trkpt lat="44.23288102582499" lon="10.11817718968418"><ele>248.0</ele><time>2026-05-02T09:27:44.999Z</time></trkpt><trkpt lat="44.23295482455357" lon="10.118314849553496"><ele>248.0</ele><time>2026-05-02T09:27:45.999Z</time></trkpt><trkpt lat="44.23303363733072" lon="10.118444506596182"><ele>249.75</ele><time>2026-05-02T09:27:46.999Z</time></trkpt><trkpt lat="44.23312442897277" lon="10.118563795880126"><ele>251.5</ele><time>2026-05-02T09:27:47.999Z</time></trkpt><trkpt lat="44.23321792362565" lon="10.118679997479752"><ele>253.25</ele><time>2026-05-02T09:27:48.999Z</time></trkpt><trkpt lat="44.23330872051566" lon="10.118792986299768"><ele>255.0</ele><time>2026-05-02T09:27:49.999Z</time></trkpt><trkpt lat="44.23339974021057" lon="10.11890503145909"><ele>255.0</ele><time>2026-05-02T09:27:50.999Z</time></trkpt><trkpt lat="44.233483915519955" lon="10.11902441034135"><ele>255.0</ele><time>2026-05-02T09:27:51.999Z</time></trkpt><trkpt lat="44.23355706926909" lon="10.119162932534993"><ele>255.0</ele><time>2026-05-02T09:27:52.999Z</time></trkpt><trkpt lat="44.23361954596493" lon="10.119300346886872"><ele>255.0</ele><time>2026-05-02T09:27:53.999Z</time></trkpt><trkpt lat="44.23367458533023" lon="10.119414583639212"><ele>257.8</ele><time>2026-05-02T09:27:54.999Z</time></trkpt><trkpt lat="44.23370832683578" lon="10.119521491112081"><ele>260.6</ele><time>2026-05-02T09:27:55.999Z</time></trkpt><trkpt lat="44.2337168281559" lon="10.119637391347345"><ele>263.4</ele><time>2026-05-02T09:27:56.999Z</time></trkpt><trkpt lat="44.23371254846346" lon="10.119785813110934"><ele>266.2</ele><time>2026-05-02T09:27:57.999Z</time></trkpt><trkpt lat="44.23370848545599" lon="10.1199426603209"><ele>269.0</ele><time>2026-05-02T09:27:58.999Z</time></trkpt><trkpt lat="44.233697919391645" lon="10.12010376562961"><ele>270.59999999999997</ele><time>2026-05-02T09:27:59.999Z</time></trkpt><trkpt lat="44.233686608441545" lon="10.120260177525743"><ele>272.2</ele><time>2026-05-02T09:28:00.999Z</time></trkpt><trkpt lat="44.23368580037386" lon="10.120390773357713"><ele>273.79999999999995</ele><time>2026-05-02T09:28:01.999Z</time></trkpt><trkpt lat="44.23371116176409" lon="10.120509451982963"><ele>275.4</ele><time>2026-05-02T09:28:02.999Z</time></trkpt><trkpt lat="44.23375129000746" lon="10.120635561280748"><ele>277.0</ele><time>2026-05-02T09:28:03.999Z</time></trkpt><trkpt lat="44.23384210421485" lon="10.120724094662998"><ele>277.8</ele><time>2026-05-02T09:28:04.999Z</time></trkpt><trkpt lat="44.23393038173257" lon="10.12081313394515"><ele>278.6</ele><time>2026-05-02T09:28:05.999Z</time></trkpt><trkpt lat="44.234024598524606" lon="10.12087735730224"><ele>279.40000000000003</ele><time>2026-05-02T09:28:06.999Z</time></trkpt><trkpt lat="44.23412475093317" lon="10.120907385058274"><ele>280.2</ele><time>2026-05-02T09:28:07.999Z</time></trkpt><trkpt lat="44.23422869156286" lon="10.120914150094299"><ele>281.0</ele><time>2026-05-02T09:28:08.999Z</time></trkpt><trkpt lat="44.23433038344256" lon="10.120910025830314"><ele>280.0</ele><time>2026-05-02T09:28:09.999Z</time></trkpt><trkpt lat="44.23443467800262" lon="10.120878914178737"><ele>279.0</ele><time>2026-05-02T09:28:10.999Z</time></trkpt><trkpt lat="44.234540609348166" lon="10.12081658709977"><ele>278.0</ele><time>2026-05-02T09:28:11.999Z</time></trkpt><trkpt lat="44.23464486755957" lon="10.120779600191886"><ele>277.0</ele><time>2026-05-02T09:28:12.999Z</time></trkpt><trkpt lat="44.234721724872095" lon="10.120733105173748"><ele>276.0</ele><time>2026-05-02T09:28:13.999Z</time></trkpt><trkpt lat="44.23480928337226" lon="10.120747924764071"><ele>276.0</ele><time>2026-05-02T09:28:14.999Z</time></trkpt><trkpt lat="44.2349107837379" lon="10.120789318031244"><ele>276.0</ele><time>2026-05-02T09:28:15.999Z</time></trkpt><trkpt lat="44.23501150174494" lon="10.120857535243724"><ele>276.0</ele><time>2026-05-02T09:28:16.999Z</time></trkpt><trkpt lat="44.23511172420943" lon="10.120919588013392"><ele>276.0</ele><time>2026-05-02T09:28:17.999Z</time></trkpt><trkpt lat="44.23521256110156" lon="10.120971328533605"><ele>276.0</ele><time>2026-05-02T09:28:18.999Z</time></trkpt><trkpt lat="44.235331872004316" lon="10.120982014692327"><ele>276.0</ele><time>2026-05-02T09:28:19.999Z</time></trkpt><trkpt lat="44.23544547462279" lon="10.121004392577403"><ele>276.0</ele><time>2026-05-02T09:28:20.999Z</time></trkpt><trkpt lat="44.235548907357305" lon="10.121024401379074"><ele>276.0</ele><time>2026-05-02T09:28:21.999Z</time></trkpt><trkpt lat="44.23564450055385" lon="10.121031497931133"><ele>276.0</ele><time>2026-05-02T09:28:22.999Z</time></trkpt><trkpt lat="44.23574669520329" lon="10.121042494883547"><ele>276.0</ele><time>2026-05-02T09:28:23.999Z</time></trkpt><trkpt lat="44.23584112267097" lon="10.121054877247403"><ele>277.0</ele><time>2026-05-02T09:28:24.999Z</time></trkpt><trkpt lat="44.2359245009821" lon="10.12104116634407"><ele>278.0</ele><time>2026-05-02T09:28:25.999Z</time></trkpt><trkpt lat="44.23599653156036" lon="10.12105651605044"><ele>279.0</ele><time>2026-05-02T09:28:26.999Z</time></trkpt><trkpt lat="44.23608070367156" lon="10.121094282456806"><ele>280.0</ele><time>2026-05-02T09:28:28.999Z</time></trkpt><trkpt lat="44.23604228245514" lon="10.121223561528671"><ele>281.0</ele><time>2026-05-02T09:28:30.999Z</time></trkpt><trkpt lat="44.23596216964767" lon="10.121235456606948"><ele>282.0</ele><time>2026-05-02T09:28:31.999Z</time></trkpt><trkpt lat="44.23587897261589" lon="10.121185122496946"><ele>282.0</ele><time>2026-05-02T09:28:32.999Z</time></trkpt><trkpt lat="44.23577867969892" lon="10.121194117983858"><ele>282.0</ele><time>2026-05-02T09:28:33.999Z</time></trkpt><trkpt lat="44.23566718323166" lon="10.121223673609125"><ele>282.0</ele><time>2026-05-02T09:28:34.999Z</time></trkpt><trkpt lat="44.23554284389544" lon="10.121224356139525"><ele>282.0</ele><time>2026-05-02T09:28:35.999Z</time></trkpt><trkpt lat="44.23542214653247" lon="10.121252310489881"><ele>280.8</ele><time>2026-05-02T09:28:36.999Z</time></trkpt><trkpt lat="44.2353050252718" lon="10.121274531043394"><ele>279.6</ele><time>2026-05-02T09:28:37.999Z</time></trkpt><trkpt lat="44.2351825385109" lon="10.121290478867339"><ele>278.40000000000003</ele><time>2026-05-02T09:28:38.999Z</time></trkpt><trkpt lat="44.235072132229504" lon="10.12130323186267"><ele>277.2</ele><time>2026-05-02T09:28:39.999Z</time></trkpt><trkpt lat="44.2349780687324" lon="10.1213241457816"><ele>276.0</ele><time>2026-05-02T09:28:40.999Z</time></trkpt><trkpt lat="44.234907769356546" lon="10.121414088888015"><ele>276.0</ele><time>2026-05-02T09:28:42.999Z</time></trkpt><trkpt lat="44.234981580947625" lon="10.121539061741018"><ele>276.0</ele><time>2026-05-02T09:28:44.999Z</time></trkpt><trkpt lat="44.23505483482592" lon="10.121553275086532"><ele>276.0</ele><time>2026-05-02T09:28:45.999Z</time></trkpt><trkpt lat="44.235153237530575" lon="10.121548523529189"><ele>276.0</ele><time>2026-05-02T09:28:46.999Z</time></trkpt><trkpt lat="44.23527773730846" lon="10.121550100895481"><ele>276.0</ele><time>2026-05-02T09:28:47.999Z</time></trkpt><trkpt lat="44.23540514938452" lon="10.121559839606425"><ele>280.0</ele><time>2026-05-02T09:28:48.999Z</time></trkpt><trkpt lat="44.23552553787825" lon="10.121580833438731"><ele>284.0</ele><time>2026-05-02T09:28:49.999Z</time></trkpt><trkpt lat="44.23565725434706" lon="10.121602882261637"><ele>288.0</ele><time>2026-05-02T09:28:50.999Z</time></trkpt><trkpt lat="44.235782854453554" lon="10.121624524214816"><ele>292.0</ele><time>2026-05-02T09:28:51.999Z</time></trkpt><trkpt lat="44.23588402378612" lon="10.121638223601252"><ele>294.0</ele><time>2026-05-02T09:28:52.999Z</time></trkpt><trkpt lat="44.235976639680835" lon="10.121654904303531"><ele>296.0</ele><time>2026-05-02T09:28:53.999Z</time></trkpt><trkpt lat="44.236053463064316" lon="10.12166782620675"><ele>298.0</ele><time>2026-05-02T09:28:54.999Z</time></trkpt><trkpt lat="44.23611805738774" lon="10.12164662990522"><ele>300.0</ele><time>2026-05-02T09:28:55.999Z</time></trkpt><trkpt lat="44.23622807505552" lon="10.121542319532443"><ele>302.0</ele><time>2026-05-02T09:28:57.999Z</time></trkpt><trkpt lat="44.2362959918187" lon="10.121472886088261"><ele>302.0</ele><time>2026-05-02T09:28:59Z</time></trkpt><trkpt lat="44.236340049520074" lon="10.121393867870188"><ele>302.0</ele><time>2026-05-02T09:29:00Z</time></trkpt><trkpt lat="44.23639807477893" lon="10.12129487199005"><ele>302.0</ele><time>2026-05-02T09:29:02Z</time></trkpt><trkpt lat="44.23645023481642" lon="10.121422501447329"><ele>302.0</ele><time>2026-05-02T09:29:04Z</time></trkpt><trkpt lat="44.23633802809633" lon="10.121530216703725"><ele>302.0</ele><time>2026-05-02T09:29:06Z</time></trkpt><trkpt lat="44.23624814968612" lon="10.121622745400897"><ele>302.0</ele><time>2026-05-02T09:29:07Z</time></trkpt><trkpt lat="44.23613876178044" lon="10.121690940247788"><ele>302.0</ele><time>2026-05-02T09:29:08Z</time></trkpt><trkpt lat="44.23603311976073" lon="10.121734270170052"><ele>302.0</ele><time>2026-05-02T09:29:09Z</time></trkpt><trkpt lat="44.23594588719745" lon="10.121751714234454"><ele>302.0</ele><time>2026-05-02T09:29:10Z</time></trkpt><trkpt lat="44.235877502185495" lon="10.121781899600553"><ele>302.0</ele><time>2026-05-02T09:29:11Z</time></trkpt><trkpt lat="44.23583612866652" lon="10.12193681845874"><ele>302.0</ele><time>2026-05-02T09:29:13Z</time></trkpt><trkpt lat="44.23584529332702" lon="10.12203564818442"><ele>302.0</ele><time>2026-05-02T09:29:14Z</time></trkpt><trkpt lat="44.235815279138635" lon="10.122202499883766"><ele>302.0</ele><time>2026-05-02T09:29:16Z</time></trkpt><trkpt lat="44.235748815025985" lon="10.122294874983858"><ele>302.0</ele><time>2026-05-02T09:29:17Z</time></trkpt><trkpt lat="44.23567753815739" lon="10.122413730834248"><ele>302.0</ele><time>2026-05-02T09:29:18Z</time></trkpt><trkpt lat="44.23562200892738" lon="10.122548662238264"><ele>302.4</ele><time>2026-05-02T09:29:19Z</time></trkpt><trkpt lat="44.235558875396265" lon="10.122652473365672"><ele>302.79999999999995</ele><time>2026-05-02T09:29:20Z</time></trkpt><trkpt lat="44.23547150015811" lon="10.122728765919518"><ele>303.2</ele><time>2026-05-02T09:29:21Z</time></trkpt><trkpt lat="44.23538406684094" lon="10.12279886513034"><ele>303.59999999999997</ele><time>2026-05-02T09:29:22Z</time></trkpt><trkpt lat="44.235297356677705" lon="10.12283298559197"><ele>304.0</ele><time>2026-05-02T09:29:23Z</time></trkpt><trkpt lat="44.235218048795204" lon="10.122879276408504"><ele>304.0</ele><time>2026-05-02T09:29:24Z</time></trkpt><trkpt lat="44.235154537683066" lon="10.122894583692087"><ele>304.0</ele><time>2026-05-02T09:29:25Z</time></trkpt><trkpt lat="44.2350812322237" lon="10.12291345111097"><ele>304.0</ele><time>2026-05-02T09:29:27Z</time></trkpt><trkpt lat="44.23501470984448" lon="10.122932021701546"><ele>304.0</ele><time>2026-05-02T09:29:37Z</time></trkpt><trkpt lat="44.23505930233712" lon="10.123100370763277"><ele>304.0</ele><time>2026-05-02T09:29:38Z</time></trkpt><trkpt lat="44.23513582065749" lon="10.123174912518694"><ele>304.0</ele><time>2026-05-02T09:29:39Z</time></trkpt><trkpt lat="44.23520235815951" lon="10.123249059386378"><ele>306.4</ele><time>2026-05-02T09:29:40Z</time></trkpt><trkpt lat="44.23526790294561" lon="10.123338105781961"><ele>308.79999999999995</ele><time>2026-05-02T09:29:41Z</time></trkpt><trkpt lat="44.23533896036552" lon="10.123437720825999"><ele>311.20000000000005</ele><time>2026-05-02T09:29:42Z</time></trkpt><trkpt lat="44.23541087410774" lon="10.123545011805348"><ele>313.6</ele><time>2026-05-02T09:29:43Z</time></trkpt><trkpt lat="44.23547316958046" lon="10.123627946859816"><ele>316.0</ele><time>2026-05-02T09:29:44Z</time></trkpt><trkpt lat="44.23553185365576" lon="10.123700798697682"><ele>316.0</ele><time>2026-05-02T09:29:45Z</time></trkpt><trkpt lat="44.235592694969824" lon="10.123772000316174"><ele>316.0</ele><time>2026-05-02T09:29:46Z</time></trkpt><trkpt lat="44.23565897505822" lon="10.123850215500333"><ele>316.0</ele><time>2026-05-02T09:29:47Z</time></trkpt><trkpt lat="44.23572347133183" lon="10.123931432365215"><ele>316.0</ele><time>2026-05-02T09:29:47.999Z</time></trkpt><trkpt lat="44.235793128157844" lon="10.124018956258775"><ele>316.0</ele><time>2026-05-02T09:29:48.999Z</time></trkpt><trkpt lat="44.235861851239484" lon="10.124105923464045"><ele>316.0</ele><time>2026-05-02T09:29:49.999Z</time></trkpt><trkpt lat="44.235925813109326" lon="10.124186275828523"><ele>317.20000000000005</ele><time>2026-05-02T09:29:50.999Z</time></trkpt><trkpt lat="44.23596575144137" lon="10.124267572334611"><ele>318.40000000000003</ele><time>2026-05-02T09:29:51.999Z</time></trkpt><trkpt lat="44.236039134556954" lon="10.124367062170476"><ele>319.6</ele><time>2026-05-02T09:29:53.999Z</time></trkpt><trkpt lat="44.23617123320883" lon="10.12421828054605"><ele>320.8</ele><time>2026-05-02T09:29:56.999Z</time></trkpt><trkpt lat="44.23622682035279" lon="10.124342387102981"><ele>322.0</ele><time>2026-05-02T09:29:58.999Z</time></trkpt><trkpt lat="44.23627617648082" lon="10.124419970336241"><ele>322.0</ele><time>2026-05-02T09:30:00.999Z</time></trkpt><trkpt lat="44.23619892688938" lon="10.124343776489889"><ele>322.0</ele><time>2026-05-02T09:40:11Z</time></trkpt><trkpt lat="44.23613497796065" lon="10.124332642416757"><ele>322.0</ele><time>2026-05-02T09:40:13Z</time></trkpt><trkpt lat="44.23608663050143" lon="10.1244187747009"><ele>322.0</ele><time>2026-05-02T09:40:18Z</time></trkpt><trkpt lat="44.236150753411124" lon="10.124551642679718"><ele>322.0</ele><time>2026-05-02T09:40:20Z</time></trkpt><trkpt lat="44.23621468020159" lon="10.124628865485576"><ele>322.0</ele><time>2026-05-02T09:40:21Z</time></trkpt><trkpt lat="44.23629671457365" lon="10.124741992330788"><ele>322.0</ele><time>2026-05-02T09:40:23Z</time></trkpt><trkpt lat="44.236361122053054" lon="10.124830698935527"><ele>322.0</ele><time>2026-05-02T09:40:25Z</time></trkpt><trkpt lat="44.23641698127828" lon="10.1249069860784"><ele>322.0</ele><time>2026-05-02T09:40:29Z</time></trkpt><trkpt lat="44.23648639600266" lon="10.124991738822779"><ele>322.0</ele><time>2026-05-02T09:40:31Z</time></trkpt><trkpt lat="44.23656830528762" lon="10.125109054249435"><ele>322.0</ele><time>2026-05-02T09:40:33Z</time></trkpt><trkpt lat="44.23662236300699" lon="10.125184532224534"><ele>323.16666666666663</ele><time>2026-05-02T09:40:34Z</time></trkpt><trkpt lat="44.236670706592975" lon="10.125248555772972"><ele>324.3333333333333</ele><time>2026-05-02T09:40:35Z</time></trkpt><trkpt lat="44.23672094506933" lon="10.125313932729501"><ele>325.5</ele><time>2026-05-02T09:40:36Z</time></trkpt><trkpt lat="44.23677793864004" lon="10.125389060946944"><ele>326.6666666666667</ele><time>2026-05-02T09:40:37Z</time></trkpt><trkpt lat="44.236842269994476" lon="10.12546712823248"><ele>327.83333333333337</ele><time>2026-05-02T09:40:38Z</time></trkpt><trkpt lat="44.23691115374076" lon="10.125553613513093"><ele>329.0</ele><time>2026-05-02T09:40:39Z</time></trkpt><trkpt lat="44.23698319296695" lon="10.125652332849906"><ele>329.4</ele><time>2026-05-02T09:40:40Z</time></trkpt><trkpt lat="44.2370628143341" lon="10.125762561420812"><ele>329.79999999999995</ele><time>2026-05-02T09:40:41Z</time></trkpt><trkpt lat="44.23713821352748" lon="10.12586718452261"><ele>330.20000000000005</ele><time>2026-05-02T09:40:42Z</time></trkpt><trkpt lat="44.23720431769266" lon="10.125960981301528"><ele>330.6</ele><time>2026-05-02T09:40:43Z</time></trkpt><trkpt lat="44.23726863196177" lon="10.126057476682567"><ele>331.0</ele><time>2026-05-02T09:40:44Z</time></trkpt><trkpt lat="44.23733072411022" lon="10.126156366770756"><ele>331.0</ele><time>2026-05-02T09:40:45Z</time></trkpt><trkpt lat="44.23738797895658" lon="10.126253112456114"><ele>331.0</ele><time>2026-05-02T09:40:46Z</time></trkpt><trkpt lat="44.23743595335464" lon="10.126336397599076"><ele>331.0</ele><time>2026-05-02T09:40:47Z</time></trkpt><trkpt lat="44.23748277711011" lon="10.126413349359659"><ele>331.0</ele><time>2026-05-02T09:40:48Z</time></trkpt><trkpt lat="44.237532860724244" lon="10.12649799241345"><ele>331.0</ele><time>2026-05-02T09:40:49Z</time></trkpt><trkpt lat="44.237584266795125" lon="10.126584521223037"><ele>331.0</ele><time>2026-05-02T09:40:50Z</time></trkpt><trkpt lat="44.23762567759905" lon="10.126657358147003"><ele>332.6</ele><time>2026-05-02T09:40:51Z</time></trkpt><trkpt lat="44.237696193894195" lon="10.126781279266714"><ele>334.20000000000005</ele><time>2026-05-02T09:40:53Z</time></trkpt><trkpt lat="44.2377691678471" lon="10.126904628280101"><ele>335.79999999999995</ele><time>2026-05-02T09:40:55Z</time></trkpt><trkpt lat="44.23781543324996" lon="10.126982742434532"><ele>337.4</ele><time>2026-05-02T09:40:56Z</time></trkpt><trkpt lat="44.23786569502069" lon="10.127069258003848"><ele>339.0</ele><time>2026-05-02T09:40:57Z</time></trkpt><trkpt lat="44.23792021920568" lon="10.127162646419933"><ele>339.0</ele><time>2026-05-02T09:40:58Z</time></trkpt><trkpt lat="44.23797670809011" lon="10.127258042964714"><ele>339.0</ele><time>2026-05-02T09:40:59Z</time></trkpt><trkpt lat="44.238027695343426" lon="10.127350988661211"><ele>339.0</ele><time>2026-05-02T09:41:00Z</time></trkpt><trkpt lat="44.238081933611056" lon="10.12745288740947"><ele>339.0</ele><time>2026-05-02T09:41:01Z</time></trkpt><trkpt lat="44.238138904727734" lon="10.127560580814748"><ele>339.0</ele><time>2026-05-02T09:41:02Z</time></trkpt><trkpt lat="44.23819064348958" lon="10.127656010565778"><ele>339.0</ele><time>2026-05-02T09:41:03Z</time></trkpt><trkpt lat="44.23824604534761" lon="10.127754732720033"><ele>338.4</ele><time>2026-05-02T09:41:04Z</time></trkpt><trkpt lat="44.23830739588476" lon="10.127862113994071"><ele>337.79999999999995</ele><time>2026-05-02T09:41:05Z</time></trkpt><trkpt lat="44.23837089495448" lon="10.12797232171375"><ele>337.20000000000005</ele><time>2026-05-02T09:41:06Z</time></trkpt><trkpt lat="44.23843316264293" lon="10.128081299674996"><ele>336.6</ele><time>2026-05-02T09:41:07Z</time></trkpt><trkpt lat="44.23849222856312" lon="10.128185779355912"><ele>336.0</ele><time>2026-05-02T09:41:08Z</time></trkpt><trkpt lat="44.23855341937131" lon="10.128294005252128"><ele>337.8</ele><time>2026-05-02T09:41:09Z</time></trkpt><trkpt lat="44.23861440471749" lon="10.128400517904076"><ele>339.6</ele><time>2026-05-02T09:41:10Z</time></trkpt><trkpt lat="44.238678883752485" lon="10.128510734922004"><ele>341.4</ele><time>2026-05-02T09:41:11Z</time></trkpt><trkpt lat="44.23874542322314" lon="10.128628971370098"><ele>343.2</ele><time>2026-05-02T09:41:12Z</time></trkpt><trkpt lat="44.23881596421585" lon="10.12875418175022"><ele>345.0</ele><time>2026-05-02T09:41:13Z</time></trkpt><trkpt lat="44.238893459896204" lon="10.128886149797935"><ele>346.5</ele><time>2026-05-02T09:41:14Z</time></trkpt><trkpt lat="44.23897805984177" lon="10.12902118550893"><ele>348.0</ele><time>2026-05-02T09:41:15Z</time></trkpt><trkpt lat="44.23907307397162" lon="10.129147730308711"><ele>349.5</ele><time>2026-05-02T09:41:15.999Z</time></trkpt><trkpt lat="44.23916710792134" lon="10.129255036253172"><ele>351.0</ele><time>2026-05-02T09:41:16.999Z</time></trkpt><trkpt lat="44.23926783817915" lon="10.129358132135316"><ele>351.0</ele><time>2026-05-02T09:41:17.999Z</time></trkpt><trkpt lat="44.23937864619551" lon="10.129445677843044"><ele>351.0</ele><time>2026-05-02T09:41:19.001Z</time></trkpt><trkpt lat="44.23949182720701" lon="10.129517166923144"><ele>351.0</ele><time>2026-05-02T09:41:20.001Z</time></trkpt><trkpt lat="44.239606758445774" lon="10.129572192734699"><ele>351.0</ele><time>2026-05-02T09:41:21.001Z</time></trkpt><trkpt lat="44.23972616435092" lon="10.12960830020882"><ele>350.5</ele><time>2026-05-02T09:41:22.001Z</time></trkpt><trkpt lat="44.23984548216711" lon="10.129628871933473"><ele>350.0</ele><time>2026-05-02T09:41:23.001Z</time></trkpt><trkpt lat="44.23996886104104" lon="10.129631786061877"><ele>349.5</ele><time>2026-05-02T09:41:24.001Z</time></trkpt><trkpt lat="44.24009498252543" lon="10.129628065165452"><ele>349.0</ele><time>2026-05-02T09:41:25.001Z</time></trkpt><trkpt lat="44.240227021936356" lon="10.12961255793878"><ele>349.0</ele><time>2026-05-02T09:41:26.001Z</time></trkpt><trkpt lat="44.24036089760374" lon="10.1295933799232"><ele>349.0</ele><time>2026-05-02T09:41:27.001Z</time></trkpt><trkpt lat="44.240492108148274" lon="10.129577513576102"><ele>349.0</ele><time>2026-05-02T09:41:28.001Z</time></trkpt><trkpt lat="44.24061725907039" lon="10.129570440172241"><ele>349.0</ele><time>2026-05-02T09:41:29.001Z</time></trkpt><trkpt lat="44.24073655442379" lon="10.129571912188036"><ele>350.0</ele><time>2026-05-02T09:41:30.001Z</time></trkpt><trkpt lat="44.240848865386376" lon="10.129596519080593"><ele>351.0</ele><time>2026-05-02T09:41:31.001Z</time></trkpt><trkpt lat="44.240961106719546" lon="10.129645800989014"><ele>352.0</ele><time>2026-05-02T09:41:32.001Z</time></trkpt><trkpt lat="44.24106630978212" lon="10.129718271279724"><ele>353.0</ele><time>2026-05-02T09:41:33.001Z</time></trkpt><trkpt lat="44.24117122859479" lon="10.129811349790513"><ele>353.5</ele><time>2026-05-02T09:41:34.001Z</time></trkpt><trkpt lat="44.241266299252025" lon="10.129927324116816"><ele>354.0</ele><time>2026-05-02T09:41:35.001Z</time></trkpt><trkpt lat="44.24135521635727" lon="10.130068098803875"><ele>354.5</ele><time>2026-05-02T09:41:36.001Z</time></trkpt><trkpt lat="44.241433940130854" lon="10.13021382934543"><ele>355.0</ele><time>2026-05-02T09:41:37.001Z</time></trkpt><trkpt lat="44.24152740368045" lon="10.13038479077083"><ele>356.0</ele><time>2026-05-02T09:41:38.001Z</time></trkpt><trkpt lat="44.24161256303591" lon="10.13055176365707"><ele>357.0</ele><time>2026-05-02T09:41:39.001Z</time></trkpt><trkpt lat="44.241694511547564" lon="10.130709029435394"><ele>358.0</ele><time>2026-05-02T09:41:40.001Z</time></trkpt><trkpt lat="44.24178025490099" lon="10.130870626668653"><ele>359.0</ele><time>2026-05-02T09:41:41Z</time></trkpt><trkpt lat="44.24185846949424" lon="10.131020000660847"><ele>359.0</ele><time>2026-05-02T09:41:42Z</time></trkpt><trkpt lat="44.24193303188696" lon="10.131167442385946"><ele>359.0</ele><time>2026-05-02T09:41:43Z</time></trkpt><trkpt lat="44.24200224297569" lon="10.13131651667622"><ele>359.0</ele><time>2026-05-02T09:41:44Z</time></trkpt><trkpt lat="44.24205735399197" lon="10.13146894363217"><ele>359.0</ele><time>2026-05-02T09:41:45Z</time></trkpt><trkpt lat="44.24209814112626" lon="10.13162488983578"><ele>359.75</ele><time>2026-05-02T09:41:46Z</time></trkpt><trkpt lat="44.2421384529093" lon="10.131788247429512"><ele>360.5</ele><time>2026-05-02T09:41:47Z</time></trkpt><trkpt lat="44.24216737058938" lon="10.131968715166026"><ele>361.25</ele><time>2026-05-02T09:41:48Z</time></trkpt><trkpt lat="44.24218609157927" lon="10.13216168687634"><ele>362.0</ele><time>2026-05-02T09:41:49Z</time></trkpt><trkpt lat="44.242208094122205" lon="10.132358782812041"><ele>364.75</ele><time>2026-05-02T09:41:50Z</time></trkpt><trkpt lat="44.24222827298224" lon="10.132555040244457"><ele>367.5</ele><time>2026-05-02T09:41:51Z</time></trkpt><trkpt lat="44.242246779366454" lon="10.132750656668211"><ele>370.25</ele><time>2026-05-02T09:41:52Z</time></trkpt><trkpt lat="44.24225830640134" lon="10.132946108996936"><ele>373.0</ele><time>2026-05-02T09:41:53Z</time></trkpt><trkpt lat="44.24225738265708" lon="10.133145608192589"><ele>377.75</ele><time>2026-05-02T09:41:54Z</time></trkpt><trkpt lat="44.242251151894834" lon="10.133348167686151"><ele>382.5</ele><time>2026-05-02T09:41:55Z</time></trkpt><trkpt lat="44.242247851525384" lon="10.133550190274677"><ele>387.25</ele><time>2026-05-02T09:41:56Z</time></trkpt><trkpt lat="44.242246414995506" lon="10.133747794153567"><ele>392.0</ele><time>2026-05-02T09:41:57Z</time></trkpt><trkpt lat="44.24224744567287" lon="10.133934874389906"><ele>394.25</ele><time>2026-05-02T09:41:58Z</time></trkpt><trkpt lat="44.24223367672908" lon="10.134105975243322"><ele>396.5</ele><time>2026-05-02T09:41:59Z</time></trkpt><trkpt lat="44.242203494591784" lon="10.134274184226276"><ele>398.75</ele><time>2026-05-02T09:42:00Z</time></trkpt><trkpt lat="44.24215312619863" lon="10.13444020870354"><ele>401.0</ele><time>2026-05-02T09:42:01Z</time></trkpt><trkpt lat="44.24209992145301" lon="10.13460009458276"><ele>401.0</ele><time>2026-05-02T09:42:02Z</time></trkpt><trkpt lat="44.2420626713529" lon="10.1347574634972"><ele>401.0</ele><time>2026-05-02T09:42:03Z</time></trkpt><trkpt lat="44.24204814159593" lon="10.134926737665907"><ele>401.0</ele><time>2026-05-02T09:42:04Z</time></trkpt><trkpt lat="44.24204452902596" lon="10.135106119175232"><ele>401.0</ele><time>2026-05-02T09:42:05Z</time></trkpt><trkpt lat="44.24204969129597" lon="10.135286814937665"><ele>401.0</ele><time>2026-05-02T09:42:06Z</time></trkpt><trkpt lat="44.24205678942266" lon="10.135470501899569"><ele>401.0</ele><time>2026-05-02T09:42:07Z</time></trkpt><trkpt lat="44.24205801609019" lon="10.135656072468679"><ele>401.0</ele><time>2026-05-02T09:42:08Z</time></trkpt><trkpt lat="44.2420567703644" lon="10.135842957392219"><ele>401.0</ele><time>2026-05-02T09:42:09Z</time></trkpt><trkpt lat="44.2420553411217" lon="10.136031835459452"><ele>401.0</ele><time>2026-05-02T09:42:10Z</time></trkpt><trkpt lat="44.242050284697584" lon="10.136222290711602"><ele>401.0</ele><time>2026-05-02T09:42:11Z</time></trkpt><trkpt lat="44.24204052369768" lon="10.136411126673083"><ele>401.0</ele><time>2026-05-02T09:42:12Z</time></trkpt><trkpt lat="44.2420300811089" lon="10.136583729140325"><ele>401.0</ele><time>2026-05-02T09:42:13Z</time></trkpt><trkpt lat="44.242012368104994" lon="10.136738067394926"><ele>399.6</ele><time>2026-05-02T09:42:14Z</time></trkpt><trkpt lat="44.24202503252856" lon="10.136919391109293"><ele>398.20000000000005</ele><time>2026-05-02T09:42:15Z</time></trkpt><trkpt lat="44.24202434983387" lon="10.137061864722288"><ele>396.79999999999995</ele><time>2026-05-02T09:42:16Z</time></trkpt><trkpt lat="44.24203284019264" lon="10.137190860010698"><ele>395.4</ele><time>2026-05-02T09:42:17Z</time></trkpt><trkpt lat="44.24206445086929" lon="10.137304863705845"><ele>394.0</ele><time>2026-05-02T09:42:18Z</time></trkpt><trkpt lat="44.242108174300796" lon="10.137394495419334"><ele>393.83333333333337</ele><time>2026-05-02T09:42:19Z</time></trkpt><trkpt lat="44.24217553317644" lon="10.137470752990794"><ele>393.6666666666667</ele><time>2026-05-02T09:42:20Z</time></trkpt><trkpt lat="44.242251924732706" lon="10.13751381650291"><ele>393.5</ele><time>2026-05-02T09:42:21Z</time></trkpt><trkpt lat="44.2423336549728" lon="10.137537867776155"><ele>393.33333333333337</ele><time>2026-05-02T09:42:22Z</time></trkpt><trkpt lat="44.24240330172878" lon="10.137548634773431"><ele>393.1666666666667</ele><time>2026-05-02T09:42:23Z</time></trkpt><trkpt lat="44.24247036171524" lon="10.137551677406913"><ele>393.0</ele><time>2026-05-02T09:42:24Z</time></trkpt><trkpt lat="44.24254727870596" lon="10.1375652582155"><ele>387.5</ele><time>2026-05-02T09:42:25Z</time></trkpt><trkpt lat="44.24261716928291" lon="10.137599271979058"><ele>382.0</ele><time>2026-05-02T09:42:26Z</time></trkpt><trkpt lat="44.242677696515486" lon="10.13766703840741"><ele>376.5</ele><time>2026-05-02T09:42:27Z</time></trkpt><trkpt lat="44.2427185656433" lon="10.137774983184498"><ele>371.0</ele><time>2026-05-02T09:42:28Z</time></trkpt><trkpt lat="44.24274726317405" lon="10.137884730605624"><ele>365.5</ele><time>2026-05-02T09:42:29Z</time></trkpt><trkpt lat="44.242753769841826" lon="10.13800839824684"><ele>360.0</ele><time>2026-05-02T09:42:30Z</time></trkpt><trkpt lat="44.24275072572805" lon="10.138152696330673"><ele>362.0</ele><time>2026-05-02T09:42:31Z</time></trkpt><trkpt lat="44.24274218010568" lon="10.138319662946436"><ele>364.0</ele><time>2026-05-02T09:42:32Z</time></trkpt><trkpt lat="44.24273183987121" lon="10.13850644458558"><ele>366.0</ele><time>2026-05-02T09:42:33Z</time></trkpt><trkpt lat="44.242718696586515" lon="10.138697726451168"><ele>368.0</ele><time>2026-05-02T09:42:34Z</time></trkpt><trkpt lat="44.24270293376383" lon="10.138878602441562"><ele>368.75</ele><time>2026-05-02T09:42:35Z</time></trkpt><trkpt lat="44.242681164761755" lon="10.139054695305095"><ele>369.5</ele><time>2026-05-02T09:42:36Z</time></trkpt><trkpt lat="44.2426576819973" lon="10.139240610048171"><ele>370.25</ele><time>2026-05-02T09:42:37Z</time></trkpt><trkpt lat="44.24263262285651" lon="10.139439004567139"><ele>371.0</ele><time>2026-05-02T09:42:38Z</time></trkpt><trkpt lat="44.242607658085596" lon="10.139636650546597"><ele>371.0</ele><time>2026-05-02T09:42:39Z</time></trkpt><trkpt lat="44.24258322923647" lon="10.13983005363507"><ele>371.0</ele><time>2026-05-02T09:42:40Z</time></trkpt><trkpt lat="44.2425755175403" lon="10.139993155953222"><ele>371.0</ele><time>2026-05-02T09:42:41Z</time></trkpt><trkpt lat="44.24255258978369" lon="10.140140550686317"><ele>371.0</ele><time>2026-05-02T09:42:42Z</time></trkpt><trkpt lat="44.24253476714955" lon="10.14029400317195"><ele>370.8</ele><time>2026-05-02T09:42:43Z</time></trkpt><trkpt lat="44.24251152155821" lon="10.140459783117654"><ele>370.6</ele><time>2026-05-02T09:42:44Z</time></trkpt><trkpt lat="44.242490479653824" lon="10.14061425538817"><ele>370.4</ele><time>2026-05-02T09:42:45Z</time></trkpt><trkpt lat="44.242475555005896" lon="10.140739894049986"><ele>370.2</ele><time>2026-05-02T09:42:46Z</time></trkpt><trkpt lat="44.24244297898869" lon="10.140876210133484"><ele>370.0</ele><time>2026-05-02T09:42:47Z</time></trkpt><trkpt lat="44.24242409972994" lon="10.141023045404227"><ele>369.8</ele><time>2026-05-02T09:42:48Z</time></trkpt><trkpt lat="44.2424041103019" lon="10.141176590070518"><ele>369.6</ele><time>2026-05-02T09:42:49Z</time></trkpt><trkpt lat="44.2424046673389" lon="10.141334607556795"><ele>369.4</ele><time>2026-05-02T09:42:50Z</time></trkpt><trkpt lat="44.24237857440126" lon="10.14148744824679"><ele>369.2</ele><time>2026-05-02T09:42:50.999Z</time></trkpt><trkpt lat="44.2423480870702" lon="10.141634742612442"><ele>369.0</ele><time>2026-05-02T09:42:51.999Z</time></trkpt><trkpt lat="44.24230713849562" lon="10.14178286344663"><ele>374.5</ele><time>2026-05-02T09:42:52.999Z</time></trkpt><trkpt lat="44.24225725376792" lon="10.141938824461123"><ele>380.0</ele><time>2026-05-02T09:42:53.999Z</time></trkpt><trkpt lat="44.242184592194384" lon="10.142081524513706"><ele>385.5</ele><time>2026-05-02T09:42:54.999Z</time></trkpt><trkpt lat="44.24212748130007" lon="10.142239868537997"><ele>391.0</ele><time>2026-05-02T09:42:55.999Z</time></trkpt><trkpt lat="44.24207642644164" lon="10.142405976965392"><ele>391.0</ele><time>2026-05-02T09:42:56.999Z</time></trkpt><trkpt lat="44.24203999062295" lon="10.142584753371779"><ele>391.0</ele><time>2026-05-02T09:42:57.999Z</time></trkpt><trkpt lat="44.24201824749576" lon="10.142747326978846"><ele>391.0</ele><time>2026-05-02T09:42:58.999Z</time></trkpt><trkpt lat="44.241998096015934" lon="10.142910419811043"><ele>391.0</ele><time>2026-05-02T09:42:59.999Z</time></trkpt><trkpt lat="44.241973570574956" lon="10.143072090110923"><ele>391.8</ele><time>2026-05-02T09:43:00.999Z</time></trkpt><trkpt lat="44.24196355626012" lon="10.143233326308154"><ele>392.6</ele><time>2026-05-02T09:43:01.999Z</time></trkpt><trkpt lat="44.24193760109299" lon="10.143379801091742"><ele>393.4</ele><time>2026-05-02T09:43:02.999Z</time></trkpt><trkpt lat="44.24190156862977" lon="10.143523586517398"><ele>394.2</ele><time>2026-05-02T09:43:03.999Z</time></trkpt><trkpt lat="44.24191217023001" lon="10.143673969804487"><ele>395.0</ele><time>2026-05-02T09:43:04.999Z</time></trkpt><trkpt lat="44.24194618819919" lon="10.143808958748467"><ele>395.0</ele><time>2026-05-02T09:43:05.999Z</time></trkpt><trkpt lat="44.24199813478026" lon="10.14393733364911"><ele>395.0</ele><time>2026-05-02T09:43:06.999Z</time></trkpt><trkpt lat="44.242073485645605" lon="10.144052536294497"><ele>395.0</ele><time>2026-05-02T09:43:07.999Z</time></trkpt><trkpt lat="44.24214257766452" lon="10.144154309832498"><ele>395.0</ele><time>2026-05-02T09:43:08.999Z</time></trkpt><trkpt lat="44.242176928518504" lon="10.144286009633994"><ele>395.0</ele><time>2026-05-02T09:43:09.999Z</time></trkpt><trkpt lat="44.242149951900366" lon="10.14444357426359"><ele>396.25</ele><time>2026-05-02T09:43:10.999Z</time></trkpt><trkpt lat="44.24214024968083" lon="10.144604959077869"><ele>397.5</ele><time>2026-05-02T09:43:11.999Z</time></trkpt><trkpt lat="44.242147054127145" lon="10.144779221359876"><ele>398.75</ele><time>2026-05-02T09:43:12.999Z</time></trkpt><trkpt lat="44.24213870097826" lon="10.14495732179807"><ele>400.0</ele><time>2026-05-02T09:43:13.999Z</time></trkpt><trkpt lat="44.242132222486546" lon="10.14513544229612"><ele>401.25</ele><time>2026-05-02T09:43:14.999Z</time></trkpt><trkpt lat="44.24212686092669" lon="10.145316622547988"><ele>402.5</ele><time>2026-05-02T09:43:15.999Z</time></trkpt><trkpt lat="44.24211797109901" lon="10.145485933458573"><ele>403.75</ele><time>2026-05-02T09:43:16.999Z</time></trkpt><trkpt lat="44.242116479721524" lon="10.145641339888046"><ele>405.0</ele><time>2026-05-02T09:43:17.999Z</time></trkpt><trkpt lat="44.242124273172486" lon="10.14580326941066"><ele>406.0</ele><time>2026-05-02T09:43:18.999Z</time></trkpt><trkpt lat="44.24214545973521" lon="10.145974827567136"><ele>407.0</ele><time>2026-05-02T09:43:19.999Z</time></trkpt><trkpt lat="44.242174155502624" lon="10.146146424141726"><ele>408.0</ele><time>2026-05-02T09:43:20.999Z</time></trkpt><trkpt lat="44.24221361708993" lon="10.146311214220066"><ele>409.0</ele><time>2026-05-02T09:43:21.999Z</time></trkpt><trkpt lat="44.242257223447524" lon="10.14646325179989"><ele>408.79999999999995</ele><time>2026-05-02T09:43:22.999Z</time></trkpt><trkpt lat="44.242297373820016" lon="10.146602362040753"><ele>408.59999999999997</ele><time>2026-05-02T09:43:23.999Z</time></trkpt><trkpt lat="44.24233192276803" lon="10.146719514738345"><ele>408.4</ele><time>2026-05-02T09:43:25Z</time></trkpt><trkpt lat="44.24237379000757" lon="10.14683517686767"><ele>408.2</ele><time>2026-05-02T09:43:26Z</time></trkpt><trkpt lat="44.24244098609545" lon="10.146931738233244"><ele>408.0</ele><time>2026-05-02T09:43:27Z</time></trkpt><trkpt lat="44.24253749565052" lon="10.146997414722774"><ele>408.0</ele><time>2026-05-02T09:43:28Z</time></trkpt><trkpt lat="44.24263848263697" lon="10.147062695007508"><ele>408.0</ele><time>2026-05-02T09:43:29Z</time></trkpt><trkpt lat="44.24272280098178" lon="10.14714825325117"><ele>408.0</ele><time>2026-05-02T09:43:30Z</time></trkpt><trkpt lat="44.24277669289338" lon="10.147263152724145"><ele>408.0</ele><time>2026-05-02T09:43:31Z</time></trkpt><trkpt lat="44.24276948075176" lon="10.1474077815906"><ele>408.0</ele><time>2026-05-02T09:43:32Z</time></trkpt><trkpt lat="44.24278954763975" lon="10.147569509724075"><ele>412.75</ele><time>2026-05-02T09:43:33Z</time></trkpt><trkpt lat="44.24284417599898" lon="10.147716517759036"><ele>417.5</ele><time>2026-05-02T09:43:34Z</time></trkpt><trkpt lat="44.24290805779449" lon="10.147853555240433"><ele>422.25</ele><time>2026-05-02T09:43:35Z</time></trkpt><trkpt lat="44.24297375860831" lon="10.147991060305378"><ele>427.0</ele><time>2026-05-02T09:43:36Z</time></trkpt><trkpt lat="44.24300115854039" lon="10.148151315673472"><ele>431.0</ele><time>2026-05-02T09:43:37Z</time></trkpt><trkpt lat="44.243010123070995" lon="10.148306868059374"><ele>435.0</ele><time>2026-05-02T09:43:38Z</time></trkpt><trkpt lat="44.24300512514597" lon="10.148466172842449"><ele>439.0</ele><time>2026-05-02T09:43:39Z</time></trkpt><trkpt lat="44.24299674316247" lon="10.14863478407509"><ele>443.0</ele><time>2026-05-02T09:43:40Z</time></trkpt><trkpt lat="44.24300331291377" lon="10.148805937866802"><ele>443.0</ele><time>2026-05-02T09:43:41Z</time></trkpt><trkpt lat="44.24299431791844" lon="10.148976328498165"><ele>443.0</ele><time>2026-05-02T09:43:42Z</time></trkpt><trkpt lat="44.24296787692615" lon="10.149144125425975"><ele>443.0</ele><time>2026-05-02T09:43:43Z</time></trkpt><trkpt lat="44.242957542430986" lon="10.14931596502564"><ele>443.0</ele><time>2026-05-02T09:43:44Z</time></trkpt><trkpt lat="44.24296434724921" lon="10.149490727513587"><ele>445.75</ele><time>2026-05-02T09:43:45Z</time></trkpt><trkpt lat="44.24295316493583" lon="10.149665046003681"><ele>448.5</ele><time>2026-05-02T09:43:46Z</time></trkpt><trkpt lat="44.242945223778236" lon="10.149841560027"><ele>451.25</ele><time>2026-05-02T09:43:47Z</time></trkpt><trkpt lat="44.242919853915865" lon="10.150016825032074"><ele>454.0</ele><time>2026-05-02T09:43:48Z</time></trkpt><trkpt lat="44.24291062830153" lon="10.150193841584157"><ele>454.4</ele><time>2026-05-02T09:43:49Z</time></trkpt><trkpt lat="44.242904509617496" lon="10.150347504629943"><ele>454.79999999999995</ele><time>2026-05-02T09:43:50Z</time></trkpt><trkpt lat="44.242904064898134" lon="10.150489924776426"><ele>455.20000000000005</ele><time>2026-05-02T09:43:51Z</time></trkpt><trkpt lat="44.24291788748701" lon="10.150632119456711"><ele>455.6</ele><time>2026-05-02T09:43:52Z</time></trkpt><trkpt lat="44.24296984504018" lon="10.150764827672639"><ele>456.0</ele><time>2026-05-02T09:43:53Z</time></trkpt><trkpt lat="44.2430274087764" lon="10.150897373495292"><ele>458.0</ele><time>2026-05-02T09:43:54Z</time></trkpt><trkpt lat="44.243113716637346" lon="10.151014901246642"><ele>460.0</ele><time>2026-05-02T09:43:55Z</time></trkpt><trkpt lat="44.243211771060295" lon="10.15112115674747"><ele>462.0</ele><time>2026-05-02T09:43:56Z</time></trkpt><trkpt lat="44.24330499064967" lon="10.15123267269911"><ele>464.0</ele><time>2026-05-02T09:43:57Z</time></trkpt><trkpt lat="44.24336839416445" lon="10.15137419490322"><ele>460.0</ele><time>2026-05-02T09:43:58Z</time></trkpt><trkpt lat="44.24338415984543" lon="10.151545492902228"><ele>456.0</ele><time>2026-05-02T09:43:59Z</time></trkpt><trkpt lat="44.24341620108431" lon="10.15171160946183"><ele>452.0</ele><time>2026-05-02T09:44:00Z</time></trkpt><trkpt lat="44.24345524405004" lon="10.151880694937962"><ele>448.0</ele><time>2026-05-02T09:44:01Z</time></trkpt><trkpt lat="44.24347897545035" lon="10.152047607114635"><ele>448.0</ele><time>2026-05-02T09:44:02Z</time></trkpt><trkpt lat="44.24346010472767" lon="10.152210103123743"><ele>448.0</ele><time>2026-05-02T09:44:03Z</time></trkpt><trkpt lat="44.24342500084433" lon="10.1523593254573"><ele>448.0</ele><time>2026-05-02T09:44:04Z</time></trkpt><trkpt lat="44.243411581643194" lon="10.152520174085966"><ele>448.0</ele><time>2026-05-02T09:44:05Z</time></trkpt><trkpt lat="44.243405211575954" lon="10.152670488081673"><ele>450.25</ele><time>2026-05-02T09:44:06Z</time></trkpt><trkpt lat="44.24343349462604" lon="10.152822096199275"><ele>452.5</ele><time>2026-05-02T09:44:07Z</time></trkpt><trkpt lat="44.24348582257979" lon="10.15295887478008"><ele>454.75</ele><time>2026-05-02T09:44:08Z</time></trkpt><trkpt lat="44.24355546454702" lon="10.153094439734025"><ele>457.0</ele><time>2026-05-02T09:44:09Z</time></trkpt><trkpt lat="44.24359961914909" lon="10.153258628318742"><ele>459.0</ele><time>2026-05-02T09:44:10Z</time></trkpt><trkpt lat="44.24363555142033" lon="10.153433505996755"><ele>461.0</ele><time>2026-05-02T09:44:11Z</time></trkpt><trkpt lat="44.243674719627656" lon="10.153618060821257"><ele>463.0</ele><time>2026-05-02T09:44:12Z</time></trkpt><trkpt lat="44.243727916607845" lon="10.153805538573454"><ele>465.0</ele><time>2026-05-02T09:44:13Z</time></trkpt><trkpt lat="44.243741422349935" lon="10.154013912613625"><ele>466.25</ele><time>2026-05-02T09:44:14Z</time></trkpt><trkpt lat="44.243757850719604" lon="10.154204134811003"><ele>467.5</ele><time>2026-05-02T09:44:15Z</time></trkpt><trkpt lat="44.24375456550052" lon="10.154379929641115"><ele>468.75</ele><time>2026-05-02T09:44:16Z</time></trkpt><trkpt lat="44.24373298462622" lon="10.154549442043816"><ele>470.0</ele><time>2026-05-02T09:44:17Z</time></trkpt><trkpt lat="44.24369347673185" lon="10.154733581478641"><ele>471.0</ele><time>2026-05-02T09:44:18Z</time></trkpt><trkpt lat="44.243636201991436" lon="10.15492261171878"><ele>472.0</ele><time>2026-05-02T09:44:19Z</time></trkpt><trkpt lat="44.24356041725223" lon="10.155102712884934"><ele>473.0</ele><time>2026-05-02T09:44:20Z</time></trkpt><trkpt lat="44.24347753921709" lon="10.15526424846013"><ele>474.0</ele><time>2026-05-02T09:44:21Z</time></trkpt><trkpt lat="44.243398404887294" lon="10.155399353637186"><ele>474.0</ele><time>2026-05-02T09:44:22Z</time></trkpt><trkpt lat="44.24332387002434" lon="10.155514116873977"><ele>474.0</ele><time>2026-05-02T09:44:23Z</time></trkpt><trkpt lat="44.24323698072093" lon="10.155611897312975"><ele>474.0</ele><time>2026-05-02T09:44:24Z</time></trkpt><trkpt lat="44.24312815474741" lon="10.1556866437101"><ele>474.0</ele><time>2026-05-02T09:44:25Z</time></trkpt><trkpt lat="44.2430077050373" lon="10.15575792161898"><ele>476.75</ele><time>2026-05-02T09:44:26Z</time></trkpt><trkpt lat="44.24289680671686" lon="10.155854028578588"><ele>479.5</ele><time>2026-05-02T09:44:27Z</time></trkpt><trkpt lat="44.24277767901526" lon="10.155935704465666"><ele>482.25</ele><time>2026-05-02T09:44:28Z</time></trkpt><trkpt lat="44.242692841291834" lon="10.156081751025102"><ele>485.0</ele><time>2026-05-02T09:44:29Z</time></trkpt><trkpt lat="44.24260561444569" lon="10.156219657141936"><ele>485.0</ele><time>2026-05-02T09:44:30Z</time></trkpt><trkpt lat="44.242527443358505" lon="10.15637177853393"><ele>485.0</ele><time>2026-05-02T09:44:31Z</time></trkpt><trkpt lat="44.242448630104526" lon="10.15652473183776"><ele>485.0</ele><time>2026-05-02T09:44:32Z</time></trkpt><trkpt lat="44.242411301459214" lon="10.156713782958088"><ele>485.0</ele><time>2026-05-02T09:44:32.999Z</time></trkpt><trkpt lat="44.242365538642375" lon="10.156900374422838"><ele>484.0</ele><time>2026-05-02T09:44:33.999Z</time></trkpt><trkpt lat="44.24232221377512" lon="10.157097687419576"><ele>483.0</ele><time>2026-05-02T09:44:34.999Z</time></trkpt><trkpt lat="44.24227546433943" lon="10.157299104464764"><ele>482.0</ele><time>2026-05-02T09:44:35.999Z</time></trkpt><trkpt lat="44.24223158884083" lon="10.157490000051581"><ele>481.0</ele><time>2026-05-02T09:44:36.999Z</time></trkpt><trkpt lat="44.242196047283635" lon="10.157661647971919"><ele>481.0</ele><time>2026-05-02T09:44:37.999Z</time></trkpt><trkpt lat="44.242170600554374" lon="10.157826144490052"><ele>481.0</ele><time>2026-05-02T09:44:38.999Z</time></trkpt><trkpt lat="44.24217230479891" lon="10.157984343018624"><ele>481.0</ele><time>2026-05-02T09:44:39.999Z</time></trkpt><trkpt lat="44.24221045127701" lon="10.158137445295571"><ele>481.0</ele><time>2026-05-02T09:44:40.999Z</time></trkpt><trkpt lat="44.242266231664914" lon="10.1582848968866"><ele>481.25</ele><time>2026-05-02T09:44:41.999Z</time></trkpt><trkpt lat="44.24233999820754" lon="10.158430078813929"><ele>481.5</ele><time>2026-05-02T09:44:42.999Z</time></trkpt><trkpt lat="44.24241766143621" lon="10.158573238445024"><ele>481.75</ele><time>2026-05-02T09:44:43.999Z</time></trkpt><trkpt lat="44.242504356260106" lon="10.158704146434433"><ele>482.0</ele><time>2026-05-02T09:44:44.999Z</time></trkpt><trkpt lat="44.242591612339176" lon="10.15882127973982"><ele>482.0</ele><time>2026-05-02T09:44:45.999Z</time></trkpt><trkpt lat="44.24267336585335" lon="10.158924511933293"><ele>482.00000000000006</ele><time>2026-05-02T09:44:46.999Z</time></trkpt><trkpt lat="44.2427616274358" lon="10.159006141191684"><ele>482.00000000000006</ele><time>2026-05-02T09:44:47.999Z</time></trkpt><trkpt lat="44.242858670610474" lon="10.159062896519176"><ele>482.0</ele><time>2026-05-02T09:44:48.999Z</time></trkpt><trkpt lat="44.24296022159572" lon="10.159092625292315"><ele>482.0</ele><time>2026-05-02T09:44:49.999Z</time></trkpt><trkpt lat="44.24306342760638" lon="10.159080939967"><ele>479.25</ele><time>2026-05-02T09:44:50.999Z</time></trkpt><trkpt lat="44.24317895946563" lon="10.159037594163829"><ele>476.5</ele><time>2026-05-02T09:44:51.999Z</time></trkpt><trkpt lat="44.24330036077922" lon="10.158981792388861"><ele>473.75</ele><time>2026-05-02T09:44:52.999Z</time></trkpt><trkpt lat="44.24342325325568" lon="10.15896973699451"><ele>471.0</ele><time>2026-05-02T09:44:53.999Z</time></trkpt><trkpt lat="44.24354095735223" lon="10.158976332900934"><ele>471.0</ele><time>2026-05-02T09:44:54.999Z</time></trkpt><trkpt lat="44.24367495986209" lon="10.158987177539336"><ele>471.0</ele><time>2026-05-02T09:44:55.999Z</time></trkpt><trkpt lat="44.24380324792186" lon="10.159013494148343"><ele>471.0</ele><time>2026-05-02T09:44:56.999Z</time></trkpt><trkpt lat="44.24391758088027" lon="10.159051319528905"><ele>471.0</ele><time>2026-05-02T09:44:57.999Z</time></trkpt><trkpt lat="44.2440059318413" lon="10.159105574480606"><ele>473.20000000000005</ele><time>2026-05-02T09:44:58.999Z</time></trkpt><trkpt lat="44.244062252571695" lon="10.159187860320648"><ele>475.40000000000003</ele><time>2026-05-02T09:44:59.999Z</time></trkpt><trkpt lat="44.244083430580694" lon="10.159290660919671"><ele>477.6</ele><time>2026-05-02T09:45:00.999Z</time></trkpt><trkpt lat="44.24408126937686" lon="10.159424236642675"><ele>479.8</ele><time>2026-05-02T09:45:01.999Z</time></trkpt><trkpt lat="44.24407451541134" lon="10.159571732812434"><ele>482.0</ele><time>2026-05-02T09:45:02.999Z</time></trkpt><trkpt lat="44.24409852660982" lon="10.159712817518717"><ele>482.0</ele><time>2026-05-02T09:45:03.999Z</time></trkpt><trkpt lat="44.24415089645425" lon="10.15985792125306"><ele>482.0</ele><time>2026-05-02T09:45:04.999Z</time></trkpt><trkpt lat="44.24421079591929" lon="10.159995928227376"><ele>482.0</ele><time>2026-05-02T09:45:05.999Z</time></trkpt><trkpt lat="44.24429577018693" lon="10.160136255360763"><ele>482.0</ele><time>2026-05-02T09:45:06.999Z</time></trkpt><trkpt lat="44.244374596083176" lon="10.160282258453375"><ele>486.0</ele><time>2026-05-02T09:45:07.999Z</time></trkpt><trkpt lat="44.24445732177774" lon="10.160439026527598"><ele>490.0</ele><time>2026-05-02T09:45:08.999Z</time></trkpt><trkpt lat="44.244500087352904" lon="10.160625551347563"><ele>494.0</ele><time>2026-05-02T09:45:09.999Z</time></trkpt><trkpt lat="44.24455352893048" lon="10.160810970023096"><ele>498.0</ele><time>2026-05-02T09:45:10.999Z</time></trkpt><trkpt lat="44.24460581499347" lon="10.1609947743312"><ele>500.5</ele><time>2026-05-02T09:45:11.999Z</time></trkpt><trkpt lat="44.24465802446359" lon="10.161188608251202"><ele>503.0</ele><time>2026-05-02T09:45:12.999Z</time></trkpt><trkpt lat="44.24470035319496" lon="10.161379746309573"><ele>505.5</ele><time>2026-05-02T09:45:13.999Z</time></trkpt><trkpt lat="44.244729421333496" lon="10.161547389974688"><ele>508.0</ele><time>2026-05-02T09:45:14.999Z</time></trkpt><trkpt lat="44.24474257119848" lon="10.161713395426872"><ele>508.5</ele><time>2026-05-02T09:45:15.999Z</time></trkpt><trkpt lat="44.24473860788596" lon="10.161893813364753"><ele>509.0</ele><time>2026-05-02T09:45:16.999Z</time></trkpt><trkpt lat="44.24470811858765" lon="10.162061457483349"><ele>509.5</ele><time>2026-05-02T09:45:17.999Z</time></trkpt><trkpt lat="44.24466656163559" lon="10.162241471642504"><ele>510.0</ele><time>2026-05-02T09:45:18.999Z</time></trkpt><trkpt lat="44.24462693942042" lon="10.162422353441691"><ele>512.25</ele><time>2026-05-02T09:45:19.999Z</time></trkpt><trkpt lat="44.244587810583454" lon="10.16260098289179"><ele>514.5</ele><time>2026-05-02T09:45:20.999Z</time></trkpt><trkpt lat="44.244556852783454" lon="10.162778951173744"><ele>516.75</ele><time>2026-05-02T09:45:21.999Z</time></trkpt><trkpt lat="44.244512228035596" lon="10.162950389582306"><ele>519.0</ele><time>2026-05-02T09:45:22.999Z</time></trkpt><trkpt lat="44.24445625200136" lon="10.163113585512145"><ele>519.25</ele><time>2026-05-02T09:45:23.999Z</time></trkpt><trkpt lat="44.2444117684554" lon="10.163291751687856"><ele>519.5</ele><time>2026-05-02T09:45:24.999Z</time></trkpt><trkpt lat="44.244363566877794" lon="10.163464930675568"><ele>519.75</ele><time>2026-05-02T09:45:25.999Z</time></trkpt><trkpt lat="44.24432877076783" lon="10.163640389997465"><ele>520.0</ele><time>2026-05-02T09:45:26.999Z</time></trkpt><trkpt lat="44.244303976651366" lon="10.163805466104266"><ele>520.0</ele><time>2026-05-02T09:45:27.999Z</time></trkpt><trkpt lat="44.24428022559985" lon="10.163960987241207"><ele>520.0</ele><time>2026-05-02T09:45:28.999Z</time></trkpt><trkpt lat="44.24428028492577" lon="10.164106033146549"><ele>520.0</ele><time>2026-05-02T09:45:29.999Z</time></trkpt><trkpt lat="44.24430128934663" lon="10.164239252434879"><ele>520.0</ele><time>2026-05-02T09:45:31Z</time></trkpt><trkpt lat="44.24435275349308" lon="10.164356405508059"><ele>520.0</ele><time>2026-05-02T09:45:32Z</time></trkpt><trkpt lat="44.24442770306944" lon="10.16444721410266"><ele>519.0</ele><time>2026-05-02T09:45:33Z</time></trkpt><trkpt lat="44.24452276634616" lon="10.164520291256675"><ele>518.0</ele><time>2026-05-02T09:45:34Z</time></trkpt><trkpt lat="44.24462084364505" lon="10.16456184281555"><ele>517.0</ele><time>2026-05-02T09:45:35Z</time></trkpt><trkpt lat="44.24472387586414" lon="10.164562059254067"><ele>516.0</ele><time>2026-05-02T09:45:36Z</time></trkpt><trkpt lat="44.24483253877349" lon="10.164521232573875"><ele>515.0</ele><time>2026-05-02T09:45:37Z</time></trkpt><trkpt lat="44.2449330314148" lon="10.164444089084867"><ele>512.6</ele><time>2026-05-02T09:45:38Z</time></trkpt><trkpt lat="44.245041637649265" lon="10.164355162775356"><ele>510.2</ele><time>2026-05-02T09:45:39Z</time></trkpt><trkpt lat="44.24513997530143" lon="10.16433227876254"><ele>507.79999999999995</ele><time>2026-05-02T09:45:40Z</time></trkpt><trkpt lat="44.245240982826715" lon="10.164338976522082"><ele>505.4</ele><time>2026-05-02T09:45:41Z</time></trkpt><trkpt lat="44.24533792826695" lon="10.164382659948208"><ele>503.0</ele><time>2026-05-02T09:45:42Z</time></trkpt><trkpt lat="44.24543269631288" lon="10.164463779629294"><ele>503.0</ele><time>2026-05-02T09:45:43Z</time></trkpt><trkpt lat="44.24551616946794" lon="10.164578608168627"><ele>503.0</ele><time>2026-05-02T09:45:44Z</time></trkpt><trkpt lat="44.245596298111444" lon="10.164710970319316"><ele>503.0</ele><time>2026-05-02T09:45:45Z</time></trkpt><trkpt lat="44.24568307244858" lon="10.164869228645818"><ele>503.0</ele><time>2026-05-02T09:45:46Z</time></trkpt><trkpt lat="44.245772753866774" lon="10.16504906819893"><ele>505.0</ele><time>2026-05-02T09:45:47Z</time></trkpt><trkpt lat="44.24585498096516" lon="10.165248720173532"><ele>507.0</ele><time>2026-05-02T09:45:48Z</time></trkpt><trkpt lat="44.24592308888754" lon="10.165437894852722"><ele>509.0</ele><time>2026-05-02T09:45:49Z</time></trkpt><trkpt lat="44.24599613787255" lon="10.16562708548829"><ele>514.0</ele><time>2026-05-02T09:45:50Z</time></trkpt><trkpt lat="44.24607203635553" lon="10.165805509741705"><ele>519.0</ele><time>2026-05-02T09:45:51Z</time></trkpt><trkpt lat="44.24615651657922" lon="10.165976904594778"><ele>524.0</ele><time>2026-05-02T09:45:52Z</time></trkpt><trkpt lat="44.246240374381806" lon="10.16613472229548"><ele>529.0</ele><time>2026-05-02T09:45:53Z</time></trkpt><trkpt lat="44.246324609775044" lon="10.16628937547324"><ele>529.0</ele><time>2026-05-02T09:45:54Z</time></trkpt><trkpt lat="44.246412623373764" lon="10.166437449748146"><ele>529.0</ele><time>2026-05-02T09:45:55Z</time></trkpt><trkpt lat="44.246509138456915" lon="10.166573402834016"><ele>529.0</ele><time>2026-05-02T09:45:56Z</time></trkpt><trkpt lat="44.24661801378251" lon="10.166675008755426"><ele>529.0</ele><time>2026-05-02T09:45:57Z</time></trkpt><trkpt lat="44.24672864544675" lon="10.166764254286507"><ele>524.75</ele><time>2026-05-02T09:45:58Z</time></trkpt><trkpt lat="44.24682413693917" lon="10.166863771994295"><ele>520.5</ele><time>2026-05-02T09:45:59Z</time></trkpt><trkpt lat="44.24690264355323" lon="10.1669900711074"><ele>516.25</ele><time>2026-05-02T09:46:00Z</time></trkpt><trkpt lat="44.24696714784641" lon="10.167147204540798"><ele>512.0</ele><time>2026-05-02T09:46:01Z</time></trkpt><trkpt lat="44.24701465659499" lon="10.167331744252056"><ele>516.75</ele><time>2026-05-02T09:46:02Z</time></trkpt><trkpt lat="44.24706472573561" lon="10.16751863835086"><ele>521.5</ele><time>2026-05-02T09:46:03Z</time></trkpt><trkpt lat="44.24713435694657" lon="10.167696683901381"><ele>526.25</ele><time>2026-05-02T09:46:04Z</time></trkpt><trkpt lat="44.247217142396195" lon="10.167860389814495"><ele>531.0</ele><time>2026-05-02T09:46:05Z</time></trkpt><trkpt lat="44.247279253023294" lon="10.168022003203232"><ele>526.0</ele><time>2026-05-02T09:46:06Z</time></trkpt><trkpt lat="44.2473290011486" lon="10.168198954422857"><ele>521.0</ele><time>2026-05-02T09:46:07Z</time></trkpt><trkpt lat="44.24737583682172" lon="10.168386915961861"><ele>516.0</ele><time>2026-05-02T09:46:08Z</time></trkpt><trkpt lat="44.247425067725594" lon="10.168568930774063"><ele>511.0</ele><time>2026-05-02T09:46:09Z</time></trkpt><trkpt lat="44.24746506079753" lon="10.16873137501284"><ele>511.0</ele><time>2026-05-02T09:46:10Z</time></trkpt><trkpt lat="44.24750607691953" lon="10.168892486291872"><ele>511.0</ele><time>2026-05-02T09:46:11Z</time></trkpt><trkpt lat="44.24754722963167" lon="10.169053039284815"><ele>511.0</ele><time>2026-05-02T09:46:12Z</time></trkpt><trkpt lat="44.24758227304898" lon="10.169205276638493"><ele>511.0</ele><time>2026-05-02T09:46:13Z</time></trkpt><trkpt lat="44.24762310871031" lon="10.169363526725903"><ele>513.25</ele><time>2026-05-02T09:46:14Z</time></trkpt><trkpt lat="44.247661524342256" lon="10.1695104698343"><ele>515.5</ele><time>2026-05-02T09:46:15Z</time></trkpt><trkpt lat="44.247703223741865" lon="10.169648864380449"><ele>517.75</ele><time>2026-05-02T09:46:16Z</time></trkpt><trkpt lat="44.247743919780675" lon="10.169795507947244"><ele>520.0</ele><time>2026-05-02T09:46:17Z</time></trkpt><trkpt lat="44.24778391015878" lon="10.16995045836052"><ele>522.0</ele><time>2026-05-02T09:46:18Z</time></trkpt><trkpt lat="44.247821508995585" lon="10.17010927571436"><ele>524.0</ele><time>2026-05-02T09:46:19Z</time></trkpt><trkpt lat="44.24784844997399" lon="10.170275968546667"><ele>526.0</ele><time>2026-05-02T09:46:20Z</time></trkpt><trkpt lat="44.247865716844366" lon="10.170441333194702"><ele>528.0</ele><time>2026-05-02T09:46:21Z</time></trkpt><trkpt lat="44.247879167437105" lon="10.170605414909797"><ele>528.75</ele><time>2026-05-02T09:46:22Z</time></trkpt><trkpt lat="44.2478925201045" lon="10.1707703679705"><ele>529.5</ele><time>2026-05-02T09:46:23Z</time></trkpt><trkpt lat="44.247900164956214" lon="10.170935357795432"><ele>530.25</ele><time>2026-05-02T09:46:24Z</time></trkpt><trkpt lat="44.24790592079639" lon="10.171100354936762"><ele>531.0</ele><time>2026-05-02T09:46:25Z</time></trkpt><trkpt lat="44.24790766054841" lon="10.171266533141303"><ele>531.0</ele><time>2026-05-02T09:46:26Z</time></trkpt><trkpt lat="44.24791669253449" lon="10.171420868894963"><ele>531.0</ele><time>2026-05-02T09:46:27Z</time></trkpt><trkpt lat="44.24792458150896" lon="10.171568677819161"><ele>531.0</ele><time>2026-05-02T09:46:28Z</time></trkpt><trkpt lat="44.24793066587315" lon="10.171699185202485"><ele>531.0</ele><time>2026-05-02T09:46:29Z</time></trkpt><trkpt lat="44.247937602290484" lon="10.171825588716047"><ele>531.0</ele><time>2026-05-02T09:46:30Z</time></trkpt><trkpt lat="44.24794098135283" lon="10.171955826293638"><ele>532.0</ele><time>2026-05-02T09:46:31Z</time></trkpt><trkpt lat="44.24794748965536" lon="10.172096353704188"><ele>533.0</ele><time>2026-05-02T09:46:32Z</time></trkpt><trkpt lat="44.24795615381116" lon="10.172244828440382"><ele>534.0</ele><time>2026-05-02T09:46:33Z</time></trkpt><trkpt lat="44.24796195085576" lon="10.17239487290896"><ele>535.0</ele><time>2026-05-02T09:46:34Z</time></trkpt><trkpt lat="44.247970585192924" lon="10.172546809132474"><ele>536.0</ele><time>2026-05-02T09:46:35Z</time></trkpt><trkpt lat="44.24797694225532" lon="10.172686483875845"><ele>537.0</ele><time>2026-05-02T09:46:36Z</time></trkpt><trkpt lat="44.247984878419004" lon="10.17282741123837"><ele>538.0</ele><time>2026-05-02T09:46:36.999Z</time></trkpt><trkpt lat="44.247994378570574" lon="10.172955490168537"><ele>539.0</ele><time>2026-05-02T09:46:37.999Z</time></trkpt><trkpt lat="44.24800149139644" lon="10.17307466135718"><ele>540.0</ele><time>2026-05-02T09:46:38.999Z</time></trkpt><trkpt lat="44.248008587708924" lon="10.173176835712818"><ele>541.0</ele><time>2026-05-02T09:46:39.999Z</time></trkpt><trkpt lat="44.24798883377513" lon="10.173284014903196"><ele>542.0</ele><time>2026-05-02T09:46:41.999Z</time></trkpt><trkpt lat="44.24790714524591" lon="10.173227847727668"><ele>542.0</ele><time>2026-05-02T09:46:44.999Z</time></trkpt><trkpt lat="44.24788766279642" lon="10.173143365693035"><ele>542.0</ele><time>2026-05-02T09:46:45.999Z</time></trkpt><trkpt lat="44.247888975455574" lon="10.173020485652463"><ele>542.0</ele><time>2026-05-02T09:46:46.999Z</time></trkpt><trkpt lat="44.24788099298051" lon="10.172892851124908"><ele>542.0</ele><time>2026-05-02T09:46:47.999Z</time></trkpt><trkpt lat="44.24784730551658" lon="10.172788971136686"><ele>542.0</ele><time>2026-05-02T09:46:48.999Z</time></trkpt><trkpt lat="44.24779447754064" lon="10.172693348390352"><ele>542.0</ele><time>2026-05-02T09:46:49.999Z</time></trkpt><trkpt lat="44.24772259223517" lon="10.172607804899435"><ele>542.0</ele><time>2026-05-02T09:46:50.999Z</time></trkpt><trkpt lat="44.24764884433427" lon="10.172537561372975"><ele>542.0</ele><time>2026-05-02T09:46:51.999Z</time></trkpt><trkpt lat="44.247581130200764" lon="10.172475449735835"><ele>542.0</ele><time>2026-05-02T09:46:52.999Z</time></trkpt><trkpt lat="44.247530009224526" lon="10.172420444293138"><ele>542.0</ele><time>2026-05-02T09:46:53.999Z</time></trkpt><trkpt lat="44.24743747122029" lon="10.17240610772998"><ele>542.0</ele><time>2026-05-02T09:46:55.999Z</time></trkpt><trkpt lat="44.247415990699224" lon="10.172536479410768"><ele>542.0</ele><time>2026-05-02T09:46:57.999Z</time></trkpt><trkpt lat="44.24749418730415" lon="10.17267556027846"><ele>542.0</ele><time>2026-05-02T09:46:59.999Z</time></trkpt><trkpt lat="44.24755909529209" lon="10.172757267031852"><ele>542.0</ele><time>2026-05-02T09:47:00.999Z</time></trkpt><trkpt lat="44.24761115502306" lon="10.172863113062052"><ele>542.0</ele><time>2026-05-02T09:47:01.999Z</time></trkpt><trkpt lat="44.247642695888715" lon="10.172988534920243"><ele>542.0</ele><time>2026-05-02T09:47:02.999Z</time></trkpt><trkpt lat="44.24764606315802" lon="10.173135546477145"><ele>542.0</ele><time>2026-05-02T09:47:03.999Z</time></trkpt><trkpt lat="44.24764335404183" lon="10.173304723060852"><ele>543.8000000000001</ele><time>2026-05-02T09:47:04.999Z</time></trkpt><trkpt lat="44.247651928729354" lon="10.173476706015649"><ele>545.6</ele><time>2026-05-02T09:47:05.999Z</time></trkpt><trkpt lat="44.24766171058577" lon="10.173608856971404"><ele>547.4000000000001</ele><time>2026-05-02T09:47:06.999Z</time></trkpt><trkpt lat="44.24765265421813" lon="10.17371752663731"><ele>549.2</ele><time>2026-05-02T09:47:07.999Z</time></trkpt><trkpt lat="44.24757071396728" lon="10.173795774649122"><ele>551.0</ele><time>2026-05-02T09:47:09.999Z</time></trkpt><trkpt lat="44.247477557085915" lon="10.173678210102493"><ele>551.0</ele><time>2026-05-02T09:47:11.999Z</time></trkpt><trkpt lat="44.2474554940094" lon="10.173547921369185"><ele>551.0</ele><time>2026-05-02T09:47:12.999Z</time></trkpt><trkpt lat="44.24743412698239" lon="10.17340177015588"><ele>551.0</ele><time>2026-05-02T09:47:13.999Z</time></trkpt><trkpt lat="44.24739675626305" lon="10.173258846166382"><ele>551.0</ele><time>2026-05-02T09:47:14.999Z</time></trkpt><trkpt lat="44.24736223824438" lon="10.173154668227973"><ele>551.0</ele><time>2026-05-02T09:47:15.999Z</time></trkpt><trkpt lat="44.2473148299848" lon="10.17307044014598"><ele>554.8</ele><time>2026-05-02T09:47:16.999Z</time></trkpt><trkpt lat="44.24725601338394" lon="10.173015029776343"><ele>558.6</ele><time>2026-05-02T09:47:17.999Z</time></trkpt><trkpt lat="44.24716804212869" lon="10.17297205864392"><ele>562.4</ele><time>2026-05-02T09:47:18.999Z</time></trkpt><trkpt lat="44.24707185713037" lon="10.172917129502064"><ele>566.2</ele><time>2026-05-02T09:47:19.999Z</time></trkpt><trkpt lat="44.246979735799826" lon="10.172814430390451"><ele>570.0</ele><time>2026-05-02T09:47:20.999Z</time></trkpt><trkpt lat="44.24689593692462" lon="10.172677845171478"><ele>570.0</ele><time>2026-05-02T09:47:21.999Z</time></trkpt><trkpt lat="44.24681391321443" lon="10.172543965275125"><ele>570.0</ele><time>2026-05-02T09:47:22.999Z</time></trkpt><trkpt lat="44.24674156681128" lon="10.172434048461414"><ele>570.0</ele><time>2026-05-02T09:47:23.999Z</time></trkpt><trkpt lat="44.24668990097022" lon="10.172327403887873"><ele>570.0</ele><time>2026-05-02T09:47:24.999Z</time></trkpt><trkpt lat="44.24666244080341" lon="10.172207277677536"><ele>570.0</ele><time>2026-05-02T09:47:25.999Z</time></trkpt><trkpt lat="44.246654717179744" lon="10.17208434331024"><ele>568.8333333333334</ele><time>2026-05-02T09:47:26.999Z</time></trkpt><trkpt lat="44.24664781744125" lon="10.171985560547377"><ele>567.6666666666666</ele><time>2026-05-02T09:47:27.999Z</time></trkpt><trkpt lat="44.246576677512756" lon="10.17191277089297"><ele>566.5</ele><time>2026-05-02T09:47:29.999Z</time></trkpt><trkpt lat="44.24649406922139" lon="10.172004982075615"><ele>565.3333333333333</ele><time>2026-05-02T09:47:31.999Z</time></trkpt><trkpt lat="44.24647707858594" lon="10.172093736841466"><ele>564.1666666666666</ele><time>2026-05-02T09:47:32.999Z</time></trkpt><trkpt lat="44.246473033938514" lon="10.17220221414638"><ele>563.0</ele><time>2026-05-02T09:47:33.999Z</time></trkpt><trkpt lat="44.246478340647805" lon="10.172323813030603"><ele>564.4</ele><time>2026-05-02T09:47:34.999Z</time></trkpt><trkpt lat="44.24650572272788" lon="10.172438308751168"><ele>565.8</ele><time>2026-05-02T09:47:35.999Z</time></trkpt><trkpt lat="44.246573255846414" lon="10.1725458580526"><ele>567.2</ele><time>2026-05-02T09:47:37Z</time></trkpt><trkpt lat="44.246633921032746" lon="10.172666369855582"><ele>568.6</ele><time>2026-05-02T09:47:38Z</time></trkpt><trkpt lat="44.2466883569659" lon="10.172804359608701"><ele>570.0</ele><time>2026-05-02T09:47:39Z</time></trkpt><trkpt lat="44.24672843226663" lon="10.172964249676966"><ele>570.0</ele><time>2026-05-02T09:47:40Z</time></trkpt><trkpt lat="44.24675852097655" lon="10.173145658971485"><ele>570.0</ele><time>2026-05-02T09:47:41Z</time></trkpt><trkpt lat="44.24678456948852" lon="10.17332833974534"><ele>570.0</ele><time>2026-05-02T09:47:42Z</time></trkpt><trkpt lat="44.246799821101945" lon="10.17347334298081"><ele>570.0</ele><time>2026-05-02T09:47:43Z</time></trkpt><trkpt lat="44.24683976836542" lon="10.173604546505633"><ele>571.3333333333334</ele><time>2026-05-02T09:47:44Z</time></trkpt><trkpt lat="44.246897309923646" lon="10.173722519548745"><ele>572.6666666666666</ele><time>2026-05-02T09:47:45Z</time></trkpt><trkpt lat="44.2469694212409" lon="10.173826932474798"><ele>574.0</ele><time>2026-05-02T09:47:46Z</time></trkpt><trkpt lat="44.247034230686914" lon="10.173924316609185"><ele>575.3333333333333</ele><time>2026-05-02T09:47:47Z</time></trkpt><trkpt lat="44.24707804888201" lon="10.174010170278864"><ele>576.6666666666666</ele><time>2026-05-02T09:47:48Z</time></trkpt><trkpt lat="44.24708571256729" lon="10.174110519988993"><ele>578.0</ele><time>2026-05-02T09:47:49Z</time></trkpt><trkpt lat="44.2470650758834" lon="10.174243138267808"><ele>581.0</ele><time>2026-05-02T09:47:50Z</time></trkpt><trkpt lat="44.24703540919777" lon="10.174385957321022"><ele>584.0</ele><time>2026-05-02T09:47:51Z</time></trkpt><trkpt lat="44.24699575361107" lon="10.174544739949628"><ele>587.0</ele><time>2026-05-02T09:47:52Z</time></trkpt><trkpt lat="44.246954098893696" lon="10.174722600617773"><ele>590.0</ele><time>2026-05-02T09:47:53Z</time></trkpt><trkpt lat="44.24692279944203" lon="10.174885475374305"><ele>590.2</ele><time>2026-05-02T09:47:54Z</time></trkpt><trkpt lat="44.24689586589357" lon="10.175035437861867"><ele>590.4</ele><time>2026-05-02T09:47:55Z</time></trkpt><trkpt lat="44.24687785655156" lon="10.175171940272996"><ele>590.6</ele><time>2026-05-02T09:47:56Z</time></trkpt><trkpt lat="44.24685841151005" lon="10.175298243001437"><ele>590.8</ele><time>2026-05-02T09:47:57Z</time></trkpt><trkpt lat="44.24683595792781" lon="10.175405210035262"><ele>591.0</ele><time>2026-05-02T09:47:58Z</time></trkpt><trkpt lat="44.246798354647645" lon="10.175504192666393"><ele>591.0</ele><time>2026-05-02T09:47:59Z</time></trkpt><trkpt lat="44.24673472988213" lon="10.175597964658783"><ele>591.0</ele><time>2026-05-02T09:48:00Z</time></trkpt><trkpt lat="44.246667407887266" lon="10.175690552357143"><ele>591.0</ele><time>2026-05-02T09:48:01Z</time></trkpt><trkpt lat="44.24660917931959" lon="10.175775040596996"><ele>591.0</ele><time>2026-05-02T09:48:02Z</time></trkpt><trkpt lat="44.24656018486204" lon="10.17586811059616"><ele>591.0</ele><time>2026-05-02T09:48:03Z</time></trkpt><trkpt lat="44.24652519261293" lon="10.175956427768071"><ele>591.0</ele><time>2026-05-02T09:48:04Z</time></trkpt><trkpt lat="44.24648967327311" lon="10.176036797901073"><ele>597.2</ele><time>2026-05-02T09:48:05Z</time></trkpt><trkpt lat="44.24639341713934" lon="10.176066960946077"><ele>603.4000000000001</ele><time>2026-05-02T09:48:07Z</time></trkpt><trkpt lat="44.2463473376822" lon="10.17591400692395"><ele>609.6</ele><time>2026-05-02T09:48:09Z</time></trkpt><trkpt lat="44.24635528588198" lon="10.17578473607373"><ele>615.8000000000001</ele><time>2026-05-02T09:48:10Z</time></trkpt><trkpt lat="44.24635991081146" lon="10.175620535993332"><ele>622.0</ele><time>2026-05-02T09:48:11Z</time></trkpt><trkpt lat="44.24636609321174" lon="10.175422291911884"><ele>622.0</ele><time>2026-05-02T09:48:12Z</time></trkpt><trkpt lat="44.2463757990727" lon="10.175247657475945"><ele>622.0</ele><time>2026-05-02T09:48:13Z</time></trkpt><trkpt lat="44.24638166947326" lon="10.175091897502758"><ele>622.0</ele><time>2026-05-02T09:48:14Z</time></trkpt><trkpt lat="44.24638134992361" lon="10.174931856632575"><ele>622.0</ele><time>2026-05-02T09:48:15Z</time></trkpt><trkpt lat="44.24637521177978" lon="10.174776929980764"><ele>622.0</ele><time>2026-05-02T09:48:16Z</time></trkpt><trkpt lat="44.2463615964616" lon="10.174638117180653"><ele>622.0</ele><time>2026-05-02T09:48:17Z</time></trkpt><trkpt lat="44.24633684549652" lon="10.174518179495523"><ele>622.0</ele><time>2026-05-02T09:48:18Z</time></trkpt><trkpt lat="44.246292645925124" lon="10.174400986844596"><ele>622.0</ele><time>2026-05-02T09:48:19Z</time></trkpt><trkpt lat="44.246223072539586" lon="10.174280878223914"><ele>622.0</ele><time>2026-05-02T09:48:20Z</time></trkpt><trkpt lat="44.24613872983249" lon="10.174162469214796"><ele>622.0</ele><time>2026-05-02T09:48:21Z</time></trkpt><trkpt lat="44.24607283091561" lon="10.174036624225142"><ele>622.0</ele><time>2026-05-02T09:48:22Z</time></trkpt><trkpt lat="44.24603651868648" lon="10.173910163787431"><ele>622.0</ele><time>2026-05-02T09:48:23Z</time></trkpt><trkpt lat="44.24601035771945" lon="10.173806091400738"><ele>622.0</ele><time>2026-05-02T09:48:24Z</time></trkpt><trkpt lat="44.246022030238834" lon="10.173679748112756"><ele>622.0</ele><time>2026-05-02T09:48:25Z</time></trkpt><trkpt lat="44.24595085611141" lon="10.173651133493319"><ele>622.0</ele><time>2026-05-02T09:48:28Z</time></trkpt><trkpt lat="44.24593242448294" lon="10.173834209990044"><ele>622.0</ele><time>2026-05-02T09:48:30Z</time></trkpt><trkpt lat="44.24593664073313" lon="10.173958228498643"><ele>622.0</ele><time>2026-05-02T09:48:31Z</time></trkpt><trkpt lat="44.245931318636586" lon="10.174073568434816"><ele>622.0</ele><time>2026-05-02T09:48:32Z</time></trkpt><trkpt lat="44.24592766608185" lon="10.174274772853883"><ele>622.0</ele><time>2026-05-02T09:48:33Z</time></trkpt><trkpt lat="44.24592211894153" lon="10.17444083955515"><ele>622.0</ele><time>2026-05-02T09:48:34Z</time></trkpt><trkpt lat="44.24589826615897" lon="10.174618261059292"><ele>622.0</ele><time>2026-05-02T09:48:35Z</time></trkpt><trkpt lat="44.24586678324429" lon="10.174807260579751"><ele>622.0</ele><time>2026-05-02T09:48:36Z</time></trkpt><trkpt lat="44.245824144839354" lon="10.175018746440541"><ele>622.0</ele><time>2026-05-02T09:48:37Z</time></trkpt><trkpt lat="44.245782815253925" lon="10.17522333182741"><ele>622.0</ele><time>2026-05-02T09:48:38Z</time></trkpt><trkpt lat="44.2457499735963" lon="10.175395652661738"><ele>622.0</ele><time>2026-05-02T09:48:39Z</time></trkpt><trkpt lat="44.245721699001855" lon="10.175581137145066"><ele>622.0</ele><time>2026-05-02T09:48:40Z</time></trkpt><trkpt lat="44.245701452401434" lon="10.17576916605517"><ele>622.0</ele><time>2026-05-02T09:48:41Z</time></trkpt><trkpt lat="44.24569271852667" lon="10.175943706218638"><ele>622.0</ele><time>2026-05-02T09:48:42Z</time></trkpt><trkpt lat="44.245683120891336" lon="10.176088612461271"><ele>622.0</ele><time>2026-05-02T09:48:43Z</time></trkpt><trkpt lat="44.245654771146896" lon="10.176214197990452"><ele>622.0</ele><time>2026-05-02T09:48:44Z</time></trkpt><trkpt lat="44.24561061080801" lon="10.176327825643703"><ele>622.0</ele><time>2026-05-02T09:48:45Z</time></trkpt><trkpt lat="44.245584518846" lon="10.176408589688114"><ele>622.0</ele><time>2026-05-02T09:48:46Z</time></trkpt><trkpt lat="44.245509559898" lon="10.176388365243305"><ele>622.0</ele><time>2026-05-02T09:48:49Z</time></trkpt><trkpt lat="44.24551203312545" lon="10.176262410937827"><ele>629.0</ele><time>2026-05-02T09:48:50.999Z</time></trkpt><trkpt lat="44.24555255092465" lon="10.17617746792598"><ele>636.0</ele><time>2026-05-02T09:48:51.999Z</time></trkpt><trkpt lat="44.245602271974924" lon="10.176076364346804"><ele>643.0</ele><time>2026-05-02T09:48:52.999Z</time></trkpt><trkpt lat="44.24561964797411" lon="10.175940079719664"><ele>650.0</ele><time>2026-05-02T09:48:53.999Z</time></trkpt><trkpt lat="44.24562232799574" lon="10.175813270153945"><ele>657.0</ele><time>2026-05-02T09:48:54.999Z</time></trkpt><trkpt lat="44.24560972013485" lon="10.175664993695346"><ele>658.75</ele><time>2026-05-02T09:48:55.999Z</time></trkpt><trkpt lat="44.24559246113824" lon="10.17548252315339"><ele>660.5</ele><time>2026-05-02T09:48:56.999Z</time></trkpt><trkpt lat="44.24558480926297" lon="10.17526692266858"><ele>662.25</ele><time>2026-05-02T09:48:57.999Z</time></trkpt><trkpt lat="44.24557785153367" lon="10.175066380167273"><ele>664.0</ele><time>2026-05-02T09:48:58.999Z</time></trkpt><trkpt lat="44.24556059427925" lon="10.174866346830227"><ele>662.0</ele><time>2026-05-02T09:48:59.999Z</time></trkpt><trkpt lat="44.245544644361836" lon="10.17466152667764"><ele>660.0</ele><time>2026-05-02T09:49:00.999Z</time></trkpt><trkpt lat="44.24551801928438" lon="10.174463832614158"><ele>658.0</ele><time>2026-05-02T09:49:01.999Z</time></trkpt><trkpt lat="44.24550350255736" lon="10.174298061620572"><ele>656.0</ele><time>2026-05-02T09:49:02.999Z</time></trkpt><trkpt lat="44.24549725759367" lon="10.174156415786879"><ele>656.0</ele><time>2026-05-02T09:49:03.999Z</time></trkpt><trkpt lat="44.24548104321912" lon="10.174032940896662"><ele>656.0</ele><time>2026-05-02T09:49:04.999Z</time></trkpt><trkpt lat="44.245438277673436" lon="10.173903465357245"><ele>656.0</ele><time>2026-05-02T09:49:05.999Z</time></trkpt><trkpt lat="44.24538230304754" lon="10.173757573165007"><ele>656.0</ele><time>2026-05-02T09:49:06.999Z</time></trkpt><trkpt lat="44.24532992660227" lon="10.173610791608253"><ele>656.0</ele><time>2026-05-02T09:49:07.999Z</time></trkpt><trkpt lat="44.24530011030695" lon="10.173469546429006"><ele>654.6666666666666</ele><time>2026-05-02T09:49:08.999Z</time></trkpt><trkpt lat="44.245275082718315" lon="10.173357537127815"><ele>653.3333333333333</ele><time>2026-05-02T09:49:09.999Z</time></trkpt><trkpt lat="44.24523532265321" lon="10.173257111964002"><ele>652.0</ele><time>2026-05-02T09:49:10.999Z</time></trkpt><trkpt lat="44.2451754279777" lon="10.173170546801478"><ele>650.6666666666666</ele><time>2026-05-02T09:49:11.999Z</time></trkpt><trkpt lat="44.24510904733588" lon="10.173100676117615"><ele>649.3333333333334</ele><time>2026-05-02T09:49:12.999Z</time></trkpt><trkpt lat="44.24504058820999" lon="10.173047081613669"><ele>648.0</ele><time>2026-05-02T09:49:13.999Z</time></trkpt><trkpt lat="44.24497259894745" lon="10.173020821801776"><ele>648.0</ele><time>2026-05-02T09:49:14.999Z</time></trkpt><trkpt lat="44.244907258458646" lon="10.173013564723213"><ele>648.0</ele><time>2026-05-02T09:49:15.999Z</time></trkpt><trkpt lat="44.24483993433148" lon="10.17304390184822"><ele>648.0</ele><time>2026-05-02T09:49:17.999Z</time></trkpt><trkpt lat="44.244792868537495" lon="10.173141330170031"><ele>648.0</ele><time>2026-05-02T09:49:19.999Z</time></trkpt><trkpt lat="44.24478354721275" lon="10.173270657126494"><ele>648.0</ele><time>2026-05-02T09:49:21.999Z</time></trkpt><trkpt lat="44.244826108501044" lon="10.173428880319346"><ele>648.0</ele><time>2026-05-02T09:49:23.999Z</time></trkpt><trkpt lat="44.244850550882525" lon="10.173513727453734"><ele>648.0</ele><time>2026-05-02T09:49:24.999Z</time></trkpt><trkpt lat="44.2448800531607" lon="10.173600995440454"><ele>648.0</ele><time>2026-05-02T09:49:25.999Z</time></trkpt><trkpt lat="44.24492756764156" lon="10.17374781158857"><ele>648.0</ele><time>2026-05-02T09:49:27.999Z</time></trkpt><trkpt lat="44.24496392223106" lon="10.173892345873055"><ele>648.0</ele><time>2026-05-02T09:49:29.999Z</time></trkpt><trkpt lat="44.24494717356951" lon="10.173980001618535"><ele>648.0</ele><time>2026-05-02T09:49:30.999Z</time></trkpt><trkpt lat="44.2449691498608" lon="10.174134898539375"><ele>650.0</ele><time>2026-05-02T09:49:32.999Z</time></trkpt><trkpt lat="44.24499941447451" lon="10.174309044843449"><ele>652.0</ele><time>2026-05-02T09:49:34.999Z</time></trkpt><trkpt lat="44.245001606254505" lon="10.17440030364235"><ele>654.0</ele><time>2026-05-02T09:49:35.999Z</time></trkpt><trkpt lat="44.245004629773184" lon="10.174574333539748"><ele>656.0</ele><time>2026-05-02T09:49:37.999Z</time></trkpt><trkpt lat="44.245002778401116" lon="10.174759340715234"><ele>656.0</ele><time>2026-05-02T09:49:39.999Z</time></trkpt><trkpt lat="44.24499261695029" lon="10.17484810874463"><ele>656.0</ele><time>2026-05-02T09:49:40.999Z</time></trkpt><trkpt lat="44.244965936099845" lon="10.174999161556492"><ele>656.0</ele><time>2026-05-02T09:49:43Z</time></trkpt><trkpt lat="44.244942302675035" lon="10.175168054450017"><ele>656.0</ele><time>2026-05-02T09:49:45Z</time></trkpt><trkpt lat="44.24490430882691" lon="10.175302905971078"><ele>656.0</ele><time>2026-05-02T09:49:47Z</time></trkpt><trkpt lat="44.2448443548208" lon="10.175364792575836"><ele>660.8</ele><time>2026-05-02T09:49:49Z</time></trkpt><trkpt lat="44.24471558499633" lon="10.175433195053435"><ele>665.5999999999999</ele><time>2026-05-02T09:49:51Z</time></trkpt><trkpt lat="44.244635148092094" lon="10.175471428151814"><ele>670.4</ele><time>2026-05-02T09:49:52Z</time></trkpt><trkpt lat="44.24455596656931" lon="10.175516585656165"><ele>675.2</ele><time>2026-05-02T09:49:53Z</time></trkpt><trkpt lat="44.24444330558749" lon="10.175600320625437"><ele>680.0</ele><time>2026-05-02T09:49:55Z</time></trkpt><trkpt lat="44.244395886895404" lon="10.175672470451808"><ele>679.2</ele><time>2026-05-02T09:49:56Z</time></trkpt><trkpt lat="44.24433345930302" lon="10.175725621316683"><ele>678.4</ele><time>2026-05-02T09:49:57Z</time></trkpt><trkpt lat="44.244234848069276" lon="10.175845511516764"><ele>677.5999999999999</ele><time>2026-05-02T09:49:59Z</time></trkpt><trkpt lat="44.24418771039208" lon="10.176003404933542"><ele>676.8</ele><time>2026-05-02T09:50:01Z</time></trkpt><trkpt lat="44.24416468630025" lon="10.17610827386497"><ele>676.0</ele><time>2026-05-02T09:50:02Z</time></trkpt><trkpt lat="44.244125260182514" lon="10.176217430432414"><ele>676.0</ele><time>2026-05-02T09:50:03Z</time></trkpt><trkpt lat="44.24408567197997" lon="10.17633212717777"><ele>676.0</ele><time>2026-05-02T09:50:04Z</time></trkpt><trkpt lat="44.2440428607966" lon="10.176470834018065"><ele>676.0</ele><time>2026-05-02T09:50:05Z</time></trkpt><trkpt lat="44.24397840761565" lon="10.176571636984805"><ele>676.0</ele><time>2026-05-02T09:50:06Z</time></trkpt><trkpt lat="44.243942524175324" lon="10.176657418444364"><ele>676.0</ele><time>2026-05-02T09:50:07Z</time></trkpt><trkpt lat="44.24391713911085" lon="10.176771669108005"><ele>681.6666666666667</ele><time>2026-05-02T09:50:08Z</time></trkpt><trkpt lat="44.24387480940731" lon="10.176885756032913"><ele>687.3333333333334</ele><time>2026-05-02T09:50:09Z</time></trkpt><trkpt lat="44.24384857500288" lon="10.177000402937992"><ele>693.0</ele><time>2026-05-02T09:50:10Z</time></trkpt><trkpt lat="44.24383360056737" lon="10.177106956716782"><ele>698.6666666666666</ele><time>2026-05-02T09:50:11Z</time></trkpt><trkpt lat="44.243817290117725" lon="10.17721096729913"><ele>704.3333333333333</ele><time>2026-05-02T09:50:12Z</time></trkpt><trkpt lat="44.24377394740079" lon="10.177301187647526"><ele>710.0</ele><time>2026-05-02T09:50:13Z</time></trkpt><trkpt lat="44.24373998576441" lon="10.17737541412079"><ele>710.0</ele><time>2026-05-02T09:50:14Z</time></trkpt><trkpt lat="44.243703926855346" lon="10.177473460021998"><ele>710.0</ele><time>2026-05-02T09:50:15Z</time></trkpt><trkpt lat="44.24366502686225" lon="10.177601502572198"><ele>710.0</ele><time>2026-05-02T09:50:17Z</time></trkpt><trkpt lat="44.24366099784049" lon="10.177765918156133"><ele>710.0</ele><time>2026-05-02T09:50:19Z</time></trkpt><trkpt lat="44.24364835141675" lon="10.177869952929772"><ele>710.0</ele><time>2026-05-02T09:50:20Z</time></trkpt><trkpt lat="44.24363356489767" lon="10.177979268135836"><ele>710.0</ele><time>2026-05-02T09:50:21Z</time></trkpt><trkpt lat="44.2436285496309" lon="10.178093206109452"><ele>710.0</ele><time>2026-05-02T09:50:22Z</time></trkpt><trkpt lat="44.24359565964027" lon="10.17821394067005"><ele>710.0</ele><time>2026-05-02T09:50:23Z</time></trkpt><trkpt lat="44.24357213561818" lon="10.17833934537962"><ele>710.0</ele><time>2026-05-02T09:50:24Z</time></trkpt><trkpt lat="44.243548959511" lon="10.178462895509929"><ele>710.0</ele><time>2026-05-02T09:50:25Z</time></trkpt><trkpt lat="44.24352573131947" lon="10.17862891321163"><ele>710.0</ele><time>2026-05-02T09:50:26Z</time></trkpt><trkpt lat="44.243498526607226" lon="10.178737100860205"><ele>710.0</ele><time>2026-05-02T09:50:27Z</time></trkpt><trkpt lat="44.24345143363174" lon="10.178877583827198"><ele>710.0</ele><time>2026-05-02T09:50:28Z</time></trkpt><trkpt lat="44.24342136071564" lon="10.17900051928084"><ele>710.0</ele><time>2026-05-02T09:50:29Z</time></trkpt><trkpt lat="44.243393487352186" lon="10.179092740408542"><ele>710.0</ele><time>2026-05-02T09:50:30Z</time></trkpt><trkpt lat="44.243371364067954" lon="10.1791768186219"><ele>710.0</ele><time>2026-05-02T09:50:31Z</time></trkpt><trkpt lat="44.2433628745173" lon="10.17928911503698"><ele>710.0</ele><time>2026-05-02T09:50:32Z</time></trkpt><trkpt lat="44.243354428476074" lon="10.179387560077622"><ele>710.0</ele><time>2026-05-02T09:50:33Z</time></trkpt><trkpt lat="44.243336409194185" lon="10.179512438605185"><ele>710.0</ele><time>2026-05-02T09:50:34Z</time></trkpt><trkpt lat="44.24331279833572" lon="10.179636363202198"><ele>710.0</ele><time>2026-05-02T09:50:35Z</time></trkpt><trkpt lat="44.24329426549393" lon="10.179770485524132"><ele>710.0</ele><time>2026-05-02T09:50:36Z</time></trkpt><trkpt lat="44.243276303516225" lon="10.179877349382794"><ele>710.0</ele><time>2026-05-02T09:50:37Z</time></trkpt><trkpt lat="44.24324056697313" lon="10.179972660794379"><ele>710.1666666666666</ele><time>2026-05-02T09:50:38Z</time></trkpt><trkpt lat="44.24321833104156" lon="10.180079381821104"><ele>710.3333333333333</ele><time>2026-05-02T09:50:39Z</time></trkpt><trkpt lat="44.243196943357226" lon="10.180179934131756"><ele>710.5</ele><time>2026-05-02T09:50:40Z</time></trkpt><trkpt lat="44.24318051532387" lon="10.180291263578468"><ele>710.6666666666666</ele><time>2026-05-02T09:50:41Z</time></trkpt><trkpt lat="44.24313716758551" lon="10.180390666074127"><ele>710.8333333333334</ele><time>2026-05-02T09:50:42Z</time></trkpt><trkpt lat="44.24309642782529" lon="10.180509896885093"><ele>711.0</ele><time>2026-05-02T09:50:43Z</time></trkpt><trkpt lat="44.24306180136484" lon="10.180622996167429"><ele>719.3333333333334</ele><time>2026-05-02T09:50:44Z</time></trkpt><trkpt lat="44.24303133685846" lon="10.180727048776362"><ele>727.6666666666666</ele><time>2026-05-02T09:50:45Z</time></trkpt><trkpt lat="44.24301030040651" lon="10.180842303692316"><ele>736.0</ele><time>2026-05-02T09:50:46Z</time></trkpt><trkpt lat="44.24300683110313" lon="10.180958845150395"><ele>744.3333333333333</ele><time>2026-05-02T09:50:47Z</time></trkpt><trkpt lat="44.24297391872811" lon="10.181064339218183"><ele>752.6666666666666</ele><time>2026-05-02T09:50:48Z</time></trkpt><trkpt lat="44.2429551490482" lon="10.181178556536551"><ele>761.0</ele><time>2026-05-02T09:50:49Z</time></trkpt><trkpt lat="44.242941468795" lon="10.181289938253107"><ele>760.9999999999999</ele><time>2026-05-02T09:50:50Z</time></trkpt><trkpt lat="44.24293570714315" lon="10.181387559124634"><ele>761.0</ele><time>2026-05-02T09:50:51Z</time></trkpt><trkpt lat="44.24294214168717" lon="10.181480951251745"><ele>761.0</ele><time>2026-05-02T09:50:52Z</time></trkpt><trkpt lat="44.242960310677454" lon="10.181566554807187"><ele>761.0</ele><time>2026-05-02T09:50:53Z</time></trkpt><trkpt lat="44.24300918498927" lon="10.18163254684887"><ele>761.0</ele><time>2026-05-02T09:50:54Z</time></trkpt><trkpt lat="44.243084499918055" lon="10.18165815537557"><ele>760.9999999999999</ele><time>2026-05-02T09:50:54.999Z</time></trkpt><trkpt lat="44.243154155250316" lon="10.181714918737061"><ele>761.0</ele><time>2026-05-02T09:50:55.999Z</time></trkpt><trkpt lat="44.24324095263685" lon="10.181790284525349"><ele>753.8333333333333</ele><time>2026-05-02T09:50:56.999Z</time></trkpt><trkpt lat="44.24330784334445" lon="10.181868844965566"><ele>746.6666666666666</ele><time>2026-05-02T09:50:57.999Z</time></trkpt><trkpt lat="44.243356337233365" lon="10.181949667250258"><ele>739.5</ele><time>2026-05-02T09:50:58.999Z</time></trkpt><trkpt lat="44.24339265615962" lon="10.182040279943996"><ele>732.3333333333334</ele><time>2026-05-02T09:50:59.999Z</time></trkpt><trkpt lat="44.243368036746595" lon="10.182133028705444"><ele>725.1666666666667</ele><time>2026-05-02T09:51:00.999Z</time></trkpt><trkpt lat="44.24335155062593" lon="10.182223249561575"><ele>718.0</ele><time>2026-05-02T09:51:01.999Z</time></trkpt><trkpt lat="44.243328188558635" lon="10.18232964399986"><ele>718.4</ele><time>2026-05-02T09:51:02.999Z</time></trkpt><trkpt lat="44.24330598228425" lon="10.182450297348165"><ele>718.8</ele><time>2026-05-02T09:51:03.999Z</time></trkpt><trkpt lat="44.243279329017646" lon="10.182576454368787"><ele>719.2</ele><time>2026-05-02T09:51:04.999Z</time></trkpt><trkpt lat="44.24325206756542" lon="10.182704496434194"><ele>719.6</ele><time>2026-05-02T09:51:05.999Z</time></trkpt><trkpt lat="44.24322971811961" lon="10.182828809805613"><ele>720.0</ele><time>2026-05-02T09:51:06.999Z</time></trkpt><trkpt lat="44.243197339868985" lon="10.182938955323182"><ele>720.0</ele><time>2026-05-02T09:51:07.999Z</time></trkpt><trkpt lat="44.243172340522605" lon="10.1830597978276"><ele>720.0</ele><time>2026-05-02T09:51:08.999Z</time></trkpt><trkpt lat="44.243160229348874" lon="10.183159516763459"><ele>720.0</ele><time>2026-05-02T09:51:09.999Z</time></trkpt><trkpt lat="44.24316521342559" lon="10.183262218155289"><ele>720.0</ele><time>2026-05-02T09:51:10.999Z</time></trkpt><trkpt lat="44.24316374603398" lon="10.183350467486818"><ele>720.0</ele><time>2026-05-02T09:51:11.999Z</time></trkpt><trkpt lat="44.24319397458111" lon="10.18351139073836"><ele>720.0</ele><time>2026-05-02T09:51:13.999Z</time></trkpt><trkpt lat="44.243239160059794" lon="10.183638318566269"><ele>720.3333333333334</ele><time>2026-05-02T09:51:15.999Z</time></trkpt><trkpt lat="44.24326560736435" lon="10.18374742868197"><ele>720.6666666666666</ele><time>2026-05-02T09:51:16.999Z</time></trkpt><trkpt lat="44.243282594800704" lon="10.183853020337605"><ele>721.0</ele><time>2026-05-02T09:51:17.999Z</time></trkpt><trkpt lat="44.24330325618169" lon="10.183946649704538"><ele>721.3333333333333</ele><time>2026-05-02T09:51:18.999Z</time></trkpt><trkpt lat="44.243335263539606" lon="10.184050210277713"><ele>721.6666666666666</ele><time>2026-05-02T09:51:19.999Z</time></trkpt><trkpt lat="44.2433251466425" lon="10.184185920562369"><ele>722.0</ele><time>2026-05-02T09:51:20.999Z</time></trkpt><trkpt lat="44.243304020117556" lon="10.184315363983186"><ele>722.7142857142858</ele><time>2026-05-02T09:51:21.999Z</time></trkpt><trkpt lat="44.243293059786104" lon="10.18442706862758"><ele>723.4285714285713</ele><time>2026-05-02T09:51:22.999Z</time></trkpt><trkpt lat="44.243278528327316" lon="10.184535268060262"><ele>724.1428571428571</ele><time>2026-05-02T09:51:23.999Z</time></trkpt><trkpt lat="44.24323718590024" lon="10.18461669338066"><ele>724.8571428571429</ele><time>2026-05-02T09:51:24.999Z</time></trkpt><trkpt lat="44.243206675503046" lon="10.184702080889405"><ele>725.5714285714287</ele><time>2026-05-02T09:51:25.999Z</time></trkpt><trkpt lat="44.24317173199795" lon="10.184785747969519"><ele>726.2857142857142</ele><time>2026-05-02T09:51:26.999Z</time></trkpt><trkpt lat="44.243128549617964" lon="10.18487230826354"><ele>727.0</ele><time>2026-05-02T09:51:27.999Z</time></trkpt><trkpt lat="44.24307405748326" lon="10.184967013371482"><ele>732.2</ele><time>2026-05-02T09:51:28.999Z</time></trkpt><trkpt lat="44.243006156591825" lon="10.185065842908347"><ele>737.4000000000001</ele><time>2026-05-02T09:51:29.999Z</time></trkpt><trkpt lat="44.242940179582924" lon="10.185152741323538"><ele>742.5999999999999</ele><time>2026-05-02T09:51:30.999Z</time></trkpt><trkpt lat="44.24286635312251" lon="10.18524350920651"><ele>747.8</ele><time>2026-05-02T09:51:31.999Z</time></trkpt><trkpt lat="44.24279680485283" lon="10.18532614604887"><ele>753.0</ele><time>2026-05-02T09:51:32.999Z</time></trkpt><trkpt lat="44.242741532204185" lon="10.18538981337794"><ele>753.0</ele><time>2026-05-02T09:51:33.999Z</time></trkpt><trkpt lat="44.242689247864" lon="10.185450038472194"><ele>753.0</ele><time>2026-05-02T09:51:34.999Z</time></trkpt><trkpt lat="44.24264216133211" lon="10.185531590224693"><ele>753.0</ele><time>2026-05-02T09:51:35.999Z</time></trkpt><trkpt lat="44.24255086354503" lon="10.18562047863576"><ele>753.0</ele><time>2026-05-02T09:51:36.999Z</time></trkpt><trkpt lat="44.24246910002914" lon="10.185684006903758"><ele>753.0</ele><time>2026-05-02T09:51:37.999Z</time></trkpt><trkpt lat="44.24240210063619" lon="10.185740530216655"><ele>753.0</ele><time>2026-05-02T09:51:38.999Z</time></trkpt><trkpt lat="44.24235173415836" lon="10.185796635733112"><ele>755.0</ele><time>2026-05-02T09:51:39.999Z</time></trkpt><trkpt lat="44.24229003627568" lon="10.18588253371356"><ele>757.0</ele><time>2026-05-02T09:51:40.999Z</time></trkpt><trkpt lat="44.24223200248312" lon="10.185955020957977"><ele>759.0</ele><time>2026-05-02T09:51:41.999Z</time></trkpt><trkpt lat="44.24218481959462" lon="10.18602001295017"><ele>761.0</ele><time>2026-05-02T09:51:42.999Z</time></trkpt><trkpt lat="44.24211333690271" lon="10.186154380752745"><ele>763.0</ele><time>2026-05-02T09:51:44.999Z</time></trkpt><trkpt lat="44.24208184716524" lon="10.18623733245808"><ele>765.0</ele><time>2026-05-02T09:51:45.999Z</time></trkpt><trkpt lat="44.24205922240064" lon="10.186331760349772"><ele>765.0000000000001</ele><time>2026-05-02T09:51:46.999Z</time></trkpt><trkpt lat="44.24202272122599" lon="10.186410114057113"><ele>765.0</ele><time>2026-05-02T09:51:47.999Z</time></trkpt><trkpt lat="44.24198377165489" lon="10.18650560072953"><ele>765.0</ele><time>2026-05-02T09:51:49Z</time></trkpt><trkpt lat="44.24194733893007" lon="10.186595816502617"><ele>765.0</ele><time>2026-05-02T09:51:50Z</time></trkpt><trkpt lat="44.24190802124888" lon="10.186694748164733"><ele>765.0</ele><time>2026-05-02T09:51:51Z</time></trkpt><trkpt lat="44.24187481740806" lon="10.186780820058686"><ele>765.0000000000001</ele><time>2026-05-02T09:51:52Z</time></trkpt><trkpt lat="44.241839063622585" lon="10.186873502234763"><ele>765.0</ele><time>2026-05-02T09:51:53Z</time></trkpt><trkpt lat="44.2417996373238" lon="10.186975704398115"><ele>763.8333333333334</ele><time>2026-05-02T09:51:54Z</time></trkpt><trkpt lat="44.241760981779" lon="10.18707482034887"><ele>762.6666666666666</ele><time>2026-05-02T09:51:55Z</time></trkpt><trkpt lat="44.2417331346933" lon="10.187184423204794"><ele>761.5</ele><time>2026-05-02T09:51:56Z</time></trkpt><trkpt lat="44.24167001352738" lon="10.18729022203729"><ele>760.3333333333333</ele><time>2026-05-02T09:51:57Z</time></trkpt><trkpt lat="44.241612137388344" lon="10.18737989682634"><ele>759.1666666666666</ele><time>2026-05-02T09:51:58Z</time></trkpt><trkpt lat="44.24156330184241" lon="10.18746391318539"><ele>758.0</ele><time>2026-05-02T09:51:59Z</time></trkpt><trkpt lat="44.24151966654554" lon="10.187567585960275"><ele>756.2</ele><time>2026-05-02T09:52:00Z</time></trkpt><trkpt lat="44.241481096568016" lon="10.187694873182677"><ele>754.4</ele><time>2026-05-02T09:52:01Z</time></trkpt><trkpt lat="44.24146032006085" lon="10.187819702604791"><ele>752.6</ele><time>2026-05-02T09:52:02Z</time></trkpt><trkpt lat="44.24141777568199" lon="10.187951562544713"><ele>750.8000000000001</ele><time>2026-05-02T09:52:03Z</time></trkpt><trkpt lat="44.24140280136582" lon="10.188093200947426"><ele>749.0</ele><time>2026-05-02T09:52:04Z</time></trkpt><trkpt lat="44.241398579629205" lon="10.188201125878063"><ele>757.6</ele><time>2026-05-02T09:52:05Z</time></trkpt><trkpt lat="44.24140371244776" lon="10.188323479211823"><ele>766.2</ele><time>2026-05-02T09:52:06Z</time></trkpt><trkpt lat="44.24142969796648" lon="10.18847111864914"><ele>774.8000000000001</ele><time>2026-05-02T09:52:07Z</time></trkpt><trkpt lat="44.241427050225646" lon="10.188602082212155"><ele>783.4000000000001</ele><time>2026-05-02T09:52:08Z</time></trkpt><trkpt lat="44.24143491124337" lon="10.188741827335742"><ele>792.0</ele><time>2026-05-02T09:52:09Z</time></trkpt><trkpt lat="44.24144194232452" lon="10.188900524069323"><ele>789.8333333333334</ele><time>2026-05-02T09:52:10Z</time></trkpt><trkpt lat="44.24144233774117" lon="10.189029828412817"><ele>787.6666666666667</ele><time>2026-05-02T09:52:11Z</time></trkpt><trkpt lat="44.24145089992189" lon="10.189154648858693"><ele>785.5</ele><time>2026-05-02T09:52:12Z</time></trkpt><trkpt lat="44.24146184227048" lon="10.189275361026144"><ele>783.3333333333334</ele><time>2026-05-02T09:52:13Z</time></trkpt><trkpt lat="44.24146226994882" lon="10.18937360121237"><ele>781.1666666666667</ele><time>2026-05-02T09:52:14Z</time></trkpt><trkpt lat="44.2414631671066" lon="10.189486360131658"><ele>779.0</ele><time>2026-05-02T09:52:15Z</time></trkpt><trkpt lat="44.24145110746262" lon="10.18958442947627"><ele>779.0</ele><time>2026-05-02T09:52:16Z</time></trkpt><trkpt lat="44.24142713866037" lon="10.189669002267447"><ele>779.0</ele><time>2026-05-02T09:52:17Z</time></trkpt><trkpt lat="44.24138587098386" lon="10.189766521130998"><ele>779.0</ele><time>2026-05-02T09:52:18Z</time></trkpt><trkpt lat="44.24133076611727" lon="10.189891859604751"><ele>779.0</ele><time>2026-05-02T09:52:19Z</time></trkpt><trkpt lat="44.24126263833991" lon="10.190017084045607"><ele>779.0</ele><time>2026-05-02T09:52:20Z</time></trkpt><trkpt lat="44.24118397600713" lon="10.190159045752477"><ele>776.2</ele><time>2026-05-02T09:52:21Z</time></trkpt><trkpt lat="44.24112140793796" lon="10.190279814479373"><ele>773.4000000000001</ele><time>2026-05-02T09:52:22Z</time></trkpt><trkpt lat="44.24105743109432" lon="10.190387797203927"><ele>770.6</ele><time>2026-05-02T09:52:23Z</time></trkpt><trkpt lat="44.241011134854304" lon="10.190463183859626"><ele>767.8</ele><time>2026-05-02T09:52:24Z</time></trkpt><trkpt lat="44.24097327857343" lon="10.19053875889469"><ele>765.0</ele><time>2026-05-02T09:52:25Z</time></trkpt><trkpt lat="44.240902063878266" lon="10.19067483801619"><ele>763.0</ele><time>2026-05-02T09:52:26Z</time></trkpt><trkpt lat="44.24086403475238" lon="10.190839103265251"><ele>761.0</ele><time>2026-05-02T09:52:28Z</time></trkpt><trkpt lat="44.24085863694206" lon="10.190942717244916"><ele>759.0</ele><time>2026-05-02T09:52:29Z</time></trkpt><trkpt lat="44.24085860269734" lon="10.191073431605853"><ele>757.0</ele><time>2026-05-02T09:52:30Z</time></trkpt><trkpt lat="44.24085652547819" lon="10.191214523882858"><ele>755.0</ele><time>2026-05-02T09:52:31Z</time></trkpt><trkpt lat="44.24085287454229" lon="10.191362118072922"><ele>755.0</ele><time>2026-05-02T09:52:32Z</time></trkpt><trkpt lat="44.24084373604112" lon="10.19150304859467"><ele>755.0</ele><time>2026-05-02T09:52:33Z</time></trkpt><trkpt lat="44.24082433817014" lon="10.191636113087975"><ele>755.0</ele><time>2026-05-02T09:52:34Z</time></trkpt><trkpt lat="44.24081119778606" lon="10.191765273832559"><ele>755.0</ele><time>2026-05-02T09:52:35Z</time></trkpt><trkpt lat="44.24084092037665" lon="10.19186146987463"><ele>755.0</ele><time>2026-05-02T09:52:36Z</time></trkpt><trkpt lat="44.2408759434701" lon="10.192044767925507"><ele>754.8</ele><time>2026-05-02T09:52:38Z</time></trkpt><trkpt lat="44.24090774877119" lon="10.192153539841838"><ele>754.6</ele><time>2026-05-02T09:52:39Z</time></trkpt><trkpt lat="44.24094988554056" lon="10.192232617872111"><ele>754.4000000000001</ele><time>2026-05-02T09:52:40Z</time></trkpt><trkpt lat="44.241011051606314" lon="10.192391142526875"><ele>754.2</ele><time>2026-05-02T09:52:42Z</time></trkpt><trkpt lat="44.24104801779876" lon="10.192504036696477"><ele>754.0</ele><time>2026-05-02T09:52:43Z</time></trkpt><trkpt lat="44.24107781523643" lon="10.192628529489841"><ele>754.8000000000001</ele><time>2026-05-02T09:52:44Z</time></trkpt><trkpt lat="44.24111244973644" lon="10.192752792065455"><ele>755.6</ele><time>2026-05-02T09:52:45Z</time></trkpt><trkpt lat="44.24113789627257" lon="10.192868438592534"><ele>756.4</ele><time>2026-05-02T09:52:46Z</time></trkpt><trkpt lat="44.24116301274607" lon="10.192986567694314"><ele>757.2</ele><time>2026-05-02T09:52:47Z</time></trkpt><trkpt lat="44.24119138642114" lon="10.193111498523418"><ele>758.0</ele><time>2026-05-02T09:52:48Z</time></trkpt><trkpt lat="44.241220997051435" lon="10.193237256038618"><ele>758.8333333333333</ele><time>2026-05-02T09:52:49Z</time></trkpt><trkpt lat="44.24124602533913" lon="10.19337055141451"><ele>759.6666666666666</ele><time>2026-05-02T09:52:50Z</time></trkpt><trkpt lat="44.24126137721869" lon="10.193508754894427"><ele>760.5</ele><time>2026-05-02T09:52:51Z</time></trkpt><trkpt lat="44.2412589253298" lon="10.193634734893548"><ele>761.3333333333334</ele><time>2026-05-02T09:52:52Z</time></trkpt><trkpt lat="44.24125426723381" lon="10.19374575803509"><ele>762.1666666666667</ele><time>2026-05-02T09:52:53Z</time></trkpt><trkpt lat="44.24124127464848" lon="10.193845542316684"><ele>763.0</ele><time>2026-05-02T09:52:54Z</time></trkpt><trkpt lat="44.24120935570933" lon="10.19401209185751"><ele>764.6666666666667</ele><time>2026-05-02T09:52:56Z</time></trkpt><trkpt lat="44.24118403765675" lon="10.194100374857715"><ele>766.3333333333334</ele><time>2026-05-02T09:52:57Z</time></trkpt><trkpt lat="44.241130177108786" lon="10.194249733226057"><ele>768.0</ele><time>2026-05-02T09:52:59Z</time></trkpt><trkpt lat="44.24107575396133" lon="10.194309120446555"><ele>769.6666666666667</ele><time>2026-05-02T09:53:00Z</time></trkpt><trkpt lat="44.24100892308609" lon="10.194443987637682"><ele>771.3333333333334</ele><time>2026-05-02T09:53:02Z</time></trkpt><trkpt lat="44.24099891055296" lon="10.194533661215047"><ele>773.0</ele><time>2026-05-02T09:53:03Z</time></trkpt><trkpt lat="44.241000652892446" lon="10.194622862028952"><ele>773.0000000000001</ele><time>2026-05-02T09:53:04Z</time></trkpt><trkpt lat="44.24100541071654" lon="10.194716531654835"><ele>773.0</ele><time>2026-05-02T09:53:05Z</time></trkpt><trkpt lat="44.241018169438526" lon="10.194833214544088"><ele>773.0</ele><time>2026-05-02T09:53:06Z</time></trkpt><trkpt lat="44.24103603660892" lon="10.194926726265889"><ele>773.0</ele><time>2026-05-02T09:53:07Z</time></trkpt><trkpt lat="44.24111765404367" lon="10.195065881805716"><ele>773.0000000000001</ele><time>2026-05-02T09:53:08.999Z</time></trkpt><trkpt lat="44.24117221959398" lon="10.19515050695545"><ele>773.0</ele><time>2026-05-02T09:53:09.999Z</time></trkpt><trkpt lat="44.2412223995759" lon="10.195239030589258"><ele>775.6666666666667</ele><time>2026-05-02T09:53:10.999Z</time></trkpt><trkpt lat="44.24126602676396" lon="10.195330742816083"><ele>778.3333333333334</ele><time>2026-05-02T09:53:11.999Z</time></trkpt><trkpt lat="44.24127129129132" lon="10.195427487495067"><ele>781.0</ele><time>2026-05-02T09:53:12.999Z</time></trkpt><trkpt lat="44.24129380728951" lon="10.195533854265006"><ele>783.6666666666667</ele><time>2026-05-02T09:53:13.999Z</time></trkpt><trkpt lat="44.24131156001823" lon="10.195619564181639"><ele>786.3333333333334</ele><time>2026-05-02T09:53:14.999Z</time></trkpt><trkpt lat="44.24134440496506" lon="10.195784510091144"><ele>789.0</ele><time>2026-05-02T09:53:16.999Z</time></trkpt><trkpt lat="44.24135929337555" lon="10.195870794050107"><ele>788.3333333333334</ele><time>2026-05-02T09:53:17.999Z</time></trkpt><trkpt lat="44.241375668480615" lon="10.195971586180825"><ele>787.6666666666667</ele><time>2026-05-02T09:53:18.999Z</time></trkpt><trkpt lat="44.24139227739221" lon="10.196073549925394"><ele>787.0</ele><time>2026-05-02T09:53:19.999Z</time></trkpt><trkpt lat="44.24141113395213" lon="10.196190620938523"><ele>786.3333333333334</ele><time>2026-05-02T09:53:20.999Z</time></trkpt><trkpt lat="44.24143692553274" lon="10.196357460494625"><ele>785.6666666666667</ele><time>2026-05-02T09:53:22.999Z</time></trkpt><trkpt lat="44.241486341552644" lon="10.196423560137609"><ele>785.0</ele><time>2026-05-02T09:53:24.999Z</time></trkpt><trkpt lat="44.24159283864905" lon="10.196402919281715"><ele>785.0</ele><time>2026-05-02T09:53:26.999Z</time></trkpt><trkpt lat="44.24165021941633" lon="10.196332722855333"><ele>785.0</ele><time>2026-05-02T09:53:27.999Z</time></trkpt><trkpt lat="44.241727363258526" lon="10.196279450647724"><ele>785.0</ele><time>2026-05-02T09:53:28.999Z</time></trkpt><trkpt lat="44.24179568483421" lon="10.196202335327527"><ele>785.0</ele><time>2026-05-02T09:53:29.999Z</time></trkpt><trkpt lat="44.24187478076326" lon="10.196065196438735"><ele>785.0</ele><time>2026-05-02T09:53:31.999Z</time></trkpt><trkpt lat="44.24195788724305" lon="10.196011926239054"><ele>785.0</ele><time>2026-05-02T09:53:32.999Z</time></trkpt><trkpt lat="44.2420205793247" lon="10.195982506501233"><ele>785.0</ele><time>2026-05-02T09:53:33.999Z</time></trkpt><trkpt lat="44.242124664709166" lon="10.19599898787999"><ele>785.0</ele><time>2026-05-02T09:53:35.999Z</time></trkpt><trkpt lat="44.24218307537206" lon="10.19607168139536"><ele>785.0</ele><time>2026-05-02T09:53:37.999Z</time></trkpt><trkpt lat="44.24214870372141" lon="10.196205391249887"><ele>785.0</ele><time>2026-05-02T09:53:39.999Z</time></trkpt><trkpt lat="44.24207534787101" lon="10.196316123533522"><ele>785.0000000000001</ele><time>2026-05-02T09:53:41.999Z</time></trkpt><trkpt lat="44.24203527907772" lon="10.196392592580326"><ele>785.0</ele><time>2026-05-02T09:53:42.999Z</time></trkpt><trkpt lat="44.241983126782124" lon="10.196492408923815"><ele>785.0</ele><time>2026-05-02T09:53:43.999Z</time></trkpt><trkpt lat="44.24193556280259" lon="10.196577295861141"><ele>785.0</ele><time>2026-05-02T09:53:44.999Z</time></trkpt><trkpt lat="44.24188730256874" lon="10.196682360454803"><ele>785.0000000000001</ele><time>2026-05-02T09:53:45.999Z</time></trkpt><trkpt lat="44.241850514347526" lon="10.196785989027916"><ele>785.0</ele><time>2026-05-02T09:53:46.999Z</time></trkpt><trkpt lat="44.24180756216033" lon="10.196903884905925"><ele>787.8571428571429</ele><time>2026-05-02T09:53:47.999Z</time></trkpt><trkpt lat="44.24179561533387" lon="10.19699483978513"><ele>790.7142857142857</ele><time>2026-05-02T09:53:48.999Z</time></trkpt><trkpt lat="44.24177167697269" lon="10.197085561844716"><ele>793.5714285714286</ele><time>2026-05-02T09:53:49.999Z</time></trkpt><trkpt lat="44.24176998711438" lon="10.197199419722862"><ele>796.4285714285714</ele><time>2026-05-02T09:53:50.999Z</time></trkpt><trkpt lat="44.24175848205271" lon="10.197305944120014"><ele>799.2857142857142</ele><time>2026-05-02T09:53:51.999Z</time></trkpt><trkpt lat="44.24175215355669" lon="10.197422148714685"><ele>802.1428571428571</ele><time>2026-05-02T09:53:52.999Z</time></trkpt><trkpt lat="44.241743842165796" lon="10.197520768931778"><ele>805.0</ele><time>2026-05-02T09:53:53.999Z</time></trkpt><trkpt lat="44.24172377020226" lon="10.197610371496644"><ele>806.2857142857143</ele><time>2026-05-02T09:53:55Z</time></trkpt><trkpt lat="44.24169430120737" lon="10.197691806141238"><ele>807.5714285714286</ele><time>2026-05-02T09:53:56Z</time></trkpt><trkpt lat="44.24164702642426" lon="10.197753866141237"><ele>808.8571428571429</ele><time>2026-05-02T09:53:57Z</time></trkpt><trkpt lat="44.24158436297649" lon="10.197812837084498"><ele>810.1428571428571</ele><time>2026-05-02T09:53:58Z</time></trkpt><trkpt lat="44.24153304748076" lon="10.197891912681824"><ele>811.4285714285714</ele><time>2026-05-02T09:53:59Z</time></trkpt><trkpt lat="44.24149253733716" lon="10.198000310902662"><ele>812.7142857142858</ele><time>2026-05-02T09:54:00Z</time></trkpt><trkpt lat="44.241457319478464" lon="10.198086222935052"><ele>814.0</ele><time>2026-05-02T09:54:01Z</time></trkpt><trkpt lat="44.24142245780265" lon="10.198219787049284"><ele>819.8333333333333</ele><time>2026-05-02T09:54:02Z</time></trkpt><trkpt lat="44.24139609628608" lon="10.198321214381107"><ele>825.6666666666666</ele><time>2026-05-02T09:54:03Z</time></trkpt><trkpt lat="44.24136478694856" lon="10.19841418230345"><ele>831.5</ele><time>2026-05-02T09:54:04Z</time></trkpt><trkpt lat="44.24134286260745" lon="10.198547803724093"><ele>837.3333333333333</ele><time>2026-05-02T09:54:05Z</time></trkpt><trkpt lat="44.24132720752876" lon="10.19865726656048"><ele>843.1666666666666</ele><time>2026-05-02T09:54:06Z</time></trkpt><trkpt lat="44.24131124687184" lon="10.198779642683983"><ele>849.0</ele><time>2026-05-02T09:54:07Z</time></trkpt><trkpt lat="44.241297694163855" lon="10.198883556206424"><ele>849.0</ele><time>2026-05-02T09:54:08Z</time></trkpt><trkpt lat="44.2412841371635" lon="10.198987502557694"><ele>849.0</ele><time>2026-05-02T09:54:09Z</time></trkpt><trkpt lat="44.24128107418832" lon="10.199089981226207"><ele>849.0</ele><time>2026-05-02T09:54:10Z</time></trkpt><trkpt lat="44.24126483534274" lon="10.199195190799667"><ele>849.0</ele><time>2026-05-02T09:54:11Z</time></trkpt><trkpt lat="44.241236144455755" lon="10.199275634475658"><ele>849.0</ele><time>2026-05-02T09:54:12Z</time></trkpt><trkpt lat="44.24121472277763" lon="10.199385107818847"><ele>849.0</ele><time>2026-05-02T09:54:14Z</time></trkpt><trkpt lat="44.241406699302075" lon="10.199501050437018"><ele>845.1666666666666</ele><time>2026-05-02T09:54:16Z</time></trkpt><trkpt lat="44.241467793292024" lon="10.199535560059084"><ele>841.3333333333333</ele><time>2026-05-02T09:54:17Z</time></trkpt><trkpt lat="44.24154079120697" lon="10.199581813486214"><ele>837.5</ele><time>2026-05-02T09:54:18Z</time></trkpt><trkpt lat="44.24160700291321" lon="10.199621472606337"><ele>833.6666666666666</ele><time>2026-05-02T09:54:19Z</time></trkpt><trkpt lat="44.241634150000564" lon="10.199714615258195"><ele>829.8333333333333</ele><time>2026-05-02T09:54:21Z</time></trkpt><trkpt lat="44.241580256923235" lon="10.199801907211807"><ele>826.0</ele><time>2026-05-02T09:54:23Z</time></trkpt><trkpt lat="44.24147285728724" lon="10.199832083085314"><ele>829.2857142857143</ele><time>2026-05-02T09:54:25Z</time></trkpt><trkpt lat="44.24139686518552" lon="10.199860783600018"><ele>832.5714285714286</ele><time>2026-05-02T09:54:26Z</time></trkpt><trkpt lat="44.24132580084283" lon="10.19989125620836"><ele>835.8571428571429</ele><time>2026-05-02T09:54:27Z</time></trkpt><trkpt lat="44.24126036650398" lon="10.199909210341175"><ele>839.1428571428571</ele><time>2026-05-02T09:54:28Z</time></trkpt><trkpt lat="44.241193540529125" lon="10.199913165893546"><ele>842.4285714285714</ele><time>2026-05-02T09:54:29Z</time></trkpt><trkpt lat="44.241126430130606" lon="10.199884812956993"><ele>845.7142857142858</ele><time>2026-05-02T09:54:30Z</time></trkpt><trkpt lat="44.24104856491394" lon="10.199842634902046"><ele>849.0</ele><time>2026-05-02T09:54:31Z</time></trkpt><trkpt lat="44.240963749032545" lon="10.199783338258595"><ele>849.0</ele><time>2026-05-02T09:54:32Z</time></trkpt><trkpt lat="44.240930886635354" lon="10.199651890877057"><ele>849.0</ele><time>2026-05-02T09:54:33Z</time></trkpt><trkpt lat="44.24087623699472" lon="10.199608238906318"><ele>849.0</ele><time>2026-05-02T09:54:34Z</time></trkpt><trkpt lat="44.24078928774917" lon="10.199497645616681"><ele>849.0</ele><time>2026-05-02T09:54:36Z</time></trkpt><trkpt lat="44.240726879848125" lon="10.199394869499404"><ele>849.0</ele><time>2026-05-02T09:54:38Z</time></trkpt><trkpt lat="44.24066221669307" lon="10.199418454634854"><ele>849.0</ele><time>2026-05-02T09:54:40Z</time></trkpt><trkpt lat="44.24064253486009" lon="10.19951522347182"><ele>849.0</ele><time>2026-05-02T09:54:42Z</time></trkpt><trkpt lat="44.240676015287036" lon="10.199685119790814"><ele>849.0</ele><time>2026-05-02T09:54:44Z</time></trkpt><trkpt lat="44.24069877215511" lon="10.199782168582866"><ele>849.0</ele><time>2026-05-02T09:54:45Z</time></trkpt><trkpt lat="44.24071652151809" lon="10.199870803329363"><ele>849.0</ele><time>2026-05-02T09:54:46Z</time></trkpt><trkpt lat="44.240799605266666" lon="10.199983990721806"><ele>849.0</ele><time>2026-05-02T09:54:48Z</time></trkpt><trkpt lat="44.2408442798141" lon="10.20005690123312"><ele>850.3333333333334</ele><time>2026-05-02T09:54:49Z</time></trkpt><trkpt lat="44.24088949349917" lon="10.200147552141495"><ele>851.6666666666667</ele><time>2026-05-02T09:54:51Z</time></trkpt><trkpt lat="44.240825735022405" lon="10.200185841423476"><ele>853.0</ele><time>2026-05-02T09:54:54Z</time></trkpt><trkpt lat="44.24076771010823" lon="10.200133883829198"><ele>854.3333333333334</ele><time>2026-05-02T09:54:56Z</time></trkpt><trkpt lat="44.24065732010777" lon="10.200121559337095"><ele>855.6666666666667</ele><time>2026-05-02T09:54:58Z</time></trkpt><trkpt lat="44.24059192416298" lon="10.20008651340799"><ele>857.0</ele><time>2026-05-02T09:54:59Z</time></trkpt><trkpt lat="44.24047149626181" lon="10.200044236869726"><ele>864.0000000000001</ele><time>2026-05-02T09:55:01Z</time></trkpt><trkpt lat="44.24041244731453" lon="10.20000250286938"><ele>871.0</ele><time>2026-05-02T09:55:02Z</time></trkpt><trkpt lat="44.24034692833333" lon="10.19996037394719"><ele>878.0</ele><time>2026-05-02T09:55:04Z</time></trkpt><trkpt lat="44.24027831749416" lon="10.200007372537074"><ele>885.0</ele><time>2026-05-02T09:55:06Z</time></trkpt><trkpt lat="44.240295244193575" lon="10.200146386309193"><ele>892.0000000000001</ele><time>2026-05-02T09:55:08Z</time></trkpt><trkpt lat="44.24033799269916" lon="10.200216166786463"><ele>899.0</ele><time>2026-05-02T09:55:09Z</time></trkpt><trkpt lat="44.24038963691708" lon="10.200285323204707"><ele>899.0000000000001</ele><time>2026-05-02T09:55:10Z</time></trkpt><trkpt lat="44.240434299101246" lon="10.200364821585417"><ele>899.0</ele><time>2026-05-02T09:55:11Z</time></trkpt><trkpt lat="44.24049872768293" lon="10.200446707070467"><ele>899.0</ele><time>2026-05-02T09:55:11.999Z</time></trkpt><trkpt lat="44.24058263668334" lon="10.200508088080074"><ele>899.0</ele><time>2026-05-02T09:55:12.999Z</time></trkpt><trkpt lat="44.240652499862655" lon="10.200528501916404"><ele>899.0000000000001</ele><time>2026-05-02T09:55:13.999Z</time></trkpt><trkpt lat="44.24074645599814" lon="10.200614026357238"><ele>899.0</ele><time>2026-05-02T09:55:15.999Z</time></trkpt><trkpt lat="44.240778895833856" lon="10.200742416221315"><ele>895.5000000000001</ele><time>2026-05-02T09:55:17.999Z</time></trkpt><trkpt lat="44.240796795218806" lon="10.20082745128167"><ele>892.0</ele><time>2026-05-02T09:55:18.999Z</time></trkpt><trkpt lat="44.24083614192606" lon="10.200991419385073"><ele>888.5</ele><time>2026-05-02T09:55:20.999Z</time></trkpt><trkpt lat="44.2408667020838" lon="10.201080676502961"><ele>885.0</ele><time>2026-05-02T09:55:21.999Z</time></trkpt><trkpt lat="44.24095047657755" lon="10.201192718120797"><ele>881.5000000000001</ele><time>2026-05-02T09:55:23.999Z</time></trkpt><trkpt lat="44.2410118264966" lon="10.201236107182197"><ele>878.0</ele><time>2026-05-02T09:55:24.999Z</time></trkpt><trkpt lat="44.241083267956505" lon="10.201261650753759"><ele>878.0000000000001</ele><time>2026-05-02T09:55:25.999Z</time></trkpt><trkpt lat="44.241159353780674" lon="10.201252734867719"><ele>878.0</ele><time>2026-05-02T09:55:26.999Z</time></trkpt><trkpt lat="44.24124610933629" lon="10.201203364597161"><ele>878.0</ele><time>2026-05-02T09:55:27.999Z</time></trkpt><trkpt lat="44.241319394460426" lon="10.201176864037432"><ele>878.0</ele><time>2026-05-02T09:55:28.999Z</time></trkpt><trkpt lat="44.24140879912684" lon="10.201162703743327"><ele>878.0000000000001</ele><time>2026-05-02T09:55:30.999Z</time></trkpt><trkpt lat="44.241431854307265" lon="10.201248563300714"><ele>878.0</ele><time>2026-05-02T09:55:33.999Z</time></trkpt><trkpt lat="44.241372620608885" lon="10.20134467059713"><ele>878.0</ele><time>2026-05-02T09:55:35.999Z</time></trkpt><trkpt lat="44.241231048441215" lon="10.201394993569549"><ele>878.0</ele><time>2026-05-02T09:55:37.999Z</time></trkpt><trkpt lat="44.24115236270245" lon="10.201476166233832"><ele>878.0</ele><time>2026-05-02T09:55:38.999Z</time></trkpt><trkpt lat="44.24109802559114" lon="10.201545557430215"><ele>878.0</ele><time>2026-05-02T09:55:39.999Z</time></trkpt><trkpt lat="44.24104388502657" lon="10.201612559879782"><ele>878.0</ele><time>2026-05-02T09:55:40.999Z</time></trkpt><trkpt lat="44.24097222099149" lon="10.20169064531367"><ele>881.1666666666667</ele><time>2026-05-02T09:55:41.999Z</time></trkpt><trkpt lat="44.24089542627682" lon="10.201751810322035"><ele>884.3333333333334</ele><time>2026-05-02T09:55:42.999Z</time></trkpt><trkpt lat="44.24082658455868" lon="10.201801504592032"><ele>887.5</ele><time>2026-05-02T09:55:43.999Z</time></trkpt><trkpt lat="44.240761543698575" lon="10.201848249570318"><ele>890.6666666666667</ele><time>2026-05-02T09:55:44.999Z</time></trkpt><trkpt lat="44.240696329813915" lon="10.20189511886531"><ele>893.8333333333334</ele><time>2026-05-02T09:55:45.999Z</time></trkpt><trkpt lat="44.240640953526565" lon="10.20199048574767"><ele>897.0</ele><time>2026-05-02T09:55:47.999Z</time></trkpt><trkpt lat="44.24068156664169" lon="10.202078669615462"><ele>897.0</ele><time>2026-05-02T09:55:48.999Z</time></trkpt><trkpt lat="44.24074438265743" lon="10.202119046423526"><ele>897.0</ele><time>2026-05-02T09:55:49.999Z</time></trkpt><trkpt lat="44.240872436480956" lon="10.202122273167882"><ele>897.0</ele><time>2026-05-02T09:55:51.999Z</time></trkpt><trkpt lat="44.2409696076024" lon="10.202108652510496"><ele>897.0</ele><time>2026-05-02T09:55:52.999Z</time></trkpt><trkpt lat="44.241070754940075" lon="10.202104527624615"><ele>897.0</ele><time>2026-05-02T09:55:53.999Z</time></trkpt><trkpt lat="44.24116119102901" lon="10.20209370906789"><ele>897.0</ele><time>2026-05-02T09:55:54.999Z</time></trkpt><trkpt lat="44.24123152841374" lon="10.202091715215737"><ele>897.0</ele><time>2026-05-02T09:55:55.999Z</time></trkpt><trkpt lat="44.241345557031636" lon="10.202087244200927"><ele>897.0</ele><time>2026-05-02T09:55:57.999Z</time></trkpt><trkpt lat="44.24140742858554" lon="10.202183519662249"><ele>897.0</ele><time>2026-05-02T09:56:00Z</time></trkpt><trkpt lat="44.241461922417095" lon="10.202335136544175"><ele>897.0</ele><time>2026-05-02T09:56:02Z</time></trkpt><trkpt lat="44.24148659670133" lon="10.202427238655758"><ele>900.2</ele><time>2026-05-02T09:56:03Z</time></trkpt><trkpt lat="44.24147899788259" lon="10.202575476772106"><ele>903.4000000000001</ele><time>2026-05-02T09:56:05Z</time></trkpt><trkpt lat="44.241411631896625" lon="10.2026658203501"><ele>906.5999999999999</ele><time>2026-05-02T09:56:07Z</time></trkpt><trkpt lat="44.2412939433829" lon="10.202718596002677"><ele>909.8</ele><time>2026-05-02T09:56:09Z</time></trkpt><trkpt lat="44.24118170685662" lon="10.202715365601565"><ele>913.0</ele><time>2026-05-02T09:56:11Z</time></trkpt><trkpt lat="44.2410952870825" lon="10.202632211883794"><ele>912.9999999999999</ele><time>2026-05-02T09:56:13Z</time></trkpt><trkpt lat="44.24098464969614" lon="10.202568577803447"><ele>913.0</ele><time>2026-05-02T09:56:15Z</time></trkpt><trkpt lat="44.24090758670228" lon="10.202599482260956"><ele>913.0</ele><time>2026-05-02T09:56:16Z</time></trkpt><trkpt lat="44.24084222919641" lon="10.20265450296755"><ele>913.0</ele><time>2026-05-02T09:56:17Z</time></trkpt><trkpt lat="44.24077088687042" lon="10.202700448339247"><ele>912.9999999999999</ele><time>2026-05-02T09:56:18Z</time></trkpt><trkpt lat="44.2406964172024" lon="10.202732827699144"><ele>913.0</ele><time>2026-05-02T09:56:19Z</time></trkpt><trkpt lat="44.240629035294255" lon="10.202751119701077"><ele>914.6666666666666</ele><time>2026-05-02T09:56:20Z</time></trkpt><trkpt lat="44.2405523035342" lon="10.202772182129738"><ele>916.3333333333333</ele><time>2026-05-02T09:56:21Z</time></trkpt><trkpt lat="44.240476690487014" lon="10.202788398718596"><ele>918.0</ele><time>2026-05-02T09:56:22Z</time></trkpt><trkpt lat="44.24040751558087" lon="10.20280024074039"><ele>919.6666666666667</ele><time>2026-05-02T09:56:23Z</time></trkpt><trkpt lat="44.24033001808168" lon="10.202801742523466"><ele>921.3333333333334</ele><time>2026-05-02T09:56:24Z</time></trkpt><trkpt lat="44.240254076836905" lon="10.202787146736062"><ele>923.0</ele><time>2026-05-02T09:56:25Z</time></trkpt><trkpt lat="44.240177802034566" lon="10.202746010143615"><ele>923.0000000000001</ele><time>2026-05-02T09:56:26Z</time></trkpt><trkpt lat="44.240087823267594" lon="10.202725840783174"><ele>923.0</ele><time>2026-05-02T09:56:27Z</time></trkpt><trkpt lat="44.24000371482675" lon="10.202708899701657"><ele>923.0</ele><time>2026-05-02T09:56:28Z</time></trkpt><trkpt lat="44.2399294594125" lon="10.20271972849007"><ele>923.0</ele><time>2026-05-02T09:56:30Z</time></trkpt><trkpt lat="44.23986939785486" lon="10.202750905842876"><ele>923.0000000000001</ele><time>2026-05-02T09:58:14Z</time></trkpt><trkpt lat="44.23980107598099" lon="10.20281502879464"><ele>923.0</ele><time>2026-05-02T09:58:17Z</time></trkpt><trkpt lat="44.23972846644471" lon="10.20295251681327"><ele>923.0</ele><time>2026-05-02T09:58:19Z</time></trkpt><trkpt lat="44.23969087959065" lon="10.20303991284302"><ele>923.0</ele><time>2026-05-02T09:58:20Z</time></trkpt><trkpt lat="44.239655479235935" lon="10.203144267274944"><ele>923.0</ele><time>2026-05-02T09:58:21Z</time></trkpt><trkpt lat="44.239627362760544" lon="10.203236949015393"><ele>923.0</ele><time>2026-05-02T09:58:22Z</time></trkpt><trkpt lat="44.23958299106047" lon="10.20339314144864"><ele>923.0</ele><time>2026-05-02T09:58:24Z</time></trkpt><trkpt lat="44.23954262862958" lon="10.203535222041053"><ele>921.0</ele><time>2026-05-02T09:58:26Z</time></trkpt><trkpt lat="44.23951510157392" lon="10.20369958697011"><ele>919.0</ele><time>2026-05-02T09:58:28Z</time></trkpt><trkpt lat="44.23952718028565" lon="10.203823564729404"><ele>917.0</ele><time>2026-05-02T09:58:29Z</time></trkpt><trkpt lat="44.239523857280815" lon="10.203919767656636"><ele>915.0</ele><time>2026-05-02T09:58:30Z</time></trkpt><trkpt lat="44.239522546775476" lon="10.204017708429427"><ele>913.0</ele><time>2026-05-02T09:58:31Z</time></trkpt><trkpt lat="44.239511588342175" lon="10.20419239291044"><ele>912.8</ele><time>2026-05-02T09:58:33Z</time></trkpt><trkpt lat="44.239484864389354" lon="10.204346501531504"><ele>912.5999999999999</ele><time>2026-05-02T09:58:35Z</time></trkpt><trkpt lat="44.23945832727392" lon="10.204529867843085"><ele>912.4000000000001</ele><time>2026-05-02T09:58:37Z</time></trkpt><trkpt lat="44.23944831705801" lon="10.20462311735218"><ele>912.2</ele><time>2026-05-02T09:58:38Z</time></trkpt><trkpt lat="44.23943747459038" lon="10.204724119692274"><ele>912.0</ele><time>2026-05-02T09:58:39Z</time></trkpt><trkpt lat="44.23943322514239" lon="10.204835279034329"><ele>911.3333333333334</ele><time>2026-05-02T09:58:40Z</time></trkpt><trkpt lat="44.23941507743485" lon="10.204940028993141"><ele>910.6666666666667</ele><time>2026-05-02T09:58:41Z</time></trkpt><trkpt lat="44.239377434580454" lon="10.20503526507552"><ele>910.0</ele><time>2026-05-02T09:58:42Z</time></trkpt><trkpt lat="44.23937000818924" lon="10.205124855210423"><ele>909.3333333333334</ele><time>2026-05-02T09:58:43Z</time></trkpt><trkpt lat="44.239346934286445" lon="10.205284704614266"><ele>908.6666666666667</ele><time>2026-05-02T09:58:45Z</time></trkpt><trkpt lat="44.23932595867485" lon="10.205428144063918"><ele>908.0</ele><time>2026-05-02T09:58:47Z</time></trkpt><trkpt lat="44.23930409534201" lon="10.205527323963192"><ele>908.0</ele><time>2026-05-02T09:58:49Z</time></trkpt><trkpt lat="44.239213078681445" lon="10.205561548099196"><ele>908.0</ele><time>2026-05-02T09:58:51Z</time></trkpt><trkpt lat="44.23911569287138" lon="10.205442847370946"><ele>908.0</ele><time>2026-05-02T09:58:53Z</time></trkpt><trkpt lat="44.239055932976974" lon="10.205294845008856"><ele>908.0</ele><time>2026-05-02T09:58:55Z</time></trkpt><trkpt lat="44.2390275114735" lon="10.205214487280722"><ele>908.0</ele><time>2026-05-02T09:58:56Z</time></trkpt><trkpt lat="44.23899424258039" lon="10.205119673349122"><ele>905.0</ele><time>2026-05-02T09:58:57Z</time></trkpt><trkpt lat="44.238949052472144" lon="10.205004069926924"><ele>902.0</ele><time>2026-05-02T09:58:58Z</time></trkpt><trkpt lat="44.238895156966464" lon="10.204894297541394"><ele>899.0</ele><time>2026-05-02T09:58:59Z</time></trkpt><trkpt lat="44.23884908529924" lon="10.204800611172775"><ele>896.0</ele><time>2026-05-02T09:59:00Z</time></trkpt><trkpt lat="44.238805125043314" lon="10.204688688017793"><ele>893.0</ele><time>2026-05-02T09:59:01Z</time></trkpt><trkpt lat="44.23876194041591" lon="10.204571498941537"><ele>893.0000000000001</ele><time>2026-05-02T09:59:02Z</time></trkpt><trkpt lat="44.238717130410166" lon="10.20445930428587"><ele>893.0</ele><time>2026-05-02T09:59:03Z</time></trkpt><trkpt lat="44.23867807395894" lon="10.204366545441518"><ele>893.0</ele><time>2026-05-02T09:59:04Z</time></trkpt><trkpt lat="44.238639634564066" lon="10.20429166001742"><ele>893.0</ele><time>2026-05-02T09:59:05Z</time></trkpt><trkpt lat="44.23858756453583" lon="10.204229387178525"><ele>893.0000000000001</ele><time>2026-05-02T09:59:06Z</time></trkpt><trkpt lat="44.238466798771356" lon="10.20421050372267"><ele>893.0</ele><time>2026-05-02T09:59:08Z</time></trkpt><trkpt lat="44.2384022676913" lon="10.204270350328581"><ele>893.0</ele><time>2026-05-02T09:59:09Z</time></trkpt><trkpt lat="44.23832944310215" lon="10.204293654068607"><ele>893.0</ele><time>2026-05-02T09:59:10Z</time></trkpt><trkpt lat="44.23821120525345" lon="10.204380108511392"><ele>893.0</ele><time>2026-05-02T09:59:12Z</time></trkpt><trkpt lat="44.23811411010058" lon="10.204478836063366"><ele>893.0</ele><time>2026-05-02T09:59:14Z</time></trkpt><trkpt lat="44.238034071431244" lon="10.204515049785801"><ele>893.0</ele><time>2026-05-02T09:59:15Z</time></trkpt><trkpt lat="44.23794911676909" lon="10.204513032117484"><ele>892.0</ele><time>2026-05-02T09:59:16Z</time></trkpt><trkpt lat="44.23787020010422" lon="10.20451200514199"><ele>891.0</ele><time>2026-05-02T09:59:17Z</time></trkpt><trkpt lat="44.23779631354422" lon="10.204532621552636"><ele>890.0</ele><time>2026-05-02T09:59:18Z</time></trkpt><trkpt lat="44.23773159658924" lon="10.204558666910469"><ele>889.0</ele><time>2026-05-02T09:59:19Z</time></trkpt><trkpt lat="44.23766777071046" lon="10.204559697750977"><ele>888.0</ele><time>2026-05-02T09:59:20Z</time></trkpt><trkpt lat="44.23759084457789" lon="10.20458184983797"><ele>887.0</ele><time>2026-05-02T09:59:21Z</time></trkpt><trkpt lat="44.237511529762976" lon="10.204599872826881"><ele>886.0</ele><time>2026-05-02T09:59:21.999Z</time></trkpt><trkpt lat="44.23743372986419" lon="10.20464972958143"><ele>886.0</ele><time>2026-05-02T09:59:22.999Z</time></trkpt><trkpt lat="44.23735356337642" lon="10.204648364758132"><ele>886.0</ele><time>2026-05-02T09:59:23.999Z</time></trkpt><trkpt lat="44.23727978075756" lon="10.204653141661568"><ele>886.0</ele><time>2026-05-02T09:59:24.999Z</time></trkpt><trkpt lat="44.23721468910415" lon="10.204651211464821"><ele>886.0</ele><time>2026-05-02T09:59:25.999Z</time></trkpt><trkpt lat="44.23714847564803" lon="10.204644822822974"><ele>886.0</ele><time>2026-05-02T09:59:26.999Z</time></trkpt><trkpt lat="44.23708222106704" lon="10.204635133328058"><ele>886.0</ele><time>2026-05-02T09:59:27.999Z</time></trkpt><trkpt lat="44.237005844200276" lon="10.204620774482894"><ele>886.0</ele><time>2026-05-02T09:59:28.999Z</time></trkpt><trkpt lat="44.236927242399474" lon="10.204621608000355"><ele>884.9999999999999</ele><time>2026-05-02T09:59:29.999Z</time></trkpt><trkpt lat="44.23683526765785" lon="10.204604594799447"><ele>884.0</ele><time>2026-05-02T09:59:30.999Z</time></trkpt><trkpt lat="44.2367559515799" lon="10.204563215374975"><ele>883.0</ele><time>2026-05-02T09:59:31.999Z</time></trkpt><trkpt lat="44.23667075242416" lon="10.20450307597973"><ele>882.0</ele><time>2026-05-02T09:59:32.999Z</time></trkpt><trkpt lat="44.23660441742879" lon="10.204448562827373"><ele>880.9999999999999</ele><time>2026-05-02T09:59:33.999Z</time></trkpt><trkpt lat="44.236551178968114" lon="10.204395095345813"><ele>880.0</ele><time>2026-05-02T09:59:34.999Z</time></trkpt><trkpt lat="44.23647499492593" lon="10.204271759964108"><ele>875.4</ele><time>2026-05-02T09:59:36.999Z</time></trkpt><trkpt lat="44.23645726083259" lon="10.204140976180422"><ele>870.8</ele><time>2026-05-02T09:59:38.999Z</time></trkpt><trkpt lat="44.236392851026565" lon="10.204068007655255"><ele>866.2</ele><time>2026-05-02T09:59:40.999Z</time></trkpt><trkpt lat="44.23629929254041" lon="10.204165079173528"><ele>861.6</ele><time>2026-05-02T09:59:42.999Z</time></trkpt><trkpt lat="44.236305140562315" lon="10.204270547273516"><ele>857.0</ele><time>2026-05-02T09:59:43.999Z</time></trkpt><trkpt lat="44.23633018561557" lon="10.204430232096229"><ele>857.0</ele><time>2026-05-02T09:59:45.999Z</time></trkpt><trkpt lat="44.23639828565963" lon="10.204603553912118"><ele>857.0</ele><time>2026-05-02T09:59:47.999Z</time></trkpt><trkpt lat="44.236479176349555" lon="10.204666396034238"><ele>857.0</ele><time>2026-05-02T09:59:48.999Z</time></trkpt><trkpt lat="44.236552552502395" lon="10.204733362551314"><ele>857.0</ele><time>2026-05-02T09:59:49.999Z</time></trkpt><trkpt lat="44.23660773741282" lon="10.204787160688552"><ele>857.0</ele><time>2026-05-02T09:59:50.999Z</time></trkpt><trkpt lat="44.23670398910831" lon="10.204880842101536"><ele>858.3333333333334</ele><time>2026-05-02T09:59:52.999Z</time></trkpt><trkpt lat="44.23680334035632" lon="10.204939049376932"><ele>859.6666666666667</ele><time>2026-05-02T09:59:54.999Z</time></trkpt><trkpt lat="44.23686708684716" lon="10.204971217885895"><ele>861.0</ele><time>2026-05-02T09:59:55.999Z</time></trkpt><trkpt lat="44.2369320899952" lon="10.204995375878017"><ele>862.3333333333333</ele><time>2026-05-02T09:59:56.999Z</time></trkpt><trkpt lat="44.23699740347532" lon="10.205012617833157"><ele>863.6666666666666</ele><time>2026-05-02T09:59:57.999Z</time></trkpt><trkpt lat="44.23709392138387" lon="10.205036734514426"><ele>865.0</ele><time>2026-05-02T09:59:59.999Z</time></trkpt><trkpt lat="44.23713456101529" lon="10.205104164460462"><ele>865.0</ele><time>2026-05-02T10:00:01.999Z</time></trkpt><trkpt lat="44.2370934823042" lon="10.20519263615866"><ele>865.0</ele><time>2026-05-02T10:00:03.999Z</time></trkpt><trkpt lat="44.23699430594854" lon="10.205150647856197"><ele>865.0</ele><time>2026-05-02T10:00:05.999Z</time></trkpt><trkpt lat="44.23692647129243" lon="10.205143758140625"><ele>865.0</ele><time>2026-05-02T10:00:06.999Z</time></trkpt><trkpt lat="44.236782268689566" lon="10.205099666065243"><ele>865.0</ele><time>2026-05-02T10:00:08.999Z</time></trkpt><trkpt lat="44.23670134433669" lon="10.205077502865578"><ele>864.9999999999999</ele><time>2026-05-02T10:00:09.999Z</time></trkpt><trkpt lat="44.23663386219948" lon="10.20506316274181"><ele>865.0</ele><time>2026-05-02T10:00:10.999Z</time></trkpt><trkpt lat="44.23656115843948" lon="10.205052059267517"><ele>865.0</ele><time>2026-05-02T10:00:12Z</time></trkpt><trkpt lat="44.23643826535365" lon="10.205020843890699"><ele>865.0</ele><time>2026-05-02T10:00:14Z</time></trkpt><trkpt lat="44.23635533268347" lon="10.205016819865508"><ele>864.9999999999999</ele><time>2026-05-02T10:00:15Z</time></trkpt><trkpt lat="44.23627279972318" lon="10.205002888113844"><ele>865.0</ele><time>2026-05-02T10:00:16Z</time></trkpt><trkpt lat="44.2361904260536" lon="10.20497985412172"><ele>863.8571428571429</ele><time>2026-05-02T10:00:17Z</time></trkpt><trkpt lat="44.23612749650434" lon="10.204954362980835"><ele>862.7142857142858</ele><time>2026-05-02T10:00:18Z</time></trkpt><trkpt lat="44.23604737979128" lon="10.204916870907782"><ele>861.5714285714286</ele><time>2026-05-02T10:00:19Z</time></trkpt><trkpt lat="44.2359688530658" lon="10.204878314155442"><ele>860.4285714285714</ele><time>2026-05-02T10:00:20Z</time></trkpt><trkpt lat="44.23589793710657" lon="10.204843983960151"><ele>859.2857142857142</ele><time>2026-05-02T10:00:21Z</time></trkpt><trkpt lat="44.23583251277246" lon="10.204814055141895"><ele>858.1428571428571</ele><time>2026-05-02T10:00:22Z</time></trkpt><trkpt lat="44.23577218568909" lon="10.204788911613333"><ele>857.0</ele><time>2026-05-02T10:00:23Z</time></trkpt><trkpt lat="44.23564515037792" lon="10.20474731093494"><ele>855.0</ele><time>2026-05-02T10:00:25Z</time></trkpt><trkpt lat="44.23555820884436" lon="10.204745244170955"><ele>853.0</ele><time>2026-05-02T10:00:27Z</time></trkpt><trkpt lat="44.23550627277902" lon="10.204870013987858"><ele>851.0</ele><time>2026-05-02T10:00:29Z</time></trkpt><trkpt lat="44.235547033017156" lon="10.204949071125506"><ele>849.0</ele><time>2026-05-02T10:00:30Z</time></trkpt><trkpt lat="44.23562449629623" lon="10.205033051172654"><ele>847.0</ele><time>2026-05-02T10:00:32Z</time></trkpt><trkpt lat="44.23573251210691" lon="10.20510058702505"><ele>846.9999999999999</ele><time>2026-05-02T10:00:34Z</time></trkpt><trkpt lat="44.23581445635763" lon="10.205165469584282"><ele>847.0</ele><time>2026-05-02T10:00:36Z</time></trkpt><trkpt lat="44.23587431153999" lon="10.205228147686128"><ele>847.0</ele><time>2026-05-02T10:00:38Z</time></trkpt><trkpt lat="44.23580876940109" lon="10.205292414214695"><ele>847.0</ele><time>2026-05-02T10:00:42Z</time></trkpt><trkpt lat="44.235726156854874" lon="10.205244141325156"><ele>846.9999999999999</ele><time>2026-05-02T10:00:44Z</time></trkpt><trkpt lat="44.235659026621015" lon="10.205216254803474"><ele>847.0</ele><time>2026-05-02T10:00:45Z</time></trkpt><trkpt lat="44.23558428402692" lon="10.205189082309408"><ele>842.8</ele><time>2026-05-02T10:00:46Z</time></trkpt><trkpt lat="44.23546245402533" lon="10.205151743653593"><ele>838.6</ele><time>2026-05-02T10:00:48Z</time></trkpt><trkpt lat="44.235337461771024" lon="10.205125941057371"><ele>834.4</ele><time>2026-05-02T10:00:50Z</time></trkpt><trkpt lat="44.23526679846241" lon="10.205147171845088"><ele>830.1999999999999</ele><time>2026-05-02T10:00:51Z</time></trkpt><trkpt lat="44.235199467322076" lon="10.205131713944429"><ele>826.0</ele><time>2026-05-02T10:00:52Z</time></trkpt><trkpt lat="44.23507987820944" lon="10.205099986102466"><ele>825.9999999999999</ele><time>2026-05-02T10:00:54Z</time></trkpt><trkpt lat="44.23501925669847" lon="10.205044339553112"><ele>826.0</ele><time>2026-05-02T10:00:55Z</time></trkpt><trkpt lat="44.23494176261884" lon="10.204969528892727"><ele>826.0</ele><time>2026-05-02T10:00:57Z</time></trkpt><trkpt lat="44.23492524444076" lon="10.204847558066481"><ele>826.0</ele><time>2026-05-02T10:00:59Z</time></trkpt><trkpt lat="44.23492132578154" lon="10.204733651671672"><ele>825.9999999999999</ele><time>2026-05-02T10:01:01Z</time></trkpt><trkpt lat="44.23491327493807" lon="10.204615726840327"><ele>826.0</ele><time>2026-05-02T10:01:03Z</time></trkpt><trkpt lat="44.2348820046124" lon="10.20450064221045"><ele>823.1999999999999</ele><time>2026-05-02T10:01:05Z</time></trkpt><trkpt lat="44.234783830749" lon="10.204482444067875"><ele>820.4</ele><time>2026-05-02T10:01:07Z</time></trkpt><trkpt lat="44.234742701506896" lon="10.204561808395477"><ele>817.6</ele><time>2026-05-02T10:01:08Z</time></trkpt><trkpt lat="44.234681570423795" lon="10.204680435175916"><ele>814.8</ele><time>2026-05-02T10:01:10Z</time></trkpt><trkpt lat="44.2346119546335" lon="10.204826377343714"><ele>812.0</ele><time>2026-05-02T10:01:12Z</time></trkpt><trkpt lat="44.23457585073321" lon="10.204898968946571"><ele>809.8333333333334</ele><time>2026-05-02T10:01:12.999Z</time></trkpt><trkpt lat="44.23453096163333" lon="10.205021739027194"><ele>807.6666666666667</ele><time>2026-05-02T10:01:14.999Z</time></trkpt><trkpt lat="44.23449012621006" lon="10.205105210315546"><ele>805.5</ele><time>2026-05-02T10:01:16.999Z</time></trkpt><trkpt lat="44.234473902360705" lon="10.205222299103285"><ele>803.3333333333333</ele><time>2026-05-02T10:01:18.999Z</time></trkpt><trkpt lat="44.2345225284076" lon="10.205322221797955"><ele>801.1666666666666</ele><time>2026-05-02T10:01:20.999Z</time></trkpt><trkpt lat="44.234604748753526" lon="10.205413460586175"><ele>799.0</ele><time>2026-05-02T10:01:22.999Z</time></trkpt><trkpt lat="44.23465550404814" lon="10.2054990825065"><ele>798.9999999999999</ele><time>2026-05-02T10:01:24.999Z</time></trkpt><trkpt lat="44.234578615842196" lon="10.205561001749412"><ele>799.0</ele><time>2026-05-02T10:01:26.999Z</time></trkpt><trkpt lat="44.23452510790831" lon="10.205512535913835"><ele>799.0</ele><time>2026-05-02T10:01:28.999Z</time></trkpt><trkpt lat="44.234449429293335" lon="10.2054295576251"><ele>799.0</ele><time>2026-05-02T10:01:30.999Z</time></trkpt><trkpt lat="44.23438813747835" lon="10.205369861204444"><ele>798.9999999999999</ele><time>2026-05-02T10:01:32.999Z</time></trkpt><trkpt lat="44.2343171313187" lon="10.20529595048564"><ele>799.0</ele><time>2026-05-02T10:01:34.999Z</time></trkpt><trkpt lat="44.23423251964819" lon="10.205209768942561"><ele>799.0</ele><time>2026-05-02T10:01:36.999Z</time></trkpt><trkpt lat="44.234145854544494" lon="10.205113088596299"><ele>799.0</ele><time>2026-05-02T10:01:38.999Z</time></trkpt><trkpt lat="44.23405869290367" lon="10.205068593858458"><ele>799.0</ele><time>2026-05-02T10:01:40.999Z</time></trkpt><trkpt lat="44.233959965500716" lon="10.205124840798247"><ele>799.0</ele><time>2026-05-02T10:01:42.999Z</time></trkpt><trkpt lat="44.233886818297755" lon="10.205182826298811"><ele>799.0</ele><time>2026-05-02T10:01:44.999Z</time></trkpt><trkpt lat="44.233840681532605" lon="10.2052706638211"><ele>797.1666666666666</ele><time>2026-05-02T10:01:46.999Z</time></trkpt><trkpt lat="44.233816700029706" lon="10.205377403639117"><ele>795.3333333333333</ele><time>2026-05-02T10:01:48.999Z</time></trkpt><trkpt lat="44.23379190757" lon="10.205493375745368"><ele>793.5</ele><time>2026-05-02T10:01:51.999Z</time></trkpt><trkpt lat="44.23370955471" lon="10.205569961189735"><ele>791.6666666666667</ele><time>2026-05-02T10:01:54.999Z</time></trkpt><trkpt lat="44.233634846582156" lon="10.205651596905506"><ele>789.8333333333334</ele><time>2026-05-02T10:01:56.999Z</time></trkpt><trkpt lat="44.23358168020559" lon="10.205717151583682"><ele>788.0</ele><time>2026-05-02T10:01:57.999Z</time></trkpt><trkpt lat="44.23351212818152" lon="10.20582894708853"><ele>784.5999999999999</ele><time>2026-05-02T10:01:59.999Z</time></trkpt><trkpt lat="44.23343890100942" lon="10.205936793161706"><ele>781.1999999999999</ele><time>2026-05-02T10:02:01.999Z</time></trkpt><trkpt lat="44.23339460409981" lon="10.206064695941867"><ele>777.8</ele><time>2026-05-02T10:02:03.999Z</time></trkpt><trkpt lat="44.23338334989447" lon="10.206193788210825"><ele>774.4</ele><time>2026-05-02T10:02:05.999Z</time></trkpt><trkpt lat="44.23336775366799" lon="10.206322392121686"><ele>771.0</ele><time>2026-05-02T10:02:07.999Z</time></trkpt><trkpt lat="44.23332601318244" lon="10.206414376066173"><ele>771.0</ele><time>2026-05-02T10:02:09.999Z</time></trkpt><trkpt lat="44.23322998102894" lon="10.206456354656835"><ele>771.0</ele><time>2026-05-02T10:02:11.999Z</time></trkpt><trkpt lat="44.23316198153309" lon="10.2065013622968"><ele>771.0</ele><time>2026-05-02T10:02:13.999Z</time></trkpt><trkpt lat="44.23307304020389" lon="10.206588369423724"><ele>771.0</ele><time>2026-05-02T10:02:15.999Z</time></trkpt><trkpt lat="44.23300536614135" lon="10.20670029554797"><ele>771.0</ele><time>2026-05-02T10:02:18Z</time></trkpt><trkpt lat="44.23294425230643" lon="10.206842914622769"><ele>767.1428571428572</ele><time>2026-05-02T10:02:20Z</time></trkpt><trkpt lat="44.23290637246644" lon="10.206926717777359"><ele>763.2857142857142</ele><time>2026-05-02T10:02:21Z</time></trkpt><trkpt lat="44.23286352640719" lon="10.20700985473881"><ele>759.4285714285714</ele><time>2026-05-02T10:02:22Z</time></trkpt><trkpt lat="44.23281394079184" lon="10.20710006187932"><ele>755.5714285714287</ele><time>2026-05-02T10:02:23Z</time></trkpt><trkpt lat="44.2327593985923" lon="10.207167255318145"><ele>751.7142857142858</ele><time>2026-05-02T10:02:24Z</time></trkpt><trkpt lat="44.23271950151228" lon="10.207237227498915"><ele>747.8571428571429</ele><time>2026-05-02T10:02:25Z</time></trkpt><trkpt lat="44.232670651556184" lon="10.207323711666074"><ele>744.0</ele><time>2026-05-02T10:02:27Z</time></trkpt><trkpt lat="44.23263808500162" lon="10.207416579519409"><ele>743.4000000000001</ele><time>2026-05-02T10:08:18.999Z</time></trkpt><trkpt lat="44.23260537396593" lon="10.207501916925258"><ele>742.8</ele><time>2026-05-02T10:08:20.999Z</time></trkpt><trkpt lat="44.23258708729293" lon="10.207613489722934"><ele>742.2</ele><time>2026-05-02T10:08:22.999Z</time></trkpt><trkpt lat="44.23260522012822" lon="10.207726456331061"><ele>741.5999999999999</ele><time>2026-05-02T10:08:24.999Z</time></trkpt><trkpt lat="44.23268026670893" lon="10.207842165055682"><ele>741.0</ele><time>2026-05-02T10:08:26.999Z</time></trkpt><trkpt lat="44.232774568149075" lon="10.207912277388383"><ele>741.0</ele><time>2026-05-02T10:08:28.999Z</time></trkpt><trkpt lat="44.23283699779924" lon="10.207941496451523"><ele>741.0</ele><time>2026-05-02T10:08:29.999Z</time></trkpt><trkpt lat="44.232899074963626" lon="10.20796345285174"><ele>741.0</ele><time>2026-05-02T10:08:30.999Z</time></trkpt><trkpt lat="44.233023621354775" lon="10.207985154093144"><ele>741.0</ele><time>2026-05-02T10:08:32.999Z</time></trkpt><trkpt lat="44.23311235644662" lon="10.207950857978995"><ele>741.0</ele><time>2026-05-02T10:08:35Z</time></trkpt><trkpt lat="44.2332016157843" lon="10.207896010763312"><ele>741.0</ele><time>2026-05-02T10:08:37Z</time></trkpt><trkpt lat="44.233261590884894" lon="10.20786560667411"><ele>741.1428571428571</ele><time>2026-05-02T10:08:39Z</time></trkpt><trkpt lat="44.23331954397373" lon="10.207830174062222"><ele>741.2857142857143</ele><time>2026-05-02T10:08:42Z</time></trkpt><trkpt lat="44.23338027759623" lon="10.207798828698362"><ele>741.4285714285714</ele><time>2026-05-02T10:08:44Z</time></trkpt><trkpt lat="44.23345372233472" lon="10.207761651753398"><ele>741.5714285714286</ele><time>2026-05-02T10:08:46Z</time></trkpt><trkpt lat="44.233519552977675" lon="10.207751485909117"><ele>741.7142857142858</ele><time>2026-05-02T10:08:48Z</time></trkpt><trkpt lat="44.233591423748116" lon="10.207777351609554"><ele>741.8571428571429</ele><time>2026-05-02T10:08:50Z</time></trkpt><trkpt lat="44.23366375402941" lon="10.207837043185961"><ele>742.0</ele><time>2026-05-02T10:08:52Z</time></trkpt><trkpt lat="44.233718303405794" lon="10.207886437671192"><ele>742.0</ele><time>2026-05-02T10:08:54Z</time></trkpt><trkpt lat="44.23379244926937" lon="10.207925853743031"><ele>742.0</ele><time>2026-05-02T10:08:56Z</time></trkpt><trkpt lat="44.233867490280474" lon="10.207970553677443"><ele>742.0</ele><time>2026-05-02T10:08:58Z</time></trkpt><trkpt lat="44.23387016959367" lon="10.208072922198255"><ele>742.0</ele><time>2026-05-02T10:09:00Z</time></trkpt><trkpt lat="44.233836293720344" lon="10.208163197486343"><ele>742.0</ele><time>2026-05-02T10:09:02Z</time></trkpt><trkpt lat="44.23380430245389" lon="10.20826561508339"><ele>742.0</ele><time>2026-05-02T10:09:04Z</time></trkpt><trkpt lat="44.23381741786266" lon="10.208385604611308"><ele>739.4000000000001</ele><time>2026-05-02T10:09:06Z</time></trkpt><trkpt lat="44.23379607147982" lon="10.208521222461838"><ele>736.8000000000001</ele><time>2026-05-02T10:09:08Z</time></trkpt><trkpt lat="44.23369297438838" lon="10.208489899486262"><ele>734.2</ele><time>2026-05-02T10:09:10Z</time></trkpt><trkpt lat="44.233605689182575" lon="10.20850642036624"><ele>731.6</ele><time>2026-05-02T10:09:12Z</time></trkpt><trkpt lat="44.23351675557886" lon="10.208567468874449"><ele>729.0</ele><time>2026-05-02T10:09:14Z</time></trkpt><trkpt lat="44.23342919845789" lon="10.208630756093479"><ele>729.0</ele><time>2026-05-02T10:09:16Z</time></trkpt><trkpt lat="44.23336272992396" lon="10.20868644095927"><ele>729.0</ele><time>2026-05-02T10:09:18Z</time></trkpt><trkpt lat="44.23328558175062" lon="10.208733559031732"><ele>729.0</ele><time>2026-05-02T10:09:20Z</time></trkpt><trkpt lat="44.233214725391065" lon="10.208756615193133"><ele>729.0</ele><time>2026-05-02T10:09:22Z</time></trkpt><trkpt lat="44.23314343613811" lon="10.208779682977072"><ele>729.0</ele><time>2026-05-02T10:09:24Z</time></trkpt><trkpt lat="44.233068150870004" lon="10.20880609503596"><ele>729.0</ele><time>2026-05-02T10:09:26Z</time></trkpt><trkpt lat="44.232983015941" lon="10.20885793087064"><ele>728.3333333333334</ele><time>2026-05-02T10:09:28Z</time></trkpt><trkpt lat="44.23291273792659" lon="10.208878783777081"><ele>727.6666666666666</ele><time>2026-05-02T10:09:30Z</time></trkpt><trkpt lat="44.23283324389097" lon="10.208891225984338"><ele>727.0</ele><time>2026-05-02T10:09:32Z</time></trkpt><trkpt lat="44.23276214439175" lon="10.208926253901842"><ele>726.3333333333333</ele><time>2026-05-02T10:09:34Z</time></trkpt><trkpt lat="44.23270031911105" lon="10.208999973293032"><ele>725.6666666666666</ele><time>2026-05-02T10:09:36Z</time></trkpt><trkpt lat="44.23262577045414" lon="10.209088976846628"><ele>725.0</ele><time>2026-05-02T10:09:38Z</time></trkpt><trkpt lat="44.23258091234438" lon="10.209180921922748"><ele>724.3333333333333</ele><time>2026-05-02T10:09:39.999Z</time></trkpt><trkpt lat="44.232515310046026" lon="10.209250975227906"><ele>723.6666666666666</ele><time>2026-05-02T10:09:41.999Z</time></trkpt><trkpt lat="44.232451358074556" lon="10.209317623033751"><ele>723.0</ele><time>2026-05-02T10:09:43.999Z</time></trkpt><trkpt lat="44.23237902453761" lon="10.209354169657635"><ele>722.3333333333334</ele><time>2026-05-02T10:09:45.999Z</time></trkpt><trkpt lat="44.23230853917205" lon="10.209392476213115"><ele>721.6666666666667</ele><time>2026-05-02T10:09:47.999Z</time></trkpt><trkpt lat="44.232235232420386" lon="10.209431330896917"><ele>721.0</ele><time>2026-05-02T10:09:49.999Z</time></trkpt><trkpt lat="44.232149537951635" lon="10.209451595768199"><ele>716.8</ele><time>2026-05-02T10:09:51.999Z</time></trkpt><trkpt lat="44.232065809622895" lon="10.209491862811413"><ele>712.5999999999999</ele><time>2026-05-02T10:09:53.999Z</time></trkpt><trkpt lat="44.23198549309577" lon="10.209541040819179"><ele>708.4</ele><time>2026-05-02T10:09:55.999Z</time></trkpt><trkpt lat="44.23191871197032" lon="10.209624743127792"><ele>704.2</ele><time>2026-05-02T10:09:57.999Z</time></trkpt><trkpt lat="44.23185154894357" lon="10.209720713482264"><ele>700.0</ele><time>2026-05-02T10:09:59.999Z</time></trkpt><trkpt lat="44.231771336297825" lon="10.209801315806796"><ele>700.5</ele><time>2026-05-02T10:10:01.999Z</time></trkpt><trkpt lat="44.23170669680849" lon="10.209878986422664"><ele>701.0</ele><time>2026-05-02T10:10:03.999Z</time></trkpt><trkpt lat="44.23162865019653" lon="10.209948076652365"><ele>701.5</ele><time>2026-05-02T10:10:05.999Z</time></trkpt><trkpt lat="44.231546192332466" lon="10.209966556292573"><ele>702.0</ele><time>2026-05-02T10:10:07.999Z</time></trkpt><trkpt lat="44.23146426583099" lon="10.209943444492124"><ele>702.5</ele><time>2026-05-02T10:10:09.999Z</time></trkpt><trkpt lat="44.23138086698034" lon="10.209927537542098"><ele>703.0</ele><time>2026-05-02T10:10:11.999Z</time></trkpt><trkpt lat="44.23130011002878" lon="10.209909761365811"><ele>703.0</ele><time>2026-05-02T10:10:13.999Z</time></trkpt><trkpt lat="44.23121486243975" lon="10.209894776468337"><ele>703.0</ele><time>2026-05-02T10:10:15.999Z</time></trkpt><trkpt lat="44.23113472983737" lon="10.20989560317205"><ele>703.0</ele><time>2026-05-02T10:10:17.999Z</time></trkpt><trkpt lat="44.23104379410965" lon="10.209940963476184"><ele>703.0</ele><time>2026-05-02T10:10:19.999Z</time></trkpt><trkpt lat="44.23095462447894" lon="10.209989566681184"><ele>703.0</ele><time>2026-05-02T10:10:21.999Z</time></trkpt><trkpt lat="44.23086856031726" lon="10.210014193792592"><ele>703.0</ele><time>2026-05-02T10:10:23.999Z</time></trkpt><trkpt lat="44.23079822497671" lon="10.210063969995698"><ele>703.0</ele><time>2026-05-02T10:10:25.999Z</time></trkpt><trkpt lat="44.23070956304383" lon="10.21010791178586"><ele>703.0</ele><time>2026-05-02T10:10:27.999Z</time></trkpt><trkpt lat="44.230627542719176" lon="10.210114685755821"><ele>703.0</ele><time>2026-05-02T10:10:29.999Z</time></trkpt><trkpt lat="44.23054150802888" lon="10.210130221856826"><ele>703.0</ele><time>2026-05-02T10:10:31.999Z</time></trkpt><trkpt lat="44.23046529906335" lon="10.210161535381102"><ele>703.0</ele><time>2026-05-02T10:10:33.999Z</time></trkpt><trkpt lat="44.230378270745526" lon="10.210258611541898"><ele>699.8</ele><time>2026-05-02T10:10:35.999Z</time></trkpt><trkpt lat="44.23031433655049" lon="10.210379795391878"><ele>696.5999999999999</ele><time>2026-05-02T10:10:37.999Z</time></trkpt><trkpt lat="44.23031819857219" lon="10.210549237961388"><ele>693.4000000000001</ele><time>2026-05-02T10:10:40Z</time></trkpt><trkpt lat="44.23037212150445" lon="10.2106159810978"><ele>690.2</ele><time>2026-05-02T10:10:41Z</time></trkpt><trkpt lat="44.23047152466384" lon="10.210726679830012"><ele>687.0</ele><time>2026-05-02T10:10:43Z</time></trkpt><trkpt lat="44.23052600902444" lon="10.210776027588608"><ele>685.4000000000001</ele><time>2026-05-02T10:10:44Z</time></trkpt><trkpt lat="44.23061906559855" lon="10.210866630225622"><ele>683.8000000000001</ele><time>2026-05-02T10:10:46Z</time></trkpt><trkpt lat="44.230688011727416" lon="10.210976966027225"><ele>682.2</ele><time>2026-05-02T10:10:48Z</time></trkpt><trkpt lat="44.23073612384494" lon="10.211115932174199"><ele>680.6</ele><time>2026-05-02T10:10:50Z</time></trkpt><trkpt lat="44.23079739592794" lon="10.211256851536767"><ele>679.0</ele><time>2026-05-02T10:10:52Z</time></trkpt><trkpt lat="44.23083551408718" lon="10.21139258801425"><ele>680.0</ele><time>2026-05-02T10:10:54Z</time></trkpt><trkpt lat="44.230781072631515" lon="10.211512341076167"><ele>681.0</ele><time>2026-05-02T10:10:56Z</time></trkpt><trkpt lat="44.23069769230383" lon="10.211551714835856"><ele>682.0</ele><time>2026-05-02T10:10:58Z</time></trkpt><trkpt lat="44.2305890630937" lon="10.211572452731792"><ele>683.0</ele><time>2026-05-02T10:11:00Z</time></trkpt><trkpt lat="44.23052559288218" lon="10.211583721434577"><ele>684.0</ele><time>2026-05-02T10:11:01Z</time></trkpt><trkpt lat="44.230399625683525" lon="10.211611370410221"><ele>684.0</ele><time>2026-05-02T10:11:03Z</time></trkpt><trkpt lat="44.23032829485188" lon="10.211610828076978"><ele>684.0</ele><time>2026-05-02T10:11:04Z</time></trkpt><trkpt lat="44.23024549489213" lon="10.211590115892069"><ele>684.0</ele><time>2026-05-02T10:11:05Z</time></trkpt><trkpt lat="44.23017641207932" lon="10.21159257646934"><ele>684.0</ele><time>2026-05-02T10:11:06Z</time></trkpt><trkpt lat="44.23011242642906" lon="10.211594855601337"><ele>684.0</ele><time>2026-05-02T10:11:07Z</time></trkpt><trkpt lat="44.2300388890108" lon="10.21168333845676"><ele>684.0</ele><time>2026-05-02T10:11:09Z</time></trkpt><trkpt lat="44.22999816378645" lon="10.211785805405992"><ele>684.0</ele><time>2026-05-02T10:11:11Z</time></trkpt><trkpt lat="44.22995884713792" lon="10.211666133563034"><ele>684.0</ele><time>2026-05-02T10:11:13Z</time></trkpt><trkpt lat="44.230037889266676" lon="10.211534430789579"><ele>684.0</ele><time>2026-05-02T10:11:15Z</time></trkpt><trkpt lat="44.23009469157081" lon="10.211467309631796"><ele>684.0</ele><time>2026-05-02T10:11:16Z</time></trkpt><trkpt lat="44.230167797882196" lon="10.211448451339528"><ele>684.0</ele><time>2026-05-02T10:11:17Z</time></trkpt><trkpt lat="44.230240083881235" lon="10.211413490898325"><ele>684.0</ele><time>2026-05-02T10:11:18Z</time></trkpt><trkpt lat="44.230315621350435" lon="10.211341240506439"><ele>683.1666666666666</ele><time>2026-05-02T10:11:19.999Z</time></trkpt><trkpt lat="44.23026564173788" lon="10.211233212187539"><ele>682.3333333333334</ele><time>2026-05-02T10:11:21.999Z</time></trkpt><trkpt lat="44.230156501532676" lon="10.211230271216479"><ele>681.5</ele><time>2026-05-02T10:11:23.999Z</time></trkpt><trkpt lat="44.23008672872457" lon="10.211258601774055"><ele>680.6666666666667</ele><time>2026-05-02T10:11:24.999Z</time></trkpt><trkpt lat="44.230012816326465" lon="10.21127938373206"><ele>679.8333333333334</ele><time>2026-05-02T10:11:25.999Z</time></trkpt><trkpt lat="44.22994414059534" lon="10.211281900124458"><ele>679.0</ele><time>2026-05-02T10:11:26.999Z</time></trkpt><trkpt lat="44.22986468385264" lon="10.211324658131188"><ele>679.0</ele><time>2026-05-02T10:11:28.999Z</time></trkpt><trkpt lat="44.22984124805536" lon="10.211469992413784"><ele>679.0</ele><time>2026-05-02T10:11:30.999Z</time></trkpt><trkpt lat="44.229825284743875" lon="10.21157883000035"><ele>679.0</ele><time>2026-05-02T10:11:31.999Z</time></trkpt><trkpt lat="44.22977647117403" lon="10.211662936351043"><ele>679.0</ele><time>2026-05-02T10:11:32.999Z</time></trkpt><trkpt lat="44.22969775624651" lon="10.211681674186716"><ele>679.0</ele><time>2026-05-02T10:11:33.999Z</time></trkpt><trkpt lat="44.22961844307182" lon="10.211720051390893"><ele>679.0</ele><time>2026-05-02T10:11:34.999Z</time></trkpt><trkpt lat="44.229545959775436" lon="10.211696052612513"><ele>680.0</ele><time>2026-05-02T10:11:35.999Z</time></trkpt><trkpt lat="44.22948299257292" lon="10.211643457144268"><ele>681.0</ele><time>2026-05-02T10:11:36.999Z</time></trkpt><trkpt lat="44.22943395581901" lon="10.211544351159974"><ele>682.0</ele><time>2026-05-02T10:11:37.999Z</time></trkpt><trkpt lat="44.22934762161981" lon="10.211481490082456"><ele>683.0</ele><time>2026-05-02T10:11:38.999Z</time></trkpt><trkpt lat="44.22927108753984" lon="10.211379550901857"><ele>684.0</ele><time>2026-05-02T10:11:39.999Z</time></trkpt><trkpt lat="44.22919011134967" lon="10.21130589948494"><ele>684.4000000000001</ele><time>2026-05-02T10:11:40.999Z</time></trkpt><trkpt lat="44.22910073685434" lon="10.211251384013915"><ele>684.8</ele><time>2026-05-02T10:11:41.999Z</time></trkpt><trkpt lat="44.22904968912415" lon="10.211147811023078"><ele>685.2</ele><time>2026-05-02T10:11:42.999Z</time></trkpt><trkpt lat="44.229001830676594" lon="10.211040382545445"><ele>685.5999999999999</ele><time>2026-05-02T10:11:43.999Z</time></trkpt><trkpt lat="44.22894295657809" lon="10.210935107444838"><ele>686.0</ele><time>2026-05-02T10:11:44.999Z</time></trkpt><trkpt lat="44.228894103738355" lon="10.210828991566514"><ele>686.0</ele><time>2026-05-02T10:11:45.999Z</time></trkpt><trkpt lat="44.2288336379708" lon="10.210728344931717"><ele>686.0</ele><time>2026-05-02T10:11:46.999Z</time></trkpt><trkpt lat="44.22879252486008" lon="10.210611275515555"><ele>686.0</ele><time>2026-05-02T10:11:47.999Z</time></trkpt><trkpt lat="44.22873316470385" lon="10.210514388029864"><ele>686.0</ele><time>2026-05-02T10:11:48.999Z</time></trkpt><trkpt lat="44.22866272737893" lon="10.21042039234936"><ele>686.0</ele><time>2026-05-02T10:11:49.999Z</time></trkpt><trkpt lat="44.2285923234634" lon="10.210327165703191"><ele>681.8333333333333</ele><time>2026-05-02T10:11:50.999Z</time></trkpt><trkpt lat="44.22853222301206" lon="10.21022412690145"><ele>677.6666666666666</ele><time>2026-05-02T10:11:51.999Z</time></trkpt><trkpt lat="44.228477354561846" lon="10.210116924949322"><ele>673.5</ele><time>2026-05-02T10:11:52.999Z</time></trkpt><trkpt lat="44.22842690165975" lon="10.210018976283001"><ele>669.3333333333334</ele><time>2026-05-02T10:11:53.999Z</time></trkpt><trkpt lat="44.22838110799189" lon="10.209926963839393"><ele>665.1666666666667</ele><time>2026-05-02T10:11:54.999Z</time></trkpt><trkpt lat="44.22833562867218" lon="10.209834100602881"><ele>661.0</ele><time>2026-05-02T10:11:55.999Z</time></trkpt><trkpt lat="44.22827803614451" lon="10.209755099466399"><ele>658.5</ele><time>2026-05-02T10:11:56.999Z</time></trkpt><trkpt lat="44.22822873564593" lon="10.209671457024571"><ele>656.0</ele><time>2026-05-02T10:11:57.999Z</time></trkpt><trkpt lat="44.22816353508919" lon="10.209606639417691"><ele>653.5</ele><time>2026-05-02T10:11:58.999Z</time></trkpt><trkpt lat="44.228093943146405" lon="10.209560207140461"><ele>651.0</ele><time>2026-05-02T10:11:59.999Z</time></trkpt><trkpt lat="44.2280248359204" lon="10.209517964918925"><ele>648.5</ele><time>2026-05-02T10:12:00.999Z</time></trkpt><trkpt lat="44.22795119266985" lon="10.20947163565306"><ele>646.0</ele><time>2026-05-02T10:12:01.999Z</time></trkpt><trkpt lat="44.22787557433438" lon="10.209431017353882"><ele>646.0</ele><time>2026-05-02T10:12:02.999Z</time></trkpt><trkpt lat="44.22778890951292" lon="10.209413665988189"><ele>646.0</ele><time>2026-05-02T10:12:03.999Z</time></trkpt><trkpt lat="44.227690386780424" lon="10.209409998612724"><ele>646.0</ele><time>2026-05-02T10:12:04.999Z</time></trkpt><trkpt lat="44.22758269731226" lon="10.209397175781655"><ele>646.0</ele><time>2026-05-02T10:12:05.999Z</time></trkpt><trkpt lat="44.22748704677411" lon="10.209347754967855"><ele>646.0</ele><time>2026-05-02T10:12:06.999Z</time></trkpt><trkpt lat="44.22740126621234" lon="10.209304691537946"><ele>646.0</ele><time>2026-05-02T10:12:07.999Z</time></trkpt><trkpt lat="44.22732713977771" lon="10.209301806746435"><ele>646.0</ele><time>2026-05-02T10:12:08.999Z</time></trkpt><trkpt lat="44.22725120031368" lon="10.209283763230745"><ele>646.0</ele><time>2026-05-02T10:12:09.999Z</time></trkpt><trkpt lat="44.22718620804694" lon="10.209274973997774"><ele>646.0</ele><time>2026-05-02T10:12:10.999Z</time></trkpt><trkpt lat="44.227103419514194" lon="10.209264284988079"><ele>646.0</ele><time>2026-05-02T10:12:12.999Z</time></trkpt><trkpt lat="44.22701661091563" lon="10.20922725069316"><ele>646.0</ele><time>2026-05-02T10:12:17.999Z</time></trkpt><trkpt lat="44.22693500782204" lon="10.209209846706534"><ele>646.0</ele><time>2026-05-02T10:12:31.999Z</time></trkpt><trkpt lat="44.226952143009676" lon="10.209348546651052"><ele>646.0</ele><time>2026-05-02T10:12:37.999Z</time></trkpt><trkpt lat="44.22703821310838" lon="10.209381929141594"><ele>646.0</ele><time>2026-05-02T10:12:38.999Z</time></trkpt><trkpt lat="44.22714382391594" lon="10.209428305462723"><ele>646.0</ele><time>2026-05-02T10:12:39.999Z</time></trkpt><trkpt lat="44.2272291112592" lon="10.209490112160701"><ele>646.0</ele><time>2026-05-02T10:12:40.999Z</time></trkpt><trkpt lat="44.227338099092464" lon="10.209556498801257"><ele>646.0</ele><time>2026-05-02T10:12:42.999Z</time></trkpt><trkpt lat="44.22740110456893" lon="10.209594082021162"><ele>646.0</ele><time>2026-05-02T10:12:43.999Z</time></trkpt><trkpt lat="44.22748691770331" lon="10.209640344866678"><ele>646.0</ele><time>2026-05-02T10:12:45.999Z</time></trkpt><trkpt lat="44.22754902724238" lon="10.209691771217276"><ele>646.0</ele><time>2026-05-02T10:12:47.999Z</time></trkpt><trkpt lat="44.2276657751913" lon="10.209682583766307"><ele>646.0</ele><time>2026-05-02T10:12:49.999Z</time></trkpt><trkpt lat="44.227726376171844" lon="10.209707488567258"><ele>646.0</ele><time>2026-05-02T10:12:50.999Z</time></trkpt><trkpt lat="44.22780004846747" lon="10.209796487504839"><ele>652.25</ele><time>2026-05-02T10:12:52.999Z</time></trkpt><trkpt lat="44.22788705936888" lon="10.209910453004479"><ele>658.5</ele><time>2026-05-02T10:12:54.999Z</time></trkpt><trkpt lat="44.227959433475085" lon="10.21003817200628"><ele>664.75</ele><time>2026-05-02T10:12:56.999Z</time></trkpt><trkpt lat="44.2280406078688" lon="10.210169859665776"><ele>671.0</ele><time>2026-05-02T10:12:58.999Z</time></trkpt><trkpt lat="44.228102746296905" lon="10.210316238190034"><ele>669.0</ele><time>2026-05-02T10:13:00.999Z</time></trkpt><trkpt lat="44.2281522340396" lon="10.210418342801576"><ele>667.0</ele><time>2026-05-02T10:13:02.999Z</time></trkpt><trkpt lat="44.228169595412844" lon="10.210580701462835"><ele>665.0</ele><time>2026-05-02T10:13:04.999Z</time></trkpt><trkpt lat="44.22816076231512" lon="10.210706157001642"><ele>663.0</ele><time>2026-05-02T10:13:06.999Z</time></trkpt><trkpt lat="44.228114475832406" lon="10.210823140350062"><ele>661.0</ele><time>2026-05-02T10:13:08.999Z</time></trkpt><trkpt lat="44.22803505327413" lon="10.210850059710003"><ele>666.4</ele><time>2026-05-02T10:13:10.999Z</time></trkpt><trkpt lat="44.22792959763886" lon="10.210906465897802"><ele>671.8</ele><time>2026-05-02T10:13:12.999Z</time></trkpt><trkpt lat="44.227848402700275" lon="10.210982780129632"><ele>677.1999999999999</ele><time>2026-05-02T10:13:14.999Z</time></trkpt><trkpt lat="44.22778421207232" lon="10.211025037217896"><ele>682.5999999999999</ele><time>2026-05-02T10:13:15.999Z</time></trkpt><trkpt lat="44.227687821674685" lon="10.2111304776809"><ele>688.0</ele><time>2026-05-02T10:13:17.999Z</time></trkpt><trkpt lat="44.22760260125857" lon="10.211255176373863"><ele>688.0</ele><time>2026-05-02T10:13:19.999Z</time></trkpt><trkpt lat="44.227549664968556" lon="10.211334657134898"><ele>688.0</ele><time>2026-05-02T10:13:20.999Z</time></trkpt><trkpt lat="44.227500455399316" lon="10.211398115433795"><ele>688.0</ele><time>2026-05-02T10:13:21.999Z</time></trkpt><trkpt lat="44.22744716068207" lon="10.211471319699605"><ele>688.0</ele><time>2026-05-02T10:13:22.999Z</time></trkpt><trkpt lat="44.22739785400002" lon="10.21158784942536"><ele>688.0</ele><time>2026-05-02T10:13:24.999Z</time></trkpt><trkpt lat="44.22739221829104" lon="10.211716911904405"><ele>688.0</ele><time>2026-05-02T10:13:26.999Z</time></trkpt><trkpt lat="44.2274860854177" lon="10.211793934125467"><ele>688.0</ele><time>2026-05-02T10:13:28.999Z</time></trkpt><trkpt lat="44.22754501983769" lon="10.211722827329622"><ele>688.0</ele><time>2026-05-02T10:13:29.999Z</time></trkpt><trkpt lat="44.2275705322708" lon="10.211562773403882"><ele>688.0</ele><time>2026-05-02T10:13:31.999Z</time></trkpt><trkpt lat="44.227660349366566" lon="10.211487745640524"><ele>688.0</ele><time>2026-05-02T10:13:33.999Z</time></trkpt><trkpt lat="44.227725197859506" lon="10.211498852946214"><ele>688.0</ele><time>2026-05-02T10:13:34.999Z</time></trkpt><trkpt lat="44.22779691149757" lon="10.211527553739984"><ele>688.0</ele><time>2026-05-02T10:13:35.999Z</time></trkpt><trkpt lat="44.2278644299397" lon="10.211606908233433"><ele>690.5</ele><time>2026-05-02T10:13:36.999Z</time></trkpt><trkpt lat="44.227924394506566" lon="10.21166106105629"><ele>693.0</ele><time>2026-05-02T10:13:37.999Z</time></trkpt><trkpt lat="44.22793436332644" lon="10.211793446711058"><ele>695.5</ele><time>2026-05-02T10:13:40.999Z</time></trkpt><trkpt lat="44.227916837760745" lon="10.211940839797448"><ele>698.0</ele><time>2026-05-02T10:13:42.999Z</time></trkpt><trkpt lat="44.227868326247375" lon="10.21200441228487"><ele>700.5</ele><time>2026-05-02T10:13:43.999Z</time></trkpt><trkpt lat="44.2278243531402" lon="10.212097921707219"><ele>703.0</ele><time>2026-05-02T10:13:45.999Z</time></trkpt><trkpt lat="44.227790711972126" lon="10.21221665607375"><ele>703.0</ele><time>2026-05-02T10:13:47.999Z</time></trkpt><trkpt lat="44.22781338588286" lon="10.21231691719526"><ele>703.0</ele><time>2026-05-02T10:13:49.999Z</time></trkpt><trkpt lat="44.22790761658734" lon="10.212393137267233"><ele>703.0</ele><time>2026-05-02T10:13:51.999Z</time></trkpt><trkpt lat="44.22797497696996" lon="10.212353779380534"><ele>703.0</ele><time>2026-05-02T10:13:52.999Z</time></trkpt><trkpt lat="44.22805299297064" lon="10.212268166769055"><ele>703.0</ele><time>2026-05-02T10:13:54.999Z</time></trkpt><trkpt lat="44.22813857602085" lon="10.212212858250403"><ele>705.0</ele><time>2026-05-02T10:13:56.999Z</time></trkpt><trkpt lat="44.228233625005494" lon="10.212179228804134"><ele>707.0</ele><time>2026-05-02T10:13:58.999Z</time></trkpt><trkpt lat="44.2283152291456" lon="10.212154553038781"><ele>709.0</ele><time>2026-05-02T10:14:17.999Z</time></trkpt><trkpt lat="44.228426883929394" lon="10.212129060017334"><ele>711.0</ele><time>2026-05-02T10:14:19.999Z</time></trkpt><trkpt lat="44.22854472306299" lon="10.212180676462744"><ele>713.0</ele><time>2026-05-02T10:14:21.999Z</time></trkpt><trkpt lat="44.22860989696397" lon="10.212219891628656"><ele>713.0</ele><time>2026-05-02T10:14:22.999Z</time></trkpt><trkpt lat="44.228671541610275" lon="10.21226366740794"><ele>713.0</ele><time>2026-05-02T10:14:23.999Z</time></trkpt><trkpt lat="44.22873424850636" lon="10.212320662517048"><ele>713.0</ele><time>2026-05-02T10:14:24.999Z</time></trkpt><trkpt lat="44.228778187871164" lon="10.212405526576548"><ele>713.0</ele><time>2026-05-02T10:14:25.999Z</time></trkpt><trkpt lat="44.228862525796714" lon="10.212468317128927"><ele>713.0</ele><time>2026-05-02T10:14:27.999Z</time></trkpt><trkpt lat="44.228924838670764" lon="10.212527141502308"><ele>713.0</ele><time>2026-05-02T10:14:29.999Z</time></trkpt><trkpt lat="44.2290177117653" lon="10.212565861961288"><ele>715.4</ele><time>2026-05-02T10:14:31.999Z</time></trkpt><trkpt lat="44.22909407350462" lon="10.21267825453624"><ele>717.8</ele><time>2026-05-02T10:14:33.999Z</time></trkpt><trkpt lat="44.22913992510852" lon="10.212752735959457"><ele>720.2</ele><time>2026-05-02T10:14:34.999Z</time></trkpt><trkpt lat="44.22919242591234" lon="10.212877021143218"><ele>722.6</ele><time>2026-05-02T10:14:36.999Z</time></trkpt><trkpt lat="44.22913855220571" lon="10.21276843479974"><ele>725.0</ele><time>2026-05-02T10:14:42.999Z</time></trkpt><trkpt lat="44.22906059427394" lon="10.212659882194757"><ele>728.2</ele><time>2026-05-02T10:14:44.999Z</time></trkpt><trkpt lat="44.22896604167503" lon="10.21268936545527"><ele>731.4</ele><time>2026-05-02T10:14:45.999Z</time></trkpt><trkpt lat="44.22881822012976" lon="10.212615716594325"><ele>734.5999999999999</ele><time>2026-05-02T10:14:47.999Z</time></trkpt><trkpt lat="44.22870786594833" lon="10.212586548634347"><ele>737.8</ele><time>2026-05-02T10:14:48.999Z</time></trkpt><trkpt lat="44.228643027992526" lon="10.212550275918316"><ele>741.0</ele><time>2026-05-02T10:14:49.998Z</time></trkpt><trkpt lat="44.228536294793855" lon="10.212564259040137"><ele>741.0</ele><time>2026-05-02T10:14:51.999Z</time></trkpt><trkpt lat="44.22846971157322" lon="10.212599466252428"><ele>741.0</ele><time>2026-05-02T10:14:52.999Z</time></trkpt><trkpt lat="44.228408221036936" lon="10.212651736088404"><ele>741.0</ele><time>2026-05-02T10:14:53.999Z</time></trkpt><trkpt lat="44.22834918651403" lon="10.212699683039444"><ele>741.0</ele><time>2026-05-02T10:14:54.999Z</time></trkpt><trkpt lat="44.228291290002936" lon="10.212756673718985"><ele>741.0</ele><time>2026-05-02T10:14:55.999Z</time></trkpt><trkpt lat="44.2282162391895" lon="10.212855797752175"><ele>741.0</ele><time>2026-05-02T10:14:57.999Z</time></trkpt><trkpt lat="44.228139210926216" lon="10.212973253624833"><ele>741.0</ele><time>2026-05-02T10:14:59.999Z</time></trkpt><trkpt lat="44.22806250324122" lon="10.213102818157264"><ele>741.0</ele><time>2026-05-02T10:15:01.999Z</time></trkpt><trkpt lat="44.228035987884354" lon="10.21318405685843"><ele>741.0</ele><time>2026-05-02T10:15:02.999Z</time></trkpt><trkpt lat="44.2279175009205" lon="10.213237706878946"><ele>741.0</ele><time>2026-05-02T10:15:04.999Z</time></trkpt><trkpt lat="44.22786343753674" lon="10.213346056483697"><ele>741.0</ele><time>2026-05-02T10:15:06.999Z</time></trkpt><trkpt lat="44.22779615018621" lon="10.213443711513367"><ele>741.0</ele><time>2026-05-02T10:15:08.999Z</time></trkpt><trkpt lat="44.22776486890002" lon="10.21352931860636"><ele>741.0</ele><time>2026-05-02T10:15:09.999Z</time></trkpt><trkpt lat="44.227719248123925" lon="10.213598272487108"><ele>741.0</ele><time>2026-05-02T10:15:10.999Z</time></trkpt><trkpt lat="44.22763511986341" lon="10.213707987809183"><ele>741.0</ele><time>2026-05-02T10:15:12.999Z</time></trkpt><trkpt lat="44.227567384811756" lon="10.213821339775308"><ele>741.0</ele><time>2026-05-02T10:15:14.999Z</time></trkpt><trkpt lat="44.22754927876895" lon="10.213942217259712"><ele>741.0</ele><time>2026-05-02T10:15:16.999Z</time></trkpt><trkpt lat="44.22760858321031" lon="10.214028286979866"><ele>741.0</ele><time>2026-05-02T10:15:18.999Z</time></trkpt><trkpt lat="44.22768174178126" lon="10.213966697949171"><ele>741.0</ele><time>2026-05-02T10:15:20.999Z</time></trkpt><trkpt lat="44.22773845428225" lon="10.213852154010057"><ele>741.0</ele><time>2026-05-02T10:15:22.999Z</time></trkpt><trkpt lat="44.22777963182446" lon="10.213782341383142"><ele>741.0</ele><time>2026-05-02T10:15:23.999Z</time></trkpt><trkpt lat="44.227874940422204" lon="10.213689357904254"><ele>741.0</ele><time>2026-05-02T10:15:25.999Z</time></trkpt><trkpt lat="44.22794955999653" lon="10.213657532108702"><ele>741.0</ele><time>2026-05-02T10:15:26.999Z</time></trkpt><trkpt lat="44.22803552826423" lon="10.213622066534649"><ele>741.0</ele><time>2026-05-02T10:15:27.999Z</time></trkpt><trkpt lat="44.22810490952484" lon="10.213581803097082"><ele>741.0</ele><time>2026-05-02T10:15:28.999Z</time></trkpt><trkpt lat="44.22816922110164" lon="10.213555134500144"><ele>741.0</ele><time>2026-05-02T10:15:29.999Z</time></trkpt><trkpt lat="44.22822544969223" lon="10.213502875354182"><ele>741.0</ele><time>2026-05-02T10:15:30.999Z</time></trkpt><trkpt lat="44.22830803744905" lon="10.213403214856854"><ele>741.0</ele><time>2026-05-02T10:15:32.999Z</time></trkpt><trkpt lat="44.22835358554719" lon="10.213492839394895"><ele>741.0</ele><time>2026-05-02T10:15:35.999Z</time></trkpt><trkpt lat="44.228290738463095" lon="10.213539602608185"><ele>741.0</ele><time>2026-05-02T10:15:37.999Z</time></trkpt><trkpt lat="44.228226900333404" lon="10.213611651957748"><ele>741.0</ele><time>2026-05-02T10:15:39.999Z</time></trkpt><trkpt lat="44.228169402979304" lon="10.213745995658599"><ele>741.0</ele><time>2026-05-02T10:15:41.999Z</time></trkpt><trkpt lat="44.22814935473163" lon="10.213853578761944"><ele>741.0</ele><time>2026-05-02T10:15:42.999Z</time></trkpt><trkpt lat="44.22813131246293" lon="10.2139638384563"><ele>741.0</ele><time>2026-05-02T10:15:43.999Z</time></trkpt><trkpt lat="44.22810629527842" lon="10.21407109171431"><ele>741.0</ele><time>2026-05-02T10:15:44.999Z</time></trkpt><trkpt lat="44.22808751009876" lon="10.214172372589188"><ele>742.8571428571428</ele><time>2026-05-02T10:15:45.999Z</time></trkpt><trkpt lat="44.22806604484325" lon="10.214261847273036"><ele>744.7142857142858</ele><time>2026-05-02T10:15:46.999Z</time></trkpt><trkpt lat="44.22804472598991" lon="10.214348578847138"><ele>746.5714285714286</ele><time>2026-05-02T10:15:47.999Z</time></trkpt><trkpt lat="44.2280237826585" lon="10.214450790460909"><ele>748.4285714285713</ele><time>2026-05-02T10:15:48.999Z</time></trkpt><trkpt lat="44.22799937559669" lon="10.214550862969066"><ele>750.2857142857142</ele><time>2026-05-02T10:15:49.999Z</time></trkpt><trkpt lat="44.227969896827176" lon="10.214655987554961"><ele>752.1428571428571</ele><time>2026-05-02T10:15:50.999Z</time></trkpt><trkpt lat="44.22794230589856" lon="10.214740997750743"><ele>754.0</ele><time>2026-05-02T10:15:51.999Z</time></trkpt><trkpt lat="44.227904548366105" lon="10.214820029158908"><ele>757.0</ele><time>2026-05-02T10:15:52.999Z</time></trkpt><trkpt lat="44.22786156301419" lon="10.2148855546477"><ele>760.0</ele><time>2026-05-02T10:15:53.999Z</time></trkpt><trkpt lat="44.2278465699227" lon="10.215038894427385"><ele>763.0</ele><time>2026-05-02T10:15:55.999Z</time></trkpt><trkpt lat="44.22785192072544" lon="10.215130518103232"><ele>766.0</ele><time>2026-05-02T10:15:56.999Z</time></trkpt><trkpt lat="44.22788553290473" lon="10.215266407829647"><ele>768.9999999999999</ele><time>2026-05-02T10:15:58.999Z</time></trkpt><trkpt lat="44.227977362265136" lon="10.215321507956563"><ele>772.0</ele><time>2026-05-02T10:16:01.999Z</time></trkpt><trkpt lat="44.22803340689288" lon="10.215235897527787"><ele>771.9999999999999</ele><time>2026-05-02T10:16:03.999Z</time></trkpt><trkpt lat="44.22802814004422" lon="10.215068818620225"><ele>772.0</ele><time>2026-05-02T10:16:05.999Z</time></trkpt><trkpt lat="44.22810767866471" lon="10.214972657788612"><ele>772.0</ele><time>2026-05-02T10:16:07.999Z</time></trkpt><trkpt lat="44.2281613269871" lon="10.214922154998707"><ele>772.0</ele><time>2026-05-02T10:16:08.999Z</time></trkpt><trkpt lat="44.22821896445959" lon="10.214877341491936"><ele>771.9999999999999</ele><time>2026-05-02T10:16:09.999Z</time></trkpt><trkpt lat="44.22827854077147" lon="10.214840290293743"><ele>772.0</ele><time>2026-05-02T10:16:10.999Z</time></trkpt><trkpt lat="44.22833785479636" lon="10.21479224405497"><ele>774.8</ele><time>2026-05-02T10:16:11.999Z</time></trkpt><trkpt lat="44.228417475186006" lon="10.214677192874543"><ele>777.6</ele><time>2026-05-02T10:16:13.999Z</time></trkpt><trkpt lat="44.22849272043903" lon="10.21456154833168"><ele>780.4</ele><time>2026-05-02T10:16:15.999Z</time></trkpt><trkpt lat="44.228538130614986" lon="10.214490876093114"><ele>783.1999999999999</ele><time>2026-05-02T10:16:16.999Z</time></trkpt><trkpt lat="44.22863064724763" lon="10.214400635076075"><ele>786.0</ele><time>2026-05-02T10:16:18.999Z</time></trkpt><trkpt lat="44.22871120464368" lon="10.214311969337905"><ele>786.0</ele><time>2026-05-02T10:16:20.999Z</time></trkpt><trkpt lat="44.22877089103294" lon="10.21427690646486"><ele>786.0</ele><time>2026-05-02T10:16:22.999Z</time></trkpt><trkpt lat="44.228819773172916" lon="10.214364699210204"><ele>786.0</ele><time>2026-05-02T10:16:24.999Z</time></trkpt><trkpt lat="44.228754206909784" lon="10.21442826442598"><ele>786.0</ele><time>2026-05-02T10:16:27.999Z</time></trkpt><trkpt lat="44.2286845315193" lon="10.21448783353312"><ele>786.0</ele><time>2026-05-02T10:16:29.999Z</time></trkpt><trkpt lat="44.228631344833296" lon="10.214560584377526"><ele>786.0</ele><time>2026-05-02T10:16:31.999Z</time></trkpt><trkpt lat="44.22860458566127" lon="10.214666210339582"><ele>786.0</ele><time>2026-05-02T10:16:33.999Z</time></trkpt><trkpt lat="44.2285393637682" lon="10.214798456622844"><ele>786.0</ele><time>2026-05-02T10:16:35.999Z</time></trkpt><trkpt lat="44.22847476564806" lon="10.214945815259718"><ele>786.0</ele><time>2026-05-02T10:16:37.999Z</time></trkpt><trkpt lat="44.228435416560295" lon="10.215074946822641"><ele>786.0</ele><time>2026-05-02T10:16:39.999Z</time></trkpt><trkpt lat="44.22838744279539" lon="10.21522044244363"><ele>788.8</ele><time>2026-05-02T10:16:41.999Z</time></trkpt><trkpt lat="44.2283676890747" lon="10.215356727737491"><ele>791.5999999999999</ele><time>2026-05-02T10:16:43.999Z</time></trkpt><trkpt lat="44.2283643980365" lon="10.215500171138803"><ele>794.4</ele><time>2026-05-02T10:16:45.999Z</time></trkpt><trkpt lat="44.2283721398176" lon="10.215656537426222"><ele>797.2</ele><time>2026-05-02T10:16:47.999Z</time></trkpt><trkpt lat="44.22835347888584" lon="10.215784833747103"><ele>800.0</ele><time>2026-05-02T10:16:49.999Z</time></trkpt><trkpt lat="44.22835124079873" lon="10.215909728822643"><ele>803.0000000000001</ele><time>2026-05-02T10:16:51.999Z</time></trkpt><trkpt lat="44.228350047222094" lon="10.216001236279952"><ele>806.0</ele><time>2026-05-02T10:16:52.999Z</time></trkpt><trkpt lat="44.22832172331172" lon="10.216140232460756"><ele>809.0</ele><time>2026-05-02T10:16:54.999Z</time></trkpt><trkpt lat="44.22833850905636" lon="10.216229655114166"><ele>812.0</ele><time>2026-05-02T10:16:57.999Z</time></trkpt><trkpt lat="44.22840537336903" lon="10.216267437197695"><ele>815.0000000000001</ele><time>2026-05-02T10:16:59.999Z</time></trkpt><trkpt lat="44.22844824646978" lon="10.216192893155272"><ele>818.0</ele><time>2026-05-02T10:17:00.999Z</time></trkpt><trkpt lat="44.22844471698738" lon="10.216073429058929"><ele>818.0000000000001</ele><time>2026-05-02T10:17:01.999Z</time></trkpt><trkpt lat="44.228469230562" lon="10.215980176559338"><ele>818.0</ele><time>2026-05-02T10:17:02.999Z</time></trkpt><trkpt lat="44.228501785185685" lon="10.215844879510605"><ele>818.0</ele><time>2026-05-02T10:17:04.999Z</time></trkpt><trkpt lat="44.22853836650136" lon="10.215702088916265"><ele>818.0</ele><time>2026-05-02T10:17:06.999Z</time></trkpt><trkpt lat="44.22858879096089" lon="10.215590736807364"><ele>818.0000000000001</ele><time>2026-05-02T10:17:09Z</time></trkpt><trkpt lat="44.22861583924428" lon="10.215509091368244"><ele>818.0</ele><time>2026-05-02T10:17:10Z</time></trkpt><trkpt lat="44.22869925039299" lon="10.215407263393915"><ele>818.0</ele><time>2026-05-02T10:17:12Z</time></trkpt><trkpt lat="44.228758264880476" lon="10.215331302882573"><ele>818.0</ele><time>2026-05-02T10:17:14Z</time></trkpt><trkpt lat="44.228833867093755" lon="10.215377618186608"><ele>818.0</ele><time>2026-05-02T10:17:16Z</time></trkpt><trkpt lat="44.22880548379978" lon="10.215512952267972"><ele>818.0</ele><time>2026-05-02T10:17:18Z</time></trkpt><trkpt lat="44.22874083481567" lon="10.215629787902209"><ele>818.0</ele><time>2026-05-02T10:17:20Z</time></trkpt><trkpt lat="44.228688113369884" lon="10.215737522865686"><ele>818.0</ele><time>2026-05-02T10:17:22Z</time></trkpt><trkpt lat="44.228665811261386" lon="10.215867979483637"><ele>818.0</ele><time>2026-05-02T10:17:24Z</time></trkpt><trkpt lat="44.22865473666218" lon="10.216013053804557"><ele>818.0</ele><time>2026-05-02T10:17:26Z</time></trkpt><trkpt lat="44.22863672198457" lon="10.216168889578723"><ele>818.0</ele><time>2026-05-02T10:17:28Z</time></trkpt><trkpt lat="44.22861525540705" lon="10.21634606190581"><ele>818.0</ele><time>2026-05-02T10:17:30Z</time></trkpt><trkpt lat="44.22859424952563" lon="10.216444636793476"><ele>821.1428571428571</ele><time>2026-05-02T10:17:31Z</time></trkpt><trkpt lat="44.22857476921425" lon="10.216533352078708"><ele>824.2857142857143</ele><time>2026-05-02T10:17:31.999Z</time></trkpt><trkpt lat="44.22855263670139" lon="10.21662524621175"><ele>827.4285714285714</ele><time>2026-05-02T10:17:32.999Z</time></trkpt><trkpt lat="44.2285348065916" lon="10.216716972403262"><ele>830.5714285714286</ele><time>2026-05-02T10:17:33.999Z</time></trkpt><trkpt lat="44.22851291927763" lon="10.216806525650808"><ele>833.7142857142858</ele><time>2026-05-02T10:17:34.999Z</time></trkpt><trkpt lat="44.228493756800596" lon="10.216908089517151"><ele>836.8571428571429</ele><time>2026-05-02T10:17:35.999Z</time></trkpt><trkpt lat="44.228457025311556" lon="10.216980940020916"><ele>840.0</ele><time>2026-05-02T10:17:36.999Z</time></trkpt><trkpt lat="44.22843367739232" lon="10.217143701266929"><ele>840.0</ele><time>2026-05-02T10:17:38.999Z</time></trkpt><trkpt lat="44.22841646149372" lon="10.217238018210683"><ele>840.0</ele><time>2026-05-02T10:17:39.999Z</time></trkpt><trkpt lat="44.22840986963536" lon="10.217328285294386"><ele>840.0</ele><time>2026-05-02T10:17:40.999Z</time></trkpt><trkpt lat="44.2284257043884" lon="10.217512430765026"><ele>840.0</ele><time>2026-05-02T10:17:42.999Z</time></trkpt><trkpt lat="44.22841196292639" lon="10.217601970992476"><ele>840.0</ele><time>2026-05-02T10:17:43.999Z</time></trkpt><trkpt lat="44.228417117050455" lon="10.217763300265586"><ele>840.0</ele><time>2026-05-02T10:17:45.999Z</time></trkpt><trkpt lat="44.22842952955408" lon="10.217921806544298"><ele>843.8333333333334</ele><time>2026-05-02T10:17:47.999Z</time></trkpt><trkpt lat="44.228434556171635" lon="10.218022561267889"><ele>847.6666666666667</ele><time>2026-05-02T10:17:48.999Z</time></trkpt><trkpt lat="44.22844013773166" lon="10.218132934472624"><ele>851.5</ele><time>2026-05-02T10:17:49.999Z</time></trkpt><trkpt lat="44.22845245797701" lon="10.218261507479903"><ele>855.3333333333334</ele><time>2026-05-02T10:17:50.999Z</time></trkpt><trkpt lat="44.228460202231176" lon="10.21836558379218"><ele>859.1666666666667</ele><time>2026-05-02T10:17:51.999Z</time></trkpt><trkpt lat="44.228480779477884" lon="10.218537562406434"><ele>863.0</ele><time>2026-05-02T10:17:53.999Z</time></trkpt><trkpt lat="44.228487294614965" lon="10.218633647081855"><ele>866.3333333333334</ele><time>2026-05-02T10:17:54.999Z</time></trkpt><trkpt lat="44.22849544784961" lon="10.218720987107488"><ele>869.6666666666667</ele><time>2026-05-02T10:17:55.999Z</time></trkpt><trkpt lat="44.228476388900454" lon="10.218839212826927"><ele>873.0</ele><time>2026-05-02T10:17:56.999Z</time></trkpt><trkpt lat="44.22844410926258" lon="10.218963646158517"><ele>876.3333333333333</ele><time>2026-05-02T10:17:58.999Z</time></trkpt><trkpt lat="44.22836467477179" lon="10.219058133564653"><ele>879.6666666666666</ele><time>2026-05-02T10:18:00.999Z</time></trkpt><trkpt lat="44.22830039455985" lon="10.219063831166515"><ele>883.0</ele><time>2026-05-02T10:18:01.999Z</time></trkpt><trkpt lat="44.228214371590994" lon="10.218984219781355"><ele>883.0</ele><time>2026-05-02T10:18:03.999Z</time></trkpt><trkpt lat="44.22823163511862" lon="10.2188249076703"><ele>883.0</ele><time>2026-05-02T10:18:05.999Z</time></trkpt><trkpt lat="44.22821592831591" lon="10.218727385033386"><ele>883.0</ele><time>2026-05-02T10:18:06.999Z</time></trkpt><trkpt lat="44.22817517580212" lon="10.218614603388803"><ele>883.0</ele><time>2026-05-02T10:18:08.999Z</time></trkpt><trkpt lat="44.22810270623287" lon="10.218573261222467"><ele>883.0</ele><time>2026-05-02T10:18:09.999Z</time></trkpt><trkpt lat="44.22803263039543" lon="10.218473475574438"><ele>887.0</ele><time>2026-05-02T10:18:10.999Z</time></trkpt><trkpt lat="44.22795878975178" lon="10.218375962129373"><ele>891.0</ele><time>2026-05-02T10:18:11.999Z</time></trkpt><trkpt lat="44.22788015673887" lon="10.218343345316486"><ele>895.0</ele><time>2026-05-02T10:18:12.999Z</time></trkpt><trkpt lat="44.22777303137815" lon="10.218302976050191"><ele>899.0</ele><time>2026-05-02T10:18:14.999Z</time></trkpt><trkpt lat="44.22770427606328" lon="10.218298857980463"><ele>903.0</ele><time>2026-05-02T10:18:15.999Z</time></trkpt><trkpt lat="44.22761435717784" lon="10.218297095287094"><ele>903.0</ele><time>2026-05-02T10:18:16.999Z</time></trkpt><trkpt lat="44.227534204194264" lon="10.218279220699868"><ele>903.0</ele><time>2026-05-02T10:18:17.999Z</time></trkpt><trkpt lat="44.22745627350257" lon="10.218296657137035"><ele>903.0</ele><time>2026-05-02T10:18:18.999Z</time></trkpt><trkpt lat="44.22736879506106" lon="10.21829065045636"><ele>903.0</ele><time>2026-05-02T10:18:19.999Z</time></trkpt><trkpt lat="44.22729275636473" lon="10.21827758289954"><ele>903.0</ele><time>2026-05-02T10:18:20.999Z</time></trkpt><trkpt lat="44.22720329452902" lon="10.218250276016903"><ele>903.0</ele><time>2026-05-02T10:18:21.999Z</time></trkpt><trkpt lat="44.22712225002662" lon="10.218218424358328"><ele>904.3333333333334</ele><time>2026-05-02T10:18:22.999Z</time></trkpt><trkpt lat="44.22705432922346" lon="10.218192367946441"><ele>905.6666666666667</ele><time>2026-05-02T10:18:23.999Z</time></trkpt><trkpt lat="44.2269770090082" lon="10.218164426457657"><ele>907.0</ele><time>2026-05-02T10:18:24.999Z</time></trkpt><trkpt lat="44.226903246417336" lon="10.218139642257915"><ele>908.3333333333334</ele><time>2026-05-02T10:18:25.999Z</time></trkpt><trkpt lat="44.22683081918346" lon="10.218119543318288"><ele>909.6666666666667</ele><time>2026-05-02T10:18:26.999Z</time></trkpt><trkpt lat="44.2267212158647" lon="10.218090130595622"><ele>911.0</ele><time>2026-05-02T10:18:28.999Z</time></trkpt><trkpt lat="44.22664192694424" lon="10.218069965783329"><ele>907.6666666666667</ele><time>2026-05-02T10:18:29.999Z</time></trkpt><trkpt lat="44.226558326996965" lon="10.218049680052072"><ele>904.3333333333334</ele><time>2026-05-02T10:18:30.999Z</time></trkpt><trkpt lat="44.2264901954294" lon="10.218031048891913"><ele>901.0</ele><time>2026-05-02T10:18:31.999Z</time></trkpt><trkpt lat="44.22642716137476" lon="10.218013450376933"><ele>897.6666666666667</ele><time>2026-05-02T10:18:32.999Z</time></trkpt><trkpt lat="44.22630458099122" lon="10.217998097079075"><ele>894.3333333333334</ele><time>2026-05-02T10:18:34.999Z</time></trkpt><trkpt lat="44.22623705094199" lon="10.217998623757948"><ele>891.0</ele><time>2026-05-02T10:18:35.999Z</time></trkpt><trkpt lat="44.22616519183072" lon="10.218013385314963"><ele>892.0</ele><time>2026-05-02T10:18:36.999Z</time></trkpt><trkpt lat="44.22608494025481" lon="10.2180243677207"><ele>893.0</ele><time>2026-05-02T10:18:37.999Z</time></trkpt><trkpt lat="44.22600607347065" lon="10.21804507848558"><ele>894.0</ele><time>2026-05-02T10:18:38.999Z</time></trkpt><trkpt lat="44.22594785353945" lon="10.218096712766465"><ele>895.0</ele><time>2026-05-02T10:18:39.999Z</time></trkpt><trkpt lat="44.22587785152891" lon="10.218147301629388"><ele>895.9999999999999</ele><time>2026-05-02T10:18:40.999Z</time></trkpt><trkpt lat="44.22580890829259" lon="10.218169091869827"><ele>897.0</ele><time>2026-05-02T10:18:41.999Z</time></trkpt><trkpt lat="44.225754810211775" lon="10.21822825772026"><ele>898.0</ele><time>2026-05-02T10:18:42.999Z</time></trkpt><trkpt lat="44.2256882095824" lon="10.218334553453774"><ele>898.0</ele><time>2026-05-02T10:18:44.999Z</time></trkpt><trkpt lat="44.22570048326641" lon="10.218454982551323"><ele>898.0</ele><time>2026-05-02T10:18:46.999Z</time></trkpt><trkpt lat="44.22577052102209" lon="10.218606610794948"><ele>898.0</ele><time>2026-05-02T10:18:48.999Z</time></trkpt><trkpt lat="44.225821994455195" lon="10.218761280897358"><ele>898.0</ele><time>2026-05-02T10:18:50.999Z</time></trkpt><trkpt lat="44.22588009454178" lon="10.218891840515445"><ele>898.0</ele><time>2026-05-02T10:18:52.999Z</time></trkpt><trkpt lat="44.22587344836066" lon="10.219065655097836"><ele>898.8333333333333</ele><time>2026-05-02T10:18:54.999Z</time></trkpt><trkpt lat="44.225846791147056" lon="10.219157282174848"><ele>899.6666666666666</ele><time>2026-05-02T10:18:55.999Z</time></trkpt><trkpt lat="44.2258208412174" lon="10.21925259370314"><ele>900.5</ele><time>2026-05-02T10:18:56.999Z</time></trkpt><trkpt lat="44.22579188395563" lon="10.219339485770238"><ele>901.3333333333333</ele><time>2026-05-02T10:18:57.999Z</time></trkpt><trkpt lat="44.22575226888117" lon="10.219426222175382"><ele>902.1666666666666</ele><time>2026-05-02T10:18:58.999Z</time></trkpt><trkpt lat="44.22569984054383" lon="10.219524280029123"><ele>903.0</ele><time>2026-05-02T10:18:59.999Z</time></trkpt><trkpt lat="44.22564445872705" lon="10.219637916772234"><ele>900.5999999999999</ele><time>2026-05-02T10:19:00.999Z</time></trkpt><trkpt lat="44.225577173889604" lon="10.219745952196297"><ele>898.1999999999999</ele><time>2026-05-02T10:19:01.999Z</time></trkpt><trkpt lat="44.22550750155812" lon="10.219854591694903"><ele>895.8</ele><time>2026-05-02T10:19:02.999Z</time></trkpt><trkpt lat="44.225429064862354" lon="10.219961886090747"><ele>893.4</ele><time>2026-05-02T10:19:04Z</time></trkpt><trkpt lat="44.225365004888566" lon="10.22009557522767"><ele>891.0</ele><time>2026-05-02T10:19:05Z</time></trkpt><trkpt lat="44.225268921645046" lon="10.220219042740109"><ele>891.0</ele><time>2026-05-02T10:19:06Z</time></trkpt><trkpt lat="44.22517294990864" lon="10.220340539995965"><ele>890.9999999999999</ele><time>2026-05-02T10:19:07Z</time></trkpt><trkpt lat="44.22509179650977" lon="10.220428906071367"><ele>890.9999999999999</ele><time>2026-05-02T10:19:08Z</time></trkpt><trkpt lat="44.22500618851033" lon="10.220507517304634"><ele>891.0</ele><time>2026-05-02T10:19:09Z</time></trkpt><trkpt lat="44.22492844553187" lon="10.220592970953149"><ele>891.0</ele><time>2026-05-02T10:19:10Z</time></trkpt><trkpt lat="44.224851931737156" lon="10.220673584353436"><ele>892.3333333333334</ele><time>2026-05-02T10:19:11Z</time></trkpt><trkpt lat="44.22479338614344" lon="10.220740535846629"><ele>893.6666666666667</ele><time>2026-05-02T10:19:12Z</time></trkpt><trkpt lat="44.22474315077312" lon="10.220807212558558"><ele>895.0</ele><time>2026-05-02T10:19:13Z</time></trkpt><trkpt lat="44.22469391707566" lon="10.220895054906665"><ele>896.3333333333334</ele><time>2026-05-02T10:19:14Z</time></trkpt><trkpt lat="44.22464932954806" lon="10.22100404518455"><ele>897.6666666666667</ele><time>2026-05-02T10:19:15Z</time></trkpt><trkpt lat="44.224612622185624" lon="10.2211232584467"><ele>899.0</ele><time>2026-05-02T10:19:16Z</time></trkpt><trkpt lat="44.2245898413411" lon="10.221205353259345"><ele>899.0000000000001</ele><time>2026-05-02T10:19:17Z</time></trkpt><trkpt lat="44.224579891968936" lon="10.221345615503093"><ele>899.0</ele><time>2026-05-02T10:19:19Z</time></trkpt><trkpt lat="44.224619188278005" lon="10.221503554038101"><ele>899.0</ele><time>2026-05-02T10:19:21Z</time></trkpt><trkpt lat="44.224656607204146" lon="10.221585086135828"><ele>899.0</ele><time>2026-05-02T10:19:22Z</time></trkpt><trkpt lat="44.22470894335243" lon="10.221671426548586"><ele>899.0000000000001</ele><time>2026-05-02T10:19:23Z</time></trkpt><trkpt lat="44.22475697677805" lon="10.221755981548641"><ele>899.0</ele><time>2026-05-02T10:19:24Z</time></trkpt><trkpt lat="44.2247972735986" lon="10.22182940693659"><ele>902.8000000000001</ele><time>2026-05-02T10:19:25Z</time></trkpt><trkpt lat="44.22483982862976" lon="10.221906420980243"><ele>906.6000000000001</ele><time>2026-05-02T10:19:26Z</time></trkpt><trkpt lat="44.22491207732431" lon="10.222052641885183"><ele>910.4</ele><time>2026-05-02T10:19:28Z</time></trkpt><trkpt lat="44.224967879600776" lon="10.222202799712393"><ele>914.2</ele><time>2026-05-02T10:19:30Z</time></trkpt><trkpt lat="44.2249749672062" lon="10.222297550154988"><ele>918.0</ele><time>2026-05-02T10:19:31Z</time></trkpt><trkpt lat="44.22496906374665" lon="10.222404007401241"><ele>918.0</ele><time>2026-05-02T10:19:32Z</time></trkpt><trkpt lat="44.22495617216742" lon="10.222497677803688"><ele>918.0</ele><time>2026-05-02T10:19:33Z</time></trkpt><trkpt lat="44.22493253908603" lon="10.222590168201751"><ele>918.0</ele><time>2026-05-02T10:19:34Z</time></trkpt><trkpt lat="44.22493638810675" lon="10.222702522942045"><ele>918.0</ele><time>2026-05-02T10:19:35Z</time></trkpt><trkpt lat="44.22492981882363" lon="10.222799190594506"><ele>918.0</ele><time>2026-05-02T10:19:36Z</time></trkpt><trkpt lat="44.22493832590954" lon="10.22289558440077"><ele>918.0</ele><time>2026-05-02T10:19:37Z</time></trkpt><trkpt lat="44.22499161238345" lon="10.223045051755191"><ele>918.8</ele><time>2026-05-02T10:19:39Z</time></trkpt><trkpt lat="44.22498091719099" lon="10.223181811188274"><ele>919.5999999999999</ele><time>2026-05-02T10:19:41Z</time></trkpt><trkpt lat="44.22490755467358" lon="10.223273651758754"><ele>920.4000000000001</ele><time>2026-05-02T10:19:43Z</time></trkpt><trkpt lat="44.22482162202573" lon="10.22339483948011"><ele>921.2</ele><time>2026-05-02T10:19:45Z</time></trkpt><trkpt lat="44.224777676435586" lon="10.223461150652483"><ele>922.0</ele><time>2026-05-02T10:19:46Z</time></trkpt><trkpt lat="44.22470564517924" lon="10.223574352049077"><ele>922.6</ele><time>2026-05-02T10:19:48Z</time></trkpt><trkpt lat="44.22461764906574" lon="10.223707209966346"><ele>923.2</ele><time>2026-05-02T10:19:49.999Z</time></trkpt><trkpt lat="44.22457092195011" lon="10.223786845027306"><ele>923.8</ele><time>2026-05-02T10:19:50.999Z</time></trkpt><trkpt lat="44.22450737247786" lon="10.223856529220749"><ele>924.4</ele><time>2026-05-02T10:19:51.999Z</time></trkpt><trkpt lat="44.224454959986396" lon="10.223950788982917"><ele>925.0</ele><time>2026-05-02T10:19:52.999Z</time></trkpt><trkpt lat="44.224402447114905" lon="10.224080625423957"><ele>924.9999999999999</ele><time>2026-05-02T10:19:54.999Z</time></trkpt><trkpt lat="44.224378434758115" lon="10.224170112603257"><ele>925.0</ele><time>2026-05-02T10:19:56.999Z</time></trkpt><trkpt lat="44.224359191114054" lon="10.22430418995832"><ele>925.0</ele><time>2026-05-02T10:19:58.999Z</time></trkpt><trkpt lat="44.22435469001368" lon="10.22448742254531"><ele>925.0</ele><time>2026-05-02T10:20:00.999Z</time></trkpt><trkpt lat="44.224361772836964" lon="10.224592372435518"><ele>924.9999999999999</ele><time>2026-05-02T10:20:01.999Z</time></trkpt><trkpt lat="44.224379975330024" lon="10.224690460452372"><ele>925.0</ele><time>2026-05-02T10:20:02.999Z</time></trkpt><trkpt lat="44.22441659688455" lon="10.22480998440584"><ele>926.4999999999999</ele><time>2026-05-02T10:20:04.999Z</time></trkpt><trkpt lat="44.22444917679492" lon="10.224888409034769"><ele>928.0</ele><time>2026-05-02T10:20:05.999Z</time></trkpt><trkpt lat="44.22451286612505" lon="10.225012807559931"><ele>929.5</ele><time>2026-05-02T10:20:07.999Z</time></trkpt><trkpt lat="44.22459067395617" lon="10.225056539091998"><ele>931.0</ele><time>2026-05-02T10:20:09.999Z</time></trkpt><trkpt lat="44.22465134662007" lon="10.224997614902573"><ele>932.4999999999999</ele><time>2026-05-02T10:20:10.999Z</time></trkpt><trkpt lat="44.224704452247366" lon="10.224947462866588"><ele>934.0</ele><time>2026-05-02T10:20:11.999Z</time></trkpt><trkpt lat="44.22479245731619" lon="10.224857120524632"><ele>934.0</ele><time>2026-05-02T10:20:13.999Z</time></trkpt><trkpt lat="44.224885023565754" lon="10.224754392597843"><ele>934.0000000000001</ele><time>2026-05-02T10:20:15.999Z</time></trkpt><trkpt lat="44.2249855619559" lon="10.224638336275676"><ele>934.0000000000001</ele><time>2026-05-02T10:20:17.999Z</time></trkpt><trkpt lat="44.225034240015745" lon="10.224579075138818"><ele>934.0</ele><time>2026-05-02T10:20:18.999Z</time></trkpt><trkpt lat="44.225089539915935" lon="10.224501222598866"><ele>934.0</ele><time>2026-05-02T10:20:19.999Z</time></trkpt><trkpt lat="44.22513636499495" lon="10.224426008319178"><ele>934.0</ele><time>2026-05-02T10:20:20.999Z</time></trkpt><trkpt lat="44.225220832796836" lon="10.224304124935912"><ele>934.0000000000001</ele><time>2026-05-02T10:20:22.999Z</time></trkpt><trkpt lat="44.22530564844637" lon="10.22425546240741"><ele>934.0000000000001</ele><time>2026-05-02T10:20:24.999Z</time></trkpt><trkpt lat="44.225409497243355" lon="10.22428289515718"><ele>934.0</ele><time>2026-05-02T10:20:26.999Z</time></trkpt><trkpt lat="44.22551197641233" lon="10.224358456807549"><ele>934.0</ele><time>2026-05-02T10:20:28.999Z</time></trkpt><trkpt lat="44.22555606742188" lon="10.224423911352378"><ele>936.4000000000001</ele><time>2026-05-02T10:20:29.999Z</time></trkpt><trkpt lat="44.22564903118881" lon="10.22452680393705"><ele>938.8000000000001</ele><time>2026-05-02T10:20:31.999Z</time></trkpt><trkpt lat="44.22574378023213" lon="10.224638041414565"><ele>941.1999999999999</ele><time>2026-05-02T10:20:33.999Z</time></trkpt><trkpt lat="44.225794420740776" lon="10.224697557960589"><ele>943.5999999999999</ele><time>2026-05-02T10:20:34.999Z</time></trkpt><trkpt lat="44.22589187316738" lon="10.22480579405631"><ele>946.0</ele><time>2026-05-02T10:20:36.999Z</time></trkpt><trkpt lat="44.225966434430305" lon="10.224869499722503"><ele>946.0</ele><time>2026-05-02T10:20:38.999Z</time></trkpt><trkpt lat="44.22606585695656" lon="10.22484309784741"><ele>945.9999999999999</ele><time>2026-05-02T10:20:40.999Z</time></trkpt><trkpt lat="44.226150277996545" lon="10.224727182507978"><ele>945.9999999999999</ele><time>2026-05-02T10:20:42.999Z</time></trkpt><trkpt lat="44.22620827848095" lon="10.224566669110516"><ele>946.0</ele><time>2026-05-02T10:20:44.999Z</time></trkpt><trkpt lat="44.22623050779874" lon="10.224481290989843"><ele>946.0</ele><time>2026-05-02T10:20:45.999Z</time></trkpt><trkpt lat="44.226248965812104" lon="10.224304573893"><ele>946.0</ele><time>2026-05-02T10:20:47.999Z</time></trkpt><trkpt lat="44.22626357654162" lon="10.224174307642864"><ele>945.9999999999999</ele><time>2026-05-02T10:20:49.999Z</time></trkpt><trkpt lat="44.22631055914435" lon="10.224019626365568"><ele>945.9999999999999</ele><time>2026-05-02T10:20:51.999Z</time></trkpt><trkpt lat="44.22638940347269" lon="10.223904684495443"><ele>946.0</ele><time>2026-05-02T10:20:53.999Z</time></trkpt><trkpt lat="44.22646494233609" lon="10.223828560845412"><ele>946.0</ele><time>2026-05-02T10:20:55.999Z</time></trkpt><trkpt lat="44.226562267132245" lon="10.22373139806973"><ele>947.4999999999999</ele><time>2026-05-02T10:20:57.999Z</time></trkpt><trkpt lat="44.226663265855514" lon="10.223650926989423"><ele>949.0</ele><time>2026-05-02T10:20:59.999Z</time></trkpt><trkpt lat="44.2267261583563" lon="10.22360418448519"><ele>950.5</ele><time>2026-05-02T10:21:00.999Z</time></trkpt><trkpt lat="44.226787988620465" lon="10.22352924041671"><ele>952.0</ele><time>2026-05-02T10:21:01.999Z</time></trkpt><trkpt lat="44.22685893771221" lon="10.223504784393068"><ele>953.4999999999999</ele><time>2026-05-02T10:21:02.999Z</time></trkpt><trkpt lat="44.2269139536911" lon="10.223453733627062"><ele>955.0</ele><time>2026-05-02T10:21:03.999Z</time></trkpt><trkpt lat="44.22698506171908" lon="10.223326563758361"><ele>955.0</ele><time>2026-05-02T10:21:05.999Z</time></trkpt><trkpt lat="44.227043585580404" lon="10.223178088131894"><ele>955.0</ele><time>2026-05-02T10:21:07.999Z</time></trkpt><trkpt lat="44.22706240805689" lon="10.223037055973325"><ele>955.0</ele><time>2026-05-02T10:21:10Z</time></trkpt><trkpt lat="44.22703417585374" lon="10.222904492327194"><ele>955.0</ele><time>2026-05-02T10:21:12Z</time></trkpt><trkpt lat="44.22699956080372" lon="10.22272541063735"><ele>954.9999999999999</ele><time>2026-05-02T10:21:14Z</time></trkpt><trkpt lat="44.22698679917445" lon="10.222618866050158"><ele>955.0</ele><time>2026-05-02T10:21:15Z</time></trkpt><trkpt lat="44.22697656146028" lon="10.222526567769716"><ele>954.9999999999999</ele><time>2026-05-02T10:21:16Z</time></trkpt><trkpt lat="44.226962410650614" lon="10.222426252479043"><ele>954.9999999999999</ele><time>2026-05-02T10:21:17Z</time></trkpt><trkpt lat="44.22695046174716" lon="10.222321941517738"><ele>955.0</ele><time>2026-05-02T10:21:18Z</time></trkpt><trkpt lat="44.22693677424744" lon="10.222221476541167"><ele>954.9999999999999</ele><time>2026-05-02T10:21:19Z</time></trkpt><trkpt lat="44.22692436968286" lon="10.222132797698755"><ele>954.9999999999999</ele><time>2026-05-02T10:21:20Z</time></trkpt><trkpt lat="44.226953241107076" lon="10.221985020978579"><ele>955.0</ele><time>2026-05-02T10:21:22Z</time></trkpt><trkpt lat="44.227020646737365" lon="10.221842962556"><ele>955.0</ele><time>2026-05-02T10:21:24Z</time></trkpt><trkpt lat="44.22711051860861" lon="10.22174302633594"><ele>955.0</ele><time>2026-05-02T10:21:26Z</time></trkpt><trkpt lat="44.22719652245051" lon="10.221657097051876"><ele>955.0</ele><time>2026-05-02T10:21:28Z</time></trkpt><trkpt lat="44.22725084504467" lon="10.221609571779512"><ele>955.0</ele><time>2026-05-02T10:21:29Z</time></trkpt><trkpt lat="44.22735196125767" lon="10.221530843032813"><ele>955.4</ele><time>2026-05-02T10:21:31Z</time></trkpt><trkpt lat="44.22743934030391" lon="10.221472025668051"><ele>955.8</ele><time>2026-05-02T10:21:33Z</time></trkpt><trkpt lat="44.22754313500688" lon="10.221432436171616"><ele>956.2</ele><time>2026-05-02T10:21:35Z</time></trkpt><trkpt lat="44.22764743830082" lon="10.221443033384919"><ele>956.6</ele><time>2026-05-02T10:21:37Z</time></trkpt><trkpt lat="44.22775201756868" lon="10.221493866852407"><ele>957.0</ele><time>2026-05-02T10:21:39Z</time></trkpt><trkpt lat="44.22780699988206" lon="10.221537206950702"><ele>959.0</ele><time>2026-05-02T10:21:40Z</time></trkpt><trkpt lat="44.22790369056032" lon="10.221646852748544"><ele>961.0</ele><time>2026-05-02T10:21:42Z</time></trkpt><trkpt lat="44.22799457857052" lon="10.221768996930335"><ele>963.0</ele><time>2026-05-02T10:21:44Z</time></trkpt><trkpt lat="44.22804228747506" lon="10.221835182688343"><ele>965.0</ele><time>2026-05-02T10:21:45Z</time></trkpt><trkpt lat="44.22812189983538" lon="10.221947635238651"><ele>967.0</ele><time>2026-05-02T10:21:47Z</time></trkpt><trkpt lat="44.22819893287333" lon="10.222073093646104"><ele>966.9999999999999</ele><time>2026-05-02T10:21:49Z</time></trkpt><trkpt lat="44.22824144756154" lon="10.222146044299475"><ele>967.0</ele><time>2026-05-02T10:21:50Z</time></trkpt><trkpt lat="44.22828266813922" lon="10.222223149675386"><ele>967.0</ele><time>2026-05-02T10:21:51Z</time></trkpt><trkpt lat="44.22832203239382" lon="10.222378607747881"><ele>967.0</ele><time>2026-05-02T10:21:53Z</time></trkpt><trkpt lat="44.22831206954136" lon="10.222475430615114"><ele>966.9999999999999</ele><time>2026-05-02T10:21:54Z</time></trkpt><trkpt lat="44.228323404232384" lon="10.222611446839412"><ele>967.0</ele><time>2026-05-02T10:21:56Z</time></trkpt><trkpt lat="44.22838474487245" lon="10.222736049222371"><ele>969.6</ele><time>2026-05-02T10:21:58Z</time></trkpt><trkpt lat="44.228433061489966" lon="10.222813436694594"><ele>972.2</ele><time>2026-05-02T10:21:59Z</time></trkpt><trkpt lat="44.228460041415005" lon="10.222922292874022"><ele>974.8</ele><time>2026-05-02T10:21:59.999Z</time></trkpt><trkpt lat="44.22852062836907" lon="10.223075032864054"><ele>977.4</ele><time>2026-05-02T10:22:01.999Z</time></trkpt><trkpt lat="44.228585563256964" lon="10.223210902118108"><ele>980.0</ele><time>2026-05-02T10:22:03.999Z</time></trkpt><trkpt lat="44.22862730370546" lon="10.22333516475893"><ele>981.2</ele><time>2026-05-02T10:22:05.999Z</time></trkpt><trkpt lat="44.22864630428953" lon="10.223488811456665"><ele>982.4</ele><time>2026-05-02T10:22:07.999Z</time></trkpt><trkpt lat="44.228657142377635" lon="10.223579942507802"><ele>983.5999999999999</ele><time>2026-05-02T10:22:08.999Z</time></trkpt><trkpt lat="44.228669575529544" lon="10.223762868770006"><ele>984.8</ele><time>2026-05-02T10:22:10.999Z</time></trkpt><trkpt lat="44.228693455123874" lon="10.223863676886914"><ele>986.0</ele><time>2026-05-02T10:22:11.999Z</time></trkpt><trkpt lat="44.22869321360266" lon="10.223962210552326"><ele>986.5999999999999</ele><time>2026-05-02T10:22:12.999Z</time></trkpt><trkpt lat="44.228704694356935" lon="10.224057999682595"><ele>987.1999999999999</ele><time>2026-05-02T10:22:13.999Z</time></trkpt><trkpt lat="44.22869781869588" lon="10.22423849060733"><ele>987.8000000000001</ele><time>2026-05-02T10:22:15.999Z</time></trkpt><trkpt lat="44.22870775487516" lon="10.224412452908819"><ele>988.4000000000001</ele><time>2026-05-02T10:22:17.999Z</time></trkpt><trkpt lat="44.228714275759884" lon="10.224505441472349"><ele>989.0</ele><time>2026-05-02T10:22:18.999Z</time></trkpt><trkpt lat="44.22872063996848" lon="10.2245961958036"><ele>989.0</ele><time>2026-05-02T10:22:19.999Z</time></trkpt><trkpt lat="44.22872825096163" lon="10.224686576165047"><ele>989.0000000000001</ele><time>2026-05-02T10:22:20.999Z</time></trkpt><trkpt lat="44.228758342007424" lon="10.224842059113401"><ele>989.0000000000001</ele><time>2026-05-02T10:22:22.999Z</time></trkpt><trkpt lat="44.228762233878726" lon="10.22499417691103"><ele>989.0</ele><time>2026-05-02T10:22:24.999Z</time></trkpt><trkpt lat="44.228787359363885" lon="10.225151650212684"><ele>989.0</ele><time>2026-05-02T10:22:26.999Z</time></trkpt><trkpt lat="44.2288134013672" lon="10.225271797066455"><ele>990.1666666666667</ele><time>2026-05-02T10:22:27.999Z</time></trkpt><trkpt lat="44.22881896772624" lon="10.225413081947387"><ele>991.3333333333334</ele><time>2026-05-02T10:22:28.999Z</time></trkpt><trkpt lat="44.22884024217976" lon="10.225540169515241"><ele>992.5</ele><time>2026-05-02T10:22:29.999Z</time></trkpt><trkpt lat="44.228876962220646" lon="10.225650858319035"><ele>993.6666666666667</ele><time>2026-05-02T10:22:30.999Z</time></trkpt><trkpt lat="44.22889559431231" lon="10.225756129765589"><ele>994.8333333333334</ele><time>2026-05-02T10:22:31.999Z</time></trkpt><trkpt lat="44.22891302391587" lon="10.225850894510833"><ele>996.0</ele><time>2026-05-02T10:22:32.999Z</time></trkpt><trkpt lat="44.22892678612449" lon="10.225941464564883"><ele>996.1666666666666</ele><time>2026-05-02T10:22:33.999Z</time></trkpt><trkpt lat="44.22894053205465" lon="10.226041134668895"><ele>996.3333333333333</ele><time>2026-05-02T10:22:34.999Z</time></trkpt><trkpt lat="44.228952589600624" lon="10.226140579198454"><ele>996.5</ele><time>2026-05-02T10:22:35.999Z</time></trkpt><trkpt lat="44.22895845971434" lon="10.226303944952166"><ele>996.6666666666666</ele><time>2026-05-02T10:22:37.999Z</time></trkpt><trkpt lat="44.22896210785411" lon="10.226462762102596"><ele>996.8333333333333</ele><time>2026-05-02T10:22:39.999Z</time></trkpt><trkpt lat="44.22896744555173" lon="10.22655175174586"><ele>997.0</ele><time>2026-05-02T10:22:40.999Z</time></trkpt><trkpt lat="44.22897738564447" lon="10.22671219206616"><ele>997.6</ele><time>2026-05-02T10:22:42.999Z</time></trkpt><trkpt lat="44.228968072291146" lon="10.226872071384182"><ele>998.2</ele><time>2026-05-02T10:22:44.999Z</time></trkpt><trkpt lat="44.22894113277399" lon="10.227002413059585"><ele>998.8</ele><time>2026-05-02T10:22:46.999Z</time></trkpt><trkpt lat="44.228911245255524" lon="10.22713718673665"><ele>999.4</ele><time>2026-05-02T10:22:48.999Z</time></trkpt><trkpt lat="44.22888315898829" lon="10.227279849042045"><ele>1000.0</ele><time>2026-05-02T10:22:50.999Z</time></trkpt><trkpt lat="44.228883965816834" lon="10.227412988357838"><ele>1001.2</ele><time>2026-05-02T10:22:52.999Z</time></trkpt><trkpt lat="44.22889103682582" lon="10.227579530325182"><ele>1002.4</ele><time>2026-05-02T10:22:54.999Z</time></trkpt><trkpt lat="44.228882519547966" lon="10.227748890096779"><ele>1003.5999999999999</ele><time>2026-05-02T10:22:56.999Z</time></trkpt><trkpt lat="44.22888701630802" lon="10.227849234237873"><ele>1004.8</ele><time>2026-05-02T10:22:57.999Z</time></trkpt><trkpt lat="44.2288941287599" lon="10.227941001839048"><ele>1006.0</ele><time>2026-05-02T10:22:58.999Z</time></trkpt><trkpt lat="44.22887920991564" lon="10.228080532899996"><ele>1007.0</ele><time>2026-05-02T10:23:00.999Z</time></trkpt><trkpt lat="44.22887961150326" lon="10.228253456044886"><ele>1007.9999999999999</ele><time>2026-05-02T10:23:02.999Z</time></trkpt><trkpt lat="44.22887800098942" lon="10.22835523344993"><ele>1008.9999999999999</ele><time>2026-05-02T10:23:03.999Z</time></trkpt><trkpt lat="44.228868254473994" lon="10.2285041433255"><ele>1010.0</ele><time>2026-05-02T10:23:05.999Z</time></trkpt><trkpt lat="44.2288324669576" lon="10.228621421620158"><ele>1011.0</ele><time>2026-05-02T10:23:07.999Z</time></trkpt><trkpt lat="44.22880017643396" lon="10.228746868719506"><ele>1011.0</ele><time>2026-05-02T10:23:09.999Z</time></trkpt><trkpt lat="44.22880016665088" lon="10.228861757506165"><ele>1010.9999999999999</ele><time>2026-05-02T10:23:11.999Z</time></trkpt><trkpt lat="44.22885798987593" lon="10.229002135157813"><ele>1010.9999999999999</ele><time>2026-05-02T10:23:13.999Z</time></trkpt><trkpt lat="44.22895194023551" lon="10.229067437181559"><ele>1011.0</ele><time>2026-05-02T10:23:16Z</time></trkpt><trkpt lat="44.229013196591914" lon="10.229104249199345"><ele>1011.0</ele><time>2026-05-02T10:23:17Z</time></trkpt><trkpt lat="44.22910394697368" lon="10.229094755881718"><ele>1014.0</ele><time>2026-05-02T10:23:19Z</time></trkpt><trkpt lat="44.22919945415551" lon="10.228986568848827"><ele>1016.9999999999999</ele><time>2026-05-02T10:23:21Z</time></trkpt><trkpt lat="44.22925774543547" lon="10.228877400243428"><ele>1019.9999999999999</ele><time>2026-05-02T10:23:23Z</time></trkpt><trkpt lat="44.229273583812315" lon="10.228758768465639"><ele>1023.0</ele><time>2026-05-02T10:23:25Z</time></trkpt><trkpt lat="44.229292204367866" lon="10.228602372726161"><ele>1026.0</ele><time>2026-05-02T10:23:27Z</time></trkpt><trkpt lat="44.22931102818956" lon="10.228508526669867"><ele>1026.0</ele><time>2026-05-02T10:23:28Z</time></trkpt><trkpt lat="44.229354091179715" lon="10.228351613216512"><ele>1026.0</ele><time>2026-05-02T10:23:29.999Z</time></trkpt><trkpt lat="44.229404749825434" lon="10.228257040086628"><ele>1026.0</ele><time>2026-05-02T10:23:31.999Z</time></trkpt><trkpt lat="44.22945576496651" lon="10.228199062464629"><ele>1026.0</ele><time>2026-05-02T10:23:33.999Z</time></trkpt><trkpt lat="44.22952275344855" lon="10.228219427857718"><ele>1026.0</ele><time>2026-05-02T10:23:35.999Z</time></trkpt><trkpt lat="44.22961188983303" lon="10.228292616806838"><ele>1026.0</ele><time>2026-05-02T10:23:37.999Z</time></trkpt><trkpt lat="44.22965102308273" lon="10.228418306417705"><ele>1026.0</ele><time>2026-05-02T10:23:39.999Z</time></trkpt><trkpt lat="44.22970326387819" lon="10.228594667910084"><ele>1026.0</ele><time>2026-05-02T10:23:41.999Z</time></trkpt><trkpt lat="44.22972712137693" lon="10.22867736857745"><ele>1026.0</ele><time>2026-05-02T10:23:42.999Z</time></trkpt><trkpt lat="44.2297507483812" lon="10.228766538327662"><ele>1026.0</ele><time>2026-05-02T10:23:43.999Z</time></trkpt><trkpt lat="44.22978159392994" lon="10.228909008900098"><ele>1026.0</ele><time>2026-05-02T10:23:45.999Z</time></trkpt><trkpt lat="44.229813848391586" lon="10.229018040223702"><ele>1028.2</ele><time>2026-05-02T10:23:47.999Z</time></trkpt><trkpt lat="44.229841832070655" lon="10.229155846604728"><ele>1030.3999999999999</ele><time>2026-05-02T10:23:49.999Z</time></trkpt><trkpt lat="44.22987662902061" lon="10.229272578554543"><ele>1032.6</ele><time>2026-05-02T10:23:51.999Z</time></trkpt><trkpt lat="44.22987917640872" lon="10.229364955794763"><ele>1034.8</ele><time>2026-05-02T10:23:59.999Z</time></trkpt><trkpt lat="44.22990573005375" lon="10.22950053734939"><ele>1037.0</ele><time>2026-05-02T10:24:01.999Z</time></trkpt><trkpt lat="44.229930443746994" lon="10.22968480638986"><ele>1039.3333333333335</ele><time>2026-05-02T10:24:03.999Z</time></trkpt><trkpt lat="44.22995507078202" lon="10.229823690363677"><ele>1041.6666666666667</ele><time>2026-05-02T10:24:05.999Z</time></trkpt><trkpt lat="44.229924255332975" lon="10.229951121950899"><ele>1044.0</ele><time>2026-05-02T10:24:07.999Z</time></trkpt><trkpt lat="44.22990908745933" lon="10.230056279656512"><ele>1046.3333333333333</ele><time>2026-05-02T10:24:09.999Z</time></trkpt><trkpt lat="44.2298767830682" lon="10.230143315164636"><ele>1048.6666666666665</ele><time>2026-05-02T10:24:12.999Z</time></trkpt><trkpt lat="44.229888202141936" lon="10.230231109388551"><ele>1051.0</ele><time>2026-05-02T10:25:03.999Z</time></trkpt><trkpt lat="44.22987363593136" lon="10.23031714419805"><ele>1052.0</ele><time>2026-05-02T10:25:05.999Z</time></trkpt><trkpt lat="44.22979772689796" lon="10.230426252182777"><ele>1053.0</ele><time>2026-05-02T10:25:08.999Z</time></trkpt><trkpt lat="44.22975214081309" lon="10.23048838558288"><ele>1054.0</ele><time>2026-05-02T10:25:09.999Z</time></trkpt><trkpt lat="44.22969883184853" lon="10.230575135922518"><ele>1055.0</ele><time>2026-05-02T10:25:10.999Z</time></trkpt><trkpt lat="44.22962278839988" lon="10.230668699607008"><ele>1056.0</ele><time>2026-05-02T10:25:11.999Z</time></trkpt><trkpt lat="44.229552008850646" lon="10.230737370904743"><ele>1057.0</ele><time>2026-05-02T10:25:12.999Z</time></trkpt><trkpt lat="44.22949559387356" lon="10.2307795512797"><ele>1057.0</ele><time>2026-05-02T10:25:13.999Z</time></trkpt><trkpt lat="44.22942939907496" lon="10.23083002308457"><ele>1057.0</ele><time>2026-05-02T10:25:14.999Z</time></trkpt><trkpt lat="44.2293524668817" lon="10.2308968984146"><ele>1057.0</ele><time>2026-05-02T10:25:15.999Z</time></trkpt><trkpt lat="44.22929280919041" lon="10.230954107517109"><ele>1057.0</ele><time>2026-05-02T10:25:16.999Z</time></trkpt><trkpt lat="44.22924892070777" lon="10.231020202442336"><ele>1057.0</ele><time>2026-05-02T10:25:17.999Z</time></trkpt><trkpt lat="44.22920844280189" lon="10.23110220310641"><ele>1057.0</ele><time>2026-05-02T10:25:18.999Z</time></trkpt><trkpt lat="44.229166848111575" lon="10.231184734630764"><ele>1057.0</ele><time>2026-05-02T10:25:19.999Z</time></trkpt><trkpt lat="44.22912811281246" lon="10.23128335031809"><ele>1057.0</ele><time>2026-05-02T10:25:21Z</time></trkpt><trkpt lat="44.22908459830687" lon="10.231395249893763"><ele>1057.0</ele><time>2026-05-02T10:25:22Z</time></trkpt><trkpt lat="44.22901696430196" lon="10.231520153947757"><ele>1057.0</ele><time>2026-05-02T10:25:24Z</time></trkpt><trkpt lat="44.228968281870536" lon="10.231581719447524"><ele>1057.0</ele><time>2026-05-02T10:25:25Z</time></trkpt><trkpt lat="44.22887327481565" lon="10.231630535080766"><ele>1057.0</ele><time>2026-05-02T10:25:27Z</time></trkpt><trkpt lat="44.22874952254241" lon="10.231694605686629"><ele>1057.0</ele><time>2026-05-02T10:25:29Z</time></trkpt><trkpt lat="44.22865237470581" lon="10.23178628685589"><ele>1057.0</ele><time>2026-05-02T10:25:31Z</time></trkpt><trkpt lat="44.228570467953816" lon="10.231850700326817"><ele>1057.0</ele><time>2026-05-02T10:25:33Z</time></trkpt><trkpt lat="44.22850186522541" lon="10.23190180503747"><ele>1057.0</ele><time>2026-05-02T10:25:34Z</time></trkpt><trkpt lat="44.2283838641198" lon="10.231931789524065"><ele>1057.0</ele><time>2026-05-02T10:25:36Z</time></trkpt><trkpt lat="44.22827002184114" lon="10.231924547632882"><ele>1057.0</ele><time>2026-05-02T10:25:38Z</time></trkpt><trkpt lat="44.22818826900462" lon="10.2319089658517"><ele>1057.0</ele><time>2026-05-02T10:25:39Z</time></trkpt><trkpt lat="44.22811722054379" lon="10.231891345855361"><ele>1057.0</ele><time>2026-05-02T10:25:40Z</time></trkpt><trkpt lat="44.2280490172206" lon="10.231868051033778"><ele>1057.0</ele><time>2026-05-02T10:25:41Z</time></trkpt><trkpt lat="44.22798130380679" lon="10.231850577895184"><ele>1057.0</ele><time>2026-05-02T10:25:42Z</time></trkpt><trkpt lat="44.22791496338158" lon="10.23183685186667"><ele>1057.0</ele><time>2026-05-02T10:25:43Z</time></trkpt><trkpt lat="44.22785104311318" lon="10.231840037582634"><ele>1057.0</ele><time>2026-05-02T10:25:44Z</time></trkpt><trkpt lat="44.22778775752232" lon="10.23186163873743"><ele>1056.857142857143</ele><time>2026-05-02T10:25:45Z</time></trkpt><trkpt lat="44.22771895563031" lon="10.231890895627034"><ele>1056.7142857142858</ele><time>2026-05-02T10:25:46Z</time></trkpt><trkpt lat="44.22765723604681" lon="10.231922183119947"><ele>1056.5714285714284</ele><time>2026-05-02T10:25:47Z</time></trkpt><trkpt lat="44.227589723216916" lon="10.231950515102067"><ele>1056.4285714285716</ele><time>2026-05-02T10:25:48Z</time></trkpt><trkpt lat="44.22751197620096" lon="10.23197375614199"><ele>1056.2857142857142</ele><time>2026-05-02T10:25:49Z</time></trkpt><trkpt lat="44.227444095533365" lon="10.232003767940244"><ele>1056.142857142857</ele><time>2026-05-02T10:25:50Z</time></trkpt><trkpt lat="44.22737937750816" lon="10.232036052796996"><ele>1056.0</ele><time>2026-05-02T10:25:51Z</time></trkpt><trkpt lat="44.22732021953528" lon="10.232076513586389"><ele>1055.5</ele><time>2026-05-02T10:25:52Z</time></trkpt><trkpt lat="44.22724507968537" lon="10.232096461552871"><ele>1055.0</ele><time>2026-05-02T10:25:53Z</time></trkpt><trkpt lat="44.22717939156412" lon="10.232133200569649"><ele>1054.5</ele><time>2026-05-02T10:25:54Z</time></trkpt><trkpt lat="44.227062351102404" lon="10.232204488786396"><ele>1054.0</ele><time>2026-05-02T10:25:56Z</time></trkpt><trkpt lat="44.22700294544613" lon="10.232240729969417"><ele>1053.5</ele><time>2026-05-02T10:25:57Z</time></trkpt><trkpt lat="44.22694123721581" lon="10.232277275642977"><ele>1053.0</ele><time>2026-05-02T10:25:58Z</time></trkpt><trkpt lat="44.22687911568944" lon="10.23231282906303"><ele>1053.0</ele><time>2026-05-02T10:25:59Z</time></trkpt><trkpt lat="44.22677986195479" lon="10.232419839614543"><ele>1053.0</ele><time>2026-05-02T10:26:01Z</time></trkpt><trkpt lat="44.22671771244499" lon="10.232547789517263"><ele>1053.0</ele><time>2026-05-02T10:26:03Z</time></trkpt><trkpt lat="44.2266933048291" lon="10.232677479935203"><ele>1053.0</ele><time>2026-05-02T10:26:05Z</time></trkpt><trkpt lat="44.22657375403639" lon="10.232674694896495"><ele>1051.0</ele><time>2026-05-02T10:26:33.999Z</time></trkpt><trkpt lat="44.22646188978422" lon="10.23265665432899"><ele>1049.0</ele><time>2026-05-02T10:26:35.999Z</time></trkpt><trkpt lat="44.226396487806035" lon="10.232633863453945"><ele>1047.0</ele><time>2026-05-02T10:26:36.999Z</time></trkpt><trkpt lat="44.226291070641636" lon="10.232584785059037"><ele>1045.0</ele><time>2026-05-02T10:26:38.999Z</time></trkpt><trkpt lat="44.226172520007694" lon="10.23252018160474"><ele>1043.0</ele><time>2026-05-02T10:26:40.999Z</time></trkpt><trkpt lat="44.22610231844269" lon="10.232490944668749"><ele>1043.0</ele><time>2026-05-02T10:26:41.999Z</time></trkpt><trkpt lat="44.226040938158576" lon="10.23246441618653"><ele>1043.0</ele><time>2026-05-02T10:26:42.999Z</time></trkpt><trkpt lat="44.2259124782863" lon="10.232395152201688"><ele>1043.0</ele><time>2026-05-02T10:26:44.999Z</time></trkpt><trkpt lat="44.22584969200553" lon="10.232334582359606"><ele>1043.0</ele><time>2026-05-02T10:26:45.999Z</time></trkpt><trkpt lat="44.225783497567186" lon="10.232264874557071"><ele>1043.0</ele><time>2026-05-02T10:26:46.999Z</time></trkpt><trkpt lat="44.22571768199643" lon="10.232197826216574"><ele>1043.0</ele><time>2026-05-02T10:26:47.999Z</time></trkpt><trkpt lat="44.225656057446" lon="10.232132439236306"><ele>1041.857142857143</ele><time>2026-05-02T10:26:48.999Z</time></trkpt><trkpt lat="44.225597673393494" lon="10.232070184887228"><ele>1040.7142857142858</ele><time>2026-05-02T10:26:49.999Z</time></trkpt><trkpt lat="44.22554133709068" lon="10.23200900366379"><ele>1039.5714285714284</ele><time>2026-05-02T10:26:50.999Z</time></trkpt><trkpt lat="44.22548675322652" lon="10.231947828792373"><ele>1038.4285714285716</ele><time>2026-05-02T10:26:51.999Z</time></trkpt><trkpt lat="44.22543054391695" lon="10.231881645325272"><ele>1037.2857142857142</ele><time>2026-05-02T10:26:52.999Z</time></trkpt><trkpt lat="44.22537784714067" lon="10.231812996681985"><ele>1036.142857142857</ele><time>2026-05-02T10:26:53.999Z</time></trkpt><trkpt lat="44.225326842702096" lon="10.231743739154945"><ele>1035.0</ele><time>2026-05-02T10:26:54.999Z</time></trkpt><trkpt lat="44.22527191227242" lon="10.231661841784856"><ele>1035.0</ele><time>2026-05-02T10:26:55.999Z</time></trkpt><trkpt lat="44.225223703244815" lon="10.231578142931237"><ele>1035.0</ele><time>2026-05-02T10:26:56.999Z</time></trkpt><trkpt lat="44.225172336543764" lon="10.231508493765993"><ele>1035.0</ele><time>2026-05-02T10:26:57.999Z</time></trkpt><trkpt lat="44.22513258116652" lon="10.231418786519088"><ele>1035.0</ele><time>2026-05-02T10:26:58.999Z</time></trkpt><trkpt lat="44.2250871164521" lon="10.231321409723511"><ele>1035.0</ele><time>2026-05-02T10:26:59.999Z</time></trkpt><trkpt lat="44.22504806602614" lon="10.231234412330052"><ele>1035.0</ele><time>2026-05-02T10:27:00.999Z</time></trkpt><trkpt lat="44.22501608767056" lon="10.23114627567764"><ele>1034.142857142857</ele><time>2026-05-02T10:27:01.999Z</time></trkpt><trkpt lat="44.22497594325573" lon="10.231053720590785"><ele>1033.2857142857142</ele><time>2026-05-02T10:27:02.999Z</time></trkpt><trkpt lat="44.22492483446241" lon="10.230965906442336"><ele>1032.4285714285716</ele><time>2026-05-02T10:27:03.999Z</time></trkpt><trkpt lat="44.22488862384369" lon="10.230872337442925"><ele>1031.5714285714284</ele><time>2026-05-02T10:27:04.999Z</time></trkpt><trkpt lat="44.22483866910719" lon="10.230816150909579"><ele>1030.7142857142858</ele><time>2026-05-02T10:27:05.999Z</time></trkpt><trkpt lat="44.224788774831495" lon="10.230755541510758"><ele>1029.857142857143</ele><time>2026-05-02T10:27:06.999Z</time></trkpt><trkpt lat="44.2247278732089" lon="10.230724058536392"><ele>1029.0</ele><time>2026-05-02T10:27:07.999Z</time></trkpt><trkpt lat="44.22459901634291" lon="10.230653746214985"><ele>1027.0</ele><time>2026-05-02T10:27:09.999Z</time></trkpt><trkpt lat="44.2245323316756" lon="10.23062110269623"><ele>1025.0</ele><time>2026-05-02T10:27:10.999Z</time></trkpt><trkpt lat="44.224470298584684" lon="10.230579258995167"><ele>1023.0</ele><time>2026-05-02T10:27:11.999Z</time></trkpt><trkpt lat="44.22440685882618" lon="10.23053525875225"><ele>1021.0</ele><time>2026-05-02T10:27:12.999Z</time></trkpt><trkpt lat="44.22433704911339" lon="10.230478493501927"><ele>1019.0</ele><time>2026-05-02T10:27:13.999Z</time></trkpt><trkpt lat="44.224271814727445" lon="10.230447805306644"><ele>1017.0</ele><time>2026-05-02T10:27:14.999Z</time></trkpt><trkpt lat="44.224223135838834" lon="10.230387733204592"><ele>1015.0</ele><time>2026-05-02T10:27:15.999Z</time></trkpt><trkpt lat="44.224165428720475" lon="10.23034156561582"><ele>1015.0</ele><time>2026-05-02T10:27:16.999Z</time></trkpt><trkpt lat="44.224101780601636" lon="10.230304910538743"><ele>1015.0</ele><time>2026-05-02T10:27:17.999Z</time></trkpt><trkpt lat="44.22403411121739" lon="10.230298202400528"><ele>1015.0</ele><time>2026-05-02T10:27:18.999Z</time></trkpt><trkpt lat="44.22396172057217" lon="10.23035110763155"><ele>1015.0</ele><time>2026-05-02T10:27:19.999Z</time></trkpt><trkpt lat="44.22388435685681" lon="10.230348799612143"><ele>1015.0</ele><time>2026-05-02T10:27:20.999Z</time></trkpt><trkpt lat="44.22381340593081" lon="10.230366425983284"><ele>1015.0</ele><time>2026-05-02T10:27:21.999Z</time></trkpt><trkpt lat="44.223735169598285" lon="10.230385862271163"><ele>1015.0</ele><time>2026-05-02T10:27:22.999Z</time></trkpt><trkpt lat="44.22366165325939" lon="10.230425655510603"><ele>1013.8571428571429</ele><time>2026-05-02T10:27:23.999Z</time></trkpt><trkpt lat="44.22358212222382" lon="10.230433842664613"><ele>1012.7142857142858</ele><time>2026-05-02T10:27:24.999Z</time></trkpt><trkpt lat="44.22350642176651" lon="10.230460311368802"><ele>1011.5714285714286</ele><time>2026-05-02T10:27:25.999Z</time></trkpt><trkpt lat="44.223437742009246" lon="10.230473452262943"><ele>1010.4285714285714</ele><time>2026-05-02T10:27:27Z</time></trkpt><trkpt lat="44.2233681964247" lon="10.23048757733017"><ele>1009.2857142857143</ele><time>2026-05-02T10:27:28Z</time></trkpt><trkpt lat="44.22328920702469" lon="10.230487046384743"><ele>1008.1428571428571</ele><time>2026-05-02T10:27:29Z</time></trkpt><trkpt lat="44.22322425063153" lon="10.230500451147801"><ele>1007.0</ele><time>2026-05-02T10:27:30Z</time></trkpt><trkpt lat="44.223152632114164" lon="10.230515230732015"><ele>1004.5000000000001</ele><time>2026-05-02T10:27:31Z</time></trkpt><trkpt lat="44.22307964658709" lon="10.23053029242399"><ele>1002.0</ele><time>2026-05-02T10:27:32Z</time></trkpt><trkpt lat="44.222999871426204" lon="10.230546755260743"><ele>999.5</ele><time>2026-05-02T10:27:33Z</time></trkpt><trkpt lat="44.2229327272925" lon="10.230585916610258"><ele>997.0</ele><time>2026-05-02T10:27:34Z</time></trkpt><trkpt lat="44.22285342819168" lon="10.230582505918141"><ele>994.5000000000001</ele><time>2026-05-02T10:27:35Z</time></trkpt><trkpt lat="44.22277917878012" lon="10.230601894154809"><ele>992.0</ele><time>2026-05-02T10:27:36Z</time></trkpt><trkpt lat="44.22270942197335" lon="10.230620990470785"><ele>992.5714285714287</ele><time>2026-05-02T10:27:37Z</time></trkpt><trkpt lat="44.22263123998364" lon="10.230643334621591"><ele>993.1428571428572</ele><time>2026-05-02T10:27:38Z</time></trkpt><trkpt lat="44.22255339370654" lon="10.23066594137172"><ele>993.7142857142858</ele><time>2026-05-02T10:27:39Z</time></trkpt><trkpt lat="44.22248571940717" lon="10.230687667953054"><ele>994.2857142857142</ele><time>2026-05-02T10:27:40Z</time></trkpt><trkpt lat="44.22241895616115" lon="10.230710501110272"><ele>994.8571428571428</ele><time>2026-05-02T10:27:41Z</time></trkpt><trkpt lat="44.22235051333866" lon="10.23073390868633"><ele>995.4285714285713</ele><time>2026-05-02T10:27:42Z</time></trkpt><trkpt lat="44.2222854746488" lon="10.230754196103456"><ele>996.0</ele><time>2026-05-02T10:27:43Z</time></trkpt><trkpt lat="44.22220850861429" lon="10.230775424300743"><ele>996.0</ele><time>2026-05-02T10:27:44Z</time></trkpt><trkpt lat="44.222136718440176" lon="10.230792769180523"><ele>995.9999999999999</ele><time>2026-05-02T10:27:45Z</time></trkpt><trkpt lat="44.222067099624795" lon="10.230831063174204"><ele>996.0</ele><time>2026-05-02T10:27:46Z</time></trkpt><trkpt lat="44.22198871517531" lon="10.230847690129465"><ele>996.0</ele><time>2026-05-02T10:27:47Z</time></trkpt><trkpt lat="44.221909873034214" lon="10.230864450733"><ele>995.9999999999999</ele><time>2026-05-02T10:27:48Z</time></trkpt><trkpt lat="44.22184413782675" lon="10.230876467073411"><ele>996.0</ele><time>2026-05-02T10:27:49Z</time></trkpt><trkpt lat="44.22177436107825" lon="10.230897215904038"><ele>996.0</ele><time>2026-05-02T10:27:50Z</time></trkpt><trkpt lat="44.22171131805638" lon="10.230890659539257"><ele>996.0</ele><time>2026-05-02T10:27:51Z</time></trkpt><trkpt lat="44.2216394482318" lon="10.230918268770312"><ele>996.0</ele><time>2026-05-02T10:27:52Z</time></trkpt><trkpt lat="44.22155579616934" lon="10.23094048387334"><ele>996.0</ele><time>2026-05-02T10:27:53Z</time></trkpt><trkpt lat="44.22148151956593" lon="10.230957051526586"><ele>996.0</ele><time>2026-05-02T10:27:54Z</time></trkpt><trkpt lat="44.22140863272302" lon="10.230979949904173"><ele>996.0</ele><time>2026-05-02T10:27:55Z</time></trkpt><trkpt lat="44.22133573637894" lon="10.230997910903694"><ele>996.0</ele><time>2026-05-02T10:27:56Z</time></trkpt><trkpt lat="44.221262328010766" lon="10.23101433103605"><ele>996.5714285714286</ele><time>2026-05-02T10:27:57Z</time></trkpt><trkpt lat="44.221191011678734" lon="10.231036768605643"><ele>997.1428571428571</ele><time>2026-05-02T10:27:58Z</time></trkpt><trkpt lat="44.2211220601496" lon="10.231054995914748"><ele>997.7142857142857</ele><time>2026-05-02T10:27:59Z</time></trkpt><trkpt lat="44.22104894565575" lon="10.23107466057313"><ele>998.2857142857142</ele><time>2026-05-02T10:28:00Z</time></trkpt><trkpt lat="44.220975198414045" lon="10.231094140510356"><ele>998.8571428571429</ele><time>2026-05-02T10:28:01Z</time></trkpt><trkpt lat="44.22089855848015" lon="10.231105044640882"><ele>999.4285714285713</ele><time>2026-05-02T10:28:02Z</time></trkpt><trkpt lat="44.22083498594507" lon="10.23112183117453"><ele>1000.0</ele><time>2026-05-02T10:28:03Z</time></trkpt><trkpt lat="44.220704391822544" lon="10.231155247220224"><ele>1000.3333333333333</ele><time>2026-05-02T10:28:05Z</time></trkpt><trkpt lat="44.220640909098954" lon="10.23118798513652"><ele>1000.6666666666666</ele><time>2026-05-02T10:28:06Z</time></trkpt><trkpt lat="44.22058592427102" lon="10.23123185150973"><ele>1001.0</ele><time>2026-05-02T10:28:07Z</time></trkpt><trkpt lat="44.22051378618632" lon="10.231354140809572"><ele>1001.3333333333333</ele><time>2026-05-02T10:28:09Z</time></trkpt><trkpt lat="44.220488058619814" lon="10.231441389675606"><ele>1001.6666666666666</ele><time>2026-05-02T10:28:10Z</time></trkpt><trkpt lat="44.22047306546064" lon="10.231603203469653"><ele>1002.0</ele><time>2026-05-02T10:28:12Z</time></trkpt><trkpt lat="44.2204711215551" lon="10.231700521936045"><ele>1000.0</ele><time>2026-05-02T10:28:13Z</time></trkpt><trkpt lat="44.220471379766444" lon="10.231800527494654"><ele>998.0</ele><time>2026-05-02T10:28:14Z</time></trkpt><trkpt lat="44.220449696972004" lon="10.231965519692753"><ele>996.0</ele><time>2026-05-02T10:28:16Z</time></trkpt><trkpt lat="44.220378241903035" lon="10.232104011997308"><ele>994.0</ele><time>2026-05-02T10:28:18Z</time></trkpt><trkpt lat="44.22031100523063" lon="10.23216749769148"><ele>992.0</ele><time>2026-05-02T10:28:19Z</time></trkpt><trkpt lat="44.22023291736452" lon="10.232220805674597"><ele>992.0000000000001</ele><time>2026-05-02T10:28:20Z</time></trkpt><trkpt lat="44.22016162062732" lon="10.23226778554159"><ele>992.0</ele><time>2026-05-02T10:28:21Z</time></trkpt><trkpt lat="44.22010477735341" lon="10.23231565363715"><ele>992.0</ele><time>2026-05-02T10:28:22Z</time></trkpt><trkpt lat="44.22004459417539" lon="10.232367851998223"><ele>992.0</ele><time>2026-05-02T10:28:23Z</time></trkpt><trkpt lat="44.21997383627547" lon="10.232413998046875"><ele>992.0000000000001</ele><time>2026-05-02T10:28:24Z</time></trkpt><trkpt lat="44.219907421041285" lon="10.232444612868884"><ele>992.0</ele><time>2026-05-02T10:28:25Z</time></trkpt><trkpt lat="44.21979839285976" lon="10.232422380838676"><ele>991.6</ele><time>2026-05-02T10:28:27Z</time></trkpt><trkpt lat="44.219695795035314" lon="10.23236654491004"><ele>991.2</ele><time>2026-05-02T10:28:29Z</time></trkpt><trkpt lat="44.21963764078082" lon="10.23230933149603"><ele>990.8</ele><time>2026-05-02T10:28:30Z</time></trkpt><trkpt lat="44.21953056076694" lon="10.232213113736842"><ele>990.4</ele><time>2026-05-02T10:28:32Z</time></trkpt><trkpt lat="44.219471579818915" lon="10.232157638274014"><ele>990.0</ele><time>2026-05-02T10:28:33Z</time></trkpt><trkpt lat="44.21941390389114" lon="10.232094857214285"><ele>990.0</ele><time>2026-05-02T10:28:34Z</time></trkpt><trkpt lat="44.21936025004304" lon="10.232038611696598"><ele>990.0</ele><time>2026-05-02T10:28:35Z</time></trkpt><trkpt lat="44.21930461973563" lon="10.231986711982511"><ele>990.0</ele><time>2026-05-02T10:28:36Z</time></trkpt><trkpt lat="44.21926312951768" lon="10.231906909283051"><ele>990.0</ele><time>2026-05-02T10:28:37Z</time></trkpt><trkpt lat="44.21921497665992" lon="10.231848036127117"><ele>990.0</ele><time>2026-05-02T10:28:38Z</time></trkpt><trkpt lat="44.21912926666996" lon="10.23176042945889"><ele>990.0</ele><time>2026-05-02T10:28:39.999Z</time></trkpt><trkpt lat="44.21903819500773" lon="10.231710325596236"><ele>988.4</ele><time>2026-05-02T10:28:41.999Z</time></trkpt><trkpt lat="44.21893535753211" lon="10.231766831169981"><ele>986.8</ele><time>2026-05-02T10:28:43.999Z</time></trkpt><trkpt lat="44.21883619900153" lon="10.231891642048359"><ele>985.2</ele><time>2026-05-02T10:28:45.999Z</time></trkpt><trkpt lat="44.21876581319689" lon="10.23197323327937"><ele>983.6</ele><time>2026-05-02T10:28:46.999Z</time></trkpt><trkpt lat="44.218698858008636" lon="10.232055125522045"><ele>982.0</ele><time>2026-05-02T10:28:47.999Z</time></trkpt><trkpt lat="44.218654517212364" lon="10.232133305294001"><ele>981.9999999999999</ele><time>2026-05-02T10:28:48.999Z</time></trkpt><trkpt lat="44.21859599427129" lon="10.23217886402864"><ele>982.0</ele><time>2026-05-02T10:28:49.999Z</time></trkpt><trkpt lat="44.21852432297267" lon="10.232178047620087"><ele>982.0</ele><time>2026-05-02T10:28:50.999Z</time></trkpt><trkpt lat="44.218435883975495" lon="10.232196200666191"><ele>982.0</ele><time>2026-05-02T10:28:51.999Z</time></trkpt><trkpt lat="44.21833197672942" lon="10.232241255021775"><ele>981.9999999999999</ele><time>2026-05-02T10:28:52.999Z</time></trkpt><trkpt lat="44.218229356908346" lon="10.232250672753855"><ele>982.0</ele><time>2026-05-02T10:28:53.999Z</time></trkpt><trkpt lat="44.21811954787483" lon="10.232270427381714"><ele>979.4000000000001</ele><time>2026-05-02T10:28:54.999Z</time></trkpt><trkpt lat="44.218006989453784" lon="10.232267283501514"><ele>976.8000000000001</ele><time>2026-05-02T10:28:55.999Z</time></trkpt><trkpt lat="44.21790717613972" lon="10.232269452248538"><ele>974.2</ele><time>2026-05-02T10:28:56.999Z</time></trkpt><trkpt lat="44.217830422805754" lon="10.232253286759455"><ele>971.6</ele><time>2026-05-02T10:28:57.999Z</time></trkpt><trkpt lat="44.21771509795253" lon="10.232219734536608"><ele>969.0</ele><time>2026-05-02T10:28:59.999Z</time></trkpt><trkpt lat="44.2176377142574" lon="10.232165557070926"><ele>969.0</ele><time>2026-05-02T10:29:00.999Z</time></trkpt><trkpt lat="44.2175687325988" lon="10.2320597513569"><ele>969.0000000000001</ele><time>2026-05-02T10:29:01.999Z</time></trkpt><trkpt lat="44.2175066210575" lon="10.231954572599218"><ele>969.0000000000001</ele><time>2026-05-02T10:29:02.999Z</time></trkpt><trkpt lat="44.217445425378635" lon="10.23183158095889"><ele>969.0</ele><time>2026-05-02T10:29:03.999Z</time></trkpt><trkpt lat="44.21739311038171" lon="10.231690560435837"><ele>969.0</ele><time>2026-05-02T10:29:04.999Z</time></trkpt><trkpt lat="44.21732764427863" lon="10.231537451477848"><ele>966.25</ele><time>2026-05-02T10:29:05.999Z</time></trkpt><trkpt lat="44.217269023292" lon="10.231352689369292"><ele>963.5</ele><time>2026-05-02T10:29:06.999Z</time></trkpt><trkpt lat="44.21722195687883" lon="10.231173404499843"><ele>960.75</ele><time>2026-05-02T10:29:07.999Z</time></trkpt><trkpt lat="44.21717214560071" lon="10.231014478591794"><ele>958.0</ele><time>2026-05-02T10:29:08.999Z</time></trkpt><trkpt lat="44.21711318344614" lon="10.230873520345645"><ele>957.9999999999999</ele><time>2026-05-02T10:29:09.999Z</time></trkpt><trkpt lat="44.21705518970293" lon="10.230752823760495"><ele>958.0</ele><time>2026-05-02T10:29:10.999Z</time></trkpt><trkpt lat="44.21699745660336" lon="10.230647406684643"><ele>958.0</ele><time>2026-05-02T10:29:11.999Z</time></trkpt><trkpt lat="44.216925834489814" lon="10.230565544719799"><ele>958.0</ele><time>2026-05-02T10:29:12.999Z</time></trkpt><trkpt lat="44.21685534028116" lon="10.230523610355867"><ele>957.9999999999999</ele><time>2026-05-02T10:29:13.999Z</time></trkpt><trkpt lat="44.21677687997807" lon="10.230523406834802"><ele>958.0</ele><time>2026-05-02T10:29:14.999Z</time></trkpt><trkpt lat="44.21668413172922" lon="10.23054439525033"><ele>957.9999999999999</ele><time>2026-05-02T10:29:15.999Z</time></trkpt><trkpt lat="44.21659229363569" lon="10.230612905549766"><ele>958.0</ele><time>2026-05-02T10:29:16.999Z</time></trkpt><trkpt lat="44.21650528038485" lon="10.230649981055327"><ele>958.0</ele><time>2026-05-02T10:29:17.999Z</time></trkpt><trkpt lat="44.21643036630499" lon="10.230676427818674"><ele>958.0</ele><time>2026-05-02T10:29:18.999Z</time></trkpt><trkpt lat="44.216364453234554" lon="10.230623104433809"><ele>957.9999999999999</ele><time>2026-05-02T10:29:19.999Z</time></trkpt><trkpt lat="44.21633917453561" lon="10.230499044500535"><ele>958.0</ele><time>2026-05-02T10:29:20.999Z</time></trkpt><trkpt lat="44.21629370171463" lon="10.230381114351333"><ele>957.1666666666666</ele><time>2026-05-02T10:29:21.999Z</time></trkpt><trkpt lat="44.2162415853216" lon="10.230268287838575"><ele>956.3333333333333</ele><time>2026-05-02T10:29:22.999Z</time></trkpt><trkpt lat="44.216199133088715" lon="10.230166666166166"><ele>955.5</ele><time>2026-05-02T10:29:23.999Z</time></trkpt><trkpt lat="44.21615602619947" lon="10.230097488463029"><ele>954.6666666666667</ele><time>2026-05-02T10:29:24.999Z</time></trkpt><trkpt lat="44.21609669071522" lon="10.230005240399507"><ele>953.8333333333334</ele><time>2026-05-02T10:29:26.999Z</time></trkpt><trkpt lat="44.21601578839938" lon="10.229949099124866"><ele>953.0</ele><time>2026-05-02T10:29:35Z</time></trkpt><trkpt lat="44.21587225635304" lon="10.230115172014406"><ele>953.0000000000001</ele><time>2026-05-02T10:29:36Z</time></trkpt><trkpt lat="44.21579745872869" lon="10.23007381328833"><ele>953.0</ele><time>2026-05-02T10:29:37Z</time></trkpt><trkpt lat="44.21572218408283" lon="10.23004202117063"><ele>953.0</ele><time>2026-05-02T10:29:38Z</time></trkpt><trkpt lat="44.215638698000866" lon="10.230023609804691"><ele>953.0</ele><time>2026-05-02T10:29:39Z</time></trkpt><trkpt lat="44.21555464050566" lon="10.22998673749513"><ele>953.0000000000001</ele><time>2026-05-02T10:29:40Z</time></trkpt><trkpt lat="44.21546880866311" lon="10.229949912702335"><ele>953.0</ele><time>2026-05-02T10:29:41Z</time></trkpt><trkpt lat="44.21537261851854" lon="10.229905634293813"><ele>953.1666666666667</ele><time>2026-05-02T10:29:42Z</time></trkpt><trkpt lat="44.215276037397444" lon="10.229838473380982"><ele>953.3333333333334</ele><time>2026-05-02T10:29:43Z</time></trkpt><trkpt lat="44.21517398781893" lon="10.229813918610844"><ele>953.5</ele><time>2026-05-02T10:29:44Z</time></trkpt><trkpt lat="44.215092072584845" lon="10.2297791643138"><ele>953.6666666666667</ele><time>2026-05-02T10:29:45Z</time></trkpt><trkpt lat="44.21501489656376" lon="10.22978708493528"><ele>953.8333333333334</ele><time>2026-05-02T10:29:46Z</time></trkpt><trkpt lat="44.21494382998203" lon="10.229805714582069"><ele>954.0</ele><time>2026-05-02T10:29:47Z</time></trkpt><trkpt lat="44.214893371952414" lon="10.229903634856225"><ele>954.0</ele><time>2026-05-02T10:29:48Z</time></trkpt><trkpt lat="44.21488625327557" lon="10.230037283333495"><ele>954.0000000000001</ele><time>2026-05-02T10:29:49Z</time></trkpt><trkpt lat="44.214906390744154" lon="10.230156177706649"><ele>954.0000000000001</ele><time>2026-05-02T10:29:50Z</time></trkpt><trkpt lat="44.21495357744946" lon="10.230269275714997"><ele>954.0</ele><time>2026-05-02T10:29:51Z</time></trkpt><trkpt lat="44.21499690988345" lon="10.230396217460532"><ele>954.0</ele><time>2026-05-02T10:29:52Z</time></trkpt><trkpt lat="44.215021830275525" lon="10.230511123607496"><ele>954.0</ele><time>2026-05-02T10:29:53Z</time></trkpt><trkpt lat="44.215085731543354" lon="10.230634819989486"><ele>954.0000000000001</ele><time>2026-05-02T10:29:54Z</time></trkpt><trkpt lat="44.215101260786675" lon="10.230773313882706"><ele>954.0000000000001</ele><time>2026-05-02T10:29:55Z</time></trkpt><trkpt lat="44.21514012372678" lon="10.230916505934957"><ele>954.0</ele><time>2026-05-02T10:29:56Z</time></trkpt><trkpt lat="44.21515561408223" lon="10.23106371821017"><ele>954.0</ele><time>2026-05-02T10:29:57Z</time></trkpt><trkpt lat="44.21518251059121" lon="10.231204251839664"><ele>954.4000000000001</ele><time>2026-05-02T10:29:58Z</time></trkpt><trkpt lat="44.21520806245333" lon="10.231344317997282"><ele>954.8000000000001</ele><time>2026-05-02T10:29:59Z</time></trkpt><trkpt lat="44.21520862265524" lon="10.231488778487652"><ele>955.1999999999999</ele><time>2026-05-02T10:30:00Z</time></trkpt><trkpt lat="44.215221938904655" lon="10.23164717849539"><ele>955.5999999999999</ele><time>2026-05-02T10:30:01Z</time></trkpt><trkpt lat="44.215233909163615" lon="10.23179701925109"><ele>956.0</ele><time>2026-05-02T10:30:02Z</time></trkpt><trkpt lat="44.2152618500143" lon="10.231951858836638"><ele>956.0</ele><time>2026-05-02T10:30:03Z</time></trkpt><trkpt lat="44.21528576355273" lon="10.232116666095395"><ele>956.0</ele><time>2026-05-02T10:30:04Z</time></trkpt><trkpt lat="44.215317698088604" lon="10.2322740576969"><ele>956.0</ele><time>2026-05-02T10:30:05Z</time></trkpt><trkpt lat="44.21535246731991" lon="10.232433079926217"><ele>956.0</ele><time>2026-05-02T10:30:06Z</time></trkpt><trkpt lat="44.2153818518914" lon="10.232585299728449"><ele>956.1999999999999</ele><time>2026-05-02T10:30:07Z</time></trkpt><trkpt lat="44.21541553372217" lon="10.232732402025858"><ele>956.3999999999999</ele><time>2026-05-02T10:30:08Z</time></trkpt><trkpt lat="44.21544741689598" lon="10.23288299763944"><ele>956.6</ele><time>2026-05-02T10:30:09Z</time></trkpt><trkpt lat="44.215477467215074" lon="10.233032516159453"><ele>956.8</ele><time>2026-05-02T10:30:10Z</time></trkpt><trkpt lat="44.21550231803311" lon="10.233182332268898"><ele>957.0</ele><time>2026-05-02T10:30:11Z</time></trkpt><trkpt lat="44.21551486832596" lon="10.233327387090092"><ele>956.6</ele><time>2026-05-02T10:30:12Z</time></trkpt><trkpt lat="44.215519785824974" lon="10.233468129968003"><ele>956.2</ele><time>2026-05-02T10:30:13Z</time></trkpt><trkpt lat="44.215514354114596" lon="10.233617162159144"><ele>955.8</ele><time>2026-05-02T10:30:14Z</time></trkpt><trkpt lat="44.215508491464455" lon="10.233767765855372"><ele>955.4</ele><time>2026-05-02T10:30:15Z</time></trkpt><trkpt lat="44.21549808559219" lon="10.233919424630624"><ele>955.0</ele><time>2026-05-02T10:30:16Z</time></trkpt><trkpt lat="44.21547975885839" lon="10.234075098152394"><ele>953.6</ele><time>2026-05-02T10:30:17Z</time></trkpt><trkpt lat="44.21545777421073" lon="10.234229377866466"><ele>952.2</ele><time>2026-05-02T10:30:18Z</time></trkpt><trkpt lat="44.21542150725132" lon="10.234361228908535"><ele>950.8</ele><time>2026-05-02T10:30:19Z</time></trkpt><trkpt lat="44.2153773063033" lon="10.23448885668259"><ele>949.4</ele><time>2026-05-02T10:30:20Z</time></trkpt><trkpt lat="44.21530661736599" lon="10.234596912348351"><ele>948.0</ele><time>2026-05-02T10:30:21Z</time></trkpt><trkpt lat="44.21522905153896" lon="10.23472198597434"><ele>944.25</ele><time>2026-05-02T10:30:22Z</time></trkpt><trkpt lat="44.21515485314259" lon="10.234859895167157"><ele>940.5</ele><time>2026-05-02T10:30:23Z</time></trkpt><trkpt lat="44.2151073460546" lon="10.235018198838322"><ele>936.75</ele><time>2026-05-02T10:30:24Z</time></trkpt><trkpt lat="44.21503989866345" lon="10.23514189786646"><ele>933.0</ele><time>2026-05-02T10:30:25Z</time></trkpt><trkpt lat="44.21498705444279" lon="10.235258728124492"><ele>933.0</ele><time>2026-05-02T10:30:26Z</time></trkpt><trkpt lat="44.21492987995683" lon="10.235350500972897"><ele>933.0</ele><time>2026-05-02T10:30:27Z</time></trkpt><trkpt lat="44.21486049012446" lon="10.235403999739537"><ele>933.0</ele><time>2026-05-02T10:30:28Z</time></trkpt><trkpt lat="44.21478488968848" lon="10.235422251844748"><ele>933.0</ele><time>2026-05-02T10:30:29Z</time></trkpt><trkpt lat="44.21471357270304" lon="10.235390877174952"><ele>933.0</ele><time>2026-05-02T10:30:29.999Z</time></trkpt><trkpt lat="44.214642790541646" lon="10.235339743972292"><ele>933.0</ele><time>2026-05-02T10:30:30.999Z</time></trkpt><trkpt lat="44.214576484180995" lon="10.235315917495027"><ele>934.5</ele><time>2026-05-02T10:30:31.999Z</time></trkpt><trkpt lat="44.214508454151456" lon="10.235276228878496"><ele>936.0</ele><time>2026-05-02T10:30:33.999Z</time></trkpt><trkpt lat="44.21445060552353" lon="10.235232178237558"><ele>937.5</ele><time>2026-05-02T10:30:45.999Z</time></trkpt><trkpt lat="44.21436049874199" lon="10.23518033805729"><ele>939.0</ele><time>2026-05-02T10:30:47.999Z</time></trkpt><trkpt lat="44.21429312618997" lon="10.235141393254468"><ele>940.5</ele><time>2026-05-02T10:30:48.999Z</time></trkpt><trkpt lat="44.21421261387302" lon="10.235114099400723"><ele>942.0</ele><time>2026-05-02T10:30:49.999Z</time></trkpt><trkpt lat="44.21413760061222" lon="10.2351196539688"><ele>942.0</ele><time>2026-05-02T10:30:50.999Z</time></trkpt><trkpt lat="44.214072025389136" lon="10.235188214163035"><ele>942.0</ele><time>2026-05-02T10:30:51.999Z</time></trkpt><trkpt lat="44.21403900762533" lon="10.235304569040826"><ele>942.0</ele><time>2026-05-02T10:30:52.999Z</time></trkpt><trkpt lat="44.21404469449362" lon="10.235441372726383"><ele>942.0</ele><time>2026-05-02T10:30:53.999Z</time></trkpt><trkpt lat="44.2140385331156" lon="10.235574493642808"><ele>942.0</ele><time>2026-05-02T10:30:54.999Z</time></trkpt><trkpt lat="44.214032082495024" lon="10.235718355914626"><ele>940.0</ele><time>2026-05-02T10:30:55.999Z</time></trkpt><trkpt lat="44.21402162351659" lon="10.23584378789505"><ele>938.0</ele><time>2026-05-02T10:30:56.999Z</time></trkpt><trkpt lat="44.21401210969321" lon="10.235957450906179"><ele>936.0</ele><time>2026-05-02T10:30:57.999Z</time></trkpt><trkpt lat="44.21401152295873" lon="10.236070132307356"><ele>934.0</ele><time>2026-05-02T10:30:58.999Z</time></trkpt><trkpt lat="44.21402308402439" lon="10.236175422866125"><ele>932.0</ele><time>2026-05-02T10:30:59.999Z</time></trkpt><trkpt lat="44.21403882460259" lon="10.236274379381001"><ele>930.0</ele><time>2026-05-02T10:31:00.999Z</time></trkpt><trkpt lat="44.214069357018694" lon="10.23636764071996"><ele>930.0</ele><time>2026-05-02T10:31:01.999Z</time></trkpt><trkpt lat="44.214100612322035" lon="10.236464877235694"><ele>930.0</ele><time>2026-05-02T10:31:02.999Z</time></trkpt><trkpt lat="44.214132153187336" lon="10.236573789108414"><ele>930.0</ele><time>2026-05-02T10:31:03.999Z</time></trkpt><trkpt lat="44.21416609906359" lon="10.236690502976487"><ele>930.0</ele><time>2026-05-02T10:31:04.999Z</time></trkpt><trkpt lat="44.21418789248077" lon="10.236800826040358"><ele>930.0</ele><time>2026-05-02T10:31:05.999Z</time></trkpt><trkpt lat="44.21419132173129" lon="10.236910162652585"><ele>930.0</ele><time>2026-05-02T10:31:06.999Z</time></trkpt><trkpt lat="44.21417179618179" lon="10.23701427910437"><ele>928.5</ele><time>2026-05-02T10:31:07.999Z</time></trkpt><trkpt lat="44.21412352442968" lon="10.237115449629275"><ele>927.0</ele><time>2026-05-02T10:31:08.999Z</time></trkpt><trkpt lat="44.21409891725958" lon="10.237247615768649"><ele>925.5</ele><time>2026-05-02T10:31:09.999Z</time></trkpt><trkpt lat="44.21406298704295" lon="10.237364408232601"><ele>924.0</ele><time>2026-05-02T10:31:10.999Z</time></trkpt><trkpt lat="44.21403677678978" lon="10.237480619785257"><ele>922.5</ele><time>2026-05-02T10:31:11.999Z</time></trkpt><trkpt lat="44.21402506970569" lon="10.23758688257356"><ele>921.0</ele><time>2026-05-02T10:31:12.999Z</time></trkpt><trkpt lat="44.21399073994327" lon="10.237678765114515"><ele>922.1666666666666</ele><time>2026-05-02T10:31:13.999Z</time></trkpt><trkpt lat="44.213959452946575" lon="10.237774773998323"><ele>923.3333333333333</ele><time>2026-05-02T10:31:14.999Z</time></trkpt><trkpt lat="44.213910994391526" lon="10.237869651358285"><ele>924.5</ele><time>2026-05-02T10:31:15.999Z</time></trkpt><trkpt lat="44.21385297491097" lon="10.237965234019478"><ele>925.6666666666666</ele><time>2026-05-02T10:31:16.999Z</time></trkpt><trkpt lat="44.213787643104624" lon="10.238068828963176"><ele>926.8333333333333</ele><time>2026-05-02T10:31:17.999Z</time></trkpt><trkpt lat="44.21373343041164" lon="10.238185090248843"><ele>928.0</ele><time>2026-05-02T10:31:18.999Z</time></trkpt><trkpt lat="44.213673664638605" lon="10.238279672170766"><ele>928.0</ele><time>2026-05-02T10:31:19.999Z</time></trkpt><trkpt lat="44.21361387597538" lon="10.238380494065371"><ele>928.0</ele><time>2026-05-02T10:31:20.999Z</time></trkpt><trkpt lat="44.21356020345763" lon="10.238482679508955"><ele>928.0</ele><time>2026-05-02T10:31:21.999Z</time></trkpt><trkpt lat="44.21349410634473" lon="10.238582268850912"><ele>928.0</ele><time>2026-05-02T10:31:22.999Z</time></trkpt><trkpt lat="44.21341990746654" lon="10.238677293308887"><ele>928.0</ele><time>2026-05-02T10:31:23.999Z</time></trkpt><trkpt lat="44.21334259983081" lon="10.23877493893924"><ele>928.0</ele><time>2026-05-02T10:31:24.999Z</time></trkpt><trkpt lat="44.2132726329519" lon="10.238880803182623"><ele>928.0</ele><time>2026-05-02T10:31:25.999Z</time></trkpt><trkpt lat="44.21319857664596" lon="10.238982691302223"><ele>928.0</ele><time>2026-05-02T10:31:26.999Z</time></trkpt><trkpt lat="44.21312007226069" lon="10.239078446741784"><ele>928.0</ele><time>2026-05-02T10:31:27.999Z</time></trkpt><trkpt lat="44.213056562136636" lon="10.239178469203857"><ele>928.0</ele><time>2026-05-02T10:31:28.999Z</time></trkpt><trkpt lat="44.212993137078804" lon="10.239280446090472"><ele>927.0</ele><time>2026-05-02T10:31:29.999Z</time></trkpt><trkpt lat="44.21295882024633" lon="10.239411885827634"><ele>926.0</ele><time>2026-05-02T10:31:30.999Z</time></trkpt><trkpt lat="44.212950064372016" lon="10.239562161825868"><ele>925.0</ele><time>2026-05-02T10:31:31.999Z</time></trkpt><trkpt lat="44.212934819023516" lon="10.239707255607723"><ele>924.0</ele><time>2026-05-02T10:31:32.999Z</time></trkpt><trkpt lat="44.212929136267356" lon="10.239851509776027"><ele>923.0</ele><time>2026-05-02T10:31:33.999Z</time></trkpt><trkpt lat="44.212911454294485" lon="10.239991366648828"><ele>923.0</ele><time>2026-05-02T10:31:34.999Z</time></trkpt><trkpt lat="44.21292259562209" lon="10.240134270976434"><ele>923.0</ele><time>2026-05-02T10:31:35.999Z</time></trkpt><trkpt lat="44.212914547257554" lon="10.240271733050596"><ele>923.0</ele><time>2026-05-02T10:31:36.999Z</time></trkpt><trkpt lat="44.21291035091265" lon="10.240412013847944"><ele>923.0</ele><time>2026-05-02T10:31:37.999Z</time></trkpt><trkpt lat="44.212902774004824" lon="10.240548860263159"><ele>923.0</ele><time>2026-05-02T10:31:39Z</time></trkpt><trkpt lat="44.212878748421886" lon="10.240676415606789"><ele>921.6666666666667</ele><time>2026-05-02T10:31:40Z</time></trkpt><trkpt lat="44.21285690235607" lon="10.240791819696067"><ele>920.3333333333334</ele><time>2026-05-02T10:31:41Z</time></trkpt><trkpt lat="44.212819817596774" lon="10.240886563968147"><ele>919.0</ele><time>2026-05-02T10:31:42Z</time></trkpt><trkpt lat="44.21274932874556" lon="10.240950982977733"><ele>917.6666666666667</ele><time>2026-05-02T10:31:43Z</time></trkpt><trkpt lat="44.212670333506914" lon="10.240979516742385"><ele>916.3333333333334</ele><time>2026-05-02T10:31:44Z</time></trkpt><trkpt lat="44.21257382266163" lon="10.240974532762767"><ele>915.0</ele><time>2026-05-02T10:31:45Z</time></trkpt><trkpt lat="44.212477456219496" lon="10.241006493361112"><ele>915.0</ele><time>2026-05-02T10:31:46Z</time></trkpt><trkpt lat="44.212381851976154" lon="10.241018273096284"><ele>915.0</ele><time>2026-05-02T10:31:47Z</time></trkpt><trkpt lat="44.212299416335156" lon="10.241059821058759"><ele>915.0</ele><time>2026-05-02T10:31:48Z</time></trkpt><trkpt lat="44.21222914977512" lon="10.241126689680758"><ele>915.0</ele><time>2026-05-02T10:31:49Z</time></trkpt><trkpt lat="44.21217463352766" lon="10.241222519061191"><ele>915.0</ele><time>2026-05-02T10:31:50Z</time></trkpt><trkpt lat="44.21213840496027" lon="10.24133879207528"><ele>915.0</ele><time>2026-05-02T10:31:51Z</time></trkpt><trkpt lat="44.21212450902818" lon="10.241461632365596"><ele>915.8</ele><time>2026-05-02T10:31:52Z</time></trkpt><trkpt lat="44.212129017996475" lon="10.241598548916786"><ele>916.6</ele><time>2026-05-02T10:31:53Z</time></trkpt><trkpt lat="44.21215514508963" lon="10.241736687564561"><ele>917.4000000000001</ele><time>2026-05-02T10:31:54Z</time></trkpt><trkpt lat="44.21220103944866" lon="10.241876155870552"><ele>918.2</ele><time>2026-05-02T10:31:55Z</time></trkpt><trkpt lat="44.212255498695505" lon="10.242019743077561"><ele>919.0</ele><time>2026-05-02T10:31:56Z</time></trkpt><trkpt lat="44.21226505707616" lon="10.242163803998315"><ele>917.2</ele><time>2026-05-02T10:31:57Z</time></trkpt><trkpt lat="44.21227089862179" lon="10.242302184394656"><ele>915.4000000000001</ele><time>2026-05-02T10:31:58Z</time></trkpt><trkpt lat="44.212221118310765" lon="10.242413262034175"><ele>913.6</ele><time>2026-05-02T10:31:59Z</time></trkpt><trkpt lat="44.21217292603667" lon="10.242550285648894"><ele>911.8</ele><time>2026-05-02T10:32:00Z</time></trkpt><trkpt lat="44.21211776577445" lon="10.242695393140297"><ele>910.0</ele><time>2026-05-02T10:32:01Z</time></trkpt><trkpt lat="44.21207446048932" lon="10.242858690476973"><ele>910.0</ele><time>2026-05-02T10:32:02Z</time></trkpt><trkpt lat="44.212007389218364" lon="10.242994145829107"><ele>910.0</ele><time>2026-05-02T10:32:03Z</time></trkpt><trkpt lat="44.21195394747876" lon="10.24313877368259"><ele>910.0</ele><time>2026-05-02T10:32:04Z</time></trkpt><trkpt lat="44.2119023362216" lon="10.243276143480625"><ele>910.0</ele><time>2026-05-02T10:32:05Z</time></trkpt><trkpt lat="44.21185164455767" lon="10.243411669594758"><ele>907.2</ele><time>2026-05-02T10:32:06Z</time></trkpt><trkpt lat="44.21180209948224" lon="10.243540659788117"><ele>904.4</ele><time>2026-05-02T10:32:07Z</time></trkpt><trkpt lat="44.21175313343871" lon="10.243672360123693"><ele>901.5999999999999</ele><time>2026-05-02T10:32:08Z</time></trkpt><trkpt lat="44.21170696474653" lon="10.243805536408251"><ele>898.8</ele><time>2026-05-02T10:32:09Z</time></trkpt><trkpt lat="44.211662729873034" lon="10.243940475680095"><ele>896.0</ele><time>2026-05-02T10:32:10Z</time></trkpt><trkpt lat="44.21162120321405" lon="10.244079691352207"><ele>894.4</ele><time>2026-05-02T10:32:11Z</time></trkpt><trkpt lat="44.21160278469088" lon="10.244219621629693"><ele>892.8</ele><time>2026-05-02T10:32:12Z</time></trkpt><trkpt lat="44.21158036796832" lon="10.244350950122175"><ele>891.1999999999999</ele><time>2026-05-02T10:32:13Z</time></trkpt><trkpt lat="44.2115654028257" lon="10.244479483928215"><ele>889.5999999999999</ele><time>2026-05-02T10:32:14Z</time></trkpt><trkpt lat="44.21153609284652" lon="10.244616799341374"><ele>888.0</ele><time>2026-05-02T10:32:15Z</time></trkpt><trkpt lat="44.21152158351425" lon="10.244760036190817"><ele>887.0</ele><time>2026-05-02T10:32:16Z</time></trkpt><trkpt lat="44.211506621921" lon="10.24490482956379"><ele>886.0</ele><time>2026-05-02T10:32:17Z</time></trkpt><trkpt lat="44.21148986379257" lon="10.245044604057464"><ele>885.0</ele><time>2026-05-02T10:32:18Z</time></trkpt><trkpt lat="44.21146820901901" lon="10.245174540870751"><ele>884.0</ele><time>2026-05-02T10:32:19Z</time></trkpt><trkpt lat="44.21143107423569" lon="10.245287284017264"><ele>883.0</ele><time>2026-05-02T10:32:20Z</time></trkpt><trkpt lat="44.21137614789942" lon="10.24538944820913"><ele>881.8</ele><time>2026-05-02T10:32:21Z</time></trkpt><trkpt lat="44.211316712517615" lon="10.24550931128327"><ele>880.5999999999999</ele><time>2026-05-02T10:32:22Z</time></trkpt><trkpt lat="44.21126302287754" lon="10.245618851841138"><ele>879.4000000000001</ele><time>2026-05-02T10:32:23Z</time></trkpt><trkpt lat="44.21120907688729" lon="10.245731026585307"><ele>878.2</ele><time>2026-05-02T10:32:24Z</time></trkpt><trkpt lat="44.21116290983478" lon="10.245827025805156"><ele>877.0</ele><time>2026-05-02T10:32:25Z</time></trkpt><trkpt lat="44.21111286120618" lon="10.245931096409834"><ele>877.0</ele><time>2026-05-02T10:32:26Z</time></trkpt><trkpt lat="44.211068366092185" lon="10.246023619031723"><ele>877.0</ele><time>2026-05-02T10:32:26.999Z</time></trkpt><trkpt lat="44.21101334634232" lon="10.246138026527422"><ele>877.0</ele><time>2026-05-02T10:32:27.999Z</time></trkpt><trkpt lat="44.2109662877722" lon="10.246223512288712"><ele>877.0</ele><time>2026-05-02T10:32:28.999Z</time></trkpt><trkpt lat="44.21086956607518" lon="10.246252872884625"><ele>877.0</ele><time>2026-05-02T10:32:30.999Z</time></trkpt><trkpt lat="44.210782684689" lon="10.24614421363581"><ele>876.9999999999999</ele><time>2026-05-02T10:32:32.999Z</time></trkpt><trkpt lat="44.21078388892804" lon="10.246050228465625"><ele>877.0</ele><time>2026-05-02T10:32:33.999Z</time></trkpt><trkpt lat="44.210822042910635" lon="10.24595662337976"><ele>877.0</ele><time>2026-05-02T10:32:34.999Z</time></trkpt><trkpt lat="44.21088158436474" lon="10.245870238105415"><ele>877.0</ele><time>2026-05-02T10:32:35.999Z</time></trkpt><trkpt lat="44.21091785270905" lon="10.245779871108182"><ele>876.9999999999999</ele><time>2026-05-02T10:32:36.999Z</time></trkpt><trkpt lat="44.21093361954078" lon="10.245675338987152"><ele>877.0</ele><time>2026-05-02T10:32:37.999Z</time></trkpt><trkpt lat="44.21092991345779" lon="10.245554840445292"><ele>876.8</ele><time>2026-05-02T10:32:38.999Z</time></trkpt><trkpt lat="44.210916375279545" lon="10.24544164519359"><ele>876.6</ele><time>2026-05-02T10:32:39.999Z</time></trkpt><trkpt lat="44.210864933677286" lon="10.245345216556384"><ele>876.3999999999999</ele><time>2026-05-02T10:32:40.999Z</time></trkpt><trkpt lat="44.210797281969604" lon="10.245261213345376"><ele>876.1999999999999</ele><time>2026-05-02T10:32:41.999Z</time></trkpt><trkpt lat="44.21074161489359" lon="10.245150008858065"><ele>876.0</ele><time>2026-05-02T10:32:42.999Z</time></trkpt><trkpt lat="44.2106802357483" lon="10.245036348091103"><ele>874.8</ele><time>2026-05-02T10:32:43.999Z</time></trkpt><trkpt lat="44.21062105593679" lon="10.24493086725403"><ele>873.5999999999999</ele><time>2026-05-02T10:32:44.999Z</time></trkpt><trkpt lat="44.210557029054264" lon="10.24484029237482"><ele>872.4</ele><time>2026-05-02T10:32:45.999Z</time></trkpt><trkpt lat="44.210484730641" lon="10.244760233859028"><ele>871.2</ele><time>2026-05-02T10:32:46.999Z</time></trkpt><trkpt lat="44.21039134420723" lon="10.244709447948928"><ele>870.0</ele><time>2026-05-02T10:32:47.999Z</time></trkpt><trkpt lat="44.21028595885372" lon="10.244683027038223"><ele>870.0</ele><time>2026-05-02T10:32:48.999Z</time></trkpt><trkpt lat="44.210179432799656" lon="10.244659174136476"><ele>870.0</ele><time>2026-05-02T10:32:49.999Z</time></trkpt><trkpt lat="44.210084499397425" lon="10.244646083183127"><ele>870.0</ele><time>2026-05-02T10:32:50.999Z</time></trkpt><trkpt lat="44.20999667015222" lon="10.244622173413882"><ele>870.0</ele><time>2026-05-02T10:32:51.999Z</time></trkpt><trkpt lat="44.209914320380534" lon="10.24470230762695"><ele>870.0</ele><time>2026-05-02T10:32:52.999Z</time></trkpt><trkpt lat="44.209843877208876" lon="10.244764807689538"><ele>866.0</ele><time>2026-05-02T10:32:53.999Z</time></trkpt><trkpt lat="44.209784136507835" lon="10.244861073754517"><ele>862.0</ele><time>2026-05-02T10:32:54.999Z</time></trkpt><trkpt lat="44.209741687867805" lon="10.244980607419723"><ele>858.0</ele><time>2026-05-02T10:32:55.999Z</time></trkpt><trkpt lat="44.209711431087186" lon="10.24512228537016"><ele>854.0</ele><time>2026-05-02T10:32:56.999Z</time></trkpt><trkpt lat="44.20968442304696" lon="10.245268631442231"><ele>850.0</ele><time>2026-05-02T10:32:57.999Z</time></trkpt><trkpt lat="44.20966104116196" lon="10.245402243229947"><ele>850.0</ele><time>2026-05-02T10:32:58.999Z</time></trkpt><trkpt lat="44.20963463405189" lon="10.245529208872004"><ele>850.0</ele><time>2026-05-02T10:32:59.999Z</time></trkpt><trkpt lat="44.20958848988008" lon="10.2456475548133"><ele>850.0</ele><time>2026-05-02T10:33:00.999Z</time></trkpt><trkpt lat="44.209561427160246" lon="10.245770120197614"><ele>850.0</ele><time>2026-05-02T10:33:01.999Z</time></trkpt><trkpt lat="44.20953765619683" lon="10.245894102011807"><ele>850.0</ele><time>2026-05-02T10:33:02.999Z</time></trkpt><trkpt lat="44.209510220610106" lon="10.246017225025543"><ele>849.4999999999999</ele><time>2026-05-02T10:33:03.999Z</time></trkpt><trkpt lat="44.209484879140355" lon="10.24613309841162"><ele>849.0</ele><time>2026-05-02T10:33:04.999Z</time></trkpt><trkpt lat="44.20946577328778" lon="10.24624646648139"><ele>848.5</ele><time>2026-05-02T10:33:05.999Z</time></trkpt><trkpt lat="44.20945765178271" lon="10.246364028722313"><ele>848.0</ele><time>2026-05-02T10:33:06.999Z</time></trkpt><trkpt lat="44.209454305098" lon="10.246488088176848"><ele>847.4999999999999</ele><time>2026-05-02T10:33:07.999Z</time></trkpt><trkpt lat="44.20945063554147" lon="10.246609630242933"><ele>847.0</ele><time>2026-05-02T10:33:08.999Z</time></trkpt><trkpt lat="44.20944689380713" lon="10.24673356295084"><ele>846.9999999999999</ele><time>2026-05-02T10:33:09.999Z</time></trkpt><trkpt lat="44.20943861230104" lon="10.246839677850028"><ele>847.0</ele><time>2026-05-02T10:33:10.999Z</time></trkpt><trkpt lat="44.20939413073746" lon="10.246948981761786"><ele>847.0</ele><time>2026-05-02T10:33:12.999Z</time></trkpt><trkpt lat="44.209300796583165" lon="10.246994658308067"><ele>847.0</ele><time>2026-05-02T10:33:14.999Z</time></trkpt><trkpt lat="44.20923483565313" lon="10.247080193921963"><ele>846.9999999999999</ele><time>2026-05-02T10:33:16.999Z</time></trkpt><trkpt lat="44.20918178679392" lon="10.247157649377051"><ele>847.0</ele><time>2026-05-02T10:33:19.999Z</time></trkpt><trkpt lat="44.20912161580845" lon="10.24722034588851"><ele>847.0</ele><time>2026-05-02T10:33:24.999Z</time></trkpt><trkpt lat="44.209109659674695" lon="10.247315487742362"><ele>851.0</ele><time>2026-05-02T10:33:40.999Z</time></trkpt></trkseg><trkseg><trkpt lat="44.20896332781414" lon="10.247161027458672"><ele>834.8333333333334</ele><time>2026-05-02T12:55:12.435Z</time></trkpt><trkpt lat="44.20904110539393" lon="10.247253014186786"><ele>835.6666666666667</ele><time>2026-05-02T12:55:14.498Z</time></trkpt><trkpt lat="44.209100296723314" lon="10.247326853294393"><ele>836.5</ele><time>2026-05-02T12:55:15.498Z</time></trkpt><trkpt lat="44.20902790787463" lon="10.247300813848808"><ele>837.3333333333334</ele><time>2026-05-02T12:57:16.999Z</time></trkpt><trkpt lat="44.20895100905557" lon="10.247367221871428"><ele>838.1666666666667</ele><time>2026-05-02T12:57:18.999Z</time></trkpt><trkpt lat="44.208879847837636" lon="10.24741662571123"><ele>839.0</ele><time>2026-05-02T12:57:20.999Z</time></trkpt><trkpt lat="44.20878581242118" lon="10.247459427146117"><ele>839.0</ele><time>2026-05-02T12:57:22.999Z</time></trkpt><trkpt lat="44.20868154151097" lon="10.247496517967356"><ele>839.0</ele><time>2026-05-02T12:57:24.999Z</time></trkpt><trkpt lat="44.20854447091384" lon="10.247475455570688"><ele>839.0</ele><time>2026-05-02T12:57:26.999Z</time></trkpt><trkpt lat="44.20845594387503" lon="10.247477154306626"><ele>839.0</ele><time>2026-05-02T12:57:27.999Z</time></trkpt><trkpt lat="44.20836166047543" lon="10.247483044725387"><ele>839.0</ele><time>2026-05-02T12:57:28.999Z</time></trkpt><trkpt lat="44.20826900090725" lon="10.247488833697002"><ele>839.0</ele><time>2026-05-02T12:57:29.999Z</time></trkpt><trkpt lat="44.208175737228586" lon="10.247493254033538"><ele>839.0</ele><time>2026-05-02T12:57:30.999Z</time></trkpt><trkpt lat="44.208100865470534" lon="10.247494276440799"><ele>839.0</ele><time>2026-05-02T12:57:31.999Z</time></trkpt><trkpt lat="44.20802944505578" lon="10.247488148097554"><ele>839.0</ele><time>2026-05-02T12:57:32.999Z</time></trkpt><trkpt lat="44.207921362751776" lon="10.24743721466139"><ele>839.0</ele><time>2026-05-02T12:57:34.999Z</time></trkpt><trkpt lat="44.20784081054907" lon="10.247349437499203"><ele>834.5</ele><time>2026-05-02T12:57:36.999Z</time></trkpt><trkpt lat="44.20778137556109" lon="10.247230928128367"><ele>830.0</ele><time>2026-05-02T12:57:38.999Z</time></trkpt><trkpt lat="44.20779030463751" lon="10.24708271846584"><ele>825.5</ele><time>2026-05-02T12:57:40.999Z</time></trkpt><trkpt lat="44.20789877676173" lon="10.247004451747172"><ele>821.0</ele><time>2026-05-02T12:57:42.999Z</time></trkpt><trkpt lat="44.20801128565345" lon="10.24693801241131"><ele>821.0000000000001</ele><time>2026-05-02T12:57:44.999Z</time></trkpt><trkpt lat="44.20805533620445" lon="10.246871291491377"><ele>821.0</ele><time>2026-05-02T12:57:45.999Z</time></trkpt><trkpt lat="44.20806218543776" lon="10.246771116866745"><ele>821.0</ele><time>2026-05-02T12:57:46.999Z</time></trkpt><trkpt lat="44.20803993194342" lon="10.24666613709788"><ele>821.0</ele><time>2026-05-02T12:57:47.999Z</time></trkpt><trkpt lat="44.208008515950524" lon="10.24657539936503"><ele>821.0000000000001</ele><time>2026-05-02T12:57:48.999Z</time></trkpt><trkpt lat="44.207945738988734" lon="10.246434483410175"><ele>821.0</ele><time>2026-05-02T12:57:50.999Z</time></trkpt><trkpt lat="44.20798248553249" lon="10.246294372988636"><ele>821.0</ele><time>2026-05-02T12:57:51.999Z</time></trkpt><trkpt lat="44.20799788832213" lon="10.246168418807187"><ele>821.0</ele><time>2026-05-02T12:57:52.999Z</time></trkpt><trkpt lat="44.20801821053621" lon="10.246030018384724"><ele>821.0</ele><time>2026-05-02T12:57:53.999Z</time></trkpt><trkpt lat="44.2080356400149" lon="10.245877051870353"><ele>821.0</ele><time>2026-05-02T12:57:54.999Z</time></trkpt><trkpt lat="44.208055454135554" lon="10.245736158722815"><ele>821.0</ele><time>2026-05-02T12:57:55.999Z</time></trkpt><trkpt lat="44.20807703846984" lon="10.245601794795354"><ele>821.0000000000001</ele><time>2026-05-02T12:57:56.999Z</time></trkpt><trkpt lat="44.208112535969434" lon="10.245483134307353"><ele>821.0</ele><time>2026-05-02T12:57:57.999Z</time></trkpt><trkpt lat="44.20811589462945" lon="10.245380431800049"><ele>821.0</ele><time>2026-05-02T12:57:58.999Z</time></trkpt><trkpt lat="44.208095428909935" lon="10.245260921627404"><ele>821.0</ele><time>2026-05-02T12:57:59.999Z</time></trkpt><trkpt lat="44.20805612207382" lon="10.245148649444117"><ele>821.0000000000001</ele><time>2026-05-02T12:58:00.999Z</time></trkpt><trkpt lat="44.207992464659256" lon="10.24505770826649"><ele>821.0</ele><time>2026-05-02T12:58:01.999Z</time></trkpt><trkpt lat="44.20791667903265" lon="10.244998991615349"><ele>821.0000000000001</ele><time>2026-05-02T12:58:02.999Z</time></trkpt><trkpt lat="44.207839349525344" lon="10.244973745175248"><ele>821.0</ele><time>2026-05-02T12:58:03.999Z</time></trkpt><trkpt lat="44.2077574740452" lon="10.24498115332169"><ele>821.0</ele><time>2026-05-02T12:58:04.999Z</time></trkpt><trkpt lat="44.20767140597081" lon="10.245022820547582"><ele>821.0</ele><time>2026-05-02T12:58:05.999Z</time></trkpt><trkpt lat="44.20757802715068" lon="10.245054073440263"><ele>821.0000000000001</ele><time>2026-05-02T12:58:06.999Z</time></trkpt><trkpt lat="44.20749040528118" lon="10.245083904649233"><ele>821.0</ele><time>2026-05-02T12:58:07.999Z</time></trkpt><trkpt lat="44.20741700344228" lon="10.245104189884598"><ele>821.0000000000001</ele><time>2026-05-02T12:58:08.999Z</time></trkpt><trkpt lat="44.20734879403795" lon="10.24505127465517"><ele>821.0</ele><time>2026-05-02T12:58:09.999Z</time></trkpt><trkpt lat="44.207312818778064" lon="10.24496753086555"><ele>821.0</ele><time>2026-05-02T12:58:10.999Z</time></trkpt><trkpt lat="44.207308332531966" lon="10.244866824451575"><ele>821.0</ele><time>2026-05-02T12:58:11.999Z</time></trkpt><trkpt lat="44.20733355718363" lon="10.244750499675643"><ele>821.0000000000001</ele><time>2026-05-02T12:58:12.999Z</time></trkpt><trkpt lat="44.20738525118466" lon="10.244613368561028"><ele>821.0</ele><time>2026-05-02T12:58:13.999Z</time></trkpt><trkpt lat="44.20744324287835" lon="10.244453925204208"><ele>822.0</ele><time>2026-05-02T12:58:14.999Z</time></trkpt><trkpt lat="44.20749884219673" lon="10.244272618702217"><ele>823.0</ele><time>2026-05-02T12:58:15.999Z</time></trkpt><trkpt lat="44.20754671202258" lon="10.244108843774507"><ele>824.0</ele><time>2026-05-02T12:58:16.999Z</time></trkpt><trkpt lat="44.207580826393944" lon="10.24398710135702"><ele>825.0</ele><time>2026-05-02T12:58:17.999Z</time></trkpt><trkpt lat="44.2075987983602" lon="10.243882845341048"><ele>826.0</ele><time>2026-05-02T12:58:18.999Z</time></trkpt><trkpt lat="44.20759331484374" lon="10.243794037725724"><ele>827.1666666666666</ele><time>2026-05-02T12:58:19.999Z</time></trkpt><trkpt lat="44.20754933262584" lon="10.24370378690448"><ele>828.3333333333333</ele><time>2026-05-02T12:58:20.999Z</time></trkpt><trkpt lat="44.2074818141833" lon="10.243618777028086"><ele>829.5</ele><time>2026-05-02T12:58:21.999Z</time></trkpt><trkpt lat="44.207407633607836" lon="10.243527768778957"><ele>830.6666666666667</ele><time>2026-05-02T12:58:22.999Z</time></trkpt><trkpt lat="44.207334133615255" lon="10.24343532501694"><ele>831.8333333333334</ele><time>2026-05-02T12:58:23.999Z</time></trkpt><trkpt lat="44.207266458841886" lon="10.243373870530824"><ele>833.0</ele><time>2026-05-02T12:58:24.999Z</time></trkpt><trkpt lat="44.20719988993692" lon="10.24335565466076"><ele>834.5000000000001</ele><time>2026-05-02T12:58:25.999Z</time></trkpt><trkpt lat="44.207129642579694" lon="10.243369657057908"><ele>836.0</ele><time>2026-05-02T12:58:26.999Z</time></trkpt><trkpt lat="44.20706470520781" lon="10.243424540451555"><ele>837.5</ele><time>2026-05-02T12:58:27.999Z</time></trkpt><trkpt lat="44.207005047740275" lon="10.243506462952766"><ele>839.0</ele><time>2026-05-02T12:58:28.999Z</time></trkpt><trkpt lat="44.20694972644842" lon="10.243614185817925"><ele>840.5000000000001</ele><time>2026-05-02T12:58:29.999Z</time></trkpt><trkpt lat="44.20689464761387" lon="10.243725013439017"><ele>842.0</ele><time>2026-05-02T12:58:30.999Z</time></trkpt><trkpt lat="44.206814789007744" lon="10.243828165388493"><ele>842.0</ele><time>2026-05-02T12:58:31.999Z</time></trkpt><trkpt lat="44.206693569115075" lon="10.243865437507708"><ele>842.0</ele><time>2026-05-02T12:58:32.999Z</time></trkpt><trkpt lat="44.20659180669783" lon="10.24392453088522"><ele>842.0</ele><time>2026-05-02T12:58:33.999Z</time></trkpt><trkpt lat="44.20649603465427" lon="10.24396421550818"><ele>842.0</ele><time>2026-05-02T12:58:34.999Z</time></trkpt><trkpt lat="44.20639417799103" lon="10.243972638048536"><ele>842.0</ele><time>2026-05-02T12:58:35.999Z</time></trkpt><trkpt lat="44.20628850682474" lon="10.24393971466571"><ele>841.0</ele><time>2026-05-02T12:58:36.999Z</time></trkpt><trkpt lat="44.206171651920975" lon="10.243897382823883"><ele>840.0</ele><time>2026-05-02T12:58:37.999Z</time></trkpt><trkpt lat="44.206046012596076" lon="10.24384793116661"><ele>839.0</ele><time>2026-05-02T12:58:38.999Z</time></trkpt><trkpt lat="44.205916164534116" lon="10.243800035658357"><ele>838.0</ele><time>2026-05-02T12:58:39.999Z</time></trkpt><trkpt lat="44.20578551233491" lon="10.243754848299131"><ele>834.25</ele><time>2026-05-02T12:58:40.999Z</time></trkpt><trkpt lat="44.20565180262655" lon="10.243709884488673"><ele>830.5</ele><time>2026-05-02T12:58:41.999Z</time></trkpt><trkpt lat="44.20552254839341" lon="10.243666418866889"><ele>826.75</ele><time>2026-05-02T12:58:42.999Z</time></trkpt><trkpt lat="44.20540811776425" lon="10.243627938236445"><ele>823.0</ele><time>2026-05-02T12:58:43.999Z</time></trkpt><trkpt lat="44.205307198926455" lon="10.243591798779525"><ele>822.9999999999999</ele><time>2026-05-02T12:58:44.999Z</time></trkpt><trkpt lat="44.20522444814335" lon="10.243557025914859"><ele>823.0</ele><time>2026-05-02T12:58:45.999Z</time></trkpt><trkpt lat="44.205167054699885" lon="10.243501403302291"><ele>823.0</ele><time>2026-05-02T12:58:46.999Z</time></trkpt><trkpt lat="44.205132245730724" lon="10.243343290419114"><ele>823.0</ele><time>2026-05-02T12:58:48.999Z</time></trkpt><trkpt lat="44.20517061247542" lon="10.243260209585046"><ele>822.9999999999999</ele><time>2026-05-02T12:58:49.999Z</time></trkpt><trkpt lat="44.2052320057811" lon="10.243183452991506"><ele>823.0</ele><time>2026-05-02T12:58:50.999Z</time></trkpt><trkpt lat="44.205315257911366" lon="10.243111396275935"><ele>824.0</ele><time>2026-05-02T12:58:51.999Z</time></trkpt><trkpt lat="44.205383525825006" lon="10.243009821625987"><ele>825.0</ele><time>2026-05-02T12:58:52.999Z</time></trkpt><trkpt lat="44.205427012374706" lon="10.24288217515341"><ele>826.0</ele><time>2026-05-02T12:58:53.999Z</time></trkpt><trkpt lat="44.205439510327516" lon="10.242759411612326"><ele>827.0</ele><time>2026-05-02T12:58:54.999Z</time></trkpt><trkpt lat="44.205428078823374" lon="10.242640505620631"><ele>828.0</ele><time>2026-05-02T12:58:55.999Z</time></trkpt><trkpt lat="44.205408755125596" lon="10.242517780167091"><ele>828.0</ele><time>2026-05-02T12:58:56.999Z</time></trkpt><trkpt lat="44.20537442260022" lon="10.242394887082542"><ele>828.0</ele><time>2026-05-02T12:58:57.999Z</time></trkpt><trkpt lat="44.20532524950355" lon="10.242284239396136"><ele>828.0</ele><time>2026-05-02T12:58:58.999Z</time></trkpt><trkpt lat="44.20526650983059" lon="10.242200585091387"><ele>828.0</ele><time>2026-05-02T12:58:59.999Z</time></trkpt><trkpt lat="44.2051911916812" lon="10.242152185577908"><ele>828.0</ele><time>2026-05-02T12:59:00.999Z</time></trkpt><trkpt lat="44.20509743943145" lon="10.242133210052144"><ele>828.0</ele><time>2026-05-02T12:59:01.999Z</time></trkpt><trkpt lat="44.20499118461634" lon="10.242122509031665"><ele>828.8</ele><time>2026-05-02T12:59:02.999Z</time></trkpt><trkpt lat="44.2048786446976" lon="10.242127255461474"><ele>829.5999999999999</ele><time>2026-05-02T12:59:03.999Z</time></trkpt><trkpt lat="44.20476868975259" lon="10.24208758640848"><ele>830.4000000000001</ele><time>2026-05-02T12:59:04.999Z</time></trkpt><trkpt lat="44.204661567010454" lon="10.242069777229544"><ele>831.2</ele><time>2026-05-02T12:59:05.999Z</time></trkpt><trkpt lat="44.204567454410935" lon="10.242051212741206"><ele>832.0</ele><time>2026-05-02T12:59:06.999Z</time></trkpt><trkpt lat="44.20447487874343" lon="10.242032951403038"><ele>831.9999999999999</ele><time>2026-05-02T12:59:07.999Z</time></trkpt><trkpt lat="44.204374359649016" lon="10.242013123127416"><ele>832.0</ele><time>2026-05-02T12:59:08.999Z</time></trkpt><trkpt lat="44.20428556087876" lon="10.241988878387414"><ele>832.0</ele><time>2026-05-02T12:59:09.999Z</time></trkpt><trkpt lat="44.20421583487637" lon="10.241963626476556"><ele>832.0</ele><time>2026-05-02T12:59:10.999Z</time></trkpt><trkpt lat="44.20415399315553" lon="10.241936108307758"><ele>831.9999999999999</ele><time>2026-05-02T12:59:11.999Z</time></trkpt><trkpt lat="44.20411304984971" lon="10.241868927755638"><ele>832.0</ele><time>2026-05-02T12:59:12.999Z</time></trkpt><trkpt lat="44.20410069871523" lon="10.241778937779404"><ele>832.0</ele><time>2026-05-02T12:59:13.999Z</time></trkpt><trkpt lat="44.20410087311775" lon="10.241667387013106"><ele>832.0</ele><time>2026-05-02T12:59:14.999Z</time></trkpt><trkpt lat="44.20410140645037" lon="10.241539487274332"><ele>832.0</ele><time>2026-05-02T12:59:15.999Z</time></trkpt><trkpt lat="44.20409450195945" lon="10.241412228794637"><ele>832.0</ele><time>2026-05-02T12:59:16.999Z</time></trkpt><trkpt lat="44.20408394366421" lon="10.241274065900294"><ele>832.0</ele><time>2026-05-02T12:59:17.999Z</time></trkpt><trkpt lat="44.20407388630735" lon="10.241127312281224"><ele>831.4000000000001</ele><time>2026-05-02T12:59:18.999Z</time></trkpt><trkpt lat="44.20406389198256" lon="10.240977350303075"><ele>830.8000000000001</ele><time>2026-05-02T12:59:19.999Z</time></trkpt><trkpt lat="44.20404622471641" lon="10.240829920706974"><ele>830.2</ele><time>2026-05-02T12:59:20.999Z</time></trkpt><trkpt lat="44.20402343585626" lon="10.240688396938495"><ele>829.6</ele><time>2026-05-02T12:59:21.999Z</time></trkpt><trkpt lat="44.203991360112155" lon="10.240553854547787"><ele>829.0</ele><time>2026-05-02T12:59:22.999Z</time></trkpt><trkpt lat="44.203949109977884" lon="10.240415544110864"><ele>829.0</ele><time>2026-05-02T12:59:23.999Z</time></trkpt><trkpt lat="44.20390840291269" lon="10.240283542017742"><ele>829.0</ele><time>2026-05-02T12:59:24.999Z</time></trkpt><trkpt lat="44.20387664632965" lon="10.24016676626677"><ele>829.0</ele><time>2026-05-02T12:59:25.999Z</time></trkpt><trkpt lat="44.203836692828965" lon="10.240069800001102"><ele>829.0</ele><time>2026-05-02T12:59:26.999Z</time></trkpt><trkpt lat="44.203777149404395" lon="10.239981385241098"><ele>829.0</ele><time>2026-05-02T12:59:27.999Z</time></trkpt><trkpt lat="44.20370153263739" lon="10.239907970921305"><ele>829.0</ele><time>2026-05-02T12:59:28.999Z</time></trkpt><trkpt lat="44.20360847675037" lon="10.239855691498029"><ele>829.0</ele><time>2026-05-02T12:59:29.999Z</time></trkpt><trkpt lat="44.20350410230866" lon="10.239815624513392"><ele>829.0</ele><time>2026-05-02T12:59:30.999Z</time></trkpt><trkpt lat="44.203391183550266" lon="10.239771966710176"><ele>829.0</ele><time>2026-05-02T12:59:31.998Z</time></trkpt><trkpt lat="44.20327974334733" lon="10.239721324417257"><ele>829.0</ele><time>2026-05-02T12:59:32.998Z</time></trkpt><trkpt lat="44.2031771539746" lon="10.239641993460756"><ele>829.4000000000001</ele><time>2026-05-02T12:59:33.998Z</time></trkpt><trkpt lat="44.20307478031334" lon="10.239590563122114"><ele>829.8</ele><time>2026-05-02T12:59:34.998Z</time></trkpt><trkpt lat="44.202997531144916" lon="10.239504691747348"><ele>830.2</ele><time>2026-05-02T12:59:35.998Z</time></trkpt><trkpt lat="44.2029302020913" lon="10.239388275513607"><ele>830.5999999999999</ele><time>2026-05-02T12:59:36.998Z</time></trkpt><trkpt lat="44.20287989418365" lon="10.2392605600566"><ele>831.0</ele><time>2026-05-02T12:59:37.998Z</time></trkpt><trkpt lat="44.202837257527094" lon="10.239123217456495"><ele>831.0</ele><time>2026-05-02T12:59:38.999Z</time></trkpt><trkpt lat="44.20279763707171" lon="10.238986017598053"><ele>831.0</ele><time>2026-05-02T12:59:39.999Z</time></trkpt><trkpt lat="44.20274859510366" lon="10.238865231248457"><ele>831.0</ele><time>2026-05-02T12:59:40.999Z</time></trkpt><trkpt lat="44.202683187330955" lon="10.238760247457117"><ele>831.0</ele><time>2026-05-02T12:59:41.999Z</time></trkpt><trkpt lat="44.20259770878848" lon="10.23867693637194"><ele>831.0</ele><time>2026-05-02T12:59:42.999Z</time></trkpt><trkpt lat="44.202509899457866" lon="10.238610074327996"><ele>831.1999999999999</ele><time>2026-05-02T12:59:43.999Z</time></trkpt><trkpt lat="44.20241890006554" lon="10.238532616026372"><ele>831.4</ele><time>2026-05-02T12:59:44.999Z</time></trkpt><trkpt lat="44.202353985710225" lon="10.238416123293618"><ele>831.6</ele><time>2026-05-02T12:59:45.999Z</time></trkpt><trkpt lat="44.20227716635657" lon="10.238303080921163"><ele>831.8</ele><time>2026-05-02T12:59:46.999Z</time></trkpt><trkpt lat="44.20222856449462" lon="10.238162132162753"><ele>832.0</ele><time>2026-05-02T12:59:47.999Z</time></trkpt><trkpt lat="44.20218203572078" lon="10.23801397742867"><ele>832.0</ele><time>2026-05-02T12:59:48.999Z</time></trkpt><trkpt lat="44.20213703104396" lon="10.237873870675807"><ele>832.0</ele><time>2026-05-02T12:59:49.999Z</time></trkpt><trkpt lat="44.20209892900552" lon="10.23774430752862"><ele>832.0</ele><time>2026-05-02T12:59:50.999Z</time></trkpt><trkpt lat="44.2020746927698" lon="10.237610734924056"><ele>832.0</ele><time>2026-05-02T12:59:51.999Z</time></trkpt><trkpt lat="44.202074832644065" lon="10.237467419261725"><ele>832.0</ele><time>2026-05-02T12:59:52.999Z</time></trkpt><trkpt lat="44.20209030956923" lon="10.237315375414603"><ele>834.6</ele><time>2026-05-02T12:59:53.999Z</time></trkpt><trkpt lat="44.20211142837349" lon="10.237169072024923"><ele>837.2</ele><time>2026-05-02T12:59:54.999Z</time></trkpt><trkpt lat="44.202122658461406" lon="10.237036913661457"><ele>839.8</ele><time>2026-05-02T12:59:55.999Z</time></trkpt><trkpt lat="44.20211209434321" lon="10.236918344633377"><ele>842.4</ele><time>2026-05-02T12:59:56.999Z</time></trkpt><trkpt lat="44.20208415942709" lon="10.236837218010923"><ele>845.0</ele><time>2026-05-02T12:59:57.999Z</time></trkpt><trkpt lat="44.201981961010915" lon="10.23675096029805"><ele>845.0</ele><time>2026-05-02T12:59:59.999Z</time></trkpt><trkpt lat="44.20191464056096" lon="10.236722293047201"><ele>845.0</ele><time>2026-05-02T13:00:00.999Z</time></trkpt><trkpt lat="44.201833222972546" lon="10.236784678102302"><ele>845.0</ele><time>2026-05-02T13:00:01.999Z</time></trkpt><trkpt lat="44.20175968433486" lon="10.23685872072545"><ele>845.0</ele><time>2026-05-02T13:00:02.999Z</time></trkpt><trkpt lat="44.20166355224821" lon="10.236910872929458"><ele>845.0</ele><time>2026-05-02T13:00:03.999Z</time></trkpt><trkpt lat="44.201558093418626" lon="10.236965360339378"><ele>842.6</ele><time>2026-05-02T13:00:04.999Z</time></trkpt><trkpt lat="44.20146266395962" lon="10.236976748643901"><ele>840.2</ele><time>2026-05-02T13:00:05.999Z</time></trkpt><trkpt lat="44.201376287811016" lon="10.236965411901185"><ele>837.8</ele><time>2026-05-02T13:00:06.999Z</time></trkpt><trkpt lat="44.2013027248184" lon="10.236926686572197"><ele>835.4</ele><time>2026-05-02T13:00:07.999Z</time></trkpt><trkpt lat="44.20122861165036" lon="10.236828876886587"><ele>833.0</ele><time>2026-05-02T13:00:08.999Z</time></trkpt><trkpt lat="44.20116748073326" lon="10.23670942833798"><ele>833.0</ele><time>2026-05-02T13:00:09.999Z</time></trkpt><trkpt lat="44.20110052312927" lon="10.236581308619348"><ele>833.0</ele><time>2026-05-02T13:00:10.999Z</time></trkpt><trkpt lat="44.201048640109455" lon="10.236416323155874"><ele>833.0</ele><time>2026-05-02T13:00:11.999Z</time></trkpt><trkpt lat="44.20100874350555" lon="10.236229093755407"><ele>833.0</ele><time>2026-05-02T13:00:12.999Z</time></trkpt><trkpt lat="44.20098548731539" lon="10.236017124315651"><ele>834.0</ele><time>2026-05-02T13:00:13.999Z</time></trkpt><trkpt lat="44.200979846381486" lon="10.235816628341242"><ele>835.0</ele><time>2026-05-02T13:00:14.999Z</time></trkpt><trkpt lat="44.200998974089764" lon="10.235639737155227"><ele>836.0</ele><time>2026-05-02T13:00:15.999Z</time></trkpt><trkpt lat="44.20102985179569" lon="10.235464468412577"><ele>837.0</ele><time>2026-05-02T13:00:16.999Z</time></trkpt><trkpt lat="44.2010687931434" lon="10.235312593282915"><ele>837.0</ele><time>2026-05-02T13:00:17.999Z</time></trkpt><trkpt lat="44.201087388096305" lon="10.235162977405366"><ele>837.0</ele><time>2026-05-02T13:00:18.999Z</time></trkpt><trkpt lat="44.20108539625541" lon="10.235008450559873"><ele>837.0</ele><time>2026-05-02T13:00:19.999Z</time></trkpt><trkpt lat="44.20106404473905" lon="10.234851641907458"><ele>837.0</ele><time>2026-05-02T13:00:20.999Z</time></trkpt><trkpt lat="44.20104285605489" lon="10.234690198088275"><ele>837.5</ele><time>2026-05-02T13:00:21.999Z</time></trkpt><trkpt lat="44.20104140736162" lon="10.234523961163962"><ele>838.0</ele><time>2026-05-02T13:00:22.999Z</time></trkpt><trkpt lat="44.20106125916204" lon="10.23436469582165"><ele>838.5</ele><time>2026-05-02T13:00:23.999Z</time></trkpt><trkpt lat="44.20110037971188" lon="10.234208461040247"><ele>839.0</ele><time>2026-05-02T13:00:24.999Z</time></trkpt><trkpt lat="44.20115413440423" lon="10.234062994789818"><ele>839.5</ele><time>2026-05-02T13:00:25.999Z</time></trkpt><trkpt lat="44.201220502787635" lon="10.233936385711091"><ele>840.0</ele><time>2026-05-02T13:00:26.999Z</time></trkpt><trkpt lat="44.20129211349127" lon="10.233825924969775"><ele>840.5</ele><time>2026-05-02T13:00:27.999Z</time></trkpt><trkpt lat="44.20138409935372" lon="10.233713662584583"><ele>841.0</ele><time>2026-05-02T13:00:28.999Z</time></trkpt><trkpt lat="44.20146416557803" lon="10.233604013209222"><ele>841.8</ele><time>2026-05-02T13:00:29.999Z</time></trkpt><trkpt lat="44.20152817502165" lon="10.233519581123716"><ele>842.5999999999999</ele><time>2026-05-02T13:00:30.999Z</time></trkpt><trkpt lat="44.20156762998185" lon="10.233422766239084"><ele>843.4</ele><time>2026-05-02T13:00:31.999Z</time></trkpt><trkpt lat="44.201581521434555" lon="10.233300953800702"><ele>844.2</ele><time>2026-05-02T13:00:32.999Z</time></trkpt><trkpt lat="44.20157754463213" lon="10.233154234889792"><ele>845.0</ele><time>2026-05-02T13:00:33.999Z</time></trkpt><trkpt lat="44.20156261671494" lon="10.233011653362052"><ele>845.0</ele><time>2026-05-02T13:00:34.999Z</time></trkpt><trkpt lat="44.201569307870656" lon="10.232876487123688"><ele>845.0</ele><time>2026-05-02T13:00:35.999Z</time></trkpt><trkpt lat="44.201603125259446" lon="10.232756820225807"><ele>845.0</ele><time>2026-05-02T13:00:36.999Z</time></trkpt><trkpt lat="44.20167535427901" lon="10.23266942403379"><ele>845.0</ele><time>2026-05-02T13:00:37.999Z</time></trkpt><trkpt lat="44.201745949701404" lon="10.232571030393155"><ele>845.0</ele><time>2026-05-02T13:00:38.999Z</time></trkpt><trkpt lat="44.2018133605867" lon="10.232448829997692"><ele>845.0</ele><time>2026-05-02T13:00:39.999Z</time></trkpt><trkpt lat="44.201903051694124" lon="10.23235555152942"><ele>845.0</ele><time>2026-05-02T13:00:40.999Z</time></trkpt><trkpt lat="44.20197685705401" lon="10.232270553615928"><ele>845.0</ele><time>2026-05-02T13:00:41.999Z</time></trkpt><trkpt lat="44.20201919846924" lon="10.232179999641737"><ele>845.0</ele><time>2026-05-02T13:00:42.999Z</time></trkpt><trkpt lat="44.20202915266382" lon="10.232092604597891"><ele>845.0</ele><time>2026-05-02T13:00:43.999Z</time></trkpt><trkpt lat="44.20196110656294" lon="10.231947826421818"><ele>844.8</ele><time>2026-05-02T13:00:45.999Z</time></trkpt><trkpt lat="44.20188848210632" lon="10.231893406513793"><ele>844.6</ele><time>2026-05-02T13:00:46.999Z</time></trkpt><trkpt lat="44.20180018541377" lon="10.231860291030287"><ele>844.4000000000001</ele><time>2026-05-02T13:00:47.999Z</time></trkpt><trkpt lat="44.201704825253444" lon="10.23186054654381"><ele>844.2</ele><time>2026-05-02T13:00:48.999Z</time></trkpt><trkpt lat="44.201607263469505" lon="10.231900910104182"><ele>844.0</ele><time>2026-05-02T13:00:49.999Z</time></trkpt><trkpt lat="44.201490275606396" lon="10.231975785201818"><ele>844.0</ele><time>2026-05-02T13:00:50.999Z</time></trkpt><trkpt lat="44.201371859999284" lon="10.231996761308286"><ele>844.0</ele><time>2026-05-02T13:00:51.999Z</time></trkpt><trkpt lat="44.201255102119255" lon="10.232039701884627"><ele>844.0</ele><time>2026-05-02T13:00:52.999Z</time></trkpt><trkpt lat="44.201164827368174" lon="10.2320872336297"><ele>844.0</ele><time>2026-05-02T13:00:53.999Z</time></trkpt><trkpt lat="44.201071864415006" lon="10.23208734883192"><ele>844.0</ele><time>2026-05-02T13:00:54.999Z</time></trkpt><trkpt lat="44.20098194660867" lon="10.232032911040887"><ele>844.0</ele><time>2026-05-02T13:00:55.999Z</time></trkpt><trkpt lat="44.20088954569803" lon="10.231969177498984"><ele>844.0</ele><time>2026-05-02T13:00:56.999Z</time></trkpt><trkpt lat="44.20078334948087" lon="10.231922784794493"><ele>844.0</ele><time>2026-05-02T13:00:57.999Z</time></trkpt><trkpt lat="44.20068579824102" lon="10.231865692246778"><ele>844.0</ele><time>2026-05-02T13:00:58.999Z</time></trkpt><trkpt lat="44.20060425444006" lon="10.231820529377261"><ele>844.0</ele><time>2026-05-02T13:00:59.999Z</time></trkpt><trkpt lat="44.200531401845716" lon="10.231774244263447"><ele>843.3333333333333</ele><time>2026-05-02T13:01:00.999Z</time></trkpt><trkpt lat="44.20046729804514" lon="10.231730004365264"><ele>842.6666666666666</ele><time>2026-05-02T13:01:01.999Z</time></trkpt><trkpt lat="44.20038553484892" lon="10.231635231328129"><ele>842.0</ele><time>2026-05-02T13:01:03.999Z</time></trkpt><trkpt lat="44.20033638433274" lon="10.231551355740162"><ele>841.3333333333333</ele><time>2026-05-02T13:01:05.999Z</time></trkpt><trkpt lat="44.20029118289177" lon="10.231443497288893"><ele>840.6666666666666</ele><time>2026-05-02T13:01:08.999Z</time></trkpt><trkpt lat="44.20021480864839" lon="10.23148927839889"><ele>840.0</ele><time>2026-05-02T13:01:09.999Z</time></trkpt><trkpt lat="44.2001197025693" lon="10.231547585960554"><ele>840.0</ele><time>2026-05-02T13:01:11.999Z</time></trkpt><trkpt lat="44.20000609568297" lon="10.231589425535022"><ele>840.0</ele><time>2026-05-02T13:01:13.999Z</time></trkpt><trkpt lat="44.199890316896074" lon="10.23165144182512"><ele>840.0</ele><time>2026-05-02T13:01:15.999Z</time></trkpt><trkpt lat="44.19982806800458" lon="10.231684783255318"><ele>840.0</ele><time>2026-05-02T13:01:16.999Z</time></trkpt><trkpt lat="44.199805182877085" lon="10.231861802085602"><ele>840.0</ele><time>2026-05-02T13:01:17.999Z</time></trkpt><trkpt lat="44.19974540095816" lon="10.231955119631676"><ele>840.2</ele><time>2026-05-02T13:01:18.999Z</time></trkpt><trkpt lat="44.199685020623505" lon="10.232050718631985"><ele>840.4</ele><time>2026-05-02T13:01:19.999Z</time></trkpt><trkpt lat="44.19962265025449" lon="10.23215279432795"><ele>840.5999999999999</ele><time>2026-05-02T13:01:20.999Z</time></trkpt><trkpt lat="44.19955571199687" lon="10.23226046280894"><ele>840.8</ele><time>2026-05-02T13:01:21.999Z</time></trkpt><trkpt lat="44.199493930296875" lon="10.232363029812916"><ele>841.0</ele><time>2026-05-02T13:01:22.999Z</time></trkpt><trkpt lat="44.19943373515066" lon="10.232452375813603"><ele>841.0</ele><time>2026-05-02T13:01:23.999Z</time></trkpt><trkpt lat="44.19937233286984" lon="10.232538294418873"><ele>841.0</ele><time>2026-05-02T13:01:24.999Z</time></trkpt><trkpt lat="44.19930638200724" lon="10.232620945835194"><ele>841.0</ele><time>2026-05-02T13:01:25.999Z</time></trkpt><trkpt lat="44.199229609382776" lon="10.232708217454865"><ele>841.0</ele><time>2026-05-02T13:01:26.999Z</time></trkpt><trkpt lat="44.19915560402503" lon="10.232793822808253"><ele>841.0</ele><time>2026-05-02T13:01:27.999Z</time></trkpt><trkpt lat="44.19907788340724" lon="10.232881233136125"><ele>842.5999999999999</ele><time>2026-05-02T13:01:28.999Z</time></trkpt><trkpt lat="44.198998832530464" lon="10.232976796056352"><ele>844.2</ele><time>2026-05-02T13:01:29.999Z</time></trkpt><trkpt lat="44.19891707176875" lon="10.23305964514624"><ele>845.8</ele><time>2026-05-02T13:01:30.999Z</time></trkpt><trkpt lat="44.19883354927715" lon="10.233136761765252"><ele>847.4000000000001</ele><time>2026-05-02T13:01:31.999Z</time></trkpt><trkpt lat="44.1987502091128" lon="10.233210487955834"><ele>849.0</ele><time>2026-05-02T13:01:32.999Z</time></trkpt><trkpt lat="44.19867258295134" lon="10.233280267737962"><ele>849.0</ele><time>2026-05-02T13:01:33.999Z</time></trkpt><trkpt lat="44.19859610142992" lon="10.233339524665276"><ele>849.0</ele><time>2026-05-02T13:01:34.999Z</time></trkpt><trkpt lat="44.198516562762634" lon="10.233409110421702"><ele>849.0</ele><time>2026-05-02T13:01:35.999Z</time></trkpt><trkpt lat="44.198442344417316" lon="10.233480695514695"><ele>849.0</ele><time>2026-05-02T13:01:36.999Z</time></trkpt><trkpt lat="44.19836928423462" lon="10.233546281188177"><ele>849.0</ele><time>2026-05-02T13:01:37.999Z</time></trkpt><trkpt lat="44.19828337437541" lon="10.233618231264757"><ele>849.0</ele><time>2026-05-02T13:01:38.999Z</time></trkpt><trkpt lat="44.198203379028826" lon="10.233686852157968"><ele>849.0</ele><time>2026-05-02T13:01:39.999Z</time></trkpt><trkpt lat="44.19811922032479" lon="10.233750302007534"><ele>849.0</ele><time>2026-05-02T13:01:40.999Z</time></trkpt><trkpt lat="44.19803355276967" lon="10.233800993728234"><ele>849.0</ele><time>2026-05-02T13:01:41.999Z</time></trkpt><trkpt lat="44.19794397788759" lon="10.23386012158852"><ele>849.0</ele><time>2026-05-02T13:01:42.999Z</time></trkpt><trkpt lat="44.197858474980144" lon="10.233904726444905"><ele>848.4000000000001</ele><time>2026-05-02T13:01:43.999Z</time></trkpt><trkpt lat="44.19776570735432" lon="10.233938954910986"><ele>847.8</ele><time>2026-05-02T13:01:44.999Z</time></trkpt><trkpt lat="44.19767811071336" lon="10.23396823245602"><ele>847.2</ele><time>2026-05-02T13:01:45.999Z</time></trkpt><trkpt lat="44.19759625765471" lon="10.234002550429992"><ele>846.5999999999999</ele><time>2026-05-02T13:01:46.999Z</time></trkpt><trkpt lat="44.19751626446377" lon="10.234046355890364"><ele>846.0</ele><time>2026-05-02T13:01:48Z</time></trkpt><trkpt lat="44.197429017937424" lon="10.23410578239131"><ele>850.1999999999999</ele><time>2026-05-02T13:01:49Z</time></trkpt><trkpt lat="44.1973470460432" lon="10.234191258066916"><ele>854.4</ele><time>2026-05-02T13:01:50Z</time></trkpt><trkpt lat="44.19725281523703" lon="10.23425053558188"><ele>858.6</ele><time>2026-05-02T13:01:51Z</time></trkpt><trkpt lat="44.197179786413884" lon="10.234309623791189"><ele>862.8</ele><time>2026-05-02T13:01:52Z</time></trkpt><trkpt lat="44.197091858854435" lon="10.234369890834353"><ele>867.0</ele><time>2026-05-02T13:01:53Z</time></trkpt><trkpt lat="44.19700133045852" lon="10.234433955007002"><ele>867.0</ele><time>2026-05-02T13:01:54Z</time></trkpt><trkpt lat="44.196908293767095" lon="10.234463705794271"><ele>867.0</ele><time>2026-05-02T13:01:55Z</time></trkpt><trkpt lat="44.19682342460843" lon="10.23448961034492"><ele>867.0</ele><time>2026-05-02T13:01:56Z</time></trkpt><trkpt lat="44.19674647080798" lon="10.234507198200083"><ele>867.0</ele><time>2026-05-02T13:01:57Z</time></trkpt><trkpt lat="44.196663885651766" lon="10.234516324921248"><ele>867.0</ele><time>2026-05-02T13:01:58Z</time></trkpt><trkpt lat="44.19658238576481" lon="10.234486395097663"><ele>867.0</ele><time>2026-05-02T13:01:59Z</time></trkpt><trkpt lat="44.19649870960629" lon="10.234465968365372"><ele>868.8</ele><time>2026-05-02T13:02:00Z</time></trkpt><trkpt lat="44.19640407270193" lon="10.234419522936026"><ele>870.6</ele><time>2026-05-02T13:02:01Z</time></trkpt><trkpt lat="44.196293917146434" lon="10.234372377878596"><ele>872.3999999999999</ele><time>2026-05-02T13:02:02Z</time></trkpt><trkpt lat="44.19617821762479" lon="10.234354171711475"><ele>874.1999999999999</ele><time>2026-05-02T13:02:03Z</time></trkpt><trkpt lat="44.19607005224526" lon="10.234318922338174"><ele>876.0</ele><time>2026-05-02T13:02:04Z</time></trkpt><trkpt lat="44.1959646066207" lon="10.234293248373934"><ele>876.0</ele><time>2026-05-02T13:02:05Z</time></trkpt><trkpt lat="44.19586569345302" lon="10.234264637948673"><ele>875.9999999999999</ele><time>2026-05-02T13:02:06Z</time></trkpt><trkpt lat="44.195771561466735" lon="10.234250271823477"><ele>875.9999999999999</ele><time>2026-05-02T13:02:07Z</time></trkpt><trkpt lat="44.19568469909323" lon="10.234253689685584"><ele>876.0</ele><time>2026-05-02T13:02:08Z</time></trkpt><trkpt lat="44.19561132270469" lon="10.23426096485029"><ele>876.0</ele><time>2026-05-02T13:02:09Z</time></trkpt><trkpt lat="44.19550239443664" lon="10.23427645232607"><ele>877.1999999999999</ele><time>2026-05-02T13:02:11Z</time></trkpt><trkpt lat="44.19538850885038" lon="10.234287776212593"><ele>878.3999999999999</ele><time>2026-05-02T13:02:13Z</time></trkpt><trkpt lat="44.195287632165844" lon="10.23426126139264"><ele>879.6</ele><time>2026-05-02T13:02:15Z</time></trkpt><trkpt lat="44.19519083722836" lon="10.234266201417375"><ele>880.8</ele><time>2026-05-02T13:02:17Z</time></trkpt><trkpt lat="44.19510414908679" lon="10.234346061729614"><ele>882.0</ele><time>2026-05-02T13:02:19Z</time></trkpt><trkpt lat="44.19502027451146" lon="10.23443345331869"><ele>882.0</ele><time>2026-05-02T13:02:21Z</time></trkpt><trkpt lat="44.19496199551315" lon="10.234487322289269"><ele>882.0</ele><time>2026-05-02T13:02:22Z</time></trkpt><trkpt lat="44.19489411346788" lon="10.234527389905915"><ele>882.0</ele><time>2026-05-02T13:02:23Z</time></trkpt><trkpt lat="44.19483189391691" lon="10.234580827255156"><ele>882.0</ele><time>2026-05-02T13:02:24Z</time></trkpt><trkpt lat="44.1947742127619" lon="10.23463014579883"><ele>882.0</ele><time>2026-05-02T13:02:25Z</time></trkpt><trkpt lat="44.194673144632375" lon="10.234712496331586"><ele>882.0</ele><time>2026-05-02T13:02:27Z</time></trkpt><trkpt lat="44.19461254605063" lon="10.234761893941139"><ele>880.6666666666666</ele><time>2026-05-02T13:02:28Z</time></trkpt><trkpt lat="44.194552887322764" lon="10.234808640540525"><ele>879.3333333333333</ele><time>2026-05-02T13:02:29Z</time></trkpt><trkpt lat="44.1944499534921" lon="10.234889463746825"><ele>878.0</ele><time>2026-05-02T13:02:31Z</time></trkpt><trkpt lat="44.194397111883646" lon="10.23495541080391"><ele>876.6666666666666</ele><time>2026-05-02T13:02:32Z</time></trkpt><trkpt lat="44.19428448652037" lon="10.235025245108304"><ele>875.3333333333333</ele><time>2026-05-02T13:02:34Z</time></trkpt><trkpt lat="44.19423595763777" lon="10.235081511898398"><ele>874.0</ele><time>2026-05-02T13:02:35Z</time></trkpt><trkpt lat="44.19419375753812" lon="10.235156380747592"><ele>874.0</ele><time>2026-05-02T13:02:36Z</time></trkpt><trkpt lat="44.194144073928285" lon="10.235227406953403"><ele>874.0</ele><time>2026-05-02T13:02:37Z</time></trkpt><trkpt lat="44.19411514916912" lon="10.235332446619905"><ele>874.0</ele><time>2026-05-02T13:02:38Z</time></trkpt><trkpt lat="44.19407232159069" lon="10.235409523214964"><ele>874.0</ele><time>2026-05-02T13:02:39Z</time></trkpt><trkpt lat="44.19401209659353" lon="10.235474170252685"><ele>874.0</ele><time>2026-05-02T13:02:40Z</time></trkpt><trkpt lat="44.19396558082691" lon="10.235536890485633"><ele>874.0</ele><time>2026-05-02T13:02:41Z</time></trkpt><trkpt lat="44.19390765531192" lon="10.235599008002003"><ele>874.0</ele><time>2026-05-02T13:02:42Z</time></trkpt><trkpt lat="44.19384172424675" lon="10.235653593121325"><ele>873.4999999999999</ele><time>2026-05-02T13:02:43Z</time></trkpt><trkpt lat="44.19378069808188" lon="10.235687379094466"><ele>873.0</ele><time>2026-05-02T13:02:44Z</time></trkpt><trkpt lat="44.193706377144764" lon="10.23568153624404"><ele>872.5</ele><time>2026-05-02T13:02:45Z</time></trkpt><trkpt lat="44.19362844358174" lon="10.23568423223727"><ele>872.0</ele><time>2026-05-02T13:02:46Z</time></trkpt><trkpt lat="44.19354903250935" lon="10.235700563409104"><ele>871.4999999999999</ele><time>2026-05-02T13:02:47Z</time></trkpt><trkpt lat="44.19346106085525" lon="10.235690688070473"><ele>871.0</ele><time>2026-05-02T13:02:48Z</time></trkpt><trkpt lat="44.19337220821545" lon="10.23565015428753"><ele>870.9999999999999</ele><time>2026-05-02T13:02:49Z</time></trkpt><trkpt lat="44.1932985604898" lon="10.235664776132314"><ele>871.0</ele><time>2026-05-02T13:02:50Z</time></trkpt><trkpt lat="44.1932266309957" lon="10.235659990473364"><ele>871.0</ele><time>2026-05-02T13:02:51Z</time></trkpt><trkpt lat="44.19315896735921" lon="10.235664164304156"><ele>871.0</ele><time>2026-05-02T13:02:52Z</time></trkpt><trkpt lat="44.193095216120554" lon="10.235684783265372"><ele>870.9999999999999</ele><time>2026-05-02T13:02:53Z</time></trkpt><trkpt lat="44.19296514216238" lon="10.235749805158429"><ele>871.0</ele><time>2026-05-02T13:02:55Z</time></trkpt><trkpt lat="44.19288725405648" lon="10.2357957028084"><ele>869.8333333333333</ele><time>2026-05-02T13:02:56Z</time></trkpt><trkpt lat="44.19280723189838" lon="10.235850429502667"><ele>868.6666666666666</ele><time>2026-05-02T13:02:57Z</time></trkpt><trkpt lat="44.19273818031305" lon="10.235901266275704"><ele>867.5</ele><time>2026-05-02T13:02:58Z</time></trkpt><trkpt lat="44.19267163395848" lon="10.235961937924621"><ele>866.3333333333333</ele><time>2026-05-02T13:02:59Z</time></trkpt><trkpt lat="44.1926143632128" lon="10.236029819065504"><ele>865.1666666666666</ele><time>2026-05-02T13:03:00Z</time></trkpt><trkpt lat="44.192562421649505" lon="10.236107647718493"><ele>864.0</ele><time>2026-05-02T13:03:01Z</time></trkpt><trkpt lat="44.1925261514489" lon="10.23618423115946"><ele>864.0</ele><time>2026-05-02T13:03:02Z</time></trkpt><trkpt lat="44.192487821429786" lon="10.236272228925078"><ele>864.0</ele><time>2026-05-02T13:03:03Z</time></trkpt><trkpt lat="44.19243580920454" lon="10.236385839897281"><ele>864.0</ele><time>2026-05-02T13:03:04Z</time></trkpt><trkpt lat="44.19236595639879" lon="10.236466200902383"><ele>864.0</ele><time>2026-05-02T13:03:05Z</time></trkpt><trkpt lat="44.19230412459697" lon="10.236555090017967"><ele>864.0</ele><time>2026-05-02T13:03:06Z</time></trkpt><trkpt lat="44.192249708070406" lon="10.236662484688104"><ele>864.0</ele><time>2026-05-02T13:03:07Z</time></trkpt><trkpt lat="44.19218220629375" lon="10.236750740554681"><ele>862.8000000000001</ele><time>2026-05-02T13:03:08Z</time></trkpt><trkpt lat="44.19213815608885" lon="10.236834107122696"><ele>861.6000000000001</ele><time>2026-05-02T13:03:09Z</time></trkpt><trkpt lat="44.19210053606293" lon="10.236938256429456"><ele>860.4</ele><time>2026-05-02T13:03:10Z</time></trkpt><trkpt lat="44.192057102694214" lon="10.237069877179207"><ele>859.2</ele><time>2026-05-02T13:03:11Z</time></trkpt><trkpt lat="44.19201462088341" lon="10.237202214243004"><ele>858.0</ele><time>2026-05-02T13:03:12Z</time></trkpt><trkpt lat="44.191976260087095" lon="10.237314957186463"><ele>860.6666666666666</ele><time>2026-05-02T13:03:13Z</time></trkpt><trkpt lat="44.19192297343262" lon="10.237435890479812"><ele>863.3333333333333</ele><time>2026-05-02T13:03:14Z</time></trkpt><trkpt lat="44.19188614165468" lon="10.237530487644522"><ele>866.0</ele><time>2026-05-02T13:03:15Z</time></trkpt><trkpt lat="44.191838390956285" lon="10.237641000936009"><ele>868.6666666666666</ele><time>2026-05-02T13:03:16Z</time></trkpt><trkpt lat="44.19180732727389" lon="10.237741296022916"><ele>871.3333333333333</ele><time>2026-05-02T13:03:17Z</time></trkpt><trkpt lat="44.19179104261578" lon="10.237829804706818"><ele>874.0</ele><time>2026-05-02T13:03:18Z</time></trkpt><trkpt lat="44.19178628782714" lon="10.23792143989379"><ele>873.9999999999999</ele><time>2026-05-02T13:03:19Z</time></trkpt><trkpt lat="44.19180414927877" lon="10.238013123022334"><ele>874.0</ele><time>2026-05-02T13:03:20Z</time></trkpt><trkpt lat="44.19183957363118" lon="10.238113148585143"><ele>874.0</ele><time>2026-05-02T13:03:21Z</time></trkpt><trkpt lat="44.19186247105453" lon="10.238217013901357"><ele>874.0</ele><time>2026-05-02T13:03:22Z</time></trkpt><trkpt lat="44.19187787998339" lon="10.238320059194317"><ele>873.9999999999999</ele><time>2026-05-02T13:03:23Z</time></trkpt><trkpt lat="44.191897388554416" lon="10.238411583494461"><ele>874.0</ele><time>2026-05-02T13:03:24Z</time></trkpt><trkpt lat="44.19187745447672" lon="10.238537530279546"><ele>874.8333333333333</ele><time>2026-05-02T13:03:25Z</time></trkpt><trkpt lat="44.191861898812256" lon="10.238625360231204"><ele>875.6666666666666</ele><time>2026-05-02T13:03:26Z</time></trkpt><trkpt lat="44.191844949792504" lon="10.238723201922673"><ele>876.5</ele><time>2026-05-02T13:03:27Z</time></trkpt><trkpt lat="44.191821742648074" lon="10.238862832896174"><ele>877.3333333333333</ele><time>2026-05-02T13:03:28Z</time></trkpt><trkpt lat="44.19179400472512" lon="10.239010557930188"><ele>878.1666666666666</ele><time>2026-05-02T13:03:29Z</time></trkpt><trkpt lat="44.19174965868659" lon="10.239126421653468"><ele>879.0</ele><time>2026-05-02T13:03:30Z</time></trkpt><trkpt lat="44.19172708269734" lon="10.239258065019275"><ele>879.5</ele><time>2026-05-02T13:03:31Z</time></trkpt><trkpt lat="44.191698729974426" lon="10.239376232724142"><ele>880.0</ele><time>2026-05-02T13:03:32Z</time></trkpt><trkpt lat="44.191651020404464" lon="10.239485003340883"><ele>880.5</ele><time>2026-05-02T13:03:33Z</time></trkpt><trkpt lat="44.19162154209618" lon="10.239592069778835"><ele>881.0</ele><time>2026-05-02T13:03:34Z</time></trkpt><trkpt lat="44.19160727770759" lon="10.239703830836257"><ele>881.5</ele><time>2026-05-02T13:03:35Z</time></trkpt><trkpt lat="44.19157531669651" lon="10.239783777439259"><ele>882.0</ele><time>2026-05-02T13:03:36Z</time></trkpt><trkpt lat="44.191538571026115" lon="10.23986010430559"><ele>884.1666666666666</ele><time>2026-05-02T13:03:37Z</time></trkpt><trkpt lat="44.19144999535691" lon="10.239959796745934"><ele>886.3333333333333</ele><time>2026-05-02T13:03:39Z</time></trkpt><trkpt lat="44.19138770803188" lon="10.240002778303444"><ele>888.5</ele><time>2026-05-02T13:03:40Z</time></trkpt><trkpt lat="44.191315853323175" lon="10.240038977419193"><ele>890.6666666666666</ele><time>2026-05-02T13:03:41Z</time></trkpt><trkpt lat="44.19124361615169" lon="10.240049254430108"><ele>892.8333333333333</ele><time>2026-05-02T13:03:42Z</time></trkpt><trkpt lat="44.191176901341784" lon="10.24003481577575"><ele>895.0</ele><time>2026-05-02T13:03:43Z</time></trkpt><trkpt lat="44.19111801094172" lon="10.239994169187629"><ele>894.9999999999999</ele><time>2026-05-02T13:03:44Z</time></trkpt><trkpt lat="44.191048404067374" lon="10.239930043603138"><ele>895.0</ele><time>2026-05-02T13:03:45Z</time></trkpt><trkpt lat="44.190988413588336" lon="10.239864120836007"><ele>895.0</ele><time>2026-05-02T13:03:46Z</time></trkpt><trkpt lat="44.190920113568964" lon="10.239795293879448"><ele>895.0</ele><time>2026-05-02T13:03:47Z</time></trkpt><trkpt lat="44.19084801633798" lon="10.239729521733109"><ele>894.9999999999999</ele><time>2026-05-02T13:03:48Z</time></trkpt><trkpt lat="44.19076643514603" lon="10.239652513700694"><ele>895.0</ele><time>2026-05-02T13:03:49Z</time></trkpt><trkpt lat="44.19070876281646" lon="10.239599076847965"><ele>896.6</ele><time>2026-05-02T13:03:50Z</time></trkpt><trkpt lat="44.19060721160024" lon="10.239513658625834"><ele>898.2</ele><time>2026-05-02T13:03:52Z</time></trkpt><trkpt lat="44.19053100059003" lon="10.239499543630934"><ele>899.8</ele><time>2026-05-02T13:03:53Z</time></trkpt><trkpt lat="44.190456231993394" lon="10.23949569380707"><ele>901.4</ele><time>2026-05-02T13:03:54Z</time></trkpt><trkpt lat="44.1903684922259" lon="10.239509394032858"><ele>903.0</ele><time>2026-05-02T13:03:55Z</time></trkpt><trkpt lat="44.190279722223664" lon="10.239541951243359"><ele>903.0</ele><time>2026-05-02T13:03:56Z</time></trkpt><trkpt lat="44.19018902707919" lon="10.239592495701078"><ele>903.0</ele><time>2026-05-02T13:03:57Z</time></trkpt><trkpt lat="44.19009856853402" lon="10.239643293362633"><ele>903.0</ele><time>2026-05-02T13:03:58Z</time></trkpt><trkpt lat="44.190020859723724" lon="10.239682474375115"><ele>903.0</ele><time>2026-05-02T13:03:59Z</time></trkpt><trkpt lat="44.18992788832253" lon="10.239727273686274"><ele>903.0</ele><time>2026-05-02T13:04:00Z</time></trkpt><trkpt lat="44.18984013130298" lon="10.239768946339735"><ele>903.8</ele><time>2026-05-02T13:04:01Z</time></trkpt><trkpt lat="44.18974504370051" lon="10.23979115479223"><ele>904.5999999999999</ele><time>2026-05-02T13:04:02Z</time></trkpt><trkpt lat="44.189655928812066" lon="10.239784008724769"><ele>905.4000000000001</ele><time>2026-05-02T13:04:03Z</time></trkpt><trkpt lat="44.189546009213075" lon="10.239783827617337"><ele>906.2</ele><time>2026-05-02T13:04:04Z</time></trkpt><trkpt lat="44.18942713709043" lon="10.239770754572536"><ele>907.0</ele><time>2026-05-02T13:04:05Z</time></trkpt><trkpt lat="44.18930009138737" lon="10.239761976862988"><ele>907.0</ele><time>2026-05-02T13:04:06Z</time></trkpt><trkpt lat="44.18917995171445" lon="10.239754280444176"><ele>907.0</ele><time>2026-05-02T13:04:07Z</time></trkpt><trkpt lat="44.189058342968636" lon="10.239728967708148"><ele>907.0</ele><time>2026-05-02T13:04:08Z</time></trkpt><trkpt lat="44.188956367413866" lon="10.23970292626872"><ele>907.0</ele><time>2026-05-02T13:04:09Z</time></trkpt><trkpt lat="44.18886125894708" lon="10.239677036086606"><ele>907.0</ele><time>2026-05-02T13:04:10Z</time></trkpt><trkpt lat="44.18877383759296" lon="10.239652569892518"><ele>905.6666666666666</ele><time>2026-05-02T13:04:11Z</time></trkpt><trkpt lat="44.18869383884486" lon="10.239632917626981"><ele>904.3333333333333</ele><time>2026-05-02T13:04:12Z</time></trkpt><trkpt lat="44.18860685575115" lon="10.239622332970052"><ele>903.0</ele><time>2026-05-02T13:04:13Z</time></trkpt><trkpt lat="44.18851667198158" lon="10.239621385923149"><ele>901.6666666666667</ele><time>2026-05-02T13:04:14Z</time></trkpt><trkpt lat="44.18842943590711" lon="10.239653883773887"><ele>900.3333333333334</ele><time>2026-05-02T13:04:15Z</time></trkpt><trkpt lat="44.18833769030079" lon="10.239706612426904"><ele>899.0</ele><time>2026-05-02T13:04:16Z</time></trkpt><trkpt lat="44.188236876303684" lon="10.239774097936756"><ele>900.6</ele><time>2026-05-02T13:04:17Z</time></trkpt><trkpt lat="44.18812597925197" lon="10.239826231240315"><ele>902.2</ele><time>2026-05-02T13:04:18Z</time></trkpt><trkpt lat="44.18803039969458" lon="10.239849100729376"><ele>903.8000000000001</ele><time>2026-05-02T13:04:19Z</time></trkpt><trkpt lat="44.187951135471316" lon="10.239893638671541"><ele>905.4000000000001</ele><time>2026-05-02T13:04:20Z</time></trkpt><trkpt lat="44.18786258030111" lon="10.2399496203828"><ele>907.0</ele><time>2026-05-02T13:04:21Z</time></trkpt><trkpt lat="44.18778231556534" lon="10.239995874205967"><ele>907.0</ele><time>2026-05-02T13:04:22Z</time></trkpt><trkpt lat="44.1876761920553" lon="10.240021179621676"><ele>907.0</ele><time>2026-05-02T13:04:23Z</time></trkpt><trkpt lat="44.1875637341611" lon="10.240040578220645"><ele>907.0</ele><time>2026-05-02T13:04:24Z</time></trkpt><trkpt lat="44.18745019691382" lon="10.240064495652307"><ele>907.0</ele><time>2026-05-02T13:04:25Z</time></trkpt><trkpt lat="44.18735241776952" lon="10.240093124206743"><ele>907.0</ele><time>2026-05-02T13:04:26Z</time></trkpt><trkpt lat="44.18725440859791" lon="10.24012118004702"><ele>907.3333333333333</ele><time>2026-05-02T13:04:27Z</time></trkpt><trkpt lat="44.18716330224843" lon="10.240133881222235"><ele>907.6666666666666</ele><time>2026-05-02T13:04:28Z</time></trkpt><trkpt lat="44.18708312469173" lon="10.240138107004626"><ele>908.0</ele><time>2026-05-02T13:04:29Z</time></trkpt><trkpt lat="44.18701145873195" lon="10.24013829727794"><ele>908.3333333333333</ele><time>2026-05-02T13:04:30Z</time></trkpt><trkpt lat="44.1869330782295" lon="10.240134664806845"><ele>908.6666666666666</ele><time>2026-05-02T13:04:31Z</time></trkpt><trkpt lat="44.186842936063535" lon="10.24013154283426"><ele>909.0</ele><time>2026-05-02T13:04:32Z</time></trkpt><trkpt lat="44.1867603043565" lon="10.24013663096996"><ele>909.0</ele><time>2026-05-02T13:04:33Z</time></trkpt><trkpt lat="44.186677578938614" lon="10.240146086340777"><ele>909.0</ele><time>2026-05-02T13:04:34Z</time></trkpt><trkpt lat="44.18661210550072" lon="10.24016781181295"><ele>909.0</ele><time>2026-05-02T13:04:35Z</time></trkpt><trkpt lat="44.186540608653715" lon="10.240187202411764"><ele>909.0</ele><time>2026-05-02T13:04:36Z</time></trkpt><trkpt lat="44.18647466692837" lon="10.240209416307508"><ele>909.0</ele><time>2026-05-02T13:04:37Z</time></trkpt><trkpt lat="44.18641469004328" lon="10.240244229998376"><ele>909.0</ele><time>2026-05-02T13:04:38Z</time></trkpt><trkpt lat="44.18634163709591" lon="10.24036507212774"><ele>906.8000000000001</ele><time>2026-05-02T13:04:40Z</time></trkpt><trkpt lat="44.18631268104405" lon="10.24053568597292"><ele>904.6000000000001</ele><time>2026-05-02T13:04:42Z</time></trkpt><trkpt lat="44.18631532889875" lon="10.240662120953836"><ele>902.4</ele><time>2026-05-02T13:04:43Z</time></trkpt><trkpt lat="44.186324061260216" lon="10.240765882984114"><ele>900.2</ele><time>2026-05-02T13:04:44Z</time></trkpt><trkpt lat="44.186337712964495" lon="10.240864027512576"><ele>898.0</ele><time>2026-05-02T13:04:45Z</time></trkpt><trkpt lat="44.18634630240855" lon="10.24102583824827"><ele>898.0</ele><time>2026-05-02T13:04:47Z</time></trkpt><trkpt lat="44.18631844340206" lon="10.24115254620399"><ele>898.0</ele><time>2026-05-02T13:04:49Z</time></trkpt><trkpt lat="44.186218397726364" lon="10.241220066092797"><ele>898.0</ele><time>2026-05-02T13:04:51Z</time></trkpt><trkpt lat="44.18615443792523" lon="10.241242082535488"><ele>898.0</ele><time>2026-05-02T13:04:52Z</time></trkpt><trkpt lat="44.1860439601974" lon="10.241211699652007"><ele>898.0</ele><time>2026-05-02T13:04:54Z</time></trkpt><trkpt lat="44.18598632500286" lon="10.241169107834205"><ele>897.9999999999999</ele><time>2026-05-02T13:04:55Z</time></trkpt><trkpt lat="44.18592766460568" lon="10.241130431590916"><ele>898.0</ele><time>2026-05-02T13:04:56Z</time></trkpt><trkpt lat="44.185837535901435" lon="10.241074774933818"><ele>898.0</ele><time>2026-05-02T13:04:58Z</time></trkpt><trkpt lat="44.18572766028228" lon="10.241085622679831"><ele>898.0</ele><time>2026-05-02T13:05:00Z</time></trkpt><trkpt lat="44.185638332710944" lon="10.241156051821607"><ele>897.9999999999999</ele><time>2026-05-02T13:05:02Z</time></trkpt><trkpt lat="44.18558525710241" lon="10.241206648137744"><ele>898.0</ele><time>2026-05-02T13:05:03Z</time></trkpt><trkpt lat="44.185483339781726" lon="10.24130342798541"><ele>896.2</ele><time>2026-05-02T13:05:05Z</time></trkpt><trkpt lat="44.18543552081507" lon="10.241361498310713"><ele>894.4</ele><time>2026-05-02T13:05:06Z</time></trkpt><trkpt lat="44.18534511155851" lon="10.241476927604847"><ele>892.6000000000001</ele><time>2026-05-02T13:05:08Z</time></trkpt><trkpt lat="44.18524617975311" lon="10.241574410822386"><ele>890.8000000000001</ele><time>2026-05-02T13:05:10Z</time></trkpt><trkpt lat="44.18518393204565" lon="10.24160139604897"><ele>889.0</ele><time>2026-05-02T13:05:11Z</time></trkpt><trkpt lat="44.18507643904659" lon="10.241592877505935"><ele>889.0</ele><time>2026-05-02T13:05:13Z</time></trkpt><trkpt lat="44.18497419606348" lon="10.241536210776435"><ele>889.0000000000001</ele><time>2026-05-02T13:05:15Z</time></trkpt><trkpt lat="44.18490024668296" lon="10.24143940616523"><ele>889.0000000000001</ele><time>2026-05-02T13:05:17Z</time></trkpt><trkpt lat="44.18483346981985" lon="10.241321020648718"><ele>889.0</ele><time>2026-05-02T13:05:19Z</time></trkpt><trkpt lat="44.184802535696775" lon="10.241242233918895"><ele>889.0</ele><time>2026-05-02T13:05:20Z</time></trkpt><trkpt lat="44.18475971735908" lon="10.24114188118084"><ele>885.0</ele><time>2026-05-02T13:05:21Z</time></trkpt><trkpt lat="44.18469160394438" lon="10.240975141061964"><ele>881.0000000000001</ele><time>2026-05-02T13:05:23Z</time></trkpt><trkpt lat="44.184623529534925" lon="10.24082045106489"><ele>877.0000000000001</ele><time>2026-05-02T13:05:25Z</time></trkpt><trkpt lat="44.18457201780018" lon="10.24073312511649"><ele>873.0</ele><time>2026-05-02T13:05:26Z</time></trkpt><trkpt lat="44.18450982280966" lon="10.240651233553564"><ele>869.0</ele><time>2026-05-02T13:05:27Z</time></trkpt><trkpt lat="44.18445837731601" lon="10.240595541670679"><ele>867.8333333333334</ele><time>2026-05-02T13:05:28Z</time></trkpt><trkpt lat="44.18439210661641" lon="10.24052548910295"><ele>866.6666666666667</ele><time>2026-05-02T13:05:29Z</time></trkpt><trkpt lat="44.18431145084083" lon="10.240456791138259"><ele>865.5</ele><time>2026-05-02T13:05:30Z</time></trkpt><trkpt lat="44.1842279846763" lon="10.240405154279632"><ele>864.3333333333333</ele><time>2026-05-02T13:05:31Z</time></trkpt><trkpt lat="44.184135630351335" lon="10.240361426742068"><ele>863.1666666666666</ele><time>2026-05-02T13:05:32Z</time></trkpt><trkpt lat="44.184064289115454" lon="10.240330344385868"><ele>862.0</ele><time>2026-05-02T13:05:33Z</time></trkpt><trkpt lat="44.18398770905397" lon="10.240296979417845"><ele>861.9999999999999</ele><time>2026-05-02T13:05:34Z</time></trkpt><trkpt lat="44.18390928760763" lon="10.240263366071957"><ele>862.0</ele><time>2026-05-02T13:05:35Z</time></trkpt><trkpt lat="44.18383936067193" lon="10.240253851231337"><ele>862.0</ele><time>2026-05-02T13:05:36Z</time></trkpt><trkpt lat="44.18377030144134" lon="10.240225658494584"><ele>862.0</ele><time>2026-05-02T13:05:37Z</time></trkpt><trkpt lat="44.18370105605398" lon="10.24018582905938"><ele>861.9999999999999</ele><time>2026-05-02T13:05:38Z</time></trkpt><trkpt lat="44.183626306335654" lon="10.240146078375634"><ele>862.0</ele><time>2026-05-02T13:05:39Z</time></trkpt><trkpt lat="44.1835388898479" lon="10.24011152641599"><ele>862.0</ele><time>2026-05-02T13:05:40Z</time></trkpt><trkpt lat="44.18346092812265" lon="10.240061188707399"><ele>862.0</ele><time>2026-05-02T13:05:41Z</time></trkpt><trkpt lat="44.18336388883169" lon="10.240009360654874"><ele>862.0</ele><time>2026-05-02T13:05:42Z</time></trkpt><trkpt lat="44.18326004172474" lon="10.239946186291935"><ele>862.0</ele><time>2026-05-02T13:05:43Z</time></trkpt><trkpt lat="44.183137818107205" lon="10.239870599517811"><ele>862.0</ele><time>2026-05-02T13:05:44Z</time></trkpt><trkpt lat="44.18304113938241" lon="10.239813918176383"><ele>862.0</ele><time>2026-05-02T13:05:45Z</time></trkpt><trkpt lat="44.18295756271239" lon="10.239761222923955"><ele>862.0</ele><time>2026-05-02T13:05:46Z</time></trkpt><trkpt lat="44.18285698755975" lon="10.239699711799311"><ele>862.0</ele><time>2026-05-02T13:05:47Z</time></trkpt><trkpt lat="44.18274967305465" lon="10.239664741538892"><ele>862.0</ele><time>2026-05-02T13:05:48Z</time></trkpt><trkpt lat="44.18266732927266" lon="10.239611346114255"><ele>862.0</ele><time>2026-05-02T13:05:49Z</time></trkpt><trkpt lat="44.18258836907906" lon="10.239550834373778"><ele>862.0</ele><time>2026-05-02T13:05:50Z</time></trkpt><trkpt lat="44.18250989364062" lon="10.239484421922539"><ele>862.0</ele><time>2026-05-02T13:05:51Z</time></trkpt><trkpt lat="44.182413734328065" lon="10.239377051121874"><ele>862.0</ele><time>2026-05-02T13:05:53Z</time></trkpt><trkpt lat="44.18235337659299" lon="10.239332524614762"><ele>862.0</ele><time>2026-05-02T13:05:54Z</time></trkpt><trkpt lat="44.18232183153293" lon="10.239246665765883"><ele>862.0</ele><time>2026-05-02T13:05:55Z</time></trkpt><trkpt lat="44.18222790702506" lon="10.23913200297371"><ele>861.8333333333333</ele><time>2026-05-02T13:05:57Z</time></trkpt><trkpt lat="44.18214742759543" lon="10.239093515554979"><ele>861.6666666666666</ele><time>2026-05-02T13:05:58Z</time></trkpt><trkpt lat="44.182051498172655" lon="10.239064284387617"><ele>861.5</ele><time>2026-05-02T13:05:59Z</time></trkpt><trkpt lat="44.18196788003368" lon="10.239021859499575"><ele>861.3333333333333</ele><time>2026-05-02T13:06:00Z</time></trkpt><trkpt lat="44.1818868836188" lon="10.238971324165702"><ele>861.1666666666666</ele><time>2026-05-02T13:06:01Z</time></trkpt><trkpt lat="44.18182965942584" lon="10.238927742031343"><ele>861.0</ele><time>2026-05-02T13:06:02Z</time></trkpt><trkpt lat="44.18176905155069" lon="10.23887451109599"><ele>861.0</ele><time>2026-05-02T13:06:03Z</time></trkpt><trkpt lat="44.18172200117233" lon="10.238792598907638"><ele>861.0</ele><time>2026-05-02T13:06:04Z</time></trkpt><trkpt lat="44.18166933329938" lon="10.238689890870377"><ele>861.0</ele><time>2026-05-02T13:06:05Z</time></trkpt><trkpt lat="44.18161889091372" lon="10.238586145365428"><ele>861.0</ele><time>2026-05-02T13:06:06Z</time></trkpt><trkpt lat="44.181570671610345" lon="10.238498520531232"><ele>861.0</ele><time>2026-05-02T13:06:07Z</time></trkpt><trkpt lat="44.18149191235981" lon="10.238424687853984"><ele>861.0</ele><time>2026-05-02T13:06:08Z</time></trkpt><trkpt lat="44.18141701062995" lon="10.238365294090642"><ele>862.5</ele><time>2026-05-02T13:06:09Z</time></trkpt><trkpt lat="44.18133893746746" lon="10.23830120062579"><ele>864.0</ele><time>2026-05-02T13:06:10Z</time></trkpt><trkpt lat="44.18128093241068" lon="10.238227838379888"><ele>865.5</ele><time>2026-05-02T13:06:11Z</time></trkpt><trkpt lat="44.18123532037053" lon="10.23814634371371"><ele>867.0</ele><time>2026-05-02T13:06:12Z</time></trkpt><trkpt lat="44.181212421723274" lon="10.238057284893479"><ele>868.5</ele><time>2026-05-02T13:06:13Z</time></trkpt><trkpt lat="44.18117307255486" lon="10.237957795592902"><ele>870.0</ele><time>2026-05-02T13:06:14Z</time></trkpt><trkpt lat="44.18112358406471" lon="10.237876177512993"><ele>866.4</ele><time>2026-05-02T13:06:15Z</time></trkpt><trkpt lat="44.18103813086712" lon="10.237807784507838"><ele>862.8</ele><time>2026-05-02T13:06:17Z</time></trkpt><trkpt lat="44.18093779175364" lon="10.237858075770719"><ele>859.2</ele><time>2026-05-02T13:06:19Z</time></trkpt><trkpt lat="44.18086664293903" lon="10.2379369894964"><ele>855.6</ele><time>2026-05-02T13:06:20Z</time></trkpt><trkpt lat="44.18078522459368" lon="10.238038542914124"><ele>852.0</ele><time>2026-05-02T13:06:21Z</time></trkpt><trkpt lat="44.18071386474933" lon="10.238127677010805"><ele>851.6666666666666</ele><time>2026-05-02T13:06:22Z</time></trkpt><trkpt lat="44.180663256598194" lon="10.238190248489191"><ele>851.3333333333333</ele><time>2026-05-02T13:06:23Z</time></trkpt><trkpt lat="44.180613000858806" lon="10.238278760634477"><ele>851.0</ele><time>2026-05-02T13:06:24Z</time></trkpt><trkpt lat="44.180578561165206" lon="10.238383452003069"><ele>850.6666666666666</ele><time>2026-05-02T13:06:25Z</time></trkpt><trkpt lat="44.180531437135215" lon="10.238475168250517"><ele>850.3333333333333</ele><time>2026-05-02T13:06:26Z</time></trkpt><trkpt lat="44.180494174742684" lon="10.238571685093147"><ele>850.0</ele><time>2026-05-02T13:06:27Z</time></trkpt><trkpt lat="44.180450339787654" lon="10.238689651290267"><ele>850.0</ele><time>2026-05-02T13:06:28Z</time></trkpt><trkpt lat="44.1804174264497" lon="10.238787740169323"><ele>850.0</ele><time>2026-05-02T13:06:29Z</time></trkpt><trkpt lat="44.18038579606883" lon="10.238887673822907"><ele>850.0</ele><time>2026-05-02T13:06:30Z</time></trkpt><trkpt lat="44.18029505831489" lon="10.239003691488861"><ele>850.0</ele><time>2026-05-02T13:06:32Z</time></trkpt><trkpt lat="44.180221857270126" lon="10.239093410804225"><ele>850.0</ele><time>2026-05-02T13:06:33Z</time></trkpt><trkpt lat="44.18016625769451" lon="10.239174734869605"><ele>853.0</ele><time>2026-05-02T13:06:34Z</time></trkpt><trkpt lat="44.18009192406339" lon="10.23928280287526"><ele>856.0</ele><time>2026-05-02T13:06:35Z</time></trkpt><trkpt lat="44.18000488478316" lon="10.239343453570314"><ele>859.0</ele><time>2026-05-02T13:06:36Z</time></trkpt><trkpt lat="44.17992770222254" lon="10.239417289755075"><ele>862.0</ele><time>2026-05-02T13:06:37Z</time></trkpt><trkpt lat="44.17985090873423" lon="10.239490753765857"><ele>865.0</ele><time>2026-05-02T13:06:38Z</time></trkpt><trkpt lat="44.179806967574805" lon="10.239561554907205"><ele>864.9999999999999</ele><time>2026-05-02T13:06:39Z</time></trkpt><trkpt lat="44.179724622183336" lon="10.239613109424676"><ele>865.0</ele><time>2026-05-02T13:06:40Z</time></trkpt><trkpt lat="44.179662933885275" lon="10.23966788506448"><ele>865.0</ele><time>2026-05-02T13:06:41Z</time></trkpt><trkpt lat="44.1796095939019" lon="10.239747647072077"><ele>865.0</ele><time>2026-05-02T13:06:42Z</time></trkpt><trkpt lat="44.17955781260453" lon="10.239841776086987"><ele>864.9999999999999</ele><time>2026-05-02T13:06:43Z</time></trkpt><trkpt lat="44.179485612282704" lon="10.239921537799374"><ele>865.0</ele><time>2026-05-02T13:06:44Z</time></trkpt><trkpt lat="44.17942519573416" lon="10.240007747274557"><ele>869.0</ele><time>2026-05-02T13:06:45Z</time></trkpt><trkpt lat="44.179371307450744" lon="10.24007878348006"><ele>873.0</ele><time>2026-05-02T13:06:46Z</time></trkpt><trkpt lat="44.17930939306088" lon="10.240131610574505"><ele>877.0</ele><time>2026-05-02T13:06:47Z</time></trkpt><trkpt lat="44.17920103796727" lon="10.240097697362364"><ele>881.0</ele><time>2026-05-02T13:06:49Z</time></trkpt><trkpt lat="44.17911276909658" lon="10.239986138133808"><ele>885.0</ele><time>2026-05-02T13:06:51Z</time></trkpt><trkpt lat="44.17901046844079" lon="10.239876504029656"><ele>885.0</ele><time>2026-05-02T13:06:52Z</time></trkpt><trkpt lat="44.17891840986985" lon="10.239774017953055"><ele>885.0</ele><time>2026-05-02T13:06:53Z</time></trkpt><trkpt lat="44.17882941651783" lon="10.239659600309894"><ele>885.0</ele><time>2026-05-02T13:06:54Z</time></trkpt><trkpt lat="44.17876660194443" lon="10.239560972780987"><ele>885.0</ele><time>2026-05-02T13:06:55Z</time></trkpt><trkpt lat="44.178705040721546" lon="10.239454257253515"><ele>885.0</ele><time>2026-05-02T13:06:56Z</time></trkpt><trkpt lat="44.178649654883316" lon="10.239341949743915"><ele>885.0</ele><time>2026-05-02T13:06:57Z</time></trkpt><trkpt lat="44.17861445985027" lon="10.239252254818748"><ele>885.0</ele><time>2026-05-02T13:06:58Z</time></trkpt><trkpt lat="44.1785836432848" lon="10.239126773791652"><ele>885.0</ele><time>2026-05-02T13:06:59Z</time></trkpt><trkpt lat="44.178550918047115" lon="10.239026096053149"><ele>885.0</ele><time>2026-05-02T13:07:00Z</time></trkpt><trkpt lat="44.17848277737612" lon="10.2389243030549"><ele>885.0</ele><time>2026-05-02T13:07:01Z</time></trkpt><trkpt lat="44.178425481554925" lon="10.238806064737037"><ele>884.0</ele><time>2026-05-02T13:07:02Z</time></trkpt><trkpt lat="44.17836871298145" lon="10.238660956225424"><ele>883.0</ele><time>2026-05-02T13:07:03Z</time></trkpt><trkpt lat="44.17831723057439" lon="10.238536005341972"><ele>882.0</ele><time>2026-05-02T13:07:04Z</time></trkpt><trkpt lat="44.17827479426627" lon="10.238423652258145"><ele>881.0</ele><time>2026-05-02T13:07:05Z</time></trkpt><trkpt lat="44.17824096170418" lon="10.238330312372009"><ele>880.0</ele><time>2026-05-02T13:07:06Z</time></trkpt><trkpt lat="44.17820849790677" lon="10.238251067482818"><ele>879.9999999999999</ele><time>2026-05-02T13:07:07Z</time></trkpt><trkpt lat="44.17820174879989" lon="10.238158220072844"><ele>880.0</ele><time>2026-05-02T13:07:08Z</time></trkpt><trkpt lat="44.178146703648196" lon="10.238033986494596"><ele>880.0</ele><time>2026-05-02T13:07:10Z</time></trkpt><trkpt lat="44.17808241810123" lon="10.238006814362093"><ele>880.0</ele><time>2026-05-02T13:07:11Z</time></trkpt><trkpt lat="44.1780071536717" lon="10.23803419128231"><ele>879.9999999999999</ele><time>2026-05-02T13:07:12Z</time></trkpt><trkpt lat="44.177930641112354" lon="10.238056461742376"><ele>880.0</ele><time>2026-05-02T13:07:13Z</time></trkpt><trkpt lat="44.177837967642205" lon="10.23808663777665"><ele>878.4</ele><time>2026-05-02T13:07:14Z</time></trkpt><trkpt lat="44.17775005190234" lon="10.238091632900156"><ele>876.8</ele><time>2026-05-02T13:07:15Z</time></trkpt><trkpt lat="44.17764907469394" lon="10.238079833638688"><ele>875.2</ele><time>2026-05-02T13:07:16Z</time></trkpt><trkpt lat="44.17755299267868" lon="10.238057584970036"><ele>873.6</ele><time>2026-05-02T13:07:17Z</time></trkpt><trkpt lat="44.177466868855504" lon="10.238018802362546"><ele>872.0</ele><time>2026-05-02T13:07:18Z</time></trkpt><trkpt lat="44.177382013099326" lon="10.237985487378532"><ele>874.5000000000001</ele><time>2026-05-02T13:07:19Z</time></trkpt><trkpt lat="44.177304429150624" lon="10.2379738544883"><ele>877.0</ele><time>2026-05-02T13:07:20Z</time></trkpt><trkpt lat="44.17723081813028" lon="10.237970948386696"><ele>879.5</ele><time>2026-05-02T13:07:21Z</time></trkpt><trkpt lat="44.17716893203027" lon="10.238009050209842"><ele>882.0</ele><time>2026-05-02T13:07:22Z</time></trkpt><trkpt lat="44.17710693846494" lon="10.238044852741861"><ele>884.5000000000001</ele><time>2026-05-02T13:07:23Z</time></trkpt><trkpt lat="44.17702393909355" lon="10.238081330453756"><ele>887.0</ele><time>2026-05-02T13:07:24Z</time></trkpt><trkpt lat="44.17693597277203" lon="10.238147104279696"><ele>887.0000000000001</ele><time>2026-05-02T13:07:25Z</time></trkpt><trkpt lat="44.17684185163129" lon="10.238225820668546"><ele>887.0</ele><time>2026-05-02T13:07:26Z</time></trkpt><trkpt lat="44.17675727221567" lon="10.238300062368625"><ele>887.0</ele><time>2026-05-02T13:07:27Z</time></trkpt><trkpt lat="44.17668272530985" lon="10.23834144365143"><ele>887.0</ele><time>2026-05-02T13:07:28Z</time></trkpt><trkpt lat="44.17662291728707" lon="10.238389113498727"><ele>887.0000000000001</ele><time>2026-05-02T13:07:29Z</time></trkpt><trkpt lat="44.17657443141929" lon="10.23844614299315"><ele>887.0</ele><time>2026-05-02T13:07:30Z</time></trkpt><trkpt lat="44.17656787714292" lon="10.2385491834384"><ele>887.0000000000001</ele><time>2026-05-02T13:07:31Z</time></trkpt><trkpt lat="44.17655224364329" lon="10.238731023945537"><ele>887.0</ele><time>2026-05-02T13:07:33Z</time></trkpt><trkpt lat="44.17653267867344" lon="10.238821718140256"><ele>887.0</ele><time>2026-05-02T13:07:34Z</time></trkpt><trkpt lat="44.176496668954044" lon="10.238966566787985"><ele>887.0</ele><time>2026-05-02T13:07:36Z</time></trkpt><trkpt lat="44.17645697000282" lon="10.239041930876159"><ele>887.0000000000001</ele><time>2026-05-02T13:07:37Z</time></trkpt><trkpt lat="44.17639510932916" lon="10.239088342471257"><ele>887.0</ele><time>2026-05-02T13:07:38Z</time></trkpt><trkpt lat="44.17628781766584" lon="10.239073267712536"><ele>885.0000000000001</ele><time>2026-05-02T13:07:40Z</time></trkpt><trkpt lat="44.17623566274716" lon="10.239011502585196"><ele>883.0</ele><time>2026-05-02T13:07:41Z</time></trkpt><trkpt lat="44.176222355175746" lon="10.238923394762914"><ele>881.0</ele><time>2026-05-02T13:07:42Z</time></trkpt><trkpt lat="44.17619229868708" lon="10.238809640727112"><ele>879.0</ele><time>2026-05-02T13:07:43Z</time></trkpt><trkpt lat="44.176149781433644" lon="10.238668224914443"><ele>877.0000000000001</ele><time>2026-05-02T13:07:44Z</time></trkpt><trkpt lat="44.176103987612464" lon="10.238548226438127"><ele>875.0</ele><time>2026-05-02T13:07:45Z</time></trkpt><trkpt lat="44.17604703359613" lon="10.23841400169478"><ele>875.0</ele><time>2026-05-02T13:07:46Z</time></trkpt><trkpt lat="44.175984746321106" lon="10.238290553301969"><ele>875.0</ele><time>2026-05-02T13:07:47Z</time></trkpt><trkpt lat="44.17590146855398" lon="10.23821120215175"><ele>875.0</ele><time>2026-05-02T13:07:48Z</time></trkpt><trkpt lat="44.17582207464101" lon="10.238134052617156"><ele>875.0</ele><time>2026-05-02T13:07:49Z</time></trkpt><trkpt lat="44.175742326355326" lon="10.238078950632064"><ele>875.0</ele><time>2026-05-02T13:07:50Z</time></trkpt><trkpt lat="44.17567173725536" lon="10.238053934710015"><ele>876.2</ele><time>2026-05-02T13:07:51Z</time></trkpt><trkpt lat="44.17559207007459" lon="10.23805053100047"><ele>877.4</ele><time>2026-05-02T13:07:52Z</time></trkpt><trkpt lat="44.175507091788525" lon="10.238070730242189"><ele>878.5999999999999</ele><time>2026-05-02T13:07:53Z</time></trkpt><trkpt lat="44.1754252334661" lon="10.238104416918057"><ele>879.8</ele><time>2026-05-02T13:07:54Z</time></trkpt><trkpt lat="44.17534946898146" lon="10.238151050948096"><ele>881.0</ele><time>2026-05-02T13:07:55.001Z</time></trkpt><trkpt lat="44.17523428705439" lon="10.238301986960362"><ele>881.0</ele><time>2026-05-02T13:07:57.001Z</time></trkpt><trkpt lat="44.17517602308175" lon="10.238414212179418"><ele>880.9999999999999</ele><time>2026-05-02T13:07:58.001Z</time></trkpt><trkpt lat="44.17512892472055" lon="10.238512302976414"><ele>880.9999999999999</ele><time>2026-05-02T13:07:59.001Z</time></trkpt><trkpt lat="44.175060783921104" lon="10.238604892089915"><ele>881.0</ele><time>2026-05-02T13:08:00.001Z</time></trkpt><trkpt lat="44.17501756134071" lon="10.238739197336477"><ele>881.0</ele><time>2026-05-02T13:08:01.001Z</time></trkpt><trkpt lat="44.17500153489779" lon="10.238846419976921"><ele>881.0000000000001</ele><time>2026-05-02T13:08:02.001Z</time></trkpt><trkpt lat="44.174987151961155" lon="10.238950835908355"><ele>881.0</ele><time>2026-05-02T13:08:03.001Z</time></trkpt><trkpt lat="44.17498843719051" lon="10.239075156193286"><ele>881.0</ele><time>2026-05-02T13:08:04.001Z</time></trkpt><trkpt lat="44.17496760957603" lon="10.239210316747812"><ele>881.0</ele><time>2026-05-02T13:08:05.001Z</time></trkpt><trkpt lat="44.17495240120796" lon="10.23931379160918"><ele>881.0000000000001</ele><time>2026-05-02T13:08:06.001Z</time></trkpt><trkpt lat="44.174937241569516" lon="10.23941273618564"><ele>881.0</ele><time>2026-05-02T13:08:07.001Z</time></trkpt><trkpt lat="44.17491243494871" lon="10.239525891506714"><ele>880.5000000000001</ele><time>2026-05-02T13:08:08.001Z</time></trkpt><trkpt lat="44.17487268698316" lon="10.239627783195658"><ele>880.0</ele><time>2026-05-02T13:08:09.001Z</time></trkpt><trkpt lat="44.174854725048974" lon="10.23971961844826"><ele>879.5</ele><time>2026-05-02T13:08:10.001Z</time></trkpt><trkpt lat="44.174853610926576" lon="10.239807801521794"><ele>879.0</ele><time>2026-05-02T13:08:11.001Z</time></trkpt><trkpt lat="44.17487802762148" lon="10.239992019975881"><ele>878.5000000000001</ele><time>2026-05-02T13:08:13.001Z</time></trkpt><trkpt lat="44.17492141583973" lon="10.240094709661374"><ele>878.0</ele><time>2026-05-02T13:08:14.001Z</time></trkpt><trkpt lat="44.17496825461938" lon="10.240176644307319"><ele>873.5999999999999</ele><time>2026-05-02T13:08:15.001Z</time></trkpt><trkpt lat="44.175026425895595" lon="10.240273227235713"><ele>869.1999999999999</ele><time>2026-05-02T13:08:16.001Z</time></trkpt><trkpt lat="44.17509048948109" lon="10.240352989104325"><ele>864.8</ele><time>2026-05-02T13:08:17.001Z</time></trkpt><trkpt lat="44.17513213755259" lon="10.240429940331866"><ele>860.4</ele><time>2026-05-02T13:08:18.001Z</time></trkpt><trkpt lat="44.175131604685326" lon="10.24055899460215"><ele>856.0</ele><time>2026-05-02T13:08:19.001Z</time></trkpt><trkpt lat="44.17514580578154" lon="10.240714231979538"><ele>854.0</ele><time>2026-05-02T13:08:20.001Z</time></trkpt><trkpt lat="44.17512246110139" lon="10.240857970342445"><ele>851.9999999999999</ele><time>2026-05-02T13:08:21.001Z</time></trkpt><trkpt lat="44.17513080764238" lon="10.240986661646138"><ele>850.0</ele><time>2026-05-02T13:08:22.001Z</time></trkpt><trkpt lat="44.17510272988481" lon="10.24109428784476"><ele>848.0</ele><time>2026-05-02T13:08:23.001Z</time></trkpt><trkpt lat="44.17506403360486" lon="10.241203008044083"><ele>846.0</ele><time>2026-05-02T13:08:24.001Z</time></trkpt><trkpt lat="44.174983430259864" lon="10.241292729495342"><ele>846.0</ele><time>2026-05-02T13:08:25Z</time></trkpt><trkpt lat="44.17491492296656" lon="10.241333472131368"><ele>846.0</ele><time>2026-05-02T13:08:26Z</time></trkpt><trkpt lat="44.17484936341303" lon="10.241321062909636"><ele>846.0</ele><time>2026-05-02T13:08:27Z</time></trkpt><trkpt lat="44.17477139648032" lon="10.241262861734826"><ele>846.0</ele><time>2026-05-02T13:08:28Z</time></trkpt><trkpt lat="44.17469591803527" lon="10.24123594031866"><ele>846.0</ele><time>2026-05-02T13:08:29Z</time></trkpt><trkpt lat="44.17459956112833" lon="10.241223622049596"><ele>846.0</ele><time>2026-05-02T13:08:30Z</time></trkpt><trkpt lat="44.17449441006532" lon="10.241275185819598"><ele>844.0</ele><time>2026-05-02T13:08:31Z</time></trkpt><trkpt lat="44.174395240454324" lon="10.241340486835053"><ele>842.0</ele><time>2026-05-02T13:08:32Z</time></trkpt><trkpt lat="44.17433474604123" lon="10.2413887614684"><ele>840.0</ele><time>2026-05-02T13:08:33Z</time></trkpt><trkpt lat="44.17427611290539" lon="10.241455308079901"><ele>838.0</ele><time>2026-05-02T13:08:35Z</time></trkpt><trkpt lat="44.174227870838706" lon="10.24157488791515"><ele>836.0</ele><time>2026-05-02T13:08:37Z</time></trkpt><trkpt lat="44.17423993053944" lon="10.241769315243214"><ele>836.0</ele><time>2026-05-02T13:08:39Z</time></trkpt><trkpt lat="44.17426680190164" lon="10.241913469333582"><ele>836.0</ele><time>2026-05-02T13:08:40Z</time></trkpt><trkpt lat="44.17429620534427" lon="10.242077563929833"><ele>836.0</ele><time>2026-05-02T13:08:41Z</time></trkpt><trkpt lat="44.174326163161275" lon="10.24222048008353"><ele>836.0</ele><time>2026-05-02T13:08:42Z</time></trkpt><trkpt lat="44.17433506780314" lon="10.242331900441942"><ele>836.0</ele><time>2026-05-02T13:08:43Z</time></trkpt><trkpt lat="44.17426638050134" lon="10.242438753758591"><ele>836.5999999999999</ele><time>2026-05-02T13:08:46Z</time></trkpt><trkpt lat="44.1741923226783" lon="10.242409740311043"><ele>837.2</ele><time>2026-05-02T13:08:47Z</time></trkpt><trkpt lat="44.17410491283253" lon="10.242333300225873"><ele>837.8</ele><time>2026-05-02T13:08:48Z</time></trkpt><trkpt lat="44.17401266418678" lon="10.242240705272236"><ele>838.4000000000001</ele><time>2026-05-02T13:08:49Z</time></trkpt><trkpt lat="44.17392654111044" lon="10.242181577955245"><ele>839.0</ele><time>2026-05-02T13:08:50Z</time></trkpt><trkpt lat="44.17383986626741" lon="10.242155006748918"><ele>839.0000000000001</ele><time>2026-05-02T13:08:51Z</time></trkpt><trkpt lat="44.17375532880809" lon="10.242157453575036"><ele>839.0</ele><time>2026-05-02T13:08:52Z</time></trkpt><trkpt lat="44.17366792808584" lon="10.242183076357422"><ele>839.0</ele><time>2026-05-02T13:08:53Z</time></trkpt><trkpt lat="44.173599878617004" lon="10.242227575681037"><ele>839.0</ele><time>2026-05-02T13:08:54Z</time></trkpt><trkpt lat="44.1735428303928" lon="10.242291880153967"><ele>839.0000000000001</ele><time>2026-05-02T13:08:55Z</time></trkpt><trkpt lat="44.173493440869265" lon="10.242372922364659"><ele>839.0</ele><time>2026-05-02T13:08:56Z</time></trkpt><trkpt lat="44.173484952115" lon="10.242478099554617"><ele>834.6666666666667</ele><time>2026-05-02T13:08:57Z</time></trkpt><trkpt lat="44.173437116812195" lon="10.242577567076982"><ele>830.3333333333334</ele><time>2026-05-02T13:08:58Z</time></trkpt><trkpt lat="44.173420705903666" lon="10.242693124150305"><ele>826.0</ele><time>2026-05-02T13:08:59Z</time></trkpt><trkpt lat="44.173375092416585" lon="10.24278914874044"><ele>821.6666666666667</ele><time>2026-05-02T13:09:00Z</time></trkpt><trkpt lat="44.17330661210924" lon="10.242828129044954"><ele>817.3333333333334</ele><time>2026-05-02T13:09:01Z</time></trkpt><trkpt lat="44.17322525773122" lon="10.242871944510691"><ele>813.0</ele><time>2026-05-02T13:09:02Z</time></trkpt><trkpt lat="44.17311026747186" lon="10.242869194764646"><ele>810.5</ele><time>2026-05-02T13:09:03Z</time></trkpt><trkpt lat="44.17299182130716" lon="10.2428180814588"><ele>808.0</ele><time>2026-05-02T13:09:04Z</time></trkpt><trkpt lat="44.17288870450607" lon="10.242756332406145"><ele>805.5</ele><time>2026-05-02T13:09:05Z</time></trkpt><trkpt lat="44.17278188970807" lon="10.242690856209807"><ele>803.0</ele><time>2026-05-02T13:09:06Z</time></trkpt><trkpt lat="44.17267834134144" lon="10.242656655807192"><ele>803.0</ele><time>2026-05-02T13:09:07Z</time></trkpt><trkpt lat="44.17258290089801" lon="10.242682748645807"><ele>803.0</ele><time>2026-05-02T13:09:09Z</time></trkpt><trkpt lat="44.17255459237518" lon="10.242786624884259"><ele>803.0</ele><time>2026-05-02T13:09:11Z</time></trkpt><trkpt lat="44.17262070040105" lon="10.24294403856312"><ele>803.0</ele><time>2026-05-02T13:09:13Z</time></trkpt><trkpt lat="44.17273055902857" lon="10.242998376829517"><ele>803.0</ele><time>2026-05-02T13:09:14Z</time></trkpt><trkpt lat="44.172865683770915" lon="10.243076716141552"><ele>798.3333333333334</ele><time>2026-05-02T13:09:15Z</time></trkpt><trkpt lat="44.17297113481613" lon="10.243171391950698"><ele>793.6666666666667</ele><time>2026-05-02T13:09:16Z</time></trkpt><trkpt lat="44.17305354096165" lon="10.24321378679891"><ele>789.0</ele><time>2026-05-02T13:09:17Z</time></trkpt><trkpt lat="44.17308195484351" lon="10.243308720733344"><ele>784.3333333333333</ele><time>2026-05-02T13:09:19Z</time></trkpt><trkpt lat="44.17301646667768" lon="10.243345401640822"><ele>779.6666666666666</ele><time>2026-05-02T13:09:21Z</time></trkpt><trkpt lat="44.1729317844123" lon="10.243312493116706"><ele>775.0</ele><time>2026-05-02T13:09:22Z</time></trkpt><trkpt lat="44.1728519602143" lon="10.243254337405071"><ele>775.0</ele><time>2026-05-02T13:09:23Z</time></trkpt><trkpt lat="44.17274499364088" lon="10.243239430372054"><ele>775.0</ele><time>2026-05-02T13:09:25Z</time></trkpt><trkpt lat="44.1726685625403" lon="10.243247089109275"><ele>775.0</ele><time>2026-05-02T13:09:26Z</time></trkpt><trkpt lat="44.172588452214576" lon="10.243194310790084"><ele>775.0</ele><time>2026-05-02T13:09:27Z</time></trkpt><trkpt lat="44.17250524691003" lon="10.243092353758401"><ele>775.0</ele><time>2026-05-02T13:09:28Z</time></trkpt><trkpt lat="44.17242775612784" lon="10.243052327007574"><ele>775.0</ele><time>2026-05-02T13:09:29Z</time></trkpt><trkpt lat="44.17234282998085" lon="10.243012989545672"><ele>775.0</ele><time>2026-05-02T13:09:30Z</time></trkpt><trkpt lat="44.17229990838693" lon="10.242935516608553"><ele>775.0</ele><time>2026-05-02T13:09:31Z</time></trkpt><trkpt lat="44.172235685954774" lon="10.242957995897642"><ele>775.0</ele><time>2026-05-02T13:09:33Z</time></trkpt><trkpt lat="44.17229165140531" lon="10.243105629504157"><ele>775.0</ele><time>2026-05-02T13:09:35Z</time></trkpt><trkpt lat="44.17233061927447" lon="10.243272818484863"><ele>775.0</ele><time>2026-05-02T13:09:37Z</time></trkpt><trkpt lat="44.1724404493951" lon="10.243406784566442"><ele>775.0</ele><time>2026-05-02T13:09:38Z</time></trkpt><trkpt lat="44.17252798533541" lon="10.24351985560925"><ele>775.0</ele><time>2026-05-02T13:09:39Z</time></trkpt><trkpt lat="44.172601682214605" lon="10.24354688395804"><ele>775.0</ele><time>2026-05-02T13:09:40Z</time></trkpt><trkpt lat="44.17270083186791" lon="10.243597307022753"><ele>775.0</ele><time>2026-05-02T13:09:41Z</time></trkpt><trkpt lat="44.1728333797496" lon="10.243657924199091"><ele>775.0</ele><time>2026-05-02T13:09:42Z</time></trkpt><trkpt lat="44.17295873456286" lon="10.243726873662991"><ele>775.0</ele><time>2026-05-02T13:09:43Z</time></trkpt><trkpt lat="44.1730487777341" lon="10.243803414331863"><ele>775.0</ele><time>2026-05-02T13:09:44Z</time></trkpt><trkpt lat="44.173103647553155" lon="10.243883428640062"><ele>775.0</ele><time>2026-05-02T13:09:45Z</time></trkpt><trkpt lat="44.1731588017748" lon="10.243989568781888"><ele>775.0</ele><time>2026-05-02T13:09:46Z</time></trkpt><trkpt lat="44.173181943238944" lon="10.244112457825144"><ele>773.4</ele><time>2026-05-02T13:09:47Z</time></trkpt><trkpt lat="44.173203092091455" lon="10.244250217586073"><ele>771.8</ele><time>2026-05-02T13:09:48Z</time></trkpt><trkpt lat="44.173218742468315" lon="10.244395212213451"><ele>770.2</ele><time>2026-05-02T13:09:49Z</time></trkpt><trkpt lat="44.173229272186184" lon="10.244547052656834"><ele>768.6</ele><time>2026-05-02T13:09:50Z</time></trkpt><trkpt lat="44.17323100848674" lon="10.24468560154366"><ele>767.0</ele><time>2026-05-02T13:09:51Z</time></trkpt><trkpt lat="44.17322439369854" lon="10.24481407015112"><ele>763.2</ele><time>2026-05-02T13:09:52Z</time></trkpt><trkpt lat="44.173214253194445" lon="10.244926882287066"><ele>759.4000000000001</ele><time>2026-05-02T13:09:53Z</time></trkpt><trkpt lat="44.173178913427265" lon="10.245065926041516"><ele>755.5999999999999</ele><time>2026-05-02T13:09:55Z</time></trkpt><trkpt lat="44.17308600529576" lon="10.24516527403312"><ele>751.8</ele><time>2026-05-02T13:09:57Z</time></trkpt><trkpt lat="44.17299162708657" lon="10.245232535204403"><ele>748.0</ele><time>2026-05-02T13:09:58Z</time></trkpt><trkpt lat="44.17289783386179" lon="10.245267952255185"><ele>747.0</ele><time>2026-05-02T13:09:59Z</time></trkpt><trkpt lat="44.17280628979277" lon="10.245290157949333"><ele>746.0</ele><time>2026-05-02T13:10:00Z</time></trkpt><trkpt lat="44.17272423649638" lon="10.245284184602212"><ele>745.0</ele><time>2026-05-02T13:10:01.001Z</time></trkpt><trkpt lat="44.172623329308834" lon="10.245251917116207"><ele>744.0</ele><time>2026-05-02T13:10:02.001Z</time></trkpt><trkpt lat="44.17251780612434" lon="10.245199813826728"><ele>743.0</ele><time>2026-05-02T13:10:03.001Z</time></trkpt><trkpt lat="44.17244397835262" lon="10.245129965420347"><ele>743.0</ele><time>2026-05-02T13:10:04.001Z</time></trkpt><trkpt lat="44.17239743237298" lon="10.245055384760649"><ele>743.0</ele><time>2026-05-02T13:10:05.001Z</time></trkpt><trkpt lat="44.17235933837456" lon="10.244985258097136"><ele>743.0</ele><time>2026-05-02T13:10:06.001Z</time></trkpt><trkpt lat="44.1722968957482" lon="10.24488752241498"><ele>743.0</ele><time>2026-05-02T13:10:07.001Z</time></trkpt><trkpt lat="44.17220913726576" lon="10.244802636938541"><ele>743.0</ele><time>2026-05-02T13:10:08.001Z</time></trkpt><trkpt lat="44.1721465044997" lon="10.244731058537408"><ele>743.0</ele><time>2026-05-02T13:10:09.001Z</time></trkpt><trkpt lat="44.17206697913266" lon="10.244694944317478"><ele>743.5</ele><time>2026-05-02T13:10:10.001Z</time></trkpt><trkpt lat="44.17195075348479" lon="10.244656446127687"><ele>744.0</ele><time>2026-05-02T13:10:11.001Z</time></trkpt><trkpt lat="44.17186094673544" lon="10.244596093805471"><ele>744.5</ele><time>2026-05-02T13:10:12.001Z</time></trkpt><trkpt lat="44.171773062198056" lon="10.244541650688083"><ele>745.0</ele><time>2026-05-02T13:10:14.001Z</time></trkpt><trkpt lat="44.171721943352374" lon="10.244775437312766"><ele>743.1666666666667</ele><time>2026-05-02T13:10:28.001Z</time></trkpt><trkpt lat="44.17171870480623" lon="10.244864767487446"><ele>741.3333333333334</ele><time>2026-05-02T13:10:29.001Z</time></trkpt><trkpt lat="44.17167940486093" lon="10.245032555832822"><ele>739.5</ele><time>2026-05-02T13:10:31.001Z</time></trkpt><trkpt lat="44.171652769686105" lon="10.245123011686307"><ele>737.6666666666666</ele><time>2026-05-02T13:10:32.001Z</time></trkpt><trkpt lat="44.17162266425714" lon="10.245212155288401"><ele>735.8333333333333</ele><time>2026-05-02T13:10:33.001Z</time></trkpt><trkpt lat="44.171594472598976" lon="10.245299531150744"><ele>734.0</ele><time>2026-05-02T13:10:34.001Z</time></trkpt><trkpt lat="44.17156678394572" lon="10.24538835201209"><ele>734.0</ele><time>2026-05-02T13:10:35.001Z</time></trkpt><trkpt lat="44.17153454392849" lon="10.245484529613767"><ele>734.0</ele><time>2026-05-02T13:10:36.001Z</time></trkpt><trkpt lat="44.17149519200848" lon="10.245569161381164"><ele>734.0</ele><time>2026-05-02T13:10:37.001Z</time></trkpt><trkpt lat="44.171426663183354" lon="10.245653092695573"><ele>734.0</ele><time>2026-05-02T13:10:39.001Z</time></trkpt><trkpt lat="44.17132701607763" lon="10.245581512310663"><ele>734.0</ele><time>2026-05-02T13:10:41Z</time></trkpt><trkpt lat="44.17120544648662" lon="10.245587537969428"><ele>732.3333333333333</ele><time>2026-05-02T13:10:43Z</time></trkpt><trkpt lat="44.171149261721325" lon="10.245545971859702"><ele>730.6666666666666</ele><time>2026-05-02T13:10:44Z</time></trkpt><trkpt lat="44.171103645411655" lon="10.245437986143505"><ele>729.0</ele><time>2026-05-02T13:10:45Z</time></trkpt><trkpt lat="44.17102838796555" lon="10.245348447060481"><ele>727.3333333333334</ele><time>2026-05-02T13:10:46Z</time></trkpt><trkpt lat="44.1709582337344" lon="10.245268229588481"><ele>725.6666666666667</ele><time>2026-05-02T13:10:47Z</time></trkpt><trkpt lat="44.1708956822917" lon="10.245200412275391"><ele>724.0</ele><time>2026-05-02T13:10:48Z</time></trkpt><trkpt lat="44.17082000716579" lon="10.2451583502889"><ele>724.0</ele><time>2026-05-02T13:10:49Z</time></trkpt><trkpt lat="44.1707494368752" lon="10.245099823339526"><ele>724.0</ele><time>2026-05-02T13:10:50Z</time></trkpt><trkpt lat="44.17067174198877" lon="10.245049872412254"><ele>724.0</ele><time>2026-05-02T13:10:51Z</time></trkpt><trkpt lat="44.17059021876544" lon="10.2450183734337"><ele>724.0</ele><time>2026-05-02T13:10:52Z</time></trkpt><trkpt lat="44.170508602111255" lon="10.245008527061902"><ele>724.0</ele><time>2026-05-02T13:10:53Z</time></trkpt><trkpt lat="44.17043178619341" lon="10.244963884420654"><ele>724.0</ele><time>2026-05-02T13:10:54Z</time></trkpt><trkpt lat="44.17032783054075" lon="10.24492387573491"><ele>724.1666666666667</ele><time>2026-05-02T13:10:56Z</time></trkpt><trkpt lat="44.170280227213404" lon="10.24485005247355"><ele>724.3333333333334</ele><time>2026-05-02T13:10:57Z</time></trkpt><trkpt lat="44.17023126461758" lon="10.244750547388131"><ele>724.5</ele><time>2026-05-02T13:10:58Z</time></trkpt><trkpt lat="44.170179971275275" lon="10.244638033805902"><ele>724.6666666666666</ele><time>2026-05-02T13:10:59Z</time></trkpt><trkpt lat="44.170128402049095" lon="10.244523358408825"><ele>724.8333333333333</ele><time>2026-05-02T13:11:00Z</time></trkpt><trkpt lat="44.170089527540746" lon="10.244437213522115"><ele>725.0</ele><time>2026-05-02T13:11:01Z</time></trkpt><trkpt lat="44.17005141916062" lon="10.244360130236768"><ele>725.0</ele><time>2026-05-02T13:11:02Z</time></trkpt><trkpt lat="44.16994911299621" lon="10.244259939463582"><ele>725.0</ele><time>2026-05-02T13:11:04Z</time></trkpt><trkpt lat="44.16987759471464" lon="10.244186337402645"><ele>725.0</ele><time>2026-05-02T13:11:06Z</time></trkpt><trkpt lat="44.16984684097111" lon="10.244106827151175"><ele>725.0</ele><time>2026-05-02T13:11:08Z</time></trkpt><trkpt lat="44.16977437060647" lon="10.243997202747407"><ele>725.0</ele><time>2026-05-02T13:11:10Z</time></trkpt><trkpt lat="44.169739716057755" lon="10.243899584026105"><ele>723.0</ele><time>2026-05-02T13:11:11Z</time></trkpt><trkpt lat="44.169711886266924" lon="10.243805722138779"><ele>721.0</ele><time>2026-05-02T13:11:12Z</time></trkpt><trkpt lat="44.16968564214217" lon="10.243713160634934"><ele>719.0</ele><time>2026-05-02T13:11:13Z</time></trkpt><trkpt lat="44.16965176548291" lon="10.243612224012077"><ele>717.0</ele><time>2026-05-02T13:11:14Z</time></trkpt><trkpt lat="44.169620469375694" lon="10.24350288301372"><ele>715.0</ele><time>2026-05-02T13:11:15Z</time></trkpt><trkpt lat="44.16959491700465" lon="10.243393228724887"><ele>713.0</ele><time>2026-05-02T13:11:16Z</time></trkpt><trkpt lat="44.16955721033144" lon="10.243288849854393"><ele>713.0</ele><time>2026-05-02T13:11:17Z</time></trkpt><trkpt lat="44.16952453225271" lon="10.243173411255398"><ele>713.0</ele><time>2026-05-02T13:11:18Z</time></trkpt><trkpt lat="44.16948447066709" lon="10.243043585134595"><ele>713.0</ele><time>2026-05-02T13:11:19Z</time></trkpt><trkpt lat="44.16944937494853" lon="10.242921745575579"><ele>713.0</ele><time>2026-05-02T13:11:20Z</time></trkpt><trkpt lat="44.16941535040002" lon="10.242813932957912"><ele>713.0</ele><time>2026-05-02T13:11:21Z</time></trkpt><trkpt lat="44.16936999912785" lon="10.242721734480787"><ele>713.0</ele><time>2026-05-02T13:11:22Z</time></trkpt><trkpt lat="44.169307356121955" lon="10.242643346966528"><ele>713.6666666666666</ele><time>2026-05-02T13:11:23Z</time></trkpt><trkpt lat="44.16923991144679" lon="10.242575243751011"><ele>714.3333333333333</ele><time>2026-05-02T13:11:24Z</time></trkpt><trkpt lat="44.16917620758607" lon="10.24248246992568"><ele>715.0</ele><time>2026-05-02T13:11:25Z</time></trkpt><trkpt lat="44.16910758617675" lon="10.2424110497924"><ele>715.6666666666666</ele><time>2026-05-02T13:11:26Z</time></trkpt><trkpt lat="44.169031421239055" lon="10.24233515120672"><ele>716.3333333333334</ele><time>2026-05-02T13:11:27Z</time></trkpt><trkpt lat="44.168955802783145" lon="10.242266126612822"><ele>717.0</ele><time>2026-05-02T13:11:28Z</time></trkpt><trkpt lat="44.16887671736905" lon="10.242210915141085"><ele>715.0</ele><time>2026-05-02T13:11:29Z</time></trkpt><trkpt lat="44.16880449078256" lon="10.242151800546294"><ele>713.0</ele><time>2026-05-02T13:11:30Z</time></trkpt><trkpt lat="44.16872846814501" lon="10.242074055366805"><ele>711.0</ele><time>2026-05-02T13:11:31Z</time></trkpt><trkpt lat="44.168657542008404" lon="10.241997855728723"><ele>709.0</ele><time>2026-05-02T13:11:32Z</time></trkpt><trkpt lat="44.168586105878354" lon="10.241918537547269"><ele>707.0</ele><time>2026-05-02T13:11:33Z</time></trkpt><trkpt lat="44.16851985562352" lon="10.241849598021332"><ele>705.0</ele><time>2026-05-02T13:11:34Z</time></trkpt><trkpt lat="44.1684580420476" lon="10.241752397678695"><ele>705.0</ele><time>2026-05-02T13:11:35Z</time></trkpt><trkpt lat="44.16837597968901" lon="10.24170852686685"><ele>705.0</ele><time>2026-05-02T13:11:36Z</time></trkpt><trkpt lat="44.16829795855524" lon="10.241669885382427"><ele>705.0</ele><time>2026-05-02T13:11:37Z</time></trkpt><trkpt lat="44.16821025545186" lon="10.241646703261118"><ele>705.0</ele><time>2026-05-02T13:11:38Z</time></trkpt><trkpt lat="44.168123680154835" lon="10.241650435917592"><ele>705.0</ele><time>2026-05-02T13:11:39Z</time></trkpt><trkpt lat="44.16803555280696" lon="10.241688669703969"><ele>705.0</ele><time>2026-05-02T13:11:40Z</time></trkpt><trkpt lat="44.167954336927785" lon="10.241735976267654"><ele>704.2</ele><time>2026-05-02T13:11:41Z</time></trkpt><trkpt lat="44.16786074772435" lon="10.241759889866225"><ele>703.4</ele><time>2026-05-02T13:11:42Z</time></trkpt><trkpt lat="44.16776949021614" lon="10.241732302062607"><ele>702.5999999999999</ele><time>2026-05-02T13:11:43Z</time></trkpt><trkpt lat="44.16769908879498" lon="10.24164963157521"><ele>701.8</ele><time>2026-05-02T13:11:44Z</time></trkpt><trkpt lat="44.167632720226095" lon="10.241589848959004"><ele>701.0</ele><time>2026-05-02T13:11:45Z</time></trkpt><trkpt lat="44.167515939793525" lon="10.241550577383727"><ele>701.0</ele><time>2026-05-02T13:11:47Z</time></trkpt><trkpt lat="44.16744906242398" lon="10.241583548053477"><ele>701.0</ele><time>2026-05-02T13:11:48Z</time></trkpt><trkpt lat="44.16740554685119" lon="10.241653155220687"><ele>701.0</ele><time>2026-05-02T13:11:49Z</time></trkpt><trkpt lat="44.16739385765888" lon="10.241769361582415"><ele>701.0</ele><time>2026-05-02T13:11:50Z</time></trkpt><trkpt lat="44.167443646849215" lon="10.241892169736591"><ele>701.0</ele><time>2026-05-02T13:11:51Z</time></trkpt><trkpt lat="44.16748464428153" lon="10.242013808831384"><ele>701.0</ele><time>2026-05-02T13:11:52Z</time></trkpt><trkpt lat="44.167504783720915" lon="10.242160321307054"><ele>701.0</ele><time>2026-05-02T13:11:53Z</time></trkpt><trkpt lat="44.167513490235656" lon="10.242292611847665"><ele>701.0</ele><time>2026-05-02T13:11:54Z</time></trkpt><trkpt lat="44.16749101416095" lon="10.242409995611721"><ele>701.0</ele><time>2026-05-02T13:11:55Z</time></trkpt><trkpt lat="44.16744071177083" lon="10.242515384250893"><ele>701.0</ele><time>2026-05-02T13:11:56Z</time></trkpt><trkpt lat="44.167388730129545" lon="10.24263626781975"><ele>701.0</ele><time>2026-05-02T13:11:57Z</time></trkpt><trkpt lat="44.16733540833998" lon="10.24276342261061"><ele>698.1999999999999</ele><time>2026-05-02T13:11:58Z</time></trkpt><trkpt lat="44.167301892636544" lon="10.242884031261163"><ele>695.4</ele><time>2026-05-02T13:11:59Z</time></trkpt><trkpt lat="44.16725940133663" lon="10.242992342456683"><ele>692.6</ele><time>2026-05-02T13:12:00Z</time></trkpt><trkpt lat="44.167228350932014" lon="10.243104944492739"><ele>689.8</ele><time>2026-05-02T13:12:01Z</time></trkpt><trkpt lat="44.16720136940531" lon="10.243254131207893"><ele>687.0</ele><time>2026-05-02T13:12:02Z</time></trkpt><trkpt lat="44.167179761243695" lon="10.243430689397714"><ele>685.5</ele><time>2026-05-02T13:12:03Z</time></trkpt><trkpt lat="44.16716762574244" lon="10.24360929849001"><ele>684.0</ele><time>2026-05-02T13:12:04Z</time></trkpt><trkpt lat="44.16715757461702" lon="10.243794498562128"><ele>682.5</ele><time>2026-05-02T13:12:05Z</time></trkpt><trkpt lat="44.167162391365515" lon="10.243985157944943"><ele>681.0</ele><time>2026-05-02T13:12:06Z</time></trkpt><trkpt lat="44.16716876796792" lon="10.24417148517329"><ele>680.25</ele><time>2026-05-02T13:12:07.001Z</time></trkpt><trkpt lat="44.167175119222065" lon="10.244346740117981"><ele>679.5</ele><time>2026-05-02T13:12:08.001Z</time></trkpt><trkpt lat="44.16719273052269" lon="10.24450645622638"><ele>678.75</ele><time>2026-05-02T13:12:09.001Z</time></trkpt><trkpt lat="44.167218974315475" lon="10.244654458179212"><ele>678.0</ele><time>2026-05-02T13:12:10.001Z</time></trkpt><trkpt lat="44.16723842619854" lon="10.24479360071374"><ele>676.5999999999999</ele><time>2026-05-02T13:12:11.001Z</time></trkpt><trkpt lat="44.167226810116006" lon="10.244925517022432"><ele>675.1999999999999</ele><time>2026-05-02T13:12:12.001Z</time></trkpt><trkpt lat="44.16721680812788" lon="10.245047616670474"><ele>673.8</ele><time>2026-05-02T13:12:13.001Z</time></trkpt><trkpt lat="44.167195112218415" lon="10.245188666808035"><ele>672.4</ele><time>2026-05-02T13:12:14.001Z</time></trkpt><trkpt lat="44.16718758534183" lon="10.245334002730127"><ele>671.0</ele><time>2026-05-02T13:12:15.001Z</time></trkpt><trkpt lat="44.16715800503693" lon="10.245481838450765"><ele>671.0</ele><time>2026-05-02T13:12:16.001Z</time></trkpt><trkpt lat="44.16708656662108" lon="10.245618346251417"><ele>671.0</ele><time>2026-05-02T13:12:17.001Z</time></trkpt><trkpt lat="44.16702493443277" lon="10.24576113969331"><ele>671.0</ele><time>2026-05-02T13:12:18.001Z</time></trkpt><trkpt lat="44.16697063057233" lon="10.24591423893955"><ele>671.0</ele><time>2026-05-02T13:12:19.001Z</time></trkpt><trkpt lat="44.166907772020714" lon="10.246056198632955"><ele>670.0</ele><time>2026-05-02T13:12:20.001Z</time></trkpt><trkpt lat="44.166843067596915" lon="10.246187673757328"><ele>669.0</ele><time>2026-05-02T13:12:21.001Z</time></trkpt><trkpt lat="44.16679331722961" lon="10.246329792792666"><ele>668.0</ele><time>2026-05-02T13:12:22.001Z</time></trkpt><trkpt lat="44.166760292609524" lon="10.24646372442614"><ele>667.0</ele><time>2026-05-02T13:12:23.001Z</time></trkpt><trkpt lat="44.16674029176954" lon="10.246598905571329"><ele>666.0</ele><time>2026-05-02T13:12:24.001Z</time></trkpt><trkpt lat="44.16674466326354" lon="10.246732620062488"><ele>665.0</ele><time>2026-05-02T13:12:25.001Z</time></trkpt><trkpt lat="44.16677294395397" lon="10.24687225086767"><ele>664.0</ele><time>2026-05-02T13:12:26.001Z</time></trkpt><trkpt lat="44.16681054446455" lon="10.247029829163079"><ele>663.0</ele><time>2026-05-02T13:12:27.001Z</time></trkpt><trkpt lat="44.1668452710007" lon="10.247190736488914"><ele>662.0</ele><time>2026-05-02T13:12:28.001Z</time></trkpt><trkpt lat="44.16685535452616" lon="10.247324239489206"><ele>661.0</ele><time>2026-05-02T13:12:29.001Z</time></trkpt><trkpt lat="44.16686134745791" lon="10.24742786931094"><ele>659.4285714285714</ele><time>2026-05-02T13:12:30.001Z</time></trkpt><trkpt lat="44.166861293117655" lon="10.247522985579216"><ele>657.8571428571429</ele><time>2026-05-02T13:12:31.001Z</time></trkpt><trkpt lat="44.16681280681628" lon="10.247604798110427"><ele>656.2857142857142</ele><time>2026-05-02T13:12:32.001Z</time></trkpt><trkpt lat="44.16673280881408" lon="10.247628369929982"><ele>654.7142857142858</ele><time>2026-05-02T13:12:33.001Z</time></trkpt><trkpt lat="44.166666719884766" lon="10.24765799768815"><ele>653.1428571428572</ele><time>2026-05-02T13:12:34.001Z</time></trkpt><trkpt lat="44.16660204809613" lon="10.247622533508538"><ele>651.5714285714286</ele><time>2026-05-02T13:12:35.001Z</time></trkpt><trkpt lat="44.16654016597797" lon="10.24754476192962"><ele>650.0</ele><time>2026-05-02T13:12:36.001Z</time></trkpt><trkpt lat="44.16651807785054" lon="10.247411084562803"><ele>649.2</ele><time>2026-05-02T13:12:37.001Z</time></trkpt><trkpt lat="44.16646950521267" lon="10.24728686984587"><ele>648.4</ele><time>2026-05-02T13:12:38.001Z</time></trkpt><trkpt lat="44.166410909345956" lon="10.24717511884586"><ele>647.5999999999999</ele><time>2026-05-02T13:12:39.001Z</time></trkpt><trkpt lat="44.166333600886034" lon="10.247110792317201"><ele>646.8</ele><time>2026-05-02T13:12:40.001Z</time></trkpt><trkpt lat="44.16625787378855" lon="10.247041305172786"><ele>646.0</ele><time>2026-05-02T13:12:41.001Z</time></trkpt><trkpt lat="44.16617905306773" lon="10.246985068386737"><ele>646.0</ele><time>2026-05-02T13:12:42.001Z</time></trkpt><trkpt lat="44.166108236343206" lon="10.246930002358436"><ele>646.0</ele><time>2026-05-02T13:12:43.001Z</time></trkpt><trkpt lat="44.16602269947379" lon="10.246843134154156"><ele>646.0</ele><time>2026-05-02T13:12:44Z</time></trkpt><trkpt lat="44.16594609744765" lon="10.246748660663682"><ele>646.0</ele><time>2026-05-02T13:12:45Z</time></trkpt><trkpt lat="44.16587191976992" lon="10.246636256594332"><ele>646.0</ele><time>2026-05-02T13:12:46Z</time></trkpt><trkpt lat="44.165800659814934" lon="10.246530466897038"><ele>645.0</ele><time>2026-05-02T13:12:47Z</time></trkpt><trkpt lat="44.165727578390005" lon="10.246424498457923"><ele>644.0</ele><time>2026-05-02T13:12:48Z</time></trkpt><trkpt lat="44.1656454623646" lon="10.246343328168033"><ele>643.0</ele><time>2026-05-02T13:12:49Z</time></trkpt><trkpt lat="44.16554892060328" lon="10.246279526943827"><ele>642.0</ele><time>2026-05-02T13:12:50Z</time></trkpt><trkpt lat="44.165433745373555" lon="10.246197278595133"><ele>641.0</ele><time>2026-05-02T13:12:51Z</time></trkpt><trkpt lat="44.16533246421841" lon="10.246137904442099"><ele>641.0</ele><time>2026-05-02T13:12:52Z</time></trkpt><trkpt lat="44.165227488901834" lon="10.24607521812859"><ele>641.0</ele><time>2026-05-02T13:12:53Z</time></trkpt><trkpt lat="44.16512477463052" lon="10.246020089627327"><ele>641.0</ele><time>2026-05-02T13:12:54Z</time></trkpt><trkpt lat="44.165016206393986" lon="10.245984910819898"><ele>641.0</ele><time>2026-05-02T13:12:55Z</time></trkpt><trkpt lat="44.1648950780305" lon="10.24596230739183"><ele>638.8</ele><time>2026-05-02T13:12:56Z</time></trkpt><trkpt lat="44.16478110811298" lon="10.245946497856156"><ele>636.5999999999999</ele><time>2026-05-02T13:12:57Z</time></trkpt><trkpt lat="44.16467210732982" lon="10.245918547382269"><ele>634.4</ele><time>2026-05-02T13:12:58Z</time></trkpt><trkpt lat="44.16457329515316" lon="10.245881621067355"><ele>632.2</ele><time>2026-05-02T13:12:59Z</time></trkpt><trkpt lat="44.164484196361464" lon="10.245826389011528"><ele>630.0</ele><time>2026-05-02T13:13:00Z</time></trkpt><trkpt lat="44.16440892511587" lon="10.245754933127799"><ele>630.0</ele><time>2026-05-02T13:13:01Z</time></trkpt><trkpt lat="44.16434118496029" lon="10.245674058475434"><ele>630.0</ele><time>2026-05-02T13:13:02Z</time></trkpt><trkpt lat="44.164264311889696" lon="10.245582439587986"><ele>630.0</ele><time>2026-05-02T13:13:03Z</time></trkpt><trkpt lat="44.16417688282348" lon="10.2455131681075"><ele>630.0</ele><time>2026-05-02T13:13:04Z</time></trkpt><trkpt lat="44.16409648096571" lon="10.24546386633573"><ele>630.0</ele><time>2026-05-02T13:13:05Z</time></trkpt><trkpt lat="44.16401479445284" lon="10.245460538178273"><ele>628.6666666666666</ele><time>2026-05-02T13:13:06Z</time></trkpt><trkpt lat="44.16393549037929" lon="10.245489416690004"><ele>627.3333333333334</ele><time>2026-05-02T13:13:07Z</time></trkpt><trkpt lat="44.163862698282166" lon="10.245557326881631"><ele>626.0</ele><time>2026-05-02T13:13:08Z</time></trkpt><trkpt lat="44.16380587209429" lon="10.245643087025293"><ele>624.6666666666667</ele><time>2026-05-02T13:13:09Z</time></trkpt><trkpt lat="44.16376651298326" lon="10.245750725145342"><ele>623.3333333333334</ele><time>2026-05-02T13:13:10Z</time></trkpt><trkpt lat="44.16376238845958" lon="10.245865833662764"><ele>622.0</ele><time>2026-05-02T13:13:11Z</time></trkpt><trkpt lat="44.16378825542993" lon="10.245990872104791"><ele>621.6</ele><time>2026-05-02T13:13:12Z</time></trkpt><trkpt lat="44.163838455329454" lon="10.246122876698237"><ele>621.2</ele><time>2026-05-02T13:13:13Z</time></trkpt><trkpt lat="44.16390052636264" lon="10.246256758533859"><ele>620.8</ele><time>2026-05-02T13:13:14Z</time></trkpt><trkpt lat="44.163960999349435" lon="10.246389922801564"><ele>620.4</ele><time>2026-05-02T13:13:15Z</time></trkpt><trkpt lat="44.16401960602368" lon="10.246518058588613"><ele>620.0</ele><time>2026-05-02T13:13:16Z</time></trkpt><trkpt lat="44.16408298335508" lon="10.246652342448785"><ele>620.0</ele><time>2026-05-02T13:13:17Z</time></trkpt><trkpt lat="44.16414231488621" lon="10.246795534970339"><ele>620.0</ele><time>2026-05-02T13:13:18Z</time></trkpt><trkpt lat="44.16420304774906" lon="10.246938543849149"><ele>620.0</ele><time>2026-05-02T13:13:19Z</time></trkpt><trkpt lat="44.16426260567072" lon="10.24707362630909"><ele>620.0</ele><time>2026-05-02T13:13:20Z</time></trkpt><trkpt lat="44.1643021484767" lon="10.24721953659848"><ele>618.4</ele><time>2026-05-02T13:13:21Z</time></trkpt><trkpt lat="44.164343475681676" lon="10.247358754894039"><ele>616.8</ele><time>2026-05-02T13:13:22Z</time></trkpt><trkpt lat="44.16437590180537" lon="10.247502210581148"><ele>615.2</ele><time>2026-05-02T13:13:23Z</time></trkpt><trkpt lat="44.16440850228615" lon="10.247651220779659"><ele>613.6</ele><time>2026-05-02T13:13:24Z</time></trkpt><trkpt lat="44.16443458636308" lon="10.247795328128907"><ele>612.0</ele><time>2026-05-02T13:13:25Z</time></trkpt><trkpt lat="44.164471262939145" lon="10.247930468532516"><ele>612.0</ele><time>2026-05-02T13:13:26Z</time></trkpt><trkpt lat="44.16449220657765" lon="10.248072733507014"><ele>612.0</ele><time>2026-05-02T13:13:27Z</time></trkpt><trkpt lat="44.1645142580878" lon="10.248201099472848"><ele>612.0</ele><time>2026-05-02T13:13:28Z</time></trkpt><trkpt lat="44.16457070246402" lon="10.248314044058919"><ele>612.0</ele><time>2026-05-02T13:13:29Z</time></trkpt><trkpt lat="44.16462830145196" lon="10.248416126973389"><ele>612.0</ele><time>2026-05-02T13:13:30Z</time></trkpt><trkpt lat="44.16469731788642" lon="10.248508052271317"><ele>612.6666666666666</ele><time>2026-05-02T13:13:31Z</time></trkpt><trkpt lat="44.16477399534607" lon="10.248573026425925"><ele>613.3333333333334</ele><time>2026-05-02T13:13:32Z</time></trkpt><trkpt lat="44.164830117275024" lon="10.248643316441521"><ele>614.0</ele><time>2026-05-02T13:13:33Z</time></trkpt><trkpt lat="44.16490834732387" lon="10.248736043924586"><ele>614.6666666666667</ele><time>2026-05-02T13:13:35Z</time></trkpt><trkpt lat="44.16481468318123" lon="10.248743690942181"><ele>615.3333333333334</ele><time>2026-05-02T13:13:40Z</time></trkpt><trkpt lat="44.164742755736334" lon="10.248689837040427"><ele>616.0</ele><time>2026-05-02T13:13:41Z</time></trkpt><trkpt lat="44.16466758211941" lon="10.24858948025256"><ele>614.3333333333334</ele><time>2026-05-02T13:13:42Z</time></trkpt><trkpt lat="44.16459449128409" lon="10.24850269909738"><ele>612.6666666666667</ele><time>2026-05-02T13:13:43Z</time></trkpt><trkpt lat="44.16453263575167" lon="10.248434215461037"><ele>611.0</ele><time>2026-05-02T13:13:44Z</time></trkpt><trkpt lat="44.16446676681906" lon="10.248370949229008"><ele>609.3333333333334</ele><time>2026-05-02T13:13:45Z</time></trkpt><trkpt lat="44.16440578877422" lon="10.248307250788095"><ele>607.6666666666666</ele><time>2026-05-02T13:13:46Z</time></trkpt><trkpt lat="44.164345454354944" lon="10.24824268870943"><ele>606.0</ele><time>2026-05-02T13:13:47Z</time></trkpt><trkpt lat="44.164284653043765" lon="10.248179646151927"><ele>605.4</ele><time>2026-05-02T13:13:48Z</time></trkpt><trkpt lat="44.16421834370281" lon="10.248114264671749"><ele>604.8</ele><time>2026-05-02T13:13:49Z</time></trkpt><trkpt lat="44.16413708447389" lon="10.248008367800026"><ele>604.1999999999999</ele><time>2026-05-02T13:13:51Z</time></trkpt><trkpt lat="44.1640824441447" lon="10.247953077407363"><ele>603.6</ele><time>2026-05-02T13:14:11Z</time></trkpt><trkpt lat="44.16398683623274" lon="10.247851288338865"><ele>603.0</ele><time>2026-05-02T13:14:13.001Z</time></trkpt><trkpt lat="44.16391558498673" lon="10.247775219662074"><ele>603.0</ele><time>2026-05-02T13:14:14.001Z</time></trkpt><trkpt lat="44.163842491535405" lon="10.247698630535181"><ele>603.0</ele><time>2026-05-02T13:14:15.001Z</time></trkpt><trkpt lat="44.16377082798364" lon="10.2476269579505"><ele>603.0</ele><time>2026-05-02T13:14:16.001Z</time></trkpt><trkpt lat="44.16369448348577" lon="10.247546849252187"><ele>603.0</ele><time>2026-05-02T13:14:17.001Z</time></trkpt><trkpt lat="44.16360748059604" lon="10.247453878844981"><ele>603.0</ele><time>2026-05-02T13:14:18.001Z</time></trkpt><trkpt lat="44.16351098368053" lon="10.24735371315475"><ele>602.25</ele><time>2026-05-02T13:14:19.001Z</time></trkpt><trkpt lat="44.16341110110422" lon="10.24724879948156"><ele>601.5</ele><time>2026-05-02T13:14:20.001Z</time></trkpt><trkpt lat="44.163314780441056" lon="10.247151872839371"><ele>600.75</ele><time>2026-05-02T13:14:21.001Z</time></trkpt><trkpt lat="44.16321759267727" lon="10.24705040155438"><ele>600.0</ele><time>2026-05-02T13:14:22.001Z</time></trkpt><trkpt lat="44.16311674567142" lon="10.246950154058474"><ele>600.0</ele><time>2026-05-02T13:14:23.001Z</time></trkpt><trkpt lat="44.16301226093026" lon="10.246845869708372"><ele>600.0</ele><time>2026-05-02T13:14:24.001Z</time></trkpt><trkpt lat="44.16291491263089" lon="10.246734421422135"><ele>600.0</ele><time>2026-05-02T13:14:25.001Z</time></trkpt><trkpt lat="44.16282480031551" lon="10.246618560741826"><ele>600.0</ele><time>2026-05-02T13:14:26.001Z</time></trkpt><trkpt lat="44.16276868654062" lon="10.246487807336317"><ele>601.25</ele><time>2026-05-02T13:14:27.001Z</time></trkpt><trkpt lat="44.162708863294725" lon="10.246352573001285"><ele>602.5</ele><time>2026-05-02T13:14:28.001Z</time></trkpt><trkpt lat="44.16264864668651" lon="10.246204885098331"><ele>603.75</ele><time>2026-05-02T13:14:29.001Z</time></trkpt><trkpt lat="44.16257079812435" lon="10.246056416808687"><ele>605.0</ele><time>2026-05-02T13:14:30.001Z</time></trkpt><trkpt lat="44.16250198593638" lon="10.24589479679788"><ele>605.0</ele><time>2026-05-02T13:14:31Z</time></trkpt><trkpt lat="44.162437183984025" lon="10.245741656755373"><ele>605.0</ele><time>2026-05-02T13:14:32Z</time></trkpt><trkpt lat="44.162389670788045" lon="10.245595871388357"><ele>605.0</ele><time>2026-05-02T13:14:33Z</time></trkpt><trkpt lat="44.16235706735256" lon="10.245438238512826"><ele>605.0</ele><time>2026-05-02T13:14:34Z</time></trkpt><trkpt lat="44.16234616764084" lon="10.245273617249739"><ele>605.5</ele><time>2026-05-02T13:14:35Z</time></trkpt><trkpt lat="44.16236792850452" lon="10.24511029247929"><ele>606.0</ele><time>2026-05-02T13:14:36Z</time></trkpt><trkpt lat="44.16240477533077" lon="10.244944757857176"><ele>606.5</ele><time>2026-05-02T13:14:37Z</time></trkpt><trkpt lat="44.16245376679124" lon="10.24477103772935"><ele>607.0</ele><time>2026-05-02T13:14:38Z</time></trkpt><trkpt lat="44.162506540420274" lon="10.24459683357648"><ele>607.0</ele><time>2026-05-02T13:14:39Z</time></trkpt><trkpt lat="44.162546286034456" lon="10.244429365903983"><ele>607.0</ele><time>2026-05-02T13:14:40Z</time></trkpt><trkpt lat="44.162573600791184" lon="10.244280916818363"><ele>607.0</ele><time>2026-05-02T13:14:41Z</time></trkpt><trkpt lat="44.16258767507931" lon="10.244142329517382"><ele>607.0</ele><time>2026-05-02T13:14:42Z</time></trkpt><trkpt lat="44.16259363692726" lon="10.244019488594342"><ele>607.0</ele><time>2026-05-02T13:14:43Z</time></trkpt><trkpt lat="44.16259289181249" lon="10.243919282871204"><ele>607.6</ele><time>2026-05-02T13:14:44Z</time></trkpt><trkpt lat="44.162573380960986" lon="10.243813212407273"><ele>608.2</ele><time>2026-05-02T13:14:46Z</time></trkpt><trkpt lat="44.162543345327435" lon="10.243699325003464"><ele>608.8</ele><time>2026-05-02T13:14:48Z</time></trkpt><trkpt lat="44.16249768401179" lon="10.243580367556943"><ele>609.4</ele><time>2026-05-02T13:14:50Z</time></trkpt><trkpt lat="44.162442972075816" lon="10.24346361841315"><ele>610.0</ele><time>2026-05-02T13:14:52Z</time></trkpt><trkpt lat="44.16236733294841" lon="10.243322425342775"><ele>609.6666666666667</ele><time>2026-05-02T13:14:54Z</time></trkpt><trkpt lat="44.162313175930585" lon="10.24324364586137"><ele>609.3333333333334</ele><time>2026-05-02T13:14:55Z</time></trkpt><trkpt lat="44.16224954469854" lon="10.243154876550962"><ele>609.0</ele><time>2026-05-02T13:14:56Z</time></trkpt><trkpt lat="44.162186814978206" lon="10.243068290658762"><ele>608.6666666666666</ele><time>2026-05-02T13:14:57Z</time></trkpt><trkpt lat="44.16211968847476" lon="10.242978845676262"><ele>608.3333333333333</ele><time>2026-05-02T13:14:58Z</time></trkpt><trkpt lat="44.16208478742828" lon="10.242887034134595"><ele>608.0</ele><time>2026-05-02T13:14:59Z</time></trkpt><trkpt lat="44.1620435380083" lon="10.242801236843297"><ele>608.0</ele><time>2026-05-02T13:15:00Z</time></trkpt><trkpt lat="44.16200468564605" lon="10.242714410656834"><ele>608.0</ele><time>2026-05-02T13:15:01Z</time></trkpt><trkpt lat="44.16198149230158" lon="10.242586624941136"><ele>608.0</ele><time>2026-05-02T13:15:02Z</time></trkpt><trkpt lat="44.1619755529573" lon="10.242482458640584"><ele>608.0</ele><time>2026-05-02T13:15:03Z</time></trkpt><trkpt lat="44.16198251709017" lon="10.24236618702904"><ele>608.0</ele><time>2026-05-02T13:15:04Z</time></trkpt><trkpt lat="44.16199868832638" lon="10.242240014986765"><ele>608.0</ele><time>2026-05-02T13:15:05Z</time></trkpt><trkpt lat="44.16201131573288" lon="10.242107074110917"><ele>608.0</ele><time>2026-05-02T13:15:06Z</time></trkpt><trkpt lat="44.162020211831" lon="10.241970082682835"><ele>608.0</ele><time>2026-05-02T13:15:07Z</time></trkpt><trkpt lat="44.16201372171695" lon="10.241855800307484"><ele>608.0</ele><time>2026-05-02T13:15:08Z</time></trkpt><trkpt lat="44.161989791539774" lon="10.241742088371218"><ele>608.0</ele><time>2026-05-02T13:15:09Z</time></trkpt><trkpt lat="44.161952524054854" lon="10.241633250917861"><ele>608.0</ele><time>2026-05-02T13:15:10Z</time></trkpt><trkpt lat="44.1619149831652" lon="10.241512694398677"><ele>608.0</ele><time>2026-05-02T13:15:11Z</time></trkpt><trkpt lat="44.16188636188189" lon="10.241413509706998"><ele>608.1999999999999</ele><time>2026-05-02T13:15:12Z</time></trkpt><trkpt lat="44.16186631388545" lon="10.241236610410379"><ele>608.4</ele><time>2026-05-02T13:15:14Z</time></trkpt><trkpt lat="44.16187552830623" lon="10.241122856384848"><ele>608.5999999999999</ele><time>2026-05-02T13:15:15Z</time></trkpt><trkpt lat="44.16191073349418" lon="10.24099630040161"><ele>608.8</ele><time>2026-05-02T13:15:16Z</time></trkpt><trkpt lat="44.16195150580528" lon="10.240860285324343"><ele>609.0</ele><time>2026-05-02T13:15:17Z</time></trkpt><trkpt lat="44.16198819542277" lon="10.240729056346535"><ele>609.0</ele><time>2026-05-02T13:15:18Z</time></trkpt><trkpt lat="44.16201341457175" lon="10.240609737502007"><ele>609.0</ele><time>2026-05-02T13:15:19Z</time></trkpt><trkpt lat="44.16203166327669" lon="10.240470130919649"><ele>609.0</ele><time>2026-05-02T13:15:20Z</time></trkpt><trkpt lat="44.16204380268809" lon="10.24032545453821"><ele>609.0</ele><time>2026-05-02T13:15:21Z</time></trkpt><trkpt lat="44.16205259800162" lon="10.240182561252341"><ele>609.0</ele><time>2026-05-02T13:15:22Z</time></trkpt><trkpt lat="44.16205633219291" lon="10.24003079468027"><ele>609.0</ele><time>2026-05-02T13:15:23Z</time></trkpt><trkpt lat="44.162061207906916" lon="10.239879810406858"><ele>609.0</ele><time>2026-05-02T13:15:24Z</time></trkpt><trkpt lat="44.162054935390785" lon="10.23972027439961"><ele>609.0</ele><time>2026-05-02T13:15:25Z</time></trkpt><trkpt lat="44.16205559809821" lon="10.239563532221844"><ele>609.0</ele><time>2026-05-02T13:15:26Z</time></trkpt><trkpt lat="44.1620589209335" lon="10.239407008635137"><ele>609.0</ele><time>2026-05-02T13:15:27Z</time></trkpt><trkpt lat="44.16205588371969" lon="10.239239248816538"><ele>609.2</ele><time>2026-05-02T13:15:28Z</time></trkpt><trkpt lat="44.162048650549856" lon="10.239076086005142"><ele>609.4</ele><time>2026-05-02T13:15:29Z</time></trkpt><trkpt lat="44.162041621047635" lon="10.238919777949253"><ele>609.6</ele><time>2026-05-02T13:15:30Z</time></trkpt><trkpt lat="44.16203975318221" lon="10.238777177236642"><ele>609.8</ele><time>2026-05-02T13:15:31Z</time></trkpt><trkpt lat="44.1620409745397" lon="10.238656699628812"><ele>610.0</ele><time>2026-05-02T13:15:32Z</time></trkpt><trkpt lat="44.1620374327351" lon="10.238532727001822"><ele>610.0</ele><time>2026-05-02T13:15:33Z</time></trkpt><trkpt lat="44.16203450467353" lon="10.23843024471982"><ele>610.0</ele><time>2026-05-02T13:15:34Z</time></trkpt><trkpt lat="44.162029670235654" lon="10.238275626449331"><ele>610.0</ele><time>2026-05-02T13:15:36Z</time></trkpt><trkpt lat="44.16202257718462" lon="10.238166499258297"><ele>610.0</ele><time>2026-05-02T13:15:38Z</time></trkpt><trkpt lat="44.16201868951103" lon="10.238076443001832"><ele>610.0</ele><time>2026-05-02T13:15:40Z</time></trkpt><trkpt lat="44.16202891650705" lon="10.237938544312275"><ele>610.0</ele><time>2026-05-02T13:16:03Z</time></trkpt><trkpt lat="44.16202653951644" lon="10.237843015410558"><ele>610.4</ele><time>2026-05-02T13:16:04Z</time></trkpt><trkpt lat="44.16201326217959" lon="10.237712397719918"><ele>610.8</ele><time>2026-05-02T13:16:05Z</time></trkpt><trkpt lat="44.16201206681344" lon="10.237579395111098"><ele>611.2</ele><time>2026-05-02T13:16:06Z</time></trkpt><trkpt lat="44.1620053429963" lon="10.237418490015834"><ele>611.6</ele><time>2026-05-02T13:16:07Z</time></trkpt><trkpt lat="44.16199893217219" lon="10.237220375249324"><ele>612.0</ele><time>2026-05-02T13:16:08Z</time></trkpt><trkpt lat="44.161993595618874" lon="10.237038427126125"><ele>612.5</ele><time>2026-05-02T13:16:09Z</time></trkpt><trkpt lat="44.16198983676423" lon="10.236857449918556"><ele>613.0</ele><time>2026-05-02T13:16:10Z</time></trkpt><trkpt lat="44.161984696921046" lon="10.236680455176069"><ele>613.5</ele><time>2026-05-02T13:16:11Z</time></trkpt><trkpt lat="44.16198007035219" lon="10.236516552288448"><ele>614.0</ele><time>2026-05-02T13:16:12Z</time></trkpt><trkpt lat="44.161980027773645" lon="10.236374540581611"><ele>614.2</ele><time>2026-05-02T13:16:13Z</time></trkpt><trkpt lat="44.16198823884531" lon="10.236249531138222"><ele>614.4</ele><time>2026-05-02T13:16:14Z</time></trkpt><trkpt lat="44.162007762578035" lon="10.236129556199495"><ele>614.6</ele><time>2026-05-02T13:16:15Z</time></trkpt><trkpt lat="44.16203836041292" lon="10.235990693910203"><ele>614.8</ele><time>2026-05-02T13:16:16Z</time></trkpt><trkpt lat="44.162078962080365" lon="10.235875086669934"><ele>615.0</ele><time>2026-05-02T13:16:17Z</time></trkpt><trkpt lat="44.162132820484345" lon="10.235747961940975"><ele>615.4</ele><time>2026-05-02T13:16:18Z</time></trkpt><trkpt lat="44.16218850138562" lon="10.2355919500662"><ele>615.8</ele><time>2026-05-02T13:16:19.001Z</time></trkpt><trkpt lat="44.16223742497042" lon="10.235453811656228"><ele>616.2</ele><time>2026-05-02T13:16:20Z</time></trkpt><trkpt lat="44.1622699553902" lon="10.235335427111256"><ele>616.6</ele><time>2026-05-02T13:16:21Z</time></trkpt><trkpt lat="44.16228072539289" lon="10.235216338061841"><ele>617.0</ele><time>2026-05-02T13:16:22Z</time></trkpt><trkpt lat="44.162265823976476" lon="10.235068852371679"><ele>617.0</ele><time>2026-05-02T13:16:23Z</time></trkpt><trkpt lat="44.162236747645075" lon="10.23492885229322"><ele>617.0</ele><time>2026-05-02T13:16:24Z</time></trkpt><trkpt lat="44.16219479968304" lon="10.234793042813617"><ele>617.0</ele><time>2026-05-02T13:16:25Z</time></trkpt><trkpt lat="44.16214379376014" lon="10.234650321287178"><ele>617.0</ele><time>2026-05-02T13:16:26Z</time></trkpt><trkpt lat="44.162104379485086" lon="10.23450123639425"><ele>617.0</ele><time>2026-05-02T13:16:27Z</time></trkpt><trkpt lat="44.16206692324749" lon="10.234367202679076"><ele>617.5</ele><time>2026-05-02T13:16:28Z</time></trkpt><trkpt lat="44.1620505095005" lon="10.23422025362923"><ele>618.0</ele><time>2026-05-02T13:16:29Z</time></trkpt><trkpt lat="44.162034378994896" lon="10.234054695751222"><ele>618.5</ele><time>2026-05-02T13:16:30Z</time></trkpt><trkpt lat="44.162010663503" lon="10.233868993170455"><ele>619.0</ele><time>2026-05-02T13:16:31Z</time></trkpt><trkpt lat="44.1619904929636" lon="10.233677403074147"><ele>620.25</ele><time>2026-05-02T13:16:32Z</time></trkpt><trkpt lat="44.161976539041106" lon="10.233494550491388"><ele>621.5</ele><time>2026-05-02T13:16:33Z</time></trkpt><trkpt lat="44.161989247722936" lon="10.23331502753235"><ele>622.75</ele><time>2026-05-02T13:16:34Z</time></trkpt><trkpt lat="44.16199506211386" lon="10.23310851063457"><ele>624.0</ele><time>2026-05-02T13:16:35Z</time></trkpt><trkpt lat="44.161990451395035" lon="10.23289501026599"><ele>624.3333333333334</ele><time>2026-05-02T13:16:36Z</time></trkpt><trkpt lat="44.16200130050486" lon="10.23267395574528"><ele>624.6666666666667</ele><time>2026-05-02T13:16:37Z</time></trkpt><trkpt lat="44.162008440134095" lon="10.232444929787595"><ele>625.0</ele><time>2026-05-02T13:16:38Z</time></trkpt><trkpt lat="44.16202062720058" lon="10.232219336257916"><ele>625.6666666666667</ele><time>2026-05-02T13:16:39Z</time></trkpt><trkpt lat="44.16202991992657" lon="10.231987988736446"><ele>626.3333333333334</ele><time>2026-05-02T13:16:40Z</time></trkpt><trkpt lat="44.16203806269735" lon="10.23176355712561"><ele>627.0</ele><time>2026-05-02T13:16:41Z</time></trkpt><trkpt lat="44.162042729433985" lon="10.231525027244418"><ele>628.3333333333334</ele><time>2026-05-02T13:16:42Z</time></trkpt><trkpt lat="44.162051330985335" lon="10.231273691905884"><ele>629.6666666666667</ele><time>2026-05-02T13:16:43Z</time></trkpt><trkpt lat="44.16205974632839" lon="10.23103309525649"><ele>631.0</ele><time>2026-05-02T13:16:44Z</time></trkpt><trkpt lat="44.16206268699726" lon="10.230811132550233"><ele>631.5</ele><time>2026-05-02T13:16:45Z</time></trkpt><trkpt lat="44.16206787559105" lon="10.230619194731291"><ele>632.0</ele><time>2026-05-02T13:16:46Z</time></trkpt><trkpt lat="44.162074558851096" lon="10.230436044040829"><ele>632.5</ele><time>2026-05-02T13:16:47Z</time></trkpt><trkpt lat="44.16208399250193" lon="10.230253816122415"><ele>633.0</ele><time>2026-05-02T13:16:48Z</time></trkpt><trkpt lat="44.16209661765319" lon="10.230069102953587"><ele>633.0</ele><time>2026-05-02T13:16:49Z</time></trkpt><trkpt lat="44.16210117688216" lon="10.229900337193245"><ele>633.0</ele><time>2026-05-02T13:16:50Z</time></trkpt><trkpt lat="44.16209220391428" lon="10.229755984025893"><ele>633.0</ele><time>2026-05-02T13:16:51Z</time></trkpt><trkpt lat="44.16206540648482" lon="10.229617399166909"><ele>633.0</ele><time>2026-05-02T13:16:52Z</time></trkpt><trkpt lat="44.16202277533753" lon="10.22946900084547"><ele>633.0</ele><time>2026-05-02T13:16:53Z</time></trkpt><trkpt lat="44.16197123056025" lon="10.229315574440824"><ele>635.25</ele><time>2026-05-02T13:16:54Z</time></trkpt><trkpt lat="44.16191877123861" lon="10.229153318155168"><ele>637.5</ele><time>2026-05-02T13:16:55Z</time></trkpt><trkpt lat="44.16186593431644" lon="10.22897940465885"><ele>639.75</ele><time>2026-05-02T13:16:56Z</time></trkpt><trkpt lat="44.16181015921347" lon="10.228806056841599"><ele>642.0</ele><time>2026-05-02T13:16:57Z</time></trkpt><trkpt lat="44.16175999036873" lon="10.228633362566487"><ele>644.0</ele><time>2026-05-02T13:16:58Z</time></trkpt><trkpt lat="44.16172518896558" lon="10.228483148576483"><ele>646.0</ele><time>2026-05-02T13:16:59Z</time></trkpt><trkpt lat="44.161696832484814" lon="10.228331050702355"><ele>648.0</ele><time>2026-05-02T13:17:00Z</time></trkpt><trkpt lat="44.16168574107285" lon="10.228173139918793"><ele>650.0</ele><time>2026-05-02T13:17:01Z</time></trkpt><trkpt lat="44.16169569833147" lon="10.228018936756357"><ele>650.0</ele><time>2026-05-02T13:17:02Z</time></trkpt><trkpt lat="44.16172643568066" lon="10.227874870609302"><ele>650.0</ele><time>2026-05-02T13:17:03Z</time></trkpt><trkpt lat="44.16178025050181" lon="10.227737888987022"><ele>650.0</ele><time>2026-05-02T13:17:04Z</time></trkpt><trkpt lat="44.161854615597555" lon="10.227605844400637"><ele>650.0</ele><time>2026-05-02T13:17:05Z</time></trkpt><trkpt lat="44.16192697300982" lon="10.227480260031095"><ele>650.0</ele><time>2026-05-02T13:17:06Z</time></trkpt><trkpt lat="44.16197500191349" lon="10.227365924604067"><ele>650.0</ele><time>2026-05-02T13:17:07Z</time></trkpt><trkpt lat="44.162004514842266" lon="10.22724785056459"><ele>650.0</ele><time>2026-05-02T13:17:08Z</time></trkpt><trkpt lat="44.16200868066241" lon="10.227115944050281"><ele>650.0</ele><time>2026-05-02T13:17:09Z</time></trkpt><trkpt lat="44.16201251603719" lon="10.226978417812845"><ele>650.0</ele><time>2026-05-02T13:17:10Z</time></trkpt><trkpt lat="44.16196891148815" lon="10.226835195965975"><ele>651.5</ele><time>2026-05-02T13:17:11Z</time></trkpt><trkpt lat="44.16193266029251" lon="10.226681206520524"><ele>653.0</ele><time>2026-05-02T13:17:12Z</time></trkpt><trkpt lat="44.16189231668577" lon="10.22651645126199"><ele>654.5</ele><time>2026-05-02T13:17:13Z</time></trkpt><trkpt lat="44.161847506054414" lon="10.226334919065977"><ele>656.0</ele><time>2026-05-02T13:17:14Z</time></trkpt><trkpt lat="44.16179197904457" lon="10.226142838459547"><ele>659.75</ele><time>2026-05-02T13:17:15Z</time></trkpt><trkpt lat="44.16173908610325" lon="10.225959442162964"><ele>663.5</ele><time>2026-05-02T13:17:16Z</time></trkpt><trkpt lat="44.16168867265839" lon="10.225785308505646"><ele>667.25</ele><time>2026-05-02T13:17:17Z</time></trkpt><trkpt lat="44.16165498302399" lon="10.225598998637258"><ele>671.0</ele><time>2026-05-02T13:17:18Z</time></trkpt><trkpt lat="44.16161886698734" lon="10.225416436448468"><ele>673.0</ele><time>2026-05-02T13:17:19Z</time></trkpt><trkpt lat="44.16157325028957" lon="10.225225851345902"><ele>675.0</ele><time>2026-05-02T13:17:20Z</time></trkpt><trkpt lat="44.16153721511629" lon="10.225031222451408"><ele>677.0</ele><time>2026-05-02T13:17:21Z</time></trkpt><trkpt lat="44.161515508152476" lon="10.224831286769628"><ele>679.0</ele><time>2026-05-02T13:17:22Z</time></trkpt><trkpt lat="44.16148220990888" lon="10.224652844041872"><ele>672.5</ele><time>2026-05-02T13:17:23Z</time></trkpt><trkpt lat="44.161461465891975" lon="10.224496773608825"><ele>666.0</ele><time>2026-05-02T13:17:24Z</time></trkpt><trkpt lat="44.16145714760844" lon="10.224342720601122"><ele>659.5</ele><time>2026-05-02T13:17:25Z</time></trkpt><trkpt lat="44.16147317322368" lon="10.224169371357242"><ele>653.0</ele><time>2026-05-02T13:17:26Z</time></trkpt><trkpt lat="44.16150147994585" lon="10.22398379647002"><ele>662.0</ele><time>2026-05-02T13:17:27Z</time></trkpt><trkpt lat="44.161535478029656" lon="10.223789949480636"><ele>671.0</ele><time>2026-05-02T13:17:28Z</time></trkpt><trkpt lat="44.161553114553364" lon="10.223608980240078"><ele>680.0</ele><time>2026-05-02T13:17:29Z</time></trkpt><trkpt lat="44.161566958884414" lon="10.223471306242265"><ele>689.0</ele><time>2026-05-02T13:17:30Z</time></trkpt><trkpt lat="44.161559676634084" lon="10.22334231766593"><ele>682.0</ele><time>2026-05-02T13:17:31Z</time></trkpt><trkpt lat="44.16153016747499" lon="10.223195508187592"><ele>675.0</ele><time>2026-05-02T13:17:32Z</time></trkpt><trkpt lat="44.1614769575997" lon="10.223047062468504"><ele>668.0</ele><time>2026-05-02T13:17:33Z</time></trkpt><trkpt lat="44.16143544207399" lon="10.222876516087736"><ele>661.0</ele><time>2026-05-02T13:17:34Z</time></trkpt><trkpt lat="44.16140231662471" lon="10.222697283250339"><ele>661.0</ele><time>2026-05-02T13:17:35Z</time></trkpt><trkpt lat="44.161382076065834" lon="10.222524852953134"><ele>661.0</ele><time>2026-05-02T13:17:36Z</time></trkpt><trkpt lat="44.161380147581404" lon="10.222372476416531"><ele>661.0</ele><time>2026-05-02T13:17:37Z</time></trkpt><trkpt lat="44.16139662111145" lon="10.222223709114447"><ele>661.0</ele><time>2026-05-02T13:17:38Z</time></trkpt><trkpt lat="44.161416858614764" lon="10.222052739896002"><ele>661.5999999999999</ele><time>2026-05-02T13:17:39Z</time></trkpt><trkpt lat="44.161433207154865" lon="10.221896359220612"><ele>662.2</ele><time>2026-05-02T13:17:40Z</time></trkpt><trkpt lat="44.16144019381364" lon="10.221764793368715"><ele>662.8</ele><time>2026-05-02T13:17:41Z</time></trkpt><trkpt lat="44.161441747571224" lon="10.221644240989866"><ele>663.4000000000001</ele><time>2026-05-02T13:17:42Z</time></trkpt><trkpt lat="44.161441953433744" lon="10.221526296242153"><ele>664.0</ele><time>2026-05-02T13:17:43Z</time></trkpt><trkpt lat="44.16144279295439" lon="10.22140609586161"><ele>664.0</ele><time>2026-05-02T13:17:44Z</time></trkpt><trkpt lat="44.16144550070455" lon="10.221281450360697"><ele>664.0</ele><time>2026-05-02T13:17:45Z</time></trkpt><trkpt lat="44.16145524470447" lon="10.221157341209514"><ele>664.0</ele><time>2026-05-02T13:17:46Z</time></trkpt><trkpt lat="44.161481174568365" lon="10.221033739504504"><ele>664.0</ele><time>2026-05-02T13:17:47Z</time></trkpt><trkpt lat="44.16152713238632" lon="10.220905529807302"><ele>664.0</ele><time>2026-05-02T13:17:48Z</time></trkpt><trkpt lat="44.16159224569866" lon="10.220783901277914"><ele>668.2</ele><time>2026-05-02T13:17:49Z</time></trkpt><trkpt lat="44.161659685338236" lon="10.2206809174588"><ele>672.4000000000001</ele><time>2026-05-02T13:17:50Z</time></trkpt><trkpt lat="44.161730875410726" lon="10.220576938269732"><ele>676.6</ele><time>2026-05-02T13:17:51Z</time></trkpt><trkpt lat="44.16181450425587" lon="10.220479318701864"><ele>680.8</ele><time>2026-05-02T13:17:52Z</time></trkpt><trkpt lat="44.161900001329656" lon="10.220399051536221"><ele>685.0</ele><time>2026-05-02T13:17:53Z</time></trkpt><trkpt lat="44.16198702015037" lon="10.220315216586286"><ele>685.0</ele><time>2026-05-02T13:17:54Z</time></trkpt><trkpt lat="44.1620683682855" lon="10.220234062204405"><ele>685.0</ele><time>2026-05-02T13:17:55Z</time></trkpt><trkpt lat="44.16214831882879" lon="10.220158298632803"><ele>685.0</ele><time>2026-05-02T13:17:56Z</time></trkpt><trkpt lat="44.16222910369666" lon="10.220083530269875"><ele>685.0</ele><time>2026-05-02T13:17:57Z</time></trkpt><trkpt lat="44.1623075123322" lon="10.220012197502689"><ele>685.0</ele><time>2026-05-02T13:17:58Z</time></trkpt><trkpt lat="44.162386766968226" lon="10.219940103699743"><ele>689.2</ele><time>2026-05-02T13:17:59Z</time></trkpt><trkpt lat="44.16246768063983" lon="10.21986302440319"><ele>693.4</ele><time>2026-05-02T13:18:00Z</time></trkpt><trkpt lat="44.16255274096621" lon="10.219794658989974"><ele>697.5999999999999</ele><time>2026-05-02T13:18:01Z</time></trkpt><trkpt lat="44.162641894861345" lon="10.21972272424124"><ele>701.8</ele><time>2026-05-02T13:18:02Z</time></trkpt><trkpt lat="44.16272262742935" lon="10.219653904128577"><ele>706.0</ele><time>2026-05-02T13:18:03Z</time></trkpt><trkpt lat="44.16280016586409" lon="10.219591378144951"><ele>707.1666666666667</ele><time>2026-05-02T13:18:04Z</time></trkpt><trkpt lat="44.162868533961586" lon="10.21954304747121"><ele>708.3333333333334</ele><time>2026-05-02T13:18:05Z</time></trkpt><trkpt lat="44.16295481758803" lon="10.21943312484136"><ele>709.5</ele><time>2026-05-02T13:18:07Z</time></trkpt><trkpt lat="44.16297455808723" lon="10.21928595089223"><ele>710.6666666666666</ele><time>2026-05-02T13:18:09Z</time></trkpt><trkpt lat="44.16292675644025" lon="10.219209167129877"><ele>711.8333333333333</ele><time>2026-05-02T13:18:10Z</time></trkpt><trkpt lat="44.16287370695698" lon="10.21915288115642"><ele>713.0</ele><time>2026-05-02T13:18:11Z</time></trkpt><trkpt lat="44.16274690211493" lon="10.219134403088601"><ele>713.0</ele><time>2026-05-02T13:18:13Z</time></trkpt><trkpt lat="44.162675461465646" lon="10.219157901368785"><ele>713.0</ele><time>2026-05-02T13:18:14Z</time></trkpt><trkpt lat="44.16259467005107" lon="10.219161964137545"><ele>713.0</ele><time>2026-05-02T13:18:15Z</time></trkpt><trkpt lat="44.16250626021346" lon="10.219207204733838"><ele>713.0</ele><time>2026-05-02T13:18:16Z</time></trkpt><trkpt lat="44.16240710496906" lon="10.219224781617003"><ele>713.0</ele><time>2026-05-02T13:18:17Z</time></trkpt><trkpt lat="44.16230439966576" lon="10.219250796313762"><ele>711.1666666666666</ele><time>2026-05-02T13:18:18Z</time></trkpt><trkpt lat="44.16221774266419" lon="10.219240122204418"><ele>709.3333333333333</ele><time>2026-05-02T13:18:19Z</time></trkpt><trkpt lat="44.1621392318119" lon="10.219253313996628"><ele>707.5</ele><time>2026-05-02T13:18:20Z</time></trkpt><trkpt lat="44.16206515514521" lon="10.219200358749644"><ele>705.6666666666666</ele><time>2026-05-02T13:18:21Z</time></trkpt><trkpt lat="44.16200431444605" lon="10.21915201908649"><ele>703.8333333333334</ele><time>2026-05-02T13:18:22Z</time></trkpt><trkpt lat="44.161972272331035" lon="10.21904459975824"><ele>702.0</ele><time>2026-05-02T13:18:23Z</time></trkpt><trkpt lat="44.16196232844578" lon="10.218916584660358"><ele>702.0</ele><time>2026-05-02T13:18:24.001Z</time></trkpt><trkpt lat="44.16197303064877" lon="10.218767599919724"><ele>702.0</ele><time>2026-05-02T13:18:25.001Z</time></trkpt><trkpt lat="44.16198797977333" lon="10.218608935531465"><ele>702.0</ele><time>2026-05-02T13:18:26.001Z</time></trkpt><trkpt lat="44.16201341525463" lon="10.218475452870504"><ele>702.0</ele><time>2026-05-02T13:18:27.001Z</time></trkpt><trkpt lat="44.162042190705925" lon="10.218347279621645"><ele>702.0</ele><time>2026-05-02T13:18:28.001Z</time></trkpt><trkpt lat="44.16207962032181" lon="10.218236644940426"><ele>702.8333333333334</ele><time>2026-05-02T13:18:29.001Z</time></trkpt><trkpt lat="44.16212468457088" lon="10.21813380116102"><ele>703.6666666666666</ele><time>2026-05-02T13:18:30.001Z</time></trkpt><trkpt lat="44.162176137966796" lon="10.218039279600333"><ele>704.5</ele><time>2026-05-02T13:18:31.001Z</time></trkpt><trkpt lat="44.1622356985527" lon="10.217954232469317"><ele>705.3333333333333</ele><time>2026-05-02T13:18:32.001Z</time></trkpt><trkpt lat="44.16230025832983" lon="10.217880688403872"><ele>706.1666666666666</ele><time>2026-05-02T13:18:33.001Z</time></trkpt><trkpt lat="44.162372382828764" lon="10.217809193667835"><ele>707.0</ele><time>2026-05-02T13:18:34.001Z</time></trkpt><trkpt lat="44.1624522885395" lon="10.217737722570792"><ele>709.6</ele><time>2026-05-02T13:18:35.001Z</time></trkpt><trkpt lat="44.16253531031386" lon="10.21767108594735"><ele>712.2</ele><time>2026-05-02T13:18:36.001Z</time></trkpt><trkpt lat="44.16261908413693" lon="10.217616068379867"><ele>714.8</ele><time>2026-05-02T13:18:37.001Z</time></trkpt><trkpt lat="44.16270590095444" lon="10.21758021710956"><ele>717.4</ele><time>2026-05-02T13:18:38Z</time></trkpt><trkpt lat="44.162797825588854" lon="10.217566059573118"><ele>720.0</ele><time>2026-05-02T13:18:39Z</time></trkpt><trkpt lat="44.16290177789902" lon="10.217552057361237"><ele>720.0</ele><time>2026-05-02T13:18:40Z</time></trkpt><trkpt lat="44.16301059949123" lon="10.217553221128506"><ele>720.0</ele><time>2026-05-02T13:18:41Z</time></trkpt><trkpt lat="44.16312232147099" lon="10.217540145306105"><ele>720.0</ele><time>2026-05-02T13:18:42Z</time></trkpt><trkpt lat="44.16322756315414" lon="10.217508544848688"><ele>720.0</ele><time>2026-05-02T13:18:43Z</time></trkpt><trkpt lat="44.16332598517381" lon="10.217462351160327"><ele>720.0</ele><time>2026-05-02T13:18:44Z</time></trkpt><trkpt lat="44.163412751018605" lon="10.217395366015085"><ele>721.0</ele><time>2026-05-02T13:18:45Z</time></trkpt><trkpt lat="44.163496048996265" lon="10.217318001903381"><ele>722.0</ele><time>2026-05-02T13:18:46Z</time></trkpt><trkpt lat="44.16357683496976" lon="10.217235083469724"><ele>723.0</ele><time>2026-05-02T13:18:47Z</time></trkpt><trkpt lat="44.163661778442574" lon="10.217139667132802"><ele>724.0</ele><time>2026-05-02T13:18:48Z</time></trkpt><trkpt lat="44.16375100183145" lon="10.217025369087171"><ele>725.0</ele><time>2026-05-02T13:18:49Z</time></trkpt><trkpt lat="44.16384864192316" lon="10.21688823190286"><ele>725.0</ele><time>2026-05-02T13:18:50Z</time></trkpt><trkpt lat="44.163952820737" lon="10.216732283726817"><ele>725.0</ele><time>2026-05-02T13:18:51Z</time></trkpt><trkpt lat="44.16406664201772" lon="10.216576210331644"><ele>725.0</ele><time>2026-05-02T13:18:52Z</time></trkpt><trkpt lat="44.164193820842335" lon="10.216399533456606"><ele>727.6666666666666</ele><time>2026-05-02T13:18:53Z</time></trkpt><trkpt lat="44.16431568527199" lon="10.216221877793057"><ele>730.3333333333334</ele><time>2026-05-02T13:18:54Z</time></trkpt><trkpt lat="44.16442180996937" lon="10.216057295688076"><ele>733.0</ele><time>2026-05-02T13:18:55Z</time></trkpt><trkpt lat="44.16452016940372" lon="10.215890732275968"><ele>733.0</ele><time>2026-05-02T13:18:56Z</time></trkpt><trkpt lat="44.16460903726102" lon="10.215743163424257"><ele>733.0</ele><time>2026-05-02T13:18:57Z</time></trkpt><trkpt lat="44.16468963637361" lon="10.215609630787974"><ele>733.0</ele><time>2026-05-02T13:18:58Z</time></trkpt><trkpt lat="44.16474849274312" lon="10.215493574055708"><ele>733.0</ele><time>2026-05-02T13:18:59Z</time></trkpt><trkpt lat="44.16478529415547" lon="10.215375227590583"><ele>734.0</ele><time>2026-05-02T13:19:00Z</time></trkpt><trkpt lat="44.164788728811295" lon="10.215263999212986"><ele>735.0</ele><time>2026-05-02T13:19:01Z</time></trkpt><trkpt lat="44.164767574017" lon="10.215145356646866"><ele>736.0</ele><time>2026-05-02T13:19:02Z</time></trkpt><trkpt lat="44.16474144188192" lon="10.215024242681531"><ele>737.0</ele><time>2026-05-02T13:19:03Z</time></trkpt><trkpt lat="44.16465206897861" lon="10.21494131626982"><ele>738.0</ele><time>2026-05-02T13:19:04Z</time></trkpt><trkpt lat="44.164552037022005" lon="10.214856872748465"><ele>741.25</ele><time>2026-05-02T13:19:05Z</time></trkpt><trkpt lat="44.164441880288514" lon="10.214749331885688"><ele>744.5</ele><time>2026-05-02T13:19:06Z</time></trkpt><trkpt lat="44.16433241163077" lon="10.214657029376266"><ele>747.75</ele><time>2026-05-02T13:19:07Z</time></trkpt><trkpt lat="44.164235053034176" lon="10.214573384419095"><ele>751.0</ele><time>2026-05-02T13:19:08Z</time></trkpt><trkpt lat="44.16416876481083" lon="10.214461832163455"><ele>751.0</ele><time>2026-05-02T13:19:09Z</time></trkpt><trkpt lat="44.164127806265135" lon="10.214336411162915"><ele>751.0</ele><time>2026-05-02T13:19:10Z</time></trkpt><trkpt lat="44.164107766310906" lon="10.21420244841195"><ele>751.0</ele><time>2026-05-02T13:19:11Z</time></trkpt><trkpt lat="44.16410611759164" lon="10.214040224432633"><ele>751.0</ele><time>2026-05-02T13:19:12Z</time></trkpt><trkpt lat="44.164121523365225" lon="10.213865780977274"><ele>751.0</ele><time>2026-05-02T13:19:13Z</time></trkpt><trkpt lat="44.16414498615436" lon="10.213688860413132"><ele>752.5999999999999</ele><time>2026-05-02T13:19:14Z</time></trkpt><trkpt lat="44.16416413143942" lon="10.213519439672952"><ele>754.2</ele><time>2026-05-02T13:19:15Z</time></trkpt><trkpt lat="44.164183512414446" lon="10.213364230911951"><ele>755.8</ele><time>2026-05-02T13:19:16Z</time></trkpt><trkpt lat="44.164212482733284" lon="10.213224464901257"><ele>757.4000000000001</ele><time>2026-05-02T13:19:17Z</time></trkpt><trkpt lat="44.16425373078958" lon="10.213120443721095"><ele>759.0</ele><time>2026-05-02T13:19:18Z</time></trkpt><trkpt lat="44.164299828061004" lon="10.213035867661167"><ele>760.8333333333334</ele><time>2026-05-02T13:19:19Z</time></trkpt><trkpt lat="44.164341046745434" lon="10.21296438589338"><ele>762.6666666666667</ele><time>2026-05-02T13:19:20Z</time></trkpt><trkpt lat="44.16439930723881" lon="10.212863968380075"><ele>764.5</ele><time>2026-05-02T13:19:22Z</time></trkpt><trkpt lat="44.16431339598405" lon="10.212782115624053"><ele>766.3333333333334</ele><time>2026-05-02T13:19:36Z</time></trkpt><trkpt lat="44.164285330748584" lon="10.212863311199293"><ele>768.1666666666667</ele><time>2026-05-02T13:19:37Z</time></trkpt><trkpt lat="44.16426651035088" lon="10.212955640155352"><ele>770.0</ele><time>2026-05-02T13:19:38Z</time></trkpt><trkpt lat="44.16423678999026" lon="10.213051831975807"><ele>770.0000000000001</ele><time>2026-05-02T13:19:40Z</time></trkpt><trkpt lat="44.16417761824776" lon="10.21308256007569"><ele>770.0</ele><time>2026-05-02T13:19:42Z</time></trkpt><trkpt lat="44.16412028671594" lon="10.213175779821173"><ele>770.0</ele><time>2026-05-02T13:19:50Z</time></trkpt><trkpt lat="44.16418555396985" lon="10.213159658585575"><ele>770.0</ele><time>2026-05-02T13:19:55Z</time></trkpt><trkpt lat="44.164196010910594" lon="10.21306105867944"><ele>770.0000000000001</ele><time>2026-05-02T13:19:57Z</time></trkpt><trkpt lat="44.16427055564303" lon="10.212989634992004"><ele>770.0</ele><time>2026-05-02T13:29:35Z</time></trkpt><trkpt lat="44.16434924391098" lon="10.212907248217258"><ele>770.0</ele><time>2026-05-02T13:29:36Z</time></trkpt><trkpt lat="44.16441645272051" lon="10.212792294329626"><ele>770.0</ele><time>2026-05-02T13:29:37Z</time></trkpt><trkpt lat="44.164484746565584" lon="10.212670454943362"><ele>770.0</ele><time>2026-05-02T13:29:38Z</time></trkpt><trkpt lat="44.16456829698232" lon="10.212528854828975"><ele>770.0</ele><time>2026-05-02T13:29:39Z</time></trkpt><trkpt lat="44.164666263497196" lon="10.212374240672226"><ele>773.3333333333334</ele><time>2026-05-02T13:29:40Z</time></trkpt><trkpt lat="44.16476528374886" lon="10.212224527782036"><ele>776.6666666666667</ele><time>2026-05-02T13:29:41Z</time></trkpt><trkpt lat="44.16487437741833" lon="10.212066718584724"><ele>780.0</ele><time>2026-05-02T13:29:42Z</time></trkpt><trkpt lat="44.16499026458475" lon="10.211909997205368"><ele>780.0</ele><time>2026-05-02T13:29:43Z</time></trkpt><trkpt lat="44.165089412369674" lon="10.211741556570741"><ele>780.0</ele><time>2026-05-02T13:29:44Z</time></trkpt><trkpt lat="44.16516881606713" lon="10.211604844123125"><ele>780.0</ele><time>2026-05-02T13:29:45Z</time></trkpt><trkpt lat="44.16525348797493" lon="10.211456660264966"><ele>780.0</ele><time>2026-05-02T13:29:46Z</time></trkpt><trkpt lat="44.165326145554666" lon="10.211316045783354"><ele>778.0</ele><time>2026-05-02T13:29:47Z</time></trkpt><trkpt lat="44.16537843850606" lon="10.211209701120596"><ele>776.0</ele><time>2026-05-02T13:29:48Z</time></trkpt><trkpt lat="44.165396905160236" lon="10.211082759155035"><ele>774.0</ele><time>2026-05-02T13:29:50Z</time></trkpt><trkpt lat="44.165411827788496" lon="10.210989996577712"><ele>772.0</ele><time>2026-05-02T13:29:51Z</time></trkpt><trkpt lat="44.16539123972958" lon="10.210865227618903"><ele>770.0</ele><time>2026-05-02T13:29:52Z</time></trkpt><trkpt lat="44.165373403480395" lon="10.21073841436009"><ele>768.0</ele><time>2026-05-02T13:29:53Z</time></trkpt><trkpt lat="44.165338871158006" lon="10.210607556771635"><ele>765.0</ele><time>2026-05-02T13:29:54Z</time></trkpt><trkpt lat="44.165313387160936" lon="10.210491767597896"><ele>762.0</ele><time>2026-05-02T13:29:55Z</time></trkpt><trkpt lat="44.16531155755986" lon="10.21037413825944"><ele>759.0</ele><time>2026-05-02T13:29:56Z</time></trkpt><trkpt lat="44.165325847094934" lon="10.21025928657067"><ele>756.0</ele><time>2026-05-02T13:29:57Z</time></trkpt><trkpt lat="44.165363341558646" lon="10.210156497843087"><ele>753.0</ele><time>2026-05-02T13:29:58Z</time></trkpt><trkpt lat="44.1654258887368" lon="10.210059778474628"><ele>750.0</ele><time>2026-05-02T13:29:59Z</time></trkpt><trkpt lat="44.16550960896052" lon="10.21000196646004"><ele>750.0</ele><time>2026-05-02T13:30:00Z</time></trkpt><trkpt lat="44.165594265902726" lon="10.209989820283909"><ele>750.0</ele><time>2026-05-02T13:30:01Z</time></trkpt><trkpt lat="44.16568450831851" lon="10.21001287949626"><ele>750.0</ele><time>2026-05-02T13:30:02Z</time></trkpt><trkpt lat="44.16577741093849" lon="10.210073276268014"><ele>750.0</ele><time>2026-05-02T13:30:03Z</time></trkpt><trkpt lat="44.165857224549136" lon="10.210166801058898"><ele>750.0</ele><time>2026-05-02T13:30:04Z</time></trkpt><trkpt lat="44.16592917051512" lon="10.210285801848267"><ele>749.4</ele><time>2026-05-02T13:30:05Z</time></trkpt><trkpt lat="44.165978712254784" lon="10.210430874072147"><ele>748.8</ele><time>2026-05-02T13:30:06Z</time></trkpt><trkpt lat="44.1660419339849" lon="10.210567158684334"><ele>748.2</ele><time>2026-05-02T13:30:07Z</time></trkpt><trkpt lat="44.1660817094685" lon="10.210653787146994"><ele>747.6</ele><time>2026-05-02T13:30:08Z</time></trkpt><trkpt lat="44.16613558471918" lon="10.210750770695002"><ele>747.0</ele><time>2026-05-02T13:30:09Z</time></trkpt><trkpt lat="44.16620493285185" lon="10.210826330150645"><ele>747.0</ele><time>2026-05-02T13:30:10Z</time></trkpt><trkpt lat="44.16628454656632" lon="10.210881327797322"><ele>747.0</ele><time>2026-05-02T13:30:11Z</time></trkpt><trkpt lat="44.16636774807112" lon="10.21091383665228"><ele>747.0</ele><time>2026-05-02T13:30:12Z</time></trkpt><trkpt lat="44.16645583680851" lon="10.210920624141856"><ele>747.0</ele><time>2026-05-02T13:30:13Z</time></trkpt><trkpt lat="44.166552909785125" lon="10.210901088266166"><ele>747.0</ele><time>2026-05-02T13:30:14Z</time></trkpt><trkpt lat="44.1666539680997" lon="10.210854752209826"><ele>745.0</ele><time>2026-05-02T13:30:15Z</time></trkpt><trkpt lat="44.16675801475953" lon="10.210804038760253"><ele>743.0</ele><time>2026-05-02T13:30:16Z</time></trkpt><trkpt lat="44.166853893985945" lon="10.210764138861148"><ele>741.0</ele><time>2026-05-02T13:30:17Z</time></trkpt><trkpt lat="44.166934503240995" lon="10.210726424020978"><ele>739.0</ele><time>2026-05-02T13:30:18Z</time></trkpt><trkpt lat="44.16700278104894" lon="10.210686174007462"><ele>737.0</ele><time>2026-05-02T13:30:19Z</time></trkpt><trkpt lat="44.16706404853545" lon="10.210628286722846"><ele>735.0</ele><time>2026-05-02T13:30:20Z</time></trkpt><trkpt lat="44.16710847581398" lon="10.210541282550837"><ele>731.6666666666666</ele><time>2026-05-02T13:30:21Z</time></trkpt><trkpt lat="44.16712781153126" lon="10.21043861553846"><ele>728.3333333333334</ele><time>2026-05-02T13:30:22Z</time></trkpt><trkpt lat="44.16712445147219" lon="10.210334176012392"><ele>725.0</ele><time>2026-05-02T13:30:23Z</time></trkpt><trkpt lat="44.1671016249805" lon="10.210229091177128"><ele>721.6666666666667</ele><time>2026-05-02T13:30:24Z</time></trkpt><trkpt lat="44.16705977625892" lon="10.210133029927645"><ele>718.3333333333334</ele><time>2026-05-02T13:30:25Z</time></trkpt><trkpt lat="44.166994398662034" lon="10.210054304034403"><ele>715.0</ele><time>2026-05-02T13:30:26Z</time></trkpt><trkpt lat="44.166916258979555" lon="10.210001408041478"><ele>715.0</ele><time>2026-05-02T13:30:27Z</time></trkpt><trkpt lat="44.16682968479082" lon="10.20997887182122"><ele>715.0</ele><time>2026-05-02T13:30:28Z</time></trkpt><trkpt lat="44.1667486885983" lon="10.209969564396898"><ele>715.0</ele><time>2026-05-02T13:30:29Z</time></trkpt><trkpt lat="44.166671625518866" lon="10.209937371399159"><ele>715.0</ele><time>2026-05-02T13:30:30Z</time></trkpt><trkpt lat="44.16659951755768" lon="10.209916103599673"><ele>715.0</ele><time>2026-05-02T13:30:31Z</time></trkpt><trkpt lat="44.16648631449101" lon="10.209876966462337"><ele>715.0</ele><time>2026-05-02T13:30:33Z</time></trkpt><trkpt lat="44.16638285414318" lon="10.20985142375324"><ele>715.6</ele><time>2026-05-02T13:30:35Z</time></trkpt><trkpt lat="44.16632243123816" lon="10.209737821798806"><ele>716.2</ele><time>2026-05-02T13:30:37Z</time></trkpt><trkpt lat="44.166351086119185" lon="10.2095707003462"><ele>716.8</ele><time>2026-05-02T13:30:39Z</time></trkpt><trkpt lat="44.166405338253476" lon="10.209498610927861"><ele>717.4</ele><time>2026-05-02T13:30:40Z</time></trkpt><trkpt lat="44.16647192630739" lon="10.20945062420482"><ele>718.0</ele><time>2026-05-02T13:30:41Z</time></trkpt><trkpt lat="44.16655421015869" lon="10.209458886389262"><ele>713.75</ele><time>2026-05-02T13:30:42Z</time></trkpt><trkpt lat="44.16662756615661" lon="10.209551081991126"><ele>709.5</ele><time>2026-05-02T13:30:43Z</time></trkpt><trkpt lat="44.16673976969327" lon="10.209633083158916"><ele>705.25</ele><time>2026-05-02T13:30:44Z</time></trkpt><trkpt lat="44.166840181096646" lon="10.209718640001173"><ele>701.0</ele><time>2026-05-02T13:30:45Z</time></trkpt><trkpt lat="44.16694182989842" lon="10.209785716330593"><ele>703.1999999999999</ele><time>2026-05-02T13:30:46Z</time></trkpt><trkpt lat="44.16703956805361" lon="10.209853802721346"><ele>705.4</ele><time>2026-05-02T13:30:47Z</time></trkpt><trkpt lat="44.16713936843886" lon="10.209912415307327"><ele>707.6</ele><time>2026-05-02T13:30:48Z</time></trkpt><trkpt lat="44.16723657564808" lon="10.20996147489889"><ele>709.8</ele><time>2026-05-02T13:30:49Z</time></trkpt><trkpt lat="44.16734311196994" lon="10.209971611412612"><ele>712.0</ele><time>2026-05-02T13:30:50Z</time></trkpt><trkpt lat="44.167452171517716" lon="10.209973007309785"><ele>712.0</ele><time>2026-05-02T13:30:51Z</time></trkpt><trkpt lat="44.16755974882241" lon="10.209949658345657"><ele>712.0</ele><time>2026-05-02T13:30:52Z</time></trkpt><trkpt lat="44.167660172676385" lon="10.209908651957234"><ele>712.0</ele><time>2026-05-02T13:30:53Z</time></trkpt><trkpt lat="44.167758935236265" lon="10.209849065557709"><ele>712.0</ele><time>2026-05-02T13:30:54Z</time></trkpt><trkpt lat="44.1678560508392" lon="10.209765657020663"><ele>712.0</ele><time>2026-05-02T13:30:55Z</time></trkpt><trkpt lat="44.167942019139424" lon="10.209672506875702"><ele>709.8</ele><time>2026-05-02T13:30:56Z</time></trkpt><trkpt lat="44.16801579131396" lon="10.209571971673201"><ele>707.6</ele><time>2026-05-02T13:30:57Z</time></trkpt><trkpt lat="44.168077049333036" lon="10.209459160099904"><ele>705.4</ele><time>2026-05-02T13:30:58Z</time></trkpt><trkpt lat="44.168127693414185" lon="10.2093440203699"><ele>703.1999999999999</ele><time>2026-05-02T13:30:59Z</time></trkpt><trkpt lat="44.16817491664408" lon="10.20922837935411"><ele>701.0</ele><time>2026-05-02T13:31:00Z</time></trkpt><trkpt lat="44.16821892945969" lon="10.209129250623379"><ele>698.8333333333333</ele><time>2026-05-02T13:31:01Z</time></trkpt><trkpt lat="44.16826635443212" lon="10.209036250437348"><ele>696.6666666666666</ele><time>2026-05-02T13:31:02Z</time></trkpt><trkpt lat="44.168320254276885" lon="10.208960451657145"><ele>694.5</ele><time>2026-05-02T13:31:03Z</time></trkpt><trkpt lat="44.16838805033593" lon="10.208887506440577"><ele>692.3333333333334</ele><time>2026-05-02T13:31:04Z</time></trkpt><trkpt lat="44.16846589521576" lon="10.208827809349428"><ele>690.1666666666667</ele><time>2026-05-02T13:31:05Z</time></trkpt><trkpt lat="44.16855501759933" lon="10.20878849267003"><ele>688.0</ele><time>2026-05-02T13:31:06Z</time></trkpt><trkpt lat="44.168650520659405" lon="10.208792395947027"><ele>687.0</ele><time>2026-05-02T13:31:07Z</time></trkpt><trkpt lat="44.1687397447157" lon="10.208804613194904"><ele>686.0</ele><time>2026-05-02T13:31:08Z</time></trkpt><trkpt lat="44.16881969504288" lon="10.208814722324806"><ele>685.0</ele><time>2026-05-02T13:31:09Z</time></trkpt><trkpt lat="44.16890326841272" lon="10.20885068160258"><ele>684.0</ele><time>2026-05-02T13:31:10Z</time></trkpt><trkpt lat="44.16898022781249" lon="10.208896716557403"><ele>683.0</ele><time>2026-05-02T13:31:11Z</time></trkpt><trkpt lat="44.169063051371765" lon="10.208947513277382"><ele>682.0</ele><time>2026-05-02T13:31:12Z</time></trkpt><trkpt lat="44.16914132290826" lon="10.20899508679764"><ele>682.0</ele><time>2026-05-02T13:31:13Z</time></trkpt><trkpt lat="44.169211695391866" lon="10.209035834852333"><ele>682.0</ele><time>2026-05-02T13:31:14Z</time></trkpt><trkpt lat="44.16926810927657" lon="10.209082380587095"><ele>682.0</ele><time>2026-05-02T13:31:15Z</time></trkpt><trkpt lat="44.16932535967898" lon="10.209144699054514"><ele>682.0</ele><time>2026-05-02T13:31:16Z</time></trkpt><trkpt lat="44.169370310713816" lon="10.209215680848537"><ele>682.0</ele><time>2026-05-02T13:31:17Z</time></trkpt><trkpt lat="44.169411455188865" lon="10.209298927791583"><ele>682.0</ele><time>2026-05-02T13:31:18Z</time></trkpt><trkpt lat="44.16945811833133" lon="10.209475122571797"><ele>682.0</ele><time>2026-05-02T13:31:20Z</time></trkpt><trkpt lat="44.16948033626297" lon="10.209575431449954"><ele>682.0</ele><time>2026-05-02T13:31:21Z</time></trkpt><trkpt lat="44.16950788440858" lon="10.209659135397322"><ele>682.0</ele><time>2026-05-02T13:31:22Z</time></trkpt><trkpt lat="44.1695556624511" lon="10.2097180628328"><ele>682.0</ele><time>2026-05-02T13:31:23Z</time></trkpt><trkpt lat="44.1696083203859" lon="10.20978294396793"><ele>682.0</ele><time>2026-05-02T13:31:24Z</time></trkpt><trkpt lat="44.169691724699646" lon="10.209800639813087"><ele>682.0</ele><time>2026-05-02T13:31:25Z</time></trkpt><trkpt lat="44.1697765781846" lon="10.209783258792651"><ele>682.0</ele><time>2026-05-02T13:31:26Z</time></trkpt><trkpt lat="44.1698610235613" lon="10.209703558271377"><ele>681.25</ele><time>2026-05-02T13:31:27Z</time></trkpt><trkpt lat="44.169963462711394" lon="10.209618037301485"><ele>680.5</ele><time>2026-05-02T13:31:28Z</time></trkpt><trkpt lat="44.17005985690726" lon="10.209534966113026"><ele>679.75</ele><time>2026-05-02T13:31:29Z</time></trkpt><trkpt lat="44.17012978118129" lon="10.209419973721804"><ele>679.0</ele><time>2026-05-02T13:31:30Z</time></trkpt><trkpt lat="44.17017639531458" lon="10.209263559938835"><ele>679.0</ele><time>2026-05-02T13:31:31Z</time></trkpt><trkpt lat="44.17023164779383" lon="10.209112703672739"><ele>679.0</ele><time>2026-05-02T13:31:32Z</time></trkpt><trkpt lat="44.17027638329106" lon="10.208984499879726"><ele>679.0</ele><time>2026-05-02T13:31:33Z</time></trkpt><trkpt lat="44.170319043535685" lon="10.208878287867101"><ele>679.0</ele><time>2026-05-02T13:31:34Z</time></trkpt><trkpt lat="44.170350847200574" lon="10.208790374061039"><ele>679.0</ele><time>2026-05-02T13:31:35Z</time></trkpt><trkpt lat="44.17034703804714" lon="10.208702375541932"><ele>679.0</ele><time>2026-05-02T13:31:36Z</time></trkpt><trkpt lat="44.170317983961084" lon="10.20861724209089"><ele>676.25</ele><time>2026-05-02T13:31:37Z</time></trkpt><trkpt lat="44.17029344596217" lon="10.208485347977057"><ele>673.5</ele><time>2026-05-02T13:31:38Z</time></trkpt><trkpt lat="44.17027264590063" lon="10.208336059847937"><ele>670.75</ele><time>2026-05-02T13:31:39Z</time></trkpt><trkpt lat="44.17023143922187" lon="10.208154189660547"><ele>668.0</ele><time>2026-05-02T13:31:40Z</time></trkpt><trkpt lat="44.17019551924373" lon="10.207980691202822"><ele>667.0</ele><time>2026-05-02T13:31:41Z</time></trkpt><trkpt lat="44.17016123872765" lon="10.207810983971717"><ele>666.0</ele><time>2026-05-02T13:31:42Z</time></trkpt><trkpt lat="44.17012373397396" lon="10.207635921297108"><ele>665.0</ele><time>2026-05-02T13:31:43Z</time></trkpt><trkpt lat="44.17007534746635" lon="10.207473918073996"><ele>664.0</ele><time>2026-05-02T13:31:44Z</time></trkpt><trkpt lat="44.17004708043521" lon="10.207330523091716"><ele>662.4000000000001</ele><time>2026-05-02T13:31:45Z</time></trkpt><trkpt lat="44.17001104228875" lon="10.207211807829248"><ele>660.8</ele><time>2026-05-02T13:31:46Z</time></trkpt><trkpt lat="44.16998010328106" lon="10.207110460882944"><ele>659.2</ele><time>2026-05-02T13:31:47Z</time></trkpt><trkpt lat="44.17001128440794" lon="10.207005424157517"><ele>657.5999999999999</ele><time>2026-05-02T13:31:48Z</time></trkpt><trkpt lat="44.17003247981845" lon="10.206867845852392"><ele>656.0</ele><time>2026-05-02T13:31:49Z</time></trkpt><trkpt lat="44.17006162055368" lon="10.206695155838535"><ele>656.0</ele><time>2026-05-02T13:31:50Z</time></trkpt><trkpt lat="44.17007937657611" lon="10.206548869599537"><ele>656.0</ele><time>2026-05-02T13:31:51Z</time></trkpt><trkpt lat="44.170097049811154" lon="10.206417447787222"><ele>656.0</ele><time>2026-05-02T13:31:52Z</time></trkpt><trkpt lat="44.170101647536086" lon="10.206299195083488"><ele>656.0</ele><time>2026-05-02T13:31:53Z</time></trkpt><trkpt lat="44.170101375785066" lon="10.2061726796095"><ele>656.0</ele><time>2026-05-02T13:31:54Z</time></trkpt><trkpt lat="44.170044153327865" lon="10.206077236315789"><ele>655.3333333333333</ele><time>2026-05-02T13:31:55Z</time></trkpt><trkpt lat="44.16999306893171" lon="10.205979087932596"><ele>654.6666666666666</ele><time>2026-05-02T13:31:56Z</time></trkpt><trkpt lat="44.16994804560067" lon="10.205880386012431"><ele>654.0</ele><time>2026-05-02T13:31:57Z</time></trkpt><trkpt lat="44.169916711659674" lon="10.205778065330408"><ele>653.3333333333334</ele><time>2026-05-02T13:31:58Z</time></trkpt><trkpt lat="44.16991482724708" lon="10.205666302788199"><ele>652.6666666666667</ele><time>2026-05-02T13:31:59Z</time></trkpt><trkpt lat="44.16995374908891" lon="10.205533764835186"><ele>652.0</ele><time>2026-05-02T13:32:00Z</time></trkpt><trkpt lat="44.16996545510701" lon="10.205391954036084"><ele>649.3333333333334</ele><time>2026-05-02T13:32:01Z</time></trkpt><trkpt lat="44.17000127707066" lon="10.205278295265595"><ele>646.6666666666667</ele><time>2026-05-02T13:32:02Z</time></trkpt><trkpt lat="44.170053015371764" lon="10.205212953542212"><ele>644.0</ele><time>2026-05-02T13:32:03Z</time></trkpt><trkpt lat="44.17012061911551" lon="10.205198263084721"><ele>641.3333333333334</ele><time>2026-05-02T13:32:04Z</time></trkpt><trkpt lat="44.170212325805075" lon="10.205323193354916"><ele>638.6666666666666</ele><time>2026-05-02T13:32:06Z</time></trkpt><trkpt lat="44.170249612115136" lon="10.205439157372545"><ele>636.0</ele><time>2026-05-02T13:32:07Z</time></trkpt><trkpt lat="44.17029477767336" lon="10.205602705613034"><ele>641.3333333333334</ele><time>2026-05-02T13:32:08Z</time></trkpt><trkpt lat="44.17037411586331" lon="10.205803548057702"><ele>646.6666666666667</ele><time>2026-05-02T13:32:09Z</time></trkpt><trkpt lat="44.17045844255936" lon="10.206024212845897"><ele>652.0</ele><time>2026-05-02T13:32:10Z</time></trkpt><trkpt lat="44.17057428477977" lon="10.206250714665819"><ele>652.0</ele><time>2026-05-02T13:32:11Z</time></trkpt><trkpt lat="44.170680096888056" lon="10.206472763309037"><ele>652.0</ele><time>2026-05-02T13:32:12Z</time></trkpt><trkpt lat="44.17079196404857" lon="10.206683772479412"><ele>652.0</ele><time>2026-05-02T13:32:13Z</time></trkpt><trkpt lat="44.17090166950205" lon="10.206880614150501"><ele>653.75</ele><time>2026-05-02T13:32:14Z</time></trkpt><trkpt lat="44.170983442143445" lon="10.20703978693599"><ele>655.5</ele><time>2026-05-02T13:32:15Z</time></trkpt><trkpt lat="44.17106406090899" lon="10.207156258123076"><ele>657.25</ele><time>2026-05-02T13:32:16Z</time></trkpt><trkpt lat="44.17113769620953" lon="10.20725590414125"><ele>659.0</ele><time>2026-05-02T13:32:17Z</time></trkpt><trkpt lat="44.171176764219" lon="10.207381253990878"><ele>662.25</ele><time>2026-05-02T13:32:18Z</time></trkpt><trkpt lat="44.17119367297171" lon="10.207514073298844"><ele>665.5</ele><time>2026-05-02T13:32:19Z</time></trkpt><trkpt lat="44.17123647043601" lon="10.207667658154282"><ele>668.75</ele><time>2026-05-02T13:32:20Z</time></trkpt><trkpt lat="44.17126126488455" lon="10.20783844724117"><ele>672.0</ele><time>2026-05-02T13:32:21Z</time></trkpt><trkpt lat="44.17131494521322" lon="10.20799013995147"><ele>672.0</ele><time>2026-05-02T13:32:22Z</time></trkpt><trkpt lat="44.17139160147616" lon="10.208144909577854"><ele>672.0</ele><time>2026-05-02T13:32:23Z</time></trkpt><trkpt lat="44.1714892482101" lon="10.208290940671365"><ele>672.0</ele><time>2026-05-02T13:32:24Z</time></trkpt><trkpt lat="44.17158395751798" lon="10.208436902339123"><ele>672.0</ele><time>2026-05-02T13:32:25Z</time></trkpt><trkpt lat="44.17163463979831" lon="10.20859184466797"><ele>668.75</ele><time>2026-05-02T13:32:26Z</time></trkpt><trkpt lat="44.17166948858051" lon="10.208752470650342"><ele>665.5</ele><time>2026-05-02T13:32:27Z</time></trkpt><trkpt lat="44.171716008966634" lon="10.208924151505814"><ele>662.25</ele><time>2026-05-02T13:32:28Z</time></trkpt><trkpt lat="44.17174922414505" lon="10.209083522195654"><ele>659.0</ele><time>2026-05-02T13:32:29Z</time></trkpt><trkpt lat="44.171798528345526" lon="10.209215438977731"><ele>659.0</ele><time>2026-05-02T13:32:30Z</time></trkpt><trkpt lat="44.17185179100027" lon="10.209324667880555"><ele>659.0</ele><time>2026-05-02T13:32:31Z</time></trkpt><trkpt lat="44.1719317540149" lon="10.209403985912122"><ele>659.0</ele><time>2026-05-02T13:32:32Z</time></trkpt><trkpt lat="44.17203204282397" lon="10.209452485851427"><ele>659.0</ele><time>2026-05-02T13:32:33Z</time></trkpt><trkpt lat="44.172156496377845" lon="10.209478432179962"><ele>659.0</ele><time>2026-05-02T13:32:34Z</time></trkpt><trkpt lat="44.172300056601756" lon="10.209526782920365"><ele>651.0</ele><time>2026-05-02T13:32:35Z</time></trkpt><trkpt lat="44.172454800862" lon="10.209602140336871"><ele>643.0</ele><time>2026-05-02T13:32:36Z</time></trkpt><trkpt lat="44.17259254441238" lon="10.209703067783247"><ele>635.0</ele><time>2026-05-02T13:32:37Z</time></trkpt><trkpt lat="44.172730461774286" lon="10.209781467224147"><ele>641.8</ele><time>2026-05-02T13:32:38Z</time></trkpt><trkpt lat="44.17286002283072" lon="10.209835638769091"><ele>648.6</ele><time>2026-05-02T13:32:39Z</time></trkpt><trkpt lat="44.17297820549204" lon="10.209866378164602"><ele>655.4000000000001</ele><time>2026-05-02T13:32:40Z</time></trkpt><trkpt lat="44.17306144168539" lon="10.209942708540925"><ele>662.2</ele><time>2026-05-02T13:32:41Z</time></trkpt><trkpt lat="44.17312070985403" lon="10.210041172914414"><ele>669.0</ele><time>2026-05-02T13:32:42Z</time></trkpt><trkpt lat="44.17318511407043" lon="10.210159165687218"><ele>664.3333333333334</ele><time>2026-05-02T13:32:43Z</time></trkpt><trkpt lat="44.1732623356283" lon="10.210281174008585"><ele>659.6666666666666</ele><time>2026-05-02T13:32:44Z</time></trkpt><trkpt lat="44.17332743526321" lon="10.210398233928528"><ele>655.0</ele><time>2026-05-02T13:32:45Z</time></trkpt><trkpt lat="44.17338543416577" lon="10.210461434344719"><ele>650.3333333333333</ele><time>2026-05-02T13:32:46Z</time></trkpt><trkpt lat="44.173455479943826" lon="10.21047448898512"><ele>645.6666666666666</ele><time>2026-05-02T13:32:47Z</time></trkpt><trkpt lat="44.17352962633583" lon="10.210441909562375"><ele>641.0</ele><time>2026-05-02T13:32:48Z</time></trkpt><trkpt lat="44.17358652000625" lon="10.210370083505493"><ele>641.0</ele><time>2026-05-02T13:32:49Z</time></trkpt><trkpt lat="44.17362650392059" lon="10.210278274881633"><ele>641.0</ele><time>2026-05-02T13:32:50Z</time></trkpt><trkpt lat="44.17362912562068" lon="10.210172728316259"><ele>641.0</ele><time>2026-05-02T13:32:51Z</time></trkpt><trkpt lat="44.17359473081916" lon="10.210054723612963"><ele>641.0</ele><time>2026-05-02T13:32:52Z</time></trkpt><trkpt lat="44.17354263191978" lon="10.209903087979974"><ele>641.0</ele><time>2026-05-02T13:32:53Z</time></trkpt><trkpt lat="44.17350829733862" lon="10.20971437680871"><ele>637.0</ele><time>2026-05-02T13:32:54Z</time></trkpt><trkpt lat="44.173478900457134" lon="10.209512916321513"><ele>633.0</ele><time>2026-05-02T13:32:55Z</time></trkpt><trkpt lat="44.17344788128645" lon="10.209300974428198"><ele>629.0</ele><time>2026-05-02T13:32:56Z</time></trkpt><trkpt lat="44.17341587302645" lon="10.209100783897684"><ele>628.0</ele><time>2026-05-02T13:32:57Z</time></trkpt><trkpt lat="44.173381774802365" lon="10.208912190452104"><ele>627.0</ele><time>2026-05-02T13:32:58Z</time></trkpt><trkpt lat="44.17334874614972" lon="10.20873108379179"><ele>626.0</ele><time>2026-05-02T13:32:59Z</time></trkpt><trkpt lat="44.17331664792498" lon="10.208548186594314"><ele>625.0</ele><time>2026-05-02T13:33:00Z</time></trkpt><trkpt lat="44.173274066858916" lon="10.208372833831518"><ele>625.0</ele><time>2026-05-02T13:33:01Z</time></trkpt><trkpt lat="44.17325243054227" lon="10.208175569398348"><ele>625.0</ele><time>2026-05-02T13:33:02Z</time></trkpt><trkpt lat="44.17324038612713" lon="10.207979904882354"><ele>625.0</ele><time>2026-05-02T13:33:03Z</time></trkpt><trkpt lat="44.17322938987939" lon="10.20781481559676"><ele>625.0</ele><time>2026-05-02T13:33:04Z</time></trkpt><trkpt lat="44.17320860086091" lon="10.20767201939057"><ele>622.25</ele><time>2026-05-02T13:33:05Z</time></trkpt><trkpt lat="44.17316727156171" lon="10.207546894915497"><ele>619.5</ele><time>2026-05-02T13:33:05.999Z</time></trkpt><trkpt lat="44.173103781013246" lon="10.207446612810715"><ele>616.75</ele><time>2026-05-02T13:33:06.999Z</time></trkpt><trkpt lat="44.17301180356976" lon="10.207314803101625"><ele>614.0</ele><time>2026-05-02T13:33:07.999Z</time></trkpt><trkpt lat="44.172922401228256" lon="10.207148594010512"><ele>614.0</ele><time>2026-05-02T13:33:08.999Z</time></trkpt><trkpt lat="44.17282361702607" lon="10.207023623763547"><ele>614.0</ele><time>2026-05-02T13:33:09.999Z</time></trkpt><trkpt lat="44.172738599734934" lon="10.206881302045872"><ele>614.0</ele><time>2026-05-02T13:33:10.999Z</time></trkpt><trkpt lat="44.17267415463058" lon="10.206744690727527"><ele>614.0</ele><time>2026-05-02T13:33:11.999Z</time></trkpt><trkpt lat="44.17259232205782" lon="10.20663837992246"><ele>614.0</ele><time>2026-05-02T13:33:12.999Z</time></trkpt><trkpt lat="44.17250309521667" lon="10.206540007768911"><ele>614.0</ele><time>2026-05-02T13:33:13.999Z</time></trkpt><trkpt lat="44.172380350715834" lon="10.2065161651264"><ele>614.0</ele><time>2026-05-02T13:33:14.999Z</time></trkpt><trkpt lat="44.172281713895586" lon="10.206453682618275"><ele>614.0</ele><time>2026-05-02T13:33:15.999Z</time></trkpt><trkpt lat="44.17221087126082" lon="10.206372959371455"><ele>614.0</ele><time>2026-05-02T13:33:16.999Z</time></trkpt><trkpt lat="44.17215540969573" lon="10.206288353875422"><ele>611.0</ele><time>2026-05-02T13:33:17.999Z</time></trkpt><trkpt lat="44.17211515415535" lon="10.206207151614514"><ele>608.0</ele><time>2026-05-02T13:33:18.999Z</time></trkpt><trkpt lat="44.17192733904193" lon="10.206052353990282"><ele>605.0</ele><time>2026-05-02T13:33:19.999Z</time></trkpt><trkpt lat="44.17189610765307" lon="10.205918422225372"><ele>602.0</ele><time>2026-05-02T13:33:20.999Z</time></trkpt><trkpt lat="44.171852726161205" lon="10.205760847597327"><ele>600.25</ele><time>2026-05-02T13:33:21.999Z</time></trkpt><trkpt lat="44.17180393109726" lon="10.205579498927685"><ele>598.5</ele><time>2026-05-02T13:33:23Z</time></trkpt><trkpt lat="44.17176851443786" lon="10.205407268775348"><ele>596.75</ele><time>2026-05-02T13:33:24Z</time></trkpt><trkpt lat="44.17175603422269" lon="10.205245547931117"><ele>595.0</ele><time>2026-05-02T13:33:25Z</time></trkpt><trkpt lat="44.17176021515058" lon="10.205050778397636"><ele>595.0</ele><time>2026-05-02T13:33:26Z</time></trkpt><trkpt lat="44.17174158251196" lon="10.204849731916408"><ele>595.0</ele><time>2026-05-02T13:33:27Z</time></trkpt><trkpt lat="44.17170952975853" lon="10.204672263437756"><ele>595.0</ele><time>2026-05-02T13:33:28Z</time></trkpt><trkpt lat="44.17167482552981" lon="10.204501681871532"><ele>595.0</ele><time>2026-05-02T13:33:29Z</time></trkpt><trkpt lat="44.17164774398971" lon="10.204358688813956"><ele>590.8</ele><time>2026-05-02T13:33:30Z</time></trkpt><trkpt lat="44.17164071086597" lon="10.204251141063608"><ele>586.6</ele><time>2026-05-02T13:33:31Z</time></trkpt><trkpt lat="44.171697215935616" lon="10.20410219729347"><ele>582.4</ele><time>2026-05-02T13:33:33Z</time></trkpt><trkpt lat="44.1717647403405" lon="10.204068958712925"><ele>578.2</ele><time>2026-05-02T13:33:34Z</time></trkpt><trkpt lat="44.17184017182225" lon="10.20406320929656"><ele>574.0</ele><time>2026-05-02T13:33:35Z</time></trkpt><trkpt lat="44.171948483136426" lon="10.204069455206373"><ele>574.0</ele><time>2026-05-02T13:33:36Z</time></trkpt><trkpt lat="44.17207792889285" lon="10.204095826739472"><ele>574.0</ele><time>2026-05-02T13:33:37Z</time></trkpt><trkpt lat="44.17221454765762" lon="10.204122562495822"><ele>574.0</ele><time>2026-05-02T13:33:38Z</time></trkpt><trkpt lat="44.172339402751355" lon="10.20409516176086"><ele>574.0</ele><time>2026-05-02T13:33:39Z</time></trkpt><trkpt lat="44.172446940738325" lon="10.20405957372537"><ele>569.75</ele><time>2026-05-02T13:33:40Z</time></trkpt><trkpt lat="44.172554060648885" lon="10.203988601545902"><ele>565.5</ele><time>2026-05-02T13:33:41Z</time></trkpt><trkpt lat="44.172669346382634" lon="10.203880298677122"><ele>561.25</ele><time>2026-05-02T13:33:42Z</time></trkpt><trkpt lat="44.17279110073137" lon="10.203748406653055"><ele>557.0</ele><time>2026-05-02T13:33:43Z</time></trkpt><trkpt lat="44.17290570197803" lon="10.203644987216213"><ele>557.0</ele><time>2026-05-02T13:33:44Z</time></trkpt><trkpt lat="44.173000079447746" lon="10.203547286091627"><ele>557.0</ele><time>2026-05-02T13:33:45Z</time></trkpt><trkpt lat="44.17306400681312" lon="10.203436268781264"><ele>557.0</ele><time>2026-05-02T13:33:46Z</time></trkpt><trkpt lat="44.17310522795955" lon="10.203299540160254"><ele>557.0</ele><time>2026-05-02T13:33:47Z</time></trkpt><trkpt lat="44.17312532125523" lon="10.203130016801376"><ele>557.0</ele><time>2026-05-02T13:33:48Z</time></trkpt><trkpt lat="44.17313605523908" lon="10.202941303128583"><ele>559.2</ele><time>2026-05-02T13:33:49Z</time></trkpt><trkpt lat="44.17317269792454" lon="10.202783763007734"><ele>561.4000000000001</ele><time>2026-05-02T13:33:50Z</time></trkpt><trkpt lat="44.17322076827717" lon="10.202659877427243"><ele>563.5999999999999</ele><time>2026-05-02T13:33:51Z</time></trkpt><trkpt lat="44.17328375499986" lon="10.202552024539854"><ele>565.8</ele><time>2026-05-02T13:33:52Z</time></trkpt><trkpt lat="44.1733675504635" lon="10.202444001929752"><ele>568.0</ele><time>2026-05-02T13:33:53Z</time></trkpt><trkpt lat="44.17348013409719" lon="10.202342479678633"><ele>560.75</ele><time>2026-05-02T13:33:54Z</time></trkpt><trkpt lat="44.17359602347994" lon="10.202225882311138"><ele>553.5</ele><time>2026-05-02T13:33:55Z</time></trkpt><trkpt lat="44.17367821793451" lon="10.202073383998945"><ele>546.25</ele><time>2026-05-02T13:33:56Z</time></trkpt><trkpt lat="44.17375603201542" lon="10.201917086458145"><ele>539.0</ele><time>2026-05-02T13:33:57Z</time></trkpt><trkpt lat="44.173825307592516" lon="10.201756786072279"><ele>539.0</ele><time>2026-05-02T13:33:58Z</time></trkpt><trkpt lat="44.17388848929744" lon="10.201602575756135"><ele>539.0</ele><time>2026-05-02T13:33:59Z</time></trkpt><trkpt lat="44.17395807286301" lon="10.201458162780133"><ele>539.0</ele><time>2026-05-02T13:34:00Z</time></trkpt><trkpt lat="44.173968476042525" lon="10.201286252353414"><ele>539.0</ele><time>2026-05-02T13:34:01Z</time></trkpt><trkpt lat="44.17400225594665" lon="10.201145123829134"><ele>543.6</ele><time>2026-05-02T13:34:02Z</time></trkpt><trkpt lat="44.17403051230425" lon="10.201031327378956"><ele>548.2</ele><time>2026-05-02T13:34:03Z</time></trkpt><trkpt lat="44.17406821994538" lon="10.200940202073378"><ele>552.8000000000001</ele><time>2026-05-02T13:34:04Z</time></trkpt><trkpt lat="44.17414703180079" lon="10.200882019342998"><ele>557.4</ele><time>2026-05-02T13:34:05Z</time></trkpt><trkpt lat="44.17425289477783" lon="10.200791836486708"><ele>562.0</ele><time>2026-05-02T13:34:06Z</time></trkpt><trkpt lat="44.174384624502004" lon="10.20068873133686"><ele>553.0</ele><time>2026-05-02T13:34:07Z</time></trkpt><trkpt lat="44.17449000151806" lon="10.200589887244947"><ele>544.0</ele><time>2026-05-02T13:34:08Z</time></trkpt><trkpt lat="44.17460840103801" lon="10.200563332711477"><ele>535.0</ele><time>2026-05-02T13:34:09Z</time></trkpt><trkpt lat="44.174718775303724" lon="10.200549656580936"><ele>526.0</ele><time>2026-05-02T13:34:10Z</time></trkpt><trkpt lat="44.17483162925143" lon="10.20054958011702"><ele>529.75</ele><time>2026-05-02T13:34:11Z</time></trkpt><trkpt lat="44.1749487837655" lon="10.200493408339355"><ele>533.5</ele><time>2026-05-02T13:34:12Z</time></trkpt><trkpt lat="44.17507329802719" lon="10.200414501797924"><ele>537.25</ele><time>2026-05-02T13:34:13Z</time></trkpt><trkpt lat="44.17521261381388" lon="10.200305117294274"><ele>541.0</ele><time>2026-05-02T13:34:14Z</time></trkpt><trkpt lat="44.175347914389214" lon="10.200201826059534"><ele>541.0</ele><time>2026-05-02T13:34:15Z</time></trkpt><trkpt lat="44.17547123112716" lon="10.200119531931572"><ele>541.0</ele><time>2026-05-02T13:34:16Z</time></trkpt><trkpt lat="44.175600521077996" lon="10.200071545070623"><ele>541.0</ele><time>2026-05-02T13:34:17Z</time></trkpt><trkpt lat="44.17573019437462" lon="10.200030606410115"><ele>541.0</ele><time>2026-05-02T13:34:18Z</time></trkpt><trkpt lat="44.1758731732142" lon="10.199972977751866"><ele>545.75</ele><time>2026-05-02T13:34:19Z</time></trkpt><trkpt lat="44.1760192286333" lon="10.19996071855641"><ele>550.5</ele><time>2026-05-02T13:34:20Z</time></trkpt><trkpt lat="44.17614926549503" lon="10.199923627177892"><ele>555.25</ele><time>2026-05-02T13:34:21Z</time></trkpt><trkpt lat="44.176263638559504" lon="10.199906048106051"><ele>560.0</ele><time>2026-05-02T13:34:22Z</time></trkpt><trkpt lat="44.17637557916463" lon="10.199890814212164"><ele>549.3333333333333</ele><time>2026-05-02T13:34:23Z</time></trkpt><trkpt lat="44.176498038841345" lon="10.19979291838238"><ele>538.6666666666666</ele><time>2026-05-02T13:34:24Z</time></trkpt><trkpt lat="44.17663146822681" lon="10.199675562786188"><ele>528.0</ele><time>2026-05-02T13:34:25Z</time></trkpt><trkpt lat="44.176777329448" lon="10.199584994241699"><ele>528.0</ele><time>2026-05-02T13:34:26Z</time></trkpt><trkpt lat="44.176898766798644" lon="10.199490688122037"><ele>528.0</ele><time>2026-05-02T13:34:27Z</time></trkpt><trkpt lat="44.177012736772824" lon="10.199409380521875"><ele>528.0</ele><time>2026-05-02T13:34:28Z</time></trkpt><trkpt lat="44.1771191594628" lon="10.199327436353354"><ele>528.0</ele><time>2026-05-02T13:34:29Z</time></trkpt><trkpt lat="44.17724229855219" lon="10.199317436354667"><ele>533.8</ele><time>2026-05-02T13:34:30Z</time></trkpt><trkpt lat="44.17737534254453" lon="10.19930999876882"><ele>539.5999999999999</ele><time>2026-05-02T13:34:31Z</time></trkpt><trkpt lat="44.17749188192678" lon="10.199285767360811"><ele>545.4000000000001</ele><time>2026-05-02T13:34:32Z</time></trkpt><trkpt lat="44.1775858909801" lon="10.199255071956655"><ele>551.2</ele><time>2026-05-02T13:34:33Z</time></trkpt><trkpt lat="44.17767088560771" lon="10.1991832944156"><ele>557.0</ele><time>2026-05-02T13:34:34Z</time></trkpt><trkpt lat="44.17774365307375" lon="10.199058995128578"><ele>546.5</ele><time>2026-05-02T13:34:35Z</time></trkpt><trkpt lat="44.177818076750306" lon="10.198909772925424"><ele>536.0</ele><time>2026-05-02T13:34:36Z</time></trkpt><trkpt lat="44.177891076408365" lon="10.19875699671033"><ele>525.5</ele><time>2026-05-02T13:34:37Z</time></trkpt><trkpt lat="44.17796801698707" lon="10.198645260621827"><ele>515.0</ele><time>2026-05-02T13:34:38Z</time></trkpt><trkpt lat="44.17806551674334" lon="10.198582875778518"><ele>515.0</ele><time>2026-05-02T13:34:39Z</time></trkpt><trkpt lat="44.17816401648633" lon="10.19850665786726"><ele>515.0</ele><time>2026-05-02T13:34:40Z</time></trkpt><trkpt lat="44.178285767219734" lon="10.198461298981805"><ele>515.0</ele><time>2026-05-02T13:34:41Z</time></trkpt><trkpt lat="44.17841640609121" lon="10.198408951489236"><ele>515.0</ele><time>2026-05-02T13:34:42Z</time></trkpt><trkpt lat="44.1785201096769" lon="10.198336566078982"><ele>512.2</ele><time>2026-05-02T13:34:43Z</time></trkpt><trkpt lat="44.17860424244311" lon="10.19824350734716"><ele>509.4</ele><time>2026-05-02T13:34:44Z</time></trkpt><trkpt lat="44.17868519389324" lon="10.198135860486515"><ele>506.6</ele><time>2026-05-02T13:34:45Z</time></trkpt><trkpt lat="44.178773892008536" lon="10.198066720740552"><ele>503.8</ele><time>2026-05-02T13:34:46Z</time></trkpt><trkpt lat="44.178842039539646" lon="10.197997769060837"><ele>501.0</ele><time>2026-05-02T13:34:47Z</time></trkpt><trkpt lat="44.17891505251468" lon="10.197995736924396"><ele>501.0</ele><time>2026-05-02T13:34:48Z</time></trkpt><trkpt lat="44.17897866956034" lon="10.198042102329854"><ele>501.0</ele><time>2026-05-02T13:34:49Z</time></trkpt><trkpt lat="44.17902781018545" lon="10.198132610191692"><ele>501.0</ele><time>2026-05-02T13:34:50Z</time></trkpt><trkpt lat="44.17905120668822" lon="10.198252287624914"><ele>501.0</ele><time>2026-05-02T13:34:51Z</time></trkpt><trkpt lat="44.17905348533889" lon="10.198398384224879"><ele>501.0</ele><time>2026-05-02T13:34:52Z</time></trkpt><trkpt lat="44.179036504490405" lon="10.198552570517514"><ele>510.75</ele><time>2026-05-02T13:34:53Z</time></trkpt><trkpt lat="44.17896039372694" lon="10.19869733293623"><ele>520.5</ele><time>2026-05-02T13:34:54Z</time></trkpt><trkpt lat="44.17890028542061" lon="10.198848603238364"><ele>530.25</ele><time>2026-05-02T13:34:55Z</time></trkpt><trkpt lat="44.17883850334379" lon="10.199032269820124"><ele>540.0</ele><time>2026-05-02T13:34:56Z</time></trkpt><trkpt lat="44.17875041507329" lon="10.199207771423165"><ele>545.0</ele><time>2026-05-02T13:34:57Z</time></trkpt><trkpt lat="44.17866468888927" lon="10.199367566002302"><ele>550.0</ele><time>2026-05-02T13:34:58Z</time></trkpt><trkpt lat="44.178585661135216" lon="10.199510240027857"><ele>555.0</ele><time>2026-05-02T13:34:59Z</time></trkpt><trkpt lat="44.178526506349016" lon="10.199633907714714"><ele>560.0</ele><time>2026-05-02T13:35:00Z</time></trkpt><trkpt lat="44.178499421964" lon="10.199763155407359"><ele>560.25</ele><time>2026-05-02T13:35:01Z</time></trkpt><trkpt lat="44.178496335642855" lon="10.199906412880756"><ele>560.5</ele><time>2026-05-02T13:35:02Z</time></trkpt><trkpt lat="44.17851939195466" lon="10.200064409343923"><ele>560.75</ele><time>2026-05-02T13:35:03Z</time></trkpt><trkpt lat="44.178565873768484" lon="10.200229287218336"><ele>561.0</ele><time>2026-05-02T13:35:04Z</time></trkpt><trkpt lat="44.17859120608406" lon="10.200406400895048"><ele>561.0</ele><time>2026-05-02T13:35:05Z</time></trkpt><trkpt lat="44.17861307402969" lon="10.20055438681164"><ele>561.0</ele><time>2026-05-02T13:35:06Z</time></trkpt><trkpt lat="44.178616444181905" lon="10.200687978973374"><ele>561.0</ele><time>2026-05-02T13:35:07Z</time></trkpt><trkpt lat="44.178592904676265" lon="10.20084644589534"><ele>561.0</ele><time>2026-05-02T13:35:08Z</time></trkpt><trkpt lat="44.17854754452493" lon="10.201023834862726"><ele>559.0</ele><time>2026-05-02T13:35:09Z</time></trkpt><trkpt lat="44.17848805956527" lon="10.20122783862063"><ele>557.0</ele><time>2026-05-02T13:35:10Z</time></trkpt><trkpt lat="44.17842835548781" lon="10.201405812915965"><ele>555.0</ele><time>2026-05-02T13:35:11Z</time></trkpt><trkpt lat="44.178366057660185" lon="10.201563919144865"><ele>553.0</ele><time>2026-05-02T13:35:12Z</time></trkpt><trkpt lat="44.17830229105103" lon="10.20168470589536"><ele>551.0</ele><time>2026-05-02T13:35:13Z</time></trkpt><trkpt lat="44.178233640623645" lon="10.201793334607345"><ele>549.0</ele><time>2026-05-02T13:35:14Z</time></trkpt><trkpt lat="44.17819651869422" lon="10.201893101657527"><ele>547.0</ele><time>2026-05-02T13:35:15Z</time></trkpt><trkpt lat="44.17817775950618" lon="10.201992831879142"><ele>545.0</ele><time>2026-05-02T13:35:16Z</time></trkpt><trkpt lat="44.17822843214786" lon="10.202104935345538"><ele>543.0</ele><time>2026-05-02T13:35:17Z</time></trkpt><trkpt lat="44.178271239869844" lon="10.202207151110759"><ele>541.0</ele><time>2026-05-02T13:35:18Z</time></trkpt><trkpt lat="44.178335185758506" lon="10.202303722550282"><ele>541.0</ele><time>2026-05-02T13:35:19Z</time></trkpt><trkpt lat="44.17841213530048" lon="10.202372779976429"><ele>541.0</ele><time>2026-05-02T13:35:20Z</time></trkpt><trkpt lat="44.178503544429255" lon="10.202403660213571"><ele>541.0</ele><time>2026-05-02T13:35:21Z</time></trkpt><trkpt lat="44.17861203121787" lon="10.202394243145353"><ele>541.0</ele><time>2026-05-02T13:35:22Z</time></trkpt><trkpt lat="44.17872408884541" lon="10.202359485581537"><ele>541.0</ele><time>2026-05-02T13:35:23Z</time></trkpt><trkpt lat="44.17884733822921" lon="10.202306218929463"><ele>541.0</ele><time>2026-05-02T13:35:24Z</time></trkpt><trkpt lat="44.17898053305438" lon="10.20222474921685"><ele>541.0</ele><time>2026-05-02T13:35:25Z</time></trkpt><trkpt lat="44.17910900683894" lon="10.202148175177049"><ele>541.0</ele><time>2026-05-02T13:35:26Z</time></trkpt><trkpt lat="44.17922749567482" lon="10.202090983398882"><ele>541.0</ele><time>2026-05-02T13:35:27Z</time></trkpt><trkpt lat="44.17933239371324" lon="10.202059298502196"><ele>540.0</ele><time>2026-05-02T13:35:28Z</time></trkpt><trkpt lat="44.17941828663455" lon="10.202051107910423"><ele>539.0</ele><time>2026-05-02T13:35:29Z</time></trkpt><trkpt lat="44.17949869732982" lon="10.20208779508332"><ele>538.0</ele><time>2026-05-02T13:35:30Z</time></trkpt><trkpt lat="44.179571026877205" lon="10.202187399868857"><ele>537.0</ele><time>2026-05-02T13:35:31Z</time></trkpt><trkpt lat="44.179667437524756" lon="10.202297150042966"><ele>536.0</ele><time>2026-05-02T13:35:32Z</time></trkpt><trkpt lat="44.17975829345935" lon="10.202471405562635"><ele>531.0</ele><time>2026-05-02T13:35:33Z</time></trkpt><trkpt lat="44.17985765800423" lon="10.202644861807606"><ele>526.0</ele><time>2026-05-02T13:35:34Z</time></trkpt><trkpt lat="44.179945892323936" lon="10.202784409747364"><ele>521.0</ele><time>2026-05-02T13:35:35Z</time></trkpt><trkpt lat="44.18004769957526" lon="10.202896323698985"><ele>516.0</ele><time>2026-05-02T13:35:36Z</time></trkpt><trkpt lat="44.180165849398236" lon="10.202982849661362"><ele>516.0</ele><time>2026-05-02T13:35:37Z</time></trkpt><trkpt lat="44.18028829177884" lon="10.203040573302879"><ele>516.0</ele><time>2026-05-02T13:35:38Z</time></trkpt><trkpt lat="44.180405538045875" lon="10.203080962108475"><ele>516.0</ele><time>2026-05-02T13:35:39Z</time></trkpt><trkpt lat="44.18050752113352" lon="10.203102212432222"><ele>516.0</ele><time>2026-05-02T13:35:40Z</time></trkpt><trkpt lat="44.18059778755693" lon="10.203087530336845"><ele>516.0</ele><time>2026-05-02T13:35:41Z</time></trkpt><trkpt lat="44.180674517114824" lon="10.203037620048622"><ele>517.8</ele><time>2026-05-02T13:35:42Z</time></trkpt><trkpt lat="44.18073137423634" lon="10.20295498619946"><ele>519.6</ele><time>2026-05-02T13:35:43Z</time></trkpt><trkpt lat="44.18076987224923" lon="10.202840439096883"><ele>521.4</ele><time>2026-05-02T13:35:44Z</time></trkpt><trkpt lat="44.180774527946475" lon="10.202715013854704"><ele>523.2</ele><time>2026-05-02T13:35:45Z</time></trkpt><trkpt lat="44.180747571463286" lon="10.20258698079972"><ele>525.0</ele><time>2026-05-02T13:35:46Z</time></trkpt><trkpt lat="44.18069191945576" lon="10.202442725520205"><ele>519.5</ele><time>2026-05-02T13:35:47Z</time></trkpt><trkpt lat="44.18061488137428" lon="10.202274313116389"><ele>514.0</ele><time>2026-05-02T13:35:48Z</time></trkpt><trkpt lat="44.18053469173809" lon="10.202096571443674"><ele>508.5</ele><time>2026-05-02T13:35:49Z</time></trkpt><trkpt lat="44.18047269253124" lon="10.201935238492348"><ele>503.0</ele><time>2026-05-02T13:35:50Z</time></trkpt><trkpt lat="44.18042861276581" lon="10.201772446231058"><ele>503.0</ele><time>2026-05-02T13:35:51Z</time></trkpt><trkpt lat="44.18041609607679" lon="10.201595575843454"><ele>503.0</ele><time>2026-05-02T13:35:52Z</time></trkpt><trkpt lat="44.18038135198177" lon="10.20141685903391"><ele>503.0</ele><time>2026-05-02T13:35:53Z</time></trkpt><trkpt lat="44.18036405053147" lon="10.201213621444184"><ele>503.0</ele><time>2026-05-02T13:35:54Z</time></trkpt><trkpt lat="44.18034988703657" lon="10.201013392613012"><ele>501.0</ele><time>2026-05-02T13:35:55Z</time></trkpt><trkpt lat="44.180336088074895" lon="10.200825382302702"><ele>499.0</ele><time>2026-05-02T13:35:56Z</time></trkpt><trkpt lat="44.18034114800949" lon="10.200657812939534"><ele>497.0</ele><time>2026-05-02T13:35:57Z</time></trkpt><trkpt lat="44.180340151816544" lon="10.200500464206185"><ele>495.0</ele><time>2026-05-02T13:35:58Z</time></trkpt><trkpt lat="44.18040739680029" lon="10.200351805719688"><ele>492.0</ele><time>2026-05-02T13:35:59Z</time></trkpt><trkpt lat="44.18046607708154" lon="10.200165658587437"><ele>489.0</ele><time>2026-05-02T13:36:00Z</time></trkpt><trkpt lat="44.1805619944465" lon="10.199977015577943"><ele>486.0</ele><time>2026-05-02T13:36:01Z</time></trkpt><trkpt lat="44.18064308200009" lon="10.199782182479753"><ele>487.75</ele><time>2026-05-02T13:36:02Z</time></trkpt><trkpt lat="44.180721578769756" lon="10.199582997809111"><ele>489.5</ele><time>2026-05-02T13:36:03Z</time></trkpt><trkpt lat="44.18080036171458" lon="10.19942512344276"><ele>491.25</ele><time>2026-05-02T13:36:04Z</time></trkpt><trkpt lat="44.18086169609663" lon="10.19924640018075"><ele>493.0</ele><time>2026-05-02T13:36:05Z</time></trkpt><trkpt lat="44.18090903233522" lon="10.199079317661017"><ele>487.75</ele><time>2026-05-02T13:36:06Z</time></trkpt><trkpt lat="44.18095004140893" lon="10.198924297951805"><ele>482.5</ele><time>2026-05-02T13:36:07Z</time></trkpt><trkpt lat="44.181050221487766" lon="10.198809329510604"><ele>477.25</ele><time>2026-05-02T13:36:08Z</time></trkpt><trkpt lat="44.18112886292345" lon="10.198642607388013"><ele>472.0</ele><time>2026-05-02T13:36:09Z</time></trkpt><trkpt lat="44.18121214802472" lon="10.198461847001964"><ele>472.0</ele><time>2026-05-02T13:36:10Z</time></trkpt><trkpt lat="44.18128125681515" lon="10.198275691814798"><ele>472.0</ele><time>2026-05-02T13:36:11Z</time></trkpt><trkpt lat="44.18134203217653" lon="10.198102423367118"><ele>472.0</ele><time>2026-05-02T13:36:12Z</time></trkpt><trkpt lat="44.18139099457185" lon="10.197953519986054"><ele>472.0</ele><time>2026-05-02T13:36:13Z</time></trkpt><trkpt lat="44.18142555023173" lon="10.197806171205903"><ele>468.25</ele><time>2026-05-02T13:36:14Z</time></trkpt><trkpt lat="44.181443974341754" lon="10.197649357250105"><ele>464.5</ele><time>2026-05-02T13:36:15Z</time></trkpt><trkpt lat="44.1814717669539" lon="10.197471636482582"><ele>460.75</ele><time>2026-05-02T13:36:16Z</time></trkpt><trkpt lat="44.18148722076623" lon="10.197281747299547"><ele>457.0</ele><time>2026-05-02T13:36:17Z</time></trkpt><trkpt lat="44.18150581395659" lon="10.197090706733306"><ele>461.40000000000003</ele><time>2026-05-02T13:36:18Z</time></trkpt><trkpt lat="44.181529256278495" lon="10.196939400321478"><ele>465.80000000000007</ele><time>2026-05-02T13:36:19Z</time></trkpt><trkpt lat="44.18156225795399" lon="10.196820978193498"><ele>470.2</ele><time>2026-05-02T13:36:20Z</time></trkpt><trkpt lat="44.18160743908712" lon="10.19673254424295"><ele>474.6</ele><time>2026-05-02T13:36:21Z</time></trkpt><trkpt lat="44.181664058165914" lon="10.196642583730979"><ele>479.0</ele><time>2026-05-02T13:36:22Z</time></trkpt><trkpt lat="44.18176843609246" lon="10.196627943643524"><ele>478.99999999999994</ele><time>2026-05-02T13:36:23Z</time></trkpt><trkpt lat="44.18187465577315" lon="10.196574713862072"><ele>479.0</ele><time>2026-05-02T13:36:24Z</time></trkpt><trkpt lat="44.181958350464726" lon="10.196533595550044"><ele>479.0</ele><time>2026-05-02T13:36:25Z</time></trkpt><trkpt lat="44.18200700719193" lon="10.196464146782365"><ele>479.0</ele><time>2026-05-02T13:36:26Z</time></trkpt><trkpt lat="44.1820300277281" lon="10.196353727139973"><ele>478.99999999999994</ele><time>2026-05-02T13:36:27Z</time></trkpt><trkpt lat="44.18202518944601" lon="10.196235617909618"><ele>479.0</ele><time>2026-05-02T13:36:28Z</time></trkpt><trkpt lat="44.18203535655603" lon="10.19610792696294"><ele>481.5</ele><time>2026-05-02T13:36:29Z</time></trkpt><trkpt lat="44.18206117014162" lon="10.196003618775064"><ele>484.0</ele><time>2026-05-02T13:36:30Z</time></trkpt><trkpt lat="44.18213056823645" lon="10.195923115921055"><ele>486.5</ele><time>2026-05-02T13:36:31Z</time></trkpt><trkpt lat="44.18223964504847" lon="10.195839997857625"><ele>489.0</ele><time>2026-05-02T13:36:32Z</time></trkpt><trkpt lat="44.18239733395421" lon="10.195729076874306"><ele>477.0</ele><time>2026-05-02T13:36:33Z</time></trkpt><trkpt lat="44.18255703806535" lon="10.19557776253267"><ele>465.0</ele><time>2026-05-02T13:36:34Z</time></trkpt><trkpt lat="44.1826807832823" lon="10.195415893741075"><ele>453.0</ele><time>2026-05-02T13:36:35Z</time></trkpt><trkpt lat="44.18280759074439" lon="10.1952843720638"><ele>453.0</ele><time>2026-05-02T13:36:36Z</time></trkpt><trkpt lat="44.182927545718755" lon="10.195182080154215"><ele>453.0</ele><time>2026-05-02T13:36:37Z</time></trkpt><trkpt lat="44.18306477812863" lon="10.19512842074779"><ele>453.0</ele><time>2026-05-02T13:36:38Z</time></trkpt><trkpt lat="44.1831959962626" lon="10.19503490091447"><ele>453.0</ele><time>2026-05-02T13:36:39Z</time></trkpt><trkpt lat="44.183342248571186" lon="10.194972961393049"><ele>457.0</ele><time>2026-05-02T13:36:40Z</time></trkpt><trkpt lat="44.183478029075395" lon="10.194926909773686"><ele>461.0</ele><time>2026-05-02T13:36:41Z</time></trkpt><trkpt lat="44.18361745189098" lon="10.194935921994798"><ele>465.0</ele><time>2026-05-02T13:36:42Z</time></trkpt><trkpt lat="44.18374812580393" lon="10.19493849739087"><ele>469.0</ele><time>2026-05-02T13:36:43Z</time></trkpt><trkpt lat="44.18387316293931" lon="10.194954299930899"><ele>469.0</ele><time>2026-05-02T13:36:44Z</time></trkpt><trkpt lat="44.18398137081673" lon="10.195006582220392"><ele>469.0</ele><time>2026-05-02T13:36:45Z</time></trkpt><trkpt lat="44.18408375848385" lon="10.195088533348287"><ele>469.0</ele><time>2026-05-02T13:36:46Z</time></trkpt><trkpt lat="44.18419787693627" lon="10.195202860820713"><ele>469.0</ele><time>2026-05-02T13:36:47Z</time></trkpt><trkpt lat="44.18428810048152" lon="10.19533293139151"><ele>469.2</ele><time>2026-05-02T13:36:48Z</time></trkpt><trkpt lat="44.18437411609395" lon="10.19543772186908"><ele>469.4</ele><time>2026-05-02T13:36:49Z</time></trkpt><trkpt lat="44.18443120035501" lon="10.195529652788728"><ele>469.6</ele><time>2026-05-02T13:36:50Z</time></trkpt><trkpt lat="44.184510087000575" lon="10.195578771170968"><ele>469.8</ele><time>2026-05-02T13:36:51Z</time></trkpt><trkpt lat="44.18460905568718" lon="10.195550663442882"><ele>470.0</ele><time>2026-05-02T13:36:52Z</time></trkpt><trkpt lat="44.18472673871037" lon="10.195539036419653"><ele>466.5</ele><time>2026-05-02T13:36:53Z</time></trkpt><trkpt lat="44.18485302679676" lon="10.195519982543233"><ele>463.0</ele><time>2026-05-02T13:36:54Z</time></trkpt><trkpt lat="44.18498813241574" lon="10.19548971124284"><ele>459.5</ele><time>2026-05-02T13:36:55Z</time></trkpt><trkpt lat="44.18511043754229" lon="10.195445563295035"><ele>456.0</ele><time>2026-05-02T13:36:56Z</time></trkpt><trkpt lat="44.18522942454201" lon="10.19537579152187"><ele>456.0</ele><time>2026-05-02T13:36:57Z</time></trkpt><trkpt lat="44.18535168765048" lon="10.195294877719503"><ele>456.0</ele><time>2026-05-02T13:36:58Z</time></trkpt><trkpt lat="44.18546409887355" lon="10.195202351411366"><ele>456.0</ele><time>2026-05-02T13:36:59Z</time></trkpt><trkpt lat="44.1855607970295" lon="10.195095645613094"><ele>456.0</ele><time>2026-05-02T13:37:00Z</time></trkpt><trkpt lat="44.18565932834312" lon="10.19499724298366"><ele>454.25</ele><time>2026-05-02T13:37:01Z</time></trkpt><trkpt lat="44.18574324394509" lon="10.194846522314348"><ele>452.5</ele><time>2026-05-02T13:37:02Z</time></trkpt><trkpt lat="44.18581455396336" lon="10.194685628710035"><ele>450.75</ele><time>2026-05-02T13:37:03Z</time></trkpt><trkpt lat="44.18587325191464" lon="10.194500774272992"><ele>449.0</ele><time>2026-05-02T13:37:04Z</time></trkpt><trkpt lat="44.185972659053704" lon="10.19432775142488"><ele>449.0</ele><time>2026-05-02T13:37:05Z</time></trkpt><trkpt lat="44.186099880930364" lon="10.19416622282328"><ele>449.0</ele><time>2026-05-02T13:37:06Z</time></trkpt><trkpt lat="44.18616533689414" lon="10.194067338093717"><ele>449.0</ele><time>2026-05-02T13:37:07Z</time></trkpt><trkpt lat="44.186264805799226" lon="10.193909865696984"><ele>449.0</ele><time>2026-05-02T13:37:08Z</time></trkpt><trkpt lat="44.186347931711445" lon="10.193775275791186"><ele>448.6</ele><time>2026-05-02T13:37:09Z</time></trkpt><trkpt lat="44.18642586797635" lon="10.19367231412316"><ele>448.2</ele><time>2026-05-02T13:37:10Z</time></trkpt><trkpt lat="44.18650953207055" lon="10.19358361970011"><ele>447.80000000000007</ele><time>2026-05-02T13:37:11Z</time></trkpt><trkpt lat="44.186597210081324" lon="10.19352461687824"><ele>447.40000000000003</ele><time>2026-05-02T13:37:12Z</time></trkpt><trkpt lat="44.18669410996641" lon="10.193546053634787"><ele>447.0</ele><time>2026-05-02T13:37:13Z</time></trkpt><trkpt lat="44.18679983913151" lon="10.193518144285253"><ele>447.0</ele><time>2026-05-02T13:37:14Z</time></trkpt><trkpt lat="44.18689074872162" lon="10.193484334376773"><ele>447.00000000000006</ele><time>2026-05-02T13:37:15Z</time></trkpt><trkpt lat="44.186968740292414" lon="10.193409323894164"><ele>447.00000000000006</ele><time>2026-05-02T13:37:16Z</time></trkpt><trkpt lat="44.1870261037619" lon="10.19332257358357"><ele>447.0</ele><time>2026-05-02T13:37:17Z</time></trkpt><trkpt lat="44.18705664618187" lon="10.193212232968692"><ele>447.0</ele><time>2026-05-02T13:37:18Z</time></trkpt><trkpt lat="44.18707665302089" lon="10.193069728254091"><ele>445.8</ele><time>2026-05-02T13:37:19Z</time></trkpt><trkpt lat="44.18710315273006" lon="10.192911841106273"><ele>444.6</ele><time>2026-05-02T13:37:20Z</time></trkpt><trkpt lat="44.18714901561264" lon="10.19277818154634"><ele>443.40000000000003</ele><time>2026-05-02T13:37:21Z</time></trkpt><trkpt lat="44.18720845106016" lon="10.192691899106084"><ele>442.20000000000005</ele><time>2026-05-02T13:37:22Z</time></trkpt><trkpt lat="44.187301567785084" lon="10.192691222232044"><ele>441.0</ele><time>2026-05-02T13:37:23Z</time></trkpt><trkpt lat="44.1873902276747" lon="10.192688654310713"><ele>441.0</ele><time>2026-05-02T13:37:24Z</time></trkpt><trkpt lat="44.18748249713794" lon="10.192725754646919"><ele>441.0</ele><time>2026-05-02T13:37:25Z</time></trkpt><trkpt lat="44.187581307613925" lon="10.192797879076009"><ele>441.0</ele><time>2026-05-02T13:37:26Z</time></trkpt><trkpt lat="44.187700091308145" lon="10.19286672878463"><ele>441.0</ele><time>2026-05-02T13:37:27Z</time></trkpt><trkpt lat="44.1877880558922" lon="10.19292852261192"><ele>441.0</ele><time>2026-05-02T13:37:28Z</time></trkpt><trkpt lat="44.18789201975084" lon="10.19292752436649"><ele>441.0</ele><time>2026-05-02T13:37:29Z</time></trkpt><trkpt lat="44.18798851460566" lon="10.192895835742583"><ele>441.0</ele><time>2026-05-02T13:37:30Z</time></trkpt><trkpt lat="44.188095075814466" lon="10.19282854922069"><ele>441.0</ele><time>2026-05-02T13:37:31Z</time></trkpt><trkpt lat="44.18820762123594" lon="10.19276503003503"><ele>441.0</ele><time>2026-05-02T13:37:32Z</time></trkpt><trkpt lat="44.188305461399615" lon="10.19271683816981"><ele>441.0</ele><time>2026-05-02T13:37:33Z</time></trkpt><trkpt lat="44.188391879283635" lon="10.192714433700438"><ele>441.4</ele><time>2026-05-02T13:37:34Z</time></trkpt><trkpt lat="44.188465526607" lon="10.192756661033814"><ele>441.8</ele><time>2026-05-02T13:37:35Z</time></trkpt><trkpt lat="44.18849108306874" lon="10.192881216431141"><ele>442.19999999999993</ele><time>2026-05-02T13:37:36Z</time></trkpt><trkpt lat="44.18848923207005" lon="10.192979813896162"><ele>442.59999999999997</ele><time>2026-05-02T13:37:37Z</time></trkpt><trkpt lat="44.18845135405986" lon="10.193107795210473"><ele>443.0</ele><time>2026-05-02T13:37:38Z</time></trkpt><trkpt lat="44.18841879200184" lon="10.19330106599177"><ele>443.0</ele><time>2026-05-02T13:37:39Z</time></trkpt><trkpt lat="44.1883892379375" lon="10.193490030619826"><ele>442.99999999999994</ele><time>2026-05-02T13:37:40Z</time></trkpt><trkpt lat="44.188372232536395" lon="10.193639931654218"><ele>442.99999999999994</ele><time>2026-05-02T13:37:41Z</time></trkpt><trkpt lat="44.188398028977566" lon="10.193769621009523"><ele>443.0</ele><time>2026-05-02T13:37:42Z</time></trkpt><trkpt lat="44.18842211652797" lon="10.193868638934484"><ele>443.0</ele><time>2026-05-02T13:37:43Z</time></trkpt><trkpt lat="44.18847977613523" lon="10.19391991628063"><ele>442.99999999999994</ele><time>2026-05-02T13:37:44Z</time></trkpt><trkpt lat="44.18855099628828" lon="10.193950698995561"><ele>443.0</ele><time>2026-05-02T13:37:45Z</time></trkpt><trkpt lat="44.18862928002101" lon="10.193937960749713"><ele>443.0</ele><time>2026-05-02T13:37:46Z</time></trkpt><trkpt lat="44.18871173801886" lon="10.19387958468831"><ele>443.0</ele><time>2026-05-02T13:37:47Z</time></trkpt><trkpt lat="44.188768946911054" lon="10.193781084272658"><ele>442.99999999999994</ele><time>2026-05-02T13:37:48Z</time></trkpt><trkpt lat="44.18881758753485" lon="10.193648092545056"><ele>443.0</ele><time>2026-05-02T13:37:49Z</time></trkpt><trkpt lat="44.1888586245969" lon="10.193486991610552"><ele>443.0</ele><time>2026-05-02T13:37:50Z</time></trkpt><trkpt lat="44.18890223415995" lon="10.193312668661935"><ele>443.0</ele><time>2026-05-02T13:37:51Z</time></trkpt><trkpt lat="44.1889522874742" lon="10.193151181849686"><ele>443.0</ele><time>2026-05-02T13:37:52Z</time></trkpt><trkpt lat="44.188998356178544" lon="10.193014894704413"><ele>443.0</ele><time>2026-05-02T13:37:53Z</time></trkpt><trkpt lat="44.1890558033977" lon="10.192912432536398"><ele>438.4</ele><time>2026-05-02T13:37:54Z</time></trkpt><trkpt lat="44.18913386554708" lon="10.192851651004762"><ele>433.79999999999995</ele><time>2026-05-02T13:37:55Z</time></trkpt><trkpt lat="44.189222997435145" lon="10.192837500112097"><ele>429.2</ele><time>2026-05-02T13:37:56Z</time></trkpt><trkpt lat="44.18931136208604" lon="10.192878784604272"><ele>424.6</ele><time>2026-05-02T13:37:57Z</time></trkpt><trkpt lat="44.18937624483876" lon="10.192963795701726"><ele>420.0</ele><time>2026-05-02T13:37:58Z</time></trkpt><trkpt lat="44.18941528498732" lon="10.19308458266634"><ele>421.6</ele><time>2026-05-02T13:37:59Z</time></trkpt><trkpt lat="44.18941714283865" lon="10.193211235667428"><ele>423.2</ele><time>2026-05-02T13:38:00Z</time></trkpt><trkpt lat="44.18938163788262" lon="10.193326349420726"><ele>424.79999999999995</ele><time>2026-05-02T13:38:01Z</time></trkpt><trkpt lat="44.18932769868593" lon="10.193454029532342"><ele>426.4</ele><time>2026-05-02T13:38:02Z</time></trkpt><trkpt lat="44.189289660355755" lon="10.193574688371944"><ele>428.0</ele><time>2026-05-02T13:38:03Z</time></trkpt><trkpt lat="44.18926797509616" lon="10.193686564673229"><ele>427.99999999999994</ele><time>2026-05-02T13:38:04Z</time></trkpt><trkpt lat="44.18926930480272" lon="10.19377844815244"><ele>428.0</ele><time>2026-05-02T13:38:05Z</time></trkpt><trkpt lat="44.189310222565446" lon="10.193864635235716"><ele>428.0</ele><time>2026-05-02T13:38:06Z</time></trkpt><trkpt lat="44.189379945211385" lon="10.193909269841113"><ele>428.0</ele><time>2026-05-02T13:38:07Z</time></trkpt><trkpt lat="44.189466108129324" lon="10.193948259864275"><ele>427.99999999999994</ele><time>2026-05-02T13:38:08Z</time></trkpt><trkpt lat="44.189567546904556" lon="10.193944413037299"><ele>428.0</ele><time>2026-05-02T13:38:09Z</time></trkpt><trkpt lat="44.18967854495771" lon="10.193900725968506"><ele>428.0</ele><time>2026-05-02T13:38:10Z</time></trkpt><trkpt lat="44.18979489018983" lon="10.19383721509777"><ele>428.0</ele><time>2026-05-02T13:38:11Z</time></trkpt><trkpt lat="44.189909407575605" lon="10.193820495951924"><ele>428.0</ele><time>2026-05-02T13:38:12Z</time></trkpt><trkpt lat="44.19001500818388" lon="10.193787655253438"><ele>428.0</ele><time>2026-05-02T13:38:13Z</time></trkpt><trkpt lat="44.19012568849966" lon="10.1938149203371"><ele>427.25</ele><time>2026-05-02T13:38:14Z</time></trkpt><trkpt lat="44.190221970481296" lon="10.193908316289162"><ele>426.5</ele><time>2026-05-02T13:38:15Z</time></trkpt><trkpt lat="44.190344733610814" lon="10.193985240926361"><ele>425.75</ele><time>2026-05-02T13:38:16Z</time></trkpt><trkpt lat="44.190458691307605" lon="10.194098742107046"><ele>425.0</ele><time>2026-05-02T13:38:17Z</time></trkpt><trkpt lat="44.19057294384437" lon="10.194194203305173"><ele>420.5</ele><time>2026-05-02T13:38:18Z</time></trkpt><trkpt lat="44.190687310733765" lon="10.194282664645723"><ele>416.0</ele><time>2026-05-02T13:38:19Z</time></trkpt><trkpt lat="44.19080175197894" lon="10.194376950439844"><ele>411.5</ele><time>2026-05-02T13:38:20Z</time></trkpt><trkpt lat="44.19091464787206" lon="10.194467559519556"><ele>407.0</ele><time>2026-05-02T13:38:21Z</time></trkpt><trkpt lat="44.19102275809719" lon="10.194555760354291"><ele>407.0</ele><time>2026-05-02T13:38:22Z</time></trkpt><trkpt lat="44.19113072008347" lon="10.194633879580062"><ele>407.0</ele><time>2026-05-02T13:38:23Z</time></trkpt><trkpt lat="44.19123505055002" lon="10.194711888015517"><ele>407.0</ele><time>2026-05-02T13:38:24Z</time></trkpt><trkpt lat="44.19132796675064" lon="10.194786041247855"><ele>407.0</ele><time>2026-05-02T13:38:25Z</time></trkpt><trkpt lat="44.191425271537476" lon="10.194860150938593"><ele>403.6</ele><time>2026-05-02T13:38:26Z</time></trkpt><trkpt lat="44.191526839113074" lon="10.1949369176631"><ele>400.20000000000005</ele><time>2026-05-02T13:38:27Z</time></trkpt><trkpt lat="44.19162460031427" lon="10.19501469852365"><ele>396.8</ele><time>2026-05-02T13:38:28Z</time></trkpt><trkpt lat="44.19170959511047" lon="10.19508794017806"><ele>393.4</ele><time>2026-05-02T13:38:29Z</time></trkpt><trkpt lat="44.19178950493069" lon="10.195157380803726"><ele>390.0</ele><time>2026-05-02T13:38:30Z</time></trkpt><trkpt lat="44.19186989806719" lon="10.19520549028406"><ele>390.0</ele><time>2026-05-02T13:38:31Z</time></trkpt><trkpt lat="44.19195133206065" lon="10.195210103624092"><ele>390.0</ele><time>2026-05-02T13:38:32Z</time></trkpt><trkpt lat="44.19202948107284" lon="10.19517504814238"><ele>390.0</ele><time>2026-05-02T13:38:33Z</time></trkpt><trkpt lat="44.192102279899636" lon="10.19509559046951"><ele>390.0</ele><time>2026-05-02T13:38:34Z</time></trkpt><trkpt lat="44.192165464052735" lon="10.19499472589206"><ele>390.0</ele><time>2026-05-02T13:38:35Z</time></trkpt><trkpt lat="44.192240971959045" lon="10.194900141358787"><ele>389.8</ele><time>2026-05-02T13:38:36Z</time></trkpt><trkpt lat="44.19230908907563" lon="10.194815318372017"><ele>389.6</ele><time>2026-05-02T13:38:37Z</time></trkpt><trkpt lat="44.19240562613398" lon="10.19475096362699"><ele>389.4</ele><time>2026-05-02T13:38:39Z</time></trkpt><trkpt lat="44.19250505397158" lon="10.194848723509118"><ele>389.2</ele><time>2026-05-02T13:38:41Z</time></trkpt><trkpt lat="44.19251145797589" lon="10.194949910278686"><ele>389.0</ele><time>2026-05-02T13:38:42Z</time></trkpt><trkpt lat="44.19247176412655" lon="10.195040062035314"><ele>389.25</ele><time>2026-05-02T13:38:43Z</time></trkpt><trkpt lat="44.192378986321856" lon="10.195081203609835"><ele>389.5</ele><time>2026-05-02T13:38:44Z</time></trkpt><trkpt lat="44.192296504506345" lon="10.19516738492354"><ele>389.75</ele><time>2026-05-02T13:38:45Z</time></trkpt><trkpt lat="44.19218326526231" lon="10.195252924143077"><ele>390.0</ele><time>2026-05-02T13:38:46Z</time></trkpt><trkpt lat="44.19207794236367" lon="10.19534502368566"><ele>390.0</ele><time>2026-05-02T13:38:47Z</time></trkpt><trkpt lat="44.19198755531448" lon="10.195421009486154"><ele>390.0</ele><time>2026-05-02T13:38:48Z</time></trkpt><trkpt lat="44.191905848438516" lon="10.195512309544041"><ele>390.0</ele><time>2026-05-02T13:38:49Z</time></trkpt><trkpt lat="44.19184685684493" lon="10.195607150016825"><ele>390.0</ele><time>2026-05-02T13:38:50Z</time></trkpt><trkpt lat="44.191795488501256" lon="10.195734492638632"><ele>390.0</ele><time>2026-05-02T13:38:51Z</time></trkpt><trkpt lat="44.19175154503832" lon="10.195896637743806"><ele>387.75</ele><time>2026-05-02T13:38:52Z</time></trkpt><trkpt lat="44.191711663203755" lon="10.196075078330061"><ele>385.5</ele><time>2026-05-02T13:38:53Z</time></trkpt><trkpt lat="44.19167695714647" lon="10.196241075081698"><ele>383.25</ele><time>2026-05-02T13:38:54Z</time></trkpt><trkpt lat="44.191642229866034" lon="10.196385351598854"><ele>381.0</ele><time>2026-05-02T13:38:55Z</time></trkpt><trkpt lat="44.191600712671246" lon="10.196504080730085"><ele>379.5</ele><time>2026-05-02T13:38:56Z</time></trkpt><trkpt lat="44.19152656303056" lon="10.196599308942218"><ele>378.0</ele><time>2026-05-02T13:38:57Z</time></trkpt><trkpt lat="44.19149342087319" lon="10.196712340722234"><ele>376.5</ele><time>2026-05-02T13:38:58Z</time></trkpt><trkpt lat="44.19145773718544" lon="10.196805323795724"><ele>375.0</ele><time>2026-05-02T13:38:59Z</time></trkpt><trkpt lat="44.191460919944475" lon="10.19689866184304"><ele>373.5</ele><time>2026-05-02T13:39:00Z</time></trkpt><trkpt lat="44.19148938602565" lon="10.197010694622591"><ele>372.0</ele><time>2026-05-02T13:39:01Z</time></trkpt><trkpt lat="44.19153957339253" lon="10.197108813316666"><ele>372.0</ele><time>2026-05-02T13:39:02Z</time></trkpt><trkpt lat="44.19160357111158" lon="10.197188098917744"><ele>372.0</ele><time>2026-05-02T13:39:03Z</time></trkpt><trkpt lat="44.19167328084179" lon="10.197246723892357"><ele>372.0</ele><time>2026-05-02T13:39:04Z</time></trkpt><trkpt lat="44.19174543127129" lon="10.197272573961753"><ele>372.0</ele><time>2026-05-02T13:39:05Z</time></trkpt><trkpt lat="44.1918208547117" lon="10.197261017190256"><ele>372.0</ele><time>2026-05-02T13:39:06Z</time></trkpt><trkpt lat="44.191895040547855" lon="10.19721008421028"><ele>372.0</ele><time>2026-05-02T13:39:07Z</time></trkpt><trkpt lat="44.19196759023229" lon="10.19712312353413"><ele>372.0</ele><time>2026-05-02T13:39:08Z</time></trkpt><trkpt lat="44.19204862506578" lon="10.19700006355628"><ele>372.0</ele><time>2026-05-02T13:39:09Z</time></trkpt><trkpt lat="44.19213904868055" lon="10.196863703388376"><ele>372.0</ele><time>2026-05-02T13:39:10Z</time></trkpt><trkpt lat="44.1922200787848" lon="10.196747454339548"><ele>372.0</ele><time>2026-05-02T13:39:11Z</time></trkpt><trkpt lat="44.19229865712306" lon="10.196630872925082"><ele>370.6</ele><time>2026-05-02T13:39:12Z</time></trkpt><trkpt lat="44.192375746289585" lon="10.196526073917237"><ele>369.20000000000005</ele><time>2026-05-02T13:39:13Z</time></trkpt><trkpt lat="44.19245477619964" lon="10.19643570127733"><ele>367.8</ele><time>2026-05-02T13:39:14Z</time></trkpt><trkpt lat="44.19254733514259" lon="10.196395967819795"><ele>366.4</ele><time>2026-05-02T13:39:15Z</time></trkpt><trkpt lat="44.192634672755936" lon="10.196341732201036"><ele>365.0</ele><time>2026-05-02T13:39:16Z</time></trkpt><trkpt lat="44.19273975603982" lon="10.196341266582358"><ele>365.0</ele><time>2026-05-02T13:39:17Z</time></trkpt><trkpt lat="44.19284393445598" lon="10.196335072138679"><ele>365.0</ele><time>2026-05-02T13:39:18Z</time></trkpt><trkpt lat="44.192961523343136" lon="10.196316208073497"><ele>365.0</ele><time>2026-05-02T13:39:19Z</time></trkpt><trkpt lat="44.19307224673381" lon="10.19630068903018"><ele>365.0</ele><time>2026-05-02T13:39:20Z</time></trkpt><trkpt lat="44.19317835113444" lon="10.19628483478535"><ele>365.0</ele><time>2026-05-02T13:39:21Z</time></trkpt><trkpt lat="44.19328320491391" lon="10.19627172444463"><ele>363.0</ele><time>2026-05-02T13:39:22Z</time></trkpt><trkpt lat="44.1933823823222" lon="10.196260663827365"><ele>361.0</ele><time>2026-05-02T13:39:23Z</time></trkpt><trkpt lat="44.193473718332015" lon="10.196249366827963"><ele>359.0</ele><time>2026-05-02T13:39:24Z</time></trkpt><trkpt lat="44.19356696769412" lon="10.19623735465104"><ele>357.0</ele><time>2026-05-02T13:39:25Z</time></trkpt><trkpt lat="44.19365317247904" lon="10.196219384015134"><ele>355.0</ele><time>2026-05-02T13:39:26Z</time></trkpt><trkpt lat="44.1937455328989" lon="10.196186485867516"><ele>355.0</ele><time>2026-05-02T13:39:27Z</time></trkpt><trkpt lat="44.19383373314194" lon="10.19614505746515"><ele>355.0</ele><time>2026-05-02T13:39:28Z</time></trkpt><trkpt lat="44.193916018515566" lon="10.196099814477403"><ele>355.0</ele><time>2026-05-02T13:39:29Z</time></trkpt><trkpt lat="44.1940044027536" lon="10.196051991345197"><ele>355.0</ele><time>2026-05-02T13:39:30Z</time></trkpt><trkpt lat="44.194090821019216" lon="10.195999648441788"><ele>355.0</ele><time>2026-05-02T13:39:31Z</time></trkpt><trkpt lat="44.19416314799479" lon="10.195943902436984"><ele>355.0</ele><time>2026-05-02T13:39:32Z</time></trkpt><trkpt lat="44.19421551190003" lon="10.19587447049876"><ele>355.0</ele><time>2026-05-02T13:39:33Z</time></trkpt><trkpt lat="44.194245333794456" lon="10.195781006717075"><ele>355.0</ele><time>2026-05-02T13:39:34Z</time></trkpt><trkpt lat="44.1942514691688" lon="10.19567208951168"><ele>355.0</ele><time>2026-05-02T13:39:35Z</time></trkpt><trkpt lat="44.19424055492644" lon="10.195538454106645"><ele>355.0</ele><time>2026-05-02T13:39:36Z</time></trkpt><trkpt lat="44.19420985661489" lon="10.195382677309746"><ele>355.0</ele><time>2026-05-02T13:39:37Z</time></trkpt><trkpt lat="44.19416461824937" lon="10.195215444327662"><ele>355.5</ele><time>2026-05-02T13:39:38Z</time></trkpt><trkpt lat="44.194116139586306" lon="10.195037651967946"><ele>356.0</ele><time>2026-05-02T13:39:39Z</time></trkpt><trkpt lat="44.194080212514926" lon="10.194860689165838"><ele>356.5</ele><time>2026-05-02T13:39:40Z</time></trkpt><trkpt lat="44.194049418121" lon="10.194695788110703"><ele>357.0</ele><time>2026-05-02T13:39:41Z</time></trkpt><trkpt lat="44.19402281188204" lon="10.194539085270138"><ele>357.0</ele><time>2026-05-02T13:39:42Z</time></trkpt><trkpt lat="44.19400647941771" lon="10.19438431366725"><ele>357.0</ele><time>2026-05-02T13:39:43Z</time></trkpt><trkpt lat="44.19400539885757" lon="10.194222931988163"><ele>357.0</ele><time>2026-05-02T13:39:44Z</time></trkpt><trkpt lat="44.194018974612504" lon="10.194067353160943"><ele>357.0</ele><time>2026-05-02T13:39:45Z</time></trkpt><trkpt lat="44.19405249752104" lon="10.193907519536713"><ele>356.75</ele><time>2026-05-02T13:39:46Z</time></trkpt><trkpt lat="44.194099395596425" lon="10.193749126975721"><ele>356.5</ele><time>2026-05-02T13:39:47Z</time></trkpt><trkpt lat="44.194140033133195" lon="10.193602790265624"><ele>356.25</ele><time>2026-05-02T13:39:48Z</time></trkpt><trkpt lat="44.19417328816045" lon="10.193458239822915"><ele>356.0</ele><time>2026-05-02T13:39:49Z</time></trkpt><trkpt lat="44.1942065051884" lon="10.193300590029581"><ele>356.20000000000005</ele><time>2026-05-02T13:39:50Z</time></trkpt><trkpt lat="44.194233970012576" lon="10.193145953201196"><ele>356.40000000000003</ele><time>2026-05-02T13:39:51Z</time></trkpt><trkpt lat="44.194244428555905" lon="10.192995886788587"><ele>356.6</ele><time>2026-05-02T13:39:52Z</time></trkpt><trkpt lat="44.194239878024234" lon="10.192851856466394"><ele>356.8</ele><time>2026-05-02T13:39:53Z</time></trkpt><trkpt lat="44.194230855291984" lon="10.192700506017216"><ele>357.0</ele><time>2026-05-02T13:39:54Z</time></trkpt><trkpt lat="44.19422859242516" lon="10.192548698118403"><ele>357.0</ele><time>2026-05-02T13:39:55Z</time></trkpt><trkpt lat="44.194226536502" lon="10.192403448544816"><ele>357.0</ele><time>2026-05-02T13:39:56Z</time></trkpt><trkpt lat="44.1942165444258" lon="10.19225973617919"><ele>357.0</ele><time>2026-05-02T13:39:57Z</time></trkpt><trkpt lat="44.19420421642222" lon="10.192109189392683"><ele>357.0</ele><time>2026-05-02T13:39:58Z</time></trkpt><trkpt lat="44.19418840666" lon="10.19197002119476"><ele>357.0</ele><time>2026-05-02T13:39:59Z</time></trkpt><trkpt lat="44.19417162362042" lon="10.191828551998228"><ele>356.8</ele><time>2026-05-02T13:40:00Z</time></trkpt><trkpt lat="44.194146579545176" lon="10.19168339074773"><ele>356.6</ele><time>2026-05-02T13:40:01Z</time></trkpt><trkpt lat="44.194122632980125" lon="10.191538758525509"><ele>356.40000000000003</ele><time>2026-05-02T13:40:02Z</time></trkpt><trkpt lat="44.19410271219638" lon="10.191402307757329"><ele>356.20000000000005</ele><time>2026-05-02T13:40:03Z</time></trkpt><trkpt lat="44.19410196733928" lon="10.19127382184325"><ele>356.0</ele><time>2026-05-02T13:40:04Z</time></trkpt><trkpt lat="44.19412178251943" lon="10.191153153507141"><ele>354.4</ele><time>2026-05-02T13:40:05Z</time></trkpt><trkpt lat="44.19417300856165" lon="10.19104696995126"><ele>352.8</ele><time>2026-05-02T13:40:06Z</time></trkpt><trkpt lat="44.194237663873885" lon="10.19095154481263"><ele>351.2</ele><time>2026-05-02T13:40:07Z</time></trkpt><trkpt lat="44.19430036449487" lon="10.19088640006034"><ele>349.59999999999997</ele><time>2026-05-02T13:40:08Z</time></trkpt><trkpt lat="44.19440719836068" lon="10.190825155047344"><ele>348.0</ele><time>2026-05-02T13:40:09Z</time></trkpt><trkpt lat="44.19451642573558" lon="10.19078105677381"><ele>348.0</ele><time>2026-05-02T13:40:10Z</time></trkpt><trkpt lat="44.19465155301408" lon="10.190731199916957"><ele>348.0</ele><time>2026-05-02T13:40:11Z</time></trkpt><trkpt lat="44.19477801413482" lon="10.190667419691032"><ele>348.0</ele><time>2026-05-02T13:40:12Z</time></trkpt><trkpt lat="44.19489372358865" lon="10.190621663777176"><ele>348.0</ele><time>2026-05-02T13:40:13Z</time></trkpt><trkpt lat="44.19499511521758" lon="10.190552145388532"><ele>347.25</ele><time>2026-05-02T13:40:14Z</time></trkpt><trkpt lat="44.19508158794405" lon="10.19044436043659"><ele>346.5</ele><time>2026-05-02T13:40:15Z</time></trkpt><trkpt lat="44.195157771514886" lon="10.190291602549348"><ele>345.75</ele><time>2026-05-02T13:40:16Z</time></trkpt><trkpt lat="44.195231859356696" lon="10.190118910443054"><ele>345.0</ele><time>2026-05-02T13:40:17Z</time></trkpt><trkpt lat="44.195313843620916" lon="10.189951233353188"><ele>341.75</ele><time>2026-05-02T13:40:18Z</time></trkpt><trkpt lat="44.19541181876197" lon="10.189826346887235"><ele>338.5</ele><time>2026-05-02T13:40:19Z</time></trkpt><trkpt lat="44.195499346329505" lon="10.189702606824593"><ele>335.25</ele><time>2026-05-02T13:40:20Z</time></trkpt><trkpt lat="44.19557664141077" lon="10.189569992059365"><ele>332.0</ele><time>2026-05-02T13:40:21Z</time></trkpt><trkpt lat="44.195645506397554" lon="10.189420301500274"><ele>332.75</ele><time>2026-05-02T13:40:22Z</time></trkpt><trkpt lat="44.19570428446157" lon="10.189268805452512"><ele>333.5</ele><time>2026-05-02T13:40:23Z</time></trkpt><trkpt lat="44.19576273503354" lon="10.189119831913123"><ele>334.25</ele><time>2026-05-02T13:40:24Z</time></trkpt><trkpt lat="44.1958147769774" lon="10.188968494218923"><ele>335.0</ele><time>2026-05-02T13:40:25Z</time></trkpt><trkpt lat="44.195895272669866" lon="10.188848881534858"><ele>335.0</ele><time>2026-05-02T13:40:26Z</time></trkpt><trkpt lat="44.19597724264484" lon="10.188726993107151"><ele>335.0</ele><time>2026-05-02T13:40:27Z</time></trkpt><trkpt lat="44.196054931993686" lon="10.18859031159701"><ele>335.0</ele><time>2026-05-02T13:40:28Z</time></trkpt><trkpt lat="44.19616167251448" lon="10.188501965927317"><ele>335.0</ele><time>2026-05-02T13:40:29Z</time></trkpt><trkpt lat="44.196258088012385" lon="10.188407707251866"><ele>335.0</ele><time>2026-05-02T13:40:30Z</time></trkpt><trkpt lat="44.196351011293224" lon="10.188305297607995"><ele>335.0</ele><time>2026-05-02T13:40:31Z</time></trkpt><trkpt lat="44.19645987101929" lon="10.188226480900182"><ele>335.0</ele><time>2026-05-02T13:40:32Z</time></trkpt><trkpt lat="44.19657054041525" lon="10.188145967568069"><ele>335.0</ele><time>2026-05-02T13:40:33Z</time></trkpt><trkpt lat="44.196680225144895" lon="10.188062924373847"><ele>336.6</ele><time>2026-05-02T13:40:34Z</time></trkpt><trkpt lat="44.19678848255649" lon="10.187978496219985"><ele>338.2</ele><time>2026-05-02T13:40:35Z</time></trkpt><trkpt lat="44.19688124706022" lon="10.187890860706842"><ele>339.79999999999995</ele><time>2026-05-02T13:40:36Z</time></trkpt><trkpt lat="44.19696286448301" lon="10.187808554616382"><ele>341.4</ele><time>2026-05-02T13:40:37Z</time></trkpt><trkpt lat="44.197030785865316" lon="10.18773138736976"><ele>343.0</ele><time>2026-05-02T13:40:38Z</time></trkpt><trkpt lat="44.19710367692158" lon="10.187685909657366"><ele>343.0</ele><time>2026-05-02T13:40:39Z</time></trkpt><trkpt lat="44.197180513894" lon="10.187733915970064"><ele>343.0</ele><time>2026-05-02T13:40:40Z</time></trkpt><trkpt lat="44.197256777740016" lon="10.187793401042084"><ele>343.0</ele><time>2026-05-02T13:40:41Z</time></trkpt><trkpt lat="44.19738017558916" lon="10.187837297209551"><ele>343.0</ele><time>2026-05-02T13:40:42Z</time></trkpt><trkpt lat="44.197478591703984" lon="10.18786651772042"><ele>343.0</ele><time>2026-05-02T13:40:43Z</time></trkpt><trkpt lat="44.19759305568225" lon="10.18786481049311"><ele>343.0</ele><time>2026-05-02T13:40:44Z</time></trkpt><trkpt lat="44.197706405905635" lon="10.187859685937184"><ele>343.0</ele><time>2026-05-02T13:40:45Z</time></trkpt><trkpt lat="44.19780664710057" lon="10.187853695722298"><ele>343.0</ele><time>2026-05-02T13:40:46Z</time></trkpt><trkpt lat="44.197897262676804" lon="10.187837135240404"><ele>343.0</ele><time>2026-05-02T13:40:47Z</time></trkpt><trkpt lat="44.19798198908697" lon="10.18779465010747"><ele>343.0</ele><time>2026-05-02T13:40:48Z</time></trkpt><trkpt lat="44.19805937621655" lon="10.187727507029846"><ele>343.0</ele><time>2026-05-02T13:40:49Z</time></trkpt><trkpt lat="44.19812941459936" lon="10.187659059695497"><ele>343.0</ele><time>2026-05-02T13:40:50Z</time></trkpt><trkpt lat="44.1981581123218" lon="10.18753156803616"><ele>343.0</ele><time>2026-05-02T13:40:51Z</time></trkpt><trkpt lat="44.19817509641993" lon="10.18740683888933"><ele>343.0</ele><time>2026-05-02T13:40:52Z</time></trkpt><trkpt lat="44.19817108883864" lon="10.187279308767852"><ele>343.0</ele><time>2026-05-02T13:40:53Z</time></trkpt><trkpt lat="44.19815549017312" lon="10.187133996771902"><ele>342.25</ele><time>2026-05-02T13:40:54Z</time></trkpt><trkpt lat="44.19814123962559" lon="10.186960521515356"><ele>341.5</ele><time>2026-05-02T13:40:55Z</time></trkpt><trkpt lat="44.198132657673675" lon="10.186769365025727"><ele>340.75</ele><time>2026-05-02T13:40:56Z</time></trkpt><trkpt lat="44.198120160681775" lon="10.186577815192587"><ele>340.0</ele><time>2026-05-02T13:40:57Z</time></trkpt><trkpt lat="44.19810581703494" lon="10.186381349808359"><ele>339.75</ele><time>2026-05-02T13:40:58Z</time></trkpt><trkpt lat="44.19809185152349" lon="10.186194696551617"><ele>339.5</ele><time>2026-05-02T13:40:59Z</time></trkpt><trkpt lat="44.19807805251281" lon="10.186041049420233"><ele>339.25</ele><time>2026-05-02T13:41:00Z</time></trkpt><trkpt lat="44.1980712951273" lon="10.185899372279298"><ele>339.0</ele><time>2026-05-02T13:41:01Z</time></trkpt><trkpt lat="44.19808240552397" lon="10.185744381621703"><ele>337.75</ele><time>2026-05-02T13:41:02Z</time></trkpt><trkpt lat="44.19812913788552" lon="10.185597285433156"><ele>336.5</ele><time>2026-05-02T13:41:03Z</time></trkpt><trkpt lat="44.198163969336704" lon="10.185435462734167"><ele>335.25</ele><time>2026-05-02T13:41:04Z</time></trkpt><trkpt lat="44.198248722656494" lon="10.185293036433455"><ele>334.0</ele><time>2026-05-02T13:41:05Z</time></trkpt><trkpt lat="44.19832312332128" lon="10.185123262826638"><ele>339.5</ele><time>2026-05-02T13:41:06Z</time></trkpt><trkpt lat="44.198392506543435" lon="10.184985797999069"><ele>345.0</ele><time>2026-05-02T13:41:07Z</time></trkpt><trkpt lat="44.198443142883924" lon="10.18483655301713"><ele>350.5</ele><time>2026-05-02T13:41:08Z</time></trkpt><trkpt lat="44.198477941386535" lon="10.184681249763644"><ele>356.0</ele><time>2026-05-02T13:41:09Z</time></trkpt><trkpt lat="44.19849693743101" lon="10.184520035283843"><ele>356.0</ele><time>2026-05-02T13:41:10Z</time></trkpt><trkpt lat="44.198490779468116" lon="10.184358605078717"><ele>356.0</ele><time>2026-05-02T13:41:11Z</time></trkpt><trkpt lat="44.198465986038094" lon="10.18419478024315"><ele>356.0</ele><time>2026-05-02T13:41:12Z</time></trkpt><trkpt lat="44.19841934715043" lon="10.184054955936444"><ele>356.0</ele><time>2026-05-02T13:41:13Z</time></trkpt><trkpt lat="44.19837717509259" lon="10.183944678788057"><ele>356.0</ele><time>2026-05-02T13:41:14Z</time></trkpt><trkpt lat="44.198358156863854" lon="10.183844265311908"><ele>355.83333333333337</ele><time>2026-05-02T13:41:15Z</time></trkpt><trkpt lat="44.198374365591626" lon="10.183740253229963"><ele>355.6666666666667</ele><time>2026-05-02T13:41:16Z</time></trkpt><trkpt lat="44.19842348602494" lon="10.18365709474722"><ele>355.5</ele><time>2026-05-02T13:41:17Z</time></trkpt><trkpt lat="44.19850741753101" lon="10.183629699900951"><ele>355.3333333333333</ele><time>2026-05-02T13:41:18Z</time></trkpt><trkpt lat="44.19859567139869" lon="10.183591750537364"><ele>355.16666666666663</ele><time>2026-05-02T13:41:19Z</time></trkpt><trkpt lat="44.19870174701324" lon="10.183581698436782"><ele>355.0</ele><time>2026-05-02T13:41:20Z</time></trkpt><trkpt lat="44.19879613624679" lon="10.183557398905556"><ele>355.0</ele><time>2026-05-02T13:41:21Z</time></trkpt><trkpt lat="44.19887682837679" lon="10.183474654432077"><ele>355.0</ele><time>2026-05-02T13:41:22Z</time></trkpt><trkpt lat="44.19893834707046" lon="10.18336564354528"><ele>355.0</ele><time>2026-05-02T13:41:23Z</time></trkpt><trkpt lat="44.19897017838431" lon="10.183253496259262"><ele>355.0</ele><time>2026-05-02T13:41:24Z</time></trkpt><trkpt lat="44.198973996841836" lon="10.183127566126766"><ele>355.0</ele><time>2026-05-02T13:41:25Z</time></trkpt><trkpt lat="44.198951765497405" lon="10.18297380451651"><ele>353.75</ele><time>2026-05-02T13:41:26Z</time></trkpt><trkpt lat="44.19892562760135" lon="10.18280084830921"><ele>352.5</ele><time>2026-05-02T13:41:27Z</time></trkpt><trkpt lat="44.19895300430896" lon="10.182632787624328"><ele>351.25</ele><time>2026-05-02T13:41:28Z</time></trkpt><trkpt lat="44.19898611770165" lon="10.18247089837761"><ele>350.0</ele><time>2026-05-02T13:41:29Z</time></trkpt><trkpt lat="44.19903954597773" lon="10.182322872259876"><ele>349.25</ele><time>2026-05-02T13:41:30Z</time></trkpt><trkpt lat="44.199102753941304" lon="10.182189939400653"><ele>348.5</ele><time>2026-05-02T13:41:31Z</time></trkpt><trkpt lat="44.19918674417933" lon="10.182093333313091"><ele>347.75</ele><time>2026-05-02T13:41:32Z</time></trkpt><trkpt lat="44.199291989739876" lon="10.182003019777682"><ele>347.0</ele><time>2026-05-02T13:41:33Z</time></trkpt><trkpt lat="44.19939666958035" lon="10.181874096109661"><ele>347.0</ele><time>2026-05-02T13:41:34Z</time></trkpt><trkpt lat="44.199522381278726" lon="10.181759385474333"><ele>347.0</ele><time>2026-05-02T13:41:35Z</time></trkpt><trkpt lat="44.19964520093426" lon="10.1816455262638"><ele>347.0</ele><time>2026-05-02T13:41:36Z</time></trkpt><trkpt lat="44.19976412928521" lon="10.181535601179776"><ele>347.0</ele><time>2026-05-02T13:41:37Z</time></trkpt><trkpt lat="44.19987825729666" lon="10.181416584739045"><ele>346.75</ele><time>2026-05-02T13:41:38Z</time></trkpt><trkpt lat="44.19998577543734" lon="10.181305378022696"><ele>346.5</ele><time>2026-05-02T13:41:39Z</time></trkpt><trkpt lat="44.200081479490095" lon="10.18118482582268"><ele>346.25</ele><time>2026-05-02T13:41:40Z</time></trkpt><trkpt lat="44.20016324425598" lon="10.181057411155162"><ele>346.0</ele><time>2026-05-02T13:41:41Z</time></trkpt><trkpt lat="44.20022644470959" lon="10.180926245472012"><ele>346.0</ele><time>2026-05-02T13:41:42Z</time></trkpt><trkpt lat="44.20026005064181" lon="10.180800253626094"><ele>346.0</ele><time>2026-05-02T13:41:43Z</time></trkpt><trkpt lat="44.20026123280975" lon="10.180678613821543"><ele>346.0</ele><time>2026-05-02T13:41:44Z</time></trkpt><trkpt lat="44.2002324749105" lon="10.180556725581129"><ele>346.0</ele><time>2026-05-02T13:41:45Z</time></trkpt><trkpt lat="44.20017391142254" lon="10.180444467333118"><ele>346.0</ele><time>2026-05-02T13:41:46Z</time></trkpt><trkpt lat="44.20009475798722" lon="10.180356518123883"><ele>345.20000000000005</ele><time>2026-05-02T13:41:47Z</time></trkpt><trkpt lat="44.19999776688979" lon="10.180280925433193"><ele>344.40000000000003</ele><time>2026-05-02T13:41:48Z</time></trkpt><trkpt lat="44.19994260030926" lon="10.180191165722524"><ele>343.6</ele><time>2026-05-02T13:41:49Z</time></trkpt><trkpt lat="44.19991937219201" lon="10.180070314569917"><ele>342.8</ele><time>2026-05-02T13:41:50Z</time></trkpt><trkpt lat="44.19992544599288" lon="10.179947938160959"><ele>342.0</ele><time>2026-05-02T13:41:51Z</time></trkpt><trkpt lat="44.19996451224615" lon="10.179840817026555"><ele>338.75</ele><time>2026-05-02T13:41:52Z</time></trkpt><trkpt lat="44.20003220477782" lon="10.17973806215567"><ele>335.5</ele><time>2026-05-02T13:41:53Z</time></trkpt><trkpt lat="44.200140012225965" lon="10.179661360957025"><ele>332.25</ele><time>2026-05-02T13:41:54Z</time></trkpt><trkpt lat="44.20024625637104" lon="10.179530675330986"><ele>329.0</ele><time>2026-05-02T13:41:55Z</time></trkpt><trkpt lat="44.200371977293635" lon="10.179392333360921"><ele>329.0</ele><time>2026-05-02T13:41:56Z</time></trkpt><trkpt lat="44.20048455753133" lon="10.17922491962796"><ele>329.0</ele><time>2026-05-02T13:41:57Z</time></trkpt><trkpt lat="44.200581526316846" lon="10.179066022468387"><ele>329.0</ele><time>2026-05-02T13:41:58Z</time></trkpt><trkpt lat="44.2006706872165" lon="10.17892381753338"><ele>331.25</ele><time>2026-05-02T13:41:59Z</time></trkpt><trkpt lat="44.20075838778339" lon="10.17879162075268"><ele>333.5</ele><time>2026-05-02T13:42:00Z</time></trkpt><trkpt lat="44.200840995242444" lon="10.178659791734491"><ele>335.75</ele><time>2026-05-02T13:42:01Z</time></trkpt><trkpt lat="44.200915258028246" lon="10.178520010569311"><ele>338.0</ele><time>2026-05-02T13:42:02Z</time></trkpt><trkpt lat="44.20097109604176" lon="10.178368975362762"><ele>338.0</ele><time>2026-05-02T13:42:03Z</time></trkpt><trkpt lat="44.201011373673644" lon="10.178209809139721"><ele>338.0</ele><time>2026-05-02T13:42:04Z</time></trkpt><trkpt lat="44.20103203991898" lon="10.178045341875173"><ele>338.0</ele><time>2026-05-02T13:42:05Z</time></trkpt><trkpt lat="44.20102815693542" lon="10.177889010948604"><ele>338.0</ele><time>2026-05-02T13:42:06Z</time></trkpt><trkpt lat="44.20100588866599" lon="10.177741728755853"><ele>337.0</ele><time>2026-05-02T13:42:07Z</time></trkpt><trkpt lat="44.20100345438166" lon="10.177623672248023"><ele>336.0</ele><time>2026-05-02T13:42:08Z</time></trkpt><trkpt lat="44.201045927503" lon="10.177525295601413"><ele>335.0</ele><time>2026-05-02T13:42:09Z</time></trkpt><trkpt lat="44.201132329550695" lon="10.177457426229564"><ele>334.0</ele><time>2026-05-02T13:42:10Z</time></trkpt><trkpt lat="44.20118789844262" lon="10.177367379010585"><ele>333.0</ele><time>2026-05-02T13:42:11Z</time></trkpt><trkpt lat="44.20119015630528" lon="10.177213617322572"><ele>333.0</ele><time>2026-05-02T13:42:13Z</time></trkpt><trkpt lat="44.20107633362338" lon="10.17711180890995"><ele>333.0</ele><time>2026-05-02T13:42:15Z</time></trkpt><trkpt lat="44.20098767856857" lon="10.177063404868642"><ele>333.0</ele><time>2026-05-02T13:42:16Z</time></trkpt><trkpt lat="44.200871835898646" lon="10.177012893893618"><ele>333.0</ele><time>2026-05-02T13:42:17Z</time></trkpt><trkpt lat="44.20076120810856" lon="10.17696166145707"><ele>330.79999999999995</ele><time>2026-05-02T13:42:18Z</time></trkpt><trkpt lat="44.20066072326841" lon="10.17690546527341"><ele>328.6</ele><time>2026-05-02T13:42:19Z</time></trkpt><trkpt lat="44.200567885118346" lon="10.176828799853489"><ele>326.4</ele><time>2026-05-02T13:42:20Z</time></trkpt><trkpt lat="44.20047044371329" lon="10.176747899237942"><ele>324.20000000000005</ele><time>2026-05-02T13:42:21Z</time></trkpt><trkpt lat="44.200376645917565" lon="10.176662752991879"><ele>322.0</ele><time>2026-05-02T13:42:22Z</time></trkpt><trkpt lat="44.20028637821993" lon="10.176565225471952"><ele>322.8</ele><time>2026-05-02T13:42:23Z</time></trkpt><trkpt lat="44.20019989126697" lon="10.17647219069653"><ele>323.6</ele><time>2026-05-02T13:42:24Z</time></trkpt><trkpt lat="44.200113700196006" lon="10.176390289940834"><ele>324.40000000000003</ele><time>2026-05-02T13:42:25Z</time></trkpt><trkpt lat="44.200038730323165" lon="10.176308462684528"><ele>325.20000000000005</ele><time>2026-05-02T13:42:26Z</time></trkpt><trkpt lat="44.19998119335209" lon="10.176222128476615"><ele>326.0</ele><time>2026-05-02T13:42:27Z</time></trkpt><trkpt lat="44.19993752884828" lon="10.176129945030684"><ele>326.0</ele><time>2026-05-02T13:42:28Z</time></trkpt><trkpt lat="44.199893087422886" lon="10.176023263377493"><ele>326.0</ele><time>2026-05-02T13:42:29Z</time></trkpt><trkpt lat="44.1998597998169" lon="10.17592989437158"><ele>326.0</ele><time>2026-05-02T13:42:30Z</time></trkpt><trkpt lat="44.19983946239066" lon="10.175845459895328"><ele>326.0</ele><time>2026-05-02T13:42:31Z</time></trkpt><trkpt lat="44.199817276751894" lon="10.175691626334308"><ele>326.0</ele><time>2026-05-02T13:42:33Z</time></trkpt><trkpt lat="44.19978480315849" lon="10.17553847309182"><ele>325.0</ele><time>2026-05-02T13:42:35Z</time></trkpt><trkpt lat="44.19975728901473" lon="10.175445915328233"><ele>324.0</ele><time>2026-05-02T13:42:37Z</time></trkpt><trkpt lat="44.19982697103899" lon="10.175334684996338"><ele>323.0</ele><time>2026-05-02T13:42:40Z</time></trkpt><trkpt lat="44.199930808771946" lon="10.175298175096229"><ele>322.0</ele><time>2026-05-02T13:42:42Z</time></trkpt><trkpt lat="44.20003674808801" lon="10.175362877777127"><ele>321.0</ele><time>2026-05-02T13:42:44Z</time></trkpt><trkpt lat="44.20006908979431" lon="10.175458594443555"><ele>321.0</ele><time>2026-05-02T13:42:45Z</time></trkpt><trkpt lat="44.20011717653267" lon="10.17555596856743"><ele>321.0</ele><time>2026-05-02T13:42:46Z</time></trkpt><trkpt lat="44.20017032330099" lon="10.175637501250426"><ele>321.0</ele><time>2026-05-02T13:42:47Z</time></trkpt><trkpt lat="44.20021222204521" lon="10.175722377576601"><ele>321.0</ele><time>2026-05-02T13:42:48Z</time></trkpt><trkpt lat="44.200266192304234" lon="10.175800630731006"><ele>321.0</ele><time>2026-05-02T13:42:49Z</time></trkpt><trkpt lat="44.20034432278364" lon="10.175869343279407"><ele>321.0</ele><time>2026-05-02T13:42:50Z</time></trkpt><trkpt lat="44.20042790699703" lon="10.175936270900774"><ele>321.4</ele><time>2026-05-02T13:42:51Z</time></trkpt><trkpt lat="44.200522440237314" lon="10.175980655736808"><ele>321.8</ele><time>2026-05-02T13:42:52Z</time></trkpt><trkpt lat="44.20062009577136" lon="10.17605851386871"><ele>322.2</ele><time>2026-05-02T13:42:53Z</time></trkpt><trkpt lat="44.200723641515985" lon="10.176116273751564"><ele>322.59999999999997</ele><time>2026-05-02T13:42:54Z</time></trkpt><trkpt lat="44.200820975197495" lon="10.176173470269184"><ele>323.0</ele><time>2026-05-02T13:42:55Z</time></trkpt><trkpt lat="44.20092143657396" lon="10.17623313581573"><ele>323.0</ele><time>2026-05-02T13:42:56Z</time></trkpt><trkpt lat="44.20101260940102" lon="10.176288855989203"><ele>323.0</ele><time>2026-05-02T13:42:57Z</time></trkpt><trkpt lat="44.20110712547725" lon="10.176322958592054"><ele>323.0</ele><time>2026-05-02T13:42:58Z</time></trkpt><trkpt lat="44.201191577920056" lon="10.176376095471067"><ele>323.0</ele><time>2026-05-02T13:42:59Z</time></trkpt><trkpt lat="44.201273292599744" lon="10.17644865925213"><ele>323.0</ele><time>2026-05-02T13:43:00Z</time></trkpt><trkpt lat="44.201373311005355" lon="10.176480952989522"><ele>325.0</ele><time>2026-05-02T13:43:01Z</time></trkpt><trkpt lat="44.201464967145924" lon="10.17653964689767"><ele>327.0</ele><time>2026-05-02T13:43:02Z</time></trkpt><trkpt lat="44.20156175761201" lon="10.17659567694119"><ele>329.0</ele><time>2026-05-02T13:43:03Z</time></trkpt><trkpt lat="44.201657120911705" lon="10.176653351207447"><ele>331.0</ele><time>2026-05-02T13:43:04Z</time></trkpt><trkpt lat="44.20174905027986" lon="10.176716769144877"><ele>333.0</ele><time>2026-05-02T13:43:05Z</time></trkpt><trkpt lat="44.201833797540566" lon="10.176774095254167"><ele>333.3333333333333</ele><time>2026-05-02T13:43:06Z</time></trkpt><trkpt lat="44.201913524555394" lon="10.176830238164122"><ele>333.6666666666667</ele><time>2026-05-02T13:43:07Z</time></trkpt><trkpt lat="44.20198537595347" lon="10.17688043980132"><ele>334.0</ele><time>2026-05-02T13:43:08Z</time></trkpt><trkpt lat="44.202049685416036" lon="10.176928350687687"><ele>334.33333333333337</ele><time>2026-05-02T13:43:09Z</time></trkpt><trkpt lat="44.202130572474026" lon="10.17698091132229"><ele>334.6666666666667</ele><time>2026-05-02T13:43:10Z</time></trkpt><trkpt lat="44.20219926696216" lon="10.177041458836484"><ele>335.0</ele><time>2026-05-02T13:43:12Z</time></trkpt><trkpt lat="44.20227358914647" lon="10.176917739743738"><ele>335.0</ele><time>2026-05-02T13:43:14Z</time></trkpt><trkpt lat="44.20227615780489" lon="10.17675769417194"><ele>335.0</ele><time>2026-05-02T13:43:16Z</time></trkpt><trkpt lat="44.2022611036702" lon="10.176619295467976"><ele>335.0</ele><time>2026-05-02T13:43:18Z</time></trkpt><trkpt lat="44.20224523427233" lon="10.176507922252387"><ele>335.0</ele><time>2026-05-02T13:43:20Z</time></trkpt><trkpt lat="44.202230555571866" lon="10.176404516971349"><ele>335.0</ele><time>2026-05-02T13:43:22Z</time></trkpt><trkpt lat="44.202210397925185" lon="10.176253797259033"><ele>332.83333333333337</ele><time>2026-05-02T13:43:24Z</time></trkpt><trkpt lat="44.20219177699566" lon="10.176148756303183"><ele>330.6666666666667</ele><time>2026-05-02T13:43:25Z</time></trkpt><trkpt lat="44.20217929781801" lon="10.176042879362496"><ele>328.5</ele><time>2026-05-02T13:43:26Z</time></trkpt><trkpt lat="44.202160808959036" lon="10.17594622284799"><ele>326.3333333333333</ele><time>2026-05-02T13:43:27Z</time></trkpt><trkpt lat="44.202131524251946" lon="10.175853511125696"><ele>324.16666666666663</ele><time>2026-05-02T13:43:28Z</time></trkpt><trkpt lat="44.2020923506574" lon="10.175757839687924"><ele>322.0</ele><time>2026-05-02T13:43:29Z</time></trkpt><trkpt lat="44.20203187479168" lon="10.175667444378249"><ele>320.0</ele><time>2026-05-02T13:43:30Z</time></trkpt><trkpt lat="44.20196447403801" lon="10.175590974444617"><ele>318.0</ele><time>2026-05-02T13:43:31Z</time></trkpt><trkpt lat="44.201869584709954" lon="10.175521164706836"><ele>316.0</ele><time>2026-05-02T13:43:32Z</time></trkpt><trkpt lat="44.20179058415272" lon="10.175453512079095"><ele>314.0</ele><time>2026-05-02T13:43:33Z</time></trkpt><trkpt lat="44.201708040094545" lon="10.17538560060614"><ele>312.0</ele><time>2026-05-02T13:43:34Z</time></trkpt><trkpt lat="44.20162043154621" lon="10.175315858635518"><ele>312.0</ele><time>2026-05-02T13:43:35Z</time></trkpt><trkpt lat="44.20152986192709" lon="10.175248876435086"><ele>312.0</ele><time>2026-05-02T13:43:36Z</time></trkpt><trkpt lat="44.20143615315833" lon="10.175176324993918"><ele>312.0</ele><time>2026-05-02T13:43:37Z</time></trkpt><trkpt lat="44.201338400696606" lon="10.175101097267454"><ele>312.0</ele><time>2026-05-02T13:43:38Z</time></trkpt><trkpt lat="44.201246558764694" lon="10.175018167966464"><ele>312.0</ele><time>2026-05-02T13:43:39Z</time></trkpt><trkpt lat="44.20114340907261" lon="10.17493467578885"><ele>310.25</ele><time>2026-05-02T13:43:40Z</time></trkpt><trkpt lat="44.201046021897284" lon="10.17484232047961"><ele>308.5</ele><time>2026-05-02T13:43:41Z</time></trkpt><trkpt lat="44.20095237173332" lon="10.17472871652503"><ele>306.75</ele><time>2026-05-02T13:43:42Z</time></trkpt><trkpt lat="44.20088234368917" lon="10.174616984332014"><ele>305.0</ele><time>2026-05-02T13:43:43Z</time></trkpt><trkpt lat="44.20083392284384" lon="10.174464292195323"><ele>305.0</ele><time>2026-05-02T13:43:44Z</time></trkpt><trkpt lat="44.20078953515983" lon="10.174302702979416"><ele>305.0</ele><time>2026-05-02T13:43:45Z</time></trkpt><trkpt lat="44.2007573079757" lon="10.174126243453118"><ele>305.0</ele><time>2026-05-02T13:43:46Z</time></trkpt><trkpt lat="44.20073735006696" lon="10.173955118426072"><ele>305.0</ele><time>2026-05-02T13:43:47Z</time></trkpt><trkpt lat="44.200717615913426" lon="10.173791940509945"><ele>304.5</ele><time>2026-05-02T13:43:48Z</time></trkpt><trkpt lat="44.20069939305497" lon="10.17362812800684"><ele>304.0</ele><time>2026-05-02T13:43:49Z</time></trkpt><trkpt lat="44.20068991971858" lon="10.173479397308384"><ele>303.5</ele><time>2026-05-02T13:43:50Z</time></trkpt><trkpt lat="44.200673739314894" lon="10.173309815683526"><ele>303.0</ele><time>2026-05-02T13:43:51Z</time></trkpt><trkpt lat="44.20065966659925" lon="10.17314301582572"><ele>302.25</ele><time>2026-05-02T13:43:52Z</time></trkpt><trkpt lat="44.20064535323475" lon="10.172969339619712"><ele>301.5</ele><time>2026-05-02T13:43:53Z</time></trkpt><trkpt lat="44.200631051109006" lon="10.172793945776506"><ele>300.75</ele><time>2026-05-02T13:43:54Z</time></trkpt><trkpt lat="44.20061856038629" lon="10.172641136840666"><ele>300.0</ele><time>2026-05-02T13:43:55Z</time></trkpt><trkpt lat="44.200595001387946" lon="10.172500784392838"><ele>300.0</ele><time>2026-05-02T13:43:56Z</time></trkpt><trkpt lat="44.20054868131441" lon="10.172364962026151"><ele>300.0</ele><time>2026-05-02T13:43:57Z</time></trkpt><trkpt lat="44.20047376037755" lon="10.172238289481331"><ele>300.0</ele><time>2026-05-02T13:43:58Z</time></trkpt><trkpt lat="44.20038875522557" lon="10.172100649452167"><ele>300.0</ele><time>2026-05-02T13:43:59Z</time></trkpt><trkpt lat="44.20030390060531" lon="10.171970510548453"><ele>301.75</ele><time>2026-05-02T13:44:00Z</time></trkpt><trkpt lat="44.20023013537701" lon="10.171830490064664"><ele>303.5</ele><time>2026-05-02T13:44:01Z</time></trkpt><trkpt lat="44.200152876339295" lon="10.171701484417438"><ele>305.25</ele><time>2026-05-02T13:44:02Z</time></trkpt><trkpt lat="44.200080852220474" lon="10.171575933340826"><ele>307.0</ele><time>2026-05-02T13:44:03Z</time></trkpt><trkpt lat="44.200004205586715" lon="10.171447555188047"><ele>309.75</ele><time>2026-05-02T13:44:04Z</time></trkpt><trkpt lat="44.1999404974634" lon="10.171329863260778"><ele>312.5</ele><time>2026-05-02T13:44:05Z</time></trkpt><trkpt lat="44.199859454532195" lon="10.171193994264964"><ele>315.25</ele><time>2026-05-02T13:44:06Z</time></trkpt><trkpt lat="44.19977580027209" lon="10.171071705838687"><ele>318.0</ele><time>2026-05-02T13:44:07Z</time></trkpt><trkpt lat="44.19968188724643" lon="10.170962099414552"><ele>315.0</ele><time>2026-05-02T13:44:08Z</time></trkpt><trkpt lat="44.199573909771566" lon="10.170854035337284"><ele>312.0</ele><time>2026-05-02T13:44:09Z</time></trkpt><trkpt lat="44.19947485155202" lon="10.170756145802239"><ele>309.0</ele><time>2026-05-02T13:44:10Z</time></trkpt><trkpt lat="44.19937944908359" lon="10.170667104265686"><ele>306.0</ele><time>2026-05-02T13:44:11Z</time></trkpt><trkpt lat="44.199280520834016" lon="10.170578311041286"><ele>306.0</ele><time>2026-05-02T13:44:12Z</time></trkpt><trkpt lat="44.19918709530959" lon="10.17049305025549"><ele>306.0</ele><time>2026-05-02T13:44:13Z</time></trkpt><trkpt lat="44.19910343685048" lon="10.17040486811599"><ele>306.0</ele><time>2026-05-02T13:44:14Z</time></trkpt><trkpt lat="44.199030197257684" lon="10.170299641084892"><ele>306.0</ele><time>2026-05-02T13:44:15Z</time></trkpt><trkpt lat="44.19897695844488" lon="10.170174609547507"><ele>306.0</ele><time>2026-05-02T13:44:16Z</time></trkpt><trkpt lat="44.19894872666528" lon="10.170023522730471"><ele>301.0</ele><time>2026-05-02T13:44:17Z</time></trkpt><trkpt lat="44.19894502561759" lon="10.169842940617553"><ele>296.0</ele><time>2026-05-02T13:44:18Z</time></trkpt><trkpt lat="44.19893637238672" lon="10.16967206575849"><ele>291.0</ele><time>2026-05-02T13:44:19Z</time></trkpt><trkpt lat="44.19893387954464" lon="10.169491112246957"><ele>286.0</ele><time>2026-05-02T13:44:20Z</time></trkpt><trkpt lat="44.19892284702349" lon="10.16930179289295"><ele>286.0</ele><time>2026-05-02T13:44:21Z</time></trkpt><trkpt lat="44.19890963312542" lon="10.169101685275498"><ele>286.0</ele><time>2026-05-02T13:44:22Z</time></trkpt><trkpt lat="44.198903006617414" lon="10.168916884688196"><ele>286.0</ele><time>2026-05-02T13:44:23Z</time></trkpt><trkpt lat="44.19889450474169" lon="10.168735295369682"><ele>286.0</ele><time>2026-05-02T13:44:24Z</time></trkpt><trkpt lat="44.198878989169465" lon="10.16855953351367"><ele>285.75</ele><time>2026-05-02T13:44:25Z</time></trkpt><trkpt lat="44.198857631813375" lon="10.168395575102497"><ele>285.5</ele><time>2026-05-02T13:44:26Z</time></trkpt><trkpt lat="44.198830528886766" lon="10.168235067261007"><ele>285.25</ele><time>2026-05-02T13:44:27Z</time></trkpt><trkpt lat="44.19879389039275" lon="10.168076344970013"><ele>285.0</ele><time>2026-05-02T13:44:28Z</time></trkpt><trkpt lat="44.198754857532016" lon="10.167917880778342"><ele>285.0</ele><time>2026-05-02T13:44:29Z</time></trkpt><trkpt lat="44.19871172785565" lon="10.167746903405936"><ele>285.0</ele><time>2026-05-02T13:44:30Z</time></trkpt><trkpt lat="44.19867481063238" lon="10.167576149942493"><ele>285.0</ele><time>2026-05-02T13:44:31Z</time></trkpt><trkpt lat="44.19864615171755" lon="10.167398607830224"><ele>285.0</ele><time>2026-05-02T13:44:32Z</time></trkpt><trkpt lat="44.19861831187995" lon="10.1672148460264"><ele>286.0</ele><time>2026-05-02T13:44:33Z</time></trkpt><trkpt lat="44.19858866705977" lon="10.167034766018354"><ele>287.0</ele><time>2026-05-02T13:44:34Z</time></trkpt><trkpt lat="44.19855894701629" lon="10.166860660543634"><ele>288.0</ele><time>2026-05-02T13:44:35Z</time></trkpt><trkpt lat="44.198515890268325" lon="10.166707412977422"><ele>289.0</ele><time>2026-05-02T13:44:36Z</time></trkpt><trkpt lat="44.19846042965595" lon="10.166565088483322"><ele>289.25</ele><time>2026-05-02T13:44:37Z</time></trkpt><trkpt lat="44.198402822674986" lon="10.166422342115665"><ele>289.5</ele><time>2026-05-02T13:44:38Z</time></trkpt><trkpt lat="44.1983704838207" lon="10.166276072569337"><ele>289.75</ele><time>2026-05-02T13:44:39Z</time></trkpt><trkpt lat="44.19836559432104" lon="10.166115797329667"><ele>290.0</ele><time>2026-05-02T13:44:40Z</time></trkpt><trkpt lat="44.19838281260573" lon="10.165946901750829"><ele>290.0</ele><time>2026-05-02T13:44:41Z</time></trkpt><trkpt lat="44.19842229770305" lon="10.165770600966983"><ele>290.0</ele><time>2026-05-02T13:44:42Z</time></trkpt><trkpt lat="44.19846498041957" lon="10.165602372598938"><ele>290.0</ele><time>2026-05-02T13:44:43Z</time></trkpt><trkpt lat="44.198484190904345" lon="10.165437795988636"><ele>290.0</ele><time>2026-05-02T13:44:44Z</time></trkpt><trkpt lat="44.19847848408012" lon="10.165268959208989"><ele>289.25</ele><time>2026-05-02T13:44:45Z</time></trkpt><trkpt lat="44.19845491042589" lon="10.165082862059503"><ele>288.5</ele><time>2026-05-02T13:44:46Z</time></trkpt><trkpt lat="44.198416939144515" lon="10.164890269875633"><ele>287.75</ele><time>2026-05-02T13:44:47Z</time></trkpt><trkpt lat="44.198375026625875" lon="10.16470085875102"><ele>287.0</ele><time>2026-05-02T13:44:48Z</time></trkpt><trkpt lat="44.1983452374705" lon="10.164519006864209"><ele>289.0</ele><time>2026-05-02T13:44:49Z</time></trkpt><trkpt lat="44.19832516236957" lon="10.16434800587162"><ele>291.0</ele><time>2026-05-02T13:44:50Z</time></trkpt><trkpt lat="44.198294911354466" lon="10.16417432809676"><ele>293.0</ele><time>2026-05-02T13:44:51Z</time></trkpt><trkpt lat="44.19824624782353" lon="10.164015758126721"><ele>295.0</ele><time>2026-05-02T13:44:52Z</time></trkpt><trkpt lat="44.198195518391735" lon="10.163858249138519"><ele>290.0</ele><time>2026-05-02T13:44:53Z</time></trkpt><trkpt lat="44.19815822465138" lon="10.16369214995174"><ele>285.0</ele><time>2026-05-02T13:44:54Z</time></trkpt><trkpt lat="44.1981427072751" lon="10.16351603316173"><ele>280.0</ele><time>2026-05-02T13:44:55Z</time></trkpt><trkpt lat="44.19813639891412" lon="10.163327917652484"><ele>275.0</ele><time>2026-05-02T13:44:56Z</time></trkpt><trkpt lat="44.19812769096823" lon="10.163145893724854"><ele>273.25</ele><time>2026-05-02T13:44:57Z</time></trkpt><trkpt lat="44.19812009495621" lon="10.162969845066016"><ele>271.5</ele><time>2026-05-02T13:44:58Z</time></trkpt><trkpt lat="44.19811203366604" lon="10.16279816185179"><ele>269.75</ele><time>2026-05-02T13:44:59Z</time></trkpt><trkpt lat="44.198090884282855" lon="10.162632758729508"><ele>268.0</ele><time>2026-05-02T13:45:00Z</time></trkpt><trkpt lat="44.19805372695007" lon="10.16245104625521"><ele>267.75</ele><time>2026-05-02T13:45:01Z</time></trkpt><trkpt lat="44.19798396310742" lon="10.16230071073429"><ele>267.5</ele><time>2026-05-02T13:45:02Z</time></trkpt><trkpt lat="44.197923868573106" lon="10.162129782663833"><ele>267.25</ele><time>2026-05-02T13:45:03Z</time></trkpt><trkpt lat="44.19789875616577" lon="10.161942428846459"><ele>267.0</ele><time>2026-05-02T13:45:04Z</time></trkpt><trkpt lat="44.197874348686646" lon="10.161761225699493"><ele>267.0</ele><time>2026-05-02T13:45:05Z</time></trkpt><trkpt lat="44.19786315051218" lon="10.161583986698762"><ele>267.0</ele><time>2026-05-02T13:45:06Z</time></trkpt><trkpt lat="44.197845431263175" lon="10.161404606934909"><ele>267.0</ele><time>2026-05-02T13:45:07Z</time></trkpt><trkpt lat="44.19784950247093" lon="10.161212134785364"><ele>267.0</ele><time>2026-05-02T13:45:08Z</time></trkpt><trkpt lat="44.197858303465736" lon="10.16101954865981"><ele>266.75</ele><time>2026-05-02T13:45:09Z</time></trkpt><trkpt lat="44.19785640910333" lon="10.160818443380657"><ele>266.5</ele><time>2026-05-02T13:45:10Z</time></trkpt><trkpt lat="44.19785741127907" lon="10.160628021438484"><ele>266.25</ele><time>2026-05-02T13:45:11Z</time></trkpt><trkpt lat="44.197858286556425" lon="10.16043603533252"><ele>266.0</ele><time>2026-05-02T13:45:12Z</time></trkpt><trkpt lat="44.19784163265004" lon="10.160246179285137"><ele>266.0</ele><time>2026-05-02T13:45:13Z</time></trkpt><trkpt lat="44.19783169934716" lon="10.16006057085274"><ele>266.0</ele><time>2026-05-02T13:45:14Z</time></trkpt><trkpt lat="44.197819071163195" lon="10.159882682725156"><ele>266.0</ele><time>2026-05-02T13:45:15Z</time></trkpt><trkpt lat="44.197807825792616" lon="10.159709197956241"><ele>266.0</ele><time>2026-05-02T13:45:16Z</time></trkpt><trkpt lat="44.19777708399345" lon="10.159556766713235"><ele>266.0</ele><time>2026-05-02T13:45:17Z</time></trkpt><trkpt lat="44.197725418838104" lon="10.159412800626868"><ele>266.0</ele><time>2026-05-02T13:45:18Z</time></trkpt><trkpt lat="44.1976558344159" lon="10.15927658936023"><ele>266.0</ele><time>2026-05-02T13:45:19Z</time></trkpt><trkpt lat="44.19757284151157" lon="10.159149724951734"><ele>266.0</ele><time>2026-05-02T13:45:20Z</time></trkpt><trkpt lat="44.197494798964904" lon="10.159025520760098"><ele>266.5</ele><time>2026-05-02T13:45:21Z</time></trkpt><trkpt lat="44.19742934674593" lon="10.158897153028992"><ele>267.0</ele><time>2026-05-02T13:45:22Z</time></trkpt><trkpt lat="44.19737844466582" lon="10.158756581485598"><ele>267.5</ele><time>2026-05-02T13:45:23Z</time></trkpt><trkpt lat="44.197353576006435" lon="10.158590163025286"><ele>268.0</ele><time>2026-05-02T13:45:24Z</time></trkpt><trkpt lat="44.19734445995643" lon="10.158410280715827"><ele>268.0</ele><time>2026-05-02T13:45:25Z</time></trkpt><trkpt lat="44.19734485750256" lon="10.158214639762228"><ele>268.0</ele><time>2026-05-02T13:45:26Z</time></trkpt><trkpt lat="44.197331816570916" lon="10.15802424011394"><ele>268.0</ele><time>2026-05-02T13:45:27Z</time></trkpt><trkpt lat="44.197305250273764" lon="10.157849597424002"><ele>268.0</ele><time>2026-05-02T13:45:28Z</time></trkpt><trkpt lat="44.19726309503829" lon="10.15768566740192"><ele>266.25</ele><time>2026-05-02T13:45:29Z</time></trkpt><trkpt lat="44.19720488284863" lon="10.157518763567815"><ele>264.5</ele><time>2026-05-02T13:45:30Z</time></trkpt><trkpt lat="44.19713484656658" lon="10.157356998382115"><ele>262.75</ele><time>2026-05-02T13:45:31Z</time></trkpt><trkpt lat="44.19705917050618" lon="10.157196080103773"><ele>261.0</ele><time>2026-05-02T13:45:32Z</time></trkpt><trkpt lat="44.19698378542234" lon="10.157035968639123"><ele>261.0</ele><time>2026-05-02T13:45:33Z</time></trkpt><trkpt lat="44.19691498406009" lon="10.156889653057263"><ele>261.0</ele><time>2026-05-02T13:45:34Z</time></trkpt><trkpt lat="44.196845401145545" lon="10.156746790198277"><ele>261.0</ele><time>2026-05-02T13:45:35Z</time></trkpt><trkpt lat="44.19677939858565" lon="10.156594917632445"><ele>261.0</ele><time>2026-05-02T13:45:36Z</time></trkpt><trkpt lat="44.19671692568955" lon="10.156439499993157"><ele>261.5</ele><time>2026-05-02T13:45:37Z</time></trkpt><trkpt lat="44.196665554531585" lon="10.156274754109672"><ele>262.0</ele><time>2026-05-02T13:45:38Z</time></trkpt><trkpt lat="44.19662129554764" lon="10.156107344497268"><ele>262.5</ele><time>2026-05-02T13:45:39Z</time></trkpt><trkpt lat="44.19658987522388" lon="10.155940298792027"><ele>263.0</ele><time>2026-05-02T13:45:40Z</time></trkpt><trkpt lat="44.196560439732636" lon="10.155783166772817"><ele>263.0</ele><time>2026-05-02T13:45:41Z</time></trkpt><trkpt lat="44.19652034409066" lon="10.155646220350025"><ele>263.0</ele><time>2026-05-02T13:45:42Z</time></trkpt><trkpt lat="44.19645368457396" lon="10.155529334076913"><ele>263.0</ele><time>2026-05-02T13:45:43Z</time></trkpt><trkpt lat="44.1963717937289" lon="10.155412670311248"><ele>263.0</ele><time>2026-05-02T13:45:44Z</time></trkpt><trkpt lat="44.19629376951374" lon="10.155338566672418"><ele>263.0</ele><time>2026-05-02T13:45:45Z</time></trkpt><trkpt lat="44.196185458154766" lon="10.155293606899143"><ele>263.0</ele><time>2026-05-02T13:45:46Z</time></trkpt><trkpt lat="44.196057862980254" lon="10.155266107451887"><ele>263.0</ele><time>2026-05-02T13:45:47Z</time></trkpt><trkpt lat="44.1959073036498" lon="10.15524927714059"><ele>263.0</ele><time>2026-05-02T13:45:48Z</time></trkpt><trkpt lat="44.195766262619216" lon="10.155241636449906"><ele>263.0</ele><time>2026-05-02T13:45:49Z</time></trkpt><trkpt lat="44.19562169903152" lon="10.155227704581371"><ele>263.75</ele><time>2026-05-02T13:45:50Z</time></trkpt><trkpt lat="44.195474356585535" lon="10.155217445120021"><ele>264.5</ele><time>2026-05-02T13:45:51Z</time></trkpt><trkpt lat="44.195336015315895" lon="10.155217833202814"><ele>265.25</ele><time>2026-05-02T13:45:52Z</time></trkpt><trkpt lat="44.19521050402547" lon="10.155212529712754"><ele>266.0</ele><time>2026-05-02T13:45:53Z</time></trkpt><trkpt lat="44.19510268770334" lon="10.155152484345889"><ele>266.0</ele><time>2026-05-02T13:45:54Z</time></trkpt><trkpt lat="44.19500090234214" lon="10.155088103191485"><ele>266.0</ele><time>2026-05-02T13:45:55Z</time></trkpt><trkpt lat="44.19489555408619" lon="10.155004957566325"><ele>266.0</ele><time>2026-05-02T13:45:56Z</time></trkpt><trkpt lat="44.19478828266159" lon="10.154922518603994"><ele>266.0</ele><time>2026-05-02T13:45:57Z</time></trkpt><trkpt lat="44.19466815627045" lon="10.154852843761914"><ele>265.5</ele><time>2026-05-02T13:45:58Z</time></trkpt><trkpt lat="44.19455403315453" lon="10.154782253687284"><ele>265.0</ele><time>2026-05-02T13:45:59Z</time></trkpt><trkpt lat="44.19442475156756" lon="10.154727769259038"><ele>264.5</ele><time>2026-05-02T13:46:00Z</time></trkpt><trkpt lat="44.194308129403474" lon="10.154682142844427"><ele>264.0</ele><time>2026-05-02T13:46:01Z</time></trkpt><trkpt lat="44.19419319715756" lon="10.154655315768162"><ele>264.0</ele><time>2026-05-02T13:46:02Z</time></trkpt><trkpt lat="44.194072241185275" lon="10.154640655621384"><ele>264.0</ele><time>2026-05-02T13:46:03Z</time></trkpt><trkpt lat="44.19395559927808" lon="10.154628984702681"><ele>264.0</ele><time>2026-05-02T13:46:04Z</time></trkpt><trkpt lat="44.19386388081709" lon="10.154575157405073"><ele>264.0</ele><time>2026-05-02T13:46:05Z</time></trkpt><trkpt lat="44.193778876042856" lon="10.154544245656085"><ele>264.0</ele><time>2026-05-02T13:46:06Z</time></trkpt><trkpt lat="44.193742469908386" lon="10.154451234302414"><ele>260.0</ele><time>2026-05-02T13:46:07Z</time></trkpt><trkpt lat="44.19372731050954" lon="10.154330526495999"><ele>255.99999999999997</ele><time>2026-05-02T13:46:08Z</time></trkpt><trkpt lat="44.193745463516265" lon="10.154189438662035"><ele>251.99999999999997</ele><time>2026-05-02T13:46:09Z</time></trkpt><trkpt lat="44.19379115422178" lon="10.154066618193962"><ele>248.0</ele><time>2026-05-02T13:46:10Z</time></trkpt><trkpt lat="44.193867343320115" lon="10.15391765214174"><ele>244.0</ele><time>2026-05-02T13:46:11Z</time></trkpt><trkpt lat="44.19394271360229" lon="10.153795195607465"><ele>243.6</ele><time>2026-05-02T13:46:12Z</time></trkpt><trkpt lat="44.193986611555395" lon="10.1536372298281"><ele>243.2</ele><time>2026-05-02T13:46:13Z</time></trkpt><trkpt lat="44.19405876671738" lon="10.153515765547073"><ele>242.79999999999998</ele><time>2026-05-02T13:46:14Z</time></trkpt><trkpt lat="44.19405991107848" lon="10.153372028415703"><ele>242.39999999999998</ele><time>2026-05-02T13:46:15Z</time></trkpt><trkpt lat="44.19407871172516" lon="10.15323042851247"><ele>242.0</ele><time>2026-05-02T13:46:16Z</time></trkpt><trkpt lat="44.19401963798859" lon="10.152951942568334"><ele>242.0</ele><time>2026-05-02T13:46:17Z</time></trkpt><trkpt lat="44.19400472189395" lon="10.15280440165114"><ele>242.0</ele><time>2026-05-02T13:46:18Z</time></trkpt><trkpt lat="44.19397548265837" lon="10.152662901833907"><ele>242.0</ele><time>2026-05-02T13:46:19Z</time></trkpt><trkpt lat="44.19393890270334" lon="10.152525249985523"><ele>242.0</ele><time>2026-05-02T13:46:20Z</time></trkpt><trkpt lat="44.193900038306786" lon="10.152379554578522"><ele>242.0</ele><time>2026-05-02T13:46:21Z</time></trkpt><trkpt lat="44.19385691411715" lon="10.1522387598368"><ele>242.2</ele><time>2026-05-02T13:46:22Z</time></trkpt><trkpt lat="44.19381570176718" lon="10.152101147472303"><ele>242.39999999999998</ele><time>2026-05-02T13:46:23Z</time></trkpt><trkpt lat="44.19378013670942" lon="10.151961399595162"><ele>242.60000000000002</ele><time>2026-05-02T13:46:24Z</time></trkpt><trkpt lat="44.19373862002156" lon="10.151818751327758"><ele>242.8</ele><time>2026-05-02T13:46:25Z</time></trkpt><trkpt lat="44.19369780430123" lon="10.15168886762449"><ele>243.0</ele><time>2026-05-02T13:46:26Z</time></trkpt><trkpt lat="44.19366086228546" lon="10.151564829431573"><ele>243.8</ele><time>2026-05-02T13:46:27Z</time></trkpt><trkpt lat="44.19362170149716" lon="10.15143878325599"><ele>244.60000000000002</ele><time>2026-05-02T13:46:28Z</time></trkpt><trkpt lat="44.19358300356067" lon="10.151314362282893"><ele>245.39999999999998</ele><time>2026-05-02T13:46:29Z</time></trkpt><trkpt lat="44.19354180306848" lon="10.151191698313824"><ele>246.2</ele><time>2026-05-02T13:46:30Z</time></trkpt><trkpt lat="44.1934974639464" lon="10.15108403213808"><ele>247.0</ele><time>2026-05-02T13:46:31Z</time></trkpt><trkpt lat="44.19343947264318" lon="10.150984015715844"><ele>247.0</ele><time>2026-05-02T13:46:32Z</time></trkpt><trkpt lat="44.193363621821725" lon="10.150886891502147"><ele>247.0</ele><time>2026-05-02T13:46:33Z</time></trkpt><trkpt lat="44.19327847547744" lon="10.150787616577103"><ele>247.0</ele><time>2026-05-02T13:46:34Z</time></trkpt><trkpt lat="44.193194010157484" lon="10.150677435470758"><ele>247.0</ele><time>2026-05-02T13:46:35Z</time></trkpt><trkpt lat="44.19311629127853" lon="10.150567919400997"><ele>247.0</ele><time>2026-05-02T13:46:36Z</time></trkpt><trkpt lat="44.193046363398" lon="10.150471542842126"><ele>247.0</ele><time>2026-05-02T13:46:37Z</time></trkpt><trkpt lat="44.192978173640945" lon="10.15038573573202"><ele>247.0</ele><time>2026-05-02T13:46:38Z</time></trkpt><trkpt lat="44.19291397558106" lon="10.150249666673428"><ele>247.0</ele><time>2026-05-02T13:46:40Z</time></trkpt><trkpt lat="44.192829243453964" lon="10.150016139036616"><ele>247.0</ele><time>2026-05-02T13:46:41Z</time></trkpt><trkpt lat="44.192778754872016" lon="10.14987018653807"><ele>247.0</ele><time>2026-05-02T13:46:42Z</time></trkpt><trkpt lat="44.192732950955005" lon="10.149721080290034"><ele>247.0</ele><time>2026-05-02T13:46:43Z</time></trkpt><trkpt lat="44.19264661094422" lon="10.149593016311472"><ele>247.0</ele><time>2026-05-02T13:46:44Z</time></trkpt><trkpt lat="44.19257846871508" lon="10.149456380352692"><ele>247.0</ele><time>2026-05-02T13:46:45Z</time></trkpt><trkpt lat="44.19252144800761" lon="10.149332065327371"><ele>247.0</ele><time>2026-05-02T13:46:46Z</time></trkpt><trkpt lat="44.192491232507656" lon="10.149199032832858"><ele>247.0</ele><time>2026-05-02T13:46:47Z</time></trkpt><trkpt lat="44.19246765614544" lon="10.149075480567685"><ele>247.0</ele><time>2026-05-02T13:46:48Z</time></trkpt><trkpt lat="44.192459290835984" lon="10.148946334353797"><ele>247.0</ele><time>2026-05-02T13:46:49Z</time></trkpt><trkpt lat="44.19245577453251" lon="10.14878758907335"><ele>247.0</ele><time>2026-05-02T13:46:50Z</time></trkpt><trkpt lat="44.192453072679115" lon="10.148609435387085"><ele>249.0</ele><time>2026-05-02T13:46:51Z</time></trkpt><trkpt lat="44.19243815975008" lon="10.148443319908075"><ele>251.0</ele><time>2026-05-02T13:46:52Z</time></trkpt><trkpt lat="44.19242636919419" lon="10.148287113423251"><ele>253.0</ele><time>2026-05-02T13:46:53Z</time></trkpt><trkpt lat="44.19240371421037" lon="10.148118687949088"><ele>255.0</ele><time>2026-05-02T13:46:54Z</time></trkpt><trkpt lat="44.192358196504436" lon="10.147961079946324"><ele>250.75</ele><time>2026-05-02T13:46:55Z</time></trkpt><trkpt lat="44.192299326426244" lon="10.147799082843683"><ele>246.5</ele><time>2026-05-02T13:46:56Z</time></trkpt><trkpt lat="44.192240557971054" lon="10.147627953737405"><ele>242.25</ele><time>2026-05-02T13:46:57Z</time></trkpt><trkpt lat="44.19219651811518" lon="10.147446028218681"><ele>238.0</ele><time>2026-05-02T13:46:58Z</time></trkpt><trkpt lat="44.19214791202988" lon="10.147286816123431"><ele>238.0</ele><time>2026-05-02T13:46:59Z</time></trkpt><trkpt lat="44.192105958706044" lon="10.147136125765327"><ele>238.0</ele><time>2026-05-02T13:47:00Z</time></trkpt><trkpt lat="44.192055721271615" lon="10.14699042982253"><ele>238.0</ele><time>2026-05-02T13:47:01Z</time></trkpt><trkpt lat="44.19197701625416" lon="10.146877983361529"><ele>238.0</ele><time>2026-05-02T13:47:02Z</time></trkpt><trkpt lat="44.19190597293664" lon="10.146765342210152"><ele>238.0</ele><time>2026-05-02T13:47:03Z</time></trkpt><trkpt lat="44.19179824084968" lon="10.14667651365504"><ele>238.0</ele><time>2026-05-02T13:47:04Z</time></trkpt><trkpt lat="44.19167986118094" lon="10.146638640961777"><ele>238.0</ele><time>2026-05-02T13:47:05Z</time></trkpt><trkpt lat="44.19157615050396" lon="10.146587036537756"><ele>238.0</ele><time>2026-05-02T13:47:06Z</time></trkpt><trkpt lat="44.19147396261198" lon="10.146538260845693"><ele>236.60000000000002</ele><time>2026-05-02T13:47:07Z</time></trkpt><trkpt lat="44.19140319777832" lon="10.146443375914751"><ele>235.20000000000002</ele><time>2026-05-02T13:47:08Z</time></trkpt><trkpt lat="44.191352700305394" lon="10.146334753915983"><ele>233.8</ele><time>2026-05-02T13:47:09Z</time></trkpt><trkpt lat="44.19130767116461" lon="10.14619223002073"><ele>232.4</ele><time>2026-05-02T13:47:10Z</time></trkpt><trkpt lat="44.191246160319196" lon="10.146019408963921"><ele>231.0</ele><time>2026-05-02T13:47:11Z</time></trkpt><trkpt lat="44.19118633945801" lon="10.145842793788251"><ele>232.25</ele><time>2026-05-02T13:47:12Z</time></trkpt><trkpt lat="44.191114756491096" lon="10.145693534428165"><ele>233.5</ele><time>2026-05-02T13:47:13Z</time></trkpt><trkpt lat="44.19105602262761" lon="10.145545306541914"><ele>234.75</ele><time>2026-05-02T13:47:14Z</time></trkpt><trkpt lat="44.191011007235076" lon="10.145386616110732"><ele>236.0</ele><time>2026-05-02T13:47:15Z</time></trkpt><trkpt lat="44.19096605803491" lon="10.145217238053513"><ele>236.0</ele><time>2026-05-02T13:47:16Z</time></trkpt><trkpt lat="44.190923269937" lon="10.145069635322477"><ele>236.0</ele><time>2026-05-02T13:47:17Z</time></trkpt><trkpt lat="44.190883602742765" lon="10.144921417131258"><ele>236.0</ele><time>2026-05-02T13:47:18Z</time></trkpt><trkpt lat="44.19085127713414" lon="10.144763549383656"><ele>236.0</ele><time>2026-05-02T13:47:19Z</time></trkpt><trkpt lat="44.19082053831433" lon="10.144609746978123"><ele>234.0</ele><time>2026-05-02T13:47:20Z</time></trkpt><trkpt lat="44.19077929868387" lon="10.144478304892958"><ele>232.0</ele><time>2026-05-02T13:47:21Z</time></trkpt><trkpt lat="44.19071871376181" lon="10.14435974840516"><ele>230.0</ele><time>2026-05-02T13:47:22Z</time></trkpt><trkpt lat="44.19062650418484" lon="10.144254203677749"><ele>228.0</ele><time>2026-05-02T13:47:23Z</time></trkpt><trkpt lat="44.190512810642964" lon="10.144151828166466"><ele>228.75</ele><time>2026-05-02T13:47:24Z</time></trkpt><trkpt lat="44.19040127596338" lon="10.14403725846267"><ele>229.5</ele><time>2026-05-02T13:47:25Z</time></trkpt><trkpt lat="44.190310583139684" lon="10.143914180972805"><ele>230.25</ele><time>2026-05-02T13:47:26Z</time></trkpt><trkpt lat="44.190222430881526" lon="10.143826503779945"><ele>231.0</ele><time>2026-05-02T13:47:27Z</time></trkpt><trkpt lat="44.19015938125825" lon="10.143706992767758"><ele>231.0</ele><time>2026-05-02T13:47:28Z</time></trkpt><trkpt lat="44.190115040275586" lon="10.143560027522492"><ele>231.0</ele><time>2026-05-02T13:47:29Z</time></trkpt><trkpt lat="44.19008383887612" lon="10.14341125888919"><ele>231.0</ele><time>2026-05-02T13:47:30Z</time></trkpt><trkpt lat="44.19004745452692" lon="10.14324678526367"><ele>231.0</ele><time>2026-05-02T13:47:31Z</time></trkpt><trkpt lat="44.19001728997512" lon="10.143094519800623"><ele>231.5</ele><time>2026-05-02T13:47:32Z</time></trkpt><trkpt lat="44.189998684746534" lon="10.142929640049273"><ele>232.0</ele><time>2026-05-02T13:47:33Z</time></trkpt><trkpt lat="44.19002515726728" lon="10.142759775580345"><ele>232.5</ele><time>2026-05-02T13:47:34Z</time></trkpt><trkpt lat="44.19002265325721" lon="10.142594235299772"><ele>233.0</ele><time>2026-05-02T13:47:35Z</time></trkpt><trkpt lat="44.190034334615106" lon="10.142430647752622"><ele>233.8</ele><time>2026-05-02T13:47:36Z</time></trkpt><trkpt lat="44.19003974705454" lon="10.142283022234716"><ele>234.60000000000002</ele><time>2026-05-02T13:47:37Z</time></trkpt><trkpt lat="44.1900308486757" lon="10.142142873016793"><ele>235.39999999999998</ele><time>2026-05-02T13:47:38Z</time></trkpt><trkpt lat="44.19000346056978" lon="10.142005395538389"><ele>236.2</ele><time>2026-05-02T13:47:39Z</time></trkpt><trkpt lat="44.189965668586545" lon="10.141887318448681"><ele>237.0</ele><time>2026-05-02T13:47:40Z</time></trkpt><trkpt lat="44.189902551587096" lon="10.141762596785233"><ele>237.0</ele><time>2026-05-02T13:47:41Z</time></trkpt><trkpt lat="44.18984811782403" lon="10.141635600208762"><ele>237.0</ele><time>2026-05-02T13:47:42Z</time></trkpt><trkpt lat="44.189792451817375" lon="10.141502399494195"><ele>237.0</ele><time>2026-05-02T13:47:43Z</time></trkpt><trkpt lat="44.18976286385164" lon="10.141376134622586"><ele>237.0</ele><time>2026-05-02T13:47:44Z</time></trkpt><trkpt lat="44.18972581788582" lon="10.141241596549857"><ele>237.0</ele><time>2026-05-02T13:47:45Z</time></trkpt><trkpt lat="44.18970933253393" lon="10.141088334009007"><ele>234.2</ele><time>2026-05-02T13:47:46Z</time></trkpt><trkpt lat="44.189693124541606" lon="10.140923934248292"><ele>231.39999999999998</ele><time>2026-05-02T13:47:47Z</time></trkpt><trkpt lat="44.189672968405965" lon="10.140766638119104"><ele>228.60000000000002</ele><time>2026-05-02T13:47:48Z</time></trkpt><trkpt lat="44.189652434463866" lon="10.140619122080015"><ele>225.8</ele><time>2026-05-02T13:47:49Z</time></trkpt><trkpt lat="44.18963544052553" lon="10.140484777670622"><ele>223.0</ele><time>2026-05-02T13:47:50Z</time></trkpt><trkpt lat="44.18961809496156" lon="10.140349766755847"><ele>223.0</ele><time>2026-05-02T13:47:51Z</time></trkpt><trkpt lat="44.189597446987264" lon="10.140219003722223"><ele>223.0</ele><time>2026-05-02T13:47:52Z</time></trkpt><trkpt lat="44.18955232777696" lon="10.140109697515378"><ele>223.0</ele><time>2026-05-02T13:47:53Z</time></trkpt><trkpt lat="44.18949047655768" lon="10.140002936885788"><ele>223.0</ele><time>2026-05-02T13:47:54Z</time></trkpt><trkpt lat="44.1894120847136" lon="10.139902187174464"><ele>223.0</ele><time>2026-05-02T13:47:55Z</time></trkpt><trkpt lat="44.189328248804976" lon="10.139805407998532"><ele>224.2</ele><time>2026-05-02T13:47:56Z</time></trkpt><trkpt lat="44.189247366715506" lon="10.139694143808473"><ele>225.4</ele><time>2026-05-02T13:47:57Z</time></trkpt><trkpt lat="44.189169265550454" lon="10.139582163251914"><ele>226.59999999999997</ele><time>2026-05-02T13:47:58Z</time></trkpt><trkpt lat="44.189098416480896" lon="10.139475650230686"><ele>227.79999999999998</ele><time>2026-05-02T13:47:59Z</time></trkpt><trkpt lat="44.18903475981335" lon="10.139367447850137"><ele>229.0</ele><time>2026-05-02T13:48:00Z</time></trkpt><trkpt lat="44.18898524325919" lon="10.1392382814549"><ele>226.79999999999998</ele><time>2026-05-02T13:48:01Z</time></trkpt><trkpt lat="44.188923398472504" lon="10.13912099694407"><ele>224.59999999999997</ele><time>2026-05-02T13:48:02Z</time></trkpt><trkpt lat="44.188896618279756" lon="10.13898233372276"><ele>222.4</ele><time>2026-05-02T13:48:03Z</time></trkpt><trkpt lat="44.18888307265931" lon="10.13884451657669"><ele>220.2</ele><time>2026-05-02T13:48:04Z</time></trkpt><trkpt lat="44.188873916172184" lon="10.13871076865166"><ele>218.0</ele><time>2026-05-02T13:48:05Z</time></trkpt><trkpt lat="44.188872461579486" lon="10.138581963126622"><ele>218.0</ele><time>2026-05-02T13:48:06Z</time></trkpt><trkpt lat="44.18889496581373" lon="10.138429772261036"><ele>218.0</ele><time>2026-05-02T13:48:07Z</time></trkpt><trkpt lat="44.188900490353866" lon="10.138298991807886"><ele>218.0</ele><time>2026-05-02T13:48:08Z</time></trkpt><trkpt lat="44.18892337487563" lon="10.138165895524663"><ele>218.0</ele><time>2026-05-02T13:48:09Z</time></trkpt><trkpt lat="44.1889473791782" lon="10.13802243266092"><ele>218.0</ele><time>2026-05-02T13:48:10Z</time></trkpt><trkpt lat="44.18898940016353" lon="10.137888233418733"><ele>218.8</ele><time>2026-05-02T13:48:11Z</time></trkpt><trkpt lat="44.189022838070834" lon="10.137755562057343"><ele>219.60000000000002</ele><time>2026-05-02T13:48:12Z</time></trkpt><trkpt lat="44.18906522286257" lon="10.137622023760315"><ele>220.39999999999998</ele><time>2026-05-02T13:48:13Z</time></trkpt><trkpt lat="44.18911072250287" lon="10.137482560959244"><ele>221.2</ele><time>2026-05-02T13:48:14Z</time></trkpt><trkpt lat="44.189146042926474" lon="10.137329004362414"><ele>222.0</ele><time>2026-05-02T13:48:15Z</time></trkpt><trkpt lat="44.18919284911043" lon="10.13719955440512"><ele>222.0</ele><time>2026-05-02T13:48:16Z</time></trkpt><trkpt lat="44.18921706941391" lon="10.137074171617895"><ele>222.0</ele><time>2026-05-02T13:48:17Z</time></trkpt><trkpt lat="44.18922558147738" lon="10.136940956294877"><ele>222.0</ele><time>2026-05-02T13:48:18Z</time></trkpt><trkpt lat="44.18921298944786" lon="10.136806771905368"><ele>222.0</ele><time>2026-05-02T13:48:19Z</time></trkpt><trkpt lat="44.18921006198177" lon="10.136655515619207"><ele>222.0</ele><time>2026-05-02T13:48:20Z</time></trkpt><trkpt lat="44.189200185301594" lon="10.136500750249173"><ele>221.2</ele><time>2026-05-02T13:48:21Z</time></trkpt><trkpt lat="44.1891805287287" lon="10.136354734272304"><ele>220.39999999999998</ele><time>2026-05-02T13:48:22Z</time></trkpt><trkpt lat="44.189207567405504" lon="10.13621750961273"><ele>219.60000000000002</ele><time>2026-05-02T13:48:23Z</time></trkpt><trkpt lat="44.18925582669406" lon="10.136083312779915"><ele>218.8</ele><time>2026-05-02T13:48:24Z</time></trkpt><trkpt lat="44.18931192175954" lon="10.135939267482554"><ele>218.0</ele><time>2026-05-02T13:48:25Z</time></trkpt><trkpt lat="44.18936506503475" lon="10.13578365984141"><ele>216.60000000000002</ele><time>2026-05-02T13:48:26Z</time></trkpt><trkpt lat="44.18940850705192" lon="10.13562079736988"><ele>215.20000000000002</ele><time>2026-05-02T13:48:27Z</time></trkpt><trkpt lat="44.18946423354053" lon="10.135503644223245"><ele>213.8</ele><time>2026-05-02T13:48:28Z</time></trkpt><trkpt lat="44.189460913705815" lon="10.135336581648488"><ele>212.4</ele><time>2026-05-02T13:48:29Z</time></trkpt><trkpt lat="44.18946755843798" lon="10.13519201476824"><ele>211.0</ele><time>2026-05-02T13:48:30Z</time></trkpt><trkpt lat="44.189492854880605" lon="10.135031994537288"><ele>211.0</ele><time>2026-05-02T13:48:31Z</time></trkpt><trkpt lat="44.18951630408091" lon="10.134892010295053"><ele>211.0</ele><time>2026-05-02T13:48:32Z</time></trkpt><trkpt lat="44.18955594719683" lon="10.134776287049409"><ele>211.0</ele><time>2026-05-02T13:48:33Z</time></trkpt><trkpt lat="44.18961715092461" lon="10.13465841710608"><ele>211.0</ele><time>2026-05-02T13:48:34Z</time></trkpt><trkpt lat="44.189692861991766" lon="10.134536226064638"><ele>211.0</ele><time>2026-05-02T13:48:35Z</time></trkpt><trkpt lat="44.18977363515948" lon="10.134394935153901"><ele>210.25</ele><time>2026-05-02T13:48:36Z</time></trkpt><trkpt lat="44.189858563977936" lon="10.134270279730925"><ele>209.5</ele><time>2026-05-02T13:48:37Z</time></trkpt><trkpt lat="44.18994089717199" lon="10.134152624207957"><ele>208.75</ele><time>2026-05-02T13:48:38Z</time></trkpt><trkpt lat="44.190024654812845" lon="10.134037268951618"><ele>208.0</ele><time>2026-05-02T13:48:39Z</time></trkpt><trkpt lat="44.190116777184535" lon="10.133955494690781"><ele>208.0</ele><time>2026-05-02T13:48:40Z</time></trkpt><trkpt lat="44.19019723041162" lon="10.133849604093486"><ele>208.0</ele><time>2026-05-02T13:48:41Z</time></trkpt><trkpt lat="44.19029582226522" lon="10.133798940561396"><ele>208.0</ele><time>2026-05-02T13:48:42Z</time></trkpt><trkpt lat="44.19040325810421" lon="10.133753650641378"><ele>208.0</ele><time>2026-05-02T13:48:43Z</time></trkpt><trkpt lat="44.19051510496359" lon="10.133727469052317"><ele>208.0</ele><time>2026-05-02T13:48:44Z</time></trkpt><trkpt lat="44.19062957020734" lon="10.133710992401253"><ele>209.4</ele><time>2026-05-02T13:48:45Z</time></trkpt><trkpt lat="44.19074677318278" lon="10.133684301823363"><ele>210.8</ele><time>2026-05-02T13:48:46Z</time></trkpt><trkpt lat="44.190855686593196" lon="10.133671486403648"><ele>212.2</ele><time>2026-05-02T13:48:47Z</time></trkpt><trkpt lat="44.190958971618166" lon="10.13365231104248"><ele>213.6</ele><time>2026-05-02T13:48:48Z</time></trkpt><trkpt lat="44.19105879928146" lon="10.133601525968063"><ele>215.0</ele><time>2026-05-02T13:48:49Z</time></trkpt><trkpt lat="44.19115447360539" lon="10.133524390505182"><ele>215.0</ele><time>2026-05-02T13:48:50Z</time></trkpt><trkpt lat="44.19124451935142" lon="10.13342195064461"><ele>215.0</ele><time>2026-05-02T13:48:51Z</time></trkpt><trkpt lat="44.19132924042039" lon="10.133297900896903"><ele>215.0</ele><time>2026-05-02T13:48:52Z</time></trkpt><trkpt lat="44.19141605777246" lon="10.133168935484525"><ele>215.0</ele><time>2026-05-02T13:48:53Z</time></trkpt><trkpt lat="44.191496978672205" lon="10.133051475864816"><ele>214.75</ele><time>2026-05-02T13:48:54Z</time></trkpt><trkpt lat="44.19156756548029" lon="10.132928406861044"><ele>214.5</ele><time>2026-05-02T13:48:55Z</time></trkpt><trkpt lat="44.19162784586138" lon="10.13278016352948"><ele>214.25</ele><time>2026-05-02T13:48:56Z</time></trkpt><trkpt lat="44.191683743836066" lon="10.132612285668781"><ele>214.0</ele><time>2026-05-02T13:48:57Z</time></trkpt><trkpt lat="44.191743999182854" lon="10.132445882618985"><ele>210.75</ele><time>2026-05-02T13:48:58Z</time></trkpt><trkpt lat="44.19182509089178" lon="10.13232504318825"><ele>207.5</ele><time>2026-05-02T13:48:59Z</time></trkpt><trkpt lat="44.19190823637878" lon="10.132211761788493"><ele>204.25</ele><time>2026-05-02T13:49:00Z</time></trkpt><trkpt lat="44.192003175368434" lon="10.13208598258611"><ele>201.0</ele><time>2026-05-02T13:49:01Z</time></trkpt><trkpt lat="44.192081819620526" lon="10.131942709593325"><ele>201.0</ele><time>2026-05-02T13:49:02Z</time></trkpt><trkpt lat="44.192160992457204" lon="10.13181971479956"><ele>201.0</ele><time>2026-05-02T13:49:03Z</time></trkpt><trkpt lat="44.192224357674775" lon="10.131674560992344"><ele>201.0</ele><time>2026-05-02T13:49:04Z</time></trkpt><trkpt lat="44.1923033343472" lon="10.131545487976428"><ele>201.0</ele><time>2026-05-02T13:49:05Z</time></trkpt><trkpt lat="44.192357768563085" lon="10.131384842067414"><ele>202.25</ele><time>2026-05-02T13:49:06Z</time></trkpt><trkpt lat="44.19242536455319" lon="10.131233630883903"><ele>203.5</ele><time>2026-05-02T13:49:07Z</time></trkpt><trkpt lat="44.19249298543218" lon="10.131088885808147"><ele>204.75</ele><time>2026-05-02T13:49:08Z</time></trkpt><trkpt lat="44.192553681806935" lon="10.130958627315502"><ele>206.0</ele><time>2026-05-02T13:49:09Z</time></trkpt><trkpt lat="44.19261584863369" lon="10.130827309534464"><ele>203.75</ele><time>2026-05-02T13:49:10Z</time></trkpt><trkpt lat="44.19269596635728" lon="10.13069444169319"><ele>201.5</ele><time>2026-05-02T13:49:11Z</time></trkpt><trkpt lat="44.19278360008689" lon="10.130572825717115"><ele>199.25</ele><time>2026-05-02T13:49:12Z</time></trkpt><trkpt lat="44.19287482888045" lon="10.130453108251833"><ele>197.0</ele><time>2026-05-02T13:49:13Z</time></trkpt><trkpt lat="44.19296969741939" lon="10.130336910937425"><ele>197.0</ele><time>2026-05-02T13:49:14Z</time></trkpt><trkpt lat="44.193059973091756" lon="10.130226245397024"><ele>197.0</ele><time>2026-05-02T13:49:15Z</time></trkpt><trkpt lat="44.19315529767627" lon="10.130131008029782"><ele>197.0</ele><time>2026-05-02T13:49:16Z</time></trkpt><trkpt lat="44.19325375377413" lon="10.130043361280338"><ele>197.0</ele><time>2026-05-02T13:49:17Z</time></trkpt><trkpt lat="44.19335611352311" lon="10.129948763863231"><ele>196.6</ele><time>2026-05-02T13:49:18Z</time></trkpt><trkpt lat="44.19345501427775" lon="10.129859010435393"><ele>196.2</ele><time>2026-05-02T13:49:19Z</time></trkpt><trkpt lat="44.19354874478582" lon="10.12978520059643"><ele>195.8</ele><time>2026-05-02T13:49:20Z</time></trkpt><trkpt lat="44.193641440799894" lon="10.129726955174831"><ele>195.4</ele><time>2026-05-02T13:49:21Z</time></trkpt><trkpt lat="44.193733996171076" lon="10.129707401483707"><ele>195.0</ele><time>2026-05-02T13:49:22Z</time></trkpt><trkpt lat="44.19382406492152" lon="10.12972931135398"><ele>195.0</ele><time>2026-05-02T13:49:23Z</time></trkpt><trkpt lat="44.193914907911065" lon="10.129787167013728"><ele>195.0</ele><time>2026-05-02T13:49:24Z</time></trkpt><trkpt lat="44.19400383354011" lon="10.129862422894282"><ele>195.0</ele><time>2026-05-02T13:49:25Z</time></trkpt><trkpt lat="44.19409229456726" lon="10.129943502779078"><ele>195.0</ele><time>2026-05-02T13:49:26Z</time></trkpt><trkpt lat="44.19417658909935" lon="10.13001510558392"><ele>195.0</ele><time>2026-05-02T13:49:27Z</time></trkpt><trkpt lat="44.19425746232183" lon="10.130067537875146"><ele>195.0</ele><time>2026-05-02T13:49:28Z</time></trkpt><trkpt lat="44.19433955700948" lon="10.130098733279185"><ele>195.0</ele><time>2026-05-02T13:49:29Z</time></trkpt><trkpt lat="44.1944362568515" lon="10.130066498422458"><ele>195.0</ele><time>2026-05-02T13:49:30Z</time></trkpt><trkpt lat="44.194524731367494" lon="10.129959763116016"><ele>195.0</ele><time>2026-05-02T13:49:31Z</time></trkpt><trkpt lat="44.194632573227096" lon="10.129889264913821"><ele>195.0</ele><time>2026-05-02T13:49:32Z</time></trkpt><trkpt lat="44.19473171348701" lon="10.129799597420305"><ele>195.0</ele><time>2026-05-02T13:49:33Z</time></trkpt><trkpt lat="44.19481155151662" lon="10.129681355048904"><ele>195.0</ele><time>2026-05-02T13:49:34Z</time></trkpt><trkpt lat="44.19488722494724" lon="10.129558847269898"><ele>195.0</ele><time>2026-05-02T13:49:35Z</time></trkpt><trkpt lat="44.19494641177568" lon="10.129437346968249"><ele>195.0</ele><time>2026-05-02T13:49:36Z</time></trkpt><trkpt lat="44.19494943203422" lon="10.129273897249409"><ele>197.5</ele><time>2026-05-02T13:49:37Z</time></trkpt><trkpt lat="44.19495161008918" lon="10.129128814946041"><ele>200.0</ele><time>2026-05-02T13:49:38Z</time></trkpt><trkpt lat="44.194952073268944" lon="10.128987884803418"><ele>202.5</ele><time>2026-05-02T13:49:39Z</time></trkpt><trkpt lat="44.194955682214065" lon="10.128800271641103"><ele>205.0</ele><time>2026-05-02T13:49:40Z</time></trkpt><trkpt lat="44.19494533733693" lon="10.128616655919206"><ele>205.0</ele><time>2026-05-02T13:49:41Z</time></trkpt><trkpt lat="44.1949810022977" lon="10.12846407499755"><ele>205.0</ele><time>2026-05-02T13:49:42Z</time></trkpt><trkpt lat="44.194989782173025" lon="10.128295738492795"><ele>205.0</ele><time>2026-05-02T13:49:43Z</time></trkpt><trkpt lat="44.19501601917186" lon="10.128131781801645"><ele>205.0</ele><time>2026-05-02T13:49:44Z</time></trkpt><trkpt lat="44.195040521442024" lon="10.127971116979422"><ele>203.6</ele><time>2026-05-02T13:49:45Z</time></trkpt><trkpt lat="44.19505279222489" lon="10.127811168168497"><ele>202.2</ele><time>2026-05-02T13:49:46Z</time></trkpt><trkpt lat="44.19506790289129" lon="10.127652276531698"><ele>200.8</ele><time>2026-05-02T13:49:47Z</time></trkpt><trkpt lat="44.19503241791382" lon="10.127501757194201"><ele>199.4</ele><time>2026-05-02T13:49:48Z</time></trkpt><trkpt lat="44.19501348798958" lon="10.127362384296525"><ele>198.0</ele><time>2026-05-02T13:49:49Z</time></trkpt><trkpt lat="44.19501278648423" lon="10.127224477976759"><ele>197.0</ele><time>2026-05-02T13:49:50Z</time></trkpt><trkpt lat="44.195031144173015" lon="10.127089942486451"><ele>196.0</ele><time>2026-05-02T13:49:51Z</time></trkpt><trkpt lat="44.195075967548114" lon="10.126968791822794"><ele>195.0</ele><time>2026-05-02T13:49:52Z</time></trkpt><trkpt lat="44.19514578207013" lon="10.126845756732752"><ele>194.0</ele><time>2026-05-02T13:49:53Z</time></trkpt><trkpt lat="44.195230929308586" lon="10.126731585623705"><ele>193.0</ele><time>2026-05-02T13:49:54Z</time></trkpt><trkpt lat="44.19533649340037" lon="10.12660220520757"><ele>192.0</ele><time>2026-05-02T13:49:55Z</time></trkpt><trkpt lat="44.19544182346744" lon="10.126492571606976"><ele>191.0</ele><time>2026-05-02T13:49:56Z</time></trkpt><trkpt lat="44.19552779591698" lon="10.12635371841847"><ele>190.0</ele><time>2026-05-02T13:49:57Z</time></trkpt><trkpt lat="44.19560722819207" lon="10.126224116430542"><ele>189.0</ele><time>2026-05-02T13:49:58Z</time></trkpt><trkpt lat="44.19568402524472" lon="10.126092054586618"><ele>188.5</ele><time>2026-05-02T13:49:59Z</time></trkpt><trkpt lat="44.1957751166711" lon="10.12597583667048"><ele>188.0</ele><time>2026-05-02T13:50:00Z</time></trkpt><trkpt lat="44.19585457469557" lon="10.125843648667225"><ele>187.5</ele><time>2026-05-02T13:50:01Z</time></trkpt><trkpt lat="44.19593361060464" lon="10.125709628227408"><ele>187.0</ele><time>2026-05-02T13:50:02Z</time></trkpt><trkpt lat="44.196010825283714" lon="10.12557120658262"><ele>187.0</ele><time>2026-05-02T13:50:03Z</time></trkpt><trkpt lat="44.196086885369944" lon="10.12543654799635"><ele>187.0</ele><time>2026-05-02T13:50:04Z</time></trkpt><trkpt lat="44.196167459103535" lon="10.125301268409741"><ele>187.0</ele><time>2026-05-02T13:50:05Z</time></trkpt><trkpt lat="44.19624755762971" lon="10.125171863527992"><ele>187.0</ele><time>2026-05-02T13:50:06Z</time></trkpt><trkpt lat="44.19631794271551" lon="10.125037958892515"><ele>187.0</ele><time>2026-05-02T13:50:07Z</time></trkpt><trkpt lat="44.19640629111741" lon="10.124924727956186"><ele>187.0</ele><time>2026-05-02T13:50:08Z</time></trkpt><trkpt lat="44.19649431730313" lon="10.124824097484897"><ele>187.0</ele><time>2026-05-02T13:50:09Z</time></trkpt><trkpt lat="44.196589248873096" lon="10.124739060518634"><ele>187.0</ele><time>2026-05-02T13:50:10Z</time></trkpt><trkpt lat="44.19668949871194" lon="10.124693832037195"><ele>186.39999999999998</ele><time>2026-05-02T13:50:11Z</time></trkpt><trkpt lat="44.19680152395632" lon="10.124676201783638"><ele>185.79999999999998</ele><time>2026-05-02T13:50:12Z</time></trkpt><trkpt lat="44.19691638108964" lon="10.124655675065592"><ele>185.2</ele><time>2026-05-02T13:50:13Z</time></trkpt><trkpt lat="44.19702004349366" lon="10.124628873217143"><ele>184.6</ele><time>2026-05-02T13:50:14Z</time></trkpt><trkpt lat="44.19712830761156" lon="10.124588005356632"><ele>184.0</ele><time>2026-05-02T13:50:15Z</time></trkpt><trkpt lat="44.19723508352111" lon="10.12451905484737"><ele>184.0</ele><time>2026-05-02T13:50:16Z</time></trkpt><trkpt lat="44.19733405114247" lon="10.124424855346179"><ele>184.0</ele><time>2026-05-02T13:50:17Z</time></trkpt><trkpt lat="44.19743207145881" lon="10.124307848557919"><ele>184.0</ele><time>2026-05-02T13:50:18Z</time></trkpt><trkpt lat="44.19752841091653" lon="10.124182545987095"><ele>184.0</ele><time>2026-05-02T13:50:19Z</time></trkpt><trkpt lat="44.197632792406814" lon="10.124073843256998"><ele>184.25</ele><time>2026-05-02T13:50:20Z</time></trkpt><trkpt lat="44.197723303589044" lon="10.123955304758754"><ele>184.5</ele><time>2026-05-02T13:50:21Z</time></trkpt><trkpt lat="44.19780194640125" lon="10.123831387376843"><ele>184.75</ele><time>2026-05-02T13:50:22Z</time></trkpt><trkpt lat="44.19788482021083" lon="10.123726901672805"><ele>185.0</ele><time>2026-05-02T13:50:23Z</time></trkpt><trkpt lat="44.197960844312185" lon="10.12361606904882"><ele>185.0</ele><time>2026-05-02T13:50:24Z</time></trkpt><trkpt lat="44.19802424758819" lon="10.123492909122907"><ele>185.0</ele><time>2026-05-02T13:50:25Z</time></trkpt><trkpt lat="44.198077162355816" lon="10.123347151800806"><ele>185.0</ele><time>2026-05-02T13:50:26Z</time></trkpt><trkpt lat="44.198118634622375" lon="10.123183333981299"><ele>185.0</ele><time>2026-05-02T13:50:27Z</time></trkpt><trkpt lat="44.19815580191015" lon="10.123009472093168"><ele>188.25</ele><time>2026-05-02T13:50:28Z</time></trkpt><trkpt lat="44.19819562765904" lon="10.122833069121816"><ele>191.5</ele><time>2026-05-02T13:50:29Z</time></trkpt><trkpt lat="44.198235406731236" lon="10.12265873953556"><ele>194.75</ele><time>2026-05-02T13:50:30Z</time></trkpt><trkpt lat="44.198270469861505" lon="10.122495516184165"><ele>198.0</ele><time>2026-05-02T13:50:31Z</time></trkpt><trkpt lat="44.19829869171241" lon="10.122338068450182"><ele>198.0</ele><time>2026-05-02T13:50:32Z</time></trkpt><trkpt lat="44.19831880367381" lon="10.12217317686091"><ele>198.0</ele><time>2026-05-02T13:50:33Z</time></trkpt><trkpt lat="44.198329362077004" lon="10.122002638994564"><ele>198.0</ele><time>2026-05-02T13:50:34Z</time></trkpt><trkpt lat="44.198335228566854" lon="10.121828316233017"><ele>198.0</ele><time>2026-05-02T13:50:35Z</time></trkpt><trkpt lat="44.198354593788004" lon="10.121657825820623"><ele>197.75</ele><time>2026-05-02T13:50:36Z</time></trkpt><trkpt lat="44.19834199392078" lon="10.121475764232132"><ele>197.5</ele><time>2026-05-02T13:50:37Z</time></trkpt><trkpt lat="44.19830747742582" lon="10.12128510797922"><ele>197.25</ele><time>2026-05-02T13:50:38Z</time></trkpt><trkpt lat="44.1982839566631" lon="10.121086860274952"><ele>197.0</ele><time>2026-05-02T13:50:39Z</time></trkpt><trkpt lat="44.19826227776004" lon="10.120885901117965"><ele>195.5</ele><time>2026-05-02T13:50:40Z</time></trkpt><trkpt lat="44.19824099199166" lon="10.120687005911037"><ele>194.0</ele><time>2026-05-02T13:50:41Z</time></trkpt><trkpt lat="44.1982409636612" lon="10.120489270006269"><ele>192.5</ele><time>2026-05-02T13:50:42Z</time></trkpt><trkpt lat="44.19821144224564" lon="10.120298113383189"><ele>191.0</ele><time>2026-05-02T13:50:43Z</time></trkpt><trkpt lat="44.19820053940832" lon="10.12011574303998"><ele>191.0</ele><time>2026-05-02T13:50:44Z</time></trkpt><trkpt lat="44.198190793878275" lon="10.119944941067166"><ele>191.0</ele><time>2026-05-02T13:50:45Z</time></trkpt><trkpt lat="44.198194346470125" lon="10.119778764843957"><ele>191.0</ele><time>2026-05-02T13:50:46Z</time></trkpt><trkpt lat="44.19819403280987" lon="10.11961203360188"><ele>191.0</ele><time>2026-05-02T13:50:47Z</time></trkpt><trkpt lat="44.19817314248488" lon="10.119437549117757"><ele>187.75</ele><time>2026-05-02T13:50:48Z</time></trkpt><trkpt lat="44.198132051697606" lon="10.119258207211091"><ele>184.5</ele><time>2026-05-02T13:50:49Z</time></trkpt><trkpt lat="44.198085273282466" lon="10.119071812611088"><ele>181.25</ele><time>2026-05-02T13:50:50Z</time></trkpt><trkpt lat="44.198041254002" lon="10.118877450635114"><ele>178.0</ele><time>2026-05-02T13:50:51Z</time></trkpt><trkpt lat="44.19800074037742" lon="10.118685475810139"><ele>177.75</ele><time>2026-05-02T13:50:52Z</time></trkpt><trkpt lat="44.19796813014775" lon="10.118512646472217"><ele>177.5</ele><time>2026-05-02T13:50:53Z</time></trkpt><trkpt lat="44.197929747776904" lon="10.118345574506007"><ele>177.25</ele><time>2026-05-02T13:50:54Z</time></trkpt><trkpt lat="44.19788673080571" lon="10.118183079306226"><ele>177.0</ele><time>2026-05-02T13:50:55Z</time></trkpt><trkpt lat="44.197842142565825" lon="10.118023674002924"><ele>179.5</ele><time>2026-05-02T13:50:56Z</time></trkpt><trkpt lat="44.197779557013135" lon="10.117881280330225"><ele>182.0</ele><time>2026-05-02T13:50:57Z</time></trkpt><trkpt lat="44.19770501360293" lon="10.117738730416319"><ele>184.5</ele><time>2026-05-02T13:50:58Z</time></trkpt><trkpt lat="44.19761607195976" lon="10.117606386420583"><ele>187.0</ele><time>2026-05-02T13:50:59Z</time></trkpt><trkpt lat="44.1975145058709" lon="10.117479322586322"><ele>184.25</ele><time>2026-05-02T13:51:00Z</time></trkpt><trkpt lat="44.197415569236526" lon="10.117338858663627"><ele>181.5</ele><time>2026-05-02T13:51:01Z</time></trkpt><trkpt lat="44.19732002839053" lon="10.11719502975788"><ele>178.75</ele><time>2026-05-02T13:51:02Z</time></trkpt><trkpt lat="44.19723041840842" lon="10.117056281032328"><ele>176.0</ele><time>2026-05-02T13:51:03Z</time></trkpt><trkpt lat="44.19713655678851" lon="10.116913626647042"><ele>176.0</ele><time>2026-05-02T13:51:04Z</time></trkpt><trkpt lat="44.19703693777189" lon="10.116760734570224"><ele>176.0</ele><time>2026-05-02T13:51:05Z</time></trkpt><trkpt lat="44.19694775581475" lon="10.116624399280063"><ele>176.0</ele><time>2026-05-02T13:51:06Z</time></trkpt><trkpt lat="44.196863461815454" lon="10.116489032236055"><ele>176.0</ele><time>2026-05-02T13:51:07Z</time></trkpt><trkpt lat="44.196784997754285" lon="10.116367201246957"><ele>174.5</ele><time>2026-05-02T13:51:08Z</time></trkpt><trkpt lat="44.19671018519018" lon="10.116220987103075"><ele>173.0</ele><time>2026-05-02T13:51:09Z</time></trkpt><trkpt lat="44.19664152915601" lon="10.116048211620123"><ele>171.5</ele><time>2026-05-02T13:51:10Z</time></trkpt><trkpt lat="44.19657447055632" lon="10.115873021382686"><ele>170.0</ele><time>2026-05-02T13:51:11Z</time></trkpt><trkpt lat="44.19649960087621" lon="10.115693383625034"><ele>170.0</ele><time>2026-05-02T13:51:12Z</time></trkpt><trkpt lat="44.19642760971381" lon="10.115508129086829"><ele>170.0</ele><time>2026-05-02T13:51:13Z</time></trkpt><trkpt lat="44.196349980283" lon="10.115326604739977"><ele>170.0</ele><time>2026-05-02T13:51:14Z</time></trkpt><trkpt lat="44.196276681202605" lon="10.115158583184428"><ele>170.0</ele><time>2026-05-02T13:51:15Z</time></trkpt><trkpt lat="44.19621030851406" lon="10.114999222700368"><ele>172.0</ele><time>2026-05-02T13:51:16Z</time></trkpt><trkpt lat="44.19614722842079" lon="10.114846447527341"><ele>174.0</ele><time>2026-05-02T13:51:17Z</time></trkpt><trkpt lat="44.1960869828357" lon="10.114703179985845"><ele>176.0</ele><time>2026-05-02T13:51:18Z</time></trkpt><trkpt lat="44.19602710133597" lon="10.114561196089554"><ele>178.0</ele><time>2026-05-02T13:51:19Z</time></trkpt><trkpt lat="44.195972463487905" lon="10.114409174384033"><ele>178.0</ele><time>2026-05-02T13:51:20Z</time></trkpt><trkpt lat="44.195933001302656" lon="10.114242439645983"><ele>178.0</ele><time>2026-05-02T13:51:21Z</time></trkpt><trkpt lat="44.19590028980133" lon="10.114059740687676"><ele>178.0</ele><time>2026-05-02T13:51:22Z</time></trkpt><trkpt lat="44.19586593586623" lon="10.113875540475073"><ele>178.0</ele><time>2026-05-02T13:51:23Z</time></trkpt><trkpt lat="44.1958306934499" lon="10.11369892361313"><ele>180.25</ele><time>2026-05-02T13:51:24Z</time></trkpt><trkpt lat="44.19579543837221" lon="10.113525917134744"><ele>182.5</ele><time>2026-05-02T13:51:25Z</time></trkpt><trkpt lat="44.19576074710548" lon="10.113360180280102"><ele>184.75</ele><time>2026-05-02T13:51:26Z</time></trkpt><trkpt lat="44.19572897142486" lon="10.11319752081242"><ele>187.0</ele><time>2026-05-02T13:51:27Z</time></trkpt><trkpt lat="44.19569955512161" lon="10.113043602344263"><ele>188.5</ele><time>2026-05-02T13:51:28Z</time></trkpt><trkpt lat="44.19567389229235" lon="10.112893168334134"><ele>190.0</ele><time>2026-05-02T13:51:29Z</time></trkpt><trkpt lat="44.1956528487961" lon="10.112732196274033"><ele>191.5</ele><time>2026-05-02T13:51:30Z</time></trkpt><trkpt lat="44.19562383432466" lon="10.112565806865708"><ele>193.0</ele><time>2026-05-02T13:51:31Z</time></trkpt><trkpt lat="44.1955983395561" lon="10.112397488269039"><ele>186.25</ele><time>2026-05-02T13:51:32Z</time></trkpt><trkpt lat="44.195575433362244" lon="10.112233749774035"><ele>179.5</ele><time>2026-05-02T13:51:33Z</time></trkpt><trkpt lat="44.1955504603137" lon="10.112076879267688"><ele>172.75</ele><time>2026-05-02T13:51:34Z</time></trkpt><trkpt lat="44.1955327128835" lon="10.111926129372444"><ele>166.0</ele><time>2026-05-02T13:51:35Z</time></trkpt><trkpt lat="44.195513383555365" lon="10.111781805279044"><ele>166.0</ele><time>2026-05-02T13:51:36Z</time></trkpt><trkpt lat="44.195495304371526" lon="10.111661388616287"><ele>166.0</ele><time>2026-05-02T13:51:37Z</time></trkpt><trkpt lat="44.19547173184969" lon="10.111556988683228"><ele>166.0</ele><time>2026-05-02T13:51:38Z</time></trkpt><trkpt lat="44.19544947639832" lon="10.11147042926378"><ele>166.0</ele><time>2026-05-02T13:51:39Z</time></trkpt><trkpt lat="44.19540455078468" lon="10.111358934711614"><ele>166.0</ele><time>2026-05-02T13:51:41Z</time></trkpt><trkpt lat="44.19537194599336" lon="10.11128023802042"><ele>166.0</ele><time>2026-05-02T13:51:44Z</time></trkpt><trkpt lat="44.1953263926121" lon="10.111218119233236"><ele>165.8</ele><time>2026-05-02T13:53:14Z</time></trkpt><trkpt lat="44.195262698727014" lon="10.111118762503951"><ele>165.60000000000002</ele><time>2026-05-02T13:53:49Z</time></trkpt><trkpt lat="44.19522818004184" lon="10.111039449060678"><ele>165.4</ele><time>2026-05-02T13:53:50Z</time></trkpt><trkpt lat="44.19518517464874" lon="10.110943410059594"><ele>165.2</ele><time>2026-05-02T13:53:52Z</time></trkpt><trkpt lat="44.195129092521825" lon="10.110756993067413"><ele>165.0</ele><time>2026-05-02T13:53:54Z</time></trkpt><trkpt lat="44.195091953692355" lon="10.110671292458921"><ele>165.0</ele><time>2026-05-02T13:53:55Z</time></trkpt><trkpt lat="44.19506226411648" lon="10.110582893526606"><ele>165.0</ele><time>2026-05-02T13:53:56Z</time></trkpt><trkpt lat="44.195045406569726" lon="10.110484779811053"><ele>165.0</ele><time>2026-05-02T13:53:57Z</time></trkpt><trkpt lat="44.19504142946298" lon="10.110381561564077"><ele>165.0</ele><time>2026-05-02T13:53:58Z</time></trkpt><trkpt lat="44.19506567623832" lon="10.110210931755061"><ele>165.0</ele><time>2026-05-02T13:54:00Z</time></trkpt><trkpt lat="44.19510478128358" lon="10.110071921016957"><ele>165.0</ele><time>2026-05-02T13:54:02Z</time></trkpt><trkpt lat="44.19515586737201" lon="10.10993417611623"><ele>165.2</ele><time>2026-05-02T13:54:04Z</time></trkpt><trkpt lat="44.195165498457236" lon="10.109833792202867"><ele>165.4</ele><time>2026-05-02T13:54:05.001Z</time></trkpt><trkpt lat="44.195197645121546" lon="10.109703144405643"><ele>165.60000000000002</ele><time>2026-05-02T13:54:06.001Z</time></trkpt><trkpt lat="44.19522751209763" lon="10.109550559855446"><ele>165.8</ele><time>2026-05-02T13:54:07.001Z</time></trkpt><trkpt lat="44.19525729709644" lon="10.109410398752518"><ele>166.0</ele><time>2026-05-02T13:54:08.001Z</time></trkpt><trkpt lat="44.1952923087329" lon="10.109285924220877"><ele>166.0</ele><time>2026-05-02T13:54:09.001Z</time></trkpt><trkpt lat="44.19532908852225" lon="10.109171498647632"><ele>166.0</ele><time>2026-05-02T13:54:10.001Z</time></trkpt><trkpt lat="44.195395939639646" lon="10.109068510888836"><ele>166.0</ele><time>2026-05-02T13:54:11.001Z</time></trkpt><trkpt lat="44.195464401122464" lon="10.108937614475034"><ele>166.0</ele><time>2026-05-02T13:54:12.001Z</time></trkpt><trkpt lat="44.19552942807993" lon="10.10878705391355"><ele>166.0</ele><time>2026-05-02T13:54:13.001Z</time></trkpt><trkpt lat="44.195625813830134" lon="10.108642261795074"><ele>167.5</ele><time>2026-05-02T13:54:14.001Z</time></trkpt><trkpt lat="44.19571499268201" lon="10.10848088139057"><ele>169.0</ele><time>2026-05-02T13:54:15.001Z</time></trkpt><trkpt lat="44.19580036610919" lon="10.108338339143003"><ele>170.5</ele><time>2026-05-02T13:54:16.001Z</time></trkpt><trkpt lat="44.195877616175515" lon="10.10820493666028"><ele>172.0</ele><time>2026-05-02T13:54:17.001Z</time></trkpt><trkpt lat="44.19595550440852" lon="10.108065845611291"><ele>169.0</ele><time>2026-05-02T13:54:18.001Z</time></trkpt><trkpt lat="44.19602461544382" lon="10.107933699761317"><ele>166.0</ele><time>2026-05-02T13:54:19.001Z</time></trkpt><trkpt lat="44.19609260885296" lon="10.107817097499527"><ele>163.0</ele><time>2026-05-02T13:54:20.001Z</time></trkpt><trkpt lat="44.196167967635645" lon="10.107694017576888"><ele>160.0</ele><time>2026-05-02T13:54:21.001Z</time></trkpt><trkpt lat="44.196240678084045" lon="10.107580040570648"><ele>160.0</ele><time>2026-05-02T13:54:22.001Z</time></trkpt><trkpt lat="44.19632129455741" lon="10.107471112632382"><ele>160.0</ele><time>2026-05-02T13:54:23.001Z</time></trkpt><trkpt lat="44.1964183280947" lon="10.107372413171955"><ele>160.0</ele><time>2026-05-02T13:54:24.001Z</time></trkpt><trkpt lat="44.19652138542397" lon="10.107286858279737"><ele>160.0</ele><time>2026-05-02T13:54:25.001Z</time></trkpt><trkpt lat="44.19663764685882" lon="10.107206786324236"><ele>159.75</ele><time>2026-05-02T13:54:26.001Z</time></trkpt><trkpt lat="44.196751368425666" lon="10.107118628869133"><ele>159.5</ele><time>2026-05-02T13:54:27.001Z</time></trkpt><trkpt lat="44.19685658548195" lon="10.107023029104104"><ele>159.25</ele><time>2026-05-02T13:54:28.001Z</time></trkpt><trkpt lat="44.19695407399246" lon="10.106918772160455"><ele>159.0</ele><time>2026-05-02T13:54:29.001Z</time></trkpt><trkpt lat="44.197052843880975" lon="10.106804620853111"><ele>159.0</ele><time>2026-05-02T13:54:30Z</time></trkpt><trkpt lat="44.197150730198764" lon="10.106701099951625"><ele>159.0</ele><time>2026-05-02T13:54:31Z</time></trkpt><trkpt lat="44.19726132879272" lon="10.106617025136877"><ele>159.0</ele><time>2026-05-02T13:54:32Z</time></trkpt><trkpt lat="44.19739628618519" lon="10.106544092090726"><ele>159.0</ele><time>2026-05-02T13:54:33Z</time></trkpt><trkpt lat="44.197548053397895" lon="10.106469205820048"><ele>157.66666666666666</ele><time>2026-05-02T13:54:34Z</time></trkpt><trkpt lat="44.19770540550452" lon="10.106389081892834"><ele>156.33333333333331</ele><time>2026-05-02T13:54:35Z</time></trkpt><trkpt lat="44.19784814729173" lon="10.106312525673598"><ele>155.0</ele><time>2026-05-02T13:54:36Z</time></trkpt><trkpt lat="44.19797247386514" lon="10.106246387097517"><ele>155.0</ele><time>2026-05-02T13:54:37Z</time></trkpt><trkpt lat="44.198095126532316" lon="10.106186385175087"><ele>155.0</ele><time>2026-05-02T13:54:38Z</time></trkpt><trkpt lat="44.19821988327539" lon="10.106125583877839"><ele>155.0</ele><time>2026-05-02T13:54:39Z</time></trkpt><trkpt lat="44.198345942255244" lon="10.106059545157345"><ele>155.0</ele><time>2026-05-02T13:54:40Z</time></trkpt><trkpt lat="44.19847509315679" lon="10.105989747832941"><ele>156.0</ele><time>2026-05-02T13:54:41Z</time></trkpt><trkpt lat="44.19860377410888" lon="10.105904128711414"><ele>157.0</ele><time>2026-05-02T13:54:42Z</time></trkpt><trkpt lat="44.19872393892125" lon="10.105808947946421"><ele>158.0</ele><time>2026-05-02T13:54:43Z</time></trkpt><trkpt lat="44.19883517241524" lon="10.105708568518486"><ele>159.0</ele><time>2026-05-02T13:54:44Z</time></trkpt><trkpt lat="44.1989339904727" lon="10.105608148176003"><ele>157.25</ele><time>2026-05-02T13:54:45Z</time></trkpt><trkpt lat="44.19903419165005" lon="10.105501835511477"><ele>155.5</ele><time>2026-05-02T13:54:46Z</time></trkpt><trkpt lat="44.19914070160303" lon="10.10537647210091"><ele>153.75</ele><time>2026-05-02T13:54:47Z</time></trkpt><trkpt lat="44.1992484968839" lon="10.105237857388854"><ele>152.0</ele><time>2026-05-02T13:54:48Z</time></trkpt><trkpt lat="44.1993562368918" lon="10.105078933680515"><ele>150.33333333333331</ele><time>2026-05-02T13:54:49Z</time></trkpt><trkpt lat="44.199464207193984" lon="10.104911975396005"><ele>148.66666666666666</ele><time>2026-05-02T13:54:50Z</time></trkpt><trkpt lat="44.19957244007558" lon="10.104743773574949"><ele>147.0</ele><time>2026-05-02T13:54:51Z</time></trkpt><trkpt lat="44.199680292177305" lon="10.10456228201797"><ele>147.0</ele><time>2026-05-02T13:54:52Z</time></trkpt><trkpt lat="44.19978740633489" lon="10.104385050486615"><ele>147.0</ele><time>2026-05-02T13:54:53Z</time></trkpt><trkpt lat="44.19989615846956" lon="10.104207510185722"><ele>147.0</ele><time>2026-05-02T13:54:54Z</time></trkpt><trkpt lat="44.20000370926695" lon="10.104032075734926"><ele>146.66666666666666</ele><time>2026-05-02T13:54:55Z</time></trkpt><trkpt lat="44.2001031846605" lon="10.103868898228761"><ele>146.33333333333331</ele><time>2026-05-02T13:54:56Z</time></trkpt><trkpt lat="44.20020195525992" lon="10.103705145404335"><ele>146.0</ele><time>2026-05-02T13:54:57Z</time></trkpt><trkpt lat="44.2002949273874" lon="10.103545109982015"><ele>146.0</ele><time>2026-05-02T13:54:58Z</time></trkpt><trkpt lat="44.2003918889148" lon="10.103378324854935"><ele>146.0</ele><time>2026-05-02T13:54:59Z</time></trkpt><trkpt lat="44.20049317995757" lon="10.103211829869696"><ele>146.0</ele><time>2026-05-02T13:55:00Z</time></trkpt><trkpt lat="44.200591473861785" lon="10.103040483791654"><ele>149.0</ele><time>2026-05-02T13:55:01Z</time></trkpt><trkpt lat="44.200690950830335" lon="10.102867215161456"><ele>152.0</ele><time>2026-05-02T13:55:02Z</time></trkpt><trkpt lat="44.20078183793246" lon="10.102699626138756"><ele>155.0</ele><time>2026-05-02T13:55:03Z</time></trkpt><trkpt lat="44.20087222707259" lon="10.102521390625125"><ele>161.66666666666666</ele><time>2026-05-02T13:55:04Z</time></trkpt><trkpt lat="44.20095400252712" lon="10.10235067892752"><ele>168.33333333333334</ele><time>2026-05-02T13:55:05Z</time></trkpt><trkpt lat="44.20103786720215" lon="10.102169520056838"><ele>175.0</ele><time>2026-05-02T13:55:06Z</time></trkpt><trkpt lat="44.201117299684" lon="10.101985749616071"><ele>175.0</ele><time>2026-05-02T13:55:07Z</time></trkpt><trkpt lat="44.20120034880907" lon="10.101801252382161"><ele>175.0</ele><time>2026-05-02T13:55:08Z</time></trkpt><trkpt lat="44.20127971783554" lon="10.101608725476003"><ele>175.0</ele><time>2026-05-02T13:55:09Z</time></trkpt><trkpt lat="44.201360784592985" lon="10.101406383213838"><ele>177.33333333333334</ele><time>2026-05-02T13:55:10Z</time></trkpt><trkpt lat="44.20143489500911" lon="10.101214254968117"><ele>179.66666666666666</ele><time>2026-05-02T13:55:11Z</time></trkpt><trkpt lat="44.20152124700778" lon="10.100992760625145"><ele>182.0</ele><time>2026-05-02T13:55:12Z</time></trkpt><trkpt lat="44.20160484856473" lon="10.100784479513106"><ele>178.33333333333331</ele><time>2026-05-02T13:55:13Z</time></trkpt><trkpt lat="44.2016949478658" lon="10.100556488038745"><ele>174.66666666666666</ele><time>2026-05-02T13:55:14Z</time></trkpt><trkpt lat="44.20177827689046" lon="10.100379769111377"><ele>171.0</ele><time>2026-05-02T13:55:15Z</time></trkpt><trkpt lat="44.2018522804686" lon="10.100162966150663"><ele>171.0</ele><time>2026-05-02T13:55:16Z</time></trkpt><trkpt lat="44.20193270222874" lon="10.099971424064927"><ele>171.0</ele><time>2026-05-02T13:55:17Z</time></trkpt><trkpt lat="44.201994433266485" lon="10.099777218449537"><ele>171.0</ele><time>2026-05-02T13:55:18Z</time></trkpt><trkpt lat="44.2020731528065" lon="10.099584091329866"><ele>168.75</ele><time>2026-05-02T13:55:19Z</time></trkpt><trkpt lat="44.20213218382465" lon="10.099411130046908"><ele>166.5</ele><time>2026-05-02T13:55:20Z</time></trkpt><trkpt lat="44.202197140610146" lon="10.099230999828148"><ele>164.25</ele><time>2026-05-02T13:55:21Z</time></trkpt><trkpt lat="44.20226187605736" lon="10.099046252272752"><ele>162.0</ele><time>2026-05-02T13:55:22Z</time></trkpt><trkpt lat="44.202334785161874" lon="10.098860848353663"><ele>155.0</ele><time>2026-05-02T13:55:23Z</time></trkpt><trkpt lat="44.20240565408697" lon="10.098676051892115"><ele>148.0</ele><time>2026-05-02T13:55:24Z</time></trkpt><trkpt lat="44.20247987844632" lon="10.09848723310957"><ele>141.0</ele><time>2026-05-02T13:55:25Z</time></trkpt><trkpt lat="44.202549859817424" lon="10.098307044001942"><ele>140.66666666666666</ele><time>2026-05-02T13:55:26Z</time></trkpt><trkpt lat="44.20262109615787" lon="10.098108667319941"><ele>140.33333333333331</ele><time>2026-05-02T13:55:27Z</time></trkpt><trkpt lat="44.20269377224083" lon="10.09792181547586"><ele>140.0</ele><time>2026-05-02T13:55:28Z</time></trkpt><trkpt lat="44.20275779976224" lon="10.097730758480218"><ele>140.0</ele><time>2026-05-02T13:55:29Z</time></trkpt><trkpt lat="44.20280554669409" lon="10.097539338379507"><ele>140.0</ele><time>2026-05-02T13:55:30Z</time></trkpt><trkpt lat="44.20288033854012" lon="10.0973531071108"><ele>140.0</ele><time>2026-05-02T13:55:31Z</time></trkpt><trkpt lat="44.20293102320742" lon="10.097155570943224"><ele>140.0</ele><time>2026-05-02T13:55:32Z</time></trkpt><trkpt lat="44.202977624335205" lon="10.096952474238634"><ele>140.33333333333331</ele><time>2026-05-02T13:55:33Z</time></trkpt><trkpt lat="44.20301834238119" lon="10.09674368264519"><ele>140.66666666666666</ele><time>2026-05-02T13:55:34Z</time></trkpt><trkpt lat="44.2030536073913" lon="10.096530081601246"><ele>141.0</ele><time>2026-05-02T13:55:35Z</time></trkpt><trkpt lat="44.203083508935855" lon="10.09631957029274"><ele>141.33333333333334</ele><time>2026-05-02T13:55:36Z</time></trkpt><trkpt lat="44.203107288606745" lon="10.096093291938217"><ele>141.66666666666669</ele><time>2026-05-02T13:55:37Z</time></trkpt><trkpt lat="44.20312342470922" lon="10.095881686608328"><ele>142.0</ele><time>2026-05-02T13:55:38Z</time></trkpt><trkpt lat="44.20313039827583" lon="10.09566850844967"><ele>142.33333333333334</ele><time>2026-05-02T13:55:39Z</time></trkpt><trkpt lat="44.203129630736456" lon="10.09545410250147"><ele>142.66666666666666</ele><time>2026-05-02T13:55:40Z</time></trkpt><trkpt lat="44.20312504521887" lon="10.09524518189746"><ele>143.0</ele><time>2026-05-02T13:55:41Z</time></trkpt><trkpt lat="44.203114898128135" lon="10.095035905705236"><ele>143.0</ele><time>2026-05-02T13:55:42Z</time></trkpt><trkpt lat="44.20309513463382" lon="10.094805304929896"><ele>143.0</ele><time>2026-05-02T13:55:43Z</time></trkpt><trkpt lat="44.203070306904856" lon="10.094599682316538"><ele>143.0</ele><time>2026-05-02T13:55:44Z</time></trkpt><trkpt lat="44.203040898212734" lon="10.09438168398646"><ele>143.0</ele><time>2026-05-02T13:55:45Z</time></trkpt><trkpt lat="44.203004586438254" lon="10.094163352710577"><ele>143.0</ele><time>2026-05-02T13:55:46Z</time></trkpt><trkpt lat="44.20296955026069" lon="10.093962073457776"><ele>143.0</ele><time>2026-05-02T13:55:47Z</time></trkpt><trkpt lat="44.20292580272046" lon="10.093748238830916"><ele>142.66666666666666</ele><time>2026-05-02T13:55:48Z</time></trkpt><trkpt lat="44.20288294444962" lon="10.093545201179897"><ele>142.33333333333334</ele><time>2026-05-02T13:55:49Z</time></trkpt><trkpt lat="44.20283711803793" lon="10.093337507909574"><ele>142.0</ele><time>2026-05-02T13:55:50Z</time></trkpt><trkpt lat="44.202793404243685" lon="10.093126202485054"><ele>142.0</ele><time>2026-05-02T13:55:51Z</time></trkpt><trkpt lat="44.202750094355174" lon="10.092914861790733"><ele>142.0</ele><time>2026-05-02T13:55:52Z</time></trkpt><trkpt lat="44.202701188944644" lon="10.092691397005707"><ele>142.0</ele><time>2026-05-02T13:55:53Z</time></trkpt><trkpt lat="44.2026593333437" lon="10.092491977620483"><ele>142.25</ele><time>2026-05-02T13:55:54Z</time></trkpt><trkpt lat="44.20262117767247" lon="10.092293057215784"><ele>142.5</ele><time>2026-05-02T13:55:55Z</time></trkpt><trkpt lat="44.20257900023918" lon="10.092090430054144"><ele>142.75</ele><time>2026-05-02T13:55:56Z</time></trkpt><trkpt lat="44.20254030265882" lon="10.091890061867323"><ele>143.0</ele><time>2026-05-02T13:55:57Z</time></trkpt><trkpt lat="44.20249646171162" lon="10.091686941657844"><ele>143.0</ele><time>2026-05-02T13:55:58Z</time></trkpt><trkpt lat="44.20245460799787" lon="10.091486854340614"><ele>143.0</ele><time>2026-05-02T13:55:59Z</time></trkpt><trkpt lat="44.20241355866861" lon="10.091280343654116"><ele>143.0</ele><time>2026-05-02T13:56:00Z</time></trkpt><trkpt lat="44.20236891022252" lon="10.091069956431197"><ele>141.33333333333331</ele><time>2026-05-02T13:56:01Z</time></trkpt><trkpt lat="44.20232453479581" lon="10.090850911879235"><ele>139.66666666666666</ele><time>2026-05-02T13:56:02Z</time></trkpt><trkpt lat="44.202280809522456" lon="10.090637475363005"><ele>138.0</ele><time>2026-05-02T13:56:03Z</time></trkpt><trkpt lat="44.20223894228031" lon="10.090438311226388"><ele>138.0</ele><time>2026-05-02T13:56:04Z</time></trkpt><trkpt lat="44.202187289482175" lon="10.090212114138872"><ele>138.0</ele><time>2026-05-02T13:56:05Z</time></trkpt><trkpt lat="44.202147519699466" lon="10.090016927915824"><ele>138.0</ele><time>2026-05-02T13:56:06Z</time></trkpt><trkpt lat="44.202104421655925" lon="10.089809014821922"><ele>138.0</ele><time>2026-05-02T13:56:07Z</time></trkpt><trkpt lat="44.20206091565613" lon="10.089593610696628"><ele>138.0</ele><time>2026-05-02T13:56:08Z</time></trkpt><trkpt lat="44.20201995406467" lon="10.089377270668368"><ele>138.0</ele><time>2026-05-02T13:56:09.001Z</time></trkpt><trkpt lat="44.20198308129258" lon="10.089182489917103"><ele>136.66666666666666</ele><time>2026-05-02T13:56:10Z</time></trkpt><trkpt lat="44.20194685119419" lon="10.088981869783568"><ele>135.33333333333331</ele><time>2026-05-02T13:56:11Z</time></trkpt><trkpt lat="44.201907886556405" lon="10.088778559882208"><ele>134.0</ele><time>2026-05-02T13:56:12Z</time></trkpt><trkpt lat="44.20187434215038" lon="10.088572967845057"><ele>134.0</ele><time>2026-05-02T13:56:13Z</time></trkpt><trkpt lat="44.20183879561156" lon="10.088359850014873"><ele>134.0</ele><time>2026-05-02T13:56:14Z</time></trkpt><trkpt lat="44.201808534964954" lon="10.08815863287943"><ele>134.0</ele><time>2026-05-02T13:56:15Z</time></trkpt><trkpt lat="44.201780526720825" lon="10.087975089644232"><ele>134.0</ele><time>2026-05-02T13:56:16Z</time></trkpt><trkpt lat="44.20173868035588" lon="10.087799394993848"><ele>133.8</ele><time>2026-05-02T13:56:17Z</time></trkpt><trkpt lat="44.20169461636077" lon="10.087643586832048"><ele>133.60000000000002</ele><time>2026-05-02T13:56:18Z</time></trkpt><trkpt lat="44.20163280359637" lon="10.087516454880205"><ele>133.4</ele><time>2026-05-02T13:56:19Z</time></trkpt><trkpt lat="44.20155523591056" lon="10.087412100748772"><ele>133.20000000000002</ele><time>2026-05-02T13:56:20Z</time></trkpt><trkpt lat="44.20146594190228" lon="10.087331938249784"><ele>133.0</ele><time>2026-05-02T13:56:21Z</time></trkpt><trkpt lat="44.20136553006869" lon="10.087284634321778"><ele>132.0</ele><time>2026-05-02T13:56:22Z</time></trkpt><trkpt lat="44.201257040274164" lon="10.087271078524788"><ele>131.0</ele><time>2026-05-02T13:56:23Z</time></trkpt><trkpt lat="44.20114803078346" lon="10.087297000139046"><ele>130.0</ele><time>2026-05-02T13:56:24Z</time></trkpt><trkpt lat="44.201049643742095" lon="10.087372763107263"><ele>129.0</ele><time>2026-05-02T13:56:25Z</time></trkpt><trkpt lat="44.20096930966199" lon="10.087461344229546"><ele>128.0</ele><time>2026-05-02T13:56:26Z</time></trkpt><trkpt lat="44.2009075423448" lon="10.087576381648649"><ele>128.0</ele><time>2026-05-02T13:56:27Z</time></trkpt><trkpt lat="44.20086811418571" lon="10.087711987093996"><ele>128.0</ele><time>2026-05-02T13:56:28Z</time></trkpt><trkpt lat="44.20085475093079" lon="10.08785124621938"><ele>128.0</ele><time>2026-05-02T13:56:29Z</time></trkpt><trkpt lat="44.20086453817308" lon="10.087992388363093"><ele>128.0</ele><time>2026-05-02T13:56:30Z</time></trkpt><trkpt lat="44.20088136766088" lon="10.088134505792512"><ele>128.0</ele><time>2026-05-02T13:56:31Z</time></trkpt><trkpt lat="44.20092143954708" lon="10.088242815267375"><ele>128.20000000000002</ele><time>2026-05-02T13:56:32Z</time></trkpt><trkpt lat="44.20099097174573" lon="10.088350997001779"><ele>128.4</ele><time>2026-05-02T13:56:33Z</time></trkpt><trkpt lat="44.20107611331514" lon="10.088433574688693"><ele>128.60000000000002</ele><time>2026-05-02T13:56:34Z</time></trkpt><trkpt lat="44.20117667153464" lon="10.088480743662306"><ele>128.8</ele><time>2026-05-02T13:56:35Z</time></trkpt><trkpt lat="44.201293008208665" lon="10.088502457426369"><ele>129.0</ele><time>2026-05-02T13:56:36Z</time></trkpt><trkpt lat="44.201431709899445" lon="10.08850154417242"><ele>130.66666666666666</ele><time>2026-05-02T13:56:37Z</time></trkpt><trkpt lat="44.201578956289254" lon="10.088487978131402"><ele>132.33333333333331</ele><time>2026-05-02T13:56:38Z</time></trkpt><trkpt lat="44.20173622701137" lon="10.088468206757401"><ele>134.0</ele><time>2026-05-02T13:56:39Z</time></trkpt><trkpt lat="44.20189375444818" lon="10.088450860179272"><ele>134.0</ele><time>2026-05-02T13:56:40Z</time></trkpt><trkpt lat="44.202049325666714" lon="10.088419263171279"><ele>134.0</ele><time>2026-05-02T13:56:41Z</time></trkpt><trkpt lat="44.202171911750135" lon="10.08841581881682"><ele>134.0</ele><time>2026-05-02T13:56:42Z</time></trkpt><trkpt lat="44.20228620174008" lon="10.088417793931137"><ele>134.0</ele><time>2026-05-02T13:56:43Z</time></trkpt><trkpt lat="44.2023619411425" lon="10.0884260184299"><ele>136.25</ele><time>2026-05-02T13:56:44Z</time></trkpt><trkpt lat="44.202432113307026" lon="10.08823868153275"><ele>138.5</ele><time>2026-05-02T13:56:46Z</time></trkpt><trkpt lat="44.202457094860435" lon="10.088109776792813"><ele>140.75</ele><time>2026-05-02T13:56:47Z</time></trkpt><trkpt lat="44.20247899634854" lon="10.087957108725433"><ele>143.0</ele><time>2026-05-02T13:56:48Z</time></trkpt><trkpt lat="44.202496374656235" lon="10.087808376573939"><ele>143.0</ele><time>2026-05-02T13:56:49Z</time></trkpt><trkpt lat="44.20252121156724" lon="10.087682689665105"><ele>143.0</ele><time>2026-05-02T13:56:50Z</time></trkpt><trkpt lat="44.20254717252286" lon="10.087548311955585"><ele>143.0</ele><time>2026-05-02T13:56:51Z</time></trkpt><trkpt lat="44.20256334344333" lon="10.087410026488921"><ele>143.0</ele><time>2026-05-02T13:56:52Z</time></trkpt><trkpt lat="44.20256646610142" lon="10.087255034767882"><ele>143.0</ele><time>2026-05-02T13:56:53Z</time></trkpt><trkpt lat="44.2025624722275" lon="10.087081130490422"><ele>142.66666666666666</ele><time>2026-05-02T13:56:54Z</time></trkpt><trkpt lat="44.202560627556366" lon="10.086903785230087"><ele>142.33333333333334</ele><time>2026-05-02T13:56:55Z</time></trkpt><trkpt lat="44.20255553482612" lon="10.086688319666452"><ele>142.0</ele><time>2026-05-02T13:56:56Z</time></trkpt><trkpt lat="44.20253952713523" lon="10.086449039420275"><ele>142.0</ele><time>2026-05-02T13:56:57Z</time></trkpt><trkpt lat="44.20252742433232" lon="10.086220495127831"><ele>142.0</ele><time>2026-05-02T13:56:58Z</time></trkpt><trkpt lat="44.20252610289862" lon="10.086003126145085"><ele>142.0</ele><time>2026-05-02T13:56:59Z</time></trkpt><trkpt lat="44.20253283944591" lon="10.085805578119096"><ele>141.0</ele><time>2026-05-02T13:57:00Z</time></trkpt><trkpt lat="44.20255280820737" lon="10.08562091183873"><ele>140.0</ele><time>2026-05-02T13:57:01Z</time></trkpt><trkpt lat="44.202599370901076" lon="10.085441149411105"><ele>139.0</ele><time>2026-05-02T13:57:02Z</time></trkpt><trkpt lat="44.20267093712895" lon="10.085237795673114"><ele>138.0</ele><time>2026-05-02T13:57:03Z</time></trkpt><trkpt lat="44.20273741156306" lon="10.085013961049828"><ele>138.66666666666666</ele><time>2026-05-02T13:57:04Z</time></trkpt><trkpt lat="44.202760208519614" lon="10.084806300980826"><ele>139.33333333333331</ele><time>2026-05-02T13:57:05Z</time></trkpt><trkpt lat="44.20276174582372" lon="10.084576770903537"><ele>140.0</ele><time>2026-05-02T13:57:06Z</time></trkpt><trkpt lat="44.20274695158887" lon="10.084335174149725"><ele>142.0</ele><time>2026-05-02T13:57:07Z</time></trkpt><trkpt lat="44.20272018119388" lon="10.084088596077379"><ele>144.0</ele><time>2026-05-02T13:57:08Z</time></trkpt><trkpt lat="44.20269335379584" lon="10.08387770847064"><ele>146.0</ele><time>2026-05-02T13:57:09Z</time></trkpt><trkpt lat="44.202664956257124" lon="10.083679195733245"><ele>146.0</ele><time>2026-05-02T13:57:10Z</time></trkpt><trkpt lat="44.20264673817949" lon="10.083503813940492"><ele>146.0</ele><time>2026-05-02T13:57:11Z</time></trkpt><trkpt lat="44.202647722728514" lon="10.083337318135191"><ele>146.0</ele><time>2026-05-02T13:57:12Z</time></trkpt><trkpt lat="44.20267378816328" lon="10.083186734869098"><ele>146.0</ele><time>2026-05-02T13:57:13Z</time></trkpt><trkpt lat="44.20272624714307" lon="10.083050028065106"><ele>146.75</ele><time>2026-05-02T13:57:14Z</time></trkpt><trkpt lat="44.202806032987745" lon="10.0829184331105"><ele>147.5</ele><time>2026-05-02T13:57:15Z</time></trkpt><trkpt lat="44.20291070061003" lon="10.08279101005304"><ele>148.25</ele><time>2026-05-02T13:57:16Z</time></trkpt><trkpt lat="44.2030197234238" lon="10.082693255367829"><ele>149.0</ele><time>2026-05-02T13:57:17Z</time></trkpt><trkpt lat="44.203121041238006" lon="10.082630999877173"><ele>152.25</ele><time>2026-05-02T13:57:18Z</time></trkpt><trkpt lat="44.20322681129514" lon="10.082609217494486"><ele>155.5</ele><time>2026-05-02T13:57:19Z</time></trkpt><trkpt lat="44.20334182947615" lon="10.082627132274252"><ele>158.75</ele><time>2026-05-02T13:57:20Z</time></trkpt><trkpt lat="44.203469650369804" lon="10.0826853701289"><ele>162.0</ele><time>2026-05-02T13:57:21Z</time></trkpt><trkpt lat="44.20361100089972" lon="10.082770416389694"><ele>162.0</ele><time>2026-05-02T13:57:22Z</time></trkpt><trkpt lat="44.203761888317345" lon="10.082854604419571"><ele>162.0</ele><time>2026-05-02T13:57:23Z</time></trkpt><trkpt lat="44.20390637063041" lon="10.082922930903369"><ele>162.0</ele><time>2026-05-02T13:57:24Z</time></trkpt><trkpt lat="44.20403121080323" lon="10.082982607976255"><ele>162.0</ele><time>2026-05-02T13:57:25Z</time></trkpt><trkpt lat="44.20414357012682" lon="10.083052574512172"><ele>164.25</ele><time>2026-05-02T13:57:26Z</time></trkpt><trkpt lat="44.20425594599561" lon="10.083138717198842"><ele>166.5</ele><time>2026-05-02T13:57:27Z</time></trkpt><trkpt lat="44.204365965505914" lon="10.083248683264591"><ele>168.75</ele><time>2026-05-02T13:57:28Z</time></trkpt><trkpt lat="44.20446219703173" lon="10.083354349386196"><ele>171.0</ele><time>2026-05-02T13:57:29Z</time></trkpt><trkpt lat="44.204552096490865" lon="10.083437888422692"><ele>171.0</ele><time>2026-05-02T13:57:30Z</time></trkpt><trkpt lat="44.20464964168508" lon="10.083500212278626"><ele>171.0</ele><time>2026-05-02T13:57:31Z</time></trkpt><trkpt lat="44.204763278651896" lon="10.083537072896608"><ele>171.0</ele><time>2026-05-02T13:57:32Z</time></trkpt><trkpt lat="44.20488659771637" lon="10.083560652167336"><ele>171.0</ele><time>2026-05-02T13:57:33Z</time></trkpt><trkpt lat="44.20501830619388" lon="10.083571186620029"><ele>171.5</ele><time>2026-05-02T13:57:34Z</time></trkpt><trkpt lat="44.20515587658874" lon="10.083582911808469"><ele>172.0</ele><time>2026-05-02T13:57:35Z</time></trkpt><trkpt lat="44.20529046689419" lon="10.083595167750747"><ele>172.5</ele><time>2026-05-02T13:57:36Z</time></trkpt><trkpt lat="44.20541950564992" lon="10.08361619636681"><ele>173.0</ele><time>2026-05-02T13:57:37Z</time></trkpt><trkpt lat="44.20555000486684" lon="10.083640148689513"><ele>174.25</ele><time>2026-05-02T13:57:38Z</time></trkpt><trkpt lat="44.20568230124369" lon="10.083682818105679"><ele>175.5</ele><time>2026-05-02T13:57:39Z</time></trkpt><trkpt lat="44.20582003381433" lon="10.083747715450135"><ele>176.75</ele><time>2026-05-02T13:57:40Z</time></trkpt><trkpt lat="44.20593993187256" lon="10.083816358575968"><ele>178.0</ele><time>2026-05-02T13:57:41Z</time></trkpt><trkpt lat="44.206061624639126" lon="10.08387702479523"><ele>178.0</ele><time>2026-05-02T13:57:42Z</time></trkpt><trkpt lat="44.20618485139615" lon="10.083943153698923"><ele>178.0</ele><time>2026-05-02T13:57:43Z</time></trkpt><trkpt lat="44.20629730787901" lon="10.084001146306766"><ele>178.0</ele><time>2026-05-02T13:57:44Z</time></trkpt><trkpt lat="44.20640125795287" lon="10.084034610817247"><ele>178.0</ele><time>2026-05-02T13:57:45Z</time></trkpt><trkpt lat="44.20649367281679" lon="10.084048255385904"><ele>177.4</ele><time>2026-05-02T13:57:46Z</time></trkpt><trkpt lat="44.20658792048975" lon="10.084038419007399"><ele>176.8</ele><time>2026-05-02T13:57:47Z</time></trkpt><trkpt lat="44.20667443664549" lon="10.084000461436608"><ele>176.2</ele><time>2026-05-02T13:57:48Z</time></trkpt><trkpt lat="44.20676001389295" lon="10.083936494888256"><ele>175.6</ele><time>2026-05-02T13:57:49Z</time></trkpt><trkpt lat="44.20682505294626" lon="10.083853125886517"><ele>175.0</ele><time>2026-05-02T13:57:50Z</time></trkpt><trkpt lat="44.20686822941128" lon="10.083735667901458"><ele>175.0</ele><time>2026-05-02T13:57:51Z</time></trkpt><trkpt lat="44.20688262399277" lon="10.083609441780236"><ele>175.0</ele><time>2026-05-02T13:57:52Z</time></trkpt><trkpt lat="44.20686593180379" lon="10.0834748177384"><ele>175.0</ele><time>2026-05-02T13:57:53Z</time></trkpt><trkpt lat="44.20681674901677" lon="10.083350095811578"><ele>175.0</ele><time>2026-05-02T13:57:54Z</time></trkpt><trkpt lat="44.206742291821264" lon="10.08323382845179"><ele>175.0</ele><time>2026-05-02T13:57:55Z</time></trkpt><trkpt lat="44.20663046270189" lon="10.08310084812747"><ele>173.66666666666669</ele><time>2026-05-02T13:57:56Z</time></trkpt><trkpt lat="44.206494511233124" lon="10.082947508167436"><ele>172.33333333333334</ele><time>2026-05-02T13:57:57Z</time></trkpt><trkpt lat="44.20636956879183" lon="10.082801169566418"><ele>171.0</ele><time>2026-05-02T13:57:58Z</time></trkpt><trkpt lat="44.206263043688324" lon="10.082668064481139"><ele>171.0</ele><time>2026-05-02T13:57:59Z</time></trkpt><trkpt lat="44.206155668847956" lon="10.082533905906631"><ele>171.0</ele><time>2026-05-02T13:58:00Z</time></trkpt><trkpt lat="44.20605001242076" lon="10.082402530839037"><ele>171.0</ele><time>2026-05-02T13:58:01Z</time></trkpt><trkpt lat="44.205944190665136" lon="10.082272076761242"><ele>171.0</ele><time>2026-05-02T13:58:02Z</time></trkpt><trkpt lat="44.205842079745295" lon="10.082147319610108"><ele>169.5</ele><time>2026-05-02T13:58:03Z</time></trkpt><trkpt lat="44.20574536123283" lon="10.082024621372469"><ele>168.0</ele><time>2026-05-02T13:58:04Z</time></trkpt><trkpt lat="44.2056614162996" lon="10.081907526972856"><ele>166.5</ele><time>2026-05-02T13:58:05Z</time></trkpt><trkpt lat="44.2055812851143" lon="10.081788695402357"><ele>165.0</ele><time>2026-05-02T13:58:06Z</time></trkpt><trkpt lat="44.205519396869576" lon="10.08167039040486"><ele>164.83333333333334</ele><time>2026-05-02T13:58:07Z</time></trkpt><trkpt lat="44.20547351685276" lon="10.081549407244923"><ele>164.66666666666666</ele><time>2026-05-02T13:58:08Z</time></trkpt><trkpt lat="44.2054390141258" lon="10.081412291516331"><ele>164.5</ele><time>2026-05-02T13:58:09Z</time></trkpt><trkpt lat="44.205453017723976" lon="10.081291061917673"><ele>164.33333333333331</ele><time>2026-05-02T13:58:10Z</time></trkpt><trkpt lat="44.20546988839169" lon="10.08119202857996"><ele>164.16666666666666</ele><time>2026-05-02T13:58:11Z</time></trkpt><trkpt lat="44.20548458200054" lon="10.081103217664847"><ele>164.0</ele><time>2026-05-02T13:58:12Z</time></trkpt><trkpt lat="44.205564881783964" lon="10.081012399028824"><ele>164.0</ele><time>2026-05-02T13:58:14Z</time></trkpt><trkpt lat="44.20563302279701" lon="10.080994173953039"><ele>164.0</ele><time>2026-05-02T13:58:20Z</time></trkpt><trkpt lat="44.20569525061918" lon="10.080928006646538"><ele>164.0</ele><time>2026-05-02T13:58:33Z</time></trkpt><trkpt lat="44.20576817710657" lon="10.080848112337918"><ele>164.0</ele><time>2026-05-02T13:58:39Z</time></trkpt><trkpt lat="44.205745546418385" lon="10.080636459970568"><ele>164.0</ele><time>2026-05-02T13:58:40Z</time></trkpt><trkpt lat="44.20573509538034" lon="10.080459619805008"><ele>159.33333333333331</ele><time>2026-05-02T13:58:41Z</time></trkpt><trkpt lat="44.20572281733756" lon="10.080279414745918"><ele>154.66666666666666</ele><time>2026-05-02T13:58:42Z</time></trkpt><trkpt lat="44.205722952461656" lon="10.08004146341681"><ele>150.0</ele><time>2026-05-02T13:58:43Z</time></trkpt><trkpt lat="44.205746578940456" lon="10.079764759185585"><ele>150.0</ele><time>2026-05-02T13:58:44Z</time></trkpt><trkpt lat="44.20578079942339" lon="10.079495787735238"><ele>150.0</ele><time>2026-05-02T13:58:45Z</time></trkpt><trkpt lat="44.20581539630576" lon="10.079255611003706"><ele>150.0</ele><time>2026-05-02T13:58:46Z</time></trkpt><trkpt lat="44.205841709101" lon="10.079041368662567"><ele>150.5</ele><time>2026-05-02T13:58:47Z</time></trkpt><trkpt lat="44.20586773125825" lon="10.078838493395752"><ele>151.0</ele><time>2026-05-02T13:58:48Z</time></trkpt><trkpt lat="44.20589130079465" lon="10.078642426765477"><ele>151.5</ele><time>2026-05-02T13:58:49Z</time></trkpt><trkpt lat="44.20591379977354" lon="10.07845837289395"><ele>152.0</ele><time>2026-05-02T13:58:50Z</time></trkpt><trkpt lat="44.205934234849316" lon="10.078278331617508"><ele>150.25</ele><time>2026-05-02T13:58:51Z</time></trkpt><trkpt lat="44.205944848499776" lon="10.078111575066417"><ele>148.5</ele><time>2026-05-02T13:58:52Z</time></trkpt><trkpt lat="44.20592959235027" lon="10.077960529907054"><ele>146.75</ele><time>2026-05-02T13:58:53Z</time></trkpt><trkpt lat="44.20589775296337" lon="10.077789151926812"><ele>145.0</ele><time>2026-05-02T13:58:54Z</time></trkpt><trkpt lat="44.20584410853499" lon="10.077626094450414"><ele>145.0</ele><time>2026-05-02T13:58:55Z</time></trkpt><trkpt lat="44.205778197323504" lon="10.077464994190077"><ele>145.0</ele><time>2026-05-02T13:58:56Z</time></trkpt><trkpt lat="44.20570881597732" lon="10.077301345932565"><ele>145.0</ele><time>2026-05-02T13:58:57Z</time></trkpt><trkpt lat="44.20565049238987" lon="10.077127108317017"><ele>145.0</ele><time>2026-05-02T13:58:58Z</time></trkpt><trkpt lat="44.20560203940785" lon="10.076942178924748"><ele>152.5</ele><time>2026-05-02T13:58:59Z</time></trkpt><trkpt lat="44.205567994946826" lon="10.07675291306047"><ele>160.0</ele><time>2026-05-02T13:59:00Z</time></trkpt><trkpt lat="44.2055480114799" lon="10.076555454860115"><ele>167.5</ele><time>2026-05-02T13:59:01Z</time></trkpt><trkpt lat="44.2055349240344" lon="10.076338222894579"><ele>175.0</ele><time>2026-05-02T13:59:02Z</time></trkpt><trkpt lat="44.2055244438131" lon="10.076136127066277"><ele>175.25</ele><time>2026-05-02T13:59:03Z</time></trkpt><trkpt lat="44.20551667536725" lon="10.075932492076898"><ele>175.5</ele><time>2026-05-02T13:59:04Z</time></trkpt><trkpt lat="44.205509901536146" lon="10.075732992671112"><ele>175.75</ele><time>2026-05-02T13:59:05Z</time></trkpt><trkpt lat="44.205501178559864" lon="10.075524848844886"><ele>176.0</ele><time>2026-05-02T13:59:06Z</time></trkpt><trkpt lat="44.20548880822916" lon="10.075316733350276"><ele>174.75</ele><time>2026-05-02T13:59:07Z</time></trkpt><trkpt lat="44.20546694053687" lon="10.075118625762506"><ele>173.5</ele><time>2026-05-02T13:59:08Z</time></trkpt><trkpt lat="44.20542676886172" lon="10.074924346788979"><ele>172.25</ele><time>2026-05-02T13:59:09Z</time></trkpt><trkpt lat="44.20537837343426" lon="10.074727582388626"><ele>171.0</ele><time>2026-05-02T13:59:10Z</time></trkpt><trkpt lat="44.20532223307319" lon="10.074520556913212"><ele>167.25</ele><time>2026-05-02T13:59:11Z</time></trkpt><trkpt lat="44.205269071535135" lon="10.074327789993204"><ele>163.5</ele><time>2026-05-02T13:59:12Z</time></trkpt><trkpt lat="44.205217158963045" lon="10.074136347998316"><ele>159.75</ele><time>2026-05-02T13:59:13Z</time></trkpt><trkpt lat="44.20516178115661" lon="10.07394379102886"><ele>156.0</ele><time>2026-05-02T13:59:14Z</time></trkpt><trkpt lat="44.20510777180727" lon="10.073756230419795"><ele>152.25</ele><time>2026-05-02T13:59:15Z</time></trkpt><trkpt lat="44.205053558998465" lon="10.073574658924795"><ele>148.5</ele><time>2026-05-02T13:59:16Z</time></trkpt><trkpt lat="44.20500062224036" lon="10.073399133604621"><ele>144.75</ele><time>2026-05-02T13:59:17Z</time></trkpt><trkpt lat="44.20495000857065" lon="10.073223935187736"><ele>141.0</ele><time>2026-05-02T13:59:18Z</time></trkpt><trkpt lat="44.20490336632274" lon="10.07305101295657"><ele>139.75</ele><time>2026-05-02T13:59:19Z</time></trkpt><trkpt lat="44.204864972992326" lon="10.07287824828172"><ele>138.5</ele><time>2026-05-02T13:59:20Z</time></trkpt><trkpt lat="44.20480538664284" lon="10.07272800307624"><ele>137.25</ele><time>2026-05-02T13:59:21Z</time></trkpt><trkpt lat="44.204759827188724" lon="10.072570564965794"><ele>136.0</ele><time>2026-05-02T13:59:22Z</time></trkpt><trkpt lat="44.20469227332491" lon="10.072420820708034"><ele>136.0</ele><time>2026-05-02T13:59:23Z</time></trkpt><trkpt lat="44.204613196617416" lon="10.07227735950406"><ele>136.0</ele><time>2026-05-02T13:59:24Z</time></trkpt><trkpt lat="44.204524232027524" lon="10.072132588212199"><ele>136.0</ele><time>2026-05-02T13:59:25Z</time></trkpt><trkpt lat="44.204428848684636" lon="10.071979246200925"><ele>136.0</ele><time>2026-05-02T13:59:26Z</time></trkpt><trkpt lat="44.20433353071283" lon="10.071820188164239"><ele>136.0</ele><time>2026-05-02T13:59:27Z</time></trkpt><trkpt lat="44.20424337170041" lon="10.071686294712322"><ele>136.0</ele><time>2026-05-02T13:59:28Z</time></trkpt><trkpt lat="44.20413903061855" lon="10.071536001085914"><ele>136.0</ele><time>2026-05-02T13:59:29Z</time></trkpt><trkpt lat="44.204038618383436" lon="10.071379280787834"><ele>136.0</ele><time>2026-05-02T13:59:30Z</time></trkpt><trkpt lat="44.20393726683359" lon="10.071222029424668"><ele>137.75</ele><time>2026-05-02T13:59:31Z</time></trkpt><trkpt lat="44.20383466110261" lon="10.071064998424864"><ele>139.5</ele><time>2026-05-02T13:59:32Z</time></trkpt><trkpt lat="44.203736057402224" lon="10.070914626902491"><ele>141.25</ele><time>2026-05-02T13:59:33Z</time></trkpt><trkpt lat="44.20364612907954" lon="10.070779058436605"><ele>143.0</ele><time>2026-05-02T13:59:34Z</time></trkpt><trkpt lat="44.203560881818326" lon="10.070645193209964"><ele>139.5</ele><time>2026-05-02T13:59:35Z</time></trkpt><trkpt lat="44.20348036882184" lon="10.070520962035562"><ele>136.0</ele><time>2026-05-02T13:59:36Z</time></trkpt><trkpt lat="44.20340129369907" lon="10.070407141305482"><ele>132.5</ele><time>2026-05-02T13:59:37Z</time></trkpt><trkpt lat="44.20332619903955" lon="10.070292298764853"><ele>129.0</ele><time>2026-05-02T13:59:38Z</time></trkpt><trkpt lat="44.203257461550635" lon="10.070168906627535"><ele>129.0</ele><time>2026-05-02T13:59:39Z</time></trkpt><trkpt lat="44.20319729385726" lon="10.070045309272844"><ele>129.0</ele><time>2026-05-02T13:59:40Z</time></trkpt><trkpt lat="44.203176163364546" lon="10.069909391932633"><ele>129.0</ele><time>2026-05-02T13:59:41Z</time></trkpt><trkpt lat="44.20318667835726" lon="10.069772392884536"><ele>129.0</ele><time>2026-05-02T13:59:42Z</time></trkpt><trkpt lat="44.20325264943596" lon="10.069659923396687"><ele>129.0</ele><time>2026-05-02T13:59:43Z</time></trkpt><trkpt lat="44.203321242233635" lon="10.069523876279366"><ele>127.5</ele><time>2026-05-02T13:59:44Z</time></trkpt><trkpt lat="44.20340321273025" lon="10.069359326137736"><ele>126.0</ele><time>2026-05-02T13:59:45Z</time></trkpt><trkpt lat="44.203479831452874" lon="10.069207884784298"><ele>124.5</ele><time>2026-05-02T13:59:46Z</time></trkpt><trkpt lat="44.20354648436056" lon="10.069076751739546"><ele>123.0</ele><time>2026-05-02T13:59:47Z</time></trkpt><trkpt lat="44.20361006674289" lon="10.068951659646352"><ele>123.0</ele><time>2026-05-02T13:59:48Z</time></trkpt><trkpt lat="44.20367490311966" lon="10.068823503645072"><ele>123.00000000000001</ele><time>2026-05-02T13:59:49Z</time></trkpt><trkpt lat="44.20373560636416" lon="10.068695708051337"><ele>123.00000000000001</ele><time>2026-05-02T13:59:50Z</time></trkpt><trkpt lat="44.20379005378991" lon="10.068578495617452"><ele>123.0</ele><time>2026-05-02T13:59:51Z</time></trkpt><trkpt lat="44.203841903119844" lon="10.06847506145815"><ele>123.0</ele><time>2026-05-02T13:59:52Z</time></trkpt><trkpt lat="44.20389085761458" lon="10.068376289409692"><ele>123.2</ele><time>2026-05-02T13:59:53Z</time></trkpt><trkpt lat="44.203939687692184" lon="10.068260070775285"><ele>123.4</ele><time>2026-05-02T13:59:54Z</time></trkpt><trkpt lat="44.204006786756935" lon="10.068141600610195"><ele>123.60000000000001</ele><time>2026-05-02T13:59:55Z</time></trkpt><trkpt lat="44.20405942963478" lon="10.06800852947839"><ele>123.80000000000001</ele><time>2026-05-02T13:59:56Z</time></trkpt><trkpt lat="44.204098302861034" lon="10.067887481810258"><ele>124.0</ele><time>2026-05-02T13:59:57Z</time></trkpt><trkpt lat="44.20413084485732" lon="10.067774610278699"><ele>124.00000000000001</ele><time>2026-05-02T13:59:58Z</time></trkpt><trkpt lat="44.20415676841788" lon="10.067678579456881"><ele>124.0</ele><time>2026-05-02T13:59:59Z</time></trkpt><trkpt lat="44.20419027304861" lon="10.06755471926664"><ele>124.0</ele><time>2026-05-02T14:00:01Z</time></trkpt><trkpt lat="44.204219864352154" lon="10.067445325882733"><ele>124.0</ele><time>2026-05-02T14:00:03Z</time></trkpt><trkpt lat="44.20424232462719" lon="10.067362294545577"><ele>124.00000000000001</ele><time>2026-05-02T14:00:04Z</time></trkpt><trkpt lat="44.20427271083317" lon="10.067249962567342"><ele>124.0</ele><time>2026-05-02T14:00:05Z</time></trkpt><trkpt lat="44.2043093761199" lon="10.06711441801385"><ele>124.0</ele><time>2026-05-02T14:00:06Z</time></trkpt><trkpt lat="44.2043435415174" lon="10.066987896683624"><ele>124.0</ele><time>2026-05-02T14:00:07Z</time></trkpt><trkpt lat="44.20437307712473" lon="10.066877819434207"><ele>124.0</ele><time>2026-05-02T14:00:08Z</time></trkpt><trkpt lat="44.204403959311165" lon="10.066762723583297"><ele>124.0</ele><time>2026-05-02T14:00:09Z</time></trkpt><trkpt lat="44.20443884799122" lon="10.066632695801013"><ele>124.0</ele><time>2026-05-02T14:00:10Z</time></trkpt><trkpt lat="44.2044715913645" lon="10.066510663428192"><ele>123.0</ele><time>2026-05-02T14:00:11Z</time></trkpt><trkpt lat="44.20449879955887" lon="10.066373202138735"><ele>122.0</ele><time>2026-05-02T14:00:12Z</time></trkpt><trkpt lat="44.2045393877991" lon="10.066243563716029"><ele>121.0</ele><time>2026-05-02T14:00:13Z</time></trkpt><trkpt lat="44.20457897328133" lon="10.066105145916168"><ele>120.0</ele><time>2026-05-02T14:00:14Z</time></trkpt><trkpt lat="44.204611212635335" lon="10.065989814488296"><ele>119.0</ele><time>2026-05-02T14:00:15Z</time></trkpt><trkpt lat="44.20463704838558" lon="10.06586461659634"><ele>119.80000000000001</ele><time>2026-05-02T14:00:16Z</time></trkpt><trkpt lat="44.20464705960778" lon="10.06573566918196"><ele>120.60000000000001</ele><time>2026-05-02T14:00:17Z</time></trkpt><trkpt lat="44.20464419377649" lon="10.065598864794683"><ele>121.4</ele><time>2026-05-02T14:00:18Z</time></trkpt><trkpt lat="44.204634877428894" lon="10.065461594398554"><ele>122.2</ele><time>2026-05-02T14:00:19Z</time></trkpt><trkpt lat="44.20462494660962" lon="10.065331749736497"><ele>123.0</ele><time>2026-05-02T14:00:20Z</time></trkpt><trkpt lat="44.204606632355095" lon="10.065223766314364"><ele>123.0</ele><time>2026-05-02T14:00:21Z</time></trkpt><trkpt lat="44.20457567350036" lon="10.065122704420306"><ele>123.00000000000001</ele><time>2026-05-02T14:00:22Z</time></trkpt><trkpt lat="44.20451964598503" lon="10.065028842779679"><ele>123.00000000000001</ele><time>2026-05-02T14:00:23Z</time></trkpt><trkpt lat="44.20443053390567" lon="10.06492536336043"><ele>123.0</ele><time>2026-05-02T14:00:24Z</time></trkpt><trkpt lat="44.2043542681892" lon="10.064783107607049"><ele>123.0</ele><time>2026-05-02T14:00:25Z</time></trkpt><trkpt lat="44.20421750903315" lon="10.064585444218736"><ele>122.66666666666666</ele><time>2026-05-02T14:00:26Z</time></trkpt><trkpt lat="44.20407071330508" lon="10.064393405357038"><ele>122.33333333333333</ele><time>2026-05-02T14:00:27Z</time></trkpt><trkpt lat="44.20396343111569" lon="10.064220293184626"><ele>122.0</ele><time>2026-05-02T14:00:28Z</time></trkpt><trkpt lat="44.2038692963851" lon="10.064060704619711"><ele>122.0</ele><time>2026-05-02T14:00:29Z</time></trkpt><trkpt lat="44.203783109833395" lon="10.063909201282195"><ele>122.0</ele><time>2026-05-02T14:00:30Z</time></trkpt><trkpt lat="44.20370487192321" lon="10.063766631396218"><ele>122.0</ele><time>2026-05-02T14:00:31Z</time></trkpt><trkpt lat="44.20363236551212" lon="10.063628071143523"><ele>122.0</ele><time>2026-05-02T14:00:32Z</time></trkpt><trkpt lat="44.20356289598654" lon="10.06349202103088"><ele>122.0</ele><time>2026-05-02T14:00:33Z</time></trkpt><trkpt lat="44.20350028788808" lon="10.063345323662695"><ele>122.0</ele><time>2026-05-02T14:00:34Z</time></trkpt><trkpt lat="44.20343433924002" lon="10.06321776892407"><ele>122.0</ele><time>2026-05-02T14:00:35Z</time></trkpt><trkpt lat="44.20337838802783" lon="10.063080247875577"><ele>122.0</ele><time>2026-05-02T14:00:36Z</time></trkpt><trkpt lat="44.203329320159554" lon="10.062942231027883"><ele>121.0</ele><time>2026-05-02T14:00:37Z</time></trkpt><trkpt lat="44.203286595850784" lon="10.062804950552986"><ele>119.99999999999999</ele><time>2026-05-02T14:00:38Z</time></trkpt><trkpt lat="44.203248158500735" lon="10.062668924840354"><ele>118.99999999999999</ele><time>2026-05-02T14:00:39Z</time></trkpt><trkpt lat="44.203206790243875" lon="10.062531436831735"><ele>118.0</ele><time>2026-05-02T14:00:40Z</time></trkpt><trkpt lat="44.203159953255124" lon="10.062396644069505"><ele>117.0</ele><time>2026-05-02T14:00:41Z</time></trkpt><trkpt lat="44.203117443232415" lon="10.062283943633785"><ele>117.0</ele><time>2026-05-02T14:00:42Z</time></trkpt><trkpt lat="44.20307718089168" lon="10.062179183713303"><ele>116.99999999999999</ele><time>2026-05-02T14:00:43Z</time></trkpt><trkpt lat="44.20303205860185" lon="10.062057077211419"><ele>116.99999999999999</ele><time>2026-05-02T14:00:44Z</time></trkpt><trkpt lat="44.202979704513034" lon="10.0619210985476"><ele>117.0</ele><time>2026-05-02T14:00:45Z</time></trkpt><trkpt lat="44.20292432596714" lon="10.061777108938015"><ele>117.0</ele><time>2026-05-02T14:00:46Z</time></trkpt><trkpt lat="44.20286585708714" lon="10.061626376336156"><ele>118.8</ele><time>2026-05-02T14:00:47Z</time></trkpt><trkpt lat="44.20281519160562" lon="10.061487360368025"><ele>120.6</ele><time>2026-05-02T14:00:48Z</time></trkpt><trkpt lat="44.20277176704578" lon="10.061359873576928"><ele>122.39999999999999</ele><time>2026-05-02T14:00:49Z</time></trkpt><trkpt lat="44.20273007548792" lon="10.061231000782302"><ele>124.19999999999999</ele><time>2026-05-02T14:00:50Z</time></trkpt><trkpt lat="44.2026863214294" lon="10.061103202991298"><ele>126.0</ele><time>2026-05-02T14:00:51Z</time></trkpt><trkpt lat="44.202641811370746" lon="10.060975972604897"><ele>126.0</ele><time>2026-05-02T14:00:52Z</time></trkpt><trkpt lat="44.20259421554363" lon="10.060843749814062"><ele>126.0</ele><time>2026-05-02T14:00:53Z</time></trkpt><trkpt lat="44.20254479243775" lon="10.06071369687084"><ele>126.0</ele><time>2026-05-02T14:00:54Z</time></trkpt><trkpt lat="44.2024924815659" lon="10.060582239057267"><ele>126.0</ele><time>2026-05-02T14:00:55Z</time></trkpt><trkpt lat="44.202436895553106" lon="10.060451749616044"><ele>126.0</ele><time>2026-05-02T14:00:56Z</time></trkpt><trkpt lat="44.20237754705329" lon="10.060319294814422"><ele>127.0</ele><time>2026-05-02T14:00:57Z</time></trkpt><trkpt lat="44.20231659273855" lon="10.06018661672846"><ele>128.0</ele><time>2026-05-02T14:00:58Z</time></trkpt><trkpt lat="44.202251925779784" lon="10.060049869134684"><ele>129.0</ele><time>2026-05-02T14:00:59Z</time></trkpt><trkpt lat="44.20219187714065" lon="10.059916819993715"><ele>130.0</ele><time>2026-05-02T14:01:00Z</time></trkpt><trkpt lat="44.202128998545945" lon="10.059789570115596"><ele>130.0</ele><time>2026-05-02T14:01:01Z</time></trkpt><trkpt lat="44.202067392335756" lon="10.05965995617783"><ele>130.0</ele><time>2026-05-02T14:01:02Z</time></trkpt><trkpt lat="44.20199967727375" lon="10.059531874398845"><ele>130.0</ele><time>2026-05-02T14:01:03Z</time></trkpt><trkpt lat="44.20193312320625" lon="10.059406513468437"><ele>130.0</ele><time>2026-05-02T14:01:04Z</time></trkpt><trkpt lat="44.2018488733764" lon="10.059286969148406"><ele>130.0</ele><time>2026-05-02T14:01:05Z</time></trkpt><trkpt lat="44.20176063147266" lon="10.05917426839686"><ele>130.0</ele><time>2026-05-02T14:01:06Z</time></trkpt><trkpt lat="44.20166631920326" lon="10.059061277976165"><ele>130.0</ele><time>2026-05-02T14:01:07Z</time></trkpt><trkpt lat="44.201573736528104" lon="10.058950099145877"><ele>130.0</ele><time>2026-05-02T14:01:08Z</time></trkpt><trkpt lat="44.20147981177679" lon="10.058839207509761"><ele>127.25</ele><time>2026-05-02T14:01:09Z</time></trkpt><trkpt lat="44.201391193049076" lon="10.058732534684417"><ele>124.5</ele><time>2026-05-02T14:01:10Z</time></trkpt><trkpt lat="44.201299587441454" lon="10.058627853171691"><ele>121.75</ele><time>2026-05-02T14:01:11Z</time></trkpt><trkpt lat="44.20121541465635" lon="10.058521314215698"><ele>119.0</ele><time>2026-05-02T14:01:12Z</time></trkpt><trkpt lat="44.20114082850913" lon="10.058398302259736"><ele>120.5</ele><time>2026-05-02T14:01:13Z</time></trkpt><trkpt lat="44.20107879439628" lon="10.058253802300099"><ele>122.0</ele><time>2026-05-02T14:01:14Z</time></trkpt><trkpt lat="44.2010303461645" lon="10.058110760932461"><ele>123.5</ele><time>2026-05-02T14:01:15Z</time></trkpt><trkpt lat="44.20098656679446" lon="10.057960021132665"><ele>125.0</ele><time>2026-05-02T14:01:16Z</time></trkpt><trkpt lat="44.20095233336568" lon="10.057816612607734"><ele>125.0</ele><time>2026-05-02T14:01:17Z</time></trkpt><trkpt lat="44.200916899107746" lon="10.05768346467963"><ele>125.0</ele><time>2026-05-02T14:01:18Z</time></trkpt><trkpt lat="44.200880377226774" lon="10.05755319889716"><ele>125.0</ele><time>2026-05-02T14:01:19Z</time></trkpt><trkpt lat="44.20084459606144" lon="10.057417844133676"><ele>125.0</ele><time>2026-05-02T14:01:20Z</time></trkpt><trkpt lat="44.200807187873274" lon="10.057282334311935"><ele>125.0</ele><time>2026-05-02T14:01:21Z</time></trkpt><trkpt lat="44.200772062702946" lon="10.05714911136976"><ele>126.4</ele><time>2026-05-02T14:01:22Z</time></trkpt><trkpt lat="44.20073058579378" lon="10.057009644590739"><ele>127.8</ele><time>2026-05-02T14:01:23Z</time></trkpt><trkpt lat="44.200692362725455" lon="10.056873212935209"><ele>129.2</ele><time>2026-05-02T14:01:24Z</time></trkpt><trkpt lat="44.200655346900014" lon="10.056730096002537"><ele>130.6</ele><time>2026-05-02T14:01:25Z</time></trkpt><trkpt lat="44.2006209683355" lon="10.056590466233404"><ele>132.0</ele><time>2026-05-02T14:01:26Z</time></trkpt><trkpt lat="44.200581339155946" lon="10.056447033211466"><ele>128.79999999999998</ele><time>2026-05-02T14:01:27Z</time></trkpt><trkpt lat="44.20054149083524" lon="10.056304261135718"><ele>125.6</ele><time>2026-05-02T14:01:28Z</time></trkpt><trkpt lat="44.20050571638647" lon="10.05617135061492"><ele>122.39999999999999</ele><time>2026-05-02T14:01:29Z</time></trkpt><trkpt lat="44.20047661616196" lon="10.056035545141476"><ele>119.19999999999999</ele><time>2026-05-02T14:01:30Z</time></trkpt><trkpt lat="44.2004569252663" lon="10.055900586844054"><ele>116.0</ele><time>2026-05-02T14:01:31Z</time></trkpt><trkpt lat="44.20045509637704" lon="10.055748314529119"><ele>116.0</ele><time>2026-05-02T14:01:32Z</time></trkpt><trkpt lat="44.20046813060756" lon="10.055589713495406"><ele>116.0</ele><time>2026-05-02T14:01:33Z</time></trkpt><trkpt lat="44.20047808138263" lon="10.055422058258236"><ele>116.0</ele><time>2026-05-02T14:01:34Z</time></trkpt><trkpt lat="44.20048547544012" lon="10.055258153556519"><ele>116.0</ele><time>2026-05-02T14:01:35Z</time></trkpt><trkpt lat="44.20049503745495" lon="10.055090221035798"><ele>115.6</ele><time>2026-05-02T14:01:36Z</time></trkpt><trkpt lat="44.20050642073865" lon="10.054930167548184"><ele>115.19999999999999</ele><time>2026-05-02T14:01:37Z</time></trkpt><trkpt lat="44.20051338047436" lon="10.054777793921616"><ele>114.80000000000001</ele><time>2026-05-02T14:01:38Z</time></trkpt><trkpt lat="44.200522655679585" lon="10.054641637296811"><ele>114.4</ele><time>2026-05-02T14:01:39Z</time></trkpt><trkpt lat="44.20053476171401" lon="10.054505835240095"><ele>114.0</ele><time>2026-05-02T14:01:40Z</time></trkpt><trkpt lat="44.2005429109862" lon="10.054356138433192"><ele>114.0</ele><time>2026-05-02T14:01:41Z</time></trkpt><trkpt lat="44.20055415520098" lon="10.054211052515386"><ele>114.0</ele><time>2026-05-02T14:01:42Z</time></trkpt><trkpt lat="44.20056411908315" lon="10.054056040962584"><ele>114.0</ele><time>2026-05-02T14:01:43Z</time></trkpt><trkpt lat="44.2005761935005" lon="10.053900899354185"><ele>114.0</ele><time>2026-05-02T14:01:44Z</time></trkpt><trkpt lat="44.20058120903639" lon="10.053748574453296"><ele>114.0</ele><time>2026-05-02T14:01:45Z</time></trkpt><trkpt lat="44.200590108030916" lon="10.05359560605541"><ele>114.0</ele><time>2026-05-02T14:01:46Z</time></trkpt><trkpt lat="44.20060227077264" lon="10.053439011727725"><ele>114.0</ele><time>2026-05-02T14:01:47Z</time></trkpt><trkpt lat="44.20061195549433" lon="10.053284331879473"><ele>114.0</ele><time>2026-05-02T14:01:48Z</time></trkpt><trkpt lat="44.200621518516996" lon="10.053129384454003"><ele>114.0</ele><time>2026-05-02T14:01:49Z</time></trkpt><trkpt lat="44.20063177654155" lon="10.052972498365762"><ele>114.0</ele><time>2026-05-02T14:01:50Z</time></trkpt><trkpt lat="44.2006447443524" lon="10.052811073914008"><ele>114.2</ele><time>2026-05-02T14:01:51Z</time></trkpt><trkpt lat="44.2006558385197" lon="10.05264941316561"><ele>114.4</ele><time>2026-05-02T14:01:52Z</time></trkpt><trkpt lat="44.200662259362964" lon="10.052484720135354"><ele>114.6</ele><time>2026-05-02T14:01:53Z</time></trkpt><trkpt lat="44.200669722321976" lon="10.052332005711275"><ele>114.8</ele><time>2026-05-02T14:01:54Z</time></trkpt><trkpt lat="44.20067440604725" lon="10.052186098196824"><ele>115.0</ele><time>2026-05-02T14:01:55Z</time></trkpt><trkpt lat="44.200663189198735" lon="10.052030328186689"><ele>115.0</ele><time>2026-05-02T14:01:56Z</time></trkpt><trkpt lat="44.20063877064739" lon="10.051861330252043"><ele>115.0</ele><time>2026-05-02T14:01:57Z</time></trkpt><trkpt lat="44.20059359350262" lon="10.051685028725146"><ele>115.0</ele><time>2026-05-02T14:01:58Z</time></trkpt><trkpt lat="44.20053704465152" lon="10.051505994430851"><ele>115.0</ele><time>2026-05-02T14:01:59Z</time></trkpt><trkpt lat="44.2004866420095" lon="10.0513514866414"><ele>114.5</ele><time>2026-05-02T14:02:00Z</time></trkpt><trkpt lat="44.20043562383446" lon="10.051194146891616"><ele>114.0</ele><time>2026-05-02T14:02:01Z</time></trkpt><trkpt lat="44.20038920119566" lon="10.051043957662033"><ele>113.5</ele><time>2026-05-02T14:02:02Z</time></trkpt><trkpt lat="44.20034356653262" lon="10.050900268443923"><ele>113.0</ele><time>2026-05-02T14:02:03Z</time></trkpt><trkpt lat="44.20029450874703" lon="10.050753068533037"><ele>112.80000000000001</ele><time>2026-05-02T14:02:04Z</time></trkpt><trkpt lat="44.20024547069234" lon="10.050607412896047"><ele>112.60000000000001</ele><time>2026-05-02T14:02:05Z</time></trkpt><trkpt lat="44.200200099651525" lon="10.050474282097591"><ele>112.39999999999999</ele><time>2026-05-02T14:02:06Z</time></trkpt><trkpt lat="44.200154173267684" lon="10.05034763383009"><ele>112.19999999999999</ele><time>2026-05-02T14:02:07Z</time></trkpt><trkpt lat="44.20010180847022" lon="10.050252075635681"><ele>112.0</ele><time>2026-05-02T14:02:08Z</time></trkpt><trkpt lat="44.20000957999245" lon="10.050158977732522"><ele>112.0</ele><time>2026-05-02T14:02:09Z</time></trkpt><trkpt lat="44.19990783670286" lon="10.050093411808879"><ele>112.0</ele><time>2026-05-02T14:02:10Z</time></trkpt><trkpt lat="44.19978587594943" lon="10.050035154315127"><ele>112.0</ele><time>2026-05-02T14:02:11Z</time></trkpt><trkpt lat="44.199676399289906" lon="10.04995511756889"><ele>112.0</ele><time>2026-05-02T14:02:12Z</time></trkpt><trkpt lat="44.19957303261231" lon="10.04987667216984"><ele>110.25</ele><time>2026-05-02T14:02:13Z</time></trkpt><trkpt lat="44.199479345380084" lon="10.049744286826314"><ele>108.5</ele><time>2026-05-02T14:02:14Z</time></trkpt><trkpt lat="44.19939784284245" lon="10.049635622126429"><ele>106.75</ele><time>2026-05-02T14:02:15Z</time></trkpt><trkpt lat="44.199323283207235" lon="10.049520023102541"><ele>105.0</ele><time>2026-05-02T14:02:16Z</time></trkpt><trkpt lat="44.199249047781024" lon="10.049390046802737"><ele>105.0</ele><time>2026-05-02T14:02:17Z</time></trkpt><trkpt lat="44.19918584370219" lon="10.049253139590782"><ele>105.0</ele><time>2026-05-02T14:02:18Z</time></trkpt><trkpt lat="44.199124152188595" lon="10.0491039877108"><ele>105.0</ele><time>2026-05-02T14:02:19Z</time></trkpt><trkpt lat="44.1990684525328" lon="10.048950821000153"><ele>105.0</ele><time>2026-05-02T14:02:20Z</time></trkpt><trkpt lat="44.199015772061145" lon="10.048785055753662"><ele>104.75</ele><time>2026-05-02T14:02:21Z</time></trkpt><trkpt lat="44.198965985614855" lon="10.048606652448951"><ele>104.5</ele><time>2026-05-02T14:02:22Z</time></trkpt><trkpt lat="44.198917141304364" lon="10.048426612199059"><ele>104.25</ele><time>2026-05-02T14:02:23Z</time></trkpt><trkpt lat="44.19887261563664" lon="10.048261321608784"><ele>104.0</ele><time>2026-05-02T14:02:24Z</time></trkpt><trkpt lat="44.19883038855908" lon="10.04809939641931"><ele>103.75</ele><time>2026-05-02T14:02:25Z</time></trkpt><trkpt lat="44.19878260912728" lon="10.047942355510342"><ele>103.5</ele><time>2026-05-02T14:02:26Z</time></trkpt><trkpt lat="44.19874054044977" lon="10.047798847926197"><ele>103.25</ele><time>2026-05-02T14:02:27Z</time></trkpt><trkpt lat="44.19870174188032" lon="10.047650256830908"><ele>103.0</ele><time>2026-05-02T14:02:28Z</time></trkpt><trkpt lat="44.198659292164145" lon="10.047497490886995"><ele>103.0</ele><time>2026-05-02T14:02:29Z</time></trkpt><trkpt lat="44.198618992861185" lon="10.047343447472205"><ele>103.0</ele><time>2026-05-02T14:02:30Z</time></trkpt><trkpt lat="44.198573873211274" lon="10.047181224879367"><ele>103.0</ele><time>2026-05-02T14:02:31Z</time></trkpt><trkpt lat="44.198530758957126" lon="10.047018944096857"><ele>103.0</ele><time>2026-05-02T14:02:32Z</time></trkpt><trkpt lat="44.1984862789289" lon="10.046859235246144"><ele>103.0</ele><time>2026-05-02T14:02:33Z</time></trkpt><trkpt lat="44.198443484091236" lon="10.046695894490744"><ele>103.0</ele><time>2026-05-02T14:02:34Z</time></trkpt><trkpt lat="44.198403493970694" lon="10.046529865425224"><ele>103.0</ele><time>2026-05-02T14:02:35Z</time></trkpt><trkpt lat="44.19836547446422" lon="10.046364246893399"><ele>103.0</ele><time>2026-05-02T14:02:36Z</time></trkpt><trkpt lat="44.19833955395601" lon="10.046192740930083"><ele>103.0</ele><time>2026-05-02T14:02:37Z</time></trkpt><trkpt lat="44.198327776326956" lon="10.04602480203822"><ele>103.0</ele><time>2026-05-02T14:02:38Z</time></trkpt><trkpt lat="44.19832441613954" lon="10.045858024232063"><ele>103.0</ele><time>2026-05-02T14:02:39Z</time></trkpt><trkpt lat="44.19832716603747" lon="10.045694822086913"><ele>103.0</ele><time>2026-05-02T14:02:40Z</time></trkpt><trkpt lat="44.19833539154416" lon="10.045535352873916"><ele>103.25</ele><time>2026-05-02T14:02:41Z</time></trkpt><trkpt lat="44.19835236590873" lon="10.045374843874527"><ele>103.5</ele><time>2026-05-02T14:02:42Z</time></trkpt><trkpt lat="44.198367376219196" lon="10.045206431514774"><ele>103.75</ele><time>2026-05-02T14:02:43Z</time></trkpt><trkpt lat="44.198385905598755" lon="10.04504439299291"><ele>104.0</ele><time>2026-05-02T14:02:44Z</time></trkpt><trkpt lat="44.198402856040836" lon="10.044888610053539"><ele>104.0</ele><time>2026-05-02T14:02:45Z</time></trkpt><trkpt lat="44.19841455625614" lon="10.044732205345976"><ele>104.0</ele><time>2026-05-02T14:02:46Z</time></trkpt><trkpt lat="44.19841114090639" lon="10.04456834475296"><ele>104.0</ele><time>2026-05-02T14:02:47Z</time></trkpt><trkpt lat="44.19837948344105" lon="10.044401507469244"><ele>104.0</ele><time>2026-05-02T14:02:48Z</time></trkpt><trkpt lat="44.198351154977196" lon="10.044248754530221"><ele>104.25</ele><time>2026-05-02T14:02:49Z</time></trkpt><trkpt lat="44.198327948818715" lon="10.044082669192692"><ele>104.5</ele><time>2026-05-02T14:02:50Z</time></trkpt><trkpt lat="44.19830439331729" lon="10.043918567204056"><ele>104.75</ele><time>2026-05-02T14:02:51Z</time></trkpt><trkpt lat="44.198284234661934" lon="10.043750892078185"><ele>105.0</ele><time>2026-05-02T14:02:52Z</time></trkpt><trkpt lat="44.19826836187321" lon="10.043585008920678"><ele>105.0</ele><time>2026-05-02T14:02:53Z</time></trkpt><trkpt lat="44.198268777578875" lon="10.043420069065865"><ele>105.0</ele><time>2026-05-02T14:02:54Z</time></trkpt><trkpt lat="44.198273454351245" lon="10.04324518912995"><ele>105.0</ele><time>2026-05-02T14:02:55Z</time></trkpt><trkpt lat="44.19829283061976" lon="10.04307213014667"><ele>105.0</ele><time>2026-05-02T14:02:56Z</time></trkpt><trkpt lat="44.19832031209259" lon="10.042920520529563"><ele>104.75</ele><time>2026-05-02T14:02:57Z</time></trkpt><trkpt lat="44.198351843487" lon="10.042771568419743"><ele>104.5</ele><time>2026-05-02T14:02:58Z</time></trkpt><trkpt lat="44.19839302256652" lon="10.04262170570194"><ele>104.25</ele><time>2026-05-02T14:02:59Z</time></trkpt><trkpt lat="44.19843185211409" lon="10.042469962331085"><ele>104.0</ele><time>2026-05-02T14:03:00Z</time></trkpt><trkpt lat="44.19847035539341" lon="10.042324118187553"><ele>103.0</ele><time>2026-05-02T14:03:01Z</time></trkpt><trkpt lat="44.19851041078517" lon="10.042184975182138"><ele>102.0</ele><time>2026-05-02T14:03:02Z</time></trkpt><trkpt lat="44.1985512951016" lon="10.04201982027916"><ele>101.0</ele><time>2026-05-02T14:03:03Z</time></trkpt><trkpt lat="44.198593143528576" lon="10.041860425803796"><ele>100.0</ele><time>2026-05-02T14:03:04Z</time></trkpt><trkpt lat="44.198634484516695" lon="10.041706249422825"><ele>100.25</ele><time>2026-05-02T14:03:05Z</time></trkpt><trkpt lat="44.198674172821306" lon="10.041553887921202"><ele>100.5</ele><time>2026-05-02T14:03:06Z</time></trkpt><trkpt lat="44.198716522714676" lon="10.041402750010814"><ele>100.75</ele><time>2026-05-02T14:03:07Z</time></trkpt><trkpt lat="44.1987580123048" lon="10.041251269722101"><ele>101.0</ele><time>2026-05-02T14:03:08Z</time></trkpt><trkpt lat="44.1987962026403" lon="10.041107030369094"><ele>101.0</ele><time>2026-05-02T14:03:09Z</time></trkpt><trkpt lat="44.19883571755783" lon="10.040960371101736"><ele>101.0</ele><time>2026-05-02T14:03:10Z</time></trkpt><trkpt lat="44.198876227101096" lon="10.040823683920374"><ele>101.0</ele><time>2026-05-02T14:03:11Z</time></trkpt><trkpt lat="44.19891406556427" lon="10.040683808509828"><ele>101.0</ele><time>2026-05-02T14:03:12Z</time></trkpt><trkpt lat="44.19895175462408" lon="10.04054557373916"><ele>101.0</ele><time>2026-05-02T14:03:13Z</time></trkpt><trkpt lat="44.19899269467638" lon="10.040397509028837"><ele>100.75</ele><time>2026-05-02T14:03:14Z</time></trkpt><trkpt lat="44.19903594389288" lon="10.040240965010618"><ele>100.5</ele><time>2026-05-02T14:03:15Z</time></trkpt><trkpt lat="44.199080832374534" lon="10.04007306283069"><ele>100.25</ele><time>2026-05-02T14:03:16Z</time></trkpt><trkpt lat="44.199124478986285" lon="10.039911411005779"><ele>100.0</ele><time>2026-05-02T14:03:17Z</time></trkpt><trkpt lat="44.19917098548867" lon="10.039755862996243"><ele>100.0</ele><time>2026-05-02T14:03:18Z</time></trkpt><trkpt lat="44.19921966117808" lon="10.039589315339402"><ele>100.0</ele><time>2026-05-02T14:03:19Z</time></trkpt><trkpt lat="44.19927418219873" lon="10.039428937549863"><ele>100.0</ele><time>2026-05-02T14:03:20Z</time></trkpt><trkpt lat="44.19933785401992" lon="10.039273068537174"><ele>100.0</ele><time>2026-05-02T14:03:21Z</time></trkpt><trkpt lat="44.19940755197896" lon="10.039117679468722"><ele>99.25</ele><time>2026-05-02T14:03:22Z</time></trkpt><trkpt lat="44.19947998044271" lon="10.038972412919707"><ele>98.5</ele><time>2026-05-02T14:03:23Z</time></trkpt><trkpt lat="44.19955655883232" lon="10.038826275809395"><ele>97.75</ele><time>2026-05-02T14:03:24Z</time></trkpt><trkpt lat="44.199632521848535" lon="10.038692091870555"><ele>97.0</ele><time>2026-05-02T14:03:25Z</time></trkpt><trkpt lat="44.199712260670445" lon="10.038565737896844"><ele>97.0</ele><time>2026-05-02T14:03:26Z</time></trkpt><trkpt lat="44.19979779214335" lon="10.038443071795193"><ele>97.0</ele><time>2026-05-02T14:03:27Z</time></trkpt><trkpt lat="44.19989119138318" lon="10.038328639391064"><ele>97.0</ele><time>2026-05-02T14:03:28Z</time></trkpt><trkpt lat="44.19999291498721" lon="10.038221493651386"><ele>97.0</ele><time>2026-05-02T14:03:29Z</time></trkpt><trkpt lat="44.2001004953327" lon="10.038111285505964"><ele>97.25</ele><time>2026-05-02T14:03:30Z</time></trkpt><trkpt lat="44.200197927543634" lon="10.037990075965643"><ele>97.5</ele><time>2026-05-02T14:03:31Z</time></trkpt><trkpt lat="44.2002805707689" lon="10.037856147621058"><ele>97.75</ele><time>2026-05-02T14:03:32Z</time></trkpt><trkpt lat="44.20036021376157" lon="10.03771847613463"><ele>98.0</ele><time>2026-05-02T14:03:33Z</time></trkpt><trkpt lat="44.20043513695756" lon="10.037577261068527"><ele>97.25</ele><time>2026-05-02T14:03:34Z</time></trkpt><trkpt lat="44.20050964498037" lon="10.037439113110754"><ele>96.5</ele><time>2026-05-02T14:03:35Z</time></trkpt><trkpt lat="44.20058101553233" lon="10.037300611156617"><ele>95.75</ele><time>2026-05-02T14:03:36Z</time></trkpt><trkpt lat="44.200654209647226" lon="10.037166974909804"><ele>95.0</ele><time>2026-05-02T14:03:37Z</time></trkpt><trkpt lat="44.20072971495864" lon="10.037031593623373"><ele>96.0</ele><time>2026-05-02T14:03:38Z</time></trkpt><trkpt lat="44.20080437023268" lon="10.036897877068078"><ele>97.0</ele><time>2026-05-02T14:03:39Z</time></trkpt><trkpt lat="44.20087910505116" lon="10.036760550554591"><ele>98.0</ele><time>2026-05-02T14:03:40Z</time></trkpt><trkpt lat="44.20095166550892" lon="10.03662935180142"><ele>99.0</ele><time>2026-05-02T14:03:41Z</time></trkpt><trkpt lat="44.201021063222655" lon="10.03649871316424"><ele>99.0</ele><time>2026-05-02T14:03:42Z</time></trkpt><trkpt lat="44.20109092338572" lon="10.036353667804262"><ele>99.0</ele><time>2026-05-02T14:03:43Z</time></trkpt><trkpt lat="44.20115137382805" lon="10.036211698251675"><ele>99.0</ele><time>2026-05-02T14:03:44Z</time></trkpt><trkpt lat="44.201208307523444" lon="10.036050742435185"><ele>99.0</ele><time>2026-05-02T14:03:45Z</time></trkpt><trkpt lat="44.201264180501575" lon="10.035882722407969"><ele>97.5</ele><time>2026-05-02T14:03:46Z</time></trkpt><trkpt lat="44.201324497363935" lon="10.03571499750036"><ele>96.0</ele><time>2026-05-02T14:03:47Z</time></trkpt><trkpt lat="44.20137951869217" lon="10.035543452302548"><ele>94.5</ele><time>2026-05-02T14:03:48Z</time></trkpt><trkpt lat="44.201434549389404" lon="10.035380503238018"><ele>93.0</ele><time>2026-05-02T14:03:49Z</time></trkpt><trkpt lat="44.201486584635596" lon="10.03522538878507"><ele>93.80000000000001</ele><time>2026-05-02T14:03:50Z</time></trkpt><trkpt lat="44.20153471083862" lon="10.03507784804392"><ele>94.6</ele><time>2026-05-02T14:03:51Z</time></trkpt><trkpt lat="44.20158000559757" lon="10.03494013299897"><ele>95.4</ele><time>2026-05-02T14:03:52Z</time></trkpt><trkpt lat="44.2016245900738" lon="10.03480417821325"><ele>96.19999999999999</ele><time>2026-05-02T14:03:53Z</time></trkpt><trkpt lat="44.20166941265043" lon="10.03466816989266"><ele>97.0</ele><time>2026-05-02T14:03:54Z</time></trkpt><trkpt lat="44.201717149417746" lon="10.034529642553235"><ele>97.0</ele><time>2026-05-02T14:03:55Z</time></trkpt><trkpt lat="44.20176509678813" lon="10.034389791609316"><ele>97.0</ele><time>2026-05-02T14:03:56Z</time></trkpt><trkpt lat="44.20181413797323" lon="10.03424185627353"><ele>97.0</ele><time>2026-05-02T14:03:57Z</time></trkpt><trkpt lat="44.20186505914394" lon="10.03409056820547"><ele>97.0</ele><time>2026-05-02T14:03:58Z</time></trkpt><trkpt lat="44.2019157763157" lon="10.033941640042565"><ele>96.75</ele><time>2026-05-02T14:03:59Z</time></trkpt><trkpt lat="44.201968107759534" lon="10.03378982882006"><ele>96.5</ele><time>2026-05-02T14:04:00Z</time></trkpt><trkpt lat="44.202016086818084" lon="10.033650812527814"><ele>96.25</ele><time>2026-05-02T14:04:01Z</time></trkpt><trkpt lat="44.20206118050403" lon="10.03351302580614"><ele>96.0</ele><time>2026-05-02T14:04:02Z</time></trkpt><trkpt lat="44.20210881505717" lon="10.033370841255442"><ele>95.5</ele><time>2026-05-02T14:04:03Z</time></trkpt><trkpt lat="44.20215952516955" lon="10.03322061377035"><ele>95.0</ele><time>2026-05-02T14:04:04Z</time></trkpt><trkpt lat="44.20220984571986" lon="10.033070221018868"><ele>94.5</ele><time>2026-05-02T14:04:05Z</time></trkpt><trkpt lat="44.20226177259018" lon="10.032912682660415"><ele>94.0</ele><time>2026-05-02T14:04:06Z</time></trkpt><trkpt lat="44.202313118635765" lon="10.032764839740878"><ele>94.4</ele><time>2026-05-02T14:04:07Z</time></trkpt><trkpt lat="44.202361226248804" lon="10.032618037584037"><ele>94.80000000000001</ele><time>2026-05-02T14:04:08Z</time></trkpt><trkpt lat="44.20240631754042" lon="10.032483832282088"><ele>95.19999999999999</ele><time>2026-05-02T14:04:09Z</time></trkpt><trkpt lat="44.20245156936418" lon="10.032351658590212"><ele>95.6</ele><time>2026-05-02T14:04:10Z</time></trkpt><trkpt lat="44.20249136996885" lon="10.032233757896371"><ele>96.0</ele><time>2026-05-02T14:04:11Z</time></trkpt><trkpt lat="44.2025287366535" lon="10.032126521113364"><ele>96.0</ele><time>2026-05-02T14:04:12Z</time></trkpt><trkpt lat="44.20256227105117" lon="10.032023659251681"><ele>96.0</ele><time>2026-05-02T14:04:13Z</time></trkpt><trkpt lat="44.20259488807173" lon="10.031924454055424"><ele>96.0</ele><time>2026-05-02T14:04:14Z</time></trkpt><trkpt lat="44.20263019054102" lon="10.031818685558342"><ele>96.0</ele><time>2026-05-02T14:04:15Z</time></trkpt><trkpt lat="44.202665470923925" lon="10.031716963626803"><ele>96.0</ele><time>2026-05-02T14:04:16Z</time></trkpt><trkpt lat="44.20269457749537" lon="10.031619878187595"><ele>96.0</ele><time>2026-05-02T14:04:17Z</time></trkpt><trkpt lat="44.20273426409143" lon="10.03150461363697"><ele>95.6</ele><time>2026-05-02T14:04:18Z</time></trkpt><trkpt lat="44.202770430333835" lon="10.031403359496824"><ele>95.19999999999999</ele><time>2026-05-02T14:04:19Z</time></trkpt><trkpt lat="44.20281211236983" lon="10.03127793987419"><ele>94.80000000000001</ele><time>2026-05-02T14:04:20Z</time></trkpt><trkpt lat="44.20285865953188" lon="10.031134280436518"><ele>94.4</ele><time>2026-05-02T14:04:21Z</time></trkpt><trkpt lat="44.20290806684208" lon="10.030982374106273"><ele>94.0</ele><time>2026-05-02T14:04:22Z</time></trkpt><trkpt lat="44.202959531340326" lon="10.03083013226929"><ele>93.5</ele><time>2026-05-02T14:04:23Z</time></trkpt><trkpt lat="44.20301164143098" lon="10.030678213944359"><ele>93.0</ele><time>2026-05-02T14:04:24Z</time></trkpt><trkpt lat="44.20305941893673" lon="10.030529205362159"><ele>92.5</ele><time>2026-05-02T14:04:25Z</time></trkpt><trkpt lat="44.203106134077" lon="10.030387549322237"><ele>92.0</ele><time>2026-05-02T14:04:26Z</time></trkpt><trkpt lat="44.20315270239804" lon="10.030260949151245"><ele>92.19999999999999</ele><time>2026-05-02T14:04:27Z</time></trkpt><trkpt lat="44.203200229086534" lon="10.030129083509149"><ele>92.4</ele><time>2026-05-02T14:04:28Z</time></trkpt><trkpt lat="44.20324492933266" lon="10.030000692738243"><ele>92.6</ele><time>2026-05-02T14:04:29Z</time></trkpt><trkpt lat="44.20328185579591" lon="10.029860584885808"><ele>92.80000000000001</ele><time>2026-05-02T14:04:30Z</time></trkpt><trkpt lat="44.20330281906688" lon="10.029716944292048"><ele>93.0</ele><time>2026-05-02T14:04:31Z</time></trkpt><trkpt lat="44.2033007803461" lon="10.029581729088903"><ele>93.0</ele><time>2026-05-02T14:04:32Z</time></trkpt><trkpt lat="44.20327527192174" lon="10.029451288106037"><ele>93.0</ele><time>2026-05-02T14:04:33Z</time></trkpt><trkpt lat="44.20322780655473" lon="10.029325711536275"><ele>93.0</ele><time>2026-05-02T14:04:34Z</time></trkpt><trkpt lat="44.203154675055075" lon="10.02921386967104"><ele>93.0</ele><time>2026-05-02T14:04:35Z</time></trkpt><trkpt lat="44.203057997391966" lon="10.029113288202232"><ele>93.0</ele><time>2026-05-02T14:04:36Z</time></trkpt><trkpt lat="44.20294399505741" lon="10.029008045750308"><ele>91.75</ele><time>2026-05-02T14:04:37Z</time></trkpt><trkpt lat="44.20282212730448" lon="10.028905153182631"><ele>90.5</ele><time>2026-05-02T14:04:38Z</time></trkpt><trkpt lat="44.20271592757907" lon="10.028815174811587"><ele>89.25</ele><time>2026-05-02T14:04:39Z</time></trkpt><trkpt lat="44.20261887388025" lon="10.028729269146975"><ele>88.0</ele><time>2026-05-02T14:04:40Z</time></trkpt><trkpt lat="44.202523306320494" lon="10.028645910536548"><ele>88.0</ele><time>2026-05-02T14:04:41Z</time></trkpt><trkpt lat="44.20242696443547" lon="10.028567062196105"><ele>88.0</ele><time>2026-05-02T14:04:42Z</time></trkpt><trkpt lat="44.20232979767668" lon="10.028485689437929"><ele>88.0</ele><time>2026-05-02T14:04:43Z</time></trkpt><trkpt lat="44.202232407810634" lon="10.028394972347858"><ele>88.0</ele><time>2026-05-02T14:04:44Z</time></trkpt><trkpt lat="44.20215889777602" lon="10.02829781168709"><ele>88.0</ele><time>2026-05-02T14:04:45Z</time></trkpt><trkpt lat="44.20209422821019" lon="10.028182545024885"><ele>91.75</ele><time>2026-05-02T14:04:46Z</time></trkpt><trkpt lat="44.20205756271412" lon="10.028055265180207"><ele>95.5</ele><time>2026-05-02T14:04:47Z</time></trkpt><trkpt lat="44.20203532726162" lon="10.027904839951676"><ele>99.25</ele><time>2026-05-02T14:04:48Z</time></trkpt><trkpt lat="44.20204469687382" lon="10.027743312473861"><ele>103.0</ele><time>2026-05-02T14:04:49Z</time></trkpt><trkpt lat="44.20207588782592" lon="10.027570221733548"><ele>105.5</ele><time>2026-05-02T14:04:50Z</time></trkpt><trkpt lat="44.20212311164183" lon="10.027397286720891"><ele>108.0</ele><time>2026-05-02T14:04:51Z</time></trkpt><trkpt lat="44.20217396512253" lon="10.027225840130722"><ele>110.5</ele><time>2026-05-02T14:04:52Z</time></trkpt><trkpt lat="44.202222771603395" lon="10.02704715241303"><ele>113.0</ele><time>2026-05-02T14:04:53Z</time></trkpt><trkpt lat="44.2022654113205" lon="10.026868040333747"><ele>113.0</ele><time>2026-05-02T14:04:54Z</time></trkpt><trkpt lat="44.20229563101932" lon="10.026704136311926"><ele>113.0</ele><time>2026-05-02T14:04:55Z</time></trkpt><trkpt lat="44.20230943174136" lon="10.0265417195921"><ele>113.0</ele><time>2026-05-02T14:04:56Z</time></trkpt><trkpt lat="44.20230453087062" lon="10.026369800955434"><ele>113.0</ele><time>2026-05-02T14:04:57Z</time></trkpt><trkpt lat="44.202273850497534" lon="10.026191526711852"><ele>112.75</ele><time>2026-05-02T14:04:58Z</time></trkpt><trkpt lat="44.20224144018227" lon="10.026023936913434"><ele>112.5</ele><time>2026-05-02T14:04:59Z</time></trkpt><trkpt lat="44.20220786165981" lon="10.025854127415363"><ele>112.25</ele><time>2026-05-02T14:05:00Z</time></trkpt><trkpt lat="44.20217557993902" lon="10.025691020558359"><ele>112.0</ele><time>2026-05-02T14:05:01Z</time></trkpt><trkpt lat="44.20214208441435" lon="10.025524009134502"><ele>111.0</ele><time>2026-05-02T14:05:02Z</time></trkpt><trkpt lat="44.202110747271796" lon="10.025358067529691"><ele>110.0</ele><time>2026-05-02T14:05:03Z</time></trkpt><trkpt lat="44.20207685567577" lon="10.025198780472323"><ele>109.0</ele><time>2026-05-02T14:05:04Z</time></trkpt><trkpt lat="44.20204606214421" lon="10.025045420840287"><ele>108.0</ele><time>2026-05-02T14:05:05Z</time></trkpt><trkpt lat="44.20201326464562" lon="10.024893728723054"><ele>107.0</ele><time>2026-05-02T14:05:06Z</time></trkpt><trkpt lat="44.20198049774633" lon="10.024744565240862"><ele>106.0</ele><time>2026-05-02T14:05:07Z</time></trkpt><trkpt lat="44.20195055324749" lon="10.0245955611802"><ele>105.0</ele><time>2026-05-02T14:05:08Z</time></trkpt><trkpt lat="44.20192059018616" lon="10.024445286270593"><ele>104.0</ele><time>2026-05-02T14:05:09Z</time></trkpt><trkpt lat="44.20189064190366" lon="10.024288419012061"><ele>102.75</ele><time>2026-05-02T14:05:10Z</time></trkpt><trkpt lat="44.20185321197453" lon="10.02411805497408"><ele>101.5</ele><time>2026-05-02T14:05:11Z</time></trkpt><trkpt lat="44.2018129785648" lon="10.02393400818412"><ele>100.25</ele><time>2026-05-02T14:05:12Z</time></trkpt><trkpt lat="44.20177774902954" lon="10.023751443137781"><ele>99.0</ele><time>2026-05-02T14:05:13Z</time></trkpt><trkpt lat="44.2017369236771" lon="10.023559846527911"><ele>99.0</ele><time>2026-05-02T14:05:14Z</time></trkpt><trkpt lat="44.201703456295526" lon="10.02337108671848"><ele>99.0</ele><time>2026-05-02T14:05:15Z</time></trkpt><trkpt lat="44.20168055633769" lon="10.023186129442054"><ele>99.0</ele><time>2026-05-02T14:05:16Z</time></trkpt><trkpt lat="44.20162228300355" lon="10.023018194247124"><ele>99.0</ele><time>2026-05-02T14:05:17Z</time></trkpt><trkpt lat="44.201590431468816" lon="10.022863892253401"><ele>98.25</ele><time>2026-05-02T14:05:18Z</time></trkpt><trkpt lat="44.20158441497727" lon="10.022708459656492"><ele>97.5</ele><time>2026-05-02T14:05:19Z</time></trkpt><trkpt lat="44.20156944553687" lon="10.02255339119264"><ele>96.75</ele><time>2026-05-02T14:05:20Z</time></trkpt><trkpt lat="44.20155737995916" lon="10.022391358631552"><ele>96.0</ele><time>2026-05-02T14:05:21Z</time></trkpt><trkpt lat="44.20154007328374" lon="10.022231468945234"><ele>96.0</ele><time>2026-05-02T14:05:22Z</time></trkpt><trkpt lat="44.201532287164554" lon="10.02205876055213"><ele>96.0</ele><time>2026-05-02T14:05:23Z</time></trkpt><trkpt lat="44.20152404348658" lon="10.02188657186406"><ele>96.0</ele><time>2026-05-02T14:05:24Z</time></trkpt><trkpt lat="44.20151565745211" lon="10.021706851777164"><ele>96.0</ele><time>2026-05-02T14:05:25Z</time></trkpt><trkpt lat="44.201504230978166" lon="10.021534596568806"><ele>100.0</ele><time>2026-05-02T14:05:26Z</time></trkpt><trkpt lat="44.20149872964418" lon="10.021357914576443"><ele>104.0</ele><time>2026-05-02T14:05:27Z</time></trkpt><trkpt lat="44.201496459232345" lon="10.021181640583091"><ele>108.0</ele><time>2026-05-02T14:05:28Z</time></trkpt><trkpt lat="44.2014884911735" lon="10.021001283051485"><ele>112.0</ele><time>2026-05-02T14:05:29Z</time></trkpt><trkpt lat="44.20147957530375" lon="10.020821430567253"><ele>110.0</ele><time>2026-05-02T14:05:30Z</time></trkpt><trkpt lat="44.201469285745446" lon="10.02064811866689"><ele>108.0</ele><time>2026-05-02T14:05:31Z</time></trkpt><trkpt lat="44.20146704907853" lon="10.020485886163177"><ele>106.0</ele><time>2026-05-02T14:05:32Z</time></trkpt><trkpt lat="44.201459783746664" lon="10.020337027906285"><ele>104.0</ele><time>2026-05-02T14:05:33Z</time></trkpt><trkpt lat="44.201449408307816" lon="10.020174730749806"><ele>104.0</ele><time>2026-05-02T14:05:34Z</time></trkpt><trkpt lat="44.20144061681438" lon="10.02001505764691"><ele>104.0</ele><time>2026-05-02T14:05:35Z</time></trkpt><trkpt lat="44.20143140328185" lon="10.019848355923036"><ele>104.0</ele><time>2026-05-02T14:05:36Z</time></trkpt><trkpt lat="44.201427757203575" lon="10.01967007355184"><ele>104.0</ele><time>2026-05-02T14:05:37Z</time></trkpt><trkpt lat="44.20142671438649" lon="10.019494521819881"><ele>104.75</ele><time>2026-05-02T14:05:38Z</time></trkpt><trkpt lat="44.20141954754605" lon="10.019314733168214"><ele>105.5</ele><time>2026-05-02T14:05:39Z</time></trkpt><trkpt lat="44.20140859767651" lon="10.01913091896692"><ele>106.25</ele><time>2026-05-02T14:05:40Z</time></trkpt><trkpt lat="44.201400223051465" lon="10.018942805823258"><ele>107.0</ele><time>2026-05-02T14:05:41Z</time></trkpt><trkpt lat="44.20139279887097" lon="10.018756929497908"><ele>105.8</ele><time>2026-05-02T14:05:42Z</time></trkpt><trkpt lat="44.201386522655675" lon="10.018586559097047"><ele>104.6</ele><time>2026-05-02T14:05:43Z</time></trkpt><trkpt lat="44.20138381890749" lon="10.018433525643706"><ele>103.39999999999999</ele><time>2026-05-02T14:05:44Z</time></trkpt><trkpt lat="44.201373879402986" lon="10.018281214213644"><ele>102.19999999999999</ele><time>2026-05-02T14:05:45Z</time></trkpt><trkpt lat="44.20136440241934" lon="10.018134335361784"><ele>101.0</ele><time>2026-05-02T14:05:46Z</time></trkpt><trkpt lat="44.201359316496905" lon="10.017986486558653"><ele>101.0</ele><time>2026-05-02T14:05:47Z</time></trkpt><trkpt lat="44.20135542694189" lon="10.01782127631483"><ele>101.0</ele><time>2026-05-02T14:05:48Z</time></trkpt><trkpt lat="44.20135748626431" lon="10.017664763070002"><ele>101.0</ele><time>2026-05-02T14:05:49Z</time></trkpt><trkpt lat="44.201369043153115" lon="10.017542370619578"><ele>101.0</ele><time>2026-05-02T14:05:50Z</time></trkpt><trkpt lat="44.20139223173032" lon="10.017433212539606"><ele>101.0</ele><time>2026-05-02T14:05:51Z</time></trkpt><trkpt lat="44.201438555533585" lon="10.017331953323868"><ele>99.8</ele><time>2026-05-02T14:05:52Z</time></trkpt><trkpt lat="44.201506502379836" lon="10.017259274835471"><ele>98.6</ele><time>2026-05-02T14:05:53Z</time></trkpt><trkpt lat="44.20160155838094" lon="10.017223902989441"><ele>97.4</ele><time>2026-05-02T14:05:54Z</time></trkpt><trkpt lat="44.20168777828267" lon="10.01718569634343"><ele>96.2</ele><time>2026-05-02T14:05:55Z</time></trkpt><trkpt lat="44.20177777274087" lon="10.017145817043078"><ele>95.0</ele><time>2026-05-02T14:05:57Z</time></trkpt><trkpt lat="44.20177574138066" lon="10.01696041351018"><ele>95.0</ele><time>2026-05-02T14:06:02Z</time></trkpt><trkpt lat="44.201744937687685" lon="10.016873235937188"><ele>95.0</ele><time>2026-05-02T14:06:04Z</time></trkpt><trkpt lat="44.201692673939846" lon="10.016775437656083"><ele>95.0</ele><time>2026-05-02T14:06:06Z</time></trkpt><trkpt lat="44.201664188879946" lon="10.01667126614355"><ele>95.0</ele><time>2026-05-02T14:06:08Z</time></trkpt><trkpt lat="44.201643323596365" lon="10.016585658295131"><ele>95.0</ele><time>2026-05-02T14:06:10Z</time></trkpt><trkpt lat="44.201620790192706" lon="10.016503345164695"><ele>95.0</ele><time>2026-05-02T14:06:12Z</time></trkpt><trkpt lat="44.20174079253578" lon="10.016334266427798"><ele>96.6</ele><time>2026-05-02T14:06:14Z</time></trkpt><trkpt lat="44.201781127846765" lon="10.01625738377069"><ele>98.2</ele><time>2026-05-02T14:06:15Z</time></trkpt><trkpt lat="44.20184256095219" lon="10.016152070055615"><ele>99.80000000000001</ele><time>2026-05-02T14:06:17Z</time></trkpt><trkpt lat="44.201879577800696" lon="10.016070001785168"><ele>101.4</ele><time>2026-05-02T14:06:19Z</time></trkpt><trkpt lat="44.20194124316945" lon="10.015928291493184"><ele>103.0</ele><time>2026-05-02T14:06:21Z</time></trkpt><trkpt lat="44.20199446120987" lon="10.015809114521556"><ele>103.4</ele><time>2026-05-02T14:06:22Z</time></trkpt><trkpt lat="44.20205820168716" lon="10.015671771678939"><ele>103.80000000000001</ele><time>2026-05-02T14:06:23Z</time></trkpt><trkpt lat="44.202113293311776" lon="10.015535918591793"><ele>104.2</ele><time>2026-05-02T14:06:24Z</time></trkpt><trkpt lat="44.202127018759846" lon="10.015420309423341"><ele>104.6</ele><time>2026-05-02T14:06:26Z</time></trkpt><trkpt lat="44.202158166849955" lon="10.015326770671708"><ele>105.0</ele><time>2026-05-02T14:06:27Z</time></trkpt><trkpt lat="44.2021886184123" lon="10.015206930956678"><ele>105.0</ele><time>2026-05-02T14:06:29Z</time></trkpt><trkpt lat="44.202126553903234" lon="10.015121406070177"><ele>105.0</ele><time>2026-05-02T14:06:32Z</time></trkpt><trkpt lat="44.20202988213214" lon="10.015080526507411"><ele>105.0</ele><time>2026-05-02T14:06:34Z</time></trkpt><trkpt lat="44.2019350693084" lon="10.015027807462783"><ele>105.0</ele><time>2026-05-02T14:06:36Z</time></trkpt><trkpt lat="44.201828791695604" lon="10.014963451720828"><ele>105.0</ele><time>2026-05-02T14:06:38Z</time></trkpt><trkpt lat="44.20175638444543" lon="10.01495738388538"><ele>105.0</ele><time>2026-05-02T14:06:39Z</time></trkpt><trkpt lat="44.20168895298448" lon="10.014960671214439"><ele>105.0</ele><time>2026-05-02T14:06:40Z</time></trkpt><trkpt lat="44.20161212332223" lon="10.01497937420804"><ele>105.0</ele><time>2026-05-02T14:06:41Z</time></trkpt><trkpt lat="44.2015436658915" lon="10.014993377607782"><ele>105.0</ele><time>2026-05-02T14:06:42Z</time></trkpt><trkpt lat="44.201453896756156" lon="10.014997196902138"><ele>105.0</ele><time>2026-05-02T14:06:44Z</time></trkpt><trkpt lat="44.20137678419163" lon="10.01493520387798"><ele>105.0</ele><time>2026-05-02T14:06:46Z</time></trkpt><trkpt lat="44.20138151591389" lon="10.014836394870285"><ele>105.83333333333333</ele><time>2026-05-02T14:06:47Z</time></trkpt><trkpt lat="44.20133129959711" lon="10.01472109903433"><ele>106.66666666666666</ele><time>2026-05-02T14:06:50Z</time></trkpt><trkpt lat="44.20127863145871" lon="10.014599652189643"><ele>107.5</ele><time>2026-05-02T14:06:52Z</time></trkpt><trkpt lat="44.20121151950635" lon="10.014543672837004"><ele>108.33333333333333</ele><time>2026-05-02T14:06:54Z</time></trkpt><trkpt lat="44.20115056963664" lon="10.014594050148792"><ele>109.16666666666666</ele><time>2026-05-02T14:07:03Z</time></trkpt><trkpt lat="44.20107605635869" lon="10.014663032139278"><ele>110.0</ele><time>2026-05-02T14:07:05Z</time></trkpt><trkpt lat="44.201013608364555" lon="10.014721563507745"><ele>109.99999999999999</ele><time>2026-05-02T14:07:06Z</time></trkpt><trkpt lat="44.200955142392665" lon="10.014768114048518"><ele>110.0</ele><time>2026-05-02T14:07:07Z</time></trkpt><trkpt lat="44.20084775039107" lon="10.014834654618232"><ele>110.0</ele><time>2026-05-02T14:07:09Z</time></trkpt><trkpt lat="44.20078590756017" lon="10.014874068101708"><ele>110.0</ele><time>2026-05-02T14:07:10Z</time></trkpt><trkpt lat="44.200707466573995" lon="10.014909280006947"><ele>109.99999999999999</ele><time>2026-05-02T14:07:12Z</time></trkpt><trkpt lat="44.200651602509545" lon="10.01495349324806"><ele>110.0</ele><time>2026-05-02T14:07:13Z</time></trkpt><trkpt lat="44.20057504737174" lon="10.015007325979687"><ele>111.99999999999999</ele><time>2026-05-02T14:07:15Z</time></trkpt><trkpt lat="44.200520371561936" lon="10.01505550092191"><ele>114.0</ele><time>2026-05-02T14:07:16Z</time></trkpt><trkpt lat="44.200430911241206" lon="10.015129718980965"><ele>116.0</ele><time>2026-05-02T14:07:18Z</time></trkpt><trkpt lat="44.20033769097508" lon="10.015187038376773"><ele>118.0</ele><time>2026-05-02T14:07:20Z</time></trkpt><trkpt lat="44.20026595547593" lon="10.015247025490027"><ele>119.99999999999999</ele><time>2026-05-02T14:07:21Z</time></trkpt><trkpt lat="44.20019852792609" lon="10.015302944612477"><ele>122.0</ele><time>2026-05-02T14:07:22Z</time></trkpt><trkpt lat="44.20012412377951" lon="10.015365510645884"><ele>122.0</ele><time>2026-05-02T14:07:24Z</time></trkpt><trkpt lat="44.20002513617375" lon="10.015451031569894"><ele>121.99999999999999</ele><time>2026-05-02T14:07:26Z</time></trkpt><trkpt lat="44.19997108215793" lon="10.015506065326715"><ele>121.99999999999999</ele><time>2026-05-02T14:07:27Z</time></trkpt><trkpt lat="44.1998780082597" lon="10.0156261310455"><ele>122.0</ele><time>2026-05-02T14:07:29Z</time></trkpt><trkpt lat="44.199823559067724" lon="10.015688670030437"><ele>122.0</ele><time>2026-05-02T14:07:30Z</time></trkpt><trkpt lat="44.19973284868919" lon="10.015786517930362"><ele>122.99999999999999</ele><time>2026-05-02T14:07:32Z</time></trkpt><trkpt lat="44.19965142097497" lon="10.015821353762338"><ele>124.0</ele><time>2026-05-02T14:07:34Z</time></trkpt><trkpt lat="44.199565932911945" lon="10.01579370096701"><ele>125.0</ele><time>2026-05-02T14:07:36Z</time></trkpt><trkpt lat="44.19953368663312" lon="10.015692983713283"><ele>126.0</ele><time>2026-05-02T14:07:38Z</time></trkpt><trkpt lat="44.19953552662431" lon="10.015541275825884"><ele>126.99999999999999</ele><time>2026-05-02T14:07:40Z</time></trkpt><trkpt lat="44.199526712087795" lon="10.015445182037363"><ele>128.0</ele><time>2026-05-02T14:07:42Z</time></trkpt><trkpt lat="44.1994983099321" lon="10.01533619563124"><ele>128.83333333333331</ele><time>2026-05-02T14:07:44Z</time></trkpt><trkpt lat="44.1994224726598" lon="10.015264908526296"><ele>129.66666666666666</ele><time>2026-05-02T14:07:46Z</time></trkpt><trkpt lat="44.19933641506268" lon="10.015194910994996"><ele>130.5</ele><time>2026-05-02T14:07:48Z</time></trkpt><trkpt lat="44.19926021826325" lon="10.015196147384783"><ele>131.33333333333334</ele><time>2026-05-02T14:07:50Z</time></trkpt><trkpt lat="44.1991691137478" lon="10.015214674830869"><ele>132.16666666666669</ele><time>2026-05-02T14:07:52Z</time></trkpt><trkpt lat="44.19910826976098" lon="10.015144524476836"><ele>133.0</ele><time>2026-05-02T14:07:54Z</time></trkpt><trkpt lat="44.19905334672899" lon="10.01501820775075"><ele>132.6</ele><time>2026-05-02T14:07:56Z</time></trkpt><trkpt lat="44.19901534329125" lon="10.014925859318108"><ele>132.20000000000002</ele><time>2026-05-02T14:07:58Z</time></trkpt><trkpt lat="44.19891209044744" lon="10.014850360621862"><ele>131.8</ele><time>2026-05-02T14:08:00Z</time></trkpt><trkpt lat="44.198813507216336" lon="10.014880983822112"><ele>131.4</ele><time>2026-05-02T14:08:02Z</time></trkpt><trkpt lat="44.198727922446345" lon="10.014958943488082"><ele>131.0</ele><time>2026-05-02T14:08:04Z</time></trkpt><trkpt lat="44.19862645659346" lon="10.014958987672886"><ele>132.2</ele><time>2026-05-02T14:08:06Z</time></trkpt><trkpt lat="44.19854241971734" lon="10.014993956863268"><ele>133.39999999999998</ele><time>2026-05-02T14:08:08Z</time></trkpt><trkpt lat="44.198457613560535" lon="10.015070501247543"><ele>134.6</ele><time>2026-05-02T14:08:10Z</time></trkpt><trkpt lat="44.19837864599912" lon="10.015136476016087"><ele>135.79999999999998</ele><time>2026-05-02T14:08:12Z</time></trkpt><trkpt lat="44.19833894292188" lon="10.015207436715214"><ele>137.0</ele><time>2026-05-02T14:08:14Z</time></trkpt><trkpt lat="44.198246882132025" lon="10.015289126839654"><ele>137.0</ele><time>2026-05-02T14:08:16Z</time></trkpt><trkpt lat="44.19817107711044" lon="10.015397114021637"><ele>137.0</ele><time>2026-05-02T14:08:18Z</time></trkpt><trkpt lat="44.198108338221516" lon="10.015516733304135"><ele>137.0</ele><time>2026-05-02T14:08:20Z</time></trkpt><trkpt lat="44.19802269771168" lon="10.015626054799622"><ele>137.0</ele><time>2026-05-02T14:08:22Z</time></trkpt><trkpt lat="44.19796721894965" lon="10.015680394649536"><ele>137.0</ele><time>2026-05-02T14:08:23Z</time></trkpt><trkpt lat="44.197899884855595" lon="10.01574012040279"><ele>136.83333333333331</ele><time>2026-05-02T14:08:24Z</time></trkpt><trkpt lat="44.19783144853896" lon="10.015800913677353"><ele>136.66666666666666</ele><time>2026-05-02T14:08:25Z</time></trkpt><trkpt lat="44.19776619693043" lon="10.015869912149007"><ele>136.5</ele><time>2026-05-02T14:08:26Z</time></trkpt><trkpt lat="44.19769667456557" lon="10.015952437837633"><ele>136.33333333333334</ele><time>2026-05-02T14:08:27Z</time></trkpt><trkpt lat="44.19764764953572" lon="10.016018875947791"><ele>136.16666666666669</ele><time>2026-05-02T14:08:28Z</time></trkpt><trkpt lat="44.197538759654975" lon="10.016096131716985"><ele>136.0</ele><time>2026-05-02T14:08:30Z</time></trkpt><trkpt lat="44.19747790001123" lon="10.016129076265708"><ele>138.0</ele><time>2026-05-02T14:08:31Z</time></trkpt><trkpt lat="44.19740223840729" lon="10.016164261524757"><ele>140.0</ele><time>2026-05-02T14:08:33Z</time></trkpt><trkpt lat="44.19730716277307" lon="10.01622371578473"><ele>142.0</ele><time>2026-05-02T14:08:35Z</time></trkpt><trkpt lat="44.19724800525368" lon="10.016270852610772"><ele>144.0</ele><time>2026-05-02T14:08:36Z</time></trkpt><trkpt lat="44.19713294653325" lon="10.016306214761324"><ele>146.0</ele><time>2026-05-02T14:08:38Z</time></trkpt><trkpt lat="44.197019226039565" lon="10.016293427450151"><ele>146.0</ele><time>2026-05-02T14:08:40Z</time></trkpt><trkpt lat="44.19689375062515" lon="10.016290644110418"><ele>146.0</ele><time>2026-05-02T14:08:42Z</time></trkpt><trkpt lat="44.19682074382698" lon="10.01631852057296"><ele>146.0</ele><time>2026-05-02T14:08:43Z</time></trkpt><trkpt lat="44.19674547929787" lon="10.01634676195106"><ele>146.0</ele><time>2026-05-02T14:08:44Z</time></trkpt><trkpt lat="44.19667585609668" lon="10.016363906275892"><ele>146.0</ele><time>2026-05-02T14:08:45Z</time></trkpt><trkpt lat="44.19661230049646" lon="10.016384462291242"><ele>146.0</ele><time>2026-05-02T14:08:46Z</time></trkpt><trkpt lat="44.196535308474054" lon="10.016407313115172"><ele>147.83333333333331</ele><time>2026-05-02T14:08:47Z</time></trkpt><trkpt lat="44.19644575786501" lon="10.016440184414584"><ele>149.66666666666666</ele><time>2026-05-02T14:08:48Z</time></trkpt><trkpt lat="44.196362060782064" lon="10.016468924504428"><ele>151.5</ele><time>2026-05-02T14:08:49Z</time></trkpt><trkpt lat="44.19627460929117" lon="10.016498839327024"><ele>153.33333333333334</ele><time>2026-05-02T14:08:50Z</time></trkpt><trkpt lat="44.19618666421232" lon="10.01653427026164"><ele>155.16666666666669</ele><time>2026-05-02T14:08:51Z</time></trkpt><trkpt lat="44.19610396922214" lon="10.01655811151369"><ele>157.0</ele><time>2026-05-02T14:08:52Z</time></trkpt><trkpt lat="44.196017790452686" lon="10.016583125980912"><ele>157.0</ele><time>2026-05-02T14:08:53Z</time></trkpt><trkpt lat="44.19595065423262" lon="10.016599890570577"><ele>157.0</ele><time>2026-05-02T14:08:54Z</time></trkpt><trkpt lat="44.195887979859656" lon="10.016609496126447"><ele>157.0</ele><time>2026-05-02T14:08:55Z</time></trkpt><trkpt lat="44.195797556793934" lon="10.016608151323249"><ele>157.0</ele><time>2026-05-02T14:08:57Z</time></trkpt><trkpt lat="44.19574633559248" lon="10.016554824254335"><ele>157.0</ele><time>2026-05-02T14:09:50Z</time></trkpt><trkpt lat="44.19565819850662" lon="10.016496688754458"><ele>157.0</ele><time>2026-05-02T14:09:52Z</time></trkpt><trkpt lat="44.195547206397976" lon="10.016446624716583"><ele>157.0</ele><time>2026-05-02T14:09:54Z</time></trkpt><trkpt lat="44.19547305933049" lon="10.016372241778752"><ele>157.0</ele><time>2026-05-02T14:09:56Z</time></trkpt><trkpt lat="44.195466757084574" lon="10.016235205806273"><ele>157.0</ele><time>2026-05-02T14:09:59Z</time></trkpt><trkpt lat="44.19549849902464" lon="10.016131995411012"><ele>157.0</ele><time>2026-05-02T14:10:01Z</time></trkpt><trkpt lat="44.195559677081185" lon="10.016098453896662"><ele>157.0</ele><time>2026-05-02T14:10:03Z</time></trkpt><trkpt lat="44.195676326336894" lon="10.016122128818555"><ele>157.0</ele><time>2026-05-02T14:10:05Z</time></trkpt><trkpt lat="44.19571063231138" lon="10.01604527501542"><ele>157.0</ele><time>2026-05-02T14:10:07Z</time></trkpt><trkpt lat="44.19574682839045" lon="10.015937455131414"><ele>157.0</ele><time>2026-05-02T14:10:09Z</time></trkpt><trkpt lat="44.195753650036444" lon="10.0158475841083"><ele>157.0</ele><time>2026-05-02T14:10:10Z</time></trkpt><trkpt lat="44.19578083604937" lon="10.015738382454412"><ele>157.0</ele><time>2026-05-02T14:10:12Z</time></trkpt><trkpt lat="44.19583026643904" lon="10.01561068387804"><ele>157.0</ele><time>2026-05-02T14:10:14Z</time></trkpt><trkpt lat="44.195887903769524" lon="10.015512700798675"><ele>158.33333333333334</ele><time>2026-05-02T14:10:16Z</time></trkpt><trkpt lat="44.19594226854078" lon="10.01542303494795"><ele>159.66666666666669</ele><time>2026-05-02T14:10:18Z</time></trkpt><trkpt lat="44.19599846307153" lon="10.015325838176171"><ele>161.0</ele><time>2026-05-02T14:10:20Z</time></trkpt><trkpt lat="44.19605861175281" lon="10.015262928117268"><ele>162.33333333333334</ele><time>2026-05-02T14:10:22Z</time></trkpt><trkpt lat="44.19605592290055" lon="10.015144585052823"><ele>163.66666666666666</ele><time>2026-05-02T14:10:24Z</time></trkpt><trkpt lat="44.19598740448063" lon="10.015079053479193"><ele>165.0</ele><time>2026-05-02T14:10:26Z</time></trkpt><trkpt lat="44.19591645271317" lon="10.015036021187024"><ele>165.0</ele><time>2026-05-02T14:10:28Z</time></trkpt><trkpt lat="44.19584608162084" lon="10.015082774116381"><ele>165.0</ele><time>2026-05-02T14:10:29Z</time></trkpt><trkpt lat="44.19578695319714" lon="10.014994314919528"><ele>165.0</ele><time>2026-05-02T14:10:31Z</time></trkpt><trkpt lat="44.19572296331058" lon="10.01490297386433"><ele>165.0</ele><time>2026-05-02T14:10:34Z</time></trkpt><trkpt lat="44.19563550951847" lon="10.014845708565085"><ele>165.0</ele><time>2026-05-02T14:10:36Z</time></trkpt><trkpt lat="44.195550054925604" lon="10.01480274413835"><ele>165.0</ele><time>2026-05-02T14:10:38Z</time></trkpt><trkpt lat="44.1954888196842" lon="10.014674943646149"><ele>168.66666666666666</ele><time>2026-05-02T14:10:40Z</time></trkpt><trkpt lat="44.195452196027496" lon="10.014554877725388"><ele>172.33333333333334</ele><time>2026-05-02T14:10:42Z</time></trkpt><trkpt lat="44.19543055352628" lon="10.014448384864506"><ele>176.0</ele><time>2026-05-02T14:10:44Z</time></trkpt><trkpt lat="44.19538588313878" lon="10.014365919936843"><ele>179.66666666666669</ele><time>2026-05-02T14:10:46Z</time></trkpt><trkpt lat="44.19535737300172" lon="10.014251324315499"><ele>183.33333333333334</ele><time>2026-05-02T14:10:48Z</time></trkpt><trkpt lat="44.19535025424852" lon="10.01414148867808"><ele>187.0</ele><time>2026-05-02T14:10:50Z</time></trkpt><trkpt lat="44.19527492267562" lon="10.01382063474296"><ele>187.16666666666669</ele><time>2026-05-02T14:10:52Z</time></trkpt><trkpt lat="44.19523784949103" lon="10.013694115633854"><ele>187.33333333333334</ele><time>2026-05-02T14:10:54Z</time></trkpt><trkpt lat="44.19521290178094" lon="10.013598992835059"><ele>187.5</ele><time>2026-05-02T14:10:56Z</time></trkpt><trkpt lat="44.195288098541205" lon="10.013585946804339"><ele>187.66666666666666</ele><time>2026-05-02T14:11:16Z</time></trkpt><trkpt lat="44.195341934418025" lon="10.013452194072329"><ele>187.83333333333331</ele><time>2026-05-02T14:11:18Z</time></trkpt><trkpt lat="44.19536853812856" lon="10.013365002190936"><ele>188.0</ele><time>2026-05-02T14:11:19Z</time></trkpt><trkpt lat="44.195403276608495" lon="10.013220090659269"><ele>187.5</ele><time>2026-05-02T14:11:21Z</time></trkpt><trkpt lat="44.19539435737634" lon="10.01312658916613"><ele>187.0</ele><time>2026-05-02T14:11:22Z</time></trkpt><trkpt lat="44.19536696813125" lon="10.013006324434297"><ele>186.5</ele><time>2026-05-02T14:11:23Z</time></trkpt><trkpt lat="44.19533819105189" lon="10.012864227896626"><ele>186.0</ele><time>2026-05-02T14:11:24Z</time></trkpt><trkpt lat="44.19532324081865" lon="10.012739669970438"><ele>185.5</ele><time>2026-05-02T14:11:25Z</time></trkpt><trkpt lat="44.195298783935456" lon="10.012617732570849"><ele>185.0</ele><time>2026-05-02T14:11:26Z</time></trkpt><trkpt lat="44.19525905998443" lon="10.012496064680647"><ele>184.83333333333331</ele><time>2026-05-02T14:11:27Z</time></trkpt><trkpt lat="44.19521075881849" lon="10.012377197052999"><ele>184.66666666666666</ele><time>2026-05-02T14:11:28Z</time></trkpt><trkpt lat="44.19517131478767" lon="10.012279827947175"><ele>184.5</ele><time>2026-05-02T14:11:29Z</time></trkpt><trkpt lat="44.19514006241331" lon="10.012185777870615"><ele>184.33333333333334</ele><time>2026-05-02T14:11:30Z</time></trkpt><trkpt lat="44.1950980010457" lon="10.012046573508325"><ele>184.16666666666669</ele><time>2026-05-02T14:11:32Z</time></trkpt><trkpt lat="44.195143264766365" lon="10.011952169863017"><ele>184.0</ele><time>2026-05-02T14:11:37Z</time></trkpt><trkpt lat="44.1951824246738" lon="10.011859582626991"><ele>184.0</ele><time>2026-05-02T14:11:38Z</time></trkpt><trkpt lat="44.19521447259767" lon="10.011781796603607"><ele>184.0</ele><time>2026-05-02T14:11:39Z</time></trkpt><trkpt lat="44.19530831444715" lon="10.011725031951892"><ele>184.0</ele><time>2026-05-02T14:11:41Z</time></trkpt><trkpt lat="44.19541934769675" lon="10.011801589431998"><ele>184.0</ele><time>2026-05-02T14:11:43Z</time></trkpt><trkpt lat="44.19548030769816" lon="10.011863733042883"><ele>184.0</ele><time>2026-05-02T14:11:44Z</time></trkpt><trkpt lat="44.19554256083272" lon="10.011902141678485"><ele>184.0</ele><time>2026-05-02T14:11:46Z</time></trkpt><trkpt lat="44.19557615204932" lon="10.011812789161109"><ele>183.5</ele><time>2026-05-02T14:11:48Z</time></trkpt><trkpt lat="44.195568875438134" lon="10.011653847544478"><ele>183.0</ele><time>2026-05-02T14:11:50Z</time></trkpt><trkpt lat="44.19559269577173" lon="10.011531303965205"><ele>182.5</ele><time>2026-05-02T14:11:52Z</time></trkpt><trkpt lat="44.195657016400865" lon="10.011506377676868"><ele>182.0</ele><time>2026-05-02T14:11:53Z</time></trkpt><trkpt lat="44.19571501258281" lon="10.011459515170973"><ele>181.5</ele><time>2026-05-02T14:11:54Z</time></trkpt><trkpt lat="44.195790438757086" lon="10.011400754495625"><ele>181.0</ele><time>2026-05-02T14:11:55Z</time></trkpt><trkpt lat="44.19586258258665" lon="10.011347975573134"><ele>182.8</ele><time>2026-05-02T14:11:56Z</time></trkpt><trkpt lat="44.19594220199967" lon="10.011303110884658"><ele>184.60000000000002</ele><time>2026-05-02T14:11:57Z</time></trkpt><trkpt lat="44.19603316486802" lon="10.01125059786328"><ele>186.4</ele><time>2026-05-02T14:11:58Z</time></trkpt><trkpt lat="44.19612702885776" lon="10.011179046121551"><ele>188.2</ele><time>2026-05-02T14:11:59Z</time></trkpt><trkpt lat="44.19624081024546" lon="10.011094210261266"><ele>190.0</ele><time>2026-05-02T14:12:00Z</time></trkpt><trkpt lat="44.196340024210734" lon="10.011039373493231"><ele>190.0</ele><time>2026-05-02T14:12:01Z</time></trkpt><trkpt lat="44.19643639038312" lon="10.010987222435896"><ele>190.0</ele><time>2026-05-02T14:12:02Z</time></trkpt><trkpt lat="44.19649459166445" lon="10.010913900824638"><ele>190.0</ele><time>2026-05-02T14:12:03Z</time></trkpt><trkpt lat="44.19655545127811" lon="10.010858502195044"><ele>190.0</ele><time>2026-05-02T14:12:04Z</time></trkpt><trkpt lat="44.196614023884585" lon="10.010785598459783"><ele>190.0</ele><time>2026-05-02T14:12:05Z</time></trkpt><trkpt lat="44.1966759684874" lon="10.010666516454402"><ele>190.0</ele><time>2026-05-02T14:12:06Z</time></trkpt><trkpt lat="44.19673781757159" lon="10.010562506267176"><ele>190.33333333333334</ele><time>2026-05-02T14:12:07Z</time></trkpt><trkpt lat="44.19679665438499" lon="10.01046203407216"><ele>190.66666666666669</ele><time>2026-05-02T14:12:08Z</time></trkpt><trkpt lat="44.196845107208915" lon="10.010384365501128"><ele>191.0</ele><time>2026-05-02T14:12:09Z</time></trkpt><trkpt lat="44.19688960914338" lon="10.010276246963407"><ele>191.33333333333334</ele><time>2026-05-02T14:12:10Z</time></trkpt><trkpt lat="44.19693687162311" lon="10.010141885672171"><ele>191.66666666666666</ele><time>2026-05-02T14:12:11Z</time></trkpt><trkpt lat="44.196951887617494" lon="10.010023863877464"><ele>192.0</ele><time>2026-05-02T14:12:12Z</time></trkpt><trkpt lat="44.19696694716944" lon="10.009896304193461"><ele>192.0</ele><time>2026-05-02T14:12:13Z</time></trkpt><trkpt lat="44.19700196696966" lon="10.009792521767034"><ele>192.0</ele><time>2026-05-02T14:12:14Z</time></trkpt><trkpt lat="44.197050851183064" lon="10.009670985617246"><ele>192.0</ele><time>2026-05-02T14:12:15Z</time></trkpt><trkpt lat="44.197102257995915" lon="10.00955295057889"><ele>192.0</ele><time>2026-05-02T14:12:16Z</time></trkpt><trkpt lat="44.1971516021755" lon="10.00944354839922"><ele>192.0</ele><time>2026-05-02T14:12:17Z</time></trkpt><trkpt lat="44.19719472129598" lon="10.009322395334204"><ele>192.0</ele><time>2026-05-02T14:12:18Z</time></trkpt><trkpt lat="44.19723638268151" lon="10.009217039341225"><ele>192.0</ele><time>2026-05-02T14:12:19Z</time></trkpt><trkpt lat="44.1972741371274" lon="10.009130238725135"><ele>192.0</ele><time>2026-05-02T14:12:20Z</time></trkpt><trkpt lat="44.197295330977674" lon="10.008981020423775"><ele>192.0</ele><time>2026-05-02T14:12:22Z</time></trkpt><trkpt lat="44.19729037560815" lon="10.008885286828129"><ele>192.0</ele><time>2026-05-02T14:12:23Z</time></trkpt><trkpt lat="44.197279767992484" lon="10.008790257950471"><ele>192.0</ele><time>2026-05-02T14:12:24Z</time></trkpt><trkpt lat="44.19726126100837" lon="10.008693650800891"><ele>192.5</ele><time>2026-05-02T14:12:25Z</time></trkpt><trkpt lat="44.197239529468746" lon="10.008606177206604"><ele>193.0</ele><time>2026-05-02T14:12:26Z</time></trkpt><trkpt lat="44.19720948723877" lon="10.008527771808177"><ele>193.5</ele><time>2026-05-02T14:12:27Z</time></trkpt><trkpt lat="44.19715761944479" lon="10.008422727476185"><ele>194.0</ele><time>2026-05-02T14:12:28Z</time></trkpt><trkpt lat="44.197111081858665" lon="10.008311191377135"><ele>194.5</ele><time>2026-05-02T14:12:29Z</time></trkpt><trkpt lat="44.19706153732071" lon="10.008203101145918"><ele>195.0</ele><time>2026-05-02T14:12:30Z</time></trkpt><trkpt lat="44.197006538838686" lon="10.008104292979201"><ele>195.33333333333334</ele><time>2026-05-02T14:12:31Z</time></trkpt><trkpt lat="44.19697892596775" lon="10.007929854523896"><ele>195.66666666666669</ele><time>2026-05-02T14:12:33Z</time></trkpt><trkpt lat="44.19699445382491" lon="10.007816696326268"><ele>196.0</ele><time>2026-05-02T14:12:34Z</time></trkpt><trkpt lat="44.19699445942995" lon="10.007723702356857"><ele>196.33333333333334</ele><time>2026-05-02T14:12:35Z</time></trkpt><trkpt lat="44.19697373967966" lon="10.007625240735592"><ele>196.66666666666669</ele><time>2026-05-02T14:12:36Z</time></trkpt><trkpt lat="44.19694656459674" lon="10.007530999219895"><ele>197.0</ele><time>2026-05-02T14:12:37Z</time></trkpt><trkpt lat="44.19693778132911" lon="10.007436636112296"><ele>195.2</ele><time>2026-05-02T14:12:38Z</time></trkpt><trkpt lat="44.19701834893484" lon="10.007306483249666"><ele>193.39999999999998</ele><time>2026-05-02T14:12:40Z</time></trkpt><trkpt lat="44.1970597048146" lon="10.007222335263927"><ele>191.60000000000002</ele><time>2026-05-02T14:12:41Z</time></trkpt><trkpt lat="44.19707405146912" lon="10.007075456538708"><ele>189.8</ele><time>2026-05-02T14:12:43Z</time></trkpt><trkpt lat="44.197065443033935" lon="10.006918578035046"><ele>188.0</ele><time>2026-05-02T14:12:45Z</time></trkpt><trkpt lat="44.197086743489045" lon="10.0068172703379"><ele>188.0</ele><time>2026-05-02T14:12:46Z</time></trkpt><trkpt lat="44.19711222696382" lon="10.006695492129019"><ele>188.0</ele><time>2026-05-02T14:12:47Z</time></trkpt><trkpt lat="44.197137446949654" lon="10.006589836180673"><ele>188.0</ele><time>2026-05-02T14:12:48Z</time></trkpt><trkpt lat="44.1971675004957" lon="10.006498166760371"><ele>188.0</ele><time>2026-05-02T14:12:49Z</time></trkpt><trkpt lat="44.1971898793314" lon="10.006395804688573"><ele>188.0</ele><time>2026-05-02T14:12:50Z</time></trkpt><trkpt lat="44.19719039686821" lon="10.006220785198156"><ele>188.0</ele><time>2026-05-02T14:12:52Z</time></trkpt><trkpt lat="44.19718270022559" lon="10.006128191879327"><ele>185.66666666666666</ele><time>2026-05-02T14:12:53Z</time></trkpt><trkpt lat="44.19720733595709" lon="10.00597065158161"><ele>183.33333333333331</ele><time>2026-05-02T14:12:55Z</time></trkpt><trkpt lat="44.197226486052806" lon="10.005877809511603"><ele>181.0</ele><time>2026-05-02T14:12:56Z</time></trkpt><trkpt lat="44.197259340111394" lon="10.00578478457714"><ele>178.66666666666666</ele><time>2026-05-02T14:12:57Z</time></trkpt><trkpt lat="44.19732045523357" lon="10.005724963620086"><ele>176.33333333333334</ele><time>2026-05-02T14:12:58Z</time></trkpt><trkpt lat="44.197353109215896" lon="10.005620148898217"><ele>174.0</ele><time>2026-05-02T14:12:59Z</time></trkpt><trkpt lat="44.197399895524356" lon="10.005466480124406"><ele>172.83333333333334</ele><time>2026-05-02T14:13:01Z</time></trkpt><trkpt lat="44.19741086127375" lon="10.005355235974077"><ele>171.66666666666666</ele><time>2026-05-02T14:13:02Z</time></trkpt><trkpt lat="44.197420269104505" lon="10.005227734047528"><ele>170.5</ele><time>2026-05-02T14:13:03Z</time></trkpt><trkpt lat="44.19742891578459" lon="10.005131259299372"><ele>169.33333333333331</ele><time>2026-05-02T14:13:04Z</time></trkpt><trkpt lat="44.19745052617639" lon="10.005007010387574"><ele>168.16666666666666</ele><time>2026-05-02T14:13:06Z</time></trkpt><trkpt lat="44.19751761074814" lon="10.004987869408613"><ele>167.0</ele><time>2026-05-02T14:13:08Z</time></trkpt><trkpt lat="44.197589076620744" lon="10.005087100373494"><ele>167.0</ele><time>2026-05-02T14:13:10Z</time></trkpt><trkpt lat="44.19767446335378" lon="10.005227362441483"><ele>167.0</ele><time>2026-05-02T14:13:12Z</time></trkpt><trkpt lat="44.197722957631626" lon="10.005299108514865"><ele>167.0</ele><time>2026-05-02T14:13:13Z</time></trkpt><trkpt lat="44.19776372306516" lon="10.005377157985071"><ele>167.0</ele><time>2026-05-02T14:13:14Z</time></trkpt><trkpt lat="44.19782427452831" lon="10.005472135665526"><ele>167.0</ele><time>2026-05-02T14:13:16Z</time></trkpt><trkpt lat="44.19791860555568" lon="10.005495938677901"><ele>167.0</ele><time>2026-05-02T14:13:18Z</time></trkpt><trkpt lat="44.198036330495505" lon="10.005475687456602"><ele>167.0</ele><time>2026-05-02T14:13:20Z</time></trkpt><trkpt lat="44.198099419106946" lon="10.005460477924176"><ele>167.0</ele><time>2026-05-02T14:13:21Z</time></trkpt><trkpt lat="44.19816273569188" lon="10.005442220490508"><ele>167.0</ele><time>2026-05-02T14:13:22Z</time></trkpt><trkpt lat="44.19822501783754" lon="10.00542769146793"><ele>167.0</ele><time>2026-05-02T14:13:23Z</time></trkpt><trkpt lat="44.198296218692604" lon="10.00540456178525"><ele>167.0</ele><time>2026-05-02T14:13:24Z</time></trkpt><trkpt lat="44.19837281455701" lon="10.005383154583223"><ele>164.79999999999998</ele><time>2026-05-02T14:13:25Z</time></trkpt><trkpt lat="44.19844252488307" lon="10.005369286424333"><ele>162.6</ele><time>2026-05-02T14:13:26Z</time></trkpt><trkpt lat="44.19852694393283" lon="10.005230982311696"><ele>160.39999999999998</ele><time>2026-05-02T14:13:28Z</time></trkpt><trkpt lat="44.19858412771084" lon="10.00518633690365"><ele>158.2</ele><time>2026-05-02T14:13:29Z</time></trkpt><trkpt lat="44.19868907601194" lon="10.005122382792402"><ele>156.0</ele><time>2026-05-02T14:13:31Z</time></trkpt><trkpt lat="44.19876439498129" lon="10.005112521868888"><ele>156.0</ele><time>2026-05-02T14:13:34Z</time></trkpt><trkpt lat="44.19879557659618" lon="10.005203628792778"><ele>156.0</ele><time>2026-05-02T14:13:53Z</time></trkpt><trkpt lat="44.19887334098897" lon="10.005203938880138"><ele>156.0</ele><time>2026-05-02T14:13:55Z</time></trkpt><trkpt lat="44.19893815092815" lon="10.005182661602145"><ele>156.0</ele><time>2026-05-02T14:13:56Z</time></trkpt><trkpt lat="44.19901524467816" lon="10.005143394121463"><ele>156.0</ele><time>2026-05-02T14:13:57Z</time></trkpt><trkpt lat="44.19908355730383" lon="10.005092810165465"><ele>156.0</ele><time>2026-05-02T14:13:58Z</time></trkpt><trkpt lat="44.199144258661" lon="10.005038918631923"><ele>156.0</ele><time>2026-05-02T14:13:59Z</time></trkpt><trkpt lat="44.19920277168424" lon="10.004970985981721"><ele>153.2</ele><time>2026-05-02T14:14:00Z</time></trkpt><trkpt lat="44.199263550607355" lon="10.00487811808157"><ele>150.39999999999998</ele><time>2026-05-02T14:14:01Z</time></trkpt><trkpt lat="44.19931466413741" lon="10.004778356504088"><ele>147.6</ele><time>2026-05-02T14:14:02Z</time></trkpt><trkpt lat="44.19938959394164" lon="10.004639683683084"><ele>144.79999999999998</ele><time>2026-05-02T14:14:04Z</time></trkpt><trkpt lat="44.19948705465201" lon="10.004523047135937"><ele>142.0</ele><time>2026-05-02T14:14:06Z</time></trkpt><trkpt lat="44.199540231173145" lon="10.004463508978205"><ele>142.0</ele><time>2026-05-02T14:14:07Z</time></trkpt><trkpt lat="44.19963805284071" lon="10.004354666721897"><ele>142.0</ele><time>2026-05-02T14:14:09Z</time></trkpt><trkpt lat="44.19974882829312" lon="10.0042600044177"><ele>142.0</ele><time>2026-05-02T14:14:11Z</time></trkpt><trkpt lat="44.199818814121464" lon="10.004215150259176"><ele>142.0</ele><time>2026-05-02T14:14:12Z</time></trkpt><trkpt lat="44.19990313985531" lon="10.004164190202399"><ele>142.0</ele><time>2026-05-02T14:14:13Z</time></trkpt><trkpt lat="44.19996874325318" lon="10.004106164798527"><ele>140.5</ele><time>2026-05-02T14:14:14Z</time></trkpt><trkpt lat="44.20002634432203" lon="10.004018622474197"><ele>139.0</ele><time>2026-05-02T14:14:15Z</time></trkpt><trkpt lat="44.200070707123196" lon="10.00392861492246"><ele>137.5</ele><time>2026-05-02T14:14:16Z</time></trkpt><trkpt lat="44.20011114390831" lon="10.00383558004337"><ele>136.0</ele><time>2026-05-02T14:14:17Z</time></trkpt><trkpt lat="44.200142047922235" lon="10.003755044661865"><ele>134.5</ele><time>2026-05-02T14:14:18Z</time></trkpt><trkpt lat="44.200184780296254" lon="10.003602539141106"><ele>133.0</ele><time>2026-05-02T14:14:20Z</time></trkpt><trkpt lat="44.2002149023263" lon="10.003441107269206"><ele>131.33333333333334</ele><time>2026-05-02T14:14:22Z</time></trkpt><trkpt lat="44.20025975869305" lon="10.003302431621865"><ele>129.66666666666669</ele><time>2026-05-02T14:14:24Z</time></trkpt><trkpt lat="44.2003214623538" lon="10.00325815466163"><ele>128.0</ele><time>2026-05-02T14:14:26Z</time></trkpt><trkpt lat="44.20038573647121" lon="10.003263033290548"><ele>126.33333333333334</ele><time>2026-05-02T14:14:29Z</time></trkpt><trkpt lat="44.200467949460524" lon="10.003227111950501"><ele>124.66666666666667</ele><time>2026-05-02T14:14:32Z</time></trkpt><trkpt lat="44.20053906429668" lon="10.003183873312839"><ele>123.0</ele><time>2026-05-02T14:14:34Z</time></trkpt><trkpt lat="44.20060024111596" lon="10.003149049679852"><ele>123.0</ele><time>2026-05-02T14:14:37Z</time></trkpt><trkpt lat="44.20063565077811" lon="10.003068075649018"><ele>123.0</ele><time>2026-05-02T14:14:39Z</time></trkpt><trkpt lat="44.200667061684406" lon="10.002991546514913"><ele>123.0</ele><time>2026-05-02T14:14:41Z</time></trkpt><trkpt lat="44.20068946226127" lon="10.002897753512066"><ele>123.0</ele><time>2026-05-02T14:14:44Z</time></trkpt><trkpt lat="44.20068160316129" lon="10.002788706966145"><ele>123.0</ele><time>2026-05-02T14:18:06Z</time></trkpt><trkpt lat="44.20069455920338" lon="10.002700932784906"><ele>123.0</ele><time>2026-05-02T14:18:08Z</time></trkpt><trkpt lat="44.20073368114134" lon="10.002540852351446"><ele>120.66666666666667</ele><time>2026-05-02T14:18:10Z</time></trkpt><trkpt lat="44.20075984982806" lon="10.00244909099403"><ele>118.33333333333334</ele><time>2026-05-02T14:18:11Z</time></trkpt><trkpt lat="44.200788344115516" lon="10.002357112891135"><ele>116.0</ele><time>2026-05-02T14:18:12Z</time></trkpt><trkpt lat="44.20082618252062" lon="10.002245604238416"><ele>113.66666666666667</ele><time>2026-05-02T14:18:13Z</time></trkpt><trkpt lat="44.200860255282045" lon="10.002145192849596"><ele>111.33333333333334</ele><time>2026-05-02T14:18:14Z</time></trkpt><trkpt lat="44.20087412990399" lon="10.00204826610813"><ele>109.0</ele><time>2026-05-02T14:18:15Z</time></trkpt><trkpt lat="44.200933926328275" lon="10.001900753522307"><ele>109.00000000000001</ele><time>2026-05-02T14:18:17Z</time></trkpt><trkpt lat="44.20094996949098" lon="10.001811572509515"><ele>109.0</ele><time>2026-05-02T14:18:18Z</time></trkpt><trkpt lat="44.20098326542883" lon="10.001697852269093"><ele>109.0</ele><time>2026-05-02T14:18:20Z</time></trkpt><trkpt lat="44.20104462158768" lon="10.001648213369863"><ele>109.0</ele><time>2026-05-02T14:18:22Z</time></trkpt><trkpt lat="44.201117099914605" lon="10.00179088994332"><ele>109.00000000000001</ele><time>2026-05-02T14:18:24Z</time></trkpt><trkpt lat="44.20119138205974" lon="10.001831242901844"><ele>109.0</ele><time>2026-05-02T14:18:27Z</time></trkpt><trkpt lat="44.201264274071086" lon="10.001842328538217"><ele>109.00000000000001</ele><time>2026-05-02T14:18:30Z</time></trkpt><trkpt lat="44.20134884543719" lon="10.001722434348935"><ele>109.0</ele><time>2026-05-02T14:18:32Z</time></trkpt><trkpt lat="44.201411952628675" lon="10.001646300298354"><ele>109.0</ele><time>2026-05-02T14:18:34Z</time></trkpt><trkpt lat="44.20146474549117" lon="10.001581741115505"><ele>109.0</ele><time>2026-05-02T14:18:35Z</time></trkpt><trkpt lat="44.201518478598615" lon="10.00149914577581"><ele>109.00000000000001</ele><time>2026-05-02T14:18:36Z</time></trkpt><trkpt lat="44.20158493866277" lon="10.00146167403929"><ele>109.0</ele><time>2026-05-02T14:18:37Z</time></trkpt><trkpt lat="44.20167114182646" lon="10.001381849934699"><ele>106.33333333333334</ele><time>2026-05-02T14:18:38Z</time></trkpt><trkpt lat="44.20175192161631" lon="10.00130873762949"><ele>103.66666666666667</ele><time>2026-05-02T14:18:39Z</time></trkpt><trkpt lat="44.20180981473741" lon="10.00122870761392"><ele>101.0</ele><time>2026-05-02T14:18:40Z</time></trkpt><trkpt lat="44.2018740984218" lon="10.001174805395838"><ele>98.33333333333334</ele><time>2026-05-02T14:18:41Z</time></trkpt><trkpt lat="44.201928948449904" lon="10.001111636117043"><ele>95.66666666666667</ele><time>2026-05-02T14:18:42Z</time></trkpt><trkpt lat="44.20200243779581" lon="10.001029156967274"><ele>93.0</ele><time>2026-05-02T14:18:43Z</time></trkpt><trkpt lat="44.20206302732743" lon="10.000963632107615"><ele>93.0</ele><time>2026-05-02T14:18:44Z</time></trkpt><trkpt lat="44.20211395846543" lon="10.000894919284278"><ele>93.0</ele><time>2026-05-02T14:18:45Z</time></trkpt><trkpt lat="44.20217466425752" lon="10.000867038139644"><ele>93.0</ele><time>2026-05-02T14:18:46Z</time></trkpt><trkpt lat="44.20229789471019" lon="10.000795671370525"><ele>93.0</ele><time>2026-05-02T14:18:48Z</time></trkpt><trkpt lat="44.20238545878035" lon="10.000768032774555"><ele>93.0</ele><time>2026-05-02T14:18:49Z</time></trkpt><trkpt lat="44.20246404629833" lon="10.000773864788794"><ele>93.0</ele><time>2026-05-02T14:18:50Z</time></trkpt><trkpt lat="44.20255114151644" lon="10.00076043792779"><ele>90.5</ele><time>2026-05-02T14:18:51Z</time></trkpt><trkpt lat="44.202647801761586" lon="10.000746960339873"><ele>88.0</ele><time>2026-05-02T14:18:52Z</time></trkpt><trkpt lat="44.202734971126006" lon="10.000736252043389"><ele>85.5</ele><time>2026-05-02T14:18:53Z</time></trkpt><trkpt lat="44.2028098419755" lon="10.000727054552632"><ele>83.0</ele><time>2026-05-02T14:18:54Z</time></trkpt><trkpt lat="44.20288932299401" lon="10.000719489508676"><ele>80.5</ele><time>2026-05-02T14:18:55Z</time></trkpt><trkpt lat="44.20297441752348" lon="10.000715859712713"><ele>78.0</ele><time>2026-05-02T14:18:56Z</time></trkpt><trkpt lat="44.20305268798671" lon="10.000716532322825"><ele>78.0</ele><time>2026-05-02T14:18:57Z</time></trkpt><trkpt lat="44.203135760495314" lon="10.000719485527727"><ele>78.0</ele><time>2026-05-02T14:18:59Z</time></trkpt><trkpt lat="44.203209192447204" lon="10.000633115426819"><ele>78.0</ele><time>2026-05-02T14:19:01Z</time></trkpt><trkpt lat="44.20327307416497" lon="10.00051009586579"><ele>78.0</ele><time>2026-05-02T14:19:03Z</time></trkpt><trkpt lat="44.20319482586697" lon="10.000317867612512"><ele>78.0</ele><time>2026-05-02T14:19:06Z</time></trkpt><trkpt lat="44.20317243820641" lon="10.000166080776532"><ele>78.0</ele><time>2026-05-02T14:19:08Z</time></trkpt><trkpt lat="44.20314363826622" lon="10.000075465990445"><ele>78.0</ele><time>2026-05-02T14:19:09Z</time></trkpt><trkpt lat="44.20310993609057" lon="9.999969165469052"><ele>78.0</ele><time>2026-05-02T14:19:10Z</time></trkpt><trkpt lat="44.20307582436878" lon="9.99987611448001"><ele>78.0</ele><time>2026-05-02T14:19:11Z</time></trkpt><trkpt lat="44.20302929720844" lon="9.99972033155312"><ele>78.0</ele><time>2026-05-02T14:19:13Z</time></trkpt><trkpt lat="44.20295136299708" lon="9.99953325833978"><ele>78.0</ele><time>2026-05-02T14:19:15.001Z</time></trkpt><trkpt lat="44.202917612886495" lon="9.99938738647031"><ele>78.0</ele><time>2026-05-02T14:19:16.001Z</time></trkpt><trkpt lat="44.20286289089484" lon="9.999260847246392"><ele>78.0</ele><time>2026-05-02T14:19:17.001Z</time></trkpt><trkpt lat="44.20280275458221" lon="9.999067921899902"><ele>78.0</ele><time>2026-05-02T14:19:19.001Z</time></trkpt><trkpt lat="44.2027829941402" lon="9.998952509650506"><ele>78.0</ele><time>2026-05-02T14:19:20.001Z</time></trkpt><trkpt lat="44.20275070893421" lon="9.998845918154696"><ele>78.0</ele><time>2026-05-02T14:19:21.001Z</time></trkpt><trkpt lat="44.202719617483815" lon="9.998737089753332"><ele>78.0</ele><time>2026-05-02T14:19:22.001Z</time></trkpt><trkpt lat="44.202675214207936" lon="9.998628901670232"><ele>78.0</ele><time>2026-05-02T14:19:23.001Z</time></trkpt><trkpt lat="44.20264719953439" lon="9.99850041738024"><ele>78.0</ele><time>2026-05-02T14:19:24.001Z</time></trkpt><trkpt lat="44.202620692362686" lon="9.998379551419156"><ele>78.0</ele><time>2026-05-02T14:19:25.001Z</time></trkpt><trkpt lat="44.20259499187009" lon="9.998255920849125"><ele>78.0</ele><time>2026-05-02T14:19:26.001Z</time></trkpt><trkpt lat="44.202570731338454" lon="9.998129482769164"><ele>78.0</ele><time>2026-05-02T14:19:27.001Z</time></trkpt><trkpt lat="44.20254872759375" lon="9.998017122512218"><ele>78.0</ele><time>2026-05-02T14:19:28.001Z</time></trkpt><trkpt lat="44.20252408112577" lon="9.997916318412551"><ele>78.0</ele><time>2026-05-02T14:19:29Z</time></trkpt><trkpt lat="44.20251467649256" lon="9.997814597911166"><ele>78.0</ele><time>2026-05-02T14:19:30Z</time></trkpt><trkpt lat="44.20246456663093" lon="9.997678454534393"><ele>78.0</ele><time>2026-05-02T14:19:32Z</time></trkpt><trkpt lat="44.20244979668175" lon="9.997593029462477"><ele>77.4</ele><time>2026-05-02T14:19:34Z</time></trkpt><trkpt lat="44.20243960704386" lon="9.99743667448479"><ele>76.8</ele><time>2026-05-02T14:19:38Z</time></trkpt><trkpt lat="44.20245344042304" lon="9.997338568968399"><ele>76.2</ele><time>2026-05-02T14:19:40Z</time></trkpt><trkpt lat="44.20249425953732" lon="9.997191811398535"><ele>75.6</ele><time>2026-05-02T14:19:42Z</time></trkpt><trkpt lat="44.20250671764879" lon="9.997056080120988"><ele>75.0</ele><time>2026-05-02T14:19:43Z</time></trkpt><trkpt lat="44.202499822570445" lon="9.996871772808163"><ele>74.33333333333333</ele><time>2026-05-02T14:19:44Z</time></trkpt><trkpt lat="44.20245520276994" lon="9.996638836309684"><ele>73.66666666666666</ele><time>2026-05-02T14:19:45Z</time></trkpt><trkpt lat="44.20239448463454" lon="9.996398890264185"><ele>73.0</ele><time>2026-05-02T14:19:46Z</time></trkpt><trkpt lat="44.20236299613374" lon="9.996209219237848"><ele>73.0</ele><time>2026-05-02T14:19:47Z</time></trkpt><trkpt lat="44.202348179794626" lon="9.996038757085083"><ele>73.0</ele><time>2026-05-02T14:19:48Z</time></trkpt><trkpt lat="44.20230690045241" lon="9.995880973435343"><ele>73.0</ele><time>2026-05-02T14:19:49Z</time></trkpt><trkpt lat="44.20226324634719" lon="9.995735601683453"><ele>73.0</ele><time>2026-05-02T14:19:50Z</time></trkpt><trkpt lat="44.20223818358604" lon="9.995604466879334"><ele>73.0</ele><time>2026-05-02T14:19:51Z</time></trkpt><trkpt lat="44.202211695427216" lon="9.995457543178762"><ele>73.0</ele><time>2026-05-02T14:19:52Z</time></trkpt><trkpt lat="44.20218644393561" lon="9.995307168696877"><ele>73.0</ele><time>2026-05-02T14:19:53Z</time></trkpt><trkpt lat="44.20215304998926" lon="9.995143911674994"><ele>73.0</ele><time>2026-05-02T14:19:54Z</time></trkpt><trkpt lat="44.20212267760165" lon="9.994970178497628"><ele>73.0</ele><time>2026-05-02T14:19:55Z</time></trkpt><trkpt lat="44.202093071990184" lon="9.99481379669196"><ele>73.0</ele><time>2026-05-02T14:19:56Z</time></trkpt><trkpt lat="44.20206519900781" lon="9.994674175760705"><ele>73.0</ele><time>2026-05-02T14:19:57Z</time></trkpt><trkpt lat="44.202046371830306" lon="9.99455511114393"><ele>73.0</ele><time>2026-05-02T14:19:58Z</time></trkpt><trkpt lat="44.20201690915446" lon="9.99443628031791"><ele>73.0</ele><time>2026-05-02T14:19:59Z</time></trkpt><trkpt lat="44.20199548240792" lon="9.994336045993764"><ele>73.0</ele><time>2026-05-02T14:20:00Z</time></trkpt><trkpt lat="44.201974655423065" lon="9.99424703656776"><ele>73.0</ele><time>2026-05-02T14:20:01Z</time></trkpt><trkpt lat="44.2019778069742" lon="9.994095547035839"><ele>73.0</ele><time>2026-05-02T14:20:03Z</time></trkpt><trkpt lat="44.20205125730912" lon="9.994019328063612"><ele>73.0</ele><time>2026-05-02T14:20:05Z</time></trkpt><trkpt lat="44.20218131409614" lon="9.993956708165976"><ele>73.0</ele><time>2026-05-02T14:20:07Z</time></trkpt><trkpt lat="44.20227061057297" lon="9.993957177611541"><ele>72.5</ele><time>2026-05-02T14:20:08Z</time></trkpt><trkpt lat="44.20234611327578" lon="9.99390823717398"><ele>72.0</ele><time>2026-05-02T14:20:10Z</time></trkpt><trkpt lat="44.20233701958482" lon="9.99369356748528"><ele>71.5</ele><time>2026-05-02T14:20:20Z</time></trkpt><trkpt lat="44.20231450675804" lon="9.993507352938897"><ele>71.0</ele><time>2026-05-02T14:20:22Z</time></trkpt><trkpt lat="44.202298237455345" lon="9.99331613470821"><ele>70.33333333333334</ele><time>2026-05-02T14:20:23Z</time></trkpt><trkpt lat="44.20232998252623" lon="9.993116548670626"><ele>69.66666666666667</ele><time>2026-05-02T14:20:24Z</time></trkpt><trkpt lat="44.20234650542132" lon="9.992839587968552"><ele>69.0</ele><time>2026-05-02T14:20:25Z</time></trkpt><trkpt lat="44.202389232206436" lon="9.992575291998284"><ele>68.66666666666667</ele><time>2026-05-02T14:20:26Z</time></trkpt><trkpt lat="44.20242343956676" lon="9.99234831571599"><ele>68.33333333333334</ele><time>2026-05-02T14:20:27Z</time></trkpt><trkpt lat="44.202448498712364" lon="9.992102313096606"><ele>68.0</ele><time>2026-05-02T14:20:28Z</time></trkpt><trkpt lat="44.2024768797748" lon="9.991829375166525"><ele>67.33333333333334</ele><time>2026-05-02T14:20:29Z</time></trkpt><trkpt lat="44.20250728150271" lon="9.991582250855302"><ele>66.66666666666667</ele><time>2026-05-02T14:20:30Z</time></trkpt><trkpt lat="44.20253234672181" lon="9.991375631080233"><ele>66.0</ele><time>2026-05-02T14:20:31Z</time></trkpt><trkpt lat="44.202553538356746" lon="9.991204969505423"><ele>66.0</ele><time>2026-05-02T14:20:32Z</time></trkpt><trkpt lat="44.20255500155424" lon="9.991065486030445"><ele>66.0</ele><time>2026-05-02T14:20:33Z</time></trkpt><trkpt lat="44.202527496890056" lon="9.990941135380064"><ele>66.0</ele><time>2026-05-02T14:20:34Z</time></trkpt><trkpt lat="44.20247012643292" lon="9.990829242427898"><ele>66.0</ele><time>2026-05-02T14:20:35Z</time></trkpt><trkpt lat="44.202377645589905" lon="9.990723336735092"><ele>66.0</ele><time>2026-05-02T14:20:36Z</time></trkpt><trkpt lat="44.202252367686874" lon="9.990609633846134"><ele>65.75</ele><time>2026-05-02T14:20:37Z</time></trkpt><trkpt lat="44.2021279545949" lon="9.99048215735603"><ele>65.5</ele><time>2026-05-02T14:20:38Z</time></trkpt><trkpt lat="44.20201905750642" lon="9.990359680253457"><ele>65.25</ele><time>2026-05-02T14:20:39Z</time></trkpt><trkpt lat="44.20191800957649" lon="9.990244631325872"><ele>65.0</ele><time>2026-05-02T14:20:40Z</time></trkpt><trkpt lat="44.20182569444129" lon="9.990134975854678"><ele>65.0</ele><time>2026-05-02T14:20:41Z</time></trkpt><trkpt lat="44.201737597805" lon="9.990030710354796"><ele>65.0</ele><time>2026-05-02T14:20:42Z</time></trkpt><trkpt lat="44.20165793709402" lon="9.989919937329331"><ele>65.0</ele><time>2026-05-02T14:20:43Z</time></trkpt><trkpt lat="44.201594596865526" lon="9.989789799560507"><ele>65.0</ele><time>2026-05-02T14:20:44Z</time></trkpt><trkpt lat="44.201548447953265" lon="9.989634614315285"><ele>65.0</ele><time>2026-05-02T14:20:45Z</time></trkpt><trkpt lat="44.201514370199426" lon="9.989465184711305"><ele>65.0</ele><time>2026-05-02T14:20:46Z</time></trkpt><trkpt lat="44.20148497857322" lon="9.989287465100466"><ele>65.0</ele><time>2026-05-02T14:20:47Z</time></trkpt><trkpt lat="44.20145011251929" lon="9.989103351833663"><ele>65.0</ele><time>2026-05-02T14:20:48Z</time></trkpt><trkpt lat="44.20141345915075" lon="9.988914585779819"><ele>65.0</ele><time>2026-05-02T14:20:49Z</time></trkpt><trkpt lat="44.201379575821896" lon="9.98872147364096"><ele>65.0</ele><time>2026-05-02T14:20:50Z</time></trkpt><trkpt lat="44.20134923071563" lon="9.98853491178007"><ele>65.0</ele><time>2026-05-02T14:20:51Z</time></trkpt><trkpt lat="44.20133182955655" lon="9.988368675900157"><ele>65.0</ele><time>2026-05-02T14:20:52Z</time></trkpt><trkpt lat="44.20131324225806" lon="9.988209765744838"><ele>65.5</ele><time>2026-05-02T14:20:53Z</time></trkpt><trkpt lat="44.20129886388462" lon="9.98805109870016"><ele>66.0</ele><time>2026-05-02T14:20:54Z</time></trkpt><trkpt lat="44.20129459698065" lon="9.987891152954074"><ele>66.5</ele><time>2026-05-02T14:20:55Z</time></trkpt><trkpt lat="44.201302273288675" lon="9.987736383124465"><ele>67.0</ele><time>2026-05-02T14:20:56Z</time></trkpt><trkpt lat="44.20131691148462" lon="9.987571533852295"><ele>67.0</ele><time>2026-05-02T14:20:57Z</time></trkpt><trkpt lat="44.20132831699605" lon="9.987401319498979"><ele>67.0</ele><time>2026-05-02T14:20:58Z</time></trkpt><trkpt lat="44.201333321615316" lon="9.98722444299455"><ele>67.0</ele><time>2026-05-02T14:20:59Z</time></trkpt><trkpt lat="44.20132894701293" lon="9.987045623985907"><ele>67.0</ele><time>2026-05-02T14:21:00Z</time></trkpt><trkpt lat="44.2013176229066" lon="9.986862833264015"><ele>67.0</ele><time>2026-05-02T14:21:01Z</time></trkpt><trkpt lat="44.20131041313601" lon="9.986682752703382"><ele>67.0</ele><time>2026-05-02T14:21:02Z</time></trkpt><trkpt lat="44.20130948785233" lon="9.986513589901962"><ele>67.0</ele><time>2026-05-02T14:21:03Z</time></trkpt><trkpt lat="44.20131645046152" lon="9.986353203994332"><ele>67.0</ele><time>2026-05-02T14:21:04Z</time></trkpt><trkpt lat="44.20133148660405" lon="9.986193806277099"><ele>66.75</ele><time>2026-05-02T14:21:05Z</time></trkpt><trkpt lat="44.20135412515404" lon="9.986032518553762"><ele>66.5</ele><time>2026-05-02T14:21:06Z</time></trkpt><trkpt lat="44.201380172932" lon="9.98586834888966"><ele>66.25</ele><time>2026-05-02T14:21:07Z</time></trkpt><trkpt lat="44.20140763495176" lon="9.985697955453247"><ele>66.0</ele><time>2026-05-02T14:21:08Z</time></trkpt><trkpt lat="44.20142004113044" lon="9.985527825148962"><ele>66.0</ele><time>2026-05-02T14:21:09Z</time></trkpt><trkpt lat="44.201406615890434" lon="9.985348706217888"><ele>66.0</ele><time>2026-05-02T14:21:10Z</time></trkpt><trkpt lat="44.20136450146019" lon="9.985164002679216"><ele>66.0</ele><time>2026-05-02T14:21:10.999Z</time></trkpt><trkpt lat="44.20131350761039" lon="9.984971519642292"><ele>66.0</ele><time>2026-05-02T14:21:11.999Z</time></trkpt><trkpt lat="44.20126544233823" lon="9.984780175693247"><ele>66.0</ele><time>2026-05-02T14:21:12.999Z</time></trkpt><trkpt lat="44.201224879982654" lon="9.98461556677463"><ele>66.0</ele><time>2026-05-02T14:21:13.999Z</time></trkpt><trkpt lat="44.20118258972285" lon="9.984447101759761"><ele>66.0</ele><time>2026-05-02T14:21:14.999Z</time></trkpt><trkpt lat="44.20114144103876" lon="9.984282175993322"><ele>66.0</ele><time>2026-05-02T14:21:15.999Z</time></trkpt><trkpt lat="44.20110910735507" lon="9.984135732900986"><ele>66.0</ele><time>2026-05-02T14:21:16.999Z</time></trkpt><trkpt lat="44.20108468257057" lon="9.983987009148187"><ele>66.0</ele><time>2026-05-02T14:21:17.999Z</time></trkpt><trkpt lat="44.201073736247544" lon="9.983833427720013"><ele>66.0</ele><time>2026-05-02T14:21:18.999Z</time></trkpt><trkpt lat="44.20108331068638" lon="9.983680793740678"><ele>66.0</ele><time>2026-05-02T14:21:20Z</time></trkpt><trkpt lat="44.20110880441818" lon="9.983519951811482"><ele>66.0</ele><time>2026-05-02T14:21:21Z</time></trkpt><trkpt lat="44.20115328810869" lon="9.983360127029853"><ele>65.5</ele><time>2026-05-02T14:21:22Z</time></trkpt><trkpt lat="44.20121495226471" lon="9.983204216864458"><ele>65.0</ele><time>2026-05-02T14:21:23Z</time></trkpt><trkpt lat="44.201291345813225" lon="9.983042305300586"><ele>64.5</ele><time>2026-05-02T14:21:24Z</time></trkpt><trkpt lat="44.20138674744958" lon="9.982873261332534"><ele>64.0</ele><time>2026-05-02T14:21:25Z</time></trkpt><trkpt lat="44.20148706040009" lon="9.982700582239667"><ele>65.75</ele><time>2026-05-02T14:21:26Z</time></trkpt><trkpt lat="44.20158661609903" lon="9.982545844016702"><ele>67.5</ele><time>2026-05-02T14:21:27Z</time></trkpt><trkpt lat="44.20168578979627" lon="9.982402417861746"><ele>69.25</ele><time>2026-05-02T14:21:28Z</time></trkpt><trkpt lat="44.20179232014046" lon="9.982269356370871"><ele>71.0</ele><time>2026-05-02T14:21:29Z</time></trkpt><trkpt lat="44.2019001825066" lon="9.982170847843783"><ele>71.0</ele><time>2026-05-02T14:21:30Z</time></trkpt><trkpt lat="44.202025928109045" lon="9.982107400991612"><ele>71.0</ele><time>2026-05-02T14:21:31Z</time></trkpt><trkpt lat="44.20214459352899" lon="9.982020581242757"><ele>71.0</ele><time>2026-05-02T14:21:32Z</time></trkpt><trkpt lat="44.202264546620476" lon="9.981956782743008"><ele>71.0</ele><time>2026-05-02T14:21:33Z</time></trkpt><trkpt lat="44.20237797641239" lon="9.981881857690619"><ele>70.0</ele><time>2026-05-02T14:21:34Z</time></trkpt><trkpt lat="44.20248028985857" lon="9.981800141580159"><ele>69.0</ele><time>2026-05-02T14:21:35Z</time></trkpt><trkpt lat="44.20257572824913" lon="9.981697829810122"><ele>68.0</ele><time>2026-05-02T14:21:36Z</time></trkpt><trkpt lat="44.20266661324065" lon="9.981591261652198"><ele>67.0</ele><time>2026-05-02T14:21:37Z</time></trkpt><trkpt lat="44.20275763684076" lon="9.98149032006659"><ele>67.0</ele><time>2026-05-02T14:21:38Z</time></trkpt><trkpt lat="44.202855651201816" lon="9.981408929218693"><ele>67.0</ele><time>2026-05-02T14:21:39Z</time></trkpt><trkpt lat="44.202970923551945" lon="9.981371377989555"><ele>67.0</ele><time>2026-05-02T14:21:40Z</time></trkpt><trkpt lat="44.203088713847244" lon="9.981335469723954"><ele>67.0</ele><time>2026-05-02T14:21:41Z</time></trkpt><trkpt lat="44.20321314796056" lon="9.9813096338104"><ele>69.25</ele><time>2026-05-02T14:21:42Z</time></trkpt><trkpt lat="44.20334521982107" lon="9.981290099635686"><ele>71.5</ele><time>2026-05-02T14:21:43Z</time></trkpt><trkpt lat="44.20347605316694" lon="9.981255129160049"><ele>73.75</ele><time>2026-05-02T14:21:44Z</time></trkpt><trkpt lat="44.2035927390576" lon="9.981237246014004"><ele>76.0</ele><time>2026-05-02T14:21:45Z</time></trkpt><trkpt lat="44.20370537604693" lon="9.981207262332708"><ele>76.0</ele><time>2026-05-02T14:21:46Z</time></trkpt><trkpt lat="44.2038147798324" lon="9.981149003489685"><ele>76.0</ele><time>2026-05-02T14:21:47Z</time></trkpt><trkpt lat="44.20391899442989" lon="9.981057962536662"><ele>76.0</ele><time>2026-05-02T14:21:48Z</time></trkpt><trkpt lat="44.20401619923996" lon="9.980944343844419"><ele>76.0</ele><time>2026-05-02T14:21:49Z</time></trkpt><trkpt lat="44.20410523898144" lon="9.980830836857518"><ele>73.39999999999999</ele><time>2026-05-02T14:21:50Z</time></trkpt><trkpt lat="44.204193473238924" lon="9.980725360331263"><ele>70.8</ele><time>2026-05-02T14:21:51Z</time></trkpt><trkpt lat="44.2042777626395" lon="9.980639315407231"><ele>68.19999999999999</ele><time>2026-05-02T14:21:52Z</time></trkpt><trkpt lat="44.20436436679599" lon="9.980563534647999"><ele>65.6</ele><time>2026-05-02T14:21:53Z</time></trkpt><trkpt lat="44.20446698714811" lon="9.980521818003885"><ele>63.0</ele><time>2026-05-02T14:21:54Z</time></trkpt><trkpt lat="44.20457843985641" lon="9.980486547654278"><ele>63.0</ele><time>2026-05-02T14:21:55Z</time></trkpt><trkpt lat="44.2047026279366" lon="9.980442860829235"><ele>63.0</ele><time>2026-05-02T14:21:56Z</time></trkpt><trkpt lat="44.20481635113761" lon="9.980365499677342"><ele>63.0</ele><time>2026-05-02T14:21:57Z</time></trkpt><trkpt lat="44.20492381484766" lon="9.980287151238043"><ele>63.0</ele><time>2026-05-02T14:21:58Z</time></trkpt><trkpt lat="44.20503207147255" lon="9.980195623136671"><ele>63.0</ele><time>2026-05-02T14:21:59Z</time></trkpt><trkpt lat="44.20514164338562" lon="9.980107752736602"><ele>63.0</ele><time>2026-05-02T14:22:00Z</time></trkpt><trkpt lat="44.20524783398554" lon="9.98002688663005"><ele>63.0</ele><time>2026-05-02T14:22:01Z</time></trkpt><trkpt lat="44.20534400504491" lon="9.97995557926802"><ele>63.0</ele><time>2026-05-02T14:22:02Z</time></trkpt><trkpt lat="44.205432727271976" lon="9.979885214773763"><ele>62.8</ele><time>2026-05-02T14:22:03Z</time></trkpt><trkpt lat="44.205520219541604" lon="9.97982076257739"><ele>62.599999999999994</ele><time>2026-05-02T14:22:04Z</time></trkpt><trkpt lat="44.20561158547094" lon="9.979755383866086"><ele>62.400000000000006</ele><time>2026-05-02T14:22:05Z</time></trkpt><trkpt lat="44.20570925934032" lon="9.9796872275632"><ele>62.2</ele><time>2026-05-02T14:22:06Z</time></trkpt><trkpt lat="44.20581161066534" lon="9.979628364416524"><ele>62.0</ele><time>2026-05-02T14:22:07Z</time></trkpt><trkpt lat="44.205926567553476" lon="9.979591610843446"><ele>62.0</ele><time>2026-05-02T14:22:08Z</time></trkpt><trkpt lat="44.206052968904345" lon="9.979582009679653"><ele>62.0</ele><time>2026-05-02T14:22:09Z</time></trkpt><trkpt lat="44.20617739587704" lon="9.979567390731724"><ele>62.0</ele><time>2026-05-02T14:22:10Z</time></trkpt><trkpt lat="44.20629108002618" lon="9.9795548873341"><ele>62.0</ele><time>2026-05-02T14:22:11Z</time></trkpt><trkpt lat="44.20639441638862" lon="9.979534748517468"><ele>62.0</ele><time>2026-05-02T14:22:12Z</time></trkpt><trkpt lat="44.20648999480498" lon="9.979496827278911"><ele>62.0</ele><time>2026-05-02T14:22:12.999Z</time></trkpt><trkpt lat="44.206568249307246" lon="9.979429213615184"><ele>62.0</ele><time>2026-05-02T14:22:13.999Z</time></trkpt><trkpt lat="44.206629517623185" lon="9.979328246496113"><ele>62.0</ele><time>2026-05-02T14:22:14.999Z</time></trkpt><trkpt lat="44.20667983870012" lon="9.979204002970826"><ele>62.0</ele><time>2026-05-02T14:22:15.999Z</time></trkpt><trkpt lat="44.206723558687976" lon="9.979060427805152"><ele>62.0</ele><time>2026-05-02T14:22:16.999Z</time></trkpt><trkpt lat="44.20677679747977" lon="9.97889066773451"><ele>62.0</ele><time>2026-05-02T14:22:17.999Z</time></trkpt><trkpt lat="44.206836682713096" lon="9.978731062384378"><ele>62.0</ele><time>2026-05-02T14:22:18.999Z</time></trkpt><trkpt lat="44.20689096496409" lon="9.97859502652735"><ele>62.0</ele><time>2026-05-02T14:22:19.999Z</time></trkpt><trkpt lat="44.20694537502539" lon="9.97846841566072"><ele>61.5</ele><time>2026-05-02T14:22:20.999Z</time></trkpt><trkpt lat="44.2070073829678" lon="9.978343849001943"><ele>61.0</ele><time>2026-05-02T14:22:21.999Z</time></trkpt><trkpt lat="44.20707888601298" lon="9.978207672263126"><ele>60.5</ele><time>2026-05-02T14:22:22.999Z</time></trkpt><trkpt lat="44.20715743869814" lon="9.978063388347607"><ele>60.0</ele><time>2026-05-02T14:22:23.999Z</time></trkpt><trkpt lat="44.20723498548761" lon="9.977926193715364"><ele>60.0</ele><time>2026-05-02T14:22:24.999Z</time></trkpt><trkpt lat="44.20730994445691" lon="9.977806688078282"><ele>60.0</ele><time>2026-05-02T14:22:25.999Z</time></trkpt><trkpt lat="44.20738708802911" lon="9.977695207135273"><ele>60.0</ele><time>2026-05-02T14:22:26.999Z</time></trkpt><trkpt lat="44.20746647308053" lon="9.977591333453486"><ele>60.0</ele><time>2026-05-02T14:22:27.999Z</time></trkpt><trkpt lat="44.20755690310446" lon="9.977488438149576"><ele>60.25</ele><time>2026-05-02T14:22:28.999Z</time></trkpt><trkpt lat="44.20766342589585" lon="9.97741540019212"><ele>60.5</ele><time>2026-05-02T14:22:29.999Z</time></trkpt><trkpt lat="44.20775882652404" lon="9.97736526640913"><ele>60.75</ele><time>2026-05-02T14:22:30.999Z</time></trkpt><trkpt lat="44.20786777004089" lon="9.977313109926868"><ele>61.0</ele><time>2026-05-02T14:22:31.999Z</time></trkpt><trkpt lat="44.207982763116235" lon="9.977260632342956"><ele>61.0</ele><time>2026-05-02T14:22:32.999Z</time></trkpt><trkpt lat="44.20808098921859" lon="9.977188927986305"><ele>60.99999999999999</ele><time>2026-05-02T14:22:33.999Z</time></trkpt><trkpt lat="44.20818437196223" lon="9.977153498591843"><ele>60.99999999999999</ele><time>2026-05-02T14:22:34.999Z</time></trkpt><trkpt lat="44.2082842194382" lon="9.97709957163033"><ele>61.0</ele><time>2026-05-02T14:22:35.999Z</time></trkpt><trkpt lat="44.20837718256464" lon="9.977049677263022"><ele>61.0</ele><time>2026-05-02T14:22:36.999Z</time></trkpt><trkpt lat="44.20845725795316" lon="9.976980645582676"><ele>61.33333333333333</ele><time>2026-05-02T14:22:37.999Z</time></trkpt><trkpt lat="44.20852505455125" lon="9.976910037380863"><ele>61.666666666666664</ele><time>2026-05-02T14:22:38.999Z</time></trkpt><trkpt lat="44.208586978250956" lon="9.976827437494679"><ele>62.0</ele><time>2026-05-02T14:22:39.999Z</time></trkpt><trkpt lat="44.20861543173372" lon="9.976736563694363"><ele>62.33333333333333</ele><time>2026-05-02T14:22:40.999Z</time></trkpt><trkpt lat="44.20861632842335" lon="9.976632847976791"><ele>62.666666666666664</ele><time>2026-05-02T14:22:41.999Z</time></trkpt><trkpt lat="44.20858269696759" lon="9.976511608605032"><ele>63.0</ele><time>2026-05-02T14:22:42.999Z</time></trkpt><trkpt lat="44.20852570909162" lon="9.976382387448012"><ele>63.0</ele><time>2026-05-02T14:22:43.999Z</time></trkpt><trkpt lat="44.208484333406744" lon="9.976239070335932"><ele>63.0</ele><time>2026-05-02T14:22:44.999Z</time></trkpt><trkpt lat="44.20847141013962" lon="9.976114568430301"><ele>63.0</ele><time>2026-05-02T14:22:45.999Z</time></trkpt><trkpt lat="44.208491514568514" lon="9.975967103415233"><ele>63.0</ele><time>2026-05-02T14:22:46.999Z</time></trkpt><trkpt lat="44.20852248090369" lon="9.975784119632321"><ele>63.0</ele><time>2026-05-02T14:22:47.999Z</time></trkpt><trkpt lat="44.20856764422045" lon="9.975576870023827"><ele>62.75</ele><time>2026-05-02T14:22:48.999Z</time></trkpt><trkpt lat="44.2085979491243" lon="9.975396275955893"><ele>62.5</ele><time>2026-05-02T14:22:49.999Z</time></trkpt><trkpt lat="44.208616034108715" lon="9.97524217423841"><ele>62.25</ele><time>2026-05-02T14:22:50.999Z</time></trkpt><trkpt lat="44.208640507166024" lon="9.975100515653581"><ele>62.0</ele><time>2026-05-02T14:22:51.999Z</time></trkpt><trkpt lat="44.20863701784221" lon="9.974960316791266"><ele>62.75</ele><time>2026-05-02T14:22:52.999Z</time></trkpt><trkpt lat="44.20859983533791" lon="9.974827097406108"><ele>63.5</ele><time>2026-05-02T14:22:53.999Z</time></trkpt><trkpt lat="44.208542684490986" lon="9.974696384132425"><ele>64.25</ele><time>2026-05-02T14:22:54.999Z</time></trkpt><trkpt lat="44.20847478176508" lon="9.974552895535089"><ele>65.0</ele><time>2026-05-02T14:22:55.999Z</time></trkpt><trkpt lat="44.20839014341802" lon="9.974422961013971"><ele>65.0</ele><time>2026-05-02T14:22:56.999Z</time></trkpt><trkpt lat="44.20831041700653" lon="9.9743256271043"><ele>65.0</ele><time>2026-05-02T14:22:57.999Z</time></trkpt><trkpt lat="44.208236670085036" lon="9.974240601110045"><ele>65.0</ele><time>2026-05-02T14:22:58.999Z</time></trkpt><trkpt lat="44.20816139120138" lon="9.974160061363449"><ele>65.0</ele><time>2026-05-02T14:22:59.999Z</time></trkpt><trkpt lat="44.20808506471704" lon="9.974083350981072"><ele>65.0</ele><time>2026-05-02T14:23:00.999Z</time></trkpt><trkpt lat="44.2080105245404" lon="9.973998799586171"><ele>63.25</ele><time>2026-05-02T14:23:01.999Z</time></trkpt><trkpt lat="44.207940541600124" lon="9.973864231793984"><ele>61.5</ele><time>2026-05-02T14:23:02.999Z</time></trkpt><trkpt lat="44.207867212207816" lon="9.973710379394351"><ele>59.75</ele><time>2026-05-02T14:23:03.999Z</time></trkpt><trkpt lat="44.207797595864285" lon="9.973562251942155"><ele>58.0</ele><time>2026-05-02T14:23:04.999Z</time></trkpt><trkpt lat="44.20774981012462" lon="9.973438046681897"><ele>60.0</ele><time>2026-05-02T14:23:05.999Z</time></trkpt><trkpt lat="44.20771782198395" lon="9.973293467018859"><ele>62.0</ele><time>2026-05-02T14:23:06.999Z</time></trkpt><trkpt lat="44.20770478024289" lon="9.973137298472272"><ele>64.0</ele><time>2026-05-02T14:23:07.999Z</time></trkpt><trkpt lat="44.2076854963897" lon="9.972970761235551"><ele>66.0</ele><time>2026-05-02T14:23:08.999Z</time></trkpt><trkpt lat="44.20764956748613" lon="9.972802933261404"><ele>66.0</ele><time>2026-05-02T14:23:09.999Z</time></trkpt><trkpt lat="44.20762310401404" lon="9.972642970721528"><ele>66.0</ele><time>2026-05-02T14:23:10.999Z</time></trkpt><trkpt lat="44.20761576218618" lon="9.972496484160567"><ele>66.0</ele><time>2026-05-02T14:23:11.999Z</time></trkpt><trkpt lat="44.20762992762331" lon="9.972354290220979"><ele>66.0</ele><time>2026-05-02T14:23:12.999Z</time></trkpt><trkpt lat="44.20765584398969" lon="9.972215175540004"><ele>66.0</ele><time>2026-05-02T14:23:13.999Z</time></trkpt><trkpt lat="44.20769280161199" lon="9.97207372681541"><ele>66.39999999999999</ele><time>2026-05-02T14:23:14.999Z</time></trkpt><trkpt lat="44.207739378115846" lon="9.971926483420374"><ele>66.8</ele><time>2026-05-02T14:23:15.999Z</time></trkpt><trkpt lat="44.207787763499354" lon="9.971784599127398"><ele>67.19999999999999</ele><time>2026-05-02T14:23:16.999Z</time></trkpt><trkpt lat="44.2078282293886" lon="9.971647944843895"><ele>67.6</ele><time>2026-05-02T14:23:17.999Z</time></trkpt><trkpt lat="44.207865223106" lon="9.971526286890166"><ele>68.0</ele><time>2026-05-02T14:23:18.999Z</time></trkpt><trkpt lat="44.20790856979864" lon="9.971407494919681"><ele>67.16666666666667</ele><time>2026-05-02T14:23:19.999Z</time></trkpt><trkpt lat="44.20794816355246" lon="9.971298792962253"><ele>66.33333333333334</ele><time>2026-05-02T14:23:20.999Z</time></trkpt><trkpt lat="44.20798286690323" lon="9.971188796894348"><ele>65.5</ele><time>2026-05-02T14:23:21.999Z</time></trkpt><trkpt lat="44.2080122062208" lon="9.971084083268764"><ele>64.66666666666667</ele><time>2026-05-02T14:23:22.999Z</time></trkpt><trkpt lat="44.20804342676692" lon="9.970992394778797"><ele>63.833333333333336</ele><time>2026-05-02T14:23:23.999Z</time></trkpt><trkpt lat="44.20807025056017" lon="9.970899732804842"><ele>63.0</ele><time>2026-05-02T14:23:24.999Z</time></trkpt><trkpt lat="44.20809239783967" lon="9.970810855190077"><ele>63.0</ele><time>2026-05-02T14:23:25.999Z</time></trkpt><trkpt lat="44.208113392887896" lon="9.970724812466523"><ele>63.0</ele><time>2026-05-02T14:23:26.999Z</time></trkpt><trkpt lat="44.20813767823711" lon="9.970630152434792"><ele>63.0</ele><time>2026-05-02T14:23:27.999Z</time></trkpt><trkpt lat="44.20815946103294" lon="9.970535277551276"><ele>63.0</ele><time>2026-05-02T14:23:29.999Z</time></trkpt><trkpt lat="44.20816916902736" lon="9.970437308795603"><ele>63.0</ele><time>2026-05-02T14:23:45.999Z</time></trkpt><trkpt lat="44.20809609671167" lon="9.970380935941678"><ele>63.0</ele><time>2026-05-02T14:23:48.999Z</time></trkpt><trkpt lat="44.20798595694194" lon="9.970410364529066"><ele>62.2</ele><time>2026-05-02T14:23:50.999Z</time></trkpt><trkpt lat="44.20791556439676" lon="9.97040751055016"><ele>61.4</ele><time>2026-05-02T14:23:51.999Z</time></trkpt><trkpt lat="44.20778459120335" lon="9.970380762736557"><ele>60.60000000000001</ele><time>2026-05-02T14:23:53.999Z</time></trkpt><trkpt lat="44.20770203035702" lon="9.970368640848346"><ele>59.800000000000004</ele><time>2026-05-02T14:23:54.999Z</time></trkpt><trkpt lat="44.207607378630854" lon="9.97035733644597"><ele>59.0</ele><time>2026-05-02T14:23:55.999Z</time></trkpt><trkpt lat="44.20750097097247" lon="9.970337086601866"><ele>59.00000000000001</ele><time>2026-05-02T14:23:56.999Z</time></trkpt><trkpt lat="44.20740964004083" lon="9.970314624683963"><ele>59.0</ele><time>2026-05-02T14:23:57.999Z</time></trkpt><trkpt lat="44.2073333668799" lon="9.970302728320977"><ele>59.0</ele><time>2026-05-02T14:23:58.999Z</time></trkpt><trkpt lat="44.207258722867785" lon="9.970288552336852"><ele>59.0</ele><time>2026-05-02T14:23:59.999Z</time></trkpt><trkpt lat="44.20718923475159" lon="9.970251293613337"><ele>59.00000000000001</ele><time>2026-05-02T14:24:00.999Z</time></trkpt><trkpt lat="44.20714525796383" lon="9.970179082345235"><ele>59.0</ele><time>2026-05-02T14:24:01.999Z</time></trkpt><trkpt lat="44.20711056054438" lon="9.970074549299826"><ele>57.800000000000004</ele><time>2026-05-02T14:24:02.999Z</time></trkpt><trkpt lat="44.20707688217327" lon="9.969949147892969"><ele>56.60000000000001</ele><time>2026-05-02T14:24:03.999Z</time></trkpt><trkpt lat="44.20703397538848" lon="9.969816607943429"><ele>55.4</ele><time>2026-05-02T14:24:04.999Z</time></trkpt><trkpt lat="44.20698016694458" lon="9.969690708492195"><ele>54.2</ele><time>2026-05-02T14:24:05.999Z</time></trkpt><trkpt lat="44.20692896071014" lon="9.96956344089579"><ele>53.0</ele><time>2026-05-02T14:24:06.999Z</time></trkpt><trkpt lat="44.206881461595756" lon="9.969438993720779"><ele>53.0</ele><time>2026-05-02T14:24:07.999Z</time></trkpt><trkpt lat="44.20683222008145" lon="9.969303103840508"><ele>53.0</ele><time>2026-05-02T14:24:08.999Z</time></trkpt><trkpt lat="44.20678402989745" lon="9.969176525575618"><ele>53.0</ele><time>2026-05-02T14:24:09.999Z</time></trkpt><trkpt lat="44.206740150576" lon="9.96905889502426"><ele>53.0</ele><time>2026-05-02T14:24:10.999Z</time></trkpt><trkpt lat="44.206695765552" lon="9.968939277661306"><ele>53.0</ele><time>2026-05-02T14:24:11.999Z</time></trkpt><trkpt lat="44.206652623326214" lon="9.968832042570359"><ele>53.8</ele><time>2026-05-02T14:24:12.999Z</time></trkpt><trkpt lat="44.20661419133905" lon="9.96873341349187"><ele>54.599999999999994</ele><time>2026-05-02T14:24:13.999Z</time></trkpt><trkpt lat="44.20657337500899" lon="9.968628889322144"><ele>55.400000000000006</ele><time>2026-05-02T14:24:14.999Z</time></trkpt><trkpt lat="44.20654533743368" lon="9.968541614784055"><ele>56.2</ele><time>2026-05-02T14:24:15.999Z</time></trkpt><trkpt lat="44.20654801415564" lon="9.968412487815325"><ele>57.0</ele><time>2026-05-02T14:24:17.999Z</time></trkpt><trkpt lat="44.206643145617214" lon="9.968284410170556"><ele>57.2</ele><time>2026-05-02T14:24:19.999Z</time></trkpt><trkpt lat="44.206724874689506" lon="9.968208903862786"><ele>57.400000000000006</ele><time>2026-05-02T14:24:20.999Z</time></trkpt><trkpt lat="44.2068148034428" lon="9.96813009327877"><ele>57.599999999999994</ele><time>2026-05-02T14:24:21.999Z</time></trkpt><trkpt lat="44.2069045612709" lon="9.968028838321521"><ele>57.8</ele><time>2026-05-02T14:24:22.999Z</time></trkpt><trkpt lat="44.20698220096922" lon="9.967940229566786"><ele>58.0</ele><time>2026-05-02T14:24:23.999Z</time></trkpt><trkpt lat="44.207055415591284" lon="9.967858147695933"><ele>58.0</ele><time>2026-05-02T14:24:24.999Z</time></trkpt><trkpt lat="44.20712993948506" lon="9.967783543302016"><ele>58.0</ele><time>2026-05-02T14:24:25.999Z</time></trkpt><trkpt lat="44.20718922481551" lon="9.96775250385414"><ele>58.0</ele><time>2026-05-02T14:24:26.999Z</time></trkpt><trkpt lat="44.207254092283996" lon="9.967718008318037"><ele>58.0</ele><time>2026-05-02T14:24:28.999Z</time></trkpt><trkpt lat="44.20728347878924" lon="9.967435108860588"><ele>58.0</ele><time>2026-05-02T14:24:32.999Z</time></trkpt><trkpt lat="44.2072723872262" lon="9.967291279426204"><ele>57.5</ele><time>2026-05-02T14:24:33.999Z</time></trkpt><trkpt lat="44.20726211322898" lon="9.967145273329333"><ele>57.0</ele><time>2026-05-02T14:24:34.999Z</time></trkpt><trkpt lat="44.207259354173424" lon="9.966969894204603"><ele>56.5</ele><time>2026-05-02T14:24:35.999Z</time></trkpt><trkpt lat="44.20725307147216" lon="9.966758093732365"><ele>56.0</ele><time>2026-05-02T14:24:36.999Z</time></trkpt><trkpt lat="44.20724735551751" lon="9.9665661626947"><ele>55.25</ele><time>2026-05-02T14:24:37.999Z</time></trkpt><trkpt lat="44.20723902060944" lon="9.966376649584875"><ele>54.5</ele><time>2026-05-02T14:24:38.999Z</time></trkpt><trkpt lat="44.20723188866939" lon="9.966183962033014"><ele>53.75</ele><time>2026-05-02T14:24:39.999Z</time></trkpt><trkpt lat="44.207227392229036" lon="9.965994797084344"><ele>53.0</ele><time>2026-05-02T14:24:40.999Z</time></trkpt><trkpt lat="44.20722308767506" lon="9.96580527695034"><ele>52.5</ele><time>2026-05-02T14:24:41.999Z</time></trkpt><trkpt lat="44.207217901486764" lon="9.965626991201386"><ele>52.0</ele><time>2026-05-02T14:24:42.999Z</time></trkpt><trkpt lat="44.20721312045352" lon="9.965448476550366"><ele>51.5</ele><time>2026-05-02T14:24:43.999Z</time></trkpt><trkpt lat="44.20720662193857" lon="9.965279391613365"><ele>51.0</ele><time>2026-05-02T14:24:44.999Z</time></trkpt><trkpt lat="44.207201060829064" lon="9.965124037747632"><ele>51.833333333333336</ele><time>2026-05-02T14:24:45.999Z</time></trkpt><trkpt lat="44.2071940766729" lon="9.964986980637745"><ele>52.66666666666667</ele><time>2026-05-02T14:24:46.999Z</time></trkpt><trkpt lat="44.20718952977848" lon="9.964875711188208"><ele>53.5</ele><time>2026-05-02T14:24:47.999Z</time></trkpt><trkpt lat="44.20718327488025" lon="9.964787375387836"><ele>54.333333333333336</ele><time>2026-05-02T14:24:48.999Z</time></trkpt><trkpt lat="44.207170068461814" lon="9.96470021554644"><ele>55.16666666666667</ele><time>2026-05-02T14:24:49.999Z</time></trkpt><trkpt lat="44.20718720875569" lon="9.96460220586294"><ele>56.0</ele><time>2026-05-02T14:24:51.999Z</time></trkpt><trkpt lat="44.207286899474745" lon="9.964589406309678"><ele>56.5</ele><time>2026-05-02T14:24:53.999Z</time></trkpt><trkpt lat="44.20739018235203" lon="9.964585844911921"><ele>57.0</ele><time>2026-05-02T14:24:55.999Z</time></trkpt><trkpt lat="44.207558885799166" lon="9.964556259084434"><ele>57.5</ele><time>2026-05-02T14:24:56.999Z</time></trkpt><trkpt lat="44.20767750087246" lon="9.964490694191438"><ele>58.0</ele><time>2026-05-02T14:24:57.999Z</time></trkpt><trkpt lat="44.20779687703811" lon="9.964389380096575"><ele>58.0</ele><time>2026-05-02T14:24:58.999Z</time></trkpt><trkpt lat="44.20790221021803" lon="9.964353927349029"><ele>58.0</ele><time>2026-05-02T14:24:59.999Z</time></trkpt><trkpt lat="44.208008126050395" lon="9.964313613502842"><ele>58.0</ele><time>2026-05-02T14:25:00.999Z</time></trkpt><trkpt lat="44.20811008172179" lon="9.964270572453005"><ele>58.0</ele><time>2026-05-02T14:25:01.999Z</time></trkpt><trkpt lat="44.2082196005096" lon="9.964212650964633"><ele>58.0</ele><time>2026-05-02T14:25:02.999Z</time></trkpt><trkpt lat="44.20832045421918" lon="9.964140583826246"><ele>61.4</ele><time>2026-05-02T14:25:03.999Z</time></trkpt><trkpt lat="44.20840825075501" lon="9.964078266706922"><ele>64.8</ele><time>2026-05-02T14:25:04.999Z</time></trkpt><trkpt lat="44.2084927330217" lon="9.964033579624934"><ele>68.2</ele><time>2026-05-02T14:25:05.999Z</time></trkpt><trkpt lat="44.20858350105984" lon="9.964010851565229"><ele>71.6</ele><time>2026-05-02T14:25:06.999Z</time></trkpt><trkpt lat="44.20866569675601" lon="9.964039449654102"><ele>75.0</ele><time>2026-05-02T14:25:07.999Z</time></trkpt><trkpt lat="44.208769494598364" lon="9.964079043489424"><ele>75.0</ele><time>2026-05-02T14:25:08.999Z</time></trkpt><trkpt lat="44.20888214883772" lon="9.96411729865085"><ele>75.0</ele><time>2026-05-02T14:25:09.999Z</time></trkpt><trkpt lat="44.20900404438409" lon="9.964152858703534"><ele>75.0</ele><time>2026-05-02T14:25:10.999Z</time></trkpt><trkpt lat="44.20911445366499" lon="9.964172443314402"><ele>75.0</ele><time>2026-05-02T14:25:11.999Z</time></trkpt><trkpt lat="44.209209170912935" lon="9.9641502528445"><ele>75.0</ele><time>2026-05-02T14:25:12.999Z</time></trkpt><trkpt lat="44.209315453408564" lon="9.964129215342197"><ele>73.8</ele><time>2026-05-02T14:25:13.999Z</time></trkpt><trkpt lat="44.209428216159885" lon="9.964104036128544"><ele>72.6</ele><time>2026-05-02T14:25:14.999Z</time></trkpt><trkpt lat="44.20950986127303" lon="9.964066784766406"><ele>71.4</ele><time>2026-05-02T14:25:15.999Z</time></trkpt><trkpt lat="44.209613136177744" lon="9.964005058706356"><ele>70.2</ele><time>2026-05-02T14:25:16.999Z</time></trkpt><trkpt lat="44.209725165630545" lon="9.963922900167278"><ele>69.0</ele><time>2026-05-02T14:25:17.999Z</time></trkpt><trkpt lat="44.209852146906705" lon="9.963842050638823"><ele>67.5</ele><time>2026-05-02T14:25:18.999Z</time></trkpt><trkpt lat="44.209975191460686" lon="9.963728055861154"><ele>66.0</ele><time>2026-05-02T14:25:19.999Z</time></trkpt><trkpt lat="44.21008172224527" lon="9.963587627617638"><ele>64.5</ele><time>2026-05-02T14:25:20.999Z</time></trkpt><trkpt lat="44.210202409736645" lon="9.96350016472827"><ele>63.0</ele><time>2026-05-02T14:25:21.999Z</time></trkpt><trkpt lat="44.21030170248691" lon="9.96343821644922"><ele>63.0</ele><time>2026-05-02T14:25:22.999Z</time></trkpt><trkpt lat="44.210410635076784" lon="9.963403918506254"><ele>63.0</ele><time>2026-05-02T14:25:23.999Z</time></trkpt><trkpt lat="44.21053341566334" lon="9.963381821697546"><ele>63.0</ele><time>2026-05-02T14:25:24.999Z</time></trkpt><trkpt lat="44.21066222715746" lon="9.96336298343057"><ele>63.0</ele><time>2026-05-02T14:25:25.999Z</time></trkpt><trkpt lat="44.210775869022235" lon="9.963355485223062"><ele>65.0</ele><time>2026-05-02T14:25:26.999Z</time></trkpt><trkpt lat="44.21088254019351" lon="9.96334831575993"><ele>67.0</ele><time>2026-05-02T14:25:27.999Z</time></trkpt><trkpt lat="44.21098199277179" lon="9.963331922122812"><ele>69.0</ele><time>2026-05-02T14:25:28.999Z</time></trkpt><trkpt lat="44.21105766816734" lon="9.963312091578592"><ele>71.0</ele><time>2026-05-02T14:25:29.999Z</time></trkpt><trkpt lat="44.21113693927503" lon="9.963284216873081"><ele>73.0</ele><time>2026-05-02T14:25:30.999Z</time></trkpt><trkpt lat="44.211223144866125" lon="9.963255109236473"><ele>73.0</ele><time>2026-05-02T14:25:31.999Z</time></trkpt><trkpt lat="44.21131646557691" lon="9.963230792628984"><ele>73.0</ele><time>2026-05-02T14:25:32.999Z</time></trkpt><trkpt lat="44.21140983331582" lon="9.96321346444132"><ele>73.0</ele><time>2026-05-02T14:25:33.999Z</time></trkpt><trkpt lat="44.21149920319892" lon="9.963197890283384"><ele>73.0</ele><time>2026-05-02T14:25:34.999Z</time></trkpt><trkpt lat="44.21158640832156" lon="9.963184224506023"><ele>73.0</ele><time>2026-05-02T14:25:35.999Z</time></trkpt><trkpt lat="44.21167160041851" lon="9.963170874209103"><ele>72.16666666666666</ele><time>2026-05-02T14:25:36.999Z</time></trkpt><trkpt lat="44.21176433351025" lon="9.963156342152843"><ele>71.33333333333333</ele><time>2026-05-02T14:25:37.999Z</time></trkpt><trkpt lat="44.21184284137259" lon="9.963144072673904"><ele>70.5</ele><time>2026-05-02T14:25:38.999Z</time></trkpt><trkpt lat="44.21192999047895" lon="9.96313055965483"><ele>69.66666666666667</ele><time>2026-05-02T14:25:39.999Z</time></trkpt><trkpt lat="44.212015756005165" lon="9.96311726117738"><ele>68.83333333333334</ele><time>2026-05-02T14:25:40.999Z</time></trkpt><trkpt lat="44.21211406167465" lon="9.96310201828035"><ele>68.0</ele><time>2026-05-02T14:25:41.999Z</time></trkpt><trkpt lat="44.21222418370984" lon="9.963083050390468"><ele>68.0</ele><time>2026-05-02T14:25:42.999Z</time></trkpt><trkpt lat="44.21231888050188" lon="9.963066373600006"><ele>68.0</ele><time>2026-05-02T14:25:43.999Z</time></trkpt><trkpt lat="44.21240629043975" lon="9.963050980075485"><ele>68.0</ele><time>2026-05-02T14:25:44.999Z</time></trkpt><trkpt lat="44.21247431901969" lon="9.963038999766164"><ele>68.0</ele><time>2026-05-02T14:25:45.999Z</time></trkpt><trkpt lat="44.21255199154057" lon="9.963024572329434"><ele>68.0</ele><time>2026-05-02T14:25:46.999Z</time></trkpt><trkpt lat="44.21263687658698" lon="9.963007435534163"><ele>68.0</ele><time>2026-05-02T14:25:47.999Z</time></trkpt><trkpt lat="44.212740706987894" lon="9.962986311871882"><ele>67.4</ele><time>2026-05-02T14:25:48.999Z</time></trkpt><trkpt lat="44.212855271793856" lon="9.962958138964153"><ele>66.8</ele><time>2026-05-02T14:25:49.999Z</time></trkpt><trkpt lat="44.21298430712326" lon="9.962891849333806"><ele>66.2</ele><time>2026-05-02T14:25:50.999Z</time></trkpt><trkpt lat="44.21306672307601" lon="9.962828626461505"><ele>65.6</ele><time>2026-05-02T14:25:51.999Z</time></trkpt><trkpt lat="44.21311106817074" lon="9.962754657936062"><ele>65.0</ele><time>2026-05-02T14:25:52.999Z</time></trkpt><trkpt lat="44.21316272872685" lon="9.962700577164371"><ele>65.0</ele><time>2026-05-02T14:25:53.999Z</time></trkpt><trkpt lat="44.2131533757528" lon="9.962570665293423"><ele>65.0</ele><time>2026-05-02T14:25:54.999Z</time></trkpt><trkpt lat="44.21323455852671" lon="9.962496762239201"><ele>65.0</ele><time>2026-05-02T14:25:56.999Z</time></trkpt><trkpt lat="44.21326068232878" lon="9.962260010013189"><ele>65.0</ele><time>2026-05-02T14:25:58.999Z</time></trkpt><trkpt lat="44.213353834700314" lon="9.96226212384212"><ele>68.0</ele><time>2026-05-02T14:25:59.999Z</time></trkpt><trkpt lat="44.21342984576248" lon="9.962269735863858"><ele>71.0</ele><time>2026-05-02T14:26:00.999Z</time></trkpt><trkpt lat="44.21352837250838" lon="9.962213455428172"><ele>74.0</ele><time>2026-05-02T14:26:02.999Z</time></trkpt><trkpt lat="44.21362370062542" lon="9.962170549481305"><ele>77.0</ele><time>2026-05-02T14:26:04.999Z</time></trkpt><trkpt lat="44.21370111426745" lon="9.962135212913735"><ele>80.0</ele><time>2026-05-02T14:26:06.999Z</time></trkpt><trkpt lat="44.213775267241296" lon="9.962063065598338"><ele>80.0</ele><time>2026-05-02T14:26:09.999Z</time></trkpt><trkpt lat="44.21384115956503" lon="9.9619985156439"><ele>80.0</ele><time>2026-05-02T14:26:10.999Z</time></trkpt><trkpt lat="44.213910183028126" lon="9.961944877646225"><ele>80.0</ele><time>2026-05-02T14:26:11.999Z</time></trkpt><trkpt lat="44.21399629576226" lon="9.96187794292423"><ele>80.0</ele><time>2026-05-02T14:26:12.999Z</time></trkpt><trkpt lat="44.214265791293954" lon="9.962236975970546"><ele>78.83333333333334</ele><time>2026-05-02T14:26:13.999Z</time></trkpt><trkpt lat="44.21435185768175" lon="9.962177082507893"><ele>77.66666666666667</ele><time>2026-05-02T14:26:14.999Z</time></trkpt><trkpt lat="44.21442526937691" lon="9.962139203364377"><ele>76.5</ele><time>2026-05-02T14:26:15.999Z</time></trkpt><trkpt lat="44.21447285207431" lon="9.962052857918684"><ele>75.33333333333333</ele><time>2026-05-02T14:26:16.999Z</time></trkpt><trkpt lat="44.21454761565842" lon="9.962007054354785"><ele>74.16666666666666</ele><time>2026-05-02T14:26:17.999Z</time></trkpt><trkpt lat="44.214614467000715" lon="9.961966097254885"><ele>73.0</ele><time>2026-05-02T14:26:18.999Z</time></trkpt><trkpt lat="44.21468350128885" lon="9.961923029325996"><ele>73.0</ele><time>2026-05-02T14:26:19.999Z</time></trkpt><trkpt lat="44.21475405282183" lon="9.961879198489127"><ele>73.0</ele><time>2026-05-02T14:26:20.999Z</time></trkpt><trkpt lat="44.21482602714772" lon="9.961834483740455"><ele>73.0</ele><time>2026-05-02T14:26:21.999Z</time></trkpt><trkpt lat="44.21492728032061" lon="9.961914541599239"><ele>73.0</ele><time>2026-05-02T14:26:22.999Z</time></trkpt><trkpt lat="44.21499808597621" lon="9.961902822632098"><ele>73.0</ele><time>2026-05-02T14:26:23.999Z</time></trkpt><trkpt lat="44.21507615476082" lon="9.961913093198532"><ele>73.0</ele><time>2026-05-02T14:26:24.999Z</time></trkpt><trkpt lat="44.21516087398168" lon="9.961920649873468"><ele>71.4</ele><time>2026-05-02T14:26:25.999Z</time></trkpt><trkpt lat="44.21518471719984" lon="9.961693714864909"><ele>69.8</ele><time>2026-05-02T14:26:26.999Z</time></trkpt><trkpt lat="44.215301587177215" lon="9.961640823067306"><ele>68.2</ele><time>2026-05-02T14:26:28.999Z</time></trkpt><trkpt lat="44.21536809321418" lon="9.961611101417828"><ele>66.6</ele><time>2026-05-02T14:26:29.999Z</time></trkpt><trkpt lat="44.215436227729164" lon="9.961580652074497"><ele>65.0</ele><time>2026-05-02T14:26:30.999Z</time></trkpt><trkpt lat="44.2155583876817" lon="9.961756062055116"><ele>67.0</ele><time>2026-05-02T14:26:31.999Z</time></trkpt><trkpt lat="44.21561364394345" lon="9.961674558029744"><ele>69.0</ele><time>2026-05-02T14:26:32.999Z</time></trkpt><trkpt lat="44.21566670953419" lon="9.961608849978257"><ele>71.0</ele><time>2026-05-02T14:26:33.999Z</time></trkpt><trkpt lat="44.21576302779995" lon="9.961554904790859"><ele>73.0</ele><time>2026-05-02T14:26:35.999Z</time></trkpt><trkpt lat="44.21579633515192" lon="9.961422013822123"><ele>75.0</ele><time>2026-05-02T14:26:36.999Z</time></trkpt><trkpt lat="44.21592528636118" lon="9.961384406768412"><ele>75.0</ele><time>2026-05-02T14:26:38.999Z</time></trkpt><trkpt lat="44.21599798119265" lon="9.961368939921549"><ele>75.0</ele><time>2026-05-02T14:26:39.999Z</time></trkpt><trkpt lat="44.21607681134549" lon="9.96135905150135"><ele>75.0</ele><time>2026-05-02T14:26:40.999Z</time></trkpt><trkpt lat="44.216158016581" lon="9.961357274344225"><ele>75.0</ele><time>2026-05-02T14:26:41.999Z</time></trkpt><trkpt lat="44.21624430991557" lon="9.961367588343643"><ele>75.0</ele><time>2026-05-02T14:26:42.999Z</time></trkpt><trkpt lat="44.21631790806142" lon="9.961379412384145"><ele>75.0</ele><time>2026-05-02T14:26:43.999Z</time></trkpt><trkpt lat="44.216381881378474" lon="9.961393243888741"><ele>74.5</ele><time>2026-05-02T14:26:44.999Z</time></trkpt><trkpt lat="44.21649909252352" lon="9.961424353264533"><ele>74.0</ele><time>2026-05-02T14:26:46.999Z</time></trkpt><trkpt lat="44.21656126582899" lon="9.961444714539228"><ele>73.5</ele><time>2026-05-02T14:26:48.999Z</time></trkpt><trkpt lat="44.216634911973074" lon="9.961469000129336"><ele>73.0</ele><time>2026-05-02T14:26:50.999Z</time></trkpt><trkpt lat="44.216712495234574" lon="9.961494583486148"><ele>72.5</ele><time>2026-05-02T14:26:52.999Z</time></trkpt><trkpt lat="44.21681663074708" lon="9.961523390229717"><ele>72.0</ele><time>2026-05-02T14:26:55.999Z</time></trkpt><trkpt lat="44.216917131724486" lon="9.96155320584427"><ele>72.0</ele><time>2026-05-02T14:26:57.999Z</time></trkpt><trkpt lat="44.216996049001246" lon="9.961588289223922"><ele>72.0</ele><time>2026-05-02T14:26:59.999Z</time></trkpt><trkpt lat="44.21709738826348" lon="9.961599346172914"><ele>72.0</ele><time>2026-05-02T14:27:01.999Z</time></trkpt><trkpt lat="44.2172254891771" lon="9.96156718618991"><ele>72.0</ele><time>2026-05-02T14:27:03.999Z</time></trkpt><trkpt lat="44.2173022578855" lon="9.96153689854874"><ele>72.0</ele><time>2026-05-02T14:27:04.999Z</time></trkpt><trkpt lat="44.21741026603868" lon="9.961451190629681"><ele>71.33333333333333</ele><time>2026-05-02T14:27:06.999Z</time></trkpt><trkpt lat="44.21747601071175" lon="9.961397052087616"><ele>70.66666666666667</ele><time>2026-05-02T14:27:07.999Z</time></trkpt><trkpt lat="44.217565903428486" lon="9.961326749008334"><ele>70.0</ele><time>2026-05-02T14:27:08.999Z</time></trkpt><trkpt lat="44.21766050714811" lon="9.96125276169832"><ele>69.33333333333334</ele><time>2026-05-02T14:27:09.999Z</time></trkpt><trkpt lat="44.21764571341465" lon="9.961164614805982"><ele>68.66666666666667</ele><time>2026-05-02T14:27:10.999Z</time></trkpt><trkpt lat="44.21771096719085" lon="9.96109075686296"><ele>68.0</ele><time>2026-05-02T14:27:11.999Z</time></trkpt><trkpt lat="44.21777108012879" lon="9.961015125069087"><ele>68.0</ele><time>2026-05-02T14:27:12.999Z</time></trkpt><trkpt lat="44.217839834423216" lon="9.960936109232513"><ele>68.0</ele><time>2026-05-02T14:27:13.999Z</time></trkpt><trkpt lat="44.217901968626016" lon="9.960865809727354"><ele>68.0</ele><time>2026-05-02T14:27:14.999Z</time></trkpt><trkpt lat="44.218039142118585" lon="9.960716078675565"><ele>68.0</ele><time>2026-05-02T14:27:15.999Z</time></trkpt><trkpt lat="44.218270757003005" lon="9.960658454849813"><ele>67.33333333333334</ele><time>2026-05-02T14:27:16.999Z</time></trkpt><trkpt lat="44.21840863022197" lon="9.960679089854581"><ele>66.66666666666667</ele><time>2026-05-02T14:27:17.999Z</time></trkpt><trkpt lat="44.21860590218612" lon="9.960820290850801"><ele>66.0</ele><time>2026-05-02T14:27:20.999Z</time></trkpt><trkpt lat="44.21859690055252" lon="9.961034156414767"><ele>66.0</ele><time>2026-05-02T14:27:21.999Z</time></trkpt><trkpt lat="44.218612007140955" lon="9.960942793262566"><ele>66.0</ele><time>2026-05-02T14:27:22.999Z</time></trkpt><trkpt lat="44.2186242921805" lon="9.960844315073958"><ele>66.0</ele><time>2026-05-02T14:27:23.999Z</time></trkpt><trkpt lat="44.21862615729183" lon="9.96073856926782"><ele>66.0</ele><time>2026-05-02T14:27:24.999Z</time></trkpt><trkpt lat="44.21861944179012" lon="9.96064348660863"><ele>66.0</ele><time>2026-05-02T14:27:25.999Z</time></trkpt><trkpt lat="44.218609753618395" lon="9.960511003964616"><ele>66.0</ele><time>2026-05-02T14:27:26.999Z</time></trkpt><trkpt lat="44.21861131554913" lon="9.960415676308527"><ele>66.0</ele><time>2026-05-02T14:27:27.999Z</time></trkpt><trkpt lat="44.21860610441933" lon="9.960317054353615"><ele>66.0</ele><time>2026-05-02T14:27:28.999Z</time></trkpt><trkpt lat="44.21861757550128" lon="9.960220938185456"><ele>66.0</ele><time>2026-05-02T14:27:29.999Z</time></trkpt><trkpt lat="44.218633326075135" lon="9.960129142315676"><ele>66.0</ele><time>2026-05-02T14:27:30.999Z</time></trkpt><trkpt lat="44.218641244851554" lon="9.960001648887975"><ele>66.0</ele><time>2026-05-02T14:27:31.999Z</time></trkpt><trkpt lat="44.21865442710804" lon="9.959875974080495"><ele>66.0</ele><time>2026-05-02T14:27:33.999Z</time></trkpt><trkpt lat="44.21874358903435" lon="9.959822729502429"><ele>66.0</ele><time>2026-05-02T14:27:50.999Z</time></trkpt><trkpt lat="44.218825423929836" lon="9.959815689898097"><ele>66.39999999999999</ele><time>2026-05-02T14:27:51.999Z</time></trkpt><trkpt lat="44.21889460852055" lon="9.959816317561343"><ele>66.8</ele><time>2026-05-02T14:27:52.999Z</time></trkpt><trkpt lat="44.21900808490926" lon="9.959807763032865"><ele>67.19999999999999</ele><time>2026-05-02T14:27:54.999Z</time></trkpt><trkpt lat="44.2189021233604" lon="9.959799244054407"><ele>67.6</ele><time>2026-05-02T14:28:07.999Z</time></trkpt><trkpt lat="44.218833023275444" lon="9.959814567741981"><ele>68.0</ele><time>2026-05-02T14:28:08.999Z</time></trkpt><trkpt lat="44.218732765794506" lon="9.95981479359462"><ele>67.66666666666667</ele><time>2026-05-02T14:28:10.999Z</time></trkpt><trkpt lat="44.21867213744416" lon="9.959868174353238"><ele>67.33333333333334</ele><time>2026-05-02T14:28:14.999Z</time></trkpt><trkpt lat="44.21861468421501" lon="9.959938114856834"><ele>67.0</ele><time>2026-05-02T14:28:39.999Z</time></trkpt><trkpt lat="44.218626745689825" lon="9.960108579169825"><ele>66.66666666666667</ele><time>2026-05-02T14:29:47.999Z</time></trkpt><trkpt lat="44.21862363164577" lon="9.960216140955616"><ele>66.33333333333333</ele><time>2026-05-02T14:29:48.999Z</time></trkpt><trkpt lat="44.21860694524105" lon="9.960346781620723"><ele>66.0</ele><time>2026-05-02T14:29:50.999Z</time></trkpt><trkpt lat="44.2185929193628" lon="9.960476011387591"><ele>66.0</ele><time>2026-05-02T14:29:52.999Z</time></trkpt><trkpt lat="44.21860527518869" lon="9.960658435538368"><ele>66.0</ele><time>2026-05-02T14:29:54.999Z</time></trkpt><trkpt lat="44.218605632926355" lon="9.96076834842631"><ele>66.0</ele><time>2026-05-02T14:29:55.999Z</time></trkpt><trkpt lat="44.21860162843649" lon="9.960868981836073"><ele>66.0</ele><time>2026-05-02T14:29:56.999Z</time></trkpt><trkpt lat="44.21859183202868" lon="9.960958611156471"><ele>66.0</ele><time>2026-05-02T14:29:57.999Z</time></trkpt><trkpt lat="44.21853795579732" lon="9.961113211429694"><ele>66.33333333333333</ele><time>2026-05-02T14:30:00Z</time></trkpt><trkpt lat="44.21847146724702" lon="9.961167661056802"><ele>66.66666666666667</ele><time>2026-05-02T14:30:01Z</time></trkpt><trkpt lat="44.21841302885821" lon="9.961223997854532"><ele>67.0</ele><time>2026-05-02T14:30:02Z</time></trkpt><trkpt lat="44.218331976756964" lon="9.961285482055972"><ele>67.33333333333334</ele><time>2026-05-02T14:30:03Z</time></trkpt><trkpt lat="44.218251582855856" lon="9.961336981950877"><ele>67.66666666666667</ele><time>2026-05-02T14:30:04Z</time></trkpt><trkpt lat="44.21816665507817" lon="9.961392165969304"><ele>68.0</ele><time>2026-05-02T14:30:05Z</time></trkpt><trkpt lat="44.21807913749044" lon="9.961449615771215"><ele>68.0</ele><time>2026-05-02T14:30:06Z</time></trkpt><trkpt lat="44.217984467962566" lon="9.961495515991354"><ele>68.0</ele><time>2026-05-02T14:30:07Z</time></trkpt><trkpt lat="44.217889615956494" lon="9.96156440943589"><ele>68.0</ele><time>2026-05-02T14:30:08Z</time></trkpt><trkpt lat="44.217796425675814" lon="9.961611460876018"><ele>68.0</ele><time>2026-05-02T14:30:09Z</time></trkpt><trkpt lat="44.21769826723171" lon="9.961670315878886"><ele>68.0</ele><time>2026-05-02T14:30:10Z</time></trkpt><trkpt lat="44.21761092508397" lon="9.961713580273077"><ele>66.5</ele><time>2026-05-02T14:30:11Z</time></trkpt><trkpt lat="44.2175362365154" lon="9.961754855247937"><ele>65.0</ele><time>2026-05-02T14:30:12Z</time></trkpt><trkpt lat="44.217448778881774" lon="9.96175884916377"><ele>63.5</ele><time>2026-05-02T14:30:13Z</time></trkpt><trkpt lat="44.21736033498894" lon="9.96178797157918"><ele>62.0</ele><time>2026-05-02T14:30:14Z</time></trkpt><trkpt lat="44.21726634322258" lon="9.961795461700113"><ele>60.50000000000001</ele><time>2026-05-02T14:30:15Z</time></trkpt><trkpt lat="44.217172820818" lon="9.96180911275316"><ele>59.0</ele><time>2026-05-02T14:30:16Z</time></trkpt><trkpt lat="44.217097192924015" lon="9.96182232882241"><ele>59.0</ele><time>2026-05-02T14:30:17Z</time></trkpt><trkpt lat="44.21702446245994" lon="9.961841183494855"><ele>59.00000000000001</ele><time>2026-05-02T14:30:18Z</time></trkpt><trkpt lat="44.216900190255565" lon="9.961843592687599"><ele>59.00000000000001</ele><time>2026-05-02T14:30:20Z</time></trkpt><trkpt lat="44.21682265360367" lon="9.961859208821553"><ele>59.0</ele><time>2026-05-02T14:30:21Z</time></trkpt><trkpt lat="44.21672182963907" lon="9.961788278742109"><ele>59.0</ele><time>2026-05-02T14:30:23Z</time></trkpt><trkpt lat="44.216653294694794" lon="9.961683992704062"><ele>61.16666666666667</ele><time>2026-05-02T14:30:25Z</time></trkpt><trkpt lat="44.216606459884744" lon="9.9616061391943"><ele>63.333333333333336</ele><time>2026-05-02T14:30:26Z</time></trkpt><trkpt lat="44.21656190943137" lon="9.961541501848929"><ele>65.5</ele><time>2026-05-02T14:30:27Z</time></trkpt><trkpt lat="44.216468544100806" lon="9.961479228473724"><ele>67.66666666666667</ele><time>2026-05-02T14:30:29Z</time></trkpt><trkpt lat="44.21639825306056" lon="9.961481689326009"><ele>69.83333333333333</ele><time>2026-05-02T14:30:30Z</time></trkpt><trkpt lat="44.216324966489964" lon="9.96148851880257"><ele>72.0</ele><time>2026-05-02T14:30:31Z</time></trkpt><trkpt lat="44.21623541582469" lon="9.96149395676398"><ele>72.5</ele><time>2026-05-02T14:30:32Z</time></trkpt><trkpt lat="44.21614739612806" lon="9.96149406277374"><ele>73.0</ele><time>2026-05-02T14:30:33Z</time></trkpt><trkpt lat="44.216059623979504" lon="9.961496700402218"><ele>73.5</ele><time>2026-05-02T14:30:34Z</time></trkpt><trkpt lat="44.215972103484766" lon="9.961502183394051"><ele>74.0</ele><time>2026-05-02T14:30:35Z</time></trkpt><trkpt lat="44.21588833123771" lon="9.96151909178668"><ele>74.5</ele><time>2026-05-02T14:30:36Z</time></trkpt><trkpt lat="44.21581145586266" lon="9.961544798340968"><ele>75.0</ele><time>2026-05-02T14:30:37Z</time></trkpt><trkpt lat="44.21572717409586" lon="9.96157413694244"><ele>73.0</ele><time>2026-05-02T14:30:38Z</time></trkpt><trkpt lat="44.21560710954062" lon="9.961664441654866"><ele>71.0</ele><time>2026-05-02T14:30:40Z</time></trkpt><trkpt lat="44.21555850200869" lon="9.961737260706558"><ele>69.0</ele><time>2026-05-02T14:30:41Z</time></trkpt><trkpt lat="44.21549528583376" lon="9.961820474468732"><ele>67.0</ele><time>2026-05-02T14:30:42Z</time></trkpt><trkpt lat="44.21542382895538" lon="9.961893340717154"><ele>65.0</ele><time>2026-05-02T14:30:43Z</time></trkpt><trkpt lat="44.21535407839143" lon="9.961929289257808"><ele>65.0</ele><time>2026-05-02T14:30:43.999Z</time></trkpt><trkpt lat="44.21527789802163" lon="9.96193972923462"><ele>65.0</ele><time>2026-05-02T14:30:44.999Z</time></trkpt><trkpt lat="44.21519438972689" lon="9.961934040302816"><ele>65.0</ele><time>2026-05-02T14:30:45.999Z</time></trkpt><trkpt lat="44.21511328040564" lon="9.961922037017388"><ele>65.0</ele><time>2026-05-02T14:30:46.999Z</time></trkpt><trkpt lat="44.21498513737428" lon="9.961907481790064"><ele>65.0</ele><time>2026-05-02T14:30:48.999Z</time></trkpt><trkpt lat="44.214921720011766" lon="9.961916962525217"><ele>65.0</ele><time>2026-05-02T14:30:49.999Z</time></trkpt><trkpt lat="44.214851460679135" lon="9.961926302714389"><ele>67.0</ele><time>2026-05-02T14:30:50.999Z</time></trkpt><trkpt lat="44.214769256935405" lon="9.961950493785896"><ele>69.0</ele><time>2026-05-02T14:30:51.999Z</time></trkpt><trkpt lat="44.21467410034236" lon="9.962005060515711"><ele>71.0</ele><time>2026-05-02T14:30:52.999Z</time></trkpt><trkpt lat="44.214536143106656" lon="9.961867061809986"><ele>73.0</ele><time>2026-05-02T14:30:53.999Z</time></trkpt><trkpt lat="44.21443972081041" lon="9.961926832098756"><ele>73.0</ele><time>2026-05-02T14:30:54.999Z</time></trkpt><trkpt lat="44.21433910458231" lon="9.961989202180712"><ele>73.0</ele><time>2026-05-02T14:30:55.999Z</time></trkpt><trkpt lat="44.21427967218088" lon="9.962026043151935"><ele>73.0</ele><time>2026-05-02T14:30:56.999Z</time></trkpt><trkpt lat="44.21420251259277" lon="9.962073872854889"><ele>73.0</ele><time>2026-05-02T14:30:57.999Z</time></trkpt><trkpt lat="44.21410804113352" lon="9.962130819856235"><ele>73.0</ele><time>2026-05-02T14:30:58.999Z</time></trkpt><trkpt lat="44.21401705457679" lon="9.962185118283108"><ele>74.4</ele><time>2026-05-02T14:30:59.999Z</time></trkpt><trkpt lat="44.213944164662394" lon="9.962226969780945"><ele>75.8</ele><time>2026-05-02T14:31:00.999Z</time></trkpt><trkpt lat="44.21386774072177" lon="9.962270198425227"><ele>77.2</ele><time>2026-05-02T14:31:01.999Z</time></trkpt><trkpt lat="44.21379884165248" lon="9.962309170749183"><ele>78.6</ele><time>2026-05-02T14:31:02.999Z</time></trkpt><trkpt lat="44.213697052437965" lon="9.962364413542394"><ele>80.0</ele><time>2026-05-02T14:31:04.999Z</time></trkpt><trkpt lat="44.21358708547954" lon="9.962353058826416"><ele>80.0</ele><time>2026-05-02T14:31:07.999Z</time></trkpt><trkpt lat="44.21350673521464" lon="9.9623696334502"><ele>80.0</ele><time>2026-05-02T14:31:08.999Z</time></trkpt><trkpt lat="44.21340691123113" lon="9.962373255824486"><ele>80.0</ele><time>2026-05-02T14:31:09.999Z</time></trkpt><trkpt lat="44.213331011232654" lon="9.962379716192027"><ele>80.0</ele><time>2026-05-02T14:31:10.999Z</time></trkpt><trkpt lat="44.21324360255005" lon="9.962416892667001"><ele>80.0</ele><time>2026-05-02T14:31:11.999Z</time></trkpt><trkpt lat="44.21313492227001" lon="9.962434423641472"><ele>81.83333333333334</ele><time>2026-05-02T14:31:14.999Z</time></trkpt><trkpt lat="44.21305699578694" lon="9.962487245796893"><ele>83.66666666666667</ele><time>2026-05-02T14:31:15.999Z</time></trkpt><trkpt lat="44.21298805127629" lon="9.962593041042501"><ele>85.5</ele><time>2026-05-02T14:31:16.999Z</time></trkpt><trkpt lat="44.212922385581614" lon="9.962650152525068"><ele>87.33333333333333</ele><time>2026-05-02T14:31:17.999Z</time></trkpt><trkpt lat="44.21285764887578" lon="9.962695092643948"><ele>89.16666666666666</ele><time>2026-05-02T14:31:18.999Z</time></trkpt><trkpt lat="44.21277118518246" lon="9.962691444545284"><ele>91.0</ele><time>2026-05-02T14:31:19.999Z</time></trkpt><trkpt lat="44.21268534696895" lon="9.962730140360945"><ele>85.25</ele><time>2026-05-02T14:31:20.999Z</time></trkpt><trkpt lat="44.21255646402098" lon="9.962767937768827"><ele>79.5</ele><time>2026-05-02T14:31:21.999Z</time></trkpt><trkpt lat="44.2124114722635" lon="9.962799875093992"><ele>73.75</ele><time>2026-05-02T14:31:22.999Z</time></trkpt><trkpt lat="44.21229203353373" lon="9.962827047237099"><ele>68.0</ele><time>2026-05-02T14:31:23.999Z</time></trkpt><trkpt lat="44.21216571751377" lon="9.962858787357991"><ele>68.0</ele><time>2026-05-02T14:31:24.999Z</time></trkpt><trkpt lat="44.212042779412734" lon="9.96289311452865"><ele>68.0</ele><time>2026-05-02T14:31:25.999Z</time></trkpt><trkpt lat="44.211921519939615" lon="9.962918163271475"><ele>68.0</ele><time>2026-05-02T14:31:26.999Z</time></trkpt><trkpt lat="44.21181693133925" lon="9.962936947538841"><ele>68.0</ele><time>2026-05-02T14:31:27.999Z</time></trkpt><trkpt lat="44.21172326350433" lon="9.96296656835005"><ele>68.0</ele><time>2026-05-02T14:31:28.999Z</time></trkpt><trkpt lat="44.211618239680384" lon="9.96301843255104"><ele>68.0</ele><time>2026-05-02T14:31:29.999Z</time></trkpt><trkpt lat="44.211507842242554" lon="9.96301720956087"><ele>68.0</ele><time>2026-05-02T14:31:30.999Z</time></trkpt><trkpt lat="44.211370866854466" lon="9.963036301634672"><ele>68.0</ele><time>2026-05-02T14:31:31.999Z</time></trkpt><trkpt lat="44.211222140936265" lon="9.963057031495456"><ele>68.0</ele><time>2026-05-02T14:31:32.999Z</time></trkpt><trkpt lat="44.21109658382433" lon="9.963074532029587"><ele>69.25</ele><time>2026-05-02T14:31:33.999Z</time></trkpt><trkpt lat="44.21097009033224" lon="9.96309216314646"><ele>70.5</ele><time>2026-05-02T14:31:34.999Z</time></trkpt><trkpt lat="44.21085790061937" lon="9.963107800469063"><ele>71.75</ele><time>2026-05-02T14:31:35.999Z</time></trkpt><trkpt lat="44.210738825332434" lon="9.9631246890576"><ele>73.0</ele><time>2026-05-02T14:31:36.999Z</time></trkpt><trkpt lat="44.21062558453736" lon="9.963141865183"><ele>74.2</ele><time>2026-05-02T14:31:37.999Z</time></trkpt><trkpt lat="44.21051716207137" lon="9.963158310553666"><ele>75.4</ele><time>2026-05-02T14:31:38.999Z</time></trkpt><trkpt lat="44.210404763009635" lon="9.963175359083115"><ele>76.60000000000001</ele><time>2026-05-02T14:31:39.999Z</time></trkpt><trkpt lat="44.21031502929212" lon="9.963188969797013"><ele>77.8</ele><time>2026-05-02T14:31:40.999Z</time></trkpt><trkpt lat="44.210198258257705" lon="9.963206681479555"><ele>79.0</ele><time>2026-05-02T14:31:41.999Z</time></trkpt><trkpt lat="44.21008647141129" lon="9.963221928497918"><ele>79.0</ele><time>2026-05-02T14:31:42.999Z</time></trkpt><trkpt lat="44.20996114847304" lon="9.963238818301814"><ele>79.0</ele><time>2026-05-02T14:31:43.999Z</time></trkpt><trkpt lat="44.20983608545918" lon="9.96325567318747"><ele>79.0</ele><time>2026-05-02T14:31:44.999Z</time></trkpt><trkpt lat="44.2097270164737" lon="9.963281749699046"><ele>79.0</ele><time>2026-05-02T14:31:45.999Z</time></trkpt><trkpt lat="44.2096299978586" lon="9.963308492320568"><ele>80.80000000000001</ele><time>2026-05-02T14:31:46.999Z</time></trkpt><trkpt lat="44.20952860725313" lon="9.96330417394351"><ele>82.60000000000001</ele><time>2026-05-02T14:31:47.999Z</time></trkpt><trkpt lat="44.20943519043437" lon="9.963292034705809"><ele>84.4</ele><time>2026-05-02T14:31:48.999Z</time></trkpt><trkpt lat="44.20933046063279" lon="9.963295085998757"><ele>86.2</ele><time>2026-05-02T14:31:49.999Z</time></trkpt><trkpt lat="44.20921602007403" lon="9.963296304443809"><ele>88.0</ele><time>2026-05-02T14:31:50.999Z</time></trkpt><trkpt lat="44.20912259725108" lon="9.963292213400164"><ele>88.0</ele><time>2026-05-02T14:31:51.999Z</time></trkpt><trkpt lat="44.20902036537432" lon="9.963286865576418"><ele>88.0</ele><time>2026-05-02T14:31:52.999Z</time></trkpt><trkpt lat="44.208922934457696" lon="9.963279845461615"><ele>88.0</ele><time>2026-05-02T14:31:53.999Z</time></trkpt><trkpt lat="44.208820684518926" lon="9.963270311757094"><ele>88.0</ele><time>2026-05-02T14:31:54.999Z</time></trkpt><trkpt lat="44.20870486579338" lon="9.963255653000322"><ele>88.0</ele><time>2026-05-02T14:31:55.999Z</time></trkpt><trkpt lat="44.20862166717292" lon="9.963243913930988"><ele>90.2</ele><time>2026-05-02T14:31:56.999Z</time></trkpt><trkpt lat="44.208541466510184" lon="9.963231144562032"><ele>92.4</ele><time>2026-05-02T14:31:57.999Z</time></trkpt><trkpt lat="44.208419139421174" lon="9.96322970563708"><ele>94.60000000000001</ele><time>2026-05-02T14:31:59.999Z</time></trkpt><trkpt lat="44.20834821855362" lon="9.963240857728676"><ele>96.80000000000001</ele><time>2026-05-02T14:32:00.999Z</time></trkpt><trkpt lat="44.20827564565658" lon="9.963251879713164"><ele>99.0</ele><time>2026-05-02T14:32:01.999Z</time></trkpt><trkpt lat="44.20807391400293" lon="9.964189712432077"><ele>90.8</ele><time>2026-05-02T14:32:02.999Z</time></trkpt><trkpt lat="44.207951957842525" lon="9.964234051044054"><ele>82.60000000000001</ele><time>2026-05-02T14:32:03.999Z</time></trkpt><trkpt lat="44.207841261590026" lon="9.96428053625992"><ele>74.4</ele><time>2026-05-02T14:32:04.999Z</time></trkpt><trkpt lat="44.20774485429981" lon="9.964338240835119"><ele>66.2</ele><time>2026-05-02T14:32:05.999Z</time></trkpt><trkpt lat="44.20765578109018" lon="9.964397193151564"><ele>58.0</ele><time>2026-05-02T14:32:06.999Z</time></trkpt><trkpt lat="44.20756618202001" lon="9.964441133026451"><ele>57.99999999999999</ele><time>2026-05-02T14:32:07.999Z</time></trkpt><trkpt lat="44.20747672326028" lon="9.964469059158844"><ele>58.0</ele><time>2026-05-02T14:32:08.999Z</time></trkpt><trkpt lat="44.207394075273896" lon="9.96447133966206"><ele>58.0</ele><time>2026-05-02T14:32:09.999Z</time></trkpt><trkpt lat="44.20732156333662" lon="9.96446592588837"><ele>58.0</ele><time>2026-05-02T14:32:10.999Z</time></trkpt><trkpt lat="44.2072246465245" lon="9.964488859014974"><ele>57.99999999999999</ele><time>2026-05-02T14:32:12.999Z</time></trkpt><trkpt lat="44.2071712578887" lon="9.964538516079175"><ele>58.0</ele><time>2026-05-02T14:32:15.999Z</time></trkpt><trkpt lat="44.207154367752416" lon="9.964673955743256"><ele>57.599999999999994</ele><time>2026-05-02T14:32:17.999Z</time></trkpt><trkpt lat="44.2071819584863" lon="9.964810585529396"><ele>57.199999999999996</ele><time>2026-05-02T14:32:18.999Z</time></trkpt><trkpt lat="44.207191187772686" lon="9.964940507863833"><ele>56.8</ele><time>2026-05-02T14:32:19.999Z</time></trkpt><trkpt lat="44.20719446710236" lon="9.965071759982868"><ele>56.4</ele><time>2026-05-02T14:32:20.999Z</time></trkpt><trkpt lat="44.207159693996104" lon="9.965209703581284"><ele>56.0</ele><time>2026-05-02T14:32:21.999Z</time></trkpt><trkpt lat="44.20716559381724" lon="9.96535864629947"><ele>55.25</ele><time>2026-05-02T14:32:22.999Z</time></trkpt><trkpt lat="44.207171909410704" lon="9.965519188675973"><ele>54.5</ele><time>2026-05-02T14:32:23.999Z</time></trkpt><trkpt lat="44.207178235424905" lon="9.965688392059858"><ele>53.75</ele><time>2026-05-02T14:32:24.999Z</time></trkpt><trkpt lat="44.20718432372296" lon="9.965851237363895"><ele>53.0</ele><time>2026-05-02T14:32:25.999Z</time></trkpt><trkpt lat="44.20719012604145" lon="9.966007184674751"><ele>53.0</ele><time>2026-05-02T14:32:26.999Z</time></trkpt><trkpt lat="44.207196281736785" lon="9.966177969853227"><ele>53.0</ele><time>2026-05-02T14:32:27.999Z</time></trkpt><trkpt lat="44.20720275501934" lon="9.966357566836178"><ele>53.0</ele><time>2026-05-02T14:32:28.999Z</time></trkpt><trkpt lat="44.207208812389574" lon="9.966525624205659"><ele>53.0</ele><time>2026-05-02T14:32:29.999Z</time></trkpt><trkpt lat="44.20721438249614" lon="9.966680162475598"><ele>53.50000000000001</ele><time>2026-05-02T14:32:30.999Z</time></trkpt><trkpt lat="44.2072192533193" lon="9.966815300660127"><ele>54.0</ele><time>2026-05-02T14:32:31.999Z</time></trkpt><trkpt lat="44.207223519113306" lon="9.966933652054367"><ele>54.5</ele><time>2026-05-02T14:32:32.999Z</time></trkpt><trkpt lat="44.207227526119574" lon="9.967044823496172"><ele>55.0</ele><time>2026-05-02T14:32:33.999Z</time></trkpt><trkpt lat="44.207231516916416" lon="9.96715754471952"><ele>55.50000000000001</ele><time>2026-05-02T14:32:34.999Z</time></trkpt><trkpt lat="44.20723534905719" lon="9.967267099310515"><ele>56.0</ele><time>2026-05-02T14:32:35.999Z</time></trkpt><trkpt lat="44.20723896369074" lon="9.967370846042803"><ele>56.5</ele><time>2026-05-02T14:32:36.999Z</time></trkpt><trkpt lat="44.207243467149375" lon="9.967544610308549"><ele>57.0</ele><time>2026-05-02T14:32:38.999Z</time></trkpt><trkpt lat="44.207246307612586" lon="9.967633622933217"><ele>57.5</ele><time>2026-05-02T14:32:39.999Z</time></trkpt><trkpt lat="44.2072553093232" lon="9.967769523183554"><ele>58.0</ele><time>2026-05-02T14:32:41.999Z</time></trkpt><trkpt lat="44.20744065869198" lon="9.967778952651516"><ele>58.49999999999999</ele><time>2026-05-02T14:32:43.999Z</time></trkpt><trkpt lat="44.207508337380425" lon="9.967751374615476"><ele>59.0</ele><time>2026-05-02T14:32:44.999Z</time></trkpt><trkpt lat="44.20759270416885" lon="9.967718439605635"><ele>59.5</ele><time>2026-05-02T14:32:45.999Z</time></trkpt><trkpt lat="44.207690985579724" lon="9.967682814988589"><ele>60.0</ele><time>2026-05-02T14:32:46.999Z</time></trkpt><trkpt lat="44.20775959792261" lon="9.967662286859511"><ele>60.49999999999999</ele><time>2026-05-02T14:32:47.999Z</time></trkpt><trkpt lat="44.20782425059777" lon="9.967640033859531"><ele>61.0</ele><time>2026-05-02T14:32:48.999Z</time></trkpt><trkpt lat="44.207942580613036" lon="9.9675612986676"><ele>60.49999999999999</ele><time>2026-05-02T14:32:50.999Z</time></trkpt><trkpt lat="44.20800123608897" lon="9.967506285113268"><ele>60.0</ele><time>2026-05-02T14:32:51.999Z</time></trkpt><trkpt lat="44.208074964988846" lon="9.967436109638708"><ele>59.5</ele><time>2026-05-02T14:32:52.999Z</time></trkpt><trkpt lat="44.20814820786365" lon="9.967367936951192"><ele>59.0</ele><time>2026-05-02T14:32:53.999Z</time></trkpt><trkpt lat="44.20822851394305" lon="9.967298951186528"><ele>58.49999999999999</ele><time>2026-05-02T14:32:54.999Z</time></trkpt><trkpt lat="44.20831995126606" lon="9.96725294740443"><ele>58.0</ele><time>2026-05-02T14:32:55.999Z</time></trkpt><trkpt lat="44.208423577214326" lon="9.967250623409793"><ele>58.0</ele><time>2026-05-02T14:32:56.999Z</time></trkpt><trkpt lat="44.208533216929624" lon="9.967246094412399"><ele>58.0</ele><time>2026-05-02T14:32:57.999Z</time></trkpt><trkpt lat="44.20864430038184" lon="9.96726089509062"><ele>58.0</ele><time>2026-05-02T14:32:58.999Z</time></trkpt><trkpt lat="44.20875810288183" lon="9.967275218098493"><ele>58.0</ele><time>2026-05-02T14:32:59.999Z</time></trkpt><trkpt lat="44.20886909490172" lon="9.967267724046252"><ele>58.0</ele><time>2026-05-02T14:33:00.999Z</time></trkpt><trkpt lat="44.20897354179786" lon="9.967282682479151"><ele>58.2</ele><time>2026-05-02T14:33:01.999Z</time></trkpt><trkpt lat="44.209077656177634" lon="9.967289123434298"><ele>58.4</ele><time>2026-05-02T14:33:02.999Z</time></trkpt><trkpt lat="44.20918543972237" lon="9.96727905845291"><ele>58.60000000000001</ele><time>2026-05-02T14:33:03.999Z</time></trkpt><trkpt lat="44.20929618991453" lon="9.967257659829372"><ele>58.800000000000004</ele><time>2026-05-02T14:33:04.999Z</time></trkpt><trkpt lat="44.209410173172316" lon="9.967234989811686"><ele>59.0</ele><time>2026-05-02T14:33:05.999Z</time></trkpt><trkpt lat="44.20951883844521" lon="9.967215283423911"><ele>59.0</ele><time>2026-05-02T14:33:06.999Z</time></trkpt><trkpt lat="44.20963619652607" lon="9.967205298337234"><ele>59.0</ele><time>2026-05-02T14:33:07.999Z</time></trkpt><trkpt lat="44.20974996969285" lon="9.967195054822023"><ele>59.0</ele><time>2026-05-02T14:33:08.999Z</time></trkpt><trkpt lat="44.20987105157124" lon="9.967188347886875"><ele>59.0</ele><time>2026-05-02T14:33:09.999Z</time></trkpt><trkpt lat="44.20998741469726" lon="9.967189778611765"><ele>58.5</ele><time>2026-05-02T14:33:10.999Z</time></trkpt><trkpt lat="44.210110431688456" lon="9.96718990098825"><ele>58.0</ele><time>2026-05-02T14:33:11.999Z</time></trkpt><trkpt lat="44.21023927665072" lon="9.967188319905771"><ele>57.5</ele><time>2026-05-02T14:33:12.999Z</time></trkpt><trkpt lat="44.21036628772674" lon="9.967185613138774"><ele>57.0</ele><time>2026-05-02T14:33:13.999Z</time></trkpt><trkpt lat="44.210500639919665" lon="9.967191865431474"><ele>57.0</ele><time>2026-05-02T14:33:14.999Z</time></trkpt><trkpt lat="44.21062293090999" lon="9.967190132188156"><ele>57.0</ele><time>2026-05-02T14:33:15.999Z</time></trkpt><trkpt lat="44.21075125382513" lon="9.967190076697163"><ele>57.0</ele><time>2026-05-02T14:33:16.999Z</time></trkpt><trkpt lat="44.21088244152298" lon="9.967182918350915"><ele>57.0</ele><time>2026-05-02T14:33:17.999Z</time></trkpt><trkpt lat="44.21101593858847" lon="9.967166134886769"><ele>57.25</ele><time>2026-05-02T14:33:18.999Z</time></trkpt><trkpt lat="44.2111506171264" lon="9.967132495215544"><ele>57.5</ele><time>2026-05-02T14:33:19.999Z</time></trkpt><trkpt lat="44.21128007567459" lon="9.967104852107356"><ele>57.75</ele><time>2026-05-02T14:33:20.999Z</time></trkpt><trkpt lat="44.21141115986922" lon="9.967077885444521"><ele>58.0</ele><time>2026-05-02T14:33:21.999Z</time></trkpt><trkpt lat="44.21154465310664" lon="9.967054378733755"><ele>58.0</ele><time>2026-05-02T14:33:22.999Z</time></trkpt><trkpt lat="44.21168319435105" lon="9.967046021526246"><ele>58.0</ele><time>2026-05-02T14:33:23.999Z</time></trkpt><trkpt lat="44.211820640938114" lon="9.96704882984526"><ele>58.0</ele><time>2026-05-02T14:33:24.999Z</time></trkpt><trkpt lat="44.21195353788422" lon="9.9670473927193"><ele>58.0</ele><time>2026-05-02T14:33:25.999Z</time></trkpt><trkpt lat="44.21208385448187" lon="9.967017322911364"><ele>58.0</ele><time>2026-05-02T14:33:26.999Z</time></trkpt><trkpt lat="44.212217244792086" lon="9.966957932360252"><ele>58.0</ele><time>2026-05-02T14:33:27.999Z</time></trkpt><trkpt lat="44.21234342253003" lon="9.96688608885926"><ele>58.0</ele><time>2026-05-02T14:33:28.999Z</time></trkpt><trkpt lat="44.21247020160415" lon="9.966825775554419"><ele>58.0</ele><time>2026-05-02T14:33:29.999Z</time></trkpt><trkpt lat="44.21259604278058" lon="9.966785058596495"><ele>58.0</ele><time>2026-05-02T14:33:30.999Z</time></trkpt><trkpt lat="44.21272508993755" lon="9.966754815968116"><ele>58.0</ele><time>2026-05-02T14:33:31.999Z</time></trkpt><trkpt lat="44.212853867165535" lon="9.966723704943233"><ele>58.0</ele><time>2026-05-02T14:33:32.999Z</time></trkpt><trkpt lat="44.212979671991164" lon="9.96668787318339"><ele>58.0</ele><time>2026-05-02T14:33:33.999Z</time></trkpt><trkpt lat="44.21309454134406" lon="9.96665891280219"><ele>57.8</ele><time>2026-05-02T14:33:34.999Z</time></trkpt><trkpt lat="44.21319786272317" lon="9.966637348959932"><ele>57.599999999999994</ele><time>2026-05-02T14:33:35.999Z</time></trkpt><trkpt lat="44.213301976883656" lon="9.96663098520182"><ele>57.400000000000006</ele><time>2026-05-02T14:33:36.999Z</time></trkpt><trkpt lat="44.21339809666306" lon="9.96665197807374"><ele>57.2</ele><time>2026-05-02T14:33:37.999Z</time></trkpt><trkpt lat="44.2134730073833" lon="9.966695476840824"><ele>57.0</ele><time>2026-05-02T14:33:38.999Z</time></trkpt><trkpt lat="44.21355235295957" lon="9.96687345919784"><ele>57.5</ele><time>2026-05-02T14:33:40.999Z</time></trkpt><trkpt lat="44.21358044859186" lon="9.967000670947531"><ele>58.0</ele><time>2026-05-02T14:33:41.999Z</time></trkpt><trkpt lat="44.21361222039564" lon="9.967151149544783"><ele>58.5</ele><time>2026-05-02T14:33:42.999Z</time></trkpt><trkpt lat="44.21363641460643" lon="9.967266290557548"><ele>59.0</ele><time>2026-05-02T14:33:43.999Z</time></trkpt><trkpt lat="44.213658815794346" lon="9.96735188583976"><ele>59.5</ele><time>2026-05-02T14:33:44.999Z</time></trkpt><trkpt lat="44.21369718137149" lon="9.967436434644087"><ele>60.0</ele><time>2026-05-02T14:33:46.999Z</time></trkpt><trkpt lat="44.21376785340134" lon="9.967451742515705"><ele>60.0</ele><time>2026-05-02T14:33:48.999Z</time></trkpt><trkpt lat="44.213874873707844" lon="9.967413692165437"><ele>60.0</ele><time>2026-05-02T14:33:50.999Z</time></trkpt><trkpt lat="44.21394737205764" lon="9.967361511321998"><ele>60.0</ele><time>2026-05-02T14:33:51.999Z</time></trkpt><trkpt lat="44.214012719631356" lon="9.967336568830804"><ele>60.0</ele><time>2026-05-02T14:33:52.999Z</time></trkpt><trkpt lat="44.21410401422119" lon="9.9673163718248"><ele>60.0</ele><time>2026-05-02T14:33:56Z</time></trkpt><trkpt lat="44.214197876455906" lon="9.96726766896955"><ele>60.2</ele><time>2026-05-02T14:33:59Z</time></trkpt><trkpt lat="44.214298368948604" lon="9.967223363050458"><ele>60.4</ele><time>2026-05-02T14:34:00Z</time></trkpt><trkpt lat="44.21440019087375" lon="9.967201182972667"><ele>60.599999999999994</ele><time>2026-05-02T14:34:01Z</time></trkpt><trkpt lat="44.21449341364138" lon="9.96715000269811"><ele>60.8</ele><time>2026-05-02T14:34:02Z</time></trkpt><trkpt lat="44.2145693166412" lon="9.967116177549894"><ele>61.0</ele><time>2026-05-02T14:34:03Z</time></trkpt><trkpt lat="44.214630580082144" lon="9.967060519319029"><ele>61.0</ele><time>2026-05-02T14:34:04Z</time></trkpt><trkpt lat="44.21469834783607" lon="9.967039469712072"><ele>60.99999999999999</ele><time>2026-05-02T14:34:05Z</time></trkpt><trkpt lat="44.21480402805708" lon="9.966976822773871"><ele>60.99999999999999</ele><time>2026-05-02T14:34:07Z</time></trkpt><trkpt lat="44.21490462586073" lon="9.966931902143843"><ele>61.0</ele><time>2026-05-02T14:34:09Z</time></trkpt><trkpt lat="44.214993295465185" lon="9.966883044538529"><ele>61.0</ele><time>2026-05-02T14:34:11Z</time></trkpt><trkpt lat="44.215098998463546" lon="9.967059197174176"><ele>61.0</ele><time>2026-05-02T14:34:12.999Z</time></trkpt><trkpt lat="44.2151313725727" lon="9.967237303254448"><ele>60.99999999999999</ele><time>2026-05-02T14:34:14.999Z</time></trkpt><trkpt lat="44.215154476963455" lon="9.967363207883839"><ele>60.99999999999999</ele><time>2026-05-02T14:34:15.999Z</time></trkpt><trkpt lat="44.21517623810608" lon="9.967498300326428"><ele>61.0</ele><time>2026-05-02T14:34:16.999Z</time></trkpt><trkpt lat="44.21519647497571" lon="9.967629932436099"><ele>61.0</ele><time>2026-05-02T14:34:17.999Z</time></trkpt><trkpt lat="44.21522262678273" lon="9.967749400195697"><ele>61.0</ele><time>2026-05-02T14:34:18.999Z</time></trkpt><trkpt lat="44.21525348914477" lon="9.96786004902277"><ele>60.99999999999999</ele><time>2026-05-02T14:34:19.999Z</time></trkpt><trkpt lat="44.215320792460076" lon="9.967961381559173"><ele>60.99999999999999</ele><time>2026-05-02T14:34:21.999Z</time></trkpt><trkpt lat="44.21541742709307" lon="9.967946306775227"><ele>61.0</ele><time>2026-05-02T14:34:24.999Z</time></trkpt><trkpt lat="44.21553162309279" lon="9.967908066325224"><ele>61.0</ele><time>2026-05-02T14:34:25.999Z</time></trkpt><trkpt lat="44.215654327384115" lon="9.967870081007609"><ele>61.199999999999996</ele><time>2026-05-02T14:34:26.999Z</time></trkpt><trkpt lat="44.21577160891646" lon="9.967832284501888"><ele>61.39999999999999</ele><time>2026-05-02T14:34:27.999Z</time></trkpt><trkpt lat="44.21587876145703" lon="9.967800357526825"><ele>61.6</ele><time>2026-05-02T14:34:28.999Z</time></trkpt><trkpt lat="44.21598697584879" lon="9.967770567199432"><ele>61.8</ele><time>2026-05-02T14:34:29.999Z</time></trkpt><trkpt lat="44.21608513722864" lon="9.96773552334486"><ele>62.0</ele><time>2026-05-02T14:34:30.999Z</time></trkpt><trkpt lat="44.21617660135572" lon="9.967706010191892"><ele>62.0</ele><time>2026-05-02T14:34:31.999Z</time></trkpt><trkpt lat="44.21626630932112" lon="9.967682255916484"><ele>62.0</ele><time>2026-05-02T14:34:32.999Z</time></trkpt><trkpt lat="44.21635150280089" lon="9.967657675814602"><ele>62.0</ele><time>2026-05-02T14:34:33.999Z</time></trkpt><trkpt lat="44.21643965577534" lon="9.967645635068546"><ele>62.0</ele><time>2026-05-02T14:34:34.999Z</time></trkpt><trkpt lat="44.21653401097908" lon="9.967659670463139"><ele>62.0</ele><time>2026-05-02T14:34:35.999Z</time></trkpt><trkpt lat="44.21663230848532" lon="9.967712507785883"><ele>61.75</ele><time>2026-05-02T14:34:36.999Z</time></trkpt><trkpt lat="44.21672644220887" lon="9.967809664587618"><ele>61.5</ele><time>2026-05-02T14:34:37.999Z</time></trkpt><trkpt lat="44.21681328628556" lon="9.967932871528761"><ele>61.25</ele><time>2026-05-02T14:34:38.999Z</time></trkpt><trkpt lat="44.21688476914948" lon="9.968049457913557"><ele>61.0</ele><time>2026-05-02T14:34:39.999Z</time></trkpt><trkpt lat="44.21695917240567" lon="9.968163780490473"><ele>60.99999999999999</ele><time>2026-05-02T14:34:40.999Z</time></trkpt><trkpt lat="44.21703175696389" lon="9.968255088649254"><ele>61.0</ele><time>2026-05-02T14:34:41.999Z</time></trkpt><trkpt lat="44.21710812376135" lon="9.96833254600806"><ele>61.0</ele><time>2026-05-02T14:34:42.999Z</time></trkpt><trkpt lat="44.21720454079115" lon="9.96836681829361"><ele>61.0</ele><time>2026-05-02T14:34:43.999Z</time></trkpt><trkpt lat="44.2172717886837" lon="9.9683998864563"><ele>60.99999999999999</ele><time>2026-05-02T14:34:44.999Z</time></trkpt><trkpt lat="44.21733046217019" lon="9.968451071591305"><ele>61.0</ele><time>2026-05-02T14:34:45.999Z</time></trkpt><trkpt lat="44.21741093247383" lon="9.968589694358645"><ele>61.599999999999994</ele><time>2026-05-02T14:34:46.999Z</time></trkpt><trkpt lat="44.217432717995145" lon="9.968719553422352"><ele>62.199999999999996</ele><time>2026-05-02T14:34:47.999Z</time></trkpt><trkpt lat="44.217489317840986" lon="9.968839855069744"><ele>62.800000000000004</ele><time>2026-05-02T14:34:48.999Z</time></trkpt><trkpt lat="44.21754859149191" lon="9.968981591790882"><ele>63.400000000000006</ele><time>2026-05-02T14:34:49.999Z</time></trkpt><trkpt lat="44.217605715447306" lon="9.969123439050298"><ele>64.0</ele><time>2026-05-02T14:34:50.999Z</time></trkpt><trkpt lat="44.217650381888284" lon="9.969250217009753"><ele>65.25</ele><time>2026-05-02T14:34:51.999Z</time></trkpt><trkpt lat="44.2176836501292" lon="9.969378493972533"><ele>66.5</ele><time>2026-05-02T14:34:52.999Z</time></trkpt><trkpt lat="44.21771130456215" lon="9.969499649427307"><ele>67.75</ele><time>2026-05-02T14:34:53.999Z</time></trkpt><trkpt lat="44.21771708167584" lon="9.969610185363122"><ele>69.0</ele><time>2026-05-02T14:34:54.999Z</time></trkpt><trkpt lat="44.217896118244674" lon="9.969650838148526"><ele>69.0</ele><time>2026-05-02T14:34:55.999Z</time></trkpt><trkpt lat="44.21798010437075" lon="9.969726161036228"><ele>69.0</ele><time>2026-05-02T14:34:56.999Z</time></trkpt><trkpt lat="44.21807310824891" lon="9.969794700001739"><ele>69.0</ele><time>2026-05-02T14:34:57.999Z</time></trkpt><trkpt lat="44.218170491581766" lon="9.969846846252102"><ele>69.0</ele><time>2026-05-02T14:34:58.999Z</time></trkpt><trkpt lat="44.218271143023166" lon="9.969906615887329"><ele>69.0</ele><time>2026-05-02T14:34:59.999Z</time></trkpt><trkpt lat="44.218378774202854" lon="9.969958880557499"><ele>67.5</ele><time>2026-05-02T14:35:00.999Z</time></trkpt><trkpt lat="44.21850231065837" lon="9.970002965896038"><ele>66.0</ele><time>2026-05-02T14:35:01.999Z</time></trkpt><trkpt lat="44.21865327814301" lon="9.970037542552927"><ele>64.5</ele><time>2026-05-02T14:35:02.999Z</time></trkpt><trkpt lat="44.218797773801896" lon="9.970062776273332"><ele>63.0</ele><time>2026-05-02T14:35:03.999Z</time></trkpt><trkpt lat="44.21893570168153" lon="9.970054657913272"><ele>62.75</ele><time>2026-05-02T14:35:04.999Z</time></trkpt><trkpt lat="44.21906963125813" lon="9.970028503218384"><ele>62.5</ele><time>2026-05-02T14:35:05.999Z</time></trkpt><trkpt lat="44.21920203963035" lon="9.969978219596946"><ele>62.25</ele><time>2026-05-02T14:35:06.999Z</time></trkpt><trkpt lat="44.219313555698946" lon="9.969911911666134"><ele>62.0</ele><time>2026-05-02T14:35:07.999Z</time></trkpt><trkpt lat="44.219415322742954" lon="9.969839548383415"><ele>62.00000000000001</ele><time>2026-05-02T14:35:08.999Z</time></trkpt><trkpt lat="44.219496134629345" lon="9.969777297548488"><ele>62.0</ele><time>2026-05-02T14:35:09.999Z</time></trkpt><trkpt lat="44.21955788221765" lon="9.969728974916016"><ele>62.0</ele><time>2026-05-02T14:35:10.999Z</time></trkpt><trkpt lat="44.21961787409413" lon="9.969669861929628"><ele>62.0</ele><time>2026-05-02T14:35:12.999Z</time></trkpt><trkpt lat="44.21969698886095" lon="9.969603260288906"><ele>62.00000000000001</ele><time>2026-05-02T14:35:14.999Z</time></trkpt><trkpt lat="44.21976237739428" lon="9.969562911089026"><ele>62.0</ele><time>2026-05-02T14:35:15.999Z</time></trkpt><trkpt lat="44.219841176913" lon="9.969510634658779"><ele>62.00000000000001</ele><time>2026-05-02T14:35:16.999Z</time></trkpt><trkpt lat="44.21992725813828" lon="9.96945476372149"><ele>62.0</ele><time>2026-05-02T14:35:17.999Z</time></trkpt><trkpt lat="44.22001101357689" lon="9.969426298693556"><ele>62.0</ele><time>2026-05-02T14:35:18.999Z</time></trkpt><trkpt lat="44.220089774993504" lon="9.969423004672551"><ele>62.0</ele><time>2026-05-02T14:35:19.999Z</time></trkpt><trkpt lat="44.22017558104532" lon="9.96942455604836"><ele>62.00000000000001</ele><time>2026-05-02T14:35:20.999Z</time></trkpt><trkpt lat="44.220267366771694" lon="9.969433532995424"><ele>62.0</ele><time>2026-05-02T14:35:21.999Z</time></trkpt><trkpt lat="44.22036365769606" lon="9.969462435081539"><ele>62.0</ele><time>2026-05-02T14:35:22.999Z</time></trkpt><trkpt lat="44.22045555823015" lon="9.96954003849551"><ele>62.0</ele><time>2026-05-02T14:35:23.999Z</time></trkpt><trkpt lat="44.22057360024083" lon="9.96960172345053"><ele>62.0</ele><time>2026-05-02T14:35:24.999Z</time></trkpt><trkpt lat="44.22066932367331" lon="9.969645323123997"><ele>62.0</ele><time>2026-05-02T14:35:25.999Z</time></trkpt><trkpt lat="44.22078000150467" lon="9.969696411535184"><ele>62.2</ele><time>2026-05-02T14:35:26.999Z</time></trkpt><trkpt lat="44.22088511966833" lon="9.969769213382147"><ele>62.400000000000006</ele><time>2026-05-02T14:35:27.999Z</time></trkpt><trkpt lat="44.22098416597634" lon="9.969819125814466"><ele>62.599999999999994</ele><time>2026-05-02T14:35:28.999Z</time></trkpt><trkpt lat="44.22107720769571" lon="9.969838936440919"><ele>62.8</ele><time>2026-05-02T14:35:29.999Z</time></trkpt><trkpt lat="44.221179723540885" lon="9.969880940375154"><ele>63.0</ele><time>2026-05-02T14:35:30.999Z</time></trkpt><trkpt lat="44.22130176197641" lon="9.969919890962686"><ele>63.0</ele><time>2026-05-02T14:35:31.999Z</time></trkpt><trkpt lat="44.22144862386895" lon="9.969977201887364"><ele>63.0</ele><time>2026-05-02T14:35:32.999Z</time></trkpt><trkpt lat="44.22160901600863" lon="9.969984103264627"><ele>63.0</ele><time>2026-05-02T14:35:33.999Z</time></trkpt><trkpt lat="44.22175180329093" lon="9.970010547386202"><ele>63.25</ele><time>2026-05-02T14:35:34.999Z</time></trkpt><trkpt lat="44.22188862590824" lon="9.970023611339085"><ele>63.5</ele><time>2026-05-02T14:35:35.999Z</time></trkpt><trkpt lat="44.222014996269806" lon="9.97002809024778"><ele>63.75</ele><time>2026-05-02T14:35:36.999Z</time></trkpt><trkpt lat="44.22213047157353" lon="9.970026901749295"><ele>64.0</ele><time>2026-05-02T14:35:37.999Z</time></trkpt><trkpt lat="44.22223747946206" lon="9.970019581795755"><ele>64.2</ele><time>2026-05-02T14:35:38.999Z</time></trkpt><trkpt lat="44.2223419702398" lon="9.970009429290444"><ele>64.4</ele><time>2026-05-02T14:35:39.999Z</time></trkpt><trkpt lat="44.22244729282353" lon="9.969995211845513"><ele>64.6</ele><time>2026-05-02T14:35:40.999Z</time></trkpt><trkpt lat="44.2225525877642" lon="9.96997523453193"><ele>64.8</ele><time>2026-05-02T14:35:41.999Z</time></trkpt><trkpt lat="44.22266815444835" lon="9.969950526424407"><ele>65.0</ele><time>2026-05-02T14:35:42.999Z</time></trkpt><trkpt lat="44.22278375093779" lon="9.969914569077606"><ele>65.0</ele><time>2026-05-02T14:35:43.999Z</time></trkpt><trkpt lat="44.22289460668247" lon="9.969875576953026"><ele>65.0</ele><time>2026-05-02T14:35:44.999Z</time></trkpt><trkpt lat="44.222992687555205" lon="9.969834809719039"><ele>65.0</ele><time>2026-05-02T14:35:45.999Z</time></trkpt><trkpt lat="44.223087890138494" lon="9.969799182970474"><ele>65.0</ele><time>2026-05-02T14:35:46.999Z</time></trkpt><trkpt lat="44.223178869950964" lon="9.969762512172426"><ele>65.0</ele><time>2026-05-02T14:35:47.999Z</time></trkpt><trkpt lat="44.22327701978119" lon="9.969720828998717"><ele>65.4</ele><time>2026-05-02T14:35:48.999Z</time></trkpt><trkpt lat="44.223370958744404" lon="9.969682208518037"><ele>65.8</ele><time>2026-05-02T14:35:49.999Z</time></trkpt><trkpt lat="44.22346237054675" lon="9.969637815438018"><ele>66.2</ele><time>2026-05-02T14:35:50.999Z</time></trkpt><trkpt lat="44.223561398039664" lon="9.969589056546331"><ele>66.6</ele><time>2026-05-02T14:35:51.999Z</time></trkpt><trkpt lat="44.22366242558525" lon="9.969536892433492"><ele>67.0</ele><time>2026-05-02T14:35:52.999Z</time></trkpt><trkpt lat="44.223769305823126" lon="9.969479634848666"><ele>67.0</ele><time>2026-05-02T14:35:53.999Z</time></trkpt><trkpt lat="44.2238790584572" lon="9.969416408253196"><ele>67.0</ele><time>2026-05-02T14:35:54.999Z</time></trkpt><trkpt lat="44.22400882680024" lon="9.96934023998304"><ele>67.0</ele><time>2026-05-02T14:35:55.999Z</time></trkpt><trkpt lat="44.22418536444805" lon="9.969254050603489"><ele>67.0</ele><time>2026-05-02T14:35:56.999Z</time></trkpt><trkpt lat="44.2243773026882" lon="9.96917010242835"><ele>67.0</ele><time>2026-05-02T14:35:57.999Z</time></trkpt><trkpt lat="44.22454986541928" lon="9.969088347457264"><ele>67.0</ele><time>2026-05-02T14:35:58.999Z</time></trkpt><trkpt lat="44.22471780450639" lon="9.96898958447059"><ele>67.0</ele><time>2026-05-02T14:35:59.999Z</time></trkpt><trkpt lat="44.22487948352837" lon="9.968878980616672"><ele>67.0</ele><time>2026-05-02T14:36:00.999Z</time></trkpt><trkpt lat="44.22503193366009" lon="9.968761020522582"><ele>67.0</ele><time>2026-05-02T14:36:01.999Z</time></trkpt><trkpt lat="44.22517907371142" lon="9.968642311447306"><ele>67.0</ele><time>2026-05-02T14:36:02.999Z</time></trkpt><trkpt lat="44.22532705880252" lon="9.968516595883028"><ele>67.0</ele><time>2026-05-02T14:36:03.999Z</time></trkpt><trkpt lat="44.22547083258321" lon="9.968384002585855"><ele>67.0</ele><time>2026-05-02T14:36:04.999Z</time></trkpt><trkpt lat="44.22560763701806" lon="9.968246896079428"><ele>67.0</ele><time>2026-05-02T14:36:05.999Z</time></trkpt><trkpt lat="44.22574171132371" lon="9.96810237900196"><ele>67.0</ele><time>2026-05-02T14:36:06.999Z</time></trkpt><trkpt lat="44.225877509863004" lon="9.967942581233599"><ele>67.0</ele><time>2026-05-02T14:36:07.999Z</time></trkpt><trkpt lat="44.22599393186402" lon="9.967790847926963"><ele>67.0</ele><time>2026-05-02T14:36:08.999Z</time></trkpt><trkpt lat="44.22610364897312" lon="9.967639472124118"><ele>66.66666666666666</ele><time>2026-05-02T14:36:09.999Z</time></trkpt><trkpt lat="44.22620951727045" lon="9.96748376648231"><ele>66.33333333333333</ele><time>2026-05-02T14:36:10.999Z</time></trkpt><trkpt lat="44.226315776468766" lon="9.967324212518564"><ele>66.0</ele><time>2026-05-02T14:36:11.999Z</time></trkpt><trkpt lat="44.226420919275505" lon="9.967156712831876"><ele>66.0</ele><time>2026-05-02T14:36:12.999Z</time></trkpt><trkpt lat="44.22652318854364" lon="9.966979524856882"><ele>66.0</ele><time>2026-05-02T14:36:13.999Z</time></trkpt><trkpt lat="44.22661776637977" lon="9.966817192897318"><ele>66.0</ele><time>2026-05-02T14:36:14.999Z</time></trkpt><trkpt lat="44.22670188332668" lon="9.966676823266916"><ele>66.0</ele><time>2026-05-02T14:36:15.999Z</time></trkpt><trkpt lat="44.226781585887075" lon="9.96654337736873"><ele>65.5</ele><time>2026-05-02T14:36:16.999Z</time></trkpt><trkpt lat="44.22686086914824" lon="9.966412038989072"><ele>65.0</ele><time>2026-05-02T14:36:17.999Z</time></trkpt><trkpt lat="44.226944442837755" lon="9.966274842998534"><ele>64.5</ele><time>2026-05-02T14:36:18.999Z</time></trkpt><trkpt lat="44.22703260512113" lon="9.966139995769788"><ele>64.0</ele><time>2026-05-02T14:36:19.999Z</time></trkpt><trkpt lat="44.22713530328198" lon="9.966015073775155"><ele>64.0</ele><time>2026-05-02T14:36:20.999Z</time></trkpt><trkpt lat="44.22725714290226" lon="9.965904657064787"><ele>64.0</ele><time>2026-05-02T14:36:21.999Z</time></trkpt><trkpt lat="44.227385671668124" lon="9.965820847960154"><ele>64.0</ele><time>2026-05-02T14:36:22.999Z</time></trkpt><trkpt lat="44.227521425864964" lon="9.96576273239308"><ele>64.0</ele><time>2026-05-02T14:36:23.999Z</time></trkpt><trkpt lat="44.22766484269674" lon="9.965712592260878"><ele>64.5</ele><time>2026-05-02T14:36:24.999Z</time></trkpt><trkpt lat="44.2278143067278" lon="9.965656727047415"><ele>65.0</ele><time>2026-05-02T14:36:25.999Z</time></trkpt><trkpt lat="44.22793507888938" lon="9.965610249974473"><ele>65.5</ele><time>2026-05-02T14:36:26.999Z</time></trkpt><trkpt lat="44.22803106353617" lon="9.965574912884588"><ele>66.0</ele><time>2026-05-02T14:36:27.999Z</time></trkpt><trkpt lat="44.2281227042246" lon="9.965543953740717"><ele>66.2</ele><time>2026-05-02T14:36:28.999Z</time></trkpt><trkpt lat="44.22820643711765" lon="9.965514671732665"><ele>66.39999999999999</ele><time>2026-05-02T14:36:29.999Z</time></trkpt><trkpt lat="44.228275108838766" lon="9.965486601068681"><ele>66.6</ele><time>2026-05-02T14:36:30.999Z</time></trkpt><trkpt lat="44.22835911547763" lon="9.965450072310666"><ele>66.8</ele><time>2026-05-02T14:36:32.999Z</time></trkpt><trkpt lat="44.2284541263032" lon="9.965407833270122"><ele>67.0</ele><time>2026-05-02T14:36:34.999Z</time></trkpt><trkpt lat="44.228565505089726" lon="9.96536713558274"><ele>67.0</ele><time>2026-05-02T14:36:36.999Z</time></trkpt><trkpt lat="44.22870190433387" lon="9.965313864010085"><ele>67.0</ele><time>2026-05-02T14:36:38.999Z</time></trkpt><trkpt lat="44.22881457889224" lon="9.965269671319247"><ele>67.0</ele><time>2026-05-02T14:36:39.999Z</time></trkpt><trkpt lat="44.22897743178554" lon="9.96521386285975"><ele>67.0</ele><time>2026-05-02T14:36:40.999Z</time></trkpt><trkpt lat="44.229143676278255" lon="9.965158659911628"><ele>67.0</ele><time>2026-05-02T14:36:41.999Z</time></trkpt><trkpt lat="44.2293202621426" lon="9.965096831376957"><ele>67.0</ele><time>2026-05-02T14:36:42.999Z</time></trkpt><trkpt lat="44.229485766188446" lon="9.965037494858453"><ele>67.0</ele><time>2026-05-02T14:36:43.999Z</time></trkpt><trkpt lat="44.229638287107456" lon="9.964983467410883"><ele>67.0</ele><time>2026-05-02T14:36:44.999Z</time></trkpt><trkpt lat="44.22977579134446" lon="9.964935392123431"><ele>67.0</ele><time>2026-05-02T14:36:45.999Z</time></trkpt><trkpt lat="44.229899332619155" lon="9.9648890003289"><ele>67.0</ele><time>2026-05-02T14:36:46.999Z</time></trkpt><trkpt lat="44.229988880861995" lon="9.964855113282388"><ele>67.0</ele><time>2026-05-02T14:36:47.999Z</time></trkpt><trkpt lat="44.23008604097882" lon="9.964802615986889"><ele>68.16666666666666</ele><time>2026-05-02T14:36:49.999Z</time></trkpt><trkpt lat="44.230082163316006" lon="9.964703136750394"><ele>69.33333333333333</ele><time>2026-05-02T14:36:51.999Z</time></trkpt><trkpt lat="44.230059278584825" lon="9.964618801784397"><ele>70.5</ele><time>2026-05-02T14:36:53.999Z</time></trkpt><trkpt lat="44.230053501131735" lon="9.964525396704788"><ele>71.66666666666667</ele><time>2026-05-02T14:36:54.999Z</time></trkpt><trkpt lat="44.23005406956464" lon="9.964374655212119"><ele>72.83333333333334</ele><time>2026-05-02T14:36:55.999Z</time></trkpt><trkpt lat="44.23005417631831" lon="9.964231067748615"><ele>74.0</ele><time>2026-05-02T14:36:56.999Z</time></trkpt><trkpt lat="44.23005368829799" lon="9.964112350278679"><ele>74.2</ele><time>2026-05-02T14:36:57.999Z</time></trkpt><trkpt lat="44.230053335564484" lon="9.963978965031012"><ele>74.4</ele><time>2026-05-02T14:36:58.999Z</time></trkpt><trkpt lat="44.230055322738245" lon="9.96381967081195"><ele>74.6</ele><time>2026-05-02T14:36:59.999Z</time></trkpt><trkpt lat="44.23005826025331" lon="9.963652771202888"><ele>74.8</ele><time>2026-05-02T14:37:00.999Z</time></trkpt><trkpt lat="44.23006644591601" lon="9.963507223790675"><ele>75.0</ele><time>2026-05-02T14:37:01.999Z</time></trkpt><trkpt lat="44.23008334482282" lon="9.963382438466782"><ele>74.6</ele><time>2026-05-02T14:37:02.999Z</time></trkpt><trkpt lat="44.23010749110723" lon="9.963247373513259"><ele>74.2</ele><time>2026-05-02T14:37:03.999Z</time></trkpt><trkpt lat="44.23014923607004" lon="9.963129951739417"><ele>73.8</ele><time>2026-05-02T14:37:04.999Z</time></trkpt><trkpt lat="44.23020958682203" lon="9.962990531135365"><ele>73.4</ele><time>2026-05-02T14:37:05.999Z</time></trkpt><trkpt lat="44.23026984429863" lon="9.962844696001453"><ele>73.0</ele><time>2026-05-02T14:37:06.999Z</time></trkpt><trkpt lat="44.23031834475363" lon="9.962696390947544"><ele>73.0</ele><time>2026-05-02T14:37:07.999Z</time></trkpt><trkpt lat="44.23035612022304" lon="9.962554932635527"><ele>73.0</ele><time>2026-05-02T14:37:08.999Z</time></trkpt><trkpt lat="44.23039541834222" lon="9.962414968426376"><ele>73.0</ele><time>2026-05-02T14:37:09.999Z</time></trkpt><trkpt lat="44.23043904639209" lon="9.962274716788485"><ele>73.0</ele><time>2026-05-02T14:37:10.999Z</time></trkpt><trkpt lat="44.23048214681245" lon="9.962123713486308"><ele>73.0</ele><time>2026-05-02T14:37:11.999Z</time></trkpt><trkpt lat="44.23052181032106" lon="9.961970857968803"><ele>73.0</ele><time>2026-05-02T14:37:12.999Z</time></trkpt><trkpt lat="44.23056512813366" lon="9.961818845918922"><ele>73.0</ele><time>2026-05-02T14:37:13.999Z</time></trkpt><trkpt lat="44.23060869694947" lon="9.96166266604702"><ele>73.0</ele><time>2026-05-02T14:37:14.999Z</time></trkpt><trkpt lat="44.23065163394883" lon="9.961520118921717"><ele>73.0</ele><time>2026-05-02T14:37:15.999Z</time></trkpt><trkpt lat="44.23069375859921" lon="9.961382125709868"><ele>73.0</ele><time>2026-05-02T14:37:16.999Z</time></trkpt><trkpt lat="44.23073206025515" lon="9.961244931205467"><ele>73.0</ele><time>2026-05-02T14:37:17.999Z</time></trkpt><trkpt lat="44.23077416476892" lon="9.961107793113232"><ele>73.0</ele><time>2026-05-02T14:37:18.999Z</time></trkpt><trkpt lat="44.23080857195388" lon="9.960982375991195"><ele>73.0</ele><time>2026-05-02T14:37:19.999Z</time></trkpt><trkpt lat="44.23083960919806" lon="9.96086296814207"><ele>73.0</ele><time>2026-05-02T14:37:20.999Z</time></trkpt><trkpt lat="44.230870662119735" lon="9.960750149875196"><ele>73.0</ele><time>2026-05-02T14:37:21.999Z</time></trkpt><trkpt lat="44.230900266370995" lon="9.96064622816454"><ele>73.0</ele><time>2026-05-02T14:37:22.999Z</time></trkpt><trkpt lat="44.230926615842364" lon="9.96055103934746"><ele>73.0</ele><time>2026-05-02T14:37:23.999Z</time></trkpt><trkpt lat="44.23098257959193" lon="9.960407017151388"><ele>73.0</ele><time>2026-05-02T14:37:25.999Z</time></trkpt><trkpt lat="44.23103123487092" lon="9.96033146395984"><ele>73.0</ele><time>2026-05-02T14:37:26.999Z</time></trkpt><trkpt lat="44.2310962131179" lon="9.960275575523324"><ele>73.0</ele><time>2026-05-02T14:37:27.999Z</time></trkpt><trkpt lat="44.23117313331595" lon="9.960247753861"><ele>73.0</ele><time>2026-05-02T14:37:28.999Z</time></trkpt><trkpt lat="44.23126240714206" lon="9.960232131977167"><ele>73.0</ele><time>2026-05-02T14:37:29.999Z</time></trkpt><trkpt lat="44.231354527033545" lon="9.96021062998434"><ele>73.0</ele><time>2026-05-02T14:37:30.999Z</time></trkpt><trkpt lat="44.23145201565596" lon="9.96018087159354"><ele>73.0</ele><time>2026-05-02T14:37:31.999Z</time></trkpt><trkpt lat="44.231549129451906" lon="9.960143983668415"><ele>73.0</ele><time>2026-05-02T14:37:32.999Z</time></trkpt><trkpt lat="44.23165620150378" lon="9.960112374800932"><ele>73.2</ele><time>2026-05-02T14:37:33.999Z</time></trkpt><trkpt lat="44.23175670135362" lon="9.960072570852782"><ele>73.4</ele><time>2026-05-02T14:37:34.999Z</time></trkpt><trkpt lat="44.23182856075965" lon="9.960063040017838"><ele>73.60000000000001</ele><time>2026-05-02T14:37:35.999Z</time></trkpt><trkpt lat="44.231900980268655" lon="9.960042325386139"><ele>73.8</ele><time>2026-05-02T14:37:36.999Z</time></trkpt><trkpt lat="44.2319671316323" lon="9.96002200044466"><ele>74.0</ele><time>2026-05-02T14:37:37.999Z</time></trkpt><trkpt lat="44.23195318655998" lon="9.95970258614957"><ele>74.0</ele><time>2026-05-02T14:37:38.999Z</time></trkpt><trkpt lat="44.23200877278186" lon="9.959563971739366"><ele>74.0</ele><time>2026-05-02T14:37:39.999Z</time></trkpt><trkpt lat="44.232087386088786" lon="9.959409212773712"><ele>74.0</ele><time>2026-05-02T14:37:40.999Z</time></trkpt><trkpt lat="44.232135617864735" lon="9.959241418093312"><ele>74.0</ele><time>2026-05-02T14:37:41.999Z</time></trkpt><trkpt lat="44.232192415860425" lon="9.959098702447463"><ele>74.0</ele><time>2026-05-02T14:37:42.999Z</time></trkpt><trkpt lat="44.23224009486217" lon="9.958978899579607"><ele>74.0</ele><time>2026-05-02T14:37:43.999Z</time></trkpt><trkpt lat="44.23228855346299" lon="9.958857138163404"><ele>74.0</ele><time>2026-05-02T14:37:44.999Z</time></trkpt><trkpt lat="44.23234019552007" lon="9.958759818043422"><ele>74.0</ele><time>2026-05-02T14:37:45.999Z</time></trkpt><trkpt lat="44.232383315283066" lon="9.958647103763195"><ele>74.0</ele><time>2026-05-02T14:37:46.999Z</time></trkpt><trkpt lat="44.2324218857744" lon="9.95854441432746"><ele>74.2</ele><time>2026-05-02T14:37:47.999Z</time></trkpt><trkpt lat="44.232466783413955" lon="9.958434740123522"><ele>74.4</ele><time>2026-05-02T14:37:48.999Z</time></trkpt><trkpt lat="44.2325180789503" lon="9.958316937988068"><ele>74.6</ele><time>2026-05-02T14:37:49.999Z</time></trkpt><trkpt lat="44.23256183943853" lon="9.958202153989314"><ele>74.8</ele><time>2026-05-02T14:37:50.999Z</time></trkpt><trkpt lat="44.23260813151387" lon="9.958078390812757"><ele>75.0</ele><time>2026-05-02T14:37:51.999Z</time></trkpt><trkpt lat="44.23265303288204" lon="9.957961492802475"><ele>75.0</ele><time>2026-05-02T14:37:52.999Z</time></trkpt><trkpt lat="44.23269038497644" lon="9.957854544441183"><ele>75.0</ele><time>2026-05-02T14:37:53.999Z</time></trkpt><trkpt lat="44.23274438417579" lon="9.957724905631679"><ele>75.0</ele><time>2026-05-02T14:37:54.999Z</time></trkpt><trkpt lat="44.23279858547655" lon="9.957582627185825"><ele>75.0</ele><time>2026-05-02T14:37:55.999Z</time></trkpt><trkpt lat="44.2328473928345" lon="9.957432015625312"><ele>75.0</ele><time>2026-05-02T14:37:56.999Z</time></trkpt><trkpt lat="44.23290351027504" lon="9.957286942221899"><ele>75.0</ele><time>2026-05-02T14:37:57.999Z</time></trkpt><trkpt lat="44.232960023485326" lon="9.957150604115586"><ele>75.0</ele><time>2026-05-02T14:37:58.999Z</time></trkpt><trkpt lat="44.23300146304525" lon="9.957011209415802"><ele>75.0</ele><time>2026-05-02T14:37:59.999Z</time></trkpt><trkpt lat="44.23302480253115" lon="9.95684268728987"><ele>75.0</ele><time>2026-05-02T14:38:00.999Z</time></trkpt><trkpt lat="44.2330423873368" lon="9.956676015033349"><ele>74.75</ele><time>2026-05-02T14:38:01.999Z</time></trkpt><trkpt lat="44.233068324723455" lon="9.956509469799284"><ele>74.5</ele><time>2026-05-02T14:38:02.999Z</time></trkpt><trkpt lat="44.233081300953344" lon="9.956349478855662"><ele>74.25</ele><time>2026-05-02T14:38:03.999Z</time></trkpt><trkpt lat="44.2331082827595" lon="9.95619585707258"><ele>74.0</ele><time>2026-05-02T14:38:04.999Z</time></trkpt><trkpt lat="44.23315159699282" lon="9.956053521820769"><ele>73.75</ele><time>2026-05-02T14:38:05.999Z</time></trkpt><trkpt lat="44.23320666453819" lon="9.955913761907787"><ele>73.5</ele><time>2026-05-02T14:38:06.999Z</time></trkpt><trkpt lat="44.23326661355356" lon="9.955767345536179"><ele>73.25</ele><time>2026-05-02T14:38:07.999Z</time></trkpt><trkpt lat="44.23333002960125" lon="9.955616820549297"><ele>73.0</ele><time>2026-05-02T14:38:08.999Z</time></trkpt><trkpt lat="44.23340094715077" lon="9.955436329565776"><ele>71.66666666666666</ele><time>2026-05-02T14:38:09.999Z</time></trkpt><trkpt lat="44.2334855463169" lon="9.955234383184651"><ele>70.33333333333333</ele><time>2026-05-02T14:38:10.999Z</time></trkpt><trkpt lat="44.23358411317601" lon="9.955019833336154"><ele>69.0</ele><time>2026-05-02T14:38:11.999Z</time></trkpt><trkpt lat="44.233677709873426" lon="9.954815915384025"><ele>68.0</ele><time>2026-05-02T14:38:12.999Z</time></trkpt><trkpt lat="44.23376553237468" lon="9.954616427528284"><ele>67.0</ele><time>2026-05-02T14:38:13.999Z</time></trkpt><trkpt lat="44.233849995253436" lon="9.95442576489521"><ele>66.0</ele><time>2026-05-02T14:38:14.999Z</time></trkpt><trkpt lat="44.23393073296429" lon="9.954239481448617"><ele>66.33333333333333</ele><time>2026-05-02T14:38:15.999Z</time></trkpt><trkpt lat="44.23401075010441" lon="9.954049007956545"><ele>66.66666666666666</ele><time>2026-05-02T14:38:16.999Z</time></trkpt><trkpt lat="44.23408645465345" lon="9.95387114140164"><ele>67.0</ele><time>2026-05-02T14:38:17.999Z</time></trkpt><trkpt lat="44.234165116449255" lon="9.953689024819443"><ele>67.0</ele><time>2026-05-02T14:38:18.999Z</time></trkpt><trkpt lat="44.234242034661214" lon="9.953508049482116"><ele>67.0</ele><time>2026-05-02T14:38:19.999Z</time></trkpt><trkpt lat="44.2343190644097" lon="9.953330221857385"><ele>67.0</ele><time>2026-05-02T14:38:20.999Z</time></trkpt><trkpt lat="44.23439751933863" lon="9.95314984139238"><ele>67.5</ele><time>2026-05-02T14:38:21.999Z</time></trkpt><trkpt lat="44.234469806241016" lon="9.95298395699177"><ele>68.0</ele><time>2026-05-02T14:38:22.999Z</time></trkpt><trkpt lat="44.23454027733794" lon="9.952818070557571"><ele>68.5</ele><time>2026-05-02T14:38:23.999Z</time></trkpt><trkpt lat="44.234606716854756" lon="9.952654348722934"><ele>69.0</ele><time>2026-05-02T14:38:24.999Z</time></trkpt><trkpt lat="44.234686889808074" lon="9.952504523589216"><ele>69.25</ele><time>2026-05-02T14:38:25.999Z</time></trkpt><trkpt lat="44.234781109038956" lon="9.952385524210992"><ele>69.5</ele><time>2026-05-02T14:38:26.999Z</time></trkpt><trkpt lat="44.234877636981004" lon="9.95228070217707"><ele>69.75</ele><time>2026-05-02T14:38:27.999Z</time></trkpt><trkpt lat="44.234985053438" lon="9.952176242378929"><ele>70.0</ele><time>2026-05-02T14:38:28.999Z</time></trkpt><trkpt lat="44.23510157368571" lon="9.95209432321428"><ele>70.8</ele><time>2026-05-02T14:38:29.999Z</time></trkpt><trkpt lat="44.23520938921408" lon="9.952023413380978"><ele>71.6</ele><time>2026-05-02T14:38:30.999Z</time></trkpt><trkpt lat="44.235305972321285" lon="9.951960427105478"><ele>72.4</ele><time>2026-05-02T14:38:31.999Z</time></trkpt><trkpt lat="44.235391831388775" lon="9.95190529746575"><ele>73.2</ele><time>2026-05-02T14:38:32.999Z</time></trkpt><trkpt lat="44.23547034802194" lon="9.951860263625832"><ele>74.0</ele><time>2026-05-02T14:38:33.999Z</time></trkpt><trkpt lat="44.23554261943756" lon="9.951854754903684"><ele>74.0</ele><time>2026-05-02T14:38:34.999Z</time></trkpt><trkpt lat="44.235613674252804" lon="9.951821544192608"><ele>74.0</ele><time>2026-05-02T14:38:36.999Z</time></trkpt><trkpt lat="44.235552822837775" lon="9.951590714166816"><ele>74.0</ele><time>2026-05-02T14:38:37.999Z</time></trkpt><trkpt lat="44.23551582802992" lon="9.951470257006223"><ele>74.0</ele><time>2026-05-02T14:38:38.999Z</time></trkpt><trkpt lat="44.23545591080892" lon="9.951317201068084"><ele>74.0</ele><time>2026-05-02T14:38:39.999Z</time></trkpt><trkpt lat="44.235397043879644" lon="9.951155317013232"><ele>74.0</ele><time>2026-05-02T14:38:40.999Z</time></trkpt><trkpt lat="44.2353454157794" lon="9.951013339770464"><ele>74.0</ele><time>2026-05-02T14:38:41.999Z</time></trkpt><trkpt lat="44.23529584768354" lon="9.950872816667538"><ele>74.0</ele><time>2026-05-02T14:38:42.999Z</time></trkpt><trkpt lat="44.23525610218582" lon="9.950729327863614"><ele>74.5</ele><time>2026-05-02T14:38:43.999Z</time></trkpt><trkpt lat="44.2351905997828" lon="9.95060338521021"><ele>75.0</ele><time>2026-05-02T14:38:44.999Z</time></trkpt><trkpt lat="44.235105216207636" lon="9.950459916948175"><ele>75.5</ele><time>2026-05-02T14:38:45.999Z</time></trkpt><trkpt lat="44.23502315176033" lon="9.950292973722766"><ele>76.0</ele><time>2026-05-02T14:38:46.999Z</time></trkpt><trkpt lat="44.23493819973059" lon="9.950150675809502"><ele>76.0</ele><time>2026-05-02T14:38:47.999Z</time></trkpt><trkpt lat="44.23485978644234" lon="9.950019105940346"><ele>76.0</ele><time>2026-05-02T14:38:48.999Z</time></trkpt><trkpt lat="44.234784921161" lon="9.949889380159899"><ele>76.0</ele><time>2026-05-02T14:38:49.999Z</time></trkpt><trkpt lat="44.23471414597301" lon="9.949766459912418"><ele>76.0</ele><time>2026-05-02T14:38:50.999Z</time></trkpt><trkpt lat="44.23465145108881" lon="9.949634295768318"><ele>75.75</ele><time>2026-05-02T14:38:51.999Z</time></trkpt><trkpt lat="44.23457337456536" lon="9.949515844748548"><ele>75.5</ele><time>2026-05-02T14:38:52.999Z</time></trkpt><trkpt lat="44.23453806629081" lon="9.94935309635438"><ele>75.25</ele><time>2026-05-02T14:38:53.999Z</time></trkpt><trkpt lat="44.23452986737312" lon="9.949177202133503"><ele>75.0</ele><time>2026-05-02T14:38:54.999Z</time></trkpt><trkpt lat="44.23451301319219" lon="9.948998505179597"><ele>75.5</ele><time>2026-05-02T14:38:55.999Z</time></trkpt><trkpt lat="44.234504175244645" lon="9.948803424643902"><ele>76.0</ele><time>2026-05-02T14:38:56.999Z</time></trkpt><trkpt lat="44.234500636590916" lon="9.948602743710014"><ele>76.5</ele><time>2026-05-02T14:38:57.999Z</time></trkpt><trkpt lat="44.234496020683295" lon="9.948406350840624"><ele>77.0</ele><time>2026-05-02T14:38:58.999Z</time></trkpt><trkpt lat="44.23449340896177" lon="9.948208997179457"><ele>77.25</ele><time>2026-05-02T14:38:59.999Z</time></trkpt><trkpt lat="44.23449092746346" lon="9.948017495849792"><ele>77.5</ele><time>2026-05-02T14:39:00.999Z</time></trkpt><trkpt lat="44.234485699161944" lon="9.947824721795891"><ele>77.75</ele><time>2026-05-02T14:39:01.999Z</time></trkpt><trkpt lat="44.23448162397025" lon="9.947623561302988"><ele>78.0</ele><time>2026-05-02T14:39:02.999Z</time></trkpt><trkpt lat="44.23447549093955" lon="9.947417268501887"><ele>78.0</ele><time>2026-05-02T14:39:03.999Z</time></trkpt><trkpt lat="44.23449181099247" lon="9.947205271862373"><ele>78.0</ele><time>2026-05-02T14:39:04.999Z</time></trkpt><trkpt lat="44.23450771793848" lon="9.946990173794873"><ele>78.0</ele><time>2026-05-02T14:39:05.999Z</time></trkpt><trkpt lat="44.23452611098723" lon="9.946771450299295"><ele>80.0</ele><time>2026-05-02T14:39:06.999Z</time></trkpt><trkpt lat="44.23454108873718" lon="9.9465610624633"><ele>82.0</ele><time>2026-05-02T14:39:07.999Z</time></trkpt><trkpt lat="44.234562724544304" lon="9.94634685222227"><ele>84.0</ele><time>2026-05-02T14:39:08.999Z</time></trkpt><trkpt lat="44.23459921518053" lon="9.946138982411595"><ele>84.0</ele><time>2026-05-02T14:39:09.999Z</time></trkpt><trkpt lat="44.23464863377888" lon="9.945928035723284"><ele>84.0</ele><time>2026-05-02T14:39:10.999Z</time></trkpt><trkpt lat="44.2347096190766" lon="9.945720832099509"><ele>84.0</ele><time>2026-05-02T14:39:11.999Z</time></trkpt><trkpt lat="44.23478308167232" lon="9.945514506528099"><ele>83.25</ele><time>2026-05-02T14:39:12.999Z</time></trkpt><trkpt lat="44.23485569813894" lon="9.945344342382995"><ele>82.5</ele><time>2026-05-02T14:39:13.999Z</time></trkpt><trkpt lat="44.23491747488801" lon="9.945186547701965"><ele>81.75</ele><time>2026-05-02T14:39:14.999Z</time></trkpt><trkpt lat="44.23496090987101" lon="9.945047430672936"><ele>81.0</ele><time>2026-05-02T14:39:15.999Z</time></trkpt><trkpt lat="44.23496510174058" lon="9.944915248227325"><ele>82.0</ele><time>2026-05-02T14:39:16.999Z</time></trkpt><trkpt lat="44.23496812905389" lon="9.94480483722232"><ele>83.0</ele><time>2026-05-02T14:39:17.999Z</time></trkpt><trkpt lat="44.2349221651065" lon="9.944699096335283"><ele>84.0</ele><time>2026-05-02T14:39:18.999Z</time></trkpt><trkpt lat="44.23485671230955" lon="9.944622369490029"><ele>85.0</ele><time>2026-05-02T14:39:19.999Z</time></trkpt><trkpt lat="44.2347685391368" lon="9.944585093883434"><ele>86.0</ele><time>2026-05-02T14:39:20.999Z</time></trkpt><trkpt lat="44.2346723092033" lon="9.944597321180416"><ele>87.0</ele><time>2026-05-02T14:39:21.999Z</time></trkpt><trkpt lat="44.234594464717084" lon="9.944643046031484"><ele>88.25</ele><time>2026-05-02T14:39:22.999Z</time></trkpt><trkpt lat="44.23453935901428" lon="9.944759803255396"><ele>89.5</ele><time>2026-05-02T14:39:23.999Z</time></trkpt><trkpt lat="44.23452420836955" lon="9.944926166522512"><ele>90.75</ele><time>2026-05-02T14:39:24.999Z</time></trkpt><trkpt lat="44.23447800735385" lon="9.945104012531846"><ele>92.0</ele><time>2026-05-02T14:39:25.999Z</time></trkpt><trkpt lat="44.23445126454053" lon="9.945276165198663"><ele>92.0</ele><time>2026-05-02T14:39:26.999Z</time></trkpt><trkpt lat="44.234422386294206" lon="9.945414501309353"><ele>92.0</ele><time>2026-05-02T14:39:27.999Z</time></trkpt><trkpt lat="44.23439018020465" lon="9.945518142451702"><ele>92.0</ele><time>2026-05-02T14:39:28.999Z</time></trkpt><trkpt lat="44.23434673746852" lon="9.945599017584172"><ele>92.0</ele><time>2026-05-02T14:39:29.999Z</time></trkpt><trkpt lat="44.23428110289136" lon="9.945631590886252"><ele>92.0</ele><time>2026-05-02T14:39:30.999Z</time></trkpt><trkpt lat="44.234204486483485" lon="9.94563355366198"><ele>92.0</ele><time>2026-05-02T14:39:31.999Z</time></trkpt><trkpt lat="44.23412372006001" lon="9.945603034384655"><ele>92.0</ele><time>2026-05-02T14:39:32.999Z</time></trkpt><trkpt lat="44.234069222057926" lon="9.945496904079093"><ele>92.0</ele><time>2026-05-02T14:39:33.999Z</time></trkpt><trkpt lat="44.2340575700555" lon="9.945373280756046"><ele>92.0</ele><time>2026-05-02T14:39:34.999Z</time></trkpt><trkpt lat="44.23408075743694" lon="9.945239888071477"><ele>92.0</ele><time>2026-05-02T14:39:35.999Z</time></trkpt><trkpt lat="44.23413387812838" lon="9.945096964102417"><ele>92.0</ele><time>2026-05-02T14:39:36.999Z</time></trkpt><trkpt lat="44.23420936481446" lon="9.944920261106127"><ele>94.0</ele><time>2026-05-02T14:39:37.999Z</time></trkpt><trkpt lat="44.23427873172715" lon="9.944713762791235"><ele>96.0</ele><time>2026-05-02T14:39:38.999Z</time></trkpt><trkpt lat="44.234344320450184" lon="9.94450955788282"><ele>98.0</ele><time>2026-05-02T14:39:39.999Z</time></trkpt><trkpt lat="44.23440563018859" lon="9.944316354414678"><ele>98.75</ele><time>2026-05-02T14:39:40.999Z</time></trkpt><trkpt lat="44.23446726222436" lon="9.944130017290655"><ele>99.5</ele><time>2026-05-02T14:39:41.999Z</time></trkpt><trkpt lat="44.23452883062863" lon="9.943936995920845"><ele>100.25</ele><time>2026-05-02T14:39:42.999Z</time></trkpt><trkpt lat="44.23458536028558" lon="9.943745827346993"><ele>101.0</ele><time>2026-05-02T14:39:43.999Z</time></trkpt><trkpt lat="44.23464174118128" lon="9.94355965075221"><ele>102.5</ele><time>2026-05-02T14:39:44.999Z</time></trkpt><trkpt lat="44.234705536633584" lon="9.94337714864793"><ele>104.0</ele><time>2026-05-02T14:39:45.999Z</time></trkpt><trkpt lat="44.234759241534306" lon="9.943217792472836"><ele>105.5</ele><time>2026-05-02T14:39:46.999Z</time></trkpt><trkpt lat="44.234772562370594" lon="9.943070200155022"><ele>107.0</ele><time>2026-05-02T14:39:47.999Z</time></trkpt><trkpt lat="44.234766021971964" lon="9.942945679561738"><ele>107.0</ele><time>2026-05-02T14:39:48.999Z</time></trkpt><trkpt lat="44.23474954232833" lon="9.94281091895979"><ele>107.0</ele><time>2026-05-02T14:39:49.999Z</time></trkpt><trkpt lat="44.23468822605045" lon="9.942670621090281"><ele>107.0</ele><time>2026-05-02T14:39:50.999Z</time></trkpt><trkpt lat="44.234611828528934" lon="9.942527803640667"><ele>107.0</ele><time>2026-05-02T14:39:51.999Z</time></trkpt><trkpt lat="44.234547346526" lon="9.942380431895378"><ele>108.25</ele><time>2026-05-02T14:39:52.999Z</time></trkpt><trkpt lat="44.234517190438055" lon="9.942218786233127"><ele>109.5</ele><time>2026-05-02T14:39:53.999Z</time></trkpt><trkpt lat="44.23451961524408" lon="9.94205246053088"><ele>110.75</ele><time>2026-05-02T14:39:54.999Z</time></trkpt><trkpt lat="44.23455362381733" lon="9.941889740288353"><ele>112.0</ele><time>2026-05-02T14:39:55.999Z</time></trkpt><trkpt lat="44.234599842333004" lon="9.94172345967543"><ele>113.5</ele><time>2026-05-02T14:39:56.999Z</time></trkpt><trkpt lat="44.234616886742074" lon="9.94157062978623"><ele>115.0</ele><time>2026-05-02T14:39:57.999Z</time></trkpt><trkpt lat="44.23459630896695" lon="9.941409788650228"><ele>116.5</ele><time>2026-05-02T14:39:58.999Z</time></trkpt><trkpt lat="44.234545841702335" lon="9.941223483432116"><ele>118.0</ele><time>2026-05-02T14:39:59.999Z</time></trkpt><trkpt lat="44.234480978233144" lon="9.941020255207437"><ele>119.75</ele><time>2026-05-02T14:40:00.999Z</time></trkpt><trkpt lat="44.23443108399559" lon="9.94083578042839"><ele>121.5</ele><time>2026-05-02T14:40:01.999Z</time></trkpt><trkpt lat="44.23439584060088" lon="9.940646586550448"><ele>123.25</ele><time>2026-05-02T14:40:02.999Z</time></trkpt><trkpt lat="44.23438442318831" lon="9.940451160279235"><ele>125.0</ele><time>2026-05-02T14:40:03.999Z</time></trkpt><trkpt lat="44.23439213083506" lon="9.940276856052792"><ele>125.0</ele><time>2026-05-02T14:40:04.999Z</time></trkpt><trkpt lat="44.23441597686327" lon="9.940116034418958"><ele>125.0</ele><time>2026-05-02T14:40:05.999Z</time></trkpt><trkpt lat="44.23445989394162" lon="9.939981389272674"><ele>125.0</ele><time>2026-05-02T14:40:06.999Z</time></trkpt><trkpt lat="44.234527749200964" lon="9.939882078020702"><ele>125.0</ele><time>2026-05-02T14:40:07.999Z</time></trkpt><trkpt lat="44.23461750410383" lon="9.939801947401305"><ele>125.0</ele><time>2026-05-02T14:40:08.999Z</time></trkpt><trkpt lat="44.234732102826285" lon="9.939755152219083"><ele>124.6</ele><time>2026-05-02T14:40:09.999Z</time></trkpt><trkpt lat="44.234859085125386" lon="9.939756165579848"><ele>124.2</ele><time>2026-05-02T14:40:10.999Z</time></trkpt><trkpt lat="44.23494489163813" lon="9.939726383606335"><ele>123.80000000000001</ele><time>2026-05-02T14:40:11.999Z</time></trkpt><trkpt lat="44.23501427584692" lon="9.939647424375755"><ele>123.4</ele><time>2026-05-02T14:40:12.999Z</time></trkpt><trkpt lat="44.23507206579507" lon="9.939554563151159"><ele>123.0</ele><time>2026-05-02T14:40:13.999Z</time></trkpt><trkpt lat="44.23510557977084" lon="9.93946010448875"><ele>123.0</ele><time>2026-05-02T14:40:14.999Z</time></trkpt><trkpt lat="44.235124287529736" lon="9.939341660277556"><ele>123.00000000000001</ele><time>2026-05-02T14:40:15.999Z</time></trkpt><trkpt lat="44.23511796273583" lon="9.939211763249617"><ele>123.00000000000001</ele><time>2026-05-02T14:40:16.999Z</time></trkpt><trkpt lat="44.23508783090011" lon="9.93908791521851"><ele>123.0</ele><time>2026-05-02T14:40:17.999Z</time></trkpt><trkpt lat="44.235029135056195" lon="9.938990982752584"><ele>123.0</ele><time>2026-05-02T14:40:18.999Z</time></trkpt><trkpt lat="44.23496190445172" lon="9.938893458608632"><ele>125.80000000000001</ele><time>2026-05-02T14:40:19.999Z</time></trkpt><trkpt lat="44.234899506608414" lon="9.938850943079387"><ele>128.60000000000002</ele><time>2026-05-02T14:40:20.999Z</time></trkpt><trkpt lat="44.23478675856344" lon="9.93883700251127"><ele>131.39999999999998</ele><time>2026-05-02T14:40:21.999Z</time></trkpt><trkpt lat="44.23466125010176" lon="9.938852624656384"><ele>134.2</ele><time>2026-05-02T14:40:22.999Z</time></trkpt><trkpt lat="44.23452791501779" lon="9.938897340220736"><ele>137.0</ele><time>2026-05-02T14:40:23.999Z</time></trkpt><trkpt lat="44.23440765043944" lon="9.938935040695446"><ele>138.25</ele><time>2026-05-02T14:40:24.999Z</time></trkpt><trkpt lat="44.234292348979615" lon="9.938970110664497"><ele>139.5</ele><time>2026-05-02T14:40:25.999Z</time></trkpt><trkpt lat="44.23417348497007" lon="9.9390321153108"><ele>140.75</ele><time>2026-05-02T14:40:26.999Z</time></trkpt><trkpt lat="44.234061320897105" lon="9.939106895098934"><ele>142.0</ele><time>2026-05-02T14:40:27.999Z</time></trkpt><trkpt lat="44.23396339098754" lon="9.939174235669165"><ele>142.0</ele><time>2026-05-02T14:40:28.999Z</time></trkpt><trkpt lat="44.23387062544757" lon="9.939217825780078"><ele>142.0</ele><time>2026-05-02T14:40:29.999Z</time></trkpt><trkpt lat="44.23378233380772" lon="9.939233403467723"><ele>142.0</ele><time>2026-05-02T14:40:30.999Z</time></trkpt><trkpt lat="44.23370185117252" lon="9.939219018792235"><ele>142.0</ele><time>2026-05-02T14:40:31.999Z</time></trkpt><trkpt lat="44.2336471763579" lon="9.939124758721428"><ele>142.0</ele><time>2026-05-02T14:40:32.999Z</time></trkpt><trkpt lat="44.23359979188809" lon="9.939025649493015"><ele>142.0</ele><time>2026-05-02T14:40:33.999Z</time></trkpt><trkpt lat="44.23353159555802" lon="9.938884097643106"><ele>142.0</ele><time>2026-05-02T14:40:34.999Z</time></trkpt><trkpt lat="44.2334814090485" lon="9.938711642538888"><ele>142.0</ele><time>2026-05-02T14:40:35.999Z</time></trkpt><trkpt lat="44.23341422806586" lon="9.93853718226452"><ele>142.0</ele><time>2026-05-02T14:40:36.999Z</time></trkpt><trkpt lat="44.23332112131671" lon="9.938353516159443"><ele>142.0</ele><time>2026-05-02T14:40:37.999Z</time></trkpt><trkpt lat="44.233226657618076" lon="9.93821012207481"><ele>143.5</ele><time>2026-05-02T14:40:38.999Z</time></trkpt><trkpt lat="44.23313655902985" lon="9.938063977138668"><ele>145.0</ele><time>2026-05-02T14:40:39.999Z</time></trkpt><trkpt lat="44.23305713918274" lon="9.937919518725039"><ele>146.5</ele><time>2026-05-02T14:40:40.999Z</time></trkpt><trkpt lat="44.23299899161465" lon="9.937784530605779"><ele>148.0</ele><time>2026-05-02T14:40:41.999Z</time></trkpt><trkpt lat="44.23294975758577" lon="9.937642248465032"><ele>150.25</ele><time>2026-05-02T14:40:42.999Z</time></trkpt><trkpt lat="44.23291590071343" lon="9.93747268725024"><ele>152.5</ele><time>2026-05-02T14:40:43.999Z</time></trkpt><trkpt lat="44.232898707603084" lon="9.937287790735946"><ele>154.75</ele><time>2026-05-02T14:40:44.999Z</time></trkpt><trkpt lat="44.232885564898716" lon="9.937099563444969"><ele>157.0</ele><time>2026-05-02T14:40:45.999Z</time></trkpt><trkpt lat="44.23284703944907" lon="9.93694703727551"><ele>157.0</ele><time>2026-05-02T14:40:46.999Z</time></trkpt><trkpt lat="44.23277741263622" lon="9.936788063632422"><ele>157.0</ele><time>2026-05-02T14:40:47.999Z</time></trkpt><trkpt lat="44.23268767941062" lon="9.936617785701905"><ele>157.0</ele><time>2026-05-02T14:40:48.999Z</time></trkpt><trkpt lat="44.23260085064899" lon="9.936454286419796"><ele>157.0</ele><time>2026-05-02T14:40:49.999Z</time></trkpt><trkpt lat="44.23251862679261" lon="9.936295169387877"><ele>160.5</ele><time>2026-05-02T14:40:50.999Z</time></trkpt><trkpt lat="44.23244400216037" lon="9.936149271848175"><ele>164.0</ele><time>2026-05-02T14:40:51.999Z</time></trkpt><trkpt lat="44.23237788593927" lon="9.936023633620083"><ele>167.5</ele><time>2026-05-02T14:40:52.999Z</time></trkpt><trkpt lat="44.23231531859858" lon="9.935900697100449"><ele>171.0</ele><time>2026-05-02T14:40:53.999Z</time></trkpt><trkpt lat="44.23224553303909" lon="9.935771437348752"><ele>172.8</ele><time>2026-05-02T14:40:54.999Z</time></trkpt><trkpt lat="44.23218957346267" lon="9.935688064677873"><ele>174.60000000000002</ele><time>2026-05-02T14:40:55.999Z</time></trkpt><trkpt lat="44.23213317712123" lon="9.935604296439504"><ele>176.4</ele><time>2026-05-02T14:40:56.999Z</time></trkpt><trkpt lat="44.232063538099744" lon="9.935503724875273"><ele>178.2</ele><time>2026-05-02T14:40:57.999Z</time></trkpt><trkpt lat="44.231958336069134" lon="9.935420253523613"><ele>180.0</ele><time>2026-05-02T14:40:58.999Z</time></trkpt><trkpt lat="44.23183921041287" lon="9.93535266779268"><ele>180.0</ele><time>2026-05-02T14:40:59.999Z</time></trkpt><trkpt lat="44.231721894416374" lon="9.935283804590025"><ele>180.0</ele><time>2026-05-02T14:41:00.999Z</time></trkpt><trkpt lat="44.23161691030607" lon="9.935211606772341"><ele>180.0</ele><time>2026-05-02T14:41:01.999Z</time></trkpt><trkpt lat="44.2315086702007" lon="9.935145169595339"><ele>180.0</ele><time>2026-05-02T14:41:02.999Z</time></trkpt><trkpt lat="44.23140328328041" lon="9.935103919138934"><ele>187.2</ele><time>2026-05-02T14:41:03.999Z</time></trkpt><trkpt lat="44.23130877709389" lon="9.935078758928396"><ele>194.4</ele><time>2026-05-02T14:41:04.999Z</time></trkpt><trkpt lat="44.231221204552405" lon="9.935088178177384"><ele>201.60000000000002</ele><time>2026-05-02T14:41:05.999Z</time></trkpt><trkpt lat="44.231132346119445" lon="9.935160206906781"><ele>208.8</ele><time>2026-05-02T14:41:06.999Z</time></trkpt><trkpt lat="44.231066586520775" lon="9.935264268348394"><ele>216.0</ele><time>2026-05-02T14:41:07.999Z</time></trkpt><trkpt lat="44.23101967027981" lon="9.935399439602909"><ele>216.0</ele><time>2026-05-02T14:41:08.999Z</time></trkpt><trkpt lat="44.23102653900677" lon="9.935554053170605"><ele>216.0</ele><time>2026-05-02T14:41:09.999Z</time></trkpt><trkpt lat="44.231099720282906" lon="9.935684634197937"><ele>216.0</ele><time>2026-05-02T14:41:10.999Z</time></trkpt><trkpt lat="44.231156930115866" lon="9.935817483149073"><ele>216.0</ele><time>2026-05-02T14:41:11.999Z</time></trkpt><trkpt lat="44.23120391569971" lon="9.93597664388251"><ele>218.25</ele><time>2026-05-02T14:41:12.999Z</time></trkpt><trkpt lat="44.23124447147847" lon="9.936125547580218"><ele>220.5</ele><time>2026-05-02T14:41:13.999Z</time></trkpt><trkpt lat="44.23125426308747" lon="9.936286210978553"><ele>222.75</ele><time>2026-05-02T14:41:14.999Z</time></trkpt><trkpt lat="44.23124899129843" lon="9.936457030277406"><ele>225.0</ele><time>2026-05-02T14:41:15.999Z</time></trkpt><trkpt lat="44.23124533329023" lon="9.936666032354712"><ele>225.75</ele><time>2026-05-02T14:41:16.999Z</time></trkpt><trkpt lat="44.23124170130399" lon="9.936873547653445"><ele>226.5</ele><time>2026-05-02T14:41:17.999Z</time></trkpt><trkpt lat="44.23123768191487" lon="9.937079451061164"><ele>227.25</ele><time>2026-05-02T14:41:18.999Z</time></trkpt><trkpt lat="44.23123350475036" lon="9.937276357044993"><ele>228.0</ele><time>2026-05-02T14:41:19.999Z</time></trkpt><trkpt lat="44.23122924038745" lon="9.937477373687464"><ele>226.25</ele><time>2026-05-02T14:41:20.999Z</time></trkpt><trkpt lat="44.231225006843296" lon="9.937676937768058"><ele>224.5</ele><time>2026-05-02T14:41:22Z</time></trkpt><trkpt lat="44.23122252170941" lon="9.937861174479497"><ele>222.75</ele><time>2026-05-02T14:41:23Z</time></trkpt><trkpt lat="44.23122204557068" lon="9.938022110876794"><ele>221.0</ele><time>2026-05-02T14:41:24Z</time></trkpt><trkpt lat="44.231220851561915" lon="9.938151623676962"><ele>221.0</ele><time>2026-05-02T14:41:25Z</time></trkpt><trkpt lat="44.23120987221706" lon="9.938273460283092"><ele>221.00000000000003</ele><time>2026-05-02T14:41:26Z</time></trkpt><trkpt lat="44.23119092050108" lon="9.93838767294149"><ele>221.00000000000003</ele><time>2026-05-02T14:41:27Z</time></trkpt><trkpt lat="44.23115112959664" lon="9.938491533432014"><ele>221.0</ele><time>2026-05-02T14:41:28Z</time></trkpt><trkpt lat="44.23107564835734" lon="9.938580479710149"><ele>221.0</ele><time>2026-05-02T14:41:29Z</time></trkpt><trkpt lat="44.23097641988041" lon="9.938685598280996"><ele>223.25</ele><time>2026-05-02T14:41:30Z</time></trkpt><trkpt lat="44.230867078463575" lon="9.938796971797425"><ele>225.5</ele><time>2026-05-02T14:41:31Z</time></trkpt><trkpt lat="44.230761558331935" lon="9.938898184041884"><ele>227.75</ele><time>2026-05-02T14:41:32Z</time></trkpt><trkpt lat="44.23065988283256" lon="9.938992534826752"><ele>230.0</ele><time>2026-05-02T14:41:33Z</time></trkpt><trkpt lat="44.23056150143505" lon="9.939081523689943"><ele>230.0</ele><time>2026-05-02T14:41:34Z</time></trkpt><trkpt lat="44.23046219455248" lon="9.939170362564553"><ele>230.0</ele><time>2026-05-02T14:41:35Z</time></trkpt><trkpt lat="44.23036794273129" lon="9.939256856105242"><ele>230.0</ele><time>2026-05-02T14:41:36Z</time></trkpt><trkpt lat="44.230271545635574" lon="9.939349775916362"><ele>230.0</ele><time>2026-05-02T14:41:37Z</time></trkpt><trkpt lat="44.23018386128526" lon="9.939444114395723"><ele>226.2</ele><time>2026-05-02T14:41:38Z</time></trkpt><trkpt lat="44.23011238386129" lon="9.939523865847113"><ele>222.4</ele><time>2026-05-02T14:41:39Z</time></trkpt><trkpt lat="44.230048479648474" lon="9.939595167631033"><ele>218.60000000000002</ele><time>2026-05-02T14:41:40Z</time></trkpt><trkpt lat="44.229979747192864" lon="9.939671857174183"><ele>214.8</ele><time>2026-05-02T14:41:41Z</time></trkpt><trkpt lat="44.229884946786115" lon="9.93977763489656"><ele>211.0</ele><time>2026-05-02T14:41:43Z</time></trkpt><trkpt lat="44.22987156599555" lon="9.939914311960006"><ele>207.8</ele><time>2026-05-02T14:41:44Z</time></trkpt><trkpt lat="44.22978354186454" lon="9.940059820708381"><ele>204.60000000000002</ele><time>2026-05-02T14:41:46Z</time></trkpt><trkpt lat="44.229759077027644" lon="9.94017672566067"><ele>201.4</ele><time>2026-05-02T14:41:47Z</time></trkpt><trkpt lat="44.229740860462876" lon="9.940282849865348"><ele>198.2</ele><time>2026-05-02T14:41:48Z</time></trkpt><trkpt lat="44.22972219450477" lon="9.940382848955819"><ele>195.0</ele><time>2026-05-02T14:41:49Z</time></trkpt><trkpt lat="44.22968817689811" lon="9.94047970697012"><ele>195.0</ele><time>2026-05-02T14:41:50Z</time></trkpt><trkpt lat="44.22963814236184" lon="9.940575883139216"><ele>195.0</ele><time>2026-05-02T14:41:51Z</time></trkpt><trkpt lat="44.229573286678296" lon="9.940646520170123"><ele>195.0</ele><time>2026-05-02T14:41:52Z</time></trkpt><trkpt lat="44.229513242796536" lon="9.940706923748674"><ele>195.0</ele><time>2026-05-02T14:41:53Z</time></trkpt><trkpt lat="44.22944792583265" lon="9.940774906708649"><ele>195.0</ele><time>2026-05-02T14:41:54Z</time></trkpt><trkpt lat="44.2293468584042" lon="9.940843667625064"><ele>195.0</ele><time>2026-05-02T14:41:56Z</time></trkpt><trkpt lat="44.22924387337124" lon="9.940854120273064"><ele>195.0</ele><time>2026-05-02T14:41:58Z</time></trkpt><trkpt lat="44.22919430674873" lon="9.94079563948336"><ele>195.0</ele><time>2026-05-02T14:41:59Z</time></trkpt><trkpt lat="44.229136190618384" lon="9.940714848081603"><ele>195.0</ele><time>2026-05-02T14:42:00Z</time></trkpt><trkpt lat="44.229079021743026" lon="9.94062372994276"><ele>195.0</ele><time>2026-05-02T14:42:01Z</time></trkpt><trkpt lat="44.22903345464883" lon="9.94054186378279"><ele>195.0</ele><time>2026-05-02T14:42:02Z</time></trkpt><trkpt lat="44.22898820761837" lon="9.940464538458803"><ele>195.0</ele><time>2026-05-02T14:42:03Z</time></trkpt><trkpt lat="44.22894387950383" lon="9.940378147982456"><ele>194.14285714285714</ele><time>2026-05-02T14:42:04Z</time></trkpt><trkpt lat="44.22890953821821" lon="9.940295176869107"><ele>193.28571428571428</ele><time>2026-05-02T14:42:05Z</time></trkpt><trkpt lat="44.228882845628995" lon="9.940208270435548"><ele>192.42857142857144</ele><time>2026-05-02T14:42:06Z</time></trkpt><trkpt lat="44.22885193416125" lon="9.940112065238479"><ele>191.57142857142856</ele><time>2026-05-02T14:42:07Z</time></trkpt><trkpt lat="44.22881978715346" lon="9.940013544989945"><ele>190.71428571428572</ele><time>2026-05-02T14:42:08Z</time></trkpt><trkpt lat="44.22879202547481" lon="9.939919462483905"><ele>189.85714285714286</ele><time>2026-05-02T14:42:09Z</time></trkpt><trkpt lat="44.22874454419863" lon="9.939823471044479"><ele>189.0</ele><time>2026-05-02T14:42:10Z</time></trkpt><trkpt lat="44.22869317263701" lon="9.939740165977925"><ele>189.0</ele><time>2026-05-02T14:42:11Z</time></trkpt><trkpt lat="44.228639959917" lon="9.939656283257339"><ele>189.0</ele><time>2026-05-02T14:42:12Z</time></trkpt><trkpt lat="44.22858563899118" lon="9.93959311684706"><ele>189.0</ele><time>2026-05-02T14:42:13Z</time></trkpt><trkpt lat="44.22853070237133" lon="9.939519429710604"><ele>189.0</ele><time>2026-05-02T14:42:14Z</time></trkpt><trkpt lat="44.228457052681755" lon="9.939435844167603"><ele>189.0</ele><time>2026-05-02T14:42:16Z</time></trkpt><trkpt lat="44.22844852866347" lon="9.939263762836205"><ele>189.0</ele><time>2026-05-02T14:42:18Z</time></trkpt><trkpt lat="44.228444553297635" lon="9.939143419846355"><ele>193.0</ele><time>2026-05-02T14:42:19Z</time></trkpt><trkpt lat="44.228432193598046" lon="9.939010267544107"><ele>197.0</ele><time>2026-05-02T14:42:19.999Z</time></trkpt><trkpt lat="44.2284071235988" lon="9.938885626829014"><ele>201.0</ele><time>2026-05-02T14:42:20.999Z</time></trkpt><trkpt lat="44.22837054279587" lon="9.938754643619903"><ele>205.0</ele><time>2026-05-02T14:42:21.999Z</time></trkpt><trkpt lat="44.22833490111344" lon="9.93865368010673"><ele>209.0</ele><time>2026-05-02T14:42:22.999Z</time></trkpt><trkpt lat="44.228243712895704" lon="9.938537024505402"><ele>209.00000000000003</ele><time>2026-05-02T14:42:24.999Z</time></trkpt><trkpt lat="44.22817617040622" lon="9.93848377033999"><ele>209.0</ele><time>2026-05-02T14:42:25.999Z</time></trkpt><trkpt lat="44.22810915972757" lon="9.938421049330861"><ele>209.0</ele><time>2026-05-02T14:42:26.999Z</time></trkpt><trkpt lat="44.22806102337049" lon="9.938336089215037"><ele>209.0</ele><time>2026-05-02T14:42:27.999Z</time></trkpt><trkpt lat="44.22802542427145" lon="9.938209510177936"><ele>209.00000000000003</ele><time>2026-05-02T14:42:28.999Z</time></trkpt><trkpt lat="44.227999146377456" lon="9.938079056252874"><ele>209.0</ele><time>2026-05-02T14:42:29.999Z</time></trkpt><trkpt lat="44.22796338184216" lon="9.937965597921531"><ele>209.6</ele><time>2026-05-02T14:42:30.999Z</time></trkpt><trkpt lat="44.22791940175138" lon="9.937885611255016"><ele>210.2</ele><time>2026-05-02T14:42:31.999Z</time></trkpt><trkpt lat="44.2278565091915" lon="9.93780792168098"><ele>210.79999999999998</ele><time>2026-05-02T14:42:32.999Z</time></trkpt><trkpt lat="44.22777524864875" lon="9.937717193637036"><ele>211.39999999999998</ele><time>2026-05-02T14:42:33.999Z</time></trkpt><trkpt lat="44.22768072231925" lon="9.937615631207743"><ele>212.0</ele><time>2026-05-02T14:42:34.999Z</time></trkpt><trkpt lat="44.2275974864336" lon="9.937542687633309"><ele>212.0</ele><time>2026-05-02T14:42:36Z</time></trkpt><trkpt lat="44.22755684732242" lon="9.937430024246213"><ele>212.0</ele><time>2026-05-02T14:42:37Z</time></trkpt><trkpt lat="44.22747831159016" lon="9.937335822299554"><ele>212.0</ele><time>2026-05-02T14:42:38Z</time></trkpt><trkpt lat="44.22742155151792" lon="9.937270863997206"><ele>212.0</ele><time>2026-05-02T14:42:39Z</time></trkpt><trkpt lat="44.227363930462964" lon="9.937232776634636"><ele>212.0</ele><time>2026-05-02T14:42:40Z</time></trkpt><trkpt lat="44.22732988175178" lon="9.937070771418123"><ele>211.39999999999998</ele><time>2026-05-02T14:42:42Z</time></trkpt><trkpt lat="44.227298002804794" lon="9.936922929595768"><ele>210.79999999999998</ele><time>2026-05-02T14:42:44Z</time></trkpt><trkpt lat="44.22722927418817" lon="9.936782148513625"><ele>210.2</ele><time>2026-05-02T14:42:46Z</time></trkpt><trkpt lat="44.22718140443014" lon="9.936708927904343"><ele>209.6</ele><time>2026-05-02T14:42:47Z</time></trkpt><trkpt lat="44.22711996671239" lon="9.936652259895785"><ele>209.0</ele><time>2026-05-02T14:42:48Z</time></trkpt><trkpt lat="44.22705369410865" lon="9.936559702602521"><ele>209.00000000000003</ele><time>2026-05-02T14:42:49Z</time></trkpt><trkpt lat="44.22700067131257" lon="9.936478204306669"><ele>209.0</ele><time>2026-05-02T14:42:50Z</time></trkpt><trkpt lat="44.226935886352436" lon="9.936385500075142"><ele>209.0</ele><time>2026-05-02T14:42:51Z</time></trkpt><trkpt lat="44.22690086110694" lon="9.936295220478447"><ele>209.0</ele><time>2026-05-02T14:42:52Z</time></trkpt><trkpt lat="44.226845443123274" lon="9.936225664819764"><ele>209.00000000000003</ele><time>2026-05-02T14:42:53Z</time></trkpt><trkpt lat="44.22678488796433" lon="9.936149681324313"><ele>209.0</ele><time>2026-05-02T14:42:54Z</time></trkpt><trkpt lat="44.226722317277044" lon="9.93605667235831"><ele>209.00000000000003</ele><time>2026-05-02T14:42:55Z</time></trkpt><trkpt lat="44.22665481535728" lon="9.935957860554346"><ele>209.0</ele><time>2026-05-02T14:42:56Z</time></trkpt><trkpt lat="44.22660591621153" lon="9.935882283551404"><ele>209.0</ele><time>2026-05-02T14:42:57Z</time></trkpt><trkpt lat="44.22656505128246" lon="9.935779424412946"><ele>209.0</ele><time>2026-05-02T14:42:58Z</time></trkpt><trkpt lat="44.226487783752575" lon="9.935732719886222"><ele>209.00000000000003</ele><time>2026-05-02T14:42:59Z</time></trkpt><trkpt lat="44.226427331348205" lon="9.935675739179661"><ele>209.0</ele><time>2026-05-02T14:43:00Z</time></trkpt><trkpt lat="44.22635492275429" lon="9.935542933796867"><ele>208.16666666666669</ele><time>2026-05-02T14:43:02Z</time></trkpt><trkpt lat="44.22632950821392" lon="9.935456481243172"><ele>207.33333333333334</ele><time>2026-05-02T14:43:03Z</time></trkpt><trkpt lat="44.22631622000202" lon="9.935333695307598"><ele>206.5</ele><time>2026-05-02T14:43:04Z</time></trkpt><trkpt lat="44.22628115364758" lon="9.935213323609714"><ele>205.66666666666669</ele><time>2026-05-02T14:43:05Z</time></trkpt><trkpt lat="44.22627263654881" lon="9.935114645097903"><ele>204.83333333333334</ele><time>2026-05-02T14:43:06Z</time></trkpt><trkpt lat="44.22624986321238" lon="9.9350302130071"><ele>204.0</ele><time>2026-05-02T14:43:07Z</time></trkpt><trkpt lat="44.226218394591314" lon="9.934887660979044"><ele>208.0</ele><time>2026-05-02T14:43:08Z</time></trkpt><trkpt lat="44.22619504413593" lon="9.934800066828904"><ele>212.0</ele><time>2026-05-02T14:43:09Z</time></trkpt><trkpt lat="44.226176252569346" lon="9.934685175503782"><ele>216.0</ele><time>2026-05-02T14:43:11Z</time></trkpt><trkpt lat="44.22618364688805" lon="9.934593305202036"><ele>220.0</ele><time>2026-05-02T14:43:12Z</time></trkpt><trkpt lat="44.22617023516426" lon="9.934507224922871"><ele>224.0</ele><time>2026-05-02T14:43:13Z</time></trkpt><trkpt lat="44.226135346393015" lon="9.934368291968578"><ele>228.0</ele><time>2026-05-02T14:43:15Z</time></trkpt><trkpt lat="44.22604225094027" lon="9.934361736271809"><ele>228.0</ele><time>2026-05-02T14:43:16Z</time></trkpt><trkpt lat="44.22596678341115" lon="9.934362080884855"><ele>228.0</ele><time>2026-05-02T14:43:17Z</time></trkpt><trkpt lat="44.22585074227823" lon="9.93440665324118"><ele>228.0</ele><time>2026-05-02T14:43:18Z</time></trkpt><trkpt lat="44.225765166069756" lon="9.934399623502646"><ele>228.0</ele><time>2026-05-02T14:43:19Z</time></trkpt><trkpt lat="44.225704419717445" lon="9.934370571157059"><ele>228.0</ele><time>2026-05-02T14:43:20Z</time></trkpt><trkpt lat="44.22565008894778" lon="9.934315037989613"><ele>228.0</ele><time>2026-05-02T14:43:21Z</time></trkpt><trkpt lat="44.22559771596369" lon="9.934259621071146"><ele>226.8</ele><time>2026-05-02T14:43:22Z</time></trkpt><trkpt lat="44.22552397400281" lon="9.934194794887453"><ele>225.60000000000002</ele><time>2026-05-02T14:43:23Z</time></trkpt><trkpt lat="44.22546154165302" lon="9.934139793625466"><ele>224.39999999999998</ele><time>2026-05-02T14:43:24Z</time></trkpt><trkpt lat="44.225391522442784" lon="9.93400685115717"><ele>223.2</ele><time>2026-05-02T14:43:26Z</time></trkpt><trkpt lat="44.22531520297216" lon="9.93386040265406"><ele>222.0</ele><time>2026-05-02T14:43:28Z</time></trkpt><trkpt lat="44.22520032009728" lon="9.93374396648899"><ele>222.0</ele><time>2026-05-02T14:43:30Z</time></trkpt><trkpt lat="44.22510513263496" lon="9.933707651600859"><ele>222.0</ele><time>2026-05-02T14:43:31Z</time></trkpt><trkpt lat="44.225038595161834" lon="9.933678104007878"><ele>222.0</ele><time>2026-05-02T14:43:32Z</time></trkpt><trkpt lat="44.224972592563816" lon="9.933635831933739"><ele>222.0</ele><time>2026-05-02T14:43:33Z</time></trkpt><trkpt lat="44.22488438523309" lon="9.933500584124976"><ele>222.0</ele><time>2026-05-02T14:43:35Z</time></trkpt><trkpt lat="44.22483522824961" lon="9.93343622947825"><ele>222.0</ele><time>2026-05-02T14:43:36Z</time></trkpt><trkpt lat="44.22478038056566" lon="9.933384814577591"><ele>222.6</ele><time>2026-05-02T14:43:37Z</time></trkpt><trkpt lat="44.224667433075524" lon="9.933442668871717"><ele>223.2</ele><time>2026-05-02T14:43:39Z</time></trkpt><trkpt lat="44.224595013810514" lon="9.933452853141336"><ele>223.8</ele><time>2026-05-02T14:43:40Z</time></trkpt><trkpt lat="44.22447645379225" lon="9.933434960284035"><ele>224.4</ele><time>2026-05-02T14:43:42Z</time></trkpt><trkpt lat="44.22440478492257" lon="9.933398912217653"><ele>225.0</ele><time>2026-05-02T14:43:43Z</time></trkpt><trkpt lat="44.224324015662795" lon="9.933359623901417"><ele>225.0</ele><time>2026-05-02T14:43:44Z</time></trkpt><trkpt lat="44.22424406613149" lon="9.933330790826641"><ele>225.0</ele><time>2026-05-02T14:43:45Z</time></trkpt><trkpt lat="44.22416543588465" lon="9.933312711423492"><ele>225.0</ele><time>2026-05-02T14:43:46Z</time></trkpt><trkpt lat="44.22409838219873" lon="9.933285455791776"><ele>225.0</ele><time>2026-05-02T14:43:47Z</time></trkpt><trkpt lat="44.22400106394465" lon="9.933190078279733"><ele>225.0</ele><time>2026-05-02T14:43:49Z</time></trkpt><trkpt lat="44.223918992702735" lon="9.933076523770792"><ele>222.4</ele><time>2026-05-02T14:43:51Z</time></trkpt><trkpt lat="44.22384383723555" lon="9.932927761795094"><ele>219.8</ele><time>2026-05-02T14:43:53Z</time></trkpt><trkpt lat="44.223822928610694" lon="9.932822652118746"><ele>217.2</ele><time>2026-05-02T14:43:54Z</time></trkpt><trkpt lat="44.2238174322159" lon="9.932734117611561"><ele>214.6</ele><time>2026-05-02T14:43:55Z</time></trkpt><trkpt lat="44.22381008602225" lon="9.932640992901232"><ele>212.0</ele><time>2026-05-02T14:43:56Z</time></trkpt><trkpt lat="44.22375330283364" lon="9.932487823542372"><ele>212.0</ele><time>2026-05-02T14:43:58Z</time></trkpt><trkpt lat="44.223674506466196" lon="9.932372525204586"><ele>212.0</ele><time>2026-05-02T14:44:00Z</time></trkpt><trkpt lat="44.2236235509996" lon="9.932303253145282"><ele>212.0</ele><time>2026-05-02T14:44:01Z</time></trkpt><trkpt lat="44.22350396308934" lon="9.932209491868866"><ele>212.0</ele><time>2026-05-02T14:44:03Z</time></trkpt><trkpt lat="44.22340546000142" lon="9.932100095390073"><ele>212.0</ele><time>2026-05-02T14:44:05Z</time></trkpt><trkpt lat="44.22335483039398" lon="9.932017707431344"><ele>212.00000000000003</ele><time>2026-05-02T14:44:06Z</time></trkpt><trkpt lat="44.22330917285827" lon="9.931939047794582"><ele>212.0</ele><time>2026-05-02T14:44:07Z</time></trkpt><trkpt lat="44.22326196733157" lon="9.931809373090253"><ele>212.0</ele><time>2026-05-02T14:44:09Z</time></trkpt><trkpt lat="44.22325399026829" lon="9.93171718154918"><ele>212.0</ele><time>2026-05-02T14:44:10Z</time></trkpt><trkpt lat="44.2232223138083" lon="9.931620638826807"><ele>212.00000000000003</ele><time>2026-05-02T14:44:11Z</time></trkpt><trkpt lat="44.22320002305143" lon="9.931515915083102"><ele>212.0</ele><time>2026-05-02T14:44:12Z</time></trkpt><trkpt lat="44.22318126452877" lon="9.931425278590593"><ele>214.50000000000003</ele><time>2026-05-02T14:44:13Z</time></trkpt><trkpt lat="44.22315682745103" lon="9.931298666951436"><ele>217.0</ele><time>2026-05-02T14:44:15Z</time></trkpt><trkpt lat="44.223072417261776" lon="9.931230805796035"><ele>219.5</ele><time>2026-05-02T14:44:17Z</time></trkpt><trkpt lat="44.222978135474975" lon="9.931217455044335"><ele>222.0</ele><time>2026-05-02T14:44:19Z</time></trkpt><trkpt lat="44.222914526156416" lon="9.931189380970132"><ele>224.50000000000003</ele><time>2026-05-02T14:44:22Z</time></trkpt><trkpt lat="44.22285595508194" lon="9.931095690035901"><ele>227.0</ele><time>2026-05-02T14:44:24Z</time></trkpt><trkpt lat="44.222786281386725" lon="9.931027423181234"><ele>224.0</ele><time>2026-05-02T14:44:26Z</time></trkpt><trkpt lat="44.222717188474974" lon="9.93089047006585"><ele>221.0</ele><time>2026-05-02T14:44:28Z</time></trkpt><trkpt lat="44.22268479464593" lon="9.930786340526337"><ele>218.0</ele><time>2026-05-02T14:44:29Z</time></trkpt><trkpt lat="44.22266228642864" lon="9.9306931185548"><ele>215.0</ele><time>2026-05-02T14:44:30Z</time></trkpt><trkpt lat="44.222601459413454" lon="9.930549347036456"><ele>212.0</ele><time>2026-05-02T14:44:32Z</time></trkpt><trkpt lat="44.22256633433189" lon="9.930462458252759"><ele>212.00000000000003</ele><time>2026-05-02T14:44:33Z</time></trkpt><trkpt lat="44.222515988981044" lon="9.930396189811702"><ele>212.0</ele><time>2026-05-02T14:44:34Z</time></trkpt><trkpt lat="44.22245352634581" lon="9.930328607531138"><ele>212.0</ele><time>2026-05-02T14:44:35Z</time></trkpt><trkpt lat="44.22239511800179" lon="9.930283002827808"><ele>212.0</ele><time>2026-05-02T14:44:36Z</time></trkpt><trkpt lat="44.222327930936416" lon="9.930181713648919"><ele>212.00000000000003</ele><time>2026-05-02T14:44:38Z</time></trkpt><trkpt lat="44.222288449542305" lon="9.930053214079235"><ele>212.0</ele><time>2026-05-02T14:44:40Z</time></trkpt><trkpt lat="44.222302406612386" lon="9.929964717327017"><ele>215.66666666666669</ele><time>2026-05-02T14:44:41Z</time></trkpt><trkpt lat="44.22231718015508" lon="9.929870975743464"><ele>219.33333333333334</ele><time>2026-05-02T14:44:42Z</time></trkpt><trkpt lat="44.2223062610422" lon="9.929689388278405"><ele>223.0</ele><time>2026-05-02T14:44:44Z</time></trkpt><trkpt lat="44.22227845968154" lon="9.92958822270037"><ele>226.66666666666669</ele><time>2026-05-02T14:44:45Z</time></trkpt><trkpt lat="44.22224538288963" lon="9.929497082854022"><ele>230.33333333333334</ele><time>2026-05-02T14:44:46Z</time></trkpt><trkpt lat="44.22222680244984" lon="9.929372644168197"><ele>234.0</ele><time>2026-05-02T14:44:48Z</time></trkpt><trkpt lat="44.22226738972175" lon="9.92925341807057"><ele>236.5</ele><time>2026-05-02T14:44:50Z</time></trkpt><trkpt lat="44.22232193106308" lon="9.929077204017526"><ele>239.0</ele><time>2026-05-02T14:44:52Z</time></trkpt><trkpt lat="44.22235634233365" lon="9.928978788469466"><ele>241.5</ele><time>2026-05-02T14:44:53Z</time></trkpt><trkpt lat="44.2223769538466" lon="9.928864619105168"><ele>244.0</ele><time>2026-05-02T14:44:54Z</time></trkpt><trkpt lat="44.22240380138305" lon="9.928782645239593"><ele>246.5</ele><time>2026-05-02T14:44:55Z</time></trkpt><trkpt lat="44.222412571105345" lon="9.928675936512887"><ele>249.0</ele><time>2026-05-02T14:44:56Z</time></trkpt><trkpt lat="44.22240598731946" lon="9.928512614529442"><ele>252.0</ele><time>2026-05-02T14:44:58Z</time></trkpt><trkpt lat="44.222355337814854" lon="9.928357107656566"><ele>255.0</ele><time>2026-05-02T14:45:00Z</time></trkpt><trkpt lat="44.222276858194306" lon="9.928268882749393"><ele>258.0</ele><time>2026-05-02T14:45:02Z</time></trkpt><trkpt lat="44.22213907222082" lon="9.92822805871047"><ele>261.0</ele><time>2026-05-02T14:45:04Z</time></trkpt><trkpt lat="44.22203859873833" lon="9.92823614819739"><ele>251.60000000000002</ele><time>2026-05-02T14:45:05Z</time></trkpt><trkpt lat="44.22196952301279" lon="9.928214409926818"><ele>242.20000000000002</ele><time>2026-05-02T14:45:07Z</time></trkpt><trkpt lat="44.221915086713395" lon="9.928145332580083"><ele>232.79999999999998</ele><time>2026-05-02T14:45:09Z</time></trkpt><trkpt lat="44.221910717694676" lon="9.927970076672064"><ele>223.39999999999998</ele><time>2026-05-02T14:45:11Z</time></trkpt><trkpt lat="44.22190583635171" lon="9.927872211827854"><ele>214.0</ele><time>2026-05-02T14:45:12Z</time></trkpt><trkpt lat="44.22191646593921" lon="9.927699926178486"><ele>220.5</ele><time>2026-05-02T14:45:14Z</time></trkpt><trkpt lat="44.221884625350995" lon="9.927547779210855"><ele>227.0</ele><time>2026-05-02T14:45:16Z</time></trkpt><trkpt lat="44.22177948847392" lon="9.92744014546243"><ele>233.5</ele><time>2026-05-02T14:45:18Z</time></trkpt><trkpt lat="44.22172386381841" lon="9.927362611221485"><ele>240.0</ele><time>2026-05-02T14:45:19Z</time></trkpt><trkpt lat="44.221622649798334" lon="9.927239308355816"><ele>240.0</ele><time>2026-05-02T14:45:21Z</time></trkpt><trkpt lat="44.22151856501968" lon="9.927179004831556"><ele>240.0</ele><time>2026-05-02T14:45:23Z</time></trkpt><trkpt lat="44.221464860454226" lon="9.92704871090974"><ele>240.0</ele><time>2026-05-02T14:45:25Z</time></trkpt><trkpt lat="44.221446702526684" lon="9.926942991902603"><ele>240.0</ele><time>2026-05-02T14:45:26Z</time></trkpt><trkpt lat="44.2214298769418" lon="9.926851264276651"><ele>240.0</ele><time>2026-05-02T14:45:27Z</time></trkpt><trkpt lat="44.22140646474059" lon="9.926749553780615"><ele>240.0</ele><time>2026-05-02T14:45:28Z</time></trkpt><trkpt lat="44.22137247814679" lon="9.926663382423401"><ele>239.0</ele><time>2026-05-02T14:45:29Z</time></trkpt><trkpt lat="44.22131576569434" lon="9.926599878787236"><ele>238.0</ele><time>2026-05-02T14:45:30Z</time></trkpt><trkpt lat="44.22124272782152" lon="9.92648851068314"><ele>237.0</ele><time>2026-05-02T14:45:32Z</time></trkpt><trkpt lat="44.221214289434876" lon="9.92639902356506"><ele>236.0</ele><time>2026-05-02T14:45:33Z</time></trkpt><trkpt lat="44.221213333657126" lon="9.926296675207464"><ele>235.0</ele><time>2026-05-02T14:45:34Z</time></trkpt><trkpt lat="44.22121075802785" lon="9.926206947858288"><ele>234.0</ele><time>2026-05-02T14:45:35Z</time></trkpt><trkpt lat="44.22120512388303" lon="9.926019722857761"><ele>234.0</ele><time>2026-05-02T14:45:37Z</time></trkpt><trkpt lat="44.22117115244048" lon="9.925935801537763"><ele>233.99999999999997</ele><time>2026-05-02T14:45:38Z</time></trkpt><trkpt lat="44.22111507117599" lon="9.925874231348452"><ele>233.99999999999997</ele><time>2026-05-02T14:45:39Z</time></trkpt><trkpt lat="44.220993215993495" lon="9.9258318997586"><ele>234.0</ele><time>2026-05-02T14:45:41Z</time></trkpt><trkpt lat="44.220906793606446" lon="9.92579307151284"><ele>234.0</ele><time>2026-05-02T14:45:42Z</time></trkpt><trkpt lat="44.220802533290524" lon="9.925771519860369"><ele>236.66666666666666</ele><time>2026-05-02T14:45:43Z</time></trkpt><trkpt lat="44.22070564308357" lon="9.92576027833751"><ele>239.33333333333331</ele><time>2026-05-02T14:45:44Z</time></trkpt><trkpt lat="44.2206188415054" lon="9.925771729955102"><ele>242.0</ele><time>2026-05-02T14:45:45Z</time></trkpt><trkpt lat="44.22054011174016" lon="9.925784539680825"><ele>244.66666666666666</ele><time>2026-05-02T14:45:46Z</time></trkpt><trkpt lat="44.2204625906078" lon="9.925795726054531"><ele>247.33333333333331</ele><time>2026-05-02T14:45:47Z</time></trkpt><trkpt lat="44.22039418379516" lon="9.92579680837561"><ele>250.0</ele><time>2026-05-02T14:45:48Z</time></trkpt><trkpt lat="44.220273561879296" lon="9.925776994605386"><ele>249.99999999999997</ele><time>2026-05-02T14:45:50Z</time></trkpt><trkpt lat="44.220183585355294" lon="9.925761678911165"><ele>250.0</ele><time>2026-05-02T14:45:51Z</time></trkpt><trkpt lat="44.22012330300188" lon="9.925729817947847"><ele>250.0</ele><time>2026-05-02T14:45:52Z</time></trkpt><trkpt lat="44.22003735131172" lon="9.925640932666282"><ele>250.0</ele><time>2026-05-02T14:45:54Z</time></trkpt><trkpt lat="44.22003617688893" lon="9.925546746596162"><ele>249.99999999999997</ele><time>2026-05-02T14:45:55Z</time></trkpt><trkpt lat="44.22003610669246" lon="9.925458546641346"><ele>250.0</ele><time>2026-05-02T14:45:56Z</time></trkpt><trkpt lat="44.22004396417342" lon="9.925366857477533"><ele>249.99999999999997</ele><time>2026-05-02T14:45:57Z</time></trkpt><trkpt lat="44.220023817381346" lon="9.92527239651543"><ele>250.0</ele><time>2026-05-02T14:45:58Z</time></trkpt><trkpt lat="44.22001699905031" lon="9.9251524734443"><ele>250.0</ele><time>2026-05-02T14:45:59Z</time></trkpt><trkpt lat="44.2200223458557" lon="9.925052767748781"><ele>250.0</ele><time>2026-05-02T14:46:00Z</time></trkpt><trkpt lat="44.220011519424375" lon="9.924910378258053"><ele>249.99999999999997</ele><time>2026-05-02T14:46:02Z</time></trkpt><trkpt lat="44.21995654147635" lon="9.924764345529399"><ele>250.0</ele><time>2026-05-02T14:46:04Z</time></trkpt><trkpt lat="44.219919177197845" lon="9.924691727188836"><ele>248.4</ele><time>2026-05-02T14:46:05Z</time></trkpt><trkpt lat="44.21985690150558" lon="9.92461399974865"><ele>246.8</ele><time>2026-05-02T14:46:06Z</time></trkpt><trkpt lat="44.21979302363847" lon="9.92452339027324"><ele>245.2</ele><time>2026-05-02T14:46:07Z</time></trkpt><trkpt lat="44.21972785559056" lon="9.924434450449668"><ele>243.6</ele><time>2026-05-02T14:46:08Z</time></trkpt><trkpt lat="44.21967257706875" lon="9.924347041908163"><ele>242.0</ele><time>2026-05-02T14:46:09Z</time></trkpt><trkpt lat="44.21956840303873" lon="9.924219348626107"><ele>245.33333333333334</ele><time>2026-05-02T14:46:11Z</time></trkpt><trkpt lat="44.21947639309424" lon="9.924154614109614"><ele>248.66666666666669</ele><time>2026-05-02T14:46:13Z</time></trkpt><trkpt lat="44.21934580355307" lon="9.924105718202886"><ele>252.0</ele><time>2026-05-02T14:46:15Z</time></trkpt><trkpt lat="44.21927495938015" lon="9.92409453280568"><ele>255.33333333333331</ele><time>2026-05-02T14:46:16Z</time></trkpt><trkpt lat="44.219208173830026" lon="9.92408463318101"><ele>258.66666666666663</ele><time>2026-05-02T14:46:17Z</time></trkpt><trkpt lat="44.219141422759584" lon="9.924071796981586"><ele>262.0</ele><time>2026-05-02T14:46:18Z</time></trkpt><trkpt lat="44.21902076685215" lon="9.924031271773048"><ele>259.0</ele><time>2026-05-02T14:46:20Z</time></trkpt><trkpt lat="44.21896828477728" lon="9.923982439048327"><ele>256.0</ele><time>2026-05-02T14:46:21Z</time></trkpt><trkpt lat="44.21892134484833" lon="9.923918661234318"><ele>253.0</ele><time>2026-05-02T14:46:22Z</time></trkpt><trkpt lat="44.21887120591931" lon="9.923851828025308"><ele>250.0</ele><time>2026-05-02T14:46:23Z</time></trkpt><trkpt lat="44.2187931772718" lon="9.923752907088536"><ele>246.99999999999997</ele><time>2026-05-02T14:46:25Z</time></trkpt><trkpt lat="44.21871245436516" lon="9.923683058082052"><ele>244.0</ele><time>2026-05-02T14:46:27Z</time></trkpt><trkpt lat="44.21863450881702" lon="9.923669881086157"><ele>244.0</ele><time>2026-05-02T14:46:29Z</time></trkpt><trkpt lat="44.218554196729784" lon="9.923543592865217"><ele>243.99999999999997</ele><time>2026-05-02T14:46:31Z</time></trkpt><trkpt lat="44.21853228918535" lon="9.923429157476205"><ele>243.99999999999997</ele><time>2026-05-02T14:46:32Z</time></trkpt><trkpt lat="44.21850998653847" lon="9.923330498970621"><ele>244.0</ele><time>2026-05-02T14:46:33Z</time></trkpt><trkpt lat="44.21848882663359" lon="9.923215861582772"><ele>244.0</ele><time>2026-05-02T14:46:35Z</time></trkpt><trkpt lat="44.21838814331692" lon="9.923143876658958"><ele>245.25</ele><time>2026-05-02T14:46:37Z</time></trkpt><trkpt lat="44.21824561823453" lon="9.923165820505947"><ele>246.5</ele><time>2026-05-02T14:46:39Z</time></trkpt><trkpt lat="44.218161874152024" lon="9.923195938673707"><ele>247.75</ele><time>2026-05-02T14:46:40Z</time></trkpt><trkpt lat="44.21808090661377" lon="9.923240704594122"><ele>249.0</ele><time>2026-05-02T14:46:41Z</time></trkpt><trkpt lat="44.217952866783115" lon="9.923313372586794"><ele>249.0</ele><time>2026-05-02T14:46:43Z</time></trkpt><trkpt lat="44.21789019407819" lon="9.92336642299543"><ele>249.0</ele><time>2026-05-02T14:46:44Z</time></trkpt><trkpt lat="44.21783065872175" lon="9.92340863980031"><ele>249.0</ele><time>2026-05-02T14:46:45Z</time></trkpt><trkpt lat="44.21776571274405" lon="9.92344182139262"><ele>249.0</ele><time>2026-05-02T14:46:46Z</time></trkpt><trkpt lat="44.217699420898505" lon="9.92344919362524"><ele>249.0</ele><time>2026-05-02T14:46:47Z</time></trkpt><trkpt lat="44.21756564651949" lon="9.923426159379432"><ele>249.0</ele><time>2026-05-02T14:46:49Z</time></trkpt><trkpt lat="44.217481068872864" lon="9.923414840943268"><ele>249.0</ele><time>2026-05-02T14:46:50Z</time></trkpt><trkpt lat="44.2173960326843" lon="9.923370614315605"><ele>248.99999999999997</ele><time>2026-05-02T14:46:51Z</time></trkpt><trkpt lat="44.21731249618062" lon="9.923339361372268"><ele>248.99999999999997</ele><time>2026-05-02T14:46:52Z</time></trkpt><trkpt lat="44.217232940890895" lon="9.923310745060572"><ele>249.0</ele><time>2026-05-02T14:46:53Z</time></trkpt><trkpt lat="44.21715750451793" lon="9.923250427426153"><ele>249.0</ele><time>2026-05-02T14:46:55Z</time></trkpt><trkpt lat="44.217093359268155" lon="9.923096211231334"><ele>247.66666666666666</ele><time>2026-05-02T14:46:57Z</time></trkpt><trkpt lat="44.21706944446502" lon="9.922985791948944"><ele>246.33333333333331</ele><time>2026-05-02T14:46:58Z</time></trkpt><trkpt lat="44.217046635043545" lon="9.922861807608117"><ele>245.0</ele><time>2026-05-02T14:46:59Z</time></trkpt><trkpt lat="44.217031867121236" lon="9.922759014968944"><ele>243.66666666666666</ele><time>2026-05-02T14:47:00Z</time></trkpt><trkpt lat="44.2170242096833" lon="9.922670179363607"><ele>242.33333333333331</ele><time>2026-05-02T14:47:01Z</time></trkpt><trkpt lat="44.217023366705895" lon="9.922564989175587"><ele>241.0</ele><time>2026-05-02T14:47:02Z</time></trkpt><trkpt lat="44.21702903583995" lon="9.92243944552221"><ele>241.0</ele><time>2026-05-02T14:47:03Z</time></trkpt><trkpt lat="44.21700895670335" lon="9.922284277695521"><ele>241.0</ele><time>2026-05-02T14:47:05Z</time></trkpt><trkpt lat="44.21695695494032" lon="9.922138897738384"><ele>241.0</ele><time>2026-05-02T14:47:07Z</time></trkpt><trkpt lat="44.21684960661095" lon="9.922013900938417"><ele>241.0</ele><time>2026-05-02T14:47:09Z</time></trkpt><trkpt lat="44.21677013304569" lon="9.921923731071498"><ele>241.0</ele><time>2026-05-02T14:47:11Z</time></trkpt><trkpt lat="44.21672950572678" lon="9.921781594148282"><ele>241.00000000000003</ele><time>2026-05-02T14:47:13Z</time></trkpt><trkpt lat="44.216754687849416" lon="9.92160156687345"><ele>241.00000000000003</ele><time>2026-05-02T14:47:15Z</time></trkpt><trkpt lat="44.216764594078796" lon="9.921495750873186"><ele>241.0</ele><time>2026-05-02T14:47:16Z</time></trkpt><trkpt lat="44.216761418025875" lon="9.921383693231126"><ele>241.0</ele><time>2026-05-02T14:47:17Z</time></trkpt><trkpt lat="44.21675890920566" lon="9.921285068324838"><ele>242.60000000000002</ele><time>2026-05-02T14:47:18Z</time></trkpt><trkpt lat="44.216743295605" lon="9.921156217440648"><ele>244.20000000000002</ele><time>2026-05-02T14:47:19Z</time></trkpt><trkpt lat="44.21672161340535" lon="9.921037774971493"><ele>245.79999999999998</ele><time>2026-05-02T14:47:20Z</time></trkpt><trkpt lat="44.216695927965254" lon="9.920941295839857"><ele>247.39999999999998</ele><time>2026-05-02T14:47:21Z</time></trkpt><trkpt lat="44.21664542588257" lon="9.92078545945174"><ele>249.0</ele><time>2026-05-02T14:47:23Z</time></trkpt><trkpt lat="44.21663948800526" lon="9.920652152525786"><ele>250.6</ele><time>2026-05-02T14:47:25Z</time></trkpt><trkpt lat="44.21660406031084" lon="9.920509672672466"><ele>252.2</ele><time>2026-05-02T14:47:27Z</time></trkpt><trkpt lat="44.21650606478301" lon="9.920417631695333"><ele>253.79999999999998</ele><time>2026-05-02T14:47:29Z</time></trkpt><trkpt lat="44.21643505059326" lon="9.920358900151445"><ele>255.39999999999998</ele><time>2026-05-02T14:47:30Z</time></trkpt><trkpt lat="44.21634653921837" lon="9.920220506100499"><ele>257.0</ele><time>2026-05-02T14:47:32Z</time></trkpt><trkpt lat="44.21628439054925" lon="9.920108317934517"><ele>253.39999999999998</ele><time>2026-05-02T14:47:33Z</time></trkpt><trkpt lat="44.21620807362096" lon="9.920040312522449"><ele>249.79999999999998</ele><time>2026-05-02T14:47:34Z</time></trkpt><trkpt lat="44.21614545838294" lon="9.919963562142893"><ele>246.2</ele><time>2026-05-02T14:47:35Z</time></trkpt><trkpt lat="44.216091849295836" lon="9.919880576543022"><ele>242.6</ele><time>2026-05-02T14:47:36Z</time></trkpt><trkpt lat="44.216049891756576" lon="9.91977319854336"><ele>239.0</ele><time>2026-05-02T14:47:38Z</time></trkpt><trkpt lat="44.216061406745276" lon="9.91957964168874"><ele>239.0</ele><time>2026-05-02T14:47:40Z</time></trkpt><trkpt lat="44.21607705261188" lon="9.919482195977126"><ele>238.99999999999997</ele><time>2026-05-02T14:47:41Z</time></trkpt><trkpt lat="44.21606807955611" lon="9.919347016035477"><ele>238.99999999999997</ele><time>2026-05-02T14:47:43Z</time></trkpt><trkpt lat="44.216000114595246" lon="9.919190994375878"><ele>239.0</ele><time>2026-05-02T14:47:45Z</time></trkpt><trkpt lat="44.215948406302445" lon="9.919121434261303"><ele>239.0</ele><time>2026-05-02T14:47:46Z</time></trkpt><trkpt lat="44.21590718665133" lon="9.918945331092761"><ele>240.50000000000003</ele><time>2026-05-02T14:47:48Z</time></trkpt><trkpt lat="44.21588451562296" lon="9.918839764818363"><ele>242.0</ele><time>2026-05-02T14:47:49Z</time></trkpt><trkpt lat="44.21586694195503" lon="9.91874252936397"><ele>243.5</ele><time>2026-05-02T14:47:50Z</time></trkpt><trkpt lat="44.215894651462776" lon="9.918579593918448"><ele>245.0</ele><time>2026-05-02T14:47:52Z</time></trkpt><trkpt lat="44.215913585635874" lon="9.918457191617648"><ele>246.50000000000003</ele><time>2026-05-02T14:47:53Z</time></trkpt><trkpt lat="44.21593631606355" lon="9.91834193167354"><ele>248.0</ele><time>2026-05-02T14:47:54Z</time></trkpt><trkpt lat="44.21596711001373" lon="9.918247977234207"><ele>248.00000000000003</ele><time>2026-05-02T14:47:55Z</time></trkpt><trkpt lat="44.21600301853474" lon="9.918157907239353"><ele>248.0</ele><time>2026-05-02T14:47:56Z</time></trkpt><trkpt lat="44.21605798058612" lon="9.91806252470631"><ele>248.0</ele><time>2026-05-02T14:47:57Z</time></trkpt><trkpt lat="44.216121759014776" lon="9.917956869717937"><ele>248.0</ele><time>2026-05-02T14:47:58Z</time></trkpt><trkpt lat="44.21617840101466" lon="9.917871801472481"><ele>248.00000000000003</ele><time>2026-05-02T14:47:59Z</time></trkpt><trkpt lat="44.216230348923474" lon="9.917799055395175"><ele>248.0</ele><time>2026-05-02T14:48:00Z</time></trkpt><trkpt lat="44.21626805842174" lon="9.917726147803288"><ele>248.00000000000003</ele><time>2026-05-02T14:48:01Z</time></trkpt><trkpt lat="44.216354702739" lon="9.917630117761814"><ele>248.0</ele><time>2026-05-02T14:48:03Z</time></trkpt><trkpt lat="44.216416711815754" lon="9.91758981723837"><ele>248.0</ele><time>2026-05-02T14:48:04Z</time></trkpt><trkpt lat="44.216482420262075" lon="9.91756105532319"><ele>248.0</ele><time>2026-05-02T14:48:05Z</time></trkpt><trkpt lat="44.21654335248463" lon="9.917525852125028"><ele>248.00000000000003</ele><time>2026-05-02T14:48:06Z</time></trkpt><trkpt lat="44.2166089373993" lon="9.917467433860937"><ele>248.0</ele><time>2026-05-02T14:48:07Z</time></trkpt><trkpt lat="44.21668447918396" lon="9.917396549415121"><ele>249.33333333333334</ele><time>2026-05-02T14:48:08Z</time></trkpt><trkpt lat="44.21675086656596" lon="9.917353060020675"><ele>250.66666666666669</ele><time>2026-05-02T14:48:09Z</time></trkpt><trkpt lat="44.21686477785645" lon="9.917278950471342"><ele>252.0</ele><time>2026-05-02T14:48:11Z</time></trkpt><trkpt lat="44.21694179323983" lon="9.917252820431841"><ele>253.33333333333331</ele><time>2026-05-02T14:48:12Z</time></trkpt><trkpt lat="44.21700725461407" lon="9.917219325278555"><ele>254.66666666666666</ele><time>2026-05-02T14:48:13Z</time></trkpt><trkpt lat="44.21706816655716" lon="9.917170772387504"><ele>256.0</ele><time>2026-05-02T14:48:14Z</time></trkpt><trkpt lat="44.217161673172" lon="9.91715719789975"><ele>256.0</ele><time>2026-05-02T14:48:15Z</time></trkpt><trkpt lat="44.21725913427126" lon="9.917094679534937"><ele>256.0</ele><time>2026-05-02T14:48:17Z</time></trkpt><trkpt lat="44.21738236418358" lon="9.917119577851777"><ele>256.0</ele><time>2026-05-02T14:48:19Z</time></trkpt><trkpt lat="44.217457863615174" lon="9.917177322440628"><ele>256.0</ele><time>2026-05-02T14:48:21Z</time></trkpt><trkpt lat="44.21752071291647" lon="9.917213505533237"><ele>256.0</ele><time>2026-05-02T14:48:23Z</time></trkpt><trkpt lat="44.21764293763946" lon="9.917101817627655"><ele>258.0</ele><time>2026-05-02T14:48:24Z</time></trkpt><trkpt lat="44.21772492860103" lon="9.916994591416248"><ele>260.0</ele><time>2026-05-02T14:48:26Z</time></trkpt><trkpt lat="44.217766267504665" lon="9.916840667676338"><ele>262.0</ele><time>2026-05-02T14:48:28Z</time></trkpt><trkpt lat="44.21779317945816" lon="9.916705399884615"><ele>264.0</ele><time>2026-05-02T14:48:30Z</time></trkpt><trkpt lat="44.217754062996875" lon="9.916629004223227"><ele>266.0</ele><time>2026-05-02T14:48:32Z</time></trkpt><trkpt lat="44.217685906773724" lon="9.916614089901135"><ele>266.0</ele><time>2026-05-02T14:48:34Z</time></trkpt><trkpt lat="44.21764041732505" lon="9.916675076100086"><ele>266.0</ele><time>2026-05-02T14:48:39.001Z</time></trkpt><trkpt lat="44.21757372346585" lon="9.91672978730116"><ele>266.0</ele><time>2026-05-02T14:49:18Z</time></trkpt><trkpt lat="44.21751346771151" lon="9.91679145961402"><ele>266.0</ele><time>2026-05-02T14:49:20Z</time></trkpt><trkpt lat="44.21738458941621" lon="9.91680488019418"><ele>266.0</ele><time>2026-05-02T14:49:22Z</time></trkpt><trkpt lat="44.217283701431995" lon="9.91681105982148"><ele>266.0</ele><time>2026-05-02T14:49:23Z</time></trkpt><trkpt lat="44.21720030158443" lon="9.916792734001934"><ele>264.57142857142856</ele><time>2026-05-02T14:49:24Z</time></trkpt><trkpt lat="44.217129458182704" lon="9.916772862840455"><ele>263.1428571428571</ele><time>2026-05-02T14:49:25Z</time></trkpt><trkpt lat="44.21706366380283" lon="9.916750637725208"><ele>261.7142857142857</ele><time>2026-05-02T14:49:26Z</time></trkpt><trkpt lat="44.21698628916913" lon="9.916740920845431"><ele>260.2857142857143</ele><time>2026-05-02T14:49:28Z</time></trkpt><trkpt lat="44.21691970392797" lon="9.916738014768711"><ele>258.85714285714283</ele><time>2026-05-02T14:49:29Z</time></trkpt><trkpt lat="44.21684922672423" lon="9.916745657581055"><ele>257.42857142857144</ele><time>2026-05-02T14:49:30Z</time></trkpt><trkpt lat="44.216774896912646" lon="9.916755230558671"><ele>256.0</ele><time>2026-05-02T14:49:31Z</time></trkpt><trkpt lat="44.21669609292081" lon="9.916780435155541"><ele>256.0</ele><time>2026-05-02T14:49:32Z</time></trkpt><trkpt lat="44.216628563457576" lon="9.916760886239746"><ele>256.0</ele><time>2026-05-02T14:49:33Z</time></trkpt><trkpt lat="44.21651608664261" lon="9.916823593320593"><ele>256.0</ele><time>2026-05-02T14:49:35Z</time></trkpt><trkpt lat="44.216447555189056" lon="9.916870363862998"><ele>256.0</ele><time>2026-05-02T14:49:36Z</time></trkpt><trkpt lat="44.21633896557402" lon="9.916962673623047"><ele>256.0</ele><time>2026-05-02T14:49:38Z</time></trkpt><trkpt lat="44.21623315412256" lon="9.917061231983668"><ele>253.66666666666666</ele><time>2026-05-02T14:49:40Z</time></trkpt><trkpt lat="44.21616437352668" lon="9.917093451726558"><ele>251.33333333333331</ele><time>2026-05-02T14:49:41Z</time></trkpt><trkpt lat="44.21608247522485" lon="9.917122702720755"><ele>249.0</ele><time>2026-05-02T14:49:42Z</time></trkpt><trkpt lat="44.21601656753921" lon="9.91714627766716"><ele>246.66666666666669</ele><time>2026-05-02T14:49:43Z</time></trkpt><trkpt lat="44.215946937204514" lon="9.917184143598863"><ele>244.33333333333334</ele><time>2026-05-02T14:49:44Z</time></trkpt><trkpt lat="44.215867447804435" lon="9.917223875764877"><ele>242.0</ele><time>2026-05-02T14:49:45Z</time></trkpt><trkpt lat="44.215794017205916" lon="9.917257760487551"><ele>242.00000000000003</ele><time>2026-05-02T14:49:46Z</time></trkpt><trkpt lat="44.21572660271861" lon="9.91729985690094"><ele>242.0</ele><time>2026-05-02T14:49:47Z</time></trkpt><trkpt lat="44.21566429821632" lon="9.917347942145206"><ele>242.0</ele><time>2026-05-02T14:49:48Z</time></trkpt><trkpt lat="44.215600628984376" lon="9.917392750636882"><ele>242.0</ele><time>2026-05-02T14:49:49Z</time></trkpt><trkpt lat="44.21552357550163" lon="9.917446559452314"><ele>242.00000000000003</ele><time>2026-05-02T14:49:50Z</time></trkpt><trkpt lat="44.2154361069953" lon="9.91749780673109"><ele>242.0</ele><time>2026-05-02T14:49:51Z</time></trkpt><trkpt lat="44.21536434721622" lon="9.917540245897143"><ele>240.39999999999998</ele><time>2026-05-02T14:49:52Z</time></trkpt><trkpt lat="44.215300959566704" lon="9.917573769984235"><ele>238.79999999999998</ele><time>2026-05-02T14:49:53Z</time></trkpt><trkpt lat="44.215180313340404" lon="9.917595766995873"><ele>237.2</ele><time>2026-05-02T14:49:55Z</time></trkpt><trkpt lat="44.21506365611751" lon="9.91752202283766"><ele>235.6</ele><time>2026-05-02T14:49:57Z</time></trkpt><trkpt lat="44.21498955370053" lon="9.917459009073545"><ele>234.0</ele><time>2026-05-02T14:49:58Z</time></trkpt><trkpt lat="44.21491270649852" lon="9.917391768885032"><ele>234.0</ele><time>2026-05-02T14:49:59Z</time></trkpt><trkpt lat="44.21484421822791" lon="9.917309659658638"><ele>234.0</ele><time>2026-05-02T14:50:00Z</time></trkpt><trkpt lat="44.21478897405226" lon="9.917260457465611"><ele>234.0</ele><time>2026-05-02T14:50:01Z</time></trkpt><trkpt lat="44.21469468543651" lon="9.917175817767278"><ele>234.0</ele><time>2026-05-02T14:50:03Z</time></trkpt><trkpt lat="44.21463005689646" lon="9.917116179577546"><ele>234.0</ele><time>2026-05-02T14:50:04Z</time></trkpt><trkpt lat="44.21456798576845" lon="9.917039453884415"><ele>234.0</ele><time>2026-05-02T14:50:05Z</time></trkpt><trkpt lat="44.21450811384106" lon="9.916963391756074"><ele>233.66666666666666</ele><time>2026-05-02T14:50:06Z</time></trkpt><trkpt lat="44.21445183150478" lon="9.916895731535115"><ele>233.33333333333331</ele><time>2026-05-02T14:50:07Z</time></trkpt><trkpt lat="44.21439830641013" lon="9.916831853603084"><ele>233.0</ele><time>2026-05-02T14:50:08Z</time></trkpt><trkpt lat="44.214330768606644" lon="9.916770308311614"><ele>232.66666666666666</ele><time>2026-05-02T14:50:09Z</time></trkpt><trkpt lat="44.21426688424307" lon="9.91671312265363"><ele>232.33333333333331</ele><time>2026-05-02T14:50:10Z</time></trkpt><trkpt lat="44.2141659925042" lon="9.91661154380007"><ele>232.0</ele><time>2026-05-02T14:50:12Z</time></trkpt><trkpt lat="44.214107578279844" lon="9.916562920091401"><ele>232.83333333333331</ele><time>2026-05-02T14:50:13Z</time></trkpt><trkpt lat="44.214042659985196" lon="9.916522671632967"><ele>233.66666666666666</ele><time>2026-05-02T14:50:14Z</time></trkpt><trkpt lat="44.213969628338845" lon="9.9164854291539"><ele>234.5</ele><time>2026-05-02T14:50:15Z</time></trkpt><trkpt lat="44.21389779665951" lon="9.916443253154927"><ele>235.33333333333331</ele><time>2026-05-02T14:50:16Z</time></trkpt><trkpt lat="44.21382801390103" lon="9.916393944884264"><ele>236.16666666666666</ele><time>2026-05-02T14:50:17Z</time></trkpt><trkpt lat="44.21375991489875" lon="9.916339324119342"><ele>237.0</ele><time>2026-05-02T14:50:18Z</time></trkpt><trkpt lat="44.21368262886634" lon="9.91626351000609"><ele>237.33333333333334</ele><time>2026-05-02T14:50:19Z</time></trkpt><trkpt lat="44.21362627197001" lon="9.916200821034723"><ele>237.66666666666669</ele><time>2026-05-02T14:50:20Z</time></trkpt><trkpt lat="44.213562282931015" lon="9.916150294897886"><ele>238.0</ele><time>2026-05-02T14:50:21Z</time></trkpt><trkpt lat="44.213476714046216" lon="9.916106294546022"><ele>238.33333333333334</ele><time>2026-05-02T14:50:22Z</time></trkpt><trkpt lat="44.21339779440961" lon="9.916071234786523"><ele>238.66666666666669</ele><time>2026-05-02T14:50:23Z</time></trkpt><trkpt lat="44.21332200510915" lon="9.916037044054388"><ele>239.0</ele><time>2026-05-02T14:50:24Z</time></trkpt><trkpt lat="44.213254382894924" lon="9.915998434925472"><ele>239.79999999999998</ele><time>2026-05-02T14:50:25Z</time></trkpt><trkpt lat="44.213159419266574" lon="9.915890484973941"><ele>240.59999999999997</ele><time>2026-05-02T14:50:27Z</time></trkpt><trkpt lat="44.213118402742786" lon="9.915820995303037"><ele>241.4</ele><time>2026-05-02T14:50:28Z</time></trkpt><trkpt lat="44.21308119801154" lon="9.915738452498683"><ele>242.2</ele><time>2026-05-02T14:50:29Z</time></trkpt><trkpt lat="44.213039744090324" lon="9.91566605015756"><ele>243.0</ele><time>2026-05-02T14:50:30Z</time></trkpt><trkpt lat="44.212963506213896" lon="9.91552469984539"><ele>244.4</ele><time>2026-05-02T14:50:32Z</time></trkpt><trkpt lat="44.21286426785514" lon="9.915451174523213"><ele>245.8</ele><time>2026-05-02T14:50:34Z</time></trkpt><trkpt lat="44.21278014296404" lon="9.915346572301758"><ele>247.2</ele><time>2026-05-02T14:50:36Z</time></trkpt><trkpt lat="44.21274634235944" lon="9.91526981826653"><ele>248.6</ele><time>2026-05-02T14:50:37Z</time></trkpt><trkpt lat="44.21274215701272" lon="9.915090279915283"><ele>250.0</ele><time>2026-05-02T14:50:38Z</time></trkpt><trkpt lat="44.21274283338792" lon="9.914976322197312"><ele>250.33333333333331</ele><time>2026-05-02T14:50:39Z</time></trkpt><trkpt lat="44.21274246675464" lon="9.914871778712346"><ele>250.66666666666666</ele><time>2026-05-02T14:50:40Z</time></trkpt><trkpt lat="44.212755037271116" lon="9.914770666835993"><ele>251.0</ele><time>2026-05-02T14:50:41Z</time></trkpt><trkpt lat="44.212735758542834" lon="9.914669572516427"><ele>251.33333333333331</ele><time>2026-05-02T14:50:42Z</time></trkpt><trkpt lat="44.21270716406737" lon="9.914586688772898"><ele>251.66666666666666</ele><time>2026-05-02T14:50:43.001Z</time></trkpt><trkpt lat="44.21267778091587" lon="9.914498257171868"><ele>252.0</ele><time>2026-05-02T14:50:44.001Z</time></trkpt><trkpt lat="44.21260235562007" lon="9.91436539734146"><ele>252.0</ele><time>2026-05-02T14:50:46.001Z</time></trkpt><trkpt lat="44.21253625023143" lon="9.914277164633752"><ele>252.0</ele><time>2026-05-02T14:50:47.001Z</time></trkpt><trkpt lat="44.21247739178365" lon="9.914212465794831"><ele>252.0</ele><time>2026-05-02T14:50:48.001Z</time></trkpt><trkpt lat="44.212425954050225" lon="9.914150043139031"><ele>252.0</ele><time>2026-05-02T14:50:49.001Z</time></trkpt><trkpt lat="44.21236875465946" lon="9.914062381843532"><ele>252.0</ele><time>2026-05-02T14:50:50.001Z</time></trkpt><trkpt lat="44.21232635132446" lon="9.913888247636189"><ele>251.0</ele><time>2026-05-02T14:50:52.001Z</time></trkpt><trkpt lat="44.21232130147114" lon="9.91375822800774"><ele>250.0</ele><time>2026-05-02T14:50:53.001Z</time></trkpt><trkpt lat="44.21233384390817" lon="9.913658386195728"><ele>249.0</ele><time>2026-05-02T14:50:54.001Z</time></trkpt><trkpt lat="44.21233947099063" lon="9.913506873296374"><ele>248.0</ele><time>2026-05-02T14:50:56.001Z</time></trkpt><trkpt lat="44.21231234316169" lon="9.91330482647031"><ele>247.0</ele><time>2026-05-02T14:50:58.001Z</time></trkpt><trkpt lat="44.21227194720733" lon="9.91318825529501"><ele>248.66666666666666</ele><time>2026-05-02T14:50:59.001Z</time></trkpt><trkpt lat="44.21222684809191" lon="9.91308363055567"><ele>250.33333333333331</ele><time>2026-05-02T14:51:00.001Z</time></trkpt><trkpt lat="44.2121761482128" lon="9.912978910362257"><ele>252.0</ele><time>2026-05-02T14:51:01.001Z</time></trkpt><trkpt lat="44.21213448966688" lon="9.912895564303378"><ele>253.66666666666669</ele><time>2026-05-02T14:51:02.001Z</time></trkpt><trkpt lat="44.21209573776488" lon="9.91280516453083"><ele>255.33333333333334</ele><time>2026-05-02T14:51:03.001Z</time></trkpt><trkpt lat="44.212077676176705" lon="9.91271949885687"><ele>257.0</ele><time>2026-05-02T14:51:04.001Z</time></trkpt><trkpt lat="44.21207290168534" lon="9.912616123206687"><ele>256.1666666666667</ele><time>2026-05-02T14:51:05.001Z</time></trkpt><trkpt lat="44.212059444109535" lon="9.912521013344108"><ele>255.33333333333334</ele><time>2026-05-02T14:51:06.001Z</time></trkpt><trkpt lat="44.21202480107654" lon="9.912424252800442"><ele>254.5</ele><time>2026-05-02T14:51:07.001Z</time></trkpt><trkpt lat="44.211975598140334" lon="9.91236178761867"><ele>253.66666666666669</ele><time>2026-05-02T14:51:08Z</time></trkpt><trkpt lat="44.21192153044874" lon="9.912294927353683"><ele>252.83333333333334</ele><time>2026-05-02T14:51:09Z</time></trkpt><trkpt lat="44.21185115336093" lon="9.912223132424536"><ele>252.0</ele><time>2026-05-02T14:51:10Z</time></trkpt><trkpt lat="44.21176432018345" lon="9.912153173509738"><ele>252.0</ele><time>2026-05-02T14:51:11Z</time></trkpt><trkpt lat="44.21168964485685" lon="9.912094085366464"><ele>252.0</ele><time>2026-05-02T14:51:12Z</time></trkpt><trkpt lat="44.211621841158376" lon="9.912058138095592"><ele>252.0</ele><time>2026-05-02T14:51:13Z</time></trkpt><trkpt lat="44.211553150003745" lon="9.912011287654103"><ele>252.0</ele><time>2026-05-02T14:51:14Z</time></trkpt><trkpt lat="44.21146947462524" lon="9.911905105476377"><ele>252.0</ele><time>2026-05-02T14:51:16Z</time></trkpt><trkpt lat="44.211429788675055" lon="9.911828199063812"><ele>252.0</ele><time>2026-05-02T14:51:17Z</time></trkpt><trkpt lat="44.21139661913085" lon="9.91173255123856"><ele>254.5</ele><time>2026-05-02T14:51:18Z</time></trkpt><trkpt lat="44.21137909822825" lon="9.911601035635918"><ele>257.0</ele><time>2026-05-02T14:51:20Z</time></trkpt><trkpt lat="44.21136818839945" lon="9.911514534840459"><ele>259.5</ele><time>2026-05-02T14:51:35Z</time></trkpt><trkpt lat="44.211356566816065" lon="9.91137689164112"><ele>262.0</ele><time>2026-05-02T14:51:37Z</time></trkpt><trkpt lat="44.21130625883151" lon="9.91129386667396"><ele>264.5</ele><time>2026-05-02T14:51:39Z</time></trkpt><trkpt lat="44.211228980999884" lon="9.911237615402738"><ele>267.0</ele><time>2026-05-02T14:51:41Z</time></trkpt><trkpt lat="44.21113439719107" lon="9.911290692514946"><ele>267.0</ele><time>2026-05-02T14:51:43Z</time></trkpt><trkpt lat="44.2110979632479" lon="9.91139131890968"><ele>267.0</ele><time>2026-05-02T14:51:45Z</time></trkpt><trkpt lat="44.211123063572124" lon="9.911541735782498"><ele>267.0</ele><time>2026-05-02T14:51:47Z</time></trkpt><trkpt lat="44.2111348688069" lon="9.911671498168293"><ele>267.0</ele><time>2026-05-02T14:51:49Z</time></trkpt><trkpt lat="44.21113483948438" lon="9.911835459581678"><ele>267.0</ele><time>2026-05-02T14:51:51Z</time></trkpt><trkpt lat="44.211118709224" lon="9.911970080994731"><ele>268.0</ele><time>2026-05-02T14:51:53Z</time></trkpt><trkpt lat="44.21105564411761" lon="9.912065596941734"><ele>269.0</ele><time>2026-05-02T14:51:55Z</time></trkpt><trkpt lat="44.210939932443985" lon="9.912155693492354"><ele>270.0</ele><time>2026-05-02T14:51:57Z</time></trkpt><trkpt lat="44.21086040130173" lon="9.912211213190815"><ele>271.0</ele><time>2026-05-02T14:51:58Z</time></trkpt><trkpt lat="44.210788792598656" lon="9.912276427184507"><ele>272.0</ele><time>2026-05-02T14:51:59Z</time></trkpt><trkpt lat="44.210711313948444" lon="9.912362248192151"><ele>274.6666666666667</ele><time>2026-05-02T14:52:00Z</time></trkpt><trkpt lat="44.21063483101989" lon="9.912435714779786"><ele>277.33333333333337</ele><time>2026-05-02T14:52:01Z</time></trkpt><trkpt lat="44.210567015100764" lon="9.912503003755337"><ele>280.0</ele><time>2026-05-02T14:52:02Z</time></trkpt><trkpt lat="44.2105009610596" lon="9.912554846216407"><ele>282.6666666666667</ele><time>2026-05-02T14:52:03Z</time></trkpt><trkpt lat="44.21043694785759" lon="9.91260232234362"><ele>285.3333333333333</ele><time>2026-05-02T14:52:04Z</time></trkpt><trkpt lat="44.21035180180354" lon="9.912588704619544"><ele>288.0</ele><time>2026-05-02T14:52:06Z</time></trkpt><trkpt lat="44.210273318980505" lon="9.912493224943171"><ele>288.0</ele><time>2026-05-02T14:52:08Z</time></trkpt><trkpt lat="44.21020956707236" lon="9.912379938108609"><ele>288.0</ele><time>2026-05-02T14:52:10Z</time></trkpt><trkpt lat="44.21010025712258" lon="9.912343104485021"><ele>288.0</ele><time>2026-05-02T14:52:12Z</time></trkpt><trkpt lat="44.210015412691995" lon="9.912388285724504"><ele>288.0</ele><time>2026-05-02T14:52:14Z</time></trkpt><trkpt lat="44.209985176464315" lon="9.912509920765912"><ele>288.0</ele><time>2026-05-02T14:52:16Z</time></trkpt><trkpt lat="44.2100231192813" lon="9.912691116398278"><ele>288.4</ele><time>2026-05-02T14:52:18Z</time></trkpt><trkpt lat="44.210039314217845" lon="9.91277897926251"><ele>288.8</ele><time>2026-05-02T14:52:19Z</time></trkpt><trkpt lat="44.210009939645836" lon="9.91297068291337"><ele>289.2</ele><time>2026-05-02T14:52:21Z</time></trkpt><trkpt lat="44.209984042654675" lon="9.9130615898462"><ele>289.6</ele><time>2026-05-02T14:52:22Z</time></trkpt><trkpt lat="44.209895973100195" lon="9.913208644866302"><ele>290.0</ele><time>2026-05-02T14:52:24Z</time></trkpt><trkpt lat="44.20983031813682" lon="9.9132716517747"><ele>293.1666666666667</ele><time>2026-05-02T14:52:25Z</time></trkpt><trkpt lat="44.209751079931614" lon="9.913332386740395"><ele>296.33333333333337</ele><time>2026-05-02T14:52:26Z</time></trkpt><trkpt lat="44.20966763204541" lon="9.913413360466322"><ele>299.5</ele><time>2026-05-02T14:52:27Z</time></trkpt><trkpt lat="44.20961304064626" lon="9.913463058791585"><ele>302.6666666666667</ele><time>2026-05-02T14:52:28Z</time></trkpt><trkpt lat="44.20955894595811" lon="9.913566784789252"><ele>305.8333333333333</ele><time>2026-05-02T14:52:30Z</time></trkpt><trkpt lat="44.209585155545" lon="9.91369108383433"><ele>309.0</ele><time>2026-05-02T14:52:32Z</time></trkpt><trkpt lat="44.209628456891856" lon="9.913764840286849"><ele>309.8</ele><time>2026-05-02T14:52:33Z</time></trkpt><trkpt lat="44.209681126847656" lon="9.913859227243362"><ele>310.59999999999997</ele><time>2026-05-02T14:52:34Z</time></trkpt><trkpt lat="44.20971016537665" lon="9.913958884951963"><ele>311.4</ele><time>2026-05-02T14:52:35Z</time></trkpt><trkpt lat="44.20973911391154" lon="9.914087723822341"><ele>312.2</ele><time>2026-05-02T14:52:36Z</time></trkpt><trkpt lat="44.20976621372737" lon="9.91422299792175"><ele>313.0</ele><time>2026-05-02T14:52:37Z</time></trkpt><trkpt lat="44.209801983965406" lon="9.914361278144792"><ele>311.66666666666663</ele><time>2026-05-02T14:52:38Z</time></trkpt><trkpt lat="44.20984272354774" lon="9.914490215539015"><ele>310.3333333333333</ele><time>2026-05-02T14:52:39Z</time></trkpt><trkpt lat="44.20987427902849" lon="9.914599458309914"><ele>309.0</ele><time>2026-05-02T14:52:40Z</time></trkpt><trkpt lat="44.20990874099295" lon="9.914709126771527"><ele>307.6666666666667</ele><time>2026-05-02T14:52:41Z</time></trkpt><trkpt lat="44.209934143854554" lon="9.91481903311124"><ele>306.33333333333337</ele><time>2026-05-02T14:52:42Z</time></trkpt><trkpt lat="44.20995943660764" lon="9.914920667213119"><ele>305.0</ele><time>2026-05-02T14:52:43Z</time></trkpt><trkpt lat="44.20997675222316" lon="9.915064757398792"><ele>306.4</ele><time>2026-05-02T14:52:45Z</time></trkpt><trkpt lat="44.20991885595818" lon="9.915206167895889"><ele>307.8</ele><time>2026-05-02T14:52:47Z</time></trkpt><trkpt lat="44.20986461308007" lon="9.915258129470754"><ele>309.2</ele><time>2026-05-02T14:52:48.001Z</time></trkpt><trkpt lat="44.20975589155085" lon="9.915302747556028"><ele>310.6</ele><time>2026-05-02T14:52:50.001Z</time></trkpt><trkpt lat="44.20965499585495" lon="9.915230936818093"><ele>312.0</ele><time>2026-05-02T14:52:52.001Z</time></trkpt><trkpt lat="44.209603582649116" lon="9.915049705037202"><ele>313.42857142857144</ele><time>2026-05-02T14:52:54.001Z</time></trkpt><trkpt lat="44.209575928331915" lon="9.914965683544477"><ele>314.85714285714283</ele><time>2026-05-02T14:52:55.001Z</time></trkpt><trkpt lat="44.209538571304535" lon="9.914892902948608"><ele>316.2857142857143</ele><time>2026-05-02T14:52:56.001Z</time></trkpt><trkpt lat="44.20948042599424" lon="9.91482938591607"><ele>317.7142857142857</ele><time>2026-05-02T14:52:57.001Z</time></trkpt><trkpt lat="44.209427640422824" lon="9.914755087678701"><ele>319.1428571428571</ele><time>2026-05-02T14:52:58.001Z</time></trkpt><trkpt lat="44.20939229792511" lon="9.91466605973484"><ele>320.57142857142856</ele><time>2026-05-02T14:52:59.001Z</time></trkpt><trkpt lat="44.20936873306205" lon="9.914569355908503"><ele>322.0</ele><time>2026-05-02T14:53:00.001Z</time></trkpt><trkpt lat="44.20933932320076" lon="9.914479132527974"><ele>322.0</ele><time>2026-05-02T14:53:01Z</time></trkpt><trkpt lat="44.2093026576939" lon="9.914395374101112"><ele>322.0</ele><time>2026-05-02T14:53:02Z</time></trkpt><trkpt lat="44.20925615257102" lon="9.914326636954582"><ele>322.0</ele><time>2026-05-02T14:53:03Z</time></trkpt><trkpt lat="44.2091650915181" lon="9.914249461809504"><ele>322.0</ele><time>2026-05-02T14:53:05Z</time></trkpt><trkpt lat="44.20907893859705" lon="9.914277696238837"><ele>322.0</ele><time>2026-05-02T14:53:07Z</time></trkpt><trkpt lat="44.20903592771869" lon="9.914392872216807"><ele>322.0</ele><time>2026-05-02T14:53:09Z</time></trkpt><trkpt lat="44.209066669790936" lon="9.914570328043684"><ele>322.0</ele><time>2026-05-02T14:53:11Z</time></trkpt><trkpt lat="44.209094027785554" lon="9.914656589613475"><ele>322.0</ele><time>2026-05-02T14:53:12Z</time></trkpt><trkpt lat="44.209124783898666" lon="9.914742943306665"><ele>322.0</ele><time>2026-05-02T14:53:13Z</time></trkpt><trkpt lat="44.20915298018534" lon="9.914837856895403"><ele>322.0</ele><time>2026-05-02T14:53:14Z</time></trkpt><trkpt lat="44.2091650246404" lon="9.915019819507064"><ele>322.0</ele><time>2026-05-02T14:53:16Z</time></trkpt><trkpt lat="44.20916523950033" lon="9.9151144460741"><ele>322.0</ele><time>2026-05-02T14:53:17Z</time></trkpt><trkpt lat="44.209167860213235" lon="9.915206929214976"><ele>322.5</ele><time>2026-05-02T14:53:18Z</time></trkpt><trkpt lat="44.20919197910169" lon="9.915303419659974"><ele>323.0</ele><time>2026-05-02T14:53:19Z</time></trkpt><trkpt lat="44.20921532221662" lon="9.91540556873936"><ele>323.5</ele><time>2026-05-02T14:53:20Z</time></trkpt><trkpt lat="44.20920764674698" lon="9.915587838794616"><ele>324.0</ele><time>2026-05-02T14:53:22Z</time></trkpt><trkpt lat="44.20917982726525" lon="9.915682313944593"><ele>324.5</ele><time>2026-05-02T14:53:23Z</time></trkpt><trkpt lat="44.209147544600484" lon="9.915794920982465"><ele>325.0</ele><time>2026-05-02T14:53:24Z</time></trkpt><trkpt lat="44.20910819716615" lon="9.915938341560276"><ele>325.0</ele><time>2026-05-02T14:53:25Z</time></trkpt><trkpt lat="44.209086022300305" lon="9.916058444059251"><ele>325.0</ele><time>2026-05-02T14:53:26Z</time></trkpt><trkpt lat="44.209078415710025" lon="9.91616815622374"><ele>325.0</ele><time>2026-05-02T14:53:27Z</time></trkpt><trkpt lat="44.20903465228777" lon="9.916325174863927"><ele>325.0</ele><time>2026-05-02T14:53:29Z</time></trkpt><trkpt lat="44.20898803960835" lon="9.916393031199892"><ele>325.0</ele><time>2026-05-02T14:53:30Z</time></trkpt><trkpt lat="44.20892227904944" lon="9.916452307953158"><ele>325.0</ele><time>2026-05-02T14:53:31Z</time></trkpt><trkpt lat="44.20885473452055" lon="9.916496433866353"><ele>328.16666666666663</ele><time>2026-05-02T14:53:32Z</time></trkpt><trkpt lat="44.20878259385368" lon="9.916595303323442"><ele>331.3333333333333</ele><time>2026-05-02T14:53:34Z</time></trkpt><trkpt lat="44.20875260732168" lon="9.916752659761032"><ele>334.5</ele><time>2026-05-02T14:53:36Z</time></trkpt><trkpt lat="44.2086859335335" lon="9.916824944988486"><ele>337.6666666666667</ele><time>2026-05-02T14:53:38Z</time></trkpt><trkpt lat="44.20862379651177" lon="9.91679243188938"><ele>340.83333333333337</ele><time>2026-05-02T14:53:40Z</time></trkpt><trkpt lat="44.2086132920895" lon="9.916680898960742"><ele>344.0</ele><time>2026-05-02T14:53:43Z</time></trkpt><trkpt lat="44.20865356998329" lon="9.916495989951233"><ele>344.0</ele><time>2026-05-02T14:53:45Z</time></trkpt><trkpt lat="44.208680000338816" lon="9.916355859363039"><ele>344.0</ele><time>2026-05-02T14:53:46Z</time></trkpt><trkpt lat="44.20869444781156" lon="9.916252637939172"><ele>344.0</ele><time>2026-05-02T14:53:47Z</time></trkpt><trkpt lat="44.20872378956654" lon="9.9161514947046"><ele>344.0</ele><time>2026-05-02T14:53:48Z</time></trkpt><trkpt lat="44.20876075425325" lon="9.916072134590783"><ele>344.0</ele><time>2026-05-02T14:53:49Z</time></trkpt><trkpt lat="44.208805514988605" lon="9.915917738654509"><ele>344.0</ele><time>2026-05-02T14:53:51Z</time></trkpt><trkpt lat="44.208791226736146" lon="9.915788421010937"><ele>344.0</ele><time>2026-05-02T14:53:53Z</time></trkpt><trkpt lat="44.20872497544957" lon="9.915675950491192"><ele>344.0</ele><time>2026-05-02T14:53:55Z</time></trkpt><trkpt lat="44.20863252875323" lon="9.915645667526807"><ele>344.0</ele><time>2026-05-02T14:53:57Z</time></trkpt><trkpt lat="44.20852490497949" lon="9.915699274402309"><ele>344.0</ele><time>2026-05-02T14:53:59Z</time></trkpt><trkpt lat="44.208463357268194" lon="9.915825217010118"><ele>344.0</ele><time>2026-05-02T14:54:01Z</time></trkpt><trkpt lat="44.20844928891738" lon="9.915989271847758"><ele>344.0</ele><time>2026-05-02T14:54:03Z</time></trkpt><trkpt lat="44.20842653433431" lon="9.916107304785308"><ele>344.0</ele><time>2026-05-02T14:54:04Z</time></trkpt><trkpt lat="44.208403096501016" lon="9.916229406181378"><ele>344.0</ele><time>2026-05-02T14:54:05Z</time></trkpt><trkpt lat="44.208382849059774" lon="9.91633148526655"><ele>344.0</ele><time>2026-05-02T14:54:06Z</time></trkpt><trkpt lat="44.208360141861064" lon="9.916436722187147"><ele>344.0</ele><time>2026-05-02T14:54:07Z</time></trkpt><trkpt lat="44.20833050884758" lon="9.916535399146595"><ele>344.0</ele><time>2026-05-02T14:54:08Z</time></trkpt><trkpt lat="44.20828404899492" lon="9.916633885195681"><ele>344.0</ele><time>2026-05-02T14:54:09Z</time></trkpt><trkpt lat="44.208227513110664" lon="9.916718559064671"><ele>344.0</ele><time>2026-05-02T14:54:10Z</time></trkpt><trkpt lat="44.20817842149564" lon="9.916781867167783"><ele>344.0</ele><time>2026-05-02T14:54:11Z</time></trkpt><trkpt lat="44.208125865271846" lon="9.916910323293724"><ele>344.0</ele><time>2026-05-02T14:54:13Z</time></trkpt><trkpt lat="44.20812292950859" lon="9.917001409211165"><ele>344.0</ele><time>2026-05-02T14:54:14Z</time></trkpt><trkpt lat="44.20813153709962" lon="9.91709617142794"><ele>344.0</ele><time>2026-05-02T14:54:15Z</time></trkpt><trkpt lat="44.20812922316856" lon="9.91720433356353"><ele>345.6</ele><time>2026-05-02T14:54:16Z</time></trkpt><trkpt lat="44.208118137619735" lon="9.917320147427665"><ele>347.2</ele><time>2026-05-02T14:54:17Z</time></trkpt><trkpt lat="44.20811910853369" lon="9.9174430028199"><ele>348.8</ele><time>2026-05-02T14:54:18Z</time></trkpt><trkpt lat="44.208119661000595" lon="9.917553663628128"><ele>350.40000000000003</ele><time>2026-05-02T14:54:19Z</time></trkpt><trkpt lat="44.20809169774744" lon="9.917725702514211"><ele>352.0</ele><time>2026-05-02T14:54:21Z</time></trkpt><trkpt lat="44.208096196407396" lon="9.917870521163012"><ele>352.0</ele><time>2026-05-02T14:54:23Z</time></trkpt><trkpt lat="44.20791400093686" lon="9.918154781592417"><ele>352.0</ele><time>2026-05-02T14:54:25Z</time></trkpt><trkpt lat="44.2079589797676" lon="9.918281506073162"><ele>352.0</ele><time>2026-05-02T14:54:26Z</time></trkpt><trkpt lat="44.20801362065457" lon="9.918412746619815"><ele>352.0</ele><time>2026-05-02T14:54:28Z</time></trkpt><trkpt lat="44.208132084547096" lon="9.918402013962154"><ele>352.0</ele><time>2026-05-02T14:54:31Z</time></trkpt><trkpt lat="44.20804205366618" lon="9.918372596586785"><ele>352.0</ele><time>2026-05-02T14:56:04Z</time></trkpt><trkpt lat="44.20800484937946" lon="9.918301121849106"><ele>352.0</ele><time>2026-05-02T14:56:05Z</time></trkpt><trkpt lat="44.20797408972315" lon="9.91817939678506"><ele>352.0</ele><time>2026-05-02T14:56:05.999Z</time></trkpt><trkpt lat="44.20794264584193" lon="9.918075593946334"><ele>352.0</ele><time>2026-05-02T14:56:06.999Z</time></trkpt><trkpt lat="44.20791795448953" lon="9.917955141809252"><ele>352.0</ele><time>2026-05-02T14:56:07.999Z</time></trkpt><trkpt lat="44.207887448383715" lon="9.91783349652493"><ele>352.0</ele><time>2026-05-02T14:56:08.999Z</time></trkpt><trkpt lat="44.20785565788764" lon="9.91769999937412"><ele>352.0</ele><time>2026-05-02T14:56:09.999Z</time></trkpt><trkpt lat="44.2078294963774" lon="9.917572825727834"><ele>352.0</ele><time>2026-05-02T14:56:10.999Z</time></trkpt><trkpt lat="44.20779882033635" lon="9.917447843595859"><ele>352.0</ele><time>2026-05-02T14:56:11.999Z</time></trkpt><trkpt lat="44.20776683104406" lon="9.917320418416189"><ele>352.0</ele><time>2026-05-02T14:56:12.999Z</time></trkpt><trkpt lat="44.20772946346581" lon="9.91717817398697"><ele>352.0</ele><time>2026-05-02T14:56:13.999Z</time></trkpt><trkpt lat="44.20769828376966" lon="9.91703321475756"><ele>352.0</ele><time>2026-05-02T14:56:14.999Z</time></trkpt><trkpt lat="44.20766868705344" lon="9.916894851615755"><ele>352.0</ele><time>2026-05-02T14:56:15.999Z</time></trkpt><trkpt lat="44.207638029603466" lon="9.916760563428932"><ele>352.0</ele><time>2026-05-02T14:56:16.999Z</time></trkpt><trkpt lat="44.2076023163411" lon="9.916624857395862"><ele>352.20000000000005</ele><time>2026-05-02T14:56:17.999Z</time></trkpt><trkpt lat="44.207563992042175" lon="9.916485087842059"><ele>352.4</ele><time>2026-05-02T14:56:18.999Z</time></trkpt><trkpt lat="44.20752087252626" lon="9.916341302669858"><ele>352.6</ele><time>2026-05-02T14:56:19.999Z</time></trkpt><trkpt lat="44.207483616561746" lon="9.916202611130242"><ele>352.79999999999995</ele><time>2026-05-02T14:56:20.999Z</time></trkpt><trkpt lat="44.207447524665284" lon="9.916071906946307"><ele>353.0</ele><time>2026-05-02T14:56:21.999Z</time></trkpt><trkpt lat="44.2074048217047" lon="9.91592293004799"><ele>353.2</ele><time>2026-05-02T14:56:22.999Z</time></trkpt><trkpt lat="44.2073626086564" lon="9.915781362428344"><ele>353.4</ele><time>2026-05-02T14:56:23.999Z</time></trkpt><trkpt lat="44.207329149763474" lon="9.915644624201537"><ele>353.59999999999997</ele><time>2026-05-02T14:56:24.999Z</time></trkpt><trkpt lat="44.20730003715373" lon="9.915508837916832"><ele>353.79999999999995</ele><time>2026-05-02T14:56:25.999Z</time></trkpt><trkpt lat="44.20728355735546" lon="9.91536064374849"><ele>354.0</ele><time>2026-05-02T14:56:26.999Z</time></trkpt><trkpt lat="44.207281895357845" lon="9.91521930361255"><ele>350.79999999999995</ele><time>2026-05-02T14:56:27.999Z</time></trkpt><trkpt lat="44.207288941695595" lon="9.915068746925508"><ele>347.59999999999997</ele><time>2026-05-02T14:56:28.999Z</time></trkpt><trkpt lat="44.20729760523671" lon="9.914916420285513"><ele>344.4</ele><time>2026-05-02T14:56:29.999Z</time></trkpt><trkpt lat="44.20730245869543" lon="9.914765067572405"><ele>341.2</ele><time>2026-05-02T14:56:30.999Z</time></trkpt><trkpt lat="44.20729256005734" lon="9.914611230144368"><ele>338.0</ele><time>2026-05-02T14:56:31.999Z</time></trkpt><trkpt lat="44.207261720194424" lon="9.914456594307183"><ele>338.0</ele><time>2026-05-02T14:56:32.999Z</time></trkpt><trkpt lat="44.207211702858544" lon="9.914304507222184"><ele>338.0</ele><time>2026-05-02T14:56:33.999Z</time></trkpt><trkpt lat="44.20714941972579" lon="9.914158325569538"><ele>338.0</ele><time>2026-05-02T14:56:34.999Z</time></trkpt><trkpt lat="44.20707180996274" lon="9.914032313081707"><ele>338.0</ele><time>2026-05-02T14:56:35.999Z</time></trkpt><trkpt lat="44.20696990275617" lon="9.91390877177196"><ele>340.0</ele><time>2026-05-02T14:56:36.999Z</time></trkpt><trkpt lat="44.206861121687545" lon="9.913813611797572"><ele>342.0</ele><time>2026-05-02T14:56:37.999Z</time></trkpt><trkpt lat="44.206773336426636" lon="9.91372412262415"><ele>344.0</ele><time>2026-05-02T14:56:38.999Z</time></trkpt><trkpt lat="44.20669632908506" lon="9.913637860231443"><ele>346.0</ele><time>2026-05-02T14:56:39.999Z</time></trkpt><trkpt lat="44.20662922783715" lon="9.913542064457769"><ele>348.0</ele><time>2026-05-02T14:56:40.999Z</time></trkpt><trkpt lat="44.2065714353252" lon="9.91343835514889"><ele>347.25</ele><time>2026-05-02T14:56:41.999Z</time></trkpt><trkpt lat="44.20653369528418" lon="9.91329430726515"><ele>346.5</ele><time>2026-05-02T14:56:42.999Z</time></trkpt><trkpt lat="44.20651480128836" lon="9.913117370363006"><ele>345.75</ele><time>2026-05-02T14:56:43.999Z</time></trkpt><trkpt lat="44.206495740971505" lon="9.912945458410068"><ele>345.0</ele><time>2026-05-02T14:56:44.999Z</time></trkpt><trkpt lat="44.2064573887977" lon="9.912782960276557"><ele>345.0</ele><time>2026-05-02T14:56:45.999Z</time></trkpt><trkpt lat="44.20640011504048" lon="9.912635553887034"><ele>345.0</ele><time>2026-05-02T14:56:46.999Z</time></trkpt><trkpt lat="44.206327269777944" lon="9.912498503640004"><ele>345.0</ele><time>2026-05-02T14:56:47.999Z</time></trkpt><trkpt lat="44.206241638923295" lon="9.912370136715115"><ele>345.0</ele><time>2026-05-02T14:56:48.999Z</time></trkpt><trkpt lat="44.20617083121477" lon="9.912272901702842"><ele>346.0</ele><time>2026-05-02T14:56:49.999Z</time></trkpt><trkpt lat="44.20610802424571" lon="9.91215514511632"><ele>347.0</ele><time>2026-05-02T14:56:50.999Z</time></trkpt><trkpt lat="44.20606669869066" lon="9.912019443846464"><ele>348.0</ele><time>2026-05-02T14:56:51.999Z</time></trkpt><trkpt lat="44.20605242178676" lon="9.91189108887175"><ele>349.0</ele><time>2026-05-02T14:56:52.999Z</time></trkpt><trkpt lat="44.20604269966695" lon="9.911763540285488"><ele>350.0</ele><time>2026-05-02T14:56:53.999Z</time></trkpt><trkpt lat="44.206034159771825" lon="9.911625531484434"><ele>351.0</ele><time>2026-05-02T14:56:54.999Z</time></trkpt><trkpt lat="44.206023769889235" lon="9.911464875064425"><ele>352.0</ele><time>2026-05-02T14:56:55.999Z</time></trkpt><trkpt lat="44.205986851351994" lon="9.911322585298171"><ele>353.0</ele><time>2026-05-02T14:56:56.999Z</time></trkpt><trkpt lat="44.20595729817521" lon="9.911175325240729"><ele>354.0</ele><time>2026-05-02T14:56:57.999Z</time></trkpt><trkpt lat="44.20591524546125" lon="9.911031281350702"><ele>355.0</ele><time>2026-05-02T14:56:58.999Z</time></trkpt><trkpt lat="44.205858550734376" lon="9.910887742301943"><ele>355.0</ele><time>2026-05-02T14:57:00Z</time></trkpt><trkpt lat="44.205786962316225" lon="9.91074380450895"><ele>355.0</ele><time>2026-05-02T14:57:01Z</time></trkpt><trkpt lat="44.205713951465526" lon="9.91059665826858"><ele>355.0</ele><time>2026-05-02T14:57:02Z</time></trkpt><trkpt lat="44.205647694670446" lon="9.910447589059642"><ele>355.0</ele><time>2026-05-02T14:57:03Z</time></trkpt><trkpt lat="44.205600354068416" lon="9.910276951966328"><ele>353.8</ele><time>2026-05-02T14:57:04Z</time></trkpt><trkpt lat="44.20556127752063" lon="9.910111375271555"><ele>352.6</ele><time>2026-05-02T14:57:05Z</time></trkpt><trkpt lat="44.20552760938425" lon="9.909962192205928"><ele>351.4</ele><time>2026-05-02T14:57:06Z</time></trkpt><trkpt lat="44.205498461051704" lon="9.909838979050988"><ele>350.2</ele><time>2026-05-02T14:57:07Z</time></trkpt><trkpt lat="44.20546896178805" lon="9.909724309011928"><ele>349.0</ele><time>2026-05-02T14:57:08Z</time></trkpt><trkpt lat="44.2054260564064" lon="9.90964025896263"><ele>348.8333333333333</ele><time>2026-05-02T14:57:09Z</time></trkpt><trkpt lat="44.20536513796476" lon="9.909572684623488"><ele>348.66666666666663</ele><time>2026-05-02T14:57:10Z</time></trkpt><trkpt lat="44.20528363961183" lon="9.90950236886166"><ele>348.5</ele><time>2026-05-02T14:57:11Z</time></trkpt><trkpt lat="44.20520288824232" lon="9.909436641522609"><ele>348.3333333333333</ele><time>2026-05-02T14:57:12Z</time></trkpt><trkpt lat="44.20517207345367" lon="9.909356407561594"><ele>348.1666666666667</ele><time>2026-05-02T14:57:13Z</time></trkpt><trkpt lat="44.20515243041717" lon="9.90925834513958"><ele>348.0</ele><time>2026-05-02T14:57:14Z</time></trkpt><trkpt lat="44.205173866085566" lon="9.909153406265768"><ele>350.79999999999995</ele><time>2026-05-02T14:57:15Z</time></trkpt><trkpt lat="44.205210888710475" lon="9.909042078841294"><ele>353.6</ele><time>2026-05-02T14:57:16Z</time></trkpt><trkpt lat="44.20522718382659" lon="9.908942198117357"><ele>356.4</ele><time>2026-05-02T14:57:17Z</time></trkpt><trkpt lat="44.20518238387527" lon="9.908795511934066"><ele>359.20000000000005</ele><time>2026-05-02T14:57:19Z</time></trkpt><trkpt lat="44.205110128868505" lon="9.908708630194726"><ele>362.0</ele><time>2026-05-02T14:57:20Z</time></trkpt><trkpt lat="44.20502959878301" lon="9.908617393130976"><ele>362.0</ele><time>2026-05-02T14:57:21Z</time></trkpt><trkpt lat="44.20500535183279" lon="9.908535570652381"><ele>362.0</ele><time>2026-05-02T14:57:22Z</time></trkpt><trkpt lat="44.2050173553438" lon="9.908434122433547"><ele>362.0</ele><time>2026-05-02T14:57:23Z</time></trkpt><trkpt lat="44.2050598476311" lon="9.908308822441343"><ele>362.0</ele><time>2026-05-02T14:57:24Z</time></trkpt><trkpt lat="44.205097071273734" lon="9.908154092925797"><ele>362.0</ele><time>2026-05-02T14:57:25Z</time></trkpt><trkpt lat="44.20510531714117" lon="9.90796660018389"><ele>365.5</ele><time>2026-05-02T14:57:26Z</time></trkpt><trkpt lat="44.205099651723096" lon="9.907772038084778"><ele>369.0</ele><time>2026-05-02T14:57:27Z</time></trkpt><trkpt lat="44.205078919572685" lon="9.907607666922813"><ele>372.5</ele><time>2026-05-02T14:57:28Z</time></trkpt><trkpt lat="44.2050563058898" lon="9.90744627195818"><ele>376.0</ele><time>2026-05-02T14:57:29Z</time></trkpt><trkpt lat="44.20503468857311" lon="9.907279937557025"><ele>379.4</ele><time>2026-05-02T14:57:30Z</time></trkpt><trkpt lat="44.2050109485323" lon="9.90712772670465"><ele>382.8</ele><time>2026-05-02T14:57:31Z</time></trkpt><trkpt lat="44.20499095734093" lon="9.906985961734867"><ele>386.2</ele><time>2026-05-02T14:57:32Z</time></trkpt><trkpt lat="44.20497581340856" lon="9.906838836527111"><ele>389.59999999999997</ele><time>2026-05-02T14:57:33Z</time></trkpt><trkpt lat="44.20499253738189" lon="9.906679505521092"><ele>393.0</ele><time>2026-05-02T14:57:34Z</time></trkpt><trkpt lat="44.2050099050657" lon="9.906524532600548"><ele>396.0</ele><time>2026-05-02T14:57:35Z</time></trkpt><trkpt lat="44.20500966405041" lon="9.906401173228002"><ele>399.0</ele><time>2026-05-02T14:57:36Z</time></trkpt><trkpt lat="44.204988848905" lon="9.906299863317003"><ele>402.0</ele><time>2026-05-02T14:57:37Z</time></trkpt><trkpt lat="44.20496586832108" lon="9.90617252985681"><ele>405.0</ele><time>2026-05-02T14:57:38Z</time></trkpt><trkpt lat="44.204909697915475" lon="9.906039217615708"><ele>408.0</ele><time>2026-05-02T14:57:39Z</time></trkpt><trkpt lat="44.2048448742785" lon="9.905923784849788"><ele>410.0</ele><time>2026-05-02T14:57:39.999Z</time></trkpt><trkpt lat="44.20476985127448" lon="9.905807742786667"><ele>412.0</ele><time>2026-05-02T14:57:40.999Z</time></trkpt><trkpt lat="44.20467034603524" lon="9.905703678198421"><ele>414.0</ele><time>2026-05-02T14:57:41.999Z</time></trkpt><trkpt lat="44.20458145892028" lon="9.905624617418496"><ele>416.0</ele><time>2026-05-02T14:57:42.999Z</time></trkpt><trkpt lat="44.20449019417438" lon="9.905545793283485"><ele>418.0</ele><time>2026-05-02T14:57:43.999Z</time></trkpt><trkpt lat="44.20440230655103" lon="9.905476910094883"><ele>418.0</ele><time>2026-05-02T14:57:44.999Z</time></trkpt><trkpt lat="44.20430094444065" lon="9.905435988442104"><ele>418.0</ele><time>2026-05-02T14:57:45.999Z</time></trkpt><trkpt lat="44.20418301613685" lon="9.905430966285993"><ele>418.0</ele><time>2026-05-02T14:57:46.999Z</time></trkpt><trkpt lat="44.204067880058645" lon="9.90539677144245"><ele>418.0</ele><time>2026-05-02T14:57:47.999Z</time></trkpt><trkpt lat="44.20394394431578" lon="9.90539813296184"><ele>417.79999999999995</ele><time>2026-05-02T14:57:48.999Z</time></trkpt><trkpt lat="44.203821404209165" lon="9.905417015885837"><ele>417.6</ele><time>2026-05-02T14:57:49.999Z</time></trkpt><trkpt lat="44.20370528911979" lon="9.905464679334562"><ele>417.4</ele><time>2026-05-02T14:57:50.999Z</time></trkpt><trkpt lat="44.20360961059633" lon="9.90550783896159"><ele>417.20000000000005</ele><time>2026-05-02T14:57:51.999Z</time></trkpt><trkpt lat="44.20352550929482" lon="9.905552088704017"><ele>417.0</ele><time>2026-05-02T14:57:52.999Z</time></trkpt><trkpt lat="44.20344537431765" lon="9.905580843833091"><ele>417.0</ele><time>2026-05-02T14:57:53.999Z</time></trkpt><trkpt lat="44.20338316727914" lon="9.905560784185612"><ele>417.0</ele><time>2026-05-02T14:57:54.999Z</time></trkpt><trkpt lat="44.20332729326256" lon="9.905435846203412"><ele>417.0</ele><time>2026-05-02T14:57:56.999Z</time></trkpt><trkpt lat="44.203343514549594" lon="9.90531824824735"><ele>417.0</ele><time>2026-05-02T14:57:57.999Z</time></trkpt><trkpt lat="44.203348843608666" lon="9.90514938087423"><ele>417.0</ele><time>2026-05-02T14:57:58.999Z</time></trkpt><trkpt lat="44.203386313957246" lon="9.90497621237207"><ele>419.0</ele><time>2026-05-02T14:57:59.999Z</time></trkpt><trkpt lat="44.20343242193195" lon="9.90483327483785"><ele>421.0</ele><time>2026-05-02T14:58:00.999Z</time></trkpt><trkpt lat="44.20347599592401" lon="9.904715440968653"><ele>423.00000000000006</ele><time>2026-05-02T14:58:01.999Z</time></trkpt><trkpt lat="44.203491555149974" lon="9.904612627232083"><ele>425.0</ele><time>2026-05-02T14:58:02.999Z</time></trkpt><trkpt lat="44.20347978074217" lon="9.904485437204297"><ele>427.0</ele><time>2026-05-02T14:58:03.999Z</time></trkpt><trkpt lat="44.20345534341727" lon="9.904355455099807"><ele>430.6</ele><time>2026-05-02T14:58:04.999Z</time></trkpt><trkpt lat="44.2034147469352" lon="9.904221498038337"><ele>434.20000000000005</ele><time>2026-05-02T14:58:05.999Z</time></trkpt><trkpt lat="44.20338201440111" lon="9.904086156548908"><ele>437.8</ele><time>2026-05-02T14:58:06.999Z</time></trkpt><trkpt lat="44.203369983915096" lon="9.903936407201533"><ele>441.4</ele><time>2026-05-02T14:58:07.999Z</time></trkpt><trkpt lat="44.20336043851821" lon="9.90381024346228"><ele>445.0</ele><time>2026-05-02T14:58:08.999Z</time></trkpt><trkpt lat="44.203345866610256" lon="9.903705938821398"><ele>445.0</ele><time>2026-05-02T14:58:09.999Z</time></trkpt><trkpt lat="44.2032615583886" lon="9.903642708482865"><ele>445.0</ele><time>2026-05-02T14:58:10.999Z</time></trkpt><trkpt lat="44.20318054495348" lon="9.903563577532651"><ele>445.0</ele><time>2026-05-02T14:58:11.999Z</time></trkpt><trkpt lat="44.20313379893776" lon="9.903453695124153"><ele>445.0</ele><time>2026-05-02T14:58:12.999Z</time></trkpt><trkpt lat="44.20310750362225" lon="9.903338975970447"><ele>445.0</ele><time>2026-05-02T14:58:13.999Z</time></trkpt><trkpt lat="44.20309371220685" lon="9.903211481257092"><ele>449.6</ele><time>2026-05-02T14:58:14.999Z</time></trkpt><trkpt lat="44.20306257203024" lon="9.903114126370586"><ele>454.2</ele><time>2026-05-02T14:58:15.999Z</time></trkpt><trkpt lat="44.20302018456233" lon="9.902969296017723"><ele>458.79999999999995</ele><time>2026-05-02T14:58:17.999Z</time></trkpt><trkpt lat="44.20294156357552" lon="9.902925181403928"><ele>463.4</ele><time>2026-05-02T14:58:18.999Z</time></trkpt><trkpt lat="44.202849394976376" lon="9.902953618383522"><ele>468.0</ele><time>2026-05-02T14:58:19.999Z</time></trkpt><trkpt lat="44.202771555432996" lon="9.903016061623948"><ele>468.0</ele><time>2026-05-02T14:58:20.999Z</time></trkpt><trkpt lat="44.20272346861065" lon="9.90311491080558"><ele>468.0</ele><time>2026-05-02T14:58:21.999Z</time></trkpt><trkpt lat="44.20266404499221" lon="9.903239181527013"><ele>468.0</ele><time>2026-05-02T14:58:22.999Z</time></trkpt><trkpt lat="44.20259666130793" lon="9.903396759259696"><ele>468.0</ele><time>2026-05-02T14:58:23.999Z</time></trkpt><trkpt lat="44.20251525853047" lon="9.90353901609263"><ele>463.5</ele><time>2026-05-02T14:58:24.999Z</time></trkpt><trkpt lat="44.20245709980739" lon="9.903666766795766"><ele>459.0</ele><time>2026-05-02T14:58:25.999Z</time></trkpt><trkpt lat="44.20240227628" lon="9.90378256545577"><ele>454.5</ele><time>2026-05-02T14:58:26.999Z</time></trkpt><trkpt lat="44.20235095879576" lon="9.903880957304745"><ele>450.0</ele><time>2026-05-02T14:58:27.999Z</time></trkpt><trkpt lat="44.20230158266172" lon="9.903949384901725"><ele>445.5</ele><time>2026-05-02T14:58:28.999Z</time></trkpt><trkpt lat="44.202220424297074" lon="9.90393646815222"><ele>441.0</ele><time>2026-05-02T14:58:30.999Z</time></trkpt><trkpt lat="44.20219317755361" lon="9.903819349032595"><ele>444.0</ele><time>2026-05-02T14:58:31.999Z</time></trkpt><trkpt lat="44.20210980375182" lon="9.903718215013708"><ele>447.0</ele><time>2026-05-02T14:58:32.999Z</time></trkpt><trkpt lat="44.20202796847489" lon="9.90358622189078"><ele>450.0</ele><time>2026-05-02T14:58:33.999Z</time></trkpt><trkpt lat="44.20196978961997" lon="9.903444625574021"><ele>453.0</ele><time>2026-05-02T14:58:34.999Z</time></trkpt><trkpt lat="44.20192341544348" lon="9.903307354617171"><ele>453.0</ele><time>2026-05-02T14:58:35.999Z</time></trkpt><trkpt lat="44.201877644437985" lon="9.903175351049464"><ele>452.99999999999994</ele><time>2026-05-02T14:58:36.999Z</time></trkpt><trkpt lat="44.20183201424615" lon="9.903062288908673"><ele>452.99999999999994</ele><time>2026-05-02T14:58:37.999Z</time></trkpt><trkpt lat="44.201767275113355" lon="9.902969150806447"><ele>453.0</ele><time>2026-05-02T14:58:38.999Z</time></trkpt><trkpt lat="44.20164365556543" lon="9.902947318403676"><ele>453.0</ele><time>2026-05-02T14:58:39.999Z</time></trkpt><trkpt lat="44.20153012987068" lon="9.902934743050926"><ele>444.25</ele><time>2026-05-02T14:58:40.999Z</time></trkpt><trkpt lat="44.2014185367026" lon="9.902891870732892"><ele>435.5</ele><time>2026-05-02T14:58:41.999Z</time></trkpt><trkpt lat="44.20133106171364" lon="9.902813562330826"><ele>426.75</ele><time>2026-05-02T14:58:42.999Z</time></trkpt><trkpt lat="44.20123098523326" lon="9.902704619913152"><ele>418.0</ele><time>2026-05-02T14:58:43.999Z</time></trkpt><trkpt lat="44.201137084992325" lon="9.902586964646735"><ele>423.59999999999997</ele><time>2026-05-02T14:58:44.999Z</time></trkpt><trkpt lat="44.201071705725504" lon="9.902488353094927"><ele>429.2</ele><time>2026-05-02T14:58:45.999Z</time></trkpt><trkpt lat="44.20102544644187" lon="9.902402834678073"><ele>434.8</ele><time>2026-05-02T14:58:46.999Z</time></trkpt><trkpt lat="44.20099522041632" lon="9.902313533462692"><ele>440.4</ele><time>2026-05-02T14:58:47.999Z</time></trkpt><trkpt lat="44.20101358735196" lon="9.902179887659015"><ele>446.0</ele><time>2026-05-02T14:58:48.999Z</time></trkpt><trkpt lat="44.201038411303" lon="9.90203315237295"><ele>446.0</ele><time>2026-05-02T14:58:49.999Z</time></trkpt><trkpt lat="44.201037524019455" lon="9.90191201235737"><ele>446.0</ele><time>2026-05-02T14:58:50.999Z</time></trkpt><trkpt lat="44.20103511357494" lon="9.901788591902843"><ele>446.0</ele><time>2026-05-02T14:58:51.999Z</time></trkpt><trkpt lat="44.20093614642431" lon="9.901681526693599"><ele>446.0</ele><time>2026-05-02T14:58:52.999Z</time></trkpt><trkpt lat="44.200860267994436" lon="9.901565388192724"><ele>446.0</ele><time>2026-05-02T14:58:53.999Z</time></trkpt><trkpt lat="44.2007864942048" lon="9.901427281677266"><ele>445.0</ele><time>2026-05-02T14:58:54.999Z</time></trkpt><trkpt lat="44.20073600811991" lon="9.901249571704737"><ele>444.0</ele><time>2026-05-02T14:58:55.999Z</time></trkpt><trkpt lat="44.200671088934946" lon="9.901117800258303"><ele>443.0</ele><time>2026-05-02T14:58:56.999Z</time></trkpt><trkpt lat="44.20062553634667" lon="9.901011317550825"><ele>442.0</ele><time>2026-05-02T14:58:57.999Z</time></trkpt><trkpt lat="44.2005927331857" lon="9.900884836205279"><ele>441.0</ele><time>2026-05-02T14:58:58.999Z</time></trkpt><trkpt lat="44.20059331127357" lon="9.900754193204214"><ele>445.20000000000005</ele><time>2026-05-02T14:58:59.999Z</time></trkpt><trkpt lat="44.20061487815025" lon="9.900607656622308"><ele>449.40000000000003</ele><time>2026-05-02T14:59:00.999Z</time></trkpt><trkpt lat="44.20062449518277" lon="9.900467307450505"><ele>453.6</ele><time>2026-05-02T14:59:01.999Z</time></trkpt><trkpt lat="44.20062082459481" lon="9.900353449459686"><ele>457.8</ele><time>2026-05-02T14:59:02.999Z</time></trkpt><trkpt lat="44.200576659313604" lon="9.900239636474966"><ele>462.0</ele><time>2026-05-02T14:59:03.999Z</time></trkpt><trkpt lat="44.200506807203126" lon="9.900151867483515"><ele>462.0</ele><time>2026-05-02T14:59:04.999Z</time></trkpt><trkpt lat="44.20041052293962" lon="9.90011795247353"><ele>462.0</ele><time>2026-05-02T14:59:05.999Z</time></trkpt><trkpt lat="44.20028862066674" lon="9.90022815736062"><ele>462.0</ele><time>2026-05-02T14:59:06.999Z</time></trkpt><trkpt lat="44.20018273288572" lon="9.900274669051312"><ele>462.0</ele><time>2026-05-02T14:59:07.999Z</time></trkpt><trkpt lat="44.20007854293043" lon="9.90030388474749"><ele>462.0</ele><time>2026-05-02T14:59:08.999Z</time></trkpt><trkpt lat="44.19999900456445" lon="9.900255137250042"><ele>462.0</ele><time>2026-05-02T14:59:09.999Z</time></trkpt><trkpt lat="44.19994397556503" lon="9.900171988656746"><ele>462.0</ele><time>2026-05-02T14:59:10.999Z</time></trkpt><trkpt lat="44.1999019357443" lon="9.900094215748235"><ele>462.0</ele><time>2026-05-02T14:59:11.999Z</time></trkpt><trkpt lat="44.19986929475056" lon="9.900008706608618"><ele>462.0</ele><time>2026-05-02T14:59:12.999Z</time></trkpt><trkpt lat="44.199903063651675" lon="9.899899702924008"><ele>462.0</ele><time>2026-05-02T14:59:13.999Z</time></trkpt><trkpt lat="44.19994585383173" lon="9.899788954993923"><ele>466.20000000000005</ele><time>2026-05-02T14:59:14.999Z</time></trkpt><trkpt lat="44.199950661236095" lon="9.899662594402393"><ele>470.40000000000003</ele><time>2026-05-02T14:59:15.999Z</time></trkpt><trkpt lat="44.19993507660034" lon="9.899546395869889"><ele>474.59999999999997</ele><time>2026-05-02T14:59:16.999Z</time></trkpt><trkpt lat="44.19988198473603" lon="9.899439493950164"><ele>478.79999999999995</ele><time>2026-05-02T14:59:18Z</time></trkpt><trkpt lat="44.19978833726484" lon="9.899350629801077"><ele>483.0</ele><time>2026-05-02T14:59:19Z</time></trkpt><trkpt lat="44.199644044322135" lon="9.899349709523065"><ele>483.0</ele><time>2026-05-02T14:59:20Z</time></trkpt><trkpt lat="44.1994980436977" lon="9.899349537661909"><ele>483.0</ele><time>2026-05-02T14:59:21Z</time></trkpt><trkpt lat="44.199334218069346" lon="9.899364826519594"><ele>483.0</ele><time>2026-05-02T14:59:22Z</time></trkpt><trkpt lat="44.1991699564467" lon="9.899389764071653"><ele>483.0</ele><time>2026-05-02T14:59:23Z</time></trkpt><trkpt lat="44.19904010403936" lon="9.899398857152178"><ele>483.0</ele><time>2026-05-02T14:59:24Z</time></trkpt><trkpt lat="44.1989692367461" lon="9.899377287479194"><ele>483.0</ele><time>2026-05-02T14:59:25Z</time></trkpt><trkpt lat="44.19889336621057" lon="9.899220939406629"><ele>483.0</ele><time>2026-05-02T14:59:27Z</time></trkpt><trkpt lat="44.19885487297469" lon="9.899064501533672"><ele>490.33333333333337</ele><time>2026-05-02T14:59:28Z</time></trkpt><trkpt lat="44.19879110415164" lon="9.898888190098452"><ele>497.6666666666667</ele><time>2026-05-02T14:59:29Z</time></trkpt><trkpt lat="44.198702586699" lon="9.8986857526891"><ele>505.0</ele><time>2026-05-02T14:59:30Z</time></trkpt><trkpt lat="44.19861479115907" lon="9.898464538979521"><ele>507.0</ele><time>2026-05-02T14:59:30.999Z</time></trkpt><trkpt lat="44.19853465279187" lon="9.898266764742793"><ele>509.0</ele><time>2026-05-02T14:59:31.999Z</time></trkpt><trkpt lat="44.198458815910335" lon="9.898085965164947"><ele>511.0</ele><time>2026-05-02T14:59:32.999Z</time></trkpt><trkpt lat="44.1983846987081" lon="9.89792912885298"><ele>513.0</ele><time>2026-05-02T14:59:33.999Z</time></trkpt><trkpt lat="44.19832063840515" lon="9.897792433043238"><ele>513.0</ele><time>2026-05-02T14:59:34.999Z</time></trkpt><trkpt lat="44.198265275174165" lon="9.897664553519492"><ele>513.0</ele><time>2026-05-02T14:59:35.999Z</time></trkpt><trkpt lat="44.1982194526492" lon="9.897559527442871"><ele>513.0</ele><time>2026-05-02T14:59:36.999Z</time></trkpt><trkpt lat="44.1981710328429" lon="9.8974517410071"><ele>513.0</ele><time>2026-05-02T14:59:37.999Z</time></trkpt><trkpt lat="44.19811839075065" lon="9.897335891593162"><ele>513.0</ele><time>2026-05-02T14:59:38.999Z</time></trkpt><trkpt lat="44.19805064847474" lon="9.89722749140674"><ele>513.6</ele><time>2026-05-02T14:59:39.999Z</time></trkpt><trkpt lat="44.1979702307105" lon="9.89713673280928"><ele>514.1999999999999</ele><time>2026-05-02T14:59:40.999Z</time></trkpt><trkpt lat="44.197880331147864" lon="9.897052009227002"><ele>514.8</ele><time>2026-05-02T14:59:41.999Z</time></trkpt><trkpt lat="44.19778111322064" lon="9.896972290192462"><ele>515.4</ele><time>2026-05-02T14:59:42.999Z</time></trkpt><trkpt lat="44.19767923606206" lon="9.896901514718087"><ele>516.0</ele><time>2026-05-02T14:59:43.999Z</time></trkpt><trkpt lat="44.197578865677535" lon="9.8968404897637"><ele>516.0</ele><time>2026-05-02T14:59:44.999Z</time></trkpt><trkpt lat="44.197460384983145" lon="9.89679446117938"><ele>516.0</ele><time>2026-05-02T14:59:45.999Z</time></trkpt><trkpt lat="44.19734656413308" lon="9.896761725527476"><ele>516.0</ele><time>2026-05-02T14:59:46.999Z</time></trkpt><trkpt lat="44.197228815046905" lon="9.896763274737514"><ele>516.0</ele><time>2026-05-02T14:59:47.999Z</time></trkpt><trkpt lat="44.197114307536324" lon="9.896800312737893"><ele>513.5</ele><time>2026-05-02T14:59:48.999Z</time></trkpt><trkpt lat="44.197000766198975" lon="9.89685889938019"><ele>511.0</ele><time>2026-05-02T14:59:49.999Z</time></trkpt><trkpt lat="44.19687763248651" lon="9.896862314194657"><ele>508.5</ele><time>2026-05-02T14:59:50.999Z</time></trkpt><trkpt lat="44.19676550214304" lon="9.896858177288127"><ele>506.0</ele><time>2026-05-02T14:59:51.999Z</time></trkpt><trkpt lat="44.19665208910244" lon="9.896837297766623"><ele>506.0</ele><time>2026-05-02T14:59:52.999Z</time></trkpt><trkpt lat="44.19654191081549" lon="9.896816005996955"><ele>506.0</ele><time>2026-05-02T14:59:53.999Z</time></trkpt><trkpt lat="44.196424275628225" lon="9.896797145649943"><ele>506.0</ele><time>2026-05-02T14:59:54.999Z</time></trkpt><trkpt lat="44.19630548955863" lon="9.896785854458779"><ele>506.0</ele><time>2026-05-02T14:59:55.999Z</time></trkpt><trkpt lat="44.196189491227685" lon="9.896807386633963"><ele>501.0</ele><time>2026-05-02T14:59:56.999Z</time></trkpt><trkpt lat="44.196079637168914" lon="9.896819589509592"><ele>496.0</ele><time>2026-05-02T14:59:57.999Z</time></trkpt><trkpt lat="44.195967882260106" lon="9.896861768055937"><ele>491.0</ele><time>2026-05-02T14:59:58.999Z</time></trkpt><trkpt lat="44.19586892137793" lon="9.896914141297634"><ele>486.0</ele><time>2026-05-02T14:59:59.999Z</time></trkpt><trkpt lat="44.195781425799694" lon="9.896971545570763"><ele>481.0</ele><time>2026-05-02T15:00:00.999Z</time></trkpt><trkpt lat="44.19571793951048" lon="9.897013177446032"><ele>481.0</ele><time>2026-05-02T15:00:01.999Z</time></trkpt><trkpt lat="44.19565251050442" lon="9.89705216793044"><ele>481.0</ele><time>2026-05-02T15:00:03.999Z</time></trkpt><trkpt lat="44.19565049408409" lon="9.897239394482124"><ele>481.0</ele><time>2026-05-02T15:00:06.999Z</time></trkpt><trkpt lat="44.195696560054095" lon="9.89734555614911"><ele>481.0</ele><time>2026-05-02T15:00:07.999Z</time></trkpt><trkpt lat="44.19575123970131" lon="9.897476147344896"><ele>481.0</ele><time>2026-05-02T15:00:08.999Z</time></trkpt><trkpt lat="44.195794852453815" lon="9.897591769883103"><ele>479.5</ele><time>2026-05-02T15:00:09.999Z</time></trkpt><trkpt lat="44.19586061903173" lon="9.897823727010453"><ele>478.0</ele><time>2026-05-02T15:00:10.999Z</time></trkpt><trkpt lat="44.19584924796175" lon="9.898000451767038"><ele>476.5</ele><time>2026-05-02T15:00:11.999Z</time></trkpt><trkpt lat="44.195867973632346" lon="9.898172522374079"><ele>475.0</ele><time>2026-05-02T15:00:12.999Z</time></trkpt><trkpt lat="44.19586410318281" lon="9.898336759973033"><ele>476.8</ele><time>2026-05-02T15:00:13.999Z</time></trkpt><trkpt lat="44.19582955122319" lon="9.898480875221129"><ele>478.6</ele><time>2026-05-02T15:00:14.999Z</time></trkpt><trkpt lat="44.19576584128034" lon="9.898592304658678"><ele>480.4</ele><time>2026-05-02T15:00:15.999Z</time></trkpt><trkpt lat="44.1956821578152" lon="9.89868520088207"><ele>482.2</ele><time>2026-05-02T15:00:16.999Z</time></trkpt><trkpt lat="44.1955805739799" lon="9.898767353090847"><ele>484.0</ele><time>2026-05-02T15:00:17.999Z</time></trkpt><trkpt lat="44.195475823648565" lon="9.898834352669846"><ele>479.0</ele><time>2026-05-02T15:00:18.999Z</time></trkpt><trkpt lat="44.195376053041834" lon="9.898896099069923"><ele>474.0</ele><time>2026-05-02T15:00:19.999Z</time></trkpt><trkpt lat="44.19527630382813" lon="9.898954631939722"><ele>469.0</ele><time>2026-05-02T15:00:20.999Z</time></trkpt><trkpt lat="44.195177227014405" lon="9.899018677285136"><ele>464.0</ele><time>2026-05-02T15:00:21.999Z</time></trkpt><trkpt lat="44.19509155492376" lon="9.899103213919403"><ele>459.0</ele><time>2026-05-02T15:00:22.999Z</time></trkpt><trkpt lat="44.195004516296635" lon="9.899178766048282"><ele>459.2</ele><time>2026-05-02T15:00:23.999Z</time></trkpt><trkpt lat="44.194933561497265" lon="9.899271594246397"><ele>459.4</ele><time>2026-05-02T15:00:24.999Z</time></trkpt><trkpt lat="44.19488783690063" lon="9.899390742572361"><ele>459.6</ele><time>2026-05-02T15:00:25.999Z</time></trkpt><trkpt lat="44.19487536563417" lon="9.899539677750383"><ele>459.8</ele><time>2026-05-02T15:00:26.999Z</time></trkpt><trkpt lat="44.19486828766389" lon="9.899718244740559"><ele>460.0</ele><time>2026-05-02T15:00:27.999Z</time></trkpt><trkpt lat="44.194854692328484" lon="9.899901102681586"><ele>454.0</ele><time>2026-05-02T15:00:28.999Z</time></trkpt><trkpt lat="44.194824971654505" lon="9.900071843790014"><ele>448.0</ele><time>2026-05-02T15:00:29.999Z</time></trkpt><trkpt lat="44.194808022046956" lon="9.900258665090629"><ele>442.0</ele><time>2026-05-02T15:00:30.999Z</time></trkpt><trkpt lat="44.19478014959437" lon="9.900445787829206"><ele>436.0</ele><time>2026-05-02T15:00:31.999Z</time></trkpt><trkpt lat="44.194760118499566" lon="9.90059321957818"><ele>435.6</ele><time>2026-05-02T15:00:32.999Z</time></trkpt><trkpt lat="44.19475454477443" lon="9.900741501921853"><ele>435.20000000000005</ele><time>2026-05-02T15:00:33.999Z</time></trkpt><trkpt lat="44.19475169700752" lon="9.900888843043568"><ele>434.79999999999995</ele><time>2026-05-02T15:00:34.999Z</time></trkpt><trkpt lat="44.194777555174454" lon="9.901030659585652"><ele>434.4</ele><time>2026-05-02T15:00:35.999Z</time></trkpt><trkpt lat="44.19482472362963" lon="9.901164390824388"><ele>434.0</ele><time>2026-05-02T15:00:36.999Z</time></trkpt><trkpt lat="44.19489402113786" lon="9.901280054391384"><ele>437.79999999999995</ele><time>2026-05-02T15:00:37.999Z</time></trkpt><trkpt lat="44.194961920897356" lon="9.901366587987598"><ele>441.59999999999997</ele><time>2026-05-02T15:00:38.999Z</time></trkpt><trkpt lat="44.19499329055376" lon="9.901488710340514"><ele>445.4</ele><time>2026-05-02T15:00:39.999Z</time></trkpt><trkpt lat="44.194971031885416" lon="9.901618547840158"><ele>449.2</ele><time>2026-05-02T15:00:40.999Z</time></trkpt><trkpt lat="44.19493539166151" lon="9.901743529547215"><ele>453.0</ele><time>2026-05-02T15:00:41.999Z</time></trkpt><trkpt lat="44.19489535940167" lon="9.901890897206435"><ele>453.5</ele><time>2026-05-02T15:00:42.999Z</time></trkpt><trkpt lat="44.19486874770317" lon="9.902045703528062"><ele>454.0</ele><time>2026-05-02T15:00:43.999Z</time></trkpt><trkpt lat="44.194842048437074" lon="9.902201883443853"><ele>454.5</ele><time>2026-05-02T15:00:44.999Z</time></trkpt><trkpt lat="44.19481482917902" lon="9.902361310614712"><ele>455.0</ele><time>2026-05-02T15:00:45.999Z</time></trkpt><trkpt lat="44.194783736130326" lon="9.902526584618675"><ele>452.2</ele><time>2026-05-02T15:00:46.999Z</time></trkpt><trkpt lat="44.19475338680877" lon="9.902681645913267"><ele>449.4</ele><time>2026-05-02T15:00:47.999Z</time></trkpt><trkpt lat="44.19472028181333" lon="9.902830090669969"><ele>446.6</ele><time>2026-05-02T15:00:48.999Z</time></trkpt><trkpt lat="44.194685480463235" lon="9.902960601041041"><ele>443.8</ele><time>2026-05-02T15:00:49.999Z</time></trkpt><trkpt lat="44.19464123845542" lon="9.903070873752526"><ele>441.0</ele><time>2026-05-02T15:00:50.999Z</time></trkpt><trkpt lat="44.19458242072033" lon="9.903166525181309"><ele>441.0</ele><time>2026-05-02T15:00:51.999Z</time></trkpt><trkpt lat="44.1945040780021" lon="9.903247733920049"><ele>441.0</ele><time>2026-05-02T15:00:52.999Z</time></trkpt><trkpt lat="44.19441050731047" lon="9.903318326861088"><ele>441.0</ele><time>2026-05-02T15:00:53.999Z</time></trkpt><trkpt lat="44.194305392556245" lon="9.903391492220411"><ele>441.0</ele><time>2026-05-02T15:00:54.999Z</time></trkpt><trkpt lat="44.194189586062905" lon="9.903473864384337"><ele>442.0</ele><time>2026-05-02T15:00:55.999Z</time></trkpt><trkpt lat="44.19408674407325" lon="9.903552700742157"><ele>443.0</ele><time>2026-05-02T15:00:56.999Z</time></trkpt><trkpt lat="44.19398724829897" lon="9.903676198541692"><ele>444.0</ele><time>2026-05-02T15:00:57.999Z</time></trkpt><trkpt lat="44.19392326999448" lon="9.903809082684472"><ele>445.0</ele><time>2026-05-02T15:00:58.999Z</time></trkpt><trkpt lat="44.19386581922193" lon="9.903929046282414"><ele>439.0</ele><time>2026-05-02T15:00:59.999Z</time></trkpt><trkpt lat="44.193835861328516" lon="9.904083448095363"><ele>433.0</ele><time>2026-05-02T15:01:00.999Z</time></trkpt><trkpt lat="44.19381376234937" lon="9.904241224088342"><ele>427.0</ele><time>2026-05-02T15:01:01.999Z</time></trkpt><trkpt lat="44.19380691378258" lon="9.904421036592371"><ele>421.0</ele><time>2026-05-02T15:01:02.999Z</time></trkpt><trkpt lat="44.19379656074979" lon="9.904602559041008"><ele>420.0</ele><time>2026-05-02T15:01:03.999Z</time></trkpt><trkpt lat="44.193782640998904" lon="9.904801351588393"><ele>419.0</ele><time>2026-05-02T15:01:04.999Z</time></trkpt><trkpt lat="44.19376948014503" lon="9.905006894026167"><ele>418.0</ele><time>2026-05-02T15:01:05.999Z</time></trkpt><trkpt lat="44.19375251553174" lon="9.905190763646763"><ele>417.0</ele><time>2026-05-02T15:01:06.999Z</time></trkpt><trkpt lat="44.19373882186529" lon="9.905355445581673"><ele>419.0</ele><time>2026-05-02T15:01:07.999Z</time></trkpt><trkpt lat="44.193722515810606" lon="9.905523386757324"><ele>421.0</ele><time>2026-05-02T15:01:08.999Z</time></trkpt><trkpt lat="44.19370996599358" lon="9.905717788127314"><ele>423.0</ele><time>2026-05-02T15:01:09.999Z</time></trkpt><trkpt lat="44.19368692640591" lon="9.905912992504012"><ele>425.0</ele><time>2026-05-02T15:01:10.999Z</time></trkpt><trkpt lat="44.19367585390601" lon="9.90610278660679"><ele>424.5</ele><time>2026-05-02T15:01:11.999Z</time></trkpt><trkpt lat="44.19366104951762" lon="9.9062863929917"><ele>424.0</ele><time>2026-05-02T15:01:12.999Z</time></trkpt><trkpt lat="44.19364648534365" lon="9.906455373527491"><ele>423.5</ele><time>2026-05-02T15:01:13.999Z</time></trkpt><trkpt lat="44.1936309728909" lon="9.906618901365416"><ele>423.0</ele><time>2026-05-02T15:01:14.999Z</time></trkpt><trkpt lat="44.19358385282198" lon="9.906754615241859"><ele>423.0</ele><time>2026-05-02T15:01:15.999Z</time></trkpt><trkpt lat="44.19354299104836" lon="9.906856909398057"><ele>423.0</ele><time>2026-05-02T15:01:16.999Z</time></trkpt><trkpt lat="44.193527012235116" lon="9.906963479092836"><ele>423.0</ele><time>2026-05-02T15:01:17.999Z</time></trkpt><trkpt lat="44.19347297399936" lon="9.907010909030326"><ele>423.0</ele><time>2026-05-02T15:01:18.999Z</time></trkpt><trkpt lat="44.193358933811425" lon="9.906993110416492"><ele>423.0</ele><time>2026-05-02T15:01:20.999Z</time></trkpt><trkpt lat="44.19330207316241" lon="9.906942188596606"><ele>423.0</ele><time>2026-05-02T15:01:21.999Z</time></trkpt><trkpt lat="44.19326150438547" lon="9.906848320063348"><ele>424.25</ele><time>2026-05-02T15:01:22.999Z</time></trkpt><trkpt lat="44.19323356618154" lon="9.906704988974589"><ele>425.5</ele><time>2026-05-02T15:01:23.999Z</time></trkpt><trkpt lat="44.19320561261014" lon="9.906540687783941"><ele>426.75</ele><time>2026-05-02T15:01:24.999Z</time></trkpt><trkpt lat="44.193180688404155" lon="9.906377122115732"><ele>428.0</ele><time>2026-05-02T15:01:25.999Z</time></trkpt><trkpt lat="44.193188402009866" lon="9.906196330472293"><ele>428.0</ele><time>2026-05-02T15:01:26.999Z</time></trkpt><trkpt lat="44.19322322128953" lon="9.905978202878918"><ele>428.0</ele><time>2026-05-02T15:01:27.999Z</time></trkpt><trkpt lat="44.193261161682855" lon="9.905744776049657"><ele>428.0</ele><time>2026-05-02T15:01:28.999Z</time></trkpt><trkpt lat="44.19328932044187" lon="9.905538785393656"><ele>427.25</ele><time>2026-05-02T15:01:29.999Z</time></trkpt><trkpt lat="44.19331452507138" lon="9.90533052931171"><ele>426.5</ele><time>2026-05-02T15:01:30.999Z</time></trkpt><trkpt lat="44.19333964473411" lon="9.905141246614177"><ele>425.75</ele><time>2026-05-02T15:01:31.999Z</time></trkpt><trkpt lat="44.19334406994269" lon="9.904977163043549"><ele>425.0</ele><time>2026-05-02T15:01:32.999Z</time></trkpt><trkpt lat="44.19333583213197" lon="9.904846888798598"><ele>423.66666666666663</ele><time>2026-05-02T15:01:33.999Z</time></trkpt><trkpt lat="44.19330725389254" lon="9.904757018695108"><ele>422.3333333333333</ele><time>2026-05-02T15:01:34.999Z</time></trkpt><trkpt lat="44.19325540179396" lon="9.904691384100127"><ele>421.0</ele><time>2026-05-02T15:01:35.999Z</time></trkpt><trkpt lat="44.193177935778124" lon="9.904647563027563"><ele>419.66666666666663</ele><time>2026-05-02T15:01:36.999Z</time></trkpt><trkpt lat="44.19309966719217" lon="9.904605545104092"><ele>418.3333333333333</ele><time>2026-05-02T15:01:37.999Z</time></trkpt><trkpt lat="44.19305755794939" lon="9.904515649872117"><ele>417.0</ele><time>2026-05-02T15:01:38.999Z</time></trkpt><trkpt lat="44.19302665310144" lon="9.904395926894328"><ele>413.0</ele><time>2026-05-02T15:01:39.999Z</time></trkpt><trkpt lat="44.1929958653378" lon="9.904263440265053"><ele>409.0</ele><time>2026-05-02T15:01:40.999Z</time></trkpt><trkpt lat="44.19295161040198" lon="9.904120784712815"><ele>405.0</ele><time>2026-05-02T15:01:41.999Z</time></trkpt><trkpt lat="44.192896733111596" lon="9.903983116156631"><ele>401.0</ele><time>2026-05-02T15:01:42.999Z</time></trkpt><trkpt lat="44.19281726795812" lon="9.903854407970789"><ele>397.0</ele><time>2026-05-02T15:01:43.999Z</time></trkpt><trkpt lat="44.19271872497597" lon="9.903734481370341"><ele>397.0</ele><time>2026-05-02T15:01:44.999Z</time></trkpt><trkpt lat="44.192639477107186" lon="9.90359535172306"><ele>397.0</ele><time>2026-05-02T15:01:45.999Z</time></trkpt><trkpt lat="44.19254371864711" lon="9.903464012768813"><ele>397.0</ele><time>2026-05-02T15:01:46.999Z</time></trkpt><trkpt lat="44.19247127977729" lon="9.903315693758827"><ele>397.0</ele><time>2026-05-02T15:01:47.999Z</time></trkpt><trkpt lat="44.192402291001784" lon="9.903167603814058"><ele>393.5</ele><time>2026-05-02T15:01:48.999Z</time></trkpt><trkpt lat="44.19232258354401" lon="9.903026062132431"><ele>390.0</ele><time>2026-05-02T15:01:49.999Z</time></trkpt><trkpt lat="44.192231654222454" lon="9.90291367969232"><ele>386.5</ele><time>2026-05-02T15:01:50.999Z</time></trkpt><trkpt lat="44.192126541274334" lon="9.902825991168497"><ele>383.0</ele><time>2026-05-02T15:01:51.999Z</time></trkpt><trkpt lat="44.192021755982815" lon="9.902733592658105"><ele>383.0</ele><time>2026-05-02T15:01:52.999Z</time></trkpt><trkpt lat="44.19191181265003" lon="9.902675932706387"><ele>383.0</ele><time>2026-05-02T15:01:53.999Z</time></trkpt><trkpt lat="44.1918196765503" lon="9.902568361643192"><ele>383.0</ele><time>2026-05-02T15:01:54.999Z</time></trkpt><trkpt lat="44.19175519754623" lon="9.90243040184422"><ele>383.0</ele><time>2026-05-02T15:01:55.999Z</time></trkpt><trkpt lat="44.191680903016525" lon="9.902333522107822"><ele>383.5</ele><time>2026-05-02T15:01:56.999Z</time></trkpt><trkpt lat="44.19164391504193" lon="9.902245910834036"><ele>384.0</ele><time>2026-05-02T15:01:57.999Z</time></trkpt><trkpt lat="44.1916406147554" lon="9.902146385047102"><ele>384.5</ele><time>2026-05-02T15:01:58.999Z</time></trkpt><trkpt lat="44.191652561117316" lon="9.90202607753288"><ele>385.0</ele><time>2026-05-02T15:01:59.999Z</time></trkpt><trkpt lat="44.191694235514845" lon="9.901878457513261"><ele>385.49999999999994</ele><time>2026-05-02T15:02:00.999Z</time></trkpt><trkpt lat="44.191724664985806" lon="9.90175524933882"><ele>386.0</ele><time>2026-05-02T15:02:01.999Z</time></trkpt><trkpt lat="44.19171438056299" lon="9.901644869817115"><ele>386.0</ele><time>2026-05-02T15:02:02.999Z</time></trkpt><trkpt lat="44.19166477336191" lon="9.901549518822135"><ele>386.0</ele><time>2026-05-02T15:02:03.999Z</time></trkpt><trkpt lat="44.19158448868632" lon="9.901423052516707"><ele>386.0</ele><time>2026-05-02T15:02:04.999Z</time></trkpt><trkpt lat="44.19149026607031" lon="9.901238137595914"><ele>386.0</ele><time>2026-05-02T15:02:05.999Z</time></trkpt><trkpt lat="44.19142388272683" lon="9.901003434339186"><ele>383.25</ele><time>2026-05-02T15:02:06.999Z</time></trkpt><trkpt lat="44.191353401372915" lon="9.900811029790843"><ele>380.5</ele><time>2026-05-02T15:02:07.999Z</time></trkpt><trkpt lat="44.1912783661503" lon="9.900654358639578"><ele>377.75</ele><time>2026-05-02T15:02:08.999Z</time></trkpt><trkpt lat="44.19123150053374" lon="9.90049569958054"><ele>375.0</ele><time>2026-05-02T15:02:09.999Z</time></trkpt><trkpt lat="44.19119616346323" lon="9.90034114017181"><ele>375.0</ele><time>2026-05-02T15:02:10.999Z</time></trkpt><trkpt lat="44.191174221606495" lon="9.90017088748856"><ele>375.0</ele><time>2026-05-02T15:02:11.999Z</time></trkpt><trkpt lat="44.19114709644982" lon="9.89998737054074"><ele>375.0</ele><time>2026-05-02T15:02:12.999Z</time></trkpt><trkpt lat="44.19111856864145" lon="9.899815106951307"><ele>375.0</ele><time>2026-05-02T15:02:13.999Z</time></trkpt><trkpt lat="44.19109227231073" lon="9.899648061052316"><ele>377.5</ele><time>2026-05-02T15:02:14.999Z</time></trkpt><trkpt lat="44.1910794872802" lon="9.899461240039365"><ele>380.0</ele><time>2026-05-02T15:02:15.999Z</time></trkpt><trkpt lat="44.19107848340754" lon="9.899280430507355"><ele>382.5</ele><time>2026-05-02T15:02:16.999Z</time></trkpt><trkpt lat="44.191071127250616" lon="9.899107385072988"><ele>385.0</ele><time>2026-05-02T15:02:17.999Z</time></trkpt><trkpt lat="44.19104661869373" lon="9.898913072626035"><ele>385.0</ele><time>2026-05-02T15:02:18.999Z</time></trkpt><trkpt lat="44.191001407408386" lon="9.898739893786841"><ele>385.0</ele><time>2026-05-02T15:02:19.999Z</time></trkpt><trkpt lat="44.19094327898525" lon="9.898582630425095"><ele>385.0</ele><time>2026-05-02T15:02:20.999Z</time></trkpt><trkpt lat="44.190879444224684" lon="9.898424345062947"><ele>385.0</ele><time>2026-05-02T15:02:21.999Z</time></trkpt><trkpt lat="44.19082084653653" lon="9.898275067781455"><ele>384.0</ele><time>2026-05-02T15:02:22.999Z</time></trkpt><trkpt lat="44.190763499093684" lon="9.898131313790213"><ele>383.0</ele><time>2026-05-02T15:02:23.999Z</time></trkpt><trkpt lat="44.19069697042895" lon="9.89799892044876"><ele>382.0</ele><time>2026-05-02T15:02:24.999Z</time></trkpt><trkpt lat="44.19063475402027" lon="9.897890328249588"><ele>381.0</ele><time>2026-05-02T15:02:25.999Z</time></trkpt><trkpt lat="44.1905994971827" lon="9.897796863149184"><ele>380.0</ele><time>2026-05-02T15:02:26.999Z</time></trkpt><trkpt lat="44.19060597482372" lon="9.89770818938846"><ele>379.0</ele><time>2026-05-02T15:02:27.999Z</time></trkpt><trkpt lat="44.19064554133927" lon="9.897632041103046"><ele>378.0</ele><time>2026-05-02T15:02:28.999Z</time></trkpt><trkpt lat="44.19072344076625" lon="9.8975430157073"><ele>377.0</ele><time>2026-05-02T15:02:29.999Z</time></trkpt><trkpt lat="44.19083898255069" lon="9.89742106184862"><ele>376.0</ele><time>2026-05-02T15:02:30.999Z</time></trkpt><trkpt lat="44.19095411048326" lon="9.897320654717543"><ele>375.0</ele><time>2026-05-02T15:02:31.999Z</time></trkpt><trkpt lat="44.19104536676439" lon="9.897228562377247"><ele>375.0</ele><time>2026-05-02T15:02:32.999Z</time></trkpt><trkpt lat="44.191114100955794" lon="9.89711631148319"><ele>375.0</ele><time>2026-05-02T15:02:33.999Z</time></trkpt><trkpt lat="44.19114978586697" lon="9.896996359469004"><ele>375.0</ele><time>2026-05-02T15:02:34.999Z</time></trkpt><trkpt lat="44.19114913443683" lon="9.896885798226398"><ele>375.0</ele><time>2026-05-02T15:02:35.999Z</time></trkpt><trkpt lat="44.19111394984658" lon="9.896795037549042"><ele>375.0</ele><time>2026-05-02T15:02:36.999Z</time></trkpt><trkpt lat="44.191042652511925" lon="9.896727889865579"><ele>375.0</ele><time>2026-05-02T15:02:37.999Z</time></trkpt><trkpt lat="44.19095663376008" lon="9.896692001334266"><ele>373.4</ele><time>2026-05-02T15:02:38.999Z</time></trkpt><trkpt lat="44.19085803373619" lon="9.896703687032884"><ele>371.8</ele><time>2026-05-02T15:02:39.999Z</time></trkpt><trkpt lat="44.1907425045138" lon="9.896722051550455"><ele>370.20000000000005</ele><time>2026-05-02T15:02:40.999Z</time></trkpt><trkpt lat="44.19062798545844" lon="9.89675822526012"><ele>368.6</ele><time>2026-05-02T15:02:41.999Z</time></trkpt><trkpt lat="44.19052835351156" lon="9.8968181754264"><ele>367.0</ele><time>2026-05-02T15:02:42.999Z</time></trkpt><trkpt lat="44.19043861902588" lon="9.8969247917277"><ele>366.0</ele><time>2026-05-02T15:02:43.999Z</time></trkpt><trkpt lat="44.19033966416602" lon="9.897071536740816"><ele>365.0</ele><time>2026-05-02T15:02:44.999Z</time></trkpt><trkpt lat="44.19021211015271" lon="9.89722043234403"><ele>364.0</ele><time>2026-05-02T15:02:45.999Z</time></trkpt><trkpt lat="44.19008294371621" lon="9.89732994276727"><ele>364.0</ele><time>2026-05-02T15:02:46.999Z</time></trkpt><trkpt lat="44.18997107944131" lon="9.897429198171373"><ele>364.0</ele><time>2026-05-02T15:02:47.999Z</time></trkpt><trkpt lat="44.18987519383061" lon="9.897541088142932"><ele>364.0</ele><time>2026-05-02T15:02:48.999Z</time></trkpt><trkpt lat="44.18980825075703" lon="9.897676650786085"><ele>364.0</ele><time>2026-05-02T15:02:49.999Z</time></trkpt><trkpt lat="44.189747922162645" lon="9.897786558254941"><ele>360.66666666666663</ele><time>2026-05-02T15:02:50.999Z</time></trkpt><trkpt lat="44.18968893648204" lon="9.897836151009935"><ele>357.3333333333333</ele><time>2026-05-02T15:02:51.999Z</time></trkpt><trkpt lat="44.18961897644367" lon="9.897851779239797"><ele>354.0</ele><time>2026-05-02T15:02:52.999Z</time></trkpt><trkpt lat="44.18953380716767" lon="9.897824582197059"><ele>350.6666666666667</ele><time>2026-05-02T15:02:53.999Z</time></trkpt><trkpt lat="44.18945644091673" lon="9.897783233035451"><ele>347.33333333333337</ele><time>2026-05-02T15:02:54.999Z</time></trkpt><trkpt lat="44.18940199910896" lon="9.897730814683413"><ele>344.0</ele><time>2026-05-02T15:02:55.999Z</time></trkpt><trkpt lat="44.18938529470988" lon="9.897617232030067"><ele>345.25</ele><time>2026-05-02T15:02:56.999Z</time></trkpt><trkpt lat="44.18939728473731" lon="9.897450278727694"><ele>346.5</ele><time>2026-05-02T15:02:57.999Z</time></trkpt><trkpt lat="44.18942290942009" lon="9.897266615996507"><ele>347.75</ele><time>2026-05-02T15:02:58.999Z</time></trkpt><trkpt lat="44.1894705487051" lon="9.897077325892658"><ele>349.0</ele><time>2026-05-02T15:02:59.999Z</time></trkpt><trkpt lat="44.1895361689492" lon="9.896875723460175"><ele>348.2</ele><time>2026-05-02T15:03:00.999Z</time></trkpt><trkpt lat="44.18959812589975" lon="9.896690277601609"><ele>347.4</ele><time>2026-05-02T15:03:01.999Z</time></trkpt><trkpt lat="44.18964956986424" lon="9.896555023312915"><ele>346.6</ele><time>2026-05-02T15:03:02.999Z</time></trkpt><trkpt lat="44.18970331225281" lon="9.896477289706121"><ele>345.8</ele><time>2026-05-02T15:03:03.999Z</time></trkpt><trkpt lat="44.189772718433524" lon="9.896422071786747"><ele>345.0</ele><time>2026-05-02T15:03:04.999Z</time></trkpt><trkpt lat="44.18987054584635" lon="9.896386489253791"><ele>347.25</ele><time>2026-05-02T15:03:05.999Z</time></trkpt><trkpt lat="44.18999345152162" lon="9.896358631453078"><ele>349.5</ele><time>2026-05-02T15:03:06.999Z</time></trkpt><trkpt lat="44.19014608300621" lon="9.896330292964942"><ele>351.75</ele><time>2026-05-02T15:03:07.999Z</time></trkpt><trkpt lat="44.19028593617698" lon="9.896315930348836"><ele>354.0</ele><time>2026-05-02T15:03:08.999Z</time></trkpt><trkpt lat="44.190400235817265" lon="9.896305947865272"><ele>354.0</ele><time>2026-05-02T15:03:09.999Z</time></trkpt><trkpt lat="44.1904712514131" lon="9.896277272934764"><ele>354.0</ele><time>2026-05-02T15:03:10.999Z</time></trkpt><trkpt lat="44.1905294321676" lon="9.896143404963857"><ele>354.0</ele><time>2026-05-02T15:03:12.999Z</time></trkpt><trkpt lat="44.19044689297439" lon="9.895990403039052"><ele>354.0</ele><time>2026-05-02T15:03:14.999Z</time></trkpt><trkpt lat="44.19036699147475" lon="9.895952005212543"><ele>354.0</ele><time>2026-05-02T15:03:15.999Z</time></trkpt><trkpt lat="44.1902493948165" lon="9.895938515481992"><ele>351.0</ele><time>2026-05-02T15:03:16.999Z</time></trkpt><trkpt lat="44.1900991434076" lon="9.89589470137871"><ele>348.0</ele><time>2026-05-02T15:03:17.999Z</time></trkpt><trkpt lat="44.18994859491664" lon="9.895840670440496"><ele>345.0</ele><time>2026-05-02T15:03:18.999Z</time></trkpt><trkpt lat="44.18979458514338" lon="9.895794554391713"><ele>343.0</ele><time>2026-05-02T15:03:19.999Z</time></trkpt><trkpt lat="44.189653126130224" lon="9.895723997995928"><ele>341.0</ele><time>2026-05-02T15:03:20.999Z</time></trkpt><trkpt lat="44.1895215540653" lon="9.89565519530935"><ele>339.0</ele><time>2026-05-02T15:03:21.999Z</time></trkpt><trkpt lat="44.18940507386249" lon="9.895561525091132"><ele>337.0</ele><time>2026-05-02T15:03:22.999Z</time></trkpt><trkpt lat="44.18928950556609" lon="9.895522634539127"><ele>337.0</ele><time>2026-05-02T15:03:23.999Z</time></trkpt><trkpt lat="44.189197553661515" lon="9.895475640350188"><ele>337.0</ele><time>2026-05-02T15:03:24.999Z</time></trkpt><trkpt lat="44.189095911672275" lon="9.895454044229174"><ele>337.0</ele><time>2026-05-02T15:03:25.999Z</time></trkpt><trkpt lat="44.188971967470096" lon="9.89544051355599"><ele>337.0</ele><time>2026-05-02T15:03:26.999Z</time></trkpt><trkpt lat="44.18884640026108" lon="9.895451505029806"><ele>335.75</ele><time>2026-05-02T15:03:27.999Z</time></trkpt><trkpt lat="44.18872974798849" lon="9.895481443143401"><ele>334.5</ele><time>2026-05-02T15:03:28.999Z</time></trkpt><trkpt lat="44.18861325336899" lon="9.895532552995233"><ele>333.25</ele><time>2026-05-02T15:03:29.999Z</time></trkpt><trkpt lat="44.1884952236055" lon="9.895612181941878"><ele>332.0</ele><time>2026-05-02T15:03:30.999Z</time></trkpt><trkpt lat="44.18836503383838" lon="9.89570724409407"><ele>332.0</ele><time>2026-05-02T15:03:31.999Z</time></trkpt><trkpt lat="44.18822044704781" lon="9.895761516196526"><ele>332.0</ele><time>2026-05-02T15:03:32.999Z</time></trkpt><trkpt lat="44.188104894950705" lon="9.895871695458759"><ele>332.0</ele><time>2026-05-02T15:03:33.999Z</time></trkpt><trkpt lat="44.18800552167361" lon="9.895969072063313"><ele>332.0</ele><time>2026-05-02T15:03:34.999Z</time></trkpt><trkpt lat="44.18790900747888" lon="9.896058727388468"><ele>327.33333333333337</ele><time>2026-05-02T15:03:35.999Z</time></trkpt><trkpt lat="44.187818204388286" lon="9.8961365012844"><ele>322.6666666666667</ele><time>2026-05-02T15:03:36.999Z</time></trkpt><trkpt lat="44.1877403414061" lon="9.896196273777683"><ele>318.0</ele><time>2026-05-02T15:03:37.999Z</time></trkpt><trkpt lat="44.187671215749425" lon="9.896237921373727"><ele>313.3333333333333</ele><time>2026-05-02T15:03:38.999Z</time></trkpt><trkpt lat="44.187614356963365" lon="9.89627944303341"><ele>308.66666666666663</ele><time>2026-05-02T15:03:39.999Z</time></trkpt><trkpt lat="44.187535789114094" lon="9.896255384254154"><ele>304.0</ele><time>2026-05-02T15:03:40.999Z</time></trkpt><trkpt lat="44.18745672177402" lon="9.896188592252013"><ele>304.0</ele><time>2026-05-02T15:03:41.999Z</time></trkpt><trkpt lat="44.18737895122539" lon="9.896057488975163"><ele>304.0</ele><time>2026-05-02T15:03:42.999Z</time></trkpt><trkpt lat="44.18730630241212" lon="9.895965585719425"><ele>304.0</ele><time>2026-05-02T15:03:43.999Z</time></trkpt><trkpt lat="44.18724760389402" lon="9.895913998382666"><ele>304.0</ele><time>2026-05-02T15:03:44.999Z</time></trkpt><trkpt lat="44.187222745051955" lon="9.895819498197671"><ele>304.0</ele><time>2026-05-02T15:03:45.999Z</time></trkpt><trkpt lat="44.18722906889642" lon="9.895700135946736"><ele>304.0</ele><time>2026-05-02T15:03:46.999Z</time></trkpt><trkpt lat="44.18726421738403" lon="9.895542099479435"><ele>301.4</ele><time>2026-05-02T15:03:47.999Z</time></trkpt><trkpt lat="44.187295771840354" lon="9.895413616361212"><ele>298.79999999999995</ele><time>2026-05-02T15:03:48.999Z</time></trkpt><trkpt lat="44.187307417857824" lon="9.89531192925141"><ele>296.20000000000005</ele><time>2026-05-02T15:03:49.999Z</time></trkpt><trkpt lat="44.18727274790003" lon="9.895148785633308"><ele>293.6</ele><time>2026-05-02T15:03:51.999Z</time></trkpt><trkpt lat="44.18720817619596" lon="9.895053611905878"><ele>291.0</ele><time>2026-05-02T15:03:52.999Z</time></trkpt><trkpt lat="44.18712276972982" lon="9.894977444740586"><ele>291.0</ele><time>2026-05-02T15:03:53.999Z</time></trkpt><trkpt lat="44.18705076443801" lon="9.89491601285859"><ele>291.0</ele><time>2026-05-02T15:03:54.999Z</time></trkpt><trkpt lat="44.187026636287555" lon="9.894797556455332"><ele>291.0</ele><time>2026-05-02T15:03:55.999Z</time></trkpt><trkpt lat="44.18700059861814" lon="9.894701778243428"><ele>291.0</ele><time>2026-05-02T15:03:56.999Z</time></trkpt><trkpt lat="44.18698310897824" lon="9.89459672217974"><ele>291.0</ele><time>2026-05-02T15:03:57.999Z</time></trkpt><trkpt lat="44.18696906148143" lon="9.894453963977131"><ele>291.0</ele><time>2026-05-02T15:03:59.999Z</time></trkpt><trkpt lat="44.18695497718752" lon="9.8943625162246"><ele>291.0</ele><time>2026-05-02T15:04:01.999Z</time></trkpt><trkpt lat="44.18688649825107" lon="9.894298726458125"><ele>291.0</ele><time>2026-05-02T15:04:06.999Z</time></trkpt><trkpt lat="44.186907700537134" lon="9.894382604644566"><ele>291.0</ele><time>2026-05-02T15:04:11.999Z</time></trkpt></trkseg></trk></gpx>